<?xml version="1.0" encoding="UTF-8" standalone="no" ?>
<gpx xmlns="http://www.topografix.com/GPX/1/1" xmlns:xsi="http://www.w3.org/2001/XMLSchema-instance" xsi:schemaLocation="http://www.topografix.com/GPX/1/1 http://www.topografix.com/GPX/1/1/gpx.xsd" version="1.1" creator="VisuGPX - https://www.visugpx.com">
  <metadata>
    <name>lundi 2015 05</name>
    <desc><![CDATA[cumul mai 2015]]></desc>
  </metadata>
  <trk>
    <name><![CDATA[85 Quai de la Mégisserie]]></name>
    <extensions>
      <line xmlns="http://www.topografix.com/GPX/gpx_style/0/2">
        <color>000000</color>
      </line>
    </extensions>
    <trkseg>
      <trkpt lat="48.85738" lon="2.347">
        <ele>86.5</ele>
        <time>2015-05-05T18:20:32.879Z</time>
      </trkpt>
      <trkpt lat="48.85731" lon="2.34704">
        <ele>85.5</ele>
        <time>2015-05-05T18:20:43.152Z</time>
      </trkpt>
      <trkpt lat="48.85729" lon="2.34705">
        <ele>85.2</ele>
        <time>2015-05-05T18:20:44.188Z</time>
      </trkpt>
      <trkpt lat="48.85722" lon="2.34707">
        <ele>84.8</ele>
        <time>2015-05-05T18:21:05.153Z</time>
      </trkpt>
      <trkpt lat="48.85722" lon="2.34707">
        <ele>84.8</ele>
        <time>2015-05-05T18:21:06.163Z</time>
      </trkpt>
      <trkpt lat="48.85722" lon="2.34708">
        <ele>84.8</ele>
        <time>2015-05-05T18:21:12.254Z</time>
      </trkpt>
      <trkpt lat="48.8572" lon="2.34711">
        <ele>84.9</ele>
        <time>2015-05-05T18:21:13.202Z</time>
      </trkpt>
      <trkpt lat="48.85717" lon="2.34722">
        <ele>86.2</ele>
        <time>2015-05-05T18:21:17.196Z</time>
      </trkpt>
      <trkpt lat="48.85716" lon="2.34728">
        <ele>86.5</ele>
        <time>2015-05-05T18:21:18.243Z</time>
      </trkpt>
      <trkpt lat="48.85716" lon="2.34738">
        <ele>87</ele>
        <time>2015-05-05T18:21:20.154Z</time>
      </trkpt>
      <trkpt lat="48.85714" lon="2.34745">
        <ele>86.8</ele>
        <time>2015-05-05T18:21:21.172Z</time>
      </trkpt>
      <trkpt lat="48.8571" lon="2.34756">
        <ele>86.9</ele>
        <time>2015-05-05T18:21:23.217Z</time>
      </trkpt>
      <trkpt lat="48.85707" lon="2.34768">
        <ele>87</ele>
        <time>2015-05-05T18:21:25.156Z</time>
      </trkpt>
      <trkpt lat="48.85705" lon="2.34775">
        <ele>87.2</ele>
        <time>2015-05-05T18:21:26.169Z</time>
      </trkpt>
      <trkpt lat="48.85703" lon="2.34783">
        <ele>87.2</ele>
        <time>2015-05-05T18:21:27.174Z</time>
      </trkpt>
      <trkpt lat="48.85701" lon="2.3479">
        <ele>87.2</ele>
        <time>2015-05-05T18:21:28.217Z</time>
      </trkpt>
      <trkpt lat="48.857" lon="2.34797">
        <ele>87.2</ele>
        <time>2015-05-05T18:21:29.217Z</time>
      </trkpt>
      <trkpt lat="48.85698" lon="2.34804">
        <ele>87.3</ele>
        <time>2015-05-05T18:21:30.207Z</time>
      </trkpt>
      <trkpt lat="48.85695" lon="2.34813">
        <ele>87</ele>
        <time>2015-05-05T18:21:31.224Z</time>
      </trkpt>
      <trkpt lat="48.85692" lon="2.34821">
        <ele>87.2</ele>
        <time>2015-05-05T18:21:32.140Z</time>
      </trkpt>
      <trkpt lat="48.8569" lon="2.34828">
        <ele>87</ele>
        <time>2015-05-05T18:21:33.151Z</time>
      </trkpt>
      <trkpt lat="48.85688" lon="2.34834">
        <ele>86.8</ele>
        <time>2015-05-05T18:21:34.237Z</time>
      </trkpt>
      <trkpt lat="48.85686" lon="2.34842">
        <ele>86.7</ele>
        <time>2015-05-05T18:21:35.117Z</time>
      </trkpt>
      <trkpt lat="48.85684" lon="2.34848">
        <ele>86.7</ele>
        <time>2015-05-05T18:21:36.182Z</time>
      </trkpt>
      <trkpt lat="48.85682" lon="2.34854">
        <ele>86.7</ele>
        <time>2015-05-05T18:21:37.223Z</time>
      </trkpt>
      <trkpt lat="48.8568" lon="2.34861">
        <ele>86.7</ele>
        <time>2015-05-05T18:21:38.203Z</time>
      </trkpt>
      <trkpt lat="48.85677" lon="2.34869">
        <ele>86.6</ele>
        <time>2015-05-05T18:21:39.204Z</time>
      </trkpt>
      <trkpt lat="48.85675" lon="2.34876">
        <ele>86.6</ele>
        <time>2015-05-05T18:21:40.220Z</time>
      </trkpt>
      <trkpt lat="48.85673" lon="2.34882">
        <ele>86.6</ele>
        <time>2015-05-05T18:21:41.151Z</time>
      </trkpt>
      <trkpt lat="48.85667" lon="2.34889">
        <ele>86.3</ele>
        <time>2015-05-05T18:21:43.178Z</time>
      </trkpt>
      <trkpt lat="48.85662" lon="2.34887">
        <ele>86.1</ele>
        <time>2015-05-05T18:21:44.197Z</time>
      </trkpt>
      <trkpt lat="48.85657" lon="2.34883">
        <ele>85.9</ele>
        <time>2015-05-05T18:21:45.219Z</time>
      </trkpt>
      <trkpt lat="48.85652" lon="2.34881">
        <ele>86</ele>
        <time>2015-05-05T18:21:46.229Z</time>
      </trkpt>
      <trkpt lat="48.85647" lon="2.34878">
        <ele>86.2</ele>
        <time>2015-05-05T18:21:47.154Z</time>
      </trkpt>
      <trkpt lat="48.85642" lon="2.34875">
        <ele>86.1</ele>
        <time>2015-05-05T18:21:48.163Z</time>
      </trkpt>
      <trkpt lat="48.85638" lon="2.34872">
        <ele>86</ele>
        <time>2015-05-05T18:21:49.179Z</time>
      </trkpt>
      <trkpt lat="48.85633" lon="2.34869">
        <ele>86</ele>
        <time>2015-05-05T18:21:50.191Z</time>
      </trkpt>
      <trkpt lat="48.85628" lon="2.34866">
        <ele>86</ele>
        <time>2015-05-05T18:21:51.218Z</time>
      </trkpt>
      <trkpt lat="48.85624" lon="2.34864">
        <ele>86</ele>
        <time>2015-05-05T18:21:52.216Z</time>
      </trkpt>
      <trkpt lat="48.85619" lon="2.34861">
        <ele>85.9</ele>
        <time>2015-05-05T18:21:53.235Z</time>
      </trkpt>
      <trkpt lat="48.85615" lon="2.34858">
        <ele>85.8</ele>
        <time>2015-05-05T18:21:54.129Z</time>
      </trkpt>
      <trkpt lat="48.8561" lon="2.34856">
        <ele>85.7</ele>
        <time>2015-05-05T18:21:55.165Z</time>
      </trkpt>
      <trkpt lat="48.85606" lon="2.34853">
        <ele>85.6</ele>
        <time>2015-05-05T18:21:56.194Z</time>
      </trkpt>
      <trkpt lat="48.85601" lon="2.3485">
        <ele>85.2</ele>
        <time>2015-05-05T18:21:57.207Z</time>
      </trkpt>
      <trkpt lat="48.85597" lon="2.34847">
        <ele>85</ele>
        <time>2015-05-05T18:21:58.225Z</time>
      </trkpt>
      <trkpt lat="48.85593" lon="2.34844">
        <ele>84.8</ele>
        <time>2015-05-05T18:21:59.228Z</time>
      </trkpt>
      <trkpt lat="48.85589" lon="2.34841">
        <ele>84.6</ele>
        <time>2015-05-05T18:22:00.243Z</time>
      </trkpt>
      <trkpt lat="48.8558" lon="2.34836">
        <ele>84.2</ele>
        <time>2015-05-05T18:22:02.175Z</time>
      </trkpt>
      <trkpt lat="48.85576" lon="2.34833">
        <ele>84.1</ele>
        <time>2015-05-05T18:22:03.180Z</time>
      </trkpt>
      <trkpt lat="48.8557" lon="2.3483">
        <ele>84</ele>
        <time>2015-05-05T18:22:04.337Z</time>
      </trkpt>
      <trkpt lat="48.85566" lon="2.34827">
        <ele>83.9</ele>
        <time>2015-05-05T18:22:05.232Z</time>
      </trkpt>
      <trkpt lat="48.85561" lon="2.34823">
        <ele>83.8</ele>
        <time>2015-05-05T18:22:06.253Z</time>
      </trkpt>
      <trkpt lat="48.85556" lon="2.34819">
        <ele>83.8</ele>
        <time>2015-05-05T18:22:07.131Z</time>
      </trkpt>
      <trkpt lat="48.85551" lon="2.34816">
        <ele>84.1</ele>
        <time>2015-05-05T18:22:08.165Z</time>
      </trkpt>
      <trkpt lat="48.85545" lon="2.34813">
        <ele>84.2</ele>
        <time>2015-05-05T18:22:09.160Z</time>
      </trkpt>
      <trkpt lat="48.85539" lon="2.34809">
        <ele>84.3</ele>
        <time>2015-05-05T18:22:10.209Z</time>
      </trkpt>
      <trkpt lat="48.85533" lon="2.34806">
        <ele>84.3</ele>
        <time>2015-05-05T18:22:11.211Z</time>
      </trkpt>
      <trkpt lat="48.85521" lon="2.34799">
        <ele>84.3</ele>
        <time>2015-05-05T18:22:13.244Z</time>
      </trkpt>
      <trkpt lat="48.85515" lon="2.34796">
        <ele>84.2</ele>
        <time>2015-05-05T18:22:14.152Z</time>
      </trkpt>
      <trkpt lat="48.85509" lon="2.34792">
        <ele>84.3</ele>
        <time>2015-05-05T18:22:15.126Z</time>
      </trkpt>
      <trkpt lat="48.85497" lon="2.34785">
        <ele>84.2</ele>
        <time>2015-05-05T18:22:17.212Z</time>
      </trkpt>
      <trkpt lat="48.85485" lon="2.34779">
        <ele>83.9</ele>
        <time>2015-05-05T18:22:19.298Z</time>
      </trkpt>
      <trkpt lat="48.85479" lon="2.34775">
        <ele>83.7</ele>
        <time>2015-05-05T18:22:20.137Z</time>
      </trkpt>
      <trkpt lat="48.85473" lon="2.34772">
        <ele>83.6</ele>
        <time>2015-05-05T18:22:21.161Z</time>
      </trkpt>
      <trkpt lat="48.85467" lon="2.34768">
        <ele>83.6</ele>
        <time>2015-05-05T18:22:22.187Z</time>
      </trkpt>
      <trkpt lat="48.85461" lon="2.34765">
        <ele>83.6</ele>
        <time>2015-05-05T18:22:23.211Z</time>
      </trkpt>
      <trkpt lat="48.85455" lon="2.34761">
        <ele>83.6</ele>
        <time>2015-05-05T18:22:24.225Z</time>
      </trkpt>
      <trkpt lat="48.8545" lon="2.34758">
        <ele>83.6</ele>
        <time>2015-05-05T18:22:25.229Z</time>
      </trkpt>
      <trkpt lat="48.85444" lon="2.34754">
        <ele>83.9</ele>
        <time>2015-05-05T18:22:26.141Z</time>
      </trkpt>
      <trkpt lat="48.85439" lon="2.34751">
        <ele>83.9</ele>
        <time>2015-05-05T18:22:27.182Z</time>
      </trkpt>
      <trkpt lat="48.85434" lon="2.34747">
        <ele>84.3</ele>
        <time>2015-05-05T18:22:28.185Z</time>
      </trkpt>
      <trkpt lat="48.85429" lon="2.34744">
        <ele>84.4</ele>
        <time>2015-05-05T18:22:29.196Z</time>
      </trkpt>
      <trkpt lat="48.85423" lon="2.3474">
        <ele>84.3</ele>
        <time>2015-05-05T18:22:30.206Z</time>
      </trkpt>
      <trkpt lat="48.85418" lon="2.34737">
        <ele>84.2</ele>
        <time>2015-05-05T18:22:31.165Z</time>
      </trkpt>
      <trkpt lat="48.85413" lon="2.34733">
        <ele>84.2</ele>
        <time>2015-05-05T18:22:32.130Z</time>
      </trkpt>
      <trkpt lat="48.85409" lon="2.3473">
        <ele>84</ele>
        <time>2015-05-05T18:22:33.142Z</time>
      </trkpt>
      <trkpt lat="48.85404" lon="2.34727">
        <ele>83.8</ele>
        <time>2015-05-05T18:22:34.168Z</time>
      </trkpt>
      <trkpt lat="48.854" lon="2.34724">
        <ele>83.6</ele>
        <time>2015-05-05T18:22:35.193Z</time>
      </trkpt>
      <trkpt lat="48.85395" lon="2.34721">
        <ele>83.7</ele>
        <time>2015-05-05T18:22:36.205Z</time>
      </trkpt>
      <trkpt lat="48.8539" lon="2.34719">
        <ele>83.6</ele>
        <time>2015-05-05T18:22:37.120Z</time>
      </trkpt>
      <trkpt lat="48.85386" lon="2.34716">
        <ele>83.5</ele>
        <time>2015-05-05T18:22:38.132Z</time>
      </trkpt>
      <trkpt lat="48.85381" lon="2.34713">
        <ele>83.5</ele>
        <time>2015-05-05T18:22:39.155Z</time>
      </trkpt>
      <trkpt lat="48.85377" lon="2.3471">
        <ele>83.3</ele>
        <time>2015-05-05T18:22:40.165Z</time>
      </trkpt>
      <trkpt lat="48.85372" lon="2.34708">
        <ele>83</ele>
        <time>2015-05-05T18:22:41.167Z</time>
      </trkpt>
      <trkpt lat="48.85368" lon="2.34705">
        <ele>83.1</ele>
        <time>2015-05-05T18:22:42.182Z</time>
      </trkpt>
      <trkpt lat="48.85363" lon="2.34703">
        <ele>83.1</ele>
        <time>2015-05-05T18:22:43.185Z</time>
      </trkpt>
      <trkpt lat="48.85358" lon="2.34701">
        <ele>83</ele>
        <time>2015-05-05T18:22:44.204Z</time>
      </trkpt>
      <trkpt lat="48.85354" lon="2.34699">
        <ele>82.8</ele>
        <time>2015-05-05T18:22:45.210Z</time>
      </trkpt>
      <trkpt lat="48.85349" lon="2.34697">
        <ele>82.4</ele>
        <time>2015-05-05T18:22:46.225Z</time>
      </trkpt>
      <trkpt lat="48.85344" lon="2.34695">
        <ele>82.2</ele>
        <time>2015-05-05T18:22:47.138Z</time>
      </trkpt>
      <trkpt lat="48.85336" lon="2.34691">
        <ele>81.9</ele>
        <time>2015-05-05T18:22:49.149Z</time>
      </trkpt>
      <trkpt lat="48.85332" lon="2.34689">
        <ele>81.6</ele>
        <time>2015-05-05T18:22:50.249Z</time>
      </trkpt>
      <trkpt lat="48.85324" lon="2.34685">
        <ele>80.8</ele>
        <time>2015-05-05T18:22:52.202Z</time>
      </trkpt>
      <trkpt lat="48.85321" lon="2.34683">
        <ele>80.8</ele>
        <time>2015-05-05T18:22:53.215Z</time>
      </trkpt>
      <trkpt lat="48.85313" lon="2.34678">
        <ele>81</ele>
        <time>2015-05-05T18:22:55.172Z</time>
      </trkpt>
      <trkpt lat="48.8531" lon="2.34676">
        <ele>80.8</ele>
        <time>2015-05-05T18:22:56.191Z</time>
      </trkpt>
      <trkpt lat="48.85302" lon="2.34672">
        <ele>80.5</ele>
        <time>2015-05-05T18:22:58.200Z</time>
      </trkpt>
      <trkpt lat="48.85298" lon="2.3467">
        <ele>80.3</ele>
        <time>2015-05-05T18:22:59.171Z</time>
      </trkpt>
      <trkpt lat="48.8529" lon="2.34664">
        <ele>79.9</ele>
        <time>2015-05-05T18:23:01.176Z</time>
      </trkpt>
      <trkpt lat="48.85286" lon="2.34661">
        <ele>79.9</ele>
        <time>2015-05-05T18:23:02.171Z</time>
      </trkpt>
      <trkpt lat="48.85282" lon="2.34656">
        <ele>79.7</ele>
        <time>2015-05-05T18:23:03.159Z</time>
      </trkpt>
      <trkpt lat="48.85278" lon="2.34653">
        <ele>79.8</ele>
        <time>2015-05-05T18:23:04.191Z</time>
      </trkpt>
      <trkpt lat="48.85273" lon="2.3465">
        <ele>79.9</ele>
        <time>2015-05-05T18:23:05.203Z</time>
      </trkpt>
      <trkpt lat="48.85268" lon="2.34647">
        <ele>80</ele>
        <time>2015-05-05T18:23:06.226Z</time>
      </trkpt>
      <trkpt lat="48.85263" lon="2.34643">
        <ele>80.2</ele>
        <time>2015-05-05T18:23:07.155Z</time>
      </trkpt>
      <trkpt lat="48.85259" lon="2.34639">
        <ele>80.2</ele>
        <time>2015-05-05T18:23:08.146Z</time>
      </trkpt>
      <trkpt lat="48.85255" lon="2.34636">
        <ele>80.3</ele>
        <time>2015-05-05T18:23:09.154Z</time>
      </trkpt>
      <trkpt lat="48.85251" lon="2.34632">
        <ele>80.3</ele>
        <time>2015-05-05T18:23:10.221Z</time>
      </trkpt>
      <trkpt lat="48.85246" lon="2.34629">
        <ele>80.4</ele>
        <time>2015-05-05T18:23:11.131Z</time>
      </trkpt>
      <trkpt lat="48.85242" lon="2.34626">
        <ele>80.4</ele>
        <time>2015-05-05T18:23:12.131Z</time>
      </trkpt>
      <trkpt lat="48.85235" lon="2.34622">
        <ele>80.6</ele>
        <time>2015-05-05T18:23:14.149Z</time>
      </trkpt>
      <trkpt lat="48.85232" lon="2.34619">
        <ele>80.6</ele>
        <time>2015-05-05T18:23:15.167Z</time>
      </trkpt>
      <trkpt lat="48.85225" lon="2.34612">
        <ele>80.8</ele>
        <time>2015-05-05T18:23:17.165Z</time>
      </trkpt>
      <trkpt lat="48.85219" lon="2.34608">
        <ele>80.9</ele>
        <time>2015-05-05T18:23:18.175Z</time>
      </trkpt>
      <trkpt lat="48.85214" lon="2.34605">
        <ele>80.9</ele>
        <time>2015-05-05T18:23:19.230Z</time>
      </trkpt>
      <trkpt lat="48.85208" lon="2.34603">
        <ele>80.9</ele>
        <time>2015-05-05T18:23:20.149Z</time>
      </trkpt>
      <trkpt lat="48.85201" lon="2.34602">
        <ele>80.7</ele>
        <time>2015-05-05T18:23:21.153Z</time>
      </trkpt>
      <trkpt lat="48.85194" lon="2.34599">
        <ele>80.6</ele>
        <time>2015-05-05T18:23:22.175Z</time>
      </trkpt>
      <trkpt lat="48.85112" lon="2.34558">
        <ele>80.4</ele>
        <time>2015-05-05T18:23:38.123Z</time>
      </trkpt>
      <trkpt lat="48.85104" lon="2.34554">
        <ele>81.7</ele>
        <time>2015-05-05T18:23:43.243Z</time>
      </trkpt>
      <trkpt lat="48.85101" lon="2.34552">
        <ele>82.5</ele>
        <time>2015-05-05T18:23:44.146Z</time>
      </trkpt>
      <trkpt lat="48.85093" lon="2.34551">
        <ele>84.5</ele>
        <time>2015-05-05T18:23:48.155Z</time>
      </trkpt>
      <trkpt lat="48.85091" lon="2.34551">
        <ele>84.6</ele>
        <time>2015-05-05T18:23:49.138Z</time>
      </trkpt>
      <trkpt lat="48.85085" lon="2.34558">
        <ele>81.3</ele>
        <time>2015-05-05T18:23:54.138Z</time>
      </trkpt>
      <trkpt lat="48.85084" lon="2.34559">
        <ele>81.2</ele>
        <time>2015-05-05T18:23:55.200Z</time>
      </trkpt>
      <trkpt lat="48.85076" lon="2.34565">
        <ele>80.1</ele>
        <time>2015-05-05T18:23:59.156Z</time>
      </trkpt>
      <trkpt lat="48.85073" lon="2.34569">
        <ele>79.6</ele>
        <time>2015-05-05T18:24:00.215Z</time>
      </trkpt>
      <trkpt lat="48.85068" lon="2.34577">
        <ele>79.5</ele>
        <time>2015-05-05T18:24:02.141Z</time>
      </trkpt>
      <trkpt lat="48.85066" lon="2.34582">
        <ele>79.4</ele>
        <time>2015-05-05T18:24:03.152Z</time>
      </trkpt>
      <trkpt lat="48.85064" lon="2.34595">
        <ele>79</ele>
        <time>2015-05-05T18:24:05.100Z</time>
      </trkpt>
      <trkpt lat="48.85062" lon="2.34603">
        <ele>78.9</ele>
        <time>2015-05-05T18:24:06.223Z</time>
      </trkpt>
      <trkpt lat="48.8506" lon="2.34611">
        <ele>78.7</ele>
        <time>2015-05-05T18:24:07.124Z</time>
      </trkpt>
      <trkpt lat="48.85059" lon="2.34618">
        <ele>78.5</ele>
        <time>2015-05-05T18:24:08.128Z</time>
      </trkpt>
      <trkpt lat="48.85057" lon="2.34624">
        <ele>78.4</ele>
        <time>2015-05-05T18:24:09.133Z</time>
      </trkpt>
      <trkpt lat="48.85056" lon="2.34632">
        <ele>78.3</ele>
        <time>2015-05-05T18:24:10.162Z</time>
      </trkpt>
      <trkpt lat="48.85055" lon="2.34638">
        <ele>78.2</ele>
        <time>2015-05-05T18:24:11.197Z</time>
      </trkpt>
      <trkpt lat="48.85053" lon="2.34646">
        <ele>78.2</ele>
        <time>2015-05-05T18:24:12.197Z</time>
      </trkpt>
      <trkpt lat="48.85051" lon="2.34654">
        <ele>78.2</ele>
        <time>2015-05-05T18:24:13.213Z</time>
      </trkpt>
      <trkpt lat="48.8505" lon="2.34663">
        <ele>78.2</ele>
        <time>2015-05-05T18:24:14.218Z</time>
      </trkpt>
      <trkpt lat="48.85048" lon="2.3467">
        <ele>78.1</ele>
        <time>2015-05-05T18:24:15.131Z</time>
      </trkpt>
      <trkpt lat="48.85046" lon="2.3468">
        <ele>78.1</ele>
        <time>2015-05-05T18:24:16.242Z</time>
      </trkpt>
      <trkpt lat="48.85043" lon="2.34689">
        <ele>78.2</ele>
        <time>2015-05-05T18:24:17.125Z</time>
      </trkpt>
      <trkpt lat="48.85041" lon="2.34697">
        <ele>78.2</ele>
        <time>2015-05-05T18:24:18.135Z</time>
      </trkpt>
      <trkpt lat="48.85039" lon="2.34706">
        <ele>78.2</ele>
        <time>2015-05-05T18:24:19.161Z</time>
      </trkpt>
      <trkpt lat="48.85037" lon="2.34715">
        <ele>78.1</ele>
        <time>2015-05-05T18:24:20.169Z</time>
      </trkpt>
      <trkpt lat="48.85035" lon="2.34724">
        <ele>78</ele>
        <time>2015-05-05T18:24:21.175Z</time>
      </trkpt>
      <trkpt lat="48.85031" lon="2.34734">
        <ele>77.7</ele>
        <time>2015-05-05T18:24:22.181Z</time>
      </trkpt>
      <trkpt lat="48.85027" lon="2.34744">
        <ele>77.4</ele>
        <time>2015-05-05T18:24:23.191Z</time>
      </trkpt>
      <trkpt lat="48.85024" lon="2.34755">
        <ele>77.1</ele>
        <time>2015-05-05T18:24:24.197Z</time>
      </trkpt>
      <trkpt lat="48.85022" lon="2.34765">
        <ele>77</ele>
        <time>2015-05-05T18:24:25.202Z</time>
      </trkpt>
      <trkpt lat="48.8502" lon="2.34775">
        <ele>77</ele>
        <time>2015-05-05T18:24:26.211Z</time>
      </trkpt>
      <trkpt lat="48.85018" lon="2.34785">
        <ele>76.9</ele>
        <time>2015-05-05T18:24:27.129Z</time>
      </trkpt>
      <trkpt lat="48.85016" lon="2.34795">
        <ele>76.8</ele>
        <time>2015-05-05T18:24:28.163Z</time>
      </trkpt>
      <trkpt lat="48.85014" lon="2.34805">
        <ele>76.8</ele>
        <time>2015-05-05T18:24:29.183Z</time>
      </trkpt>
      <trkpt lat="48.85012" lon="2.34816">
        <ele>76.8</ele>
        <time>2015-05-05T18:24:30.187Z</time>
      </trkpt>
      <trkpt lat="48.8501" lon="2.34826">
        <ele>76.8</ele>
        <time>2015-05-05T18:24:31.191Z</time>
      </trkpt>
      <trkpt lat="48.85008" lon="2.34838">
        <ele>76.8</ele>
        <time>2015-05-05T18:24:32.204Z</time>
      </trkpt>
      <trkpt lat="48.85006" lon="2.3485">
        <ele>76.8</ele>
        <time>2015-05-05T18:24:33.230Z</time>
      </trkpt>
      <trkpt lat="48.85004" lon="2.3486">
        <ele>76.9</ele>
        <time>2015-05-05T18:24:34.244Z</time>
      </trkpt>
      <trkpt lat="48.85002" lon="2.3487">
        <ele>76.9</ele>
        <time>2015-05-05T18:24:35.121Z</time>
      </trkpt>
      <trkpt lat="48.84999" lon="2.34878">
        <ele>77</ele>
        <time>2015-05-05T18:24:36.132Z</time>
      </trkpt>
      <trkpt lat="48.84997" lon="2.34887">
        <ele>77.1</ele>
        <time>2015-05-05T18:24:37.133Z</time>
      </trkpt>
      <trkpt lat="48.84994" lon="2.34898">
        <ele>77.2</ele>
        <time>2015-05-05T18:24:38.138Z</time>
      </trkpt>
      <trkpt lat="48.84992" lon="2.34908">
        <ele>77.2</ele>
        <time>2015-05-05T18:24:39.158Z</time>
      </trkpt>
      <trkpt lat="48.84989" lon="2.34918">
        <ele>77.3</ele>
        <time>2015-05-05T18:24:40.173Z</time>
      </trkpt>
      <trkpt lat="48.84986" lon="2.34927">
        <ele>77.2</ele>
        <time>2015-05-05T18:24:41.179Z</time>
      </trkpt>
      <trkpt lat="48.84983" lon="2.3494">
        <ele>77.2</ele>
        <time>2015-05-05T18:24:42.184Z</time>
      </trkpt>
      <trkpt lat="48.8498" lon="2.34949">
        <ele>77</ele>
        <time>2015-05-05T18:24:43.203Z</time>
      </trkpt>
      <trkpt lat="48.84977" lon="2.34959">
        <ele>77</ele>
        <time>2015-05-05T18:24:44.202Z</time>
      </trkpt>
      <trkpt lat="48.84974" lon="2.34969">
        <ele>77</ele>
        <time>2015-05-05T18:24:45.121Z</time>
      </trkpt>
      <trkpt lat="48.84971" lon="2.3498">
        <ele>76.9</ele>
        <time>2015-05-05T18:24:46.235Z</time>
      </trkpt>
      <trkpt lat="48.84967" lon="2.34991">
        <ele>76.5</ele>
        <time>2015-05-05T18:24:47.136Z</time>
      </trkpt>
      <trkpt lat="48.84964" lon="2.35">
        <ele>76.6</ele>
        <time>2015-05-05T18:24:48.142Z</time>
      </trkpt>
      <trkpt lat="48.84962" lon="2.35009">
        <ele>76.6</ele>
        <time>2015-05-05T18:24:49.152Z</time>
      </trkpt>
      <trkpt lat="48.8496" lon="2.35017">
        <ele>76.7</ele>
        <time>2015-05-05T18:24:50.163Z</time>
      </trkpt>
      <trkpt lat="48.84958" lon="2.35026">
        <ele>76.7</ele>
        <time>2015-05-05T18:24:51.170Z</time>
      </trkpt>
      <trkpt lat="48.84957" lon="2.35036">
        <ele>76.7</ele>
        <time>2015-05-05T18:24:52.174Z</time>
      </trkpt>
      <trkpt lat="48.84957" lon="2.35046">
        <ele>76.6</ele>
        <time>2015-05-05T18:24:53.226Z</time>
      </trkpt>
      <trkpt lat="48.84956" lon="2.35057">
        <ele>76.6</ele>
        <time>2015-05-05T18:24:54.140Z</time>
      </trkpt>
      <trkpt lat="48.84955" lon="2.35068">
        <ele>76.6</ele>
        <time>2015-05-05T18:24:55.247Z</time>
      </trkpt>
      <trkpt lat="48.84954" lon="2.35079">
        <ele>76.6</ele>
        <time>2015-05-05T18:24:56.160Z</time>
      </trkpt>
      <trkpt lat="48.84953" lon="2.35089">
        <ele>76.6</ele>
        <time>2015-05-05T18:24:57.191Z</time>
      </trkpt>
      <trkpt lat="48.8495" lon="2.351">
        <ele>76.6</ele>
        <time>2015-05-05T18:24:58.406Z</time>
      </trkpt>
      <trkpt lat="48.84948" lon="2.35111">
        <ele>76.6</ele>
        <time>2015-05-05T18:24:59.222Z</time>
      </trkpt>
      <trkpt lat="48.84948" lon="2.35121">
        <ele>76.5</ele>
        <time>2015-05-05T18:25:00.134Z</time>
      </trkpt>
      <trkpt lat="48.84949" lon="2.35131">
        <ele>76.5</ele>
        <time>2015-05-05T18:25:01.134Z</time>
      </trkpt>
      <trkpt lat="48.84949" lon="2.35141">
        <ele>76.6</ele>
        <time>2015-05-05T18:25:02.147Z</time>
      </trkpt>
      <trkpt lat="48.84949" lon="2.35152">
        <ele>76.6</ele>
        <time>2015-05-05T18:25:03.133Z</time>
      </trkpt>
      <trkpt lat="48.84949" lon="2.35161">
        <ele>76.6</ele>
        <time>2015-05-05T18:25:04.246Z</time>
      </trkpt>
      <trkpt lat="48.84949" lon="2.35172">
        <ele>76.7</ele>
        <time>2015-05-05T18:25:05.133Z</time>
      </trkpt>
      <trkpt lat="48.84948" lon="2.35182">
        <ele>76.7</ele>
        <time>2015-05-05T18:25:06.140Z</time>
      </trkpt>
      <trkpt lat="48.84946" lon="2.35193">
        <ele>76.8</ele>
        <time>2015-05-05T18:25:07.162Z</time>
      </trkpt>
      <trkpt lat="48.84946" lon="2.35202">
        <ele>76.9</ele>
        <time>2015-05-05T18:25:08.167Z</time>
      </trkpt>
      <trkpt lat="48.84946" lon="2.35211">
        <ele>76.9</ele>
        <time>2015-05-05T18:25:09.172Z</time>
      </trkpt>
      <trkpt lat="48.84947" lon="2.35223">
        <ele>77.1</ele>
        <time>2015-05-05T18:25:10.193Z</time>
      </trkpt>
      <trkpt lat="48.84947" lon="2.35233">
        <ele>77.2</ele>
        <time>2015-05-05T18:25:11.195Z</time>
      </trkpt>
      <trkpt lat="48.84947" lon="2.35243">
        <ele>77.4</ele>
        <time>2015-05-05T18:25:12.208Z</time>
      </trkpt>
      <trkpt lat="48.84946" lon="2.35254">
        <ele>77.5</ele>
        <time>2015-05-05T18:25:13.130Z</time>
      </trkpt>
      <trkpt lat="48.84946" lon="2.35265">
        <ele>77.6</ele>
        <time>2015-05-05T18:25:14.130Z</time>
      </trkpt>
      <trkpt lat="48.84946" lon="2.35275">
        <ele>77.7</ele>
        <time>2015-05-05T18:25:15.152Z</time>
      </trkpt>
      <trkpt lat="48.84945" lon="2.35284">
        <ele>77.7</ele>
        <time>2015-05-05T18:25:16.166Z</time>
      </trkpt>
      <trkpt lat="48.84944" lon="2.35293">
        <ele>77.7</ele>
        <time>2015-05-05T18:25:17.193Z</time>
      </trkpt>
      <trkpt lat="48.84944" lon="2.35303">
        <ele>77.8</ele>
        <time>2015-05-05T18:25:18.203Z</time>
      </trkpt>
      <trkpt lat="48.84944" lon="2.35312">
        <ele>77.9</ele>
        <time>2015-05-05T18:25:19.137Z</time>
      </trkpt>
      <trkpt lat="48.84944" lon="2.35321">
        <ele>78</ele>
        <time>2015-05-05T18:25:20.136Z</time>
      </trkpt>
      <trkpt lat="48.84943" lon="2.35331">
        <ele>78.1</ele>
        <time>2015-05-05T18:25:21.145Z</time>
      </trkpt>
      <trkpt lat="48.84943" lon="2.3534">
        <ele>78.2</ele>
        <time>2015-05-05T18:25:22.170Z</time>
      </trkpt>
      <trkpt lat="48.84943" lon="2.35349">
        <ele>78.3</ele>
        <time>2015-05-05T18:25:23.173Z</time>
      </trkpt>
      <trkpt lat="48.84942" lon="2.35358">
        <ele>78.3</ele>
        <time>2015-05-05T18:25:24.188Z</time>
      </trkpt>
      <trkpt lat="48.84942" lon="2.35365">
        <ele>78.3</ele>
        <time>2015-05-05T18:25:25.195Z</time>
      </trkpt>
      <trkpt lat="48.84942" lon="2.35373">
        <ele>78.3</ele>
        <time>2015-05-05T18:25:26.208Z</time>
      </trkpt>
      <trkpt lat="48.84942" lon="2.35386">
        <ele>78.4</ele>
        <time>2015-05-05T18:25:28.163Z</time>
      </trkpt>
      <trkpt lat="48.84943" lon="2.35391">
        <ele>78.5</ele>
        <time>2015-05-05T18:25:29.171Z</time>
      </trkpt>
      <trkpt lat="48.84945" lon="2.35402">
        <ele>78.5</ele>
        <time>2015-05-05T18:25:32.220Z</time>
      </trkpt>
      <trkpt lat="48.84946" lon="2.35404">
        <ele>78.6</ele>
        <time>2015-05-05T18:25:33.133Z</time>
      </trkpt>
      <trkpt lat="48.84947" lon="2.35417">
        <ele>79</ele>
        <time>2015-05-05T18:25:36.189Z</time>
      </trkpt>
      <trkpt lat="48.84947" lon="2.35422">
        <ele>79.2</ele>
        <time>2015-05-05T18:25:37.196Z</time>
      </trkpt>
      <trkpt lat="48.84947" lon="2.35435">
        <ele>79.4</ele>
        <time>2015-05-05T18:25:39.142Z</time>
      </trkpt>
      <trkpt lat="48.84947" lon="2.35441">
        <ele>79.4</ele>
        <time>2015-05-05T18:25:40.265Z</time>
      </trkpt>
      <trkpt lat="48.84947" lon="2.35449">
        <ele>80.3</ele>
        <time>2015-05-05T18:25:41.139Z</time>
      </trkpt>
      <trkpt lat="48.84947" lon="2.35456">
        <ele>80.5</ele>
        <time>2015-05-05T18:25:42.122Z</time>
      </trkpt>
      <trkpt lat="48.84946" lon="2.35464">
        <ele>80.5</ele>
        <time>2015-05-05T18:25:43.148Z</time>
      </trkpt>
      <trkpt lat="48.84945" lon="2.35472">
        <ele>80.5</ele>
        <time>2015-05-05T18:25:44.108Z</time>
      </trkpt>
      <trkpt lat="48.84945" lon="2.35479">
        <ele>80.5</ele>
        <time>2015-05-05T18:25:45.113Z</time>
      </trkpt>
      <trkpt lat="48.84945" lon="2.35486">
        <ele>80.6</ele>
        <time>2015-05-05T18:25:46.155Z</time>
      </trkpt>
      <trkpt lat="48.84944" lon="2.35493">
        <ele>80.7</ele>
        <time>2015-05-05T18:25:47.226Z</time>
      </trkpt>
      <trkpt lat="48.84942" lon="2.35502">
        <ele>80.7</ele>
        <time>2015-05-05T18:25:48.132Z</time>
      </trkpt>
      <trkpt lat="48.84941" lon="2.3551">
        <ele>80.7</ele>
        <time>2015-05-05T18:25:49.148Z</time>
      </trkpt>
      <trkpt lat="48.84941" lon="2.35518">
        <ele>80.7</ele>
        <time>2015-05-05T18:25:50.168Z</time>
      </trkpt>
      <trkpt lat="48.8494" lon="2.35526">
        <ele>80.7</ele>
        <time>2015-05-05T18:25:51.183Z</time>
      </trkpt>
      <trkpt lat="48.8494" lon="2.35535">
        <ele>80.7</ele>
        <time>2015-05-05T18:25:52.180Z</time>
      </trkpt>
      <trkpt lat="48.84939" lon="2.35544">
        <ele>80.7</ele>
        <time>2015-05-05T18:25:53.192Z</time>
      </trkpt>
      <trkpt lat="48.84938" lon="2.35551">
        <ele>80.6</ele>
        <time>2015-05-05T18:25:54.202Z</time>
      </trkpt>
      <trkpt lat="48.84938" lon="2.35564">
        <ele>80.7</ele>
        <time>2015-05-05T18:25:56.212Z</time>
      </trkpt>
      <trkpt lat="48.84938" lon="2.3557">
        <ele>80.6</ele>
        <time>2015-05-05T18:25:57.104Z</time>
      </trkpt>
      <trkpt lat="48.84936" lon="2.35579">
        <ele>81.1</ele>
        <time>2015-05-05T18:26:02.110Z</time>
      </trkpt>
      <trkpt lat="48.84936" lon="2.35581">
        <ele>80.2</ele>
        <time>2015-05-05T18:26:03.144Z</time>
      </trkpt>
      <trkpt lat="48.84935" lon="2.35582">
        <ele>79.9</ele>
        <time>2015-05-05T18:26:10.160Z</time>
      </trkpt>
      <trkpt lat="48.84933" lon="2.35584">
        <ele>81.5</ele>
        <time>2015-05-05T18:26:11.162Z</time>
      </trkpt>
      <trkpt lat="48.84933" lon="2.35585">
        <ele>81.8</ele>
        <time>2015-05-05T18:26:17.135Z</time>
      </trkpt>
      <trkpt lat="48.84933" lon="2.35585">
        <ele>81.8</ele>
        <time>2015-05-05T18:26:18.140Z</time>
      </trkpt>
      <trkpt lat="48.84934" lon="2.35586">
        <ele>81.8</ele>
        <time>2015-05-05T18:26:19.147Z</time>
      </trkpt>
      <trkpt lat="48.84934" lon="2.35597">
        <ele>81.9</ele>
        <time>2015-05-05T18:26:23.185Z</time>
      </trkpt>
      <trkpt lat="48.84934" lon="2.35601">
        <ele>81.8</ele>
        <time>2015-05-05T18:26:24.228Z</time>
      </trkpt>
      <trkpt lat="48.84934" lon="2.35611">
        <ele>81.6</ele>
        <time>2015-05-05T18:26:26.198Z</time>
      </trkpt>
      <trkpt lat="48.84934" lon="2.35617">
        <ele>81.7</ele>
        <time>2015-05-05T18:26:27.206Z</time>
      </trkpt>
      <trkpt lat="48.84933" lon="2.35627">
        <ele>81.8</ele>
        <time>2015-05-05T18:26:29.264Z</time>
      </trkpt>
      <trkpt lat="48.84933" lon="2.35632">
        <ele>81.9</ele>
        <time>2015-05-05T18:26:30.158Z</time>
      </trkpt>
      <trkpt lat="48.84932" lon="2.35644">
        <ele>82</ele>
        <time>2015-05-05T18:26:32.178Z</time>
      </trkpt>
      <trkpt lat="48.84932" lon="2.3565">
        <ele>81.6</ele>
        <time>2015-05-05T18:26:33.212Z</time>
      </trkpt>
      <trkpt lat="48.84932" lon="2.35662">
        <ele>80.9</ele>
        <time>2015-05-05T18:26:35.144Z</time>
      </trkpt>
      <trkpt lat="48.84931" lon="2.35668">
        <ele>81</ele>
        <time>2015-05-05T18:26:36.161Z</time>
      </trkpt>
      <trkpt lat="48.84931" lon="2.35674">
        <ele>80.6</ele>
        <time>2015-05-05T18:26:37.179Z</time>
      </trkpt>
      <trkpt lat="48.8493" lon="2.35682">
        <ele>80.9</ele>
        <time>2015-05-05T18:26:38.188Z</time>
      </trkpt>
      <trkpt lat="48.84927" lon="2.35694">
        <ele>81</ele>
        <time>2015-05-05T18:26:40.213Z</time>
      </trkpt>
      <trkpt lat="48.84924" lon="2.35702">
        <ele>80.9</ele>
        <time>2015-05-05T18:26:41.318Z</time>
      </trkpt>
      <trkpt lat="48.84921" lon="2.35714">
        <ele>80.8</ele>
        <time>2015-05-05T18:26:43.191Z</time>
      </trkpt>
      <trkpt lat="48.84918" lon="2.3572">
        <ele>80.8</ele>
        <time>2015-05-05T18:26:44.118Z</time>
      </trkpt>
      <trkpt lat="48.84916" lon="2.35726">
        <ele>80.8</ele>
        <time>2015-05-05T18:26:45.152Z</time>
      </trkpt>
      <trkpt lat="48.84913" lon="2.35731">
        <ele>80.8</ele>
        <time>2015-05-05T18:26:46.188Z</time>
      </trkpt>
      <trkpt lat="48.8491" lon="2.35735">
        <ele>81</ele>
        <time>2015-05-05T18:26:47.191Z</time>
      </trkpt>
      <trkpt lat="48.84906" lon="2.3574">
        <ele>80.9</ele>
        <time>2015-05-05T18:26:48.190Z</time>
      </trkpt>
      <trkpt lat="48.84902" lon="2.35747">
        <ele>80.9</ele>
        <time>2015-05-05T18:26:49.209Z</time>
      </trkpt>
      <trkpt lat="48.84898" lon="2.35753">
        <ele>80.9</ele>
        <time>2015-05-05T18:26:50.343Z</time>
      </trkpt>
      <trkpt lat="48.84893" lon="2.3576">
        <ele>80.7</ele>
        <time>2015-05-05T18:26:51.161Z</time>
      </trkpt>
      <trkpt lat="48.84889" lon="2.35766">
        <ele>80.8</ele>
        <time>2015-05-05T18:26:52.193Z</time>
      </trkpt>
      <trkpt lat="48.84885" lon="2.35773">
        <ele>80.8</ele>
        <time>2015-05-05T18:26:53.182Z</time>
      </trkpt>
      <trkpt lat="48.8488" lon="2.35779">
        <ele>80.7</ele>
        <time>2015-05-05T18:26:54.192Z</time>
      </trkpt>
      <trkpt lat="48.84876" lon="2.35786">
        <ele>80.3</ele>
        <time>2015-05-05T18:26:55.206Z</time>
      </trkpt>
      <trkpt lat="48.84871" lon="2.35793">
        <ele>80.4</ele>
        <time>2015-05-05T18:26:56.222Z</time>
      </trkpt>
      <trkpt lat="48.84866" lon="2.35801">
        <ele>80.4</ele>
        <time>2015-05-05T18:26:57.119Z</time>
      </trkpt>
      <trkpt lat="48.84862" lon="2.35809">
        <ele>80.3</ele>
        <time>2015-05-05T18:26:58.207Z</time>
      </trkpt>
      <trkpt lat="48.84857" lon="2.35815">
        <ele>80.3</ele>
        <time>2015-05-05T18:26:59.131Z</time>
      </trkpt>
      <trkpt lat="48.84852" lon="2.35822">
        <ele>80.2</ele>
        <time>2015-05-05T18:27:00.148Z</time>
      </trkpt>
      <trkpt lat="48.84847" lon="2.35829">
        <ele>80.2</ele>
        <time>2015-05-05T18:27:01.158Z</time>
      </trkpt>
      <trkpt lat="48.84843" lon="2.35836">
        <ele>80.1</ele>
        <time>2015-05-05T18:27:02.168Z</time>
      </trkpt>
      <trkpt lat="48.84838" lon="2.35844">
        <ele>80.2</ele>
        <time>2015-05-05T18:27:03.183Z</time>
      </trkpt>
      <trkpt lat="48.84833" lon="2.35851">
        <ele>80.1</ele>
        <time>2015-05-05T18:27:04.194Z</time>
      </trkpt>
      <trkpt lat="48.84829" lon="2.35857">
        <ele>80.2</ele>
        <time>2015-05-05T18:27:05.209Z</time>
      </trkpt>
      <trkpt lat="48.84824" lon="2.35865">
        <ele>80.4</ele>
        <time>2015-05-05T18:27:06.223Z</time>
      </trkpt>
      <trkpt lat="48.84819" lon="2.35872">
        <ele>80.3</ele>
        <time>2015-05-05T18:27:07.137Z</time>
      </trkpt>
      <trkpt lat="48.84814" lon="2.35879">
        <ele>79.9</ele>
        <time>2015-05-05T18:27:08.141Z</time>
      </trkpt>
      <trkpt lat="48.84809" lon="2.3589">
        <ele>79.5</ele>
        <time>2015-05-05T18:27:09.135Z</time>
      </trkpt>
      <trkpt lat="48.84804" lon="2.35899">
        <ele>78.8</ele>
        <time>2015-05-05T18:27:10.191Z</time>
      </trkpt>
      <trkpt lat="48.84799" lon="2.35907">
        <ele>78.5</ele>
        <time>2015-05-05T18:27:11.174Z</time>
      </trkpt>
      <trkpt lat="48.84795" lon="2.35913">
        <ele>78.5</ele>
        <time>2015-05-05T18:27:12.174Z</time>
      </trkpt>
      <trkpt lat="48.84791" lon="2.35918">
        <ele>78.6</ele>
        <time>2015-05-05T18:27:13.182Z</time>
      </trkpt>
      <trkpt lat="48.84787" lon="2.35923">
        <ele>78.8</ele>
        <time>2015-05-05T18:27:14.191Z</time>
      </trkpt>
      <trkpt lat="48.84783" lon="2.35929">
        <ele>79.1</ele>
        <time>2015-05-05T18:27:15.220Z</time>
      </trkpt>
      <trkpt lat="48.84779" lon="2.35935">
        <ele>79.3</ele>
        <time>2015-05-05T18:27:16.229Z</time>
      </trkpt>
      <trkpt lat="48.84775" lon="2.3594">
        <ele>79.4</ele>
        <time>2015-05-05T18:27:17.152Z</time>
      </trkpt>
      <trkpt lat="48.84771" lon="2.35946">
        <ele>79.5</ele>
        <time>2015-05-05T18:27:18.154Z</time>
      </trkpt>
      <trkpt lat="48.84766" lon="2.35953">
        <ele>79.3</ele>
        <time>2015-05-05T18:27:19.193Z</time>
      </trkpt>
      <trkpt lat="48.84762" lon="2.35959">
        <ele>79.2</ele>
        <time>2015-05-05T18:27:20.188Z</time>
      </trkpt>
      <trkpt lat="48.84757" lon="2.35966">
        <ele>79.4</ele>
        <time>2015-05-05T18:27:21.223Z</time>
      </trkpt>
      <trkpt lat="48.84753" lon="2.35972">
        <ele>79.6</ele>
        <time>2015-05-05T18:27:22.224Z</time>
      </trkpt>
      <trkpt lat="48.8475" lon="2.35979">
        <ele>79.7</ele>
        <time>2015-05-05T18:27:23.144Z</time>
      </trkpt>
      <trkpt lat="48.84746" lon="2.35985">
        <ele>79.6</ele>
        <time>2015-05-05T18:27:24.147Z</time>
      </trkpt>
      <trkpt lat="48.84743" lon="2.35991">
        <ele>79.5</ele>
        <time>2015-05-05T18:27:25.194Z</time>
      </trkpt>
      <trkpt lat="48.84739" lon="2.35998">
        <ele>79.4</ele>
        <time>2015-05-05T18:27:26.189Z</time>
      </trkpt>
      <trkpt lat="48.84735" lon="2.36005">
        <ele>79.5</ele>
        <time>2015-05-05T18:27:27.199Z</time>
      </trkpt>
      <trkpt lat="48.84729" lon="2.36015">
        <ele>79</ele>
        <time>2015-05-05T18:27:28.210Z</time>
      </trkpt>
      <trkpt lat="48.84724" lon="2.36023">
        <ele>78.9</ele>
        <time>2015-05-05T18:27:29.235Z</time>
      </trkpt>
      <trkpt lat="48.8472" lon="2.36031">
        <ele>78.8</ele>
        <time>2015-05-05T18:27:30.135Z</time>
      </trkpt>
      <trkpt lat="48.84715" lon="2.3604">
        <ele>78.6</ele>
        <time>2015-05-05T18:27:31.153Z</time>
      </trkpt>
      <trkpt lat="48.8471" lon="2.36049">
        <ele>78.4</ele>
        <time>2015-05-05T18:27:32.157Z</time>
      </trkpt>
      <trkpt lat="48.84705" lon="2.36056">
        <ele>78.2</ele>
        <time>2015-05-05T18:27:33.178Z</time>
      </trkpt>
      <trkpt lat="48.847" lon="2.36065">
        <ele>78.5</ele>
        <time>2015-05-05T18:27:34.198Z</time>
      </trkpt>
      <trkpt lat="48.84695" lon="2.36073">
        <ele>78.8</ele>
        <time>2015-05-05T18:27:35.193Z</time>
      </trkpt>
      <trkpt lat="48.8469" lon="2.36079">
        <ele>78.9</ele>
        <time>2015-05-05T18:27:36.211Z</time>
      </trkpt>
      <trkpt lat="48.84685" lon="2.36085">
        <ele>78.9</ele>
        <time>2015-05-05T18:27:37.161Z</time>
      </trkpt>
      <trkpt lat="48.84681" lon="2.36091">
        <ele>78.7</ele>
        <time>2015-05-05T18:27:38.130Z</time>
      </trkpt>
      <trkpt lat="48.84677" lon="2.36096">
        <ele>78.5</ele>
        <time>2015-05-05T18:27:39.138Z</time>
      </trkpt>
      <trkpt lat="48.84673" lon="2.361">
        <ele>78.6</ele>
        <time>2015-05-05T18:27:40.174Z</time>
      </trkpt>
      <trkpt lat="48.84669" lon="2.36105">
        <ele>78.5</ele>
        <time>2015-05-05T18:27:41.194Z</time>
      </trkpt>
      <trkpt lat="48.84665" lon="2.3611">
        <ele>78.6</ele>
        <time>2015-05-05T18:27:42.210Z</time>
      </trkpt>
      <trkpt lat="48.84661" lon="2.36116">
        <ele>78.4</ele>
        <time>2015-05-05T18:27:43.131Z</time>
      </trkpt>
      <trkpt lat="48.84657" lon="2.36121">
        <ele>78.3</ele>
        <time>2015-05-05T18:27:44.122Z</time>
      </trkpt>
      <trkpt lat="48.84654" lon="2.36126">
        <ele>78.1</ele>
        <time>2015-05-05T18:27:45.148Z</time>
      </trkpt>
      <trkpt lat="48.8465" lon="2.36132">
        <ele>78.2</ele>
        <time>2015-05-05T18:27:46.176Z</time>
      </trkpt>
      <trkpt lat="48.84647" lon="2.36137">
        <ele>78</ele>
        <time>2015-05-05T18:27:47.188Z</time>
      </trkpt>
      <trkpt lat="48.84643" lon="2.36143">
        <ele>77.8</ele>
        <time>2015-05-05T18:27:48.221Z</time>
      </trkpt>
      <trkpt lat="48.84639" lon="2.36149">
        <ele>78</ele>
        <time>2015-05-05T18:27:49.111Z</time>
      </trkpt>
      <trkpt lat="48.84635" lon="2.36155">
        <ele>78.2</ele>
        <time>2015-05-05T18:27:50.129Z</time>
      </trkpt>
      <trkpt lat="48.84632" lon="2.36161">
        <ele>78.3</ele>
        <time>2015-05-05T18:27:51.141Z</time>
      </trkpt>
      <trkpt lat="48.84627" lon="2.36166">
        <ele>78.3</ele>
        <time>2015-05-05T18:27:52.179Z</time>
      </trkpt>
      <trkpt lat="48.84623" lon="2.36171">
        <ele>78.4</ele>
        <time>2015-05-05T18:27:53.184Z</time>
      </trkpt>
      <trkpt lat="48.84619" lon="2.36177">
        <ele>78.4</ele>
        <time>2015-05-05T18:27:54.221Z</time>
      </trkpt>
      <trkpt lat="48.84615" lon="2.36182">
        <ele>78.4</ele>
        <time>2015-05-05T18:27:55.130Z</time>
      </trkpt>
      <trkpt lat="48.84611" lon="2.36188">
        <ele>78.6</ele>
        <time>2015-05-05T18:27:56.143Z</time>
      </trkpt>
      <trkpt lat="48.84607" lon="2.36194">
        <ele>78.8</ele>
        <time>2015-05-05T18:27:57.157Z</time>
      </trkpt>
      <trkpt lat="48.84603" lon="2.362">
        <ele>79</ele>
        <time>2015-05-05T18:27:58.179Z</time>
      </trkpt>
      <trkpt lat="48.84598" lon="2.36206">
        <ele>79.1</ele>
        <time>2015-05-05T18:27:59.186Z</time>
      </trkpt>
      <trkpt lat="48.84594" lon="2.36213">
        <ele>79.3</ele>
        <time>2015-05-05T18:28:00.234Z</time>
      </trkpt>
      <trkpt lat="48.8459" lon="2.36219">
        <ele>79.4</ele>
        <time>2015-05-05T18:28:01.134Z</time>
      </trkpt>
      <trkpt lat="48.84586" lon="2.36226">
        <ele>79.4</ele>
        <time>2015-05-05T18:28:02.132Z</time>
      </trkpt>
      <trkpt lat="48.84582" lon="2.36232">
        <ele>79.5</ele>
        <time>2015-05-05T18:28:03.151Z</time>
      </trkpt>
      <trkpt lat="48.84578" lon="2.36238">
        <ele>79.5</ele>
        <time>2015-05-05T18:28:04.182Z</time>
      </trkpt>
      <trkpt lat="48.84574" lon="2.36244">
        <ele>79.3</ele>
        <time>2015-05-05T18:28:05.205Z</time>
      </trkpt>
      <trkpt lat="48.8457" lon="2.3625">
        <ele>79.3</ele>
        <time>2015-05-05T18:28:06.209Z</time>
      </trkpt>
      <trkpt lat="48.84567" lon="2.36255">
        <ele>79.2</ele>
        <time>2015-05-05T18:28:07.222Z</time>
      </trkpt>
      <trkpt lat="48.84563" lon="2.3626">
        <ele>79.4</ele>
        <time>2015-05-05T18:28:08.146Z</time>
      </trkpt>
      <trkpt lat="48.8456" lon="2.36266">
        <ele>79.4</ele>
        <time>2015-05-05T18:28:09.146Z</time>
      </trkpt>
      <trkpt lat="48.84556" lon="2.36271">
        <ele>79.6</ele>
        <time>2015-05-05T18:28:10.191Z</time>
      </trkpt>
      <trkpt lat="48.84553" lon="2.36277">
        <ele>79.6</ele>
        <time>2015-05-05T18:28:11.193Z</time>
      </trkpt>
      <trkpt lat="48.84549" lon="2.36281">
        <ele>79.6</ele>
        <time>2015-05-05T18:28:12.202Z</time>
      </trkpt>
      <trkpt lat="48.84545" lon="2.36287">
        <ele>79.6</ele>
        <time>2015-05-05T18:28:13.207Z</time>
      </trkpt>
      <trkpt lat="48.84541" lon="2.36292">
        <ele>79.6</ele>
        <time>2015-05-05T18:28:14.215Z</time>
      </trkpt>
      <trkpt lat="48.84537" lon="2.36298">
        <ele>79.6</ele>
        <time>2015-05-05T18:28:15.236Z</time>
      </trkpt>
      <trkpt lat="48.84533" lon="2.36304">
        <ele>79.6</ele>
        <time>2015-05-05T18:28:16.252Z</time>
      </trkpt>
      <trkpt lat="48.8453" lon="2.3631">
        <ele>79.7</ele>
        <time>2015-05-05T18:28:17.131Z</time>
      </trkpt>
      <trkpt lat="48.84526" lon="2.36316">
        <ele>80</ele>
        <time>2015-05-05T18:28:18.131Z</time>
      </trkpt>
      <trkpt lat="48.84523" lon="2.36322">
        <ele>80.2</ele>
        <time>2015-05-05T18:28:19.151Z</time>
      </trkpt>
      <trkpt lat="48.84519" lon="2.36327">
        <ele>80.4</ele>
        <time>2015-05-05T18:28:20.172Z</time>
      </trkpt>
      <trkpt lat="48.84516" lon="2.36332">
        <ele>80.3</ele>
        <time>2015-05-05T18:28:21.184Z</time>
      </trkpt>
      <trkpt lat="48.84512" lon="2.36338">
        <ele>80.4</ele>
        <time>2015-05-05T18:28:22.202Z</time>
      </trkpt>
      <trkpt lat="48.84509" lon="2.36344">
        <ele>80.4</ele>
        <time>2015-05-05T18:28:23.155Z</time>
      </trkpt>
      <trkpt lat="48.84505" lon="2.36349">
        <ele>80.4</ele>
        <time>2015-05-05T18:28:24.162Z</time>
      </trkpt>
      <trkpt lat="48.84501" lon="2.36354">
        <ele>80.5</ele>
        <time>2015-05-05T18:28:25.189Z</time>
      </trkpt>
      <trkpt lat="48.84498" lon="2.3636">
        <ele>80.5</ele>
        <time>2015-05-05T18:28:26.203Z</time>
      </trkpt>
      <trkpt lat="48.84494" lon="2.36366">
        <ele>80.7</ele>
        <time>2015-05-05T18:28:27.223Z</time>
      </trkpt>
      <trkpt lat="48.84491" lon="2.36372">
        <ele>80.7</ele>
        <time>2015-05-05T18:28:28.227Z</time>
      </trkpt>
      <trkpt lat="48.84487" lon="2.36376">
        <ele>80.7</ele>
        <time>2015-05-05T18:28:29.142Z</time>
      </trkpt>
      <trkpt lat="48.84484" lon="2.36381">
        <ele>80.5</ele>
        <time>2015-05-05T18:28:30.145Z</time>
      </trkpt>
      <trkpt lat="48.8448" lon="2.36386">
        <ele>80.6</ele>
        <time>2015-05-05T18:28:31.172Z</time>
      </trkpt>
      <trkpt lat="48.84476" lon="2.3639">
        <ele>80.9</ele>
        <time>2015-05-05T18:28:32.179Z</time>
      </trkpt>
      <trkpt lat="48.84469" lon="2.36397">
        <ele>81</ele>
        <time>2015-05-05T18:28:34.217Z</time>
      </trkpt>
      <trkpt lat="48.84466" lon="2.36401">
        <ele>80.7</ele>
        <time>2015-05-05T18:28:35.165Z</time>
      </trkpt>
      <trkpt lat="48.84461" lon="2.36407">
        <ele>80.8</ele>
        <time>2015-05-05T18:28:37.152Z</time>
      </trkpt>
      <trkpt lat="48.84459" lon="2.3641">
        <ele>80.8</ele>
        <time>2015-05-05T18:28:38.173Z</time>
      </trkpt>
      <trkpt lat="48.84454" lon="2.36417">
        <ele>81.1</ele>
        <time>2015-05-05T18:28:40.207Z</time>
      </trkpt>
      <trkpt lat="48.84452" lon="2.36421">
        <ele>81.4</ele>
        <time>2015-05-05T18:28:41.229Z</time>
      </trkpt>
      <trkpt lat="48.84445" lon="2.36428">
        <ele>81.2</ele>
        <time>2015-05-05T18:28:44.200Z</time>
      </trkpt>
      <trkpt lat="48.84443" lon="2.3643">
        <ele>81.2</ele>
        <time>2015-05-05T18:28:45.213Z</time>
      </trkpt>
      <trkpt lat="48.84435" lon="2.36433">
        <ele>81.4</ele>
        <time>2015-05-05T18:28:48.215Z</time>
      </trkpt>
      <trkpt lat="48.84432" lon="2.36434">
        <ele>81.3</ele>
        <time>2015-05-05T18:28:49.180Z</time>
      </trkpt>
      <trkpt lat="48.84425" lon="2.36438">
        <ele>80.8</ele>
        <time>2015-05-05T18:28:52.177Z</time>
      </trkpt>
      <trkpt lat="48.84422" lon="2.36439">
        <ele>80.6</ele>
        <time>2015-05-05T18:28:53.187Z</time>
      </trkpt>
      <trkpt lat="48.84415" lon="2.36443">
        <ele>81.1</ele>
        <time>2015-05-05T18:28:56.183Z</time>
      </trkpt>
      <trkpt lat="48.84412" lon="2.36445">
        <ele>81.7</ele>
        <time>2015-05-05T18:28:57.200Z</time>
      </trkpt>
      <trkpt lat="48.84407" lon="2.36449">
        <ele>82.5</ele>
        <time>2015-05-05T18:29:01.146Z</time>
      </trkpt>
      <trkpt lat="48.84407" lon="2.3645">
        <ele>82.8</ele>
        <time>2015-05-05T18:29:02.153Z</time>
      </trkpt>
      <trkpt lat="48.84407" lon="2.3645">
        <ele>82.9</ele>
        <time>2015-05-05T18:29:18.155Z</time>
      </trkpt>
      <trkpt lat="48.84406" lon="2.36453">
        <ele>84</ele>
        <time>2015-05-05T18:29:19.177Z</time>
      </trkpt>
      <trkpt lat="48.84399" lon="2.36457">
        <ele>84.1</ele>
        <time>2015-05-05T18:29:23.184Z</time>
      </trkpt>
      <trkpt lat="48.84396" lon="2.36458">
        <ele>84.1</ele>
        <time>2015-05-05T18:29:24.191Z</time>
      </trkpt>
      <trkpt lat="48.8439" lon="2.36468">
        <ele>84.3</ele>
        <time>2015-05-05T18:29:29.146Z</time>
      </trkpt>
      <trkpt lat="48.84389" lon="2.36469">
        <ele>84.3</ele>
        <time>2015-05-05T18:29:30.148Z</time>
      </trkpt>
      <trkpt lat="48.84386" lon="2.36481">
        <ele>84.7</ele>
        <time>2015-05-05T18:29:35.206Z</time>
      </trkpt>
      <trkpt lat="48.84386" lon="2.36484">
        <ele>84.8</ele>
        <time>2015-05-05T18:29:36.217Z</time>
      </trkpt>
      <trkpt lat="48.84382" lon="2.36494">
        <ele>85</ele>
        <time>2015-05-05T18:29:39.136Z</time>
      </trkpt>
      <trkpt lat="48.8438" lon="2.36498">
        <ele>85.1</ele>
        <time>2015-05-05T18:29:40.178Z</time>
      </trkpt>
      <trkpt lat="48.84378" lon="2.36507">
        <ele>85.2</ele>
        <time>2015-05-05T18:29:43.194Z</time>
      </trkpt>
      <trkpt lat="48.84377" lon="2.36511">
        <ele>85.2</ele>
        <time>2015-05-05T18:29:44.200Z</time>
      </trkpt>
      <trkpt lat="48.84374" lon="2.3652">
        <ele>85.3</ele>
        <time>2015-05-05T18:29:47.186Z</time>
      </trkpt>
      <trkpt lat="48.84372" lon="2.36524">
        <ele>85.2</ele>
        <time>2015-05-05T18:29:48.186Z</time>
      </trkpt>
      <trkpt lat="48.84367" lon="2.36535">
        <ele>85.2</ele>
        <time>2015-05-05T18:29:51.137Z</time>
      </trkpt>
      <trkpt lat="48.84365" lon="2.36538">
        <ele>85.2</ele>
        <time>2015-05-05T18:29:52.158Z</time>
      </trkpt>
      <trkpt lat="48.84361" lon="2.36544">
        <ele>85.2</ele>
        <time>2015-05-05T18:29:54.223Z</time>
      </trkpt>
      <trkpt lat="48.84358" lon="2.36549">
        <ele>85.1</ele>
        <time>2015-05-05T18:29:55.116Z</time>
      </trkpt>
      <trkpt lat="48.84354" lon="2.36558">
        <ele>85.1</ele>
        <time>2015-05-05T18:29:57.156Z</time>
      </trkpt>
      <trkpt lat="48.84352" lon="2.36563">
        <ele>85.1</ele>
        <time>2015-05-05T18:29:58.164Z</time>
      </trkpt>
      <trkpt lat="48.84348" lon="2.36567">
        <ele>85.1</ele>
        <time>2015-05-05T18:29:59.257Z</time>
      </trkpt>
      <trkpt lat="48.84343" lon="2.36572">
        <ele>85.1</ele>
        <time>2015-05-05T18:30:00.107Z</time>
      </trkpt>
      <trkpt lat="48.84339" lon="2.36578">
        <ele>85.2</ele>
        <time>2015-05-05T18:30:02.114Z</time>
      </trkpt>
      <trkpt lat="48.84335" lon="2.36584">
        <ele>85.2</ele>
        <time>2015-05-05T18:30:02.171Z</time>
      </trkpt>
      <trkpt lat="48.84331" lon="2.3659">
        <ele>85.2</ele>
        <time>2015-05-05T18:30:03.190Z</time>
      </trkpt>
      <trkpt lat="48.84326" lon="2.36596">
        <ele>85.1</ele>
        <time>2015-05-05T18:30:04.198Z</time>
      </trkpt>
      <trkpt lat="48.84321" lon="2.36603">
        <ele>85.2</ele>
        <time>2015-05-05T18:30:05.107Z</time>
      </trkpt>
      <trkpt lat="48.84316" lon="2.36611">
        <ele>85.2</ele>
        <time>2015-05-05T18:30:06.114Z</time>
      </trkpt>
      <trkpt lat="48.84311" lon="2.36618">
        <ele>85.2</ele>
        <time>2015-05-05T18:30:07.325Z</time>
      </trkpt>
      <trkpt lat="48.84306" lon="2.36624">
        <ele>85.3</ele>
        <time>2015-05-05T18:30:08.196Z</time>
      </trkpt>
      <trkpt lat="48.84302" lon="2.3663">
        <ele>85.3</ele>
        <time>2015-05-05T18:30:09.211Z</time>
      </trkpt>
      <trkpt lat="48.84297" lon="2.36635">
        <ele>85.3</ele>
        <time>2015-05-05T18:30:10.231Z</time>
      </trkpt>
      <trkpt lat="48.84292" lon="2.36641">
        <ele>85.3</ele>
        <time>2015-05-05T18:30:11.133Z</time>
      </trkpt>
      <trkpt lat="48.84287" lon="2.36648">
        <ele>85.3</ele>
        <time>2015-05-05T18:30:12.134Z</time>
      </trkpt>
      <trkpt lat="48.84277" lon="2.36659">
        <ele>84.5</ele>
        <time>2015-05-05T18:30:13.159Z</time>
      </trkpt>
      <trkpt lat="48.8427" lon="2.36668">
        <ele>84.2</ele>
        <time>2015-05-05T18:30:14.168Z</time>
      </trkpt>
      <trkpt lat="48.84265" lon="2.36676">
        <ele>83.9</ele>
        <time>2015-05-05T18:30:15.187Z</time>
      </trkpt>
      <trkpt lat="48.84259" lon="2.36683">
        <ele>83.8</ele>
        <time>2015-05-05T18:30:16.242Z</time>
      </trkpt>
      <trkpt lat="48.84254" lon="2.36691">
        <ele>83.6</ele>
        <time>2015-05-05T18:30:17.146Z</time>
      </trkpt>
      <trkpt lat="48.84249" lon="2.36698">
        <ele>83.3</ele>
        <time>2015-05-05T18:30:18.193Z</time>
      </trkpt>
      <trkpt lat="48.84244" lon="2.36704">
        <ele>82.9</ele>
        <time>2015-05-05T18:30:19.220Z</time>
      </trkpt>
      <trkpt lat="48.84239" lon="2.3671">
        <ele>82.6</ele>
        <time>2015-05-05T18:30:20.229Z</time>
      </trkpt>
      <trkpt lat="48.84235" lon="2.36716">
        <ele>82.3</ele>
        <time>2015-05-05T18:30:21.143Z</time>
      </trkpt>
      <trkpt lat="48.84231" lon="2.36721">
        <ele>82.2</ele>
        <time>2015-05-05T18:30:22.182Z</time>
      </trkpt>
      <trkpt lat="48.84227" lon="2.36726">
        <ele>82</ele>
        <time>2015-05-05T18:30:23.176Z</time>
      </trkpt>
      <trkpt lat="48.84223" lon="2.36732">
        <ele>81.8</ele>
        <time>2015-05-05T18:30:24.208Z</time>
      </trkpt>
      <trkpt lat="48.8422" lon="2.36737">
        <ele>81.5</ele>
        <time>2015-05-05T18:30:25.239Z</time>
      </trkpt>
      <trkpt lat="48.84214" lon="2.36744">
        <ele>81.3</ele>
        <time>2015-05-05T18:30:27.142Z</time>
      </trkpt>
      <trkpt lat="48.8421" lon="2.36747">
        <ele>81.3</ele>
        <time>2015-05-05T18:30:28.300Z</time>
      </trkpt>
      <trkpt lat="48.84205" lon="2.36753">
        <ele>81.1</ele>
        <time>2015-05-05T18:30:30.167Z</time>
      </trkpt>
      <trkpt lat="48.84203" lon="2.36756">
        <ele>81.2</ele>
        <time>2015-05-05T18:30:31.196Z</time>
      </trkpt>
      <trkpt lat="48.84198" lon="2.36764">
        <ele>80.9</ele>
        <time>2015-05-05T18:30:33.125Z</time>
      </trkpt>
      <trkpt lat="48.84196" lon="2.36768">
        <ele>80.7</ele>
        <time>2015-05-05T18:30:34.192Z</time>
      </trkpt>
      <trkpt lat="48.8419" lon="2.36778">
        <ele>80.6</ele>
        <time>2015-05-05T18:30:37.163Z</time>
      </trkpt>
      <trkpt lat="48.84189" lon="2.3678">
        <ele>80.5</ele>
        <time>2015-05-05T18:30:38.184Z</time>
      </trkpt>
      <trkpt lat="48.84183" lon="2.3679">
        <ele>80.1</ele>
        <time>2015-05-05T18:30:45.140Z</time>
      </trkpt>
      <trkpt lat="48.84182" lon="2.36793">
        <ele>80</ele>
        <time>2015-05-05T18:30:46.255Z</time>
      </trkpt>
      <trkpt lat="48.84177" lon="2.36801">
        <ele>80</ele>
        <time>2015-05-05T18:30:49.115Z</time>
      </trkpt>
      <trkpt lat="48.84174" lon="2.36805">
        <ele>79.8</ele>
        <time>2015-05-05T18:30:50.135Z</time>
      </trkpt>
      <trkpt lat="48.84168" lon="2.36813">
        <ele>79.8</ele>
        <time>2015-05-05T18:30:52.208Z</time>
      </trkpt>
      <trkpt lat="48.84165" lon="2.36816">
        <ele>79.9</ele>
        <time>2015-05-05T18:30:53.126Z</time>
      </trkpt>
      <trkpt lat="48.84157" lon="2.36822">
        <ele>80</ele>
        <time>2015-05-05T18:30:55.222Z</time>
      </trkpt>
      <trkpt lat="48.84153" lon="2.36825">
        <ele>80</ele>
        <time>2015-05-05T18:30:56.172Z</time>
      </trkpt>
      <trkpt lat="48.8415" lon="2.36828">
        <ele>79.9</ele>
        <time>2015-05-05T18:30:57.135Z</time>
      </trkpt>
      <trkpt lat="48.84145" lon="2.36832">
        <ele>80</ele>
        <time>2015-05-05T18:30:58.164Z</time>
      </trkpt>
      <trkpt lat="48.84141" lon="2.36836">
        <ele>79.8</ele>
        <time>2015-05-05T18:30:59.208Z</time>
      </trkpt>
      <trkpt lat="48.84136" lon="2.3684">
        <ele>79.9</ele>
        <time>2015-05-05T18:31:00.203Z</time>
      </trkpt>
      <trkpt lat="48.84131" lon="2.36845">
        <ele>79.8</ele>
        <time>2015-05-05T18:31:01.230Z</time>
      </trkpt>
      <trkpt lat="48.84127" lon="2.36851">
        <ele>79.6</ele>
        <time>2015-05-05T18:31:02.236Z</time>
      </trkpt>
      <trkpt lat="48.84122" lon="2.36856">
        <ele>79.7</ele>
        <time>2015-05-05T18:31:03.155Z</time>
      </trkpt>
      <trkpt lat="48.84117" lon="2.36862">
        <ele>79.9</ele>
        <time>2015-05-05T18:31:04.202Z</time>
      </trkpt>
      <trkpt lat="48.84112" lon="2.36871">
        <ele>80</ele>
        <time>2015-05-05T18:31:05.215Z</time>
      </trkpt>
      <trkpt lat="48.84107" lon="2.3688">
        <ele>80.1</ele>
        <time>2015-05-05T18:31:06.143Z</time>
      </trkpt>
      <trkpt lat="48.84101" lon="2.36888">
        <ele>80.2</ele>
        <time>2015-05-05T18:31:07.139Z</time>
      </trkpt>
      <trkpt lat="48.84094" lon="2.36897">
        <ele>80</ele>
        <time>2015-05-05T18:31:08.149Z</time>
      </trkpt>
      <trkpt lat="48.84087" lon="2.36906">
        <ele>79.9</ele>
        <time>2015-05-05T18:31:09.156Z</time>
      </trkpt>
      <trkpt lat="48.84083" lon="2.36914">
        <ele>80.4</ele>
        <time>2015-05-05T18:31:10.190Z</time>
      </trkpt>
      <trkpt lat="48.84078" lon="2.36923">
        <ele>80.7</ele>
        <time>2015-05-05T18:31:11.200Z</time>
      </trkpt>
      <trkpt lat="48.84073" lon="2.36933">
        <ele>81</ele>
        <time>2015-05-05T18:31:12.210Z</time>
      </trkpt>
      <trkpt lat="48.84067" lon="2.36943">
        <ele>81.2</ele>
        <time>2015-05-05T18:31:13.219Z</time>
      </trkpt>
      <trkpt lat="48.84062" lon="2.36953">
        <ele>81.4</ele>
        <time>2015-05-05T18:31:14.224Z</time>
      </trkpt>
      <trkpt lat="48.84056" lon="2.36963">
        <ele>81.7</ele>
        <time>2015-05-05T18:31:15.145Z</time>
      </trkpt>
      <trkpt lat="48.84051" lon="2.36973">
        <ele>82.1</ele>
        <time>2015-05-05T18:31:16.187Z</time>
      </trkpt>
      <trkpt lat="48.84046" lon="2.36982">
        <ele>82.8</ele>
        <time>2015-05-05T18:31:17.216Z</time>
      </trkpt>
      <trkpt lat="48.84041" lon="2.3699">
        <ele>83.5</ele>
        <time>2015-05-05T18:31:18.146Z</time>
      </trkpt>
      <trkpt lat="48.84036" lon="2.36999">
        <ele>83.9</ele>
        <time>2015-05-05T18:31:19.155Z</time>
      </trkpt>
      <trkpt lat="48.8403" lon="2.37009">
        <ele>84</ele>
        <time>2015-05-05T18:31:20.166Z</time>
      </trkpt>
      <trkpt lat="48.84024" lon="2.37017">
        <ele>84.3</ele>
        <time>2015-05-05T18:31:21.166Z</time>
      </trkpt>
      <trkpt lat="48.8402" lon="2.37024">
        <ele>84.5</ele>
        <time>2015-05-05T18:31:22.192Z</time>
      </trkpt>
      <trkpt lat="48.84016" lon="2.37032">
        <ele>84.9</ele>
        <time>2015-05-05T18:31:23.201Z</time>
      </trkpt>
      <trkpt lat="48.84012" lon="2.37039">
        <ele>85.4</ele>
        <time>2015-05-05T18:31:24.161Z</time>
      </trkpt>
      <trkpt lat="48.84008" lon="2.37047">
        <ele>86</ele>
        <time>2015-05-05T18:31:25.135Z</time>
      </trkpt>
      <trkpt lat="48.84004" lon="2.37052">
        <ele>85.9</ele>
        <time>2015-05-05T18:31:26.142Z</time>
      </trkpt>
      <trkpt lat="48.83999" lon="2.37057">
        <ele>86.2</ele>
        <time>2015-05-05T18:31:27.175Z</time>
      </trkpt>
      <trkpt lat="48.83995" lon="2.37063">
        <ele>86.3</ele>
        <time>2015-05-05T18:31:28.208Z</time>
      </trkpt>
      <trkpt lat="48.8399" lon="2.37068">
        <ele>86.5</ele>
        <time>2015-05-05T18:31:29.129Z</time>
      </trkpt>
      <trkpt lat="48.83986" lon="2.37074">
        <ele>86.5</ele>
        <time>2015-05-05T18:31:30.151Z</time>
      </trkpt>
      <trkpt lat="48.83981" lon="2.37079">
        <ele>86.6</ele>
        <time>2015-05-05T18:31:31.165Z</time>
      </trkpt>
      <trkpt lat="48.83977" lon="2.37085">
        <ele>86.5</ele>
        <time>2015-05-05T18:31:32.195Z</time>
      </trkpt>
      <trkpt lat="48.83972" lon="2.37091">
        <ele>86.6</ele>
        <time>2015-05-05T18:31:33.205Z</time>
      </trkpt>
      <trkpt lat="48.83967" lon="2.37098">
        <ele>86.7</ele>
        <time>2015-05-05T18:31:34.267Z</time>
      </trkpt>
      <trkpt lat="48.83963" lon="2.37104">
        <ele>86.8</ele>
        <time>2015-05-05T18:31:35.125Z</time>
      </trkpt>
      <trkpt lat="48.83958" lon="2.37109">
        <ele>86.8</ele>
        <time>2015-05-05T18:31:36.147Z</time>
      </trkpt>
      <trkpt lat="48.83954" lon="2.37114">
        <ele>86.9</ele>
        <time>2015-05-05T18:31:37.158Z</time>
      </trkpt>
      <trkpt lat="48.83949" lon="2.37119">
        <ele>87.1</ele>
        <time>2015-05-05T18:31:38.174Z</time>
      </trkpt>
      <trkpt lat="48.83944" lon="2.37124">
        <ele>87.2</ele>
        <time>2015-05-05T18:31:39.184Z</time>
      </trkpt>
      <trkpt lat="48.8394" lon="2.37129">
        <ele>87.3</ele>
        <time>2015-05-05T18:31:40.253Z</time>
      </trkpt>
      <trkpt lat="48.83937" lon="2.37134">
        <ele>87.3</ele>
        <time>2015-05-05T18:31:41.098Z</time>
      </trkpt>
      <trkpt lat="48.83933" lon="2.37138">
        <ele>87.5</ele>
        <time>2015-05-05T18:31:42.120Z</time>
      </trkpt>
      <trkpt lat="48.8393" lon="2.37143">
        <ele>87.7</ele>
        <time>2015-05-05T18:31:43.129Z</time>
      </trkpt>
      <trkpt lat="48.83926" lon="2.37146">
        <ele>87.7</ele>
        <time>2015-05-05T18:31:44.135Z</time>
      </trkpt>
      <trkpt lat="48.83922" lon="2.3715">
        <ele>87.8</ele>
        <time>2015-05-05T18:31:45.145Z</time>
      </trkpt>
      <trkpt lat="48.83914" lon="2.37157">
        <ele>88</ele>
        <time>2015-05-05T18:31:47.185Z</time>
      </trkpt>
      <trkpt lat="48.8391" lon="2.37161">
        <ele>88.1</ele>
        <time>2015-05-05T18:31:48.193Z</time>
      </trkpt>
      <trkpt lat="48.83903" lon="2.37168">
        <ele>88.8</ele>
        <time>2015-05-05T18:31:50.153Z</time>
      </trkpt>
      <trkpt lat="48.83899" lon="2.37171">
        <ele>88.9</ele>
        <time>2015-05-05T18:31:51.169Z</time>
      </trkpt>
      <trkpt lat="48.83891" lon="2.37178">
        <ele>89.3</ele>
        <time>2015-05-05T18:31:53.134Z</time>
      </trkpt>
      <trkpt lat="48.83887" lon="2.37182">
        <ele>89.4</ele>
        <time>2015-05-05T18:31:54.193Z</time>
      </trkpt>
      <trkpt lat="48.83883" lon="2.37188">
        <ele>89.4</ele>
        <time>2015-05-05T18:31:55.196Z</time>
      </trkpt>
      <trkpt lat="48.83879" lon="2.37193">
        <ele>89.4</ele>
        <time>2015-05-05T18:31:56.210Z</time>
      </trkpt>
      <trkpt lat="48.83875" lon="2.37198">
        <ele>89.6</ele>
        <time>2015-05-05T18:31:57.127Z</time>
      </trkpt>
      <trkpt lat="48.83871" lon="2.37206">
        <ele>90</ele>
        <time>2015-05-05T18:31:58.235Z</time>
      </trkpt>
      <trkpt lat="48.83866" lon="2.37218">
        <ele>90.1</ele>
        <time>2015-05-05T18:31:59.125Z</time>
      </trkpt>
      <trkpt lat="48.83862" lon="2.37227">
        <ele>89.9</ele>
        <time>2015-05-05T18:32:00.158Z</time>
      </trkpt>
      <trkpt lat="48.83857" lon="2.37234">
        <ele>89.6</ele>
        <time>2015-05-05T18:32:01.175Z</time>
      </trkpt>
      <trkpt lat="48.83852" lon="2.3724">
        <ele>89.2</ele>
        <time>2015-05-05T18:32:02.224Z</time>
      </trkpt>
      <trkpt lat="48.83848" lon="2.37247">
        <ele>88.9</ele>
        <time>2015-05-05T18:32:03.280Z</time>
      </trkpt>
      <trkpt lat="48.83843" lon="2.37253">
        <ele>88.6</ele>
        <time>2015-05-05T18:32:04.187Z</time>
      </trkpt>
      <trkpt lat="48.83839" lon="2.37259">
        <ele>88.4</ele>
        <time>2015-05-05T18:32:05.194Z</time>
      </trkpt>
      <trkpt lat="48.83834" lon="2.37265">
        <ele>88.2</ele>
        <time>2015-05-05T18:32:06.212Z</time>
      </trkpt>
      <trkpt lat="48.83829" lon="2.37271">
        <ele>87.4</ele>
        <time>2015-05-05T18:32:07.228Z</time>
      </trkpt>
      <trkpt lat="48.83824" lon="2.37276">
        <ele>86.8</ele>
        <time>2015-05-05T18:32:08.239Z</time>
      </trkpt>
      <trkpt lat="48.83819" lon="2.37282">
        <ele>86.3</ele>
        <time>2015-05-05T18:32:09.139Z</time>
      </trkpt>
      <trkpt lat="48.83814" lon="2.37287">
        <ele>86.1</ele>
        <time>2015-05-05T18:32:10.185Z</time>
      </trkpt>
      <trkpt lat="48.8381" lon="2.37293">
        <ele>85.8</ele>
        <time>2015-05-05T18:32:11.387Z</time>
      </trkpt>
      <trkpt lat="48.83804" lon="2.37299">
        <ele>85.7</ele>
        <time>2015-05-05T18:32:12.208Z</time>
      </trkpt>
      <trkpt lat="48.83799" lon="2.37305">
        <ele>85.5</ele>
        <time>2015-05-05T18:32:13.224Z</time>
      </trkpt>
      <trkpt lat="48.83795" lon="2.3731">
        <ele>85.4</ele>
        <time>2015-05-05T18:32:14.136Z</time>
      </trkpt>
      <trkpt lat="48.83791" lon="2.37315">
        <ele>85.2</ele>
        <time>2015-05-05T18:32:15.139Z</time>
      </trkpt>
      <trkpt lat="48.83786" lon="2.3732">
        <ele>85</ele>
        <time>2015-05-05T18:32:16.181Z</time>
      </trkpt>
      <trkpt lat="48.83782" lon="2.37324">
        <ele>85</ele>
        <time>2015-05-05T18:32:17.198Z</time>
      </trkpt>
      <trkpt lat="48.83778" lon="2.37328">
        <ele>84.8</ele>
        <time>2015-05-05T18:32:18.152Z</time>
      </trkpt>
      <trkpt lat="48.83773" lon="2.37332">
        <ele>84.8</ele>
        <time>2015-05-05T18:32:19.132Z</time>
      </trkpt>
      <trkpt lat="48.83766" lon="2.37341">
        <ele>84.4</ele>
        <time>2015-05-05T18:32:21.141Z</time>
      </trkpt>
      <trkpt lat="48.83763" lon="2.37344">
        <ele>84.3</ele>
        <time>2015-05-05T18:32:22.201Z</time>
      </trkpt>
      <trkpt lat="48.83757" lon="2.37349">
        <ele>84.6</ele>
        <time>2015-05-05T18:32:24.482Z</time>
      </trkpt>
      <trkpt lat="48.83754" lon="2.37347">
        <ele>84.5</ele>
        <time>2015-05-05T18:32:25.131Z</time>
      </trkpt>
      <trkpt lat="48.8375" lon="2.37335">
        <ele>83</ele>
        <time>2015-05-05T18:32:27.108Z</time>
      </trkpt>
      <trkpt lat="48.83748" lon="2.3733">
        <ele>82.9</ele>
        <time>2015-05-05T18:32:28.164Z</time>
      </trkpt>
      <trkpt lat="48.83744" lon="2.37321">
        <ele>83</ele>
        <time>2015-05-05T18:32:30.546Z</time>
      </trkpt>
      <trkpt lat="48.83743" lon="2.37317">
        <ele>82.9</ele>
        <time>2015-05-05T18:32:31.108Z</time>
      </trkpt>
      <trkpt lat="48.83739" lon="2.37308">
        <ele>82.4</ele>
        <time>2015-05-05T18:32:33.170Z</time>
      </trkpt>
      <trkpt lat="48.83737" lon="2.37304">
        <ele>82.5</ele>
        <time>2015-05-05T18:32:34.184Z</time>
      </trkpt>
      <trkpt lat="48.83733" lon="2.37296">
        <ele>82.1</ele>
        <time>2015-05-05T18:32:36.160Z</time>
      </trkpt>
      <trkpt lat="48.83731" lon="2.37293">
        <ele>82.1</ele>
        <time>2015-05-05T18:32:37.143Z</time>
      </trkpt>
      <trkpt lat="48.83726" lon="2.37286">
        <ele>82.1</ele>
        <time>2015-05-05T18:32:39.165Z</time>
      </trkpt>
      <trkpt lat="48.83724" lon="2.37282">
        <ele>82.2</ele>
        <time>2015-05-05T18:32:40.163Z</time>
      </trkpt>
      <trkpt lat="48.83719" lon="2.37276">
        <ele>82.3</ele>
        <time>2015-05-05T18:32:42.136Z</time>
      </trkpt>
      <trkpt lat="48.83716" lon="2.37272">
        <ele>82.3</ele>
        <time>2015-05-05T18:32:43.156Z</time>
      </trkpt>
      <trkpt lat="48.83711" lon="2.37263">
        <ele>81.9</ele>
        <time>2015-05-05T18:32:45.211Z</time>
      </trkpt>
      <trkpt lat="48.83709" lon="2.37257">
        <ele>81.9</ele>
        <time>2015-05-05T18:32:46.223Z</time>
      </trkpt>
      <trkpt lat="48.83707" lon="2.37251">
        <ele>81.8</ele>
        <time>2015-05-05T18:32:47.143Z</time>
      </trkpt>
      <trkpt lat="48.83704" lon="2.37244">
        <ele>81.7</ele>
        <time>2015-05-05T18:32:48.164Z</time>
      </trkpt>
      <trkpt lat="48.83703" lon="2.37237">
        <ele>81.6</ele>
        <time>2015-05-05T18:32:49.177Z</time>
      </trkpt>
      <trkpt lat="48.83701" lon="2.3723">
        <ele>81.5</ele>
        <time>2015-05-05T18:32:50.178Z</time>
      </trkpt>
      <trkpt lat="48.83699" lon="2.37224">
        <ele>81.3</ele>
        <time>2015-05-05T18:32:51.194Z</time>
      </trkpt>
      <trkpt lat="48.83697" lon="2.37218">
        <ele>81.2</ele>
        <time>2015-05-05T18:32:52.214Z</time>
      </trkpt>
      <trkpt lat="48.83694" lon="2.37212">
        <ele>81.3</ele>
        <time>2015-05-05T18:32:53.463Z</time>
      </trkpt>
      <trkpt lat="48.83691" lon="2.37206">
        <ele>81.3</ele>
        <time>2015-05-05T18:32:54.126Z</time>
      </trkpt>
      <trkpt lat="48.83686" lon="2.37196">
        <ele>81.5</ele>
        <time>2015-05-05T18:32:56.161Z</time>
      </trkpt>
      <trkpt lat="48.83684" lon="2.37192">
        <ele>81.8</ele>
        <time>2015-05-05T18:32:57.160Z</time>
      </trkpt>
      <trkpt lat="48.83678" lon="2.37185">
        <ele>82.2</ele>
        <time>2015-05-05T18:32:59.264Z</time>
      </trkpt>
      <trkpt lat="48.83675" lon="2.37181">
        <ele>82.4</ele>
        <time>2015-05-05T18:33:00.186Z</time>
      </trkpt>
      <trkpt lat="48.83669" lon="2.3717">
        <ele>82.6</ele>
        <time>2015-05-05T18:33:03.145Z</time>
      </trkpt>
      <trkpt lat="48.83667" lon="2.37168">
        <ele>82.7</ele>
        <time>2015-05-05T18:33:04.179Z</time>
      </trkpt>
      <trkpt lat="48.83663" lon="2.3716">
        <ele>82.5</ele>
        <time>2015-05-05T18:33:06.107Z</time>
      </trkpt>
      <trkpt lat="48.83661" lon="2.37156">
        <ele>82.5</ele>
        <time>2015-05-05T18:33:07.183Z</time>
      </trkpt>
      <trkpt lat="48.83658" lon="2.37146">
        <ele>82.4</ele>
        <time>2015-05-05T18:33:09.213Z</time>
      </trkpt>
      <trkpt lat="48.83655" lon="2.37137">
        <ele>82.5</ele>
        <time>2015-05-05T18:33:11.245Z</time>
      </trkpt>
      <trkpt lat="48.83649" lon="2.3713">
        <ele>82.7</ele>
        <time>2015-05-05T18:33:13.166Z</time>
      </trkpt>
      <trkpt lat="48.83647" lon="2.37127">
        <ele>82.8</ele>
        <time>2015-05-05T18:33:14.179Z</time>
      </trkpt>
      <trkpt lat="48.83642" lon="2.3712">
        <ele>82.9</ele>
        <time>2015-05-05T18:33:16.225Z</time>
      </trkpt>
      <trkpt lat="48.8364" lon="2.37118">
        <ele>83</ele>
        <time>2015-05-05T18:33:17.198Z</time>
      </trkpt>
      <trkpt lat="48.83633" lon="2.37108">
        <ele>83.4</ele>
        <time>2015-05-05T18:33:21.210Z</time>
      </trkpt>
      <trkpt lat="48.83632" lon="2.37107">
        <ele>83.6</ele>
        <time>2015-05-05T18:33:22.252Z</time>
      </trkpt>
      <trkpt lat="48.83627" lon="2.37107">
        <ele>84</ele>
        <time>2015-05-05T18:33:27.140Z</time>
      </trkpt>
      <trkpt lat="48.83626" lon="2.37107">
        <ele>84</ele>
        <time>2015-05-05T18:33:28.223Z</time>
      </trkpt>
      <trkpt lat="48.83626" lon="2.37107">
        <ele>84</ele>
        <time>2015-05-05T18:33:28.381Z</time>
      </trkpt>
      <trkpt lat="48.83625" lon="2.37109">
        <ele>83.9</ele>
        <time>2015-05-05T18:33:29.169Z</time>
      </trkpt>
      <trkpt lat="48.83625" lon="2.3711">
        <ele>83.9</ele>
        <time>2015-05-05T18:33:30.195Z</time>
      </trkpt>
      <trkpt lat="48.83625" lon="2.3711">
        <ele>83.8</ele>
        <time>2015-05-05T18:33:31.251Z</time>
      </trkpt>
      <trkpt lat="48.83624" lon="2.37111">
        <ele>83.7</ele>
        <time>2015-05-05T18:33:32.148Z</time>
      </trkpt>
      <trkpt lat="48.83618" lon="2.3712">
        <ele>82.3</ele>
        <time>2015-05-05T18:33:47.166Z</time>
      </trkpt>
      <trkpt lat="48.83617" lon="2.37122">
        <ele>82.6</ele>
        <time>2015-05-05T18:33:48.247Z</time>
      </trkpt>
      <trkpt lat="48.83617" lon="2.37124">
        <ele>82.9</ele>
        <time>2015-05-05T18:33:50.199Z</time>
      </trkpt>
      <trkpt lat="48.83617" lon="2.37124">
        <ele>83.1</ele>
        <time>2015-05-05T18:33:51.200Z</time>
      </trkpt>
      <trkpt lat="48.83617" lon="2.37124">
        <ele>83.2</ele>
        <time>2015-05-05T18:33:52.228Z</time>
      </trkpt>
      <trkpt lat="48.83611" lon="2.37132">
        <ele>84.9</ele>
        <time>2015-05-05T18:34:05.163Z</time>
      </trkpt>
      <trkpt lat="48.83611" lon="2.37135">
        <ele>85.1</ele>
        <time>2015-05-05T18:34:06.175Z</time>
      </trkpt>
      <trkpt lat="48.83611" lon="2.37148">
        <ele>87</ele>
        <time>2015-05-05T18:34:11.268Z</time>
      </trkpt>
      <trkpt lat="48.83611" lon="2.37151">
        <ele>88.8</ele>
        <time>2015-05-05T18:34:12.198Z</time>
      </trkpt>
      <trkpt lat="48.83605" lon="2.37161">
        <ele>94.1</ele>
        <time>2015-05-05T18:34:19.179Z</time>
      </trkpt>
      <trkpt lat="48.83604" lon="2.37162">
        <ele>94.9</ele>
        <time>2015-05-05T18:34:20.191Z</time>
      </trkpt>
      <trkpt lat="48.83586" lon="2.37195">
        <ele>94.9</ele>
        <time>2015-05-05T18:34:35.140Z</time>
      </trkpt>
      <trkpt lat="48.83578" lon="2.37197">
        <ele>95.7</ele>
        <time>2015-05-05T18:34:38.181Z</time>
      </trkpt>
      <trkpt lat="48.83575" lon="2.37199">
        <ele>96</ele>
        <time>2015-05-05T18:34:39.137Z</time>
      </trkpt>
      <trkpt lat="48.83568" lon="2.37204">
        <ele>96.2</ele>
        <time>2015-05-05T18:34:41.225Z</time>
      </trkpt>
      <trkpt lat="48.83564" lon="2.37206">
        <ele>96.3</ele>
        <time>2015-05-05T18:34:42.128Z</time>
      </trkpt>
      <trkpt lat="48.83564" lon="2.37206">
        <ele>96.3</ele>
        <time>2015-05-05T18:34:43.080Z</time>
      </trkpt>
      <trkpt lat="48.8353" lon="2.37229">
        <ele>95</ele>
        <time>2015-05-05T18:34:52.277Z</time>
      </trkpt>
      <trkpt lat="48.83526" lon="2.37232">
        <ele>95.2</ele>
        <time>2015-05-05T18:34:53.254Z</time>
      </trkpt>
      <trkpt lat="48.83521" lon="2.37236">
        <ele>95.4</ele>
        <time>2015-05-05T18:34:54.170Z</time>
      </trkpt>
      <trkpt lat="48.83517" lon="2.3724">
        <ele>95.6</ele>
        <time>2015-05-05T18:34:55.178Z</time>
      </trkpt>
      <trkpt lat="48.83472" lon="2.37289">
        <ele>92.8</ele>
        <time>2015-05-05T18:35:06.140Z</time>
      </trkpt>
      <trkpt lat="48.83468" lon="2.37293">
        <ele>92.9</ele>
        <time>2015-05-05T18:35:07.250Z</time>
      </trkpt>
      <trkpt lat="48.83465" lon="2.37298">
        <ele>93.1</ele>
        <time>2015-05-05T18:35:08.137Z</time>
      </trkpt>
      <trkpt lat="48.83459" lon="2.37303">
        <ele>93.4</ele>
        <time>2015-05-05T18:35:09.152Z</time>
      </trkpt>
      <trkpt lat="48.83452" lon="2.37309">
        <ele>93.3</ele>
        <time>2015-05-05T18:35:10.283Z</time>
      </trkpt>
      <trkpt lat="48.83446" lon="2.37315">
        <ele>93.2</ele>
        <time>2015-05-05T18:35:11.173Z</time>
      </trkpt>
      <trkpt lat="48.83435" lon="2.37328">
        <ele>92.3</ele>
        <time>2015-05-05T18:35:12.179Z</time>
      </trkpt>
      <trkpt lat="48.83426" lon="2.37337">
        <ele>91.9</ele>
        <time>2015-05-05T18:35:13.181Z</time>
      </trkpt>
      <trkpt lat="48.83426" lon="2.37337">
        <ele>91.9</ele>
        <time>2015-05-05T18:35:13.391Z</time>
      </trkpt>
      <trkpt lat="48.83418" lon="2.37346">
        <ele>91.7</ele>
        <time>2015-05-05T18:35:14.189Z</time>
      </trkpt>
      <trkpt lat="48.83412" lon="2.37357">
        <ele>91.8</ele>
        <time>2015-05-05T18:35:15.211Z</time>
      </trkpt>
      <trkpt lat="48.83404" lon="2.37372">
        <ele>91.4</ele>
        <time>2015-05-05T18:35:16.228Z</time>
      </trkpt>
      <trkpt lat="48.83398" lon="2.37385">
        <ele>91.5</ele>
        <time>2015-05-05T18:35:17.252Z</time>
      </trkpt>
      <trkpt lat="48.83379" lon="2.37415">
        <ele>93</ele>
        <time>2015-05-05T18:35:21.293Z</time>
      </trkpt>
      <trkpt lat="48.83372" lon="2.37419">
        <ele>93.2</ele>
        <time>2015-05-05T18:35:22.229Z</time>
      </trkpt>
      <trkpt lat="48.83363" lon="2.37422">
        <ele>93.3</ele>
        <time>2015-05-05T18:35:23.166Z</time>
      </trkpt>
      <trkpt lat="48.83356" lon="2.37425">
        <ele>93.5</ele>
        <time>2015-05-05T18:35:24.172Z</time>
      </trkpt>
      <trkpt lat="48.83351" lon="2.37428">
        <ele>93.7</ele>
        <time>2015-05-05T18:35:25.175Z</time>
      </trkpt>
      <trkpt lat="48.83346" lon="2.37432">
        <ele>93.6</ele>
        <time>2015-05-05T18:35:26.188Z</time>
      </trkpt>
      <trkpt lat="48.83341" lon="2.37435">
        <ele>93.7</ele>
        <time>2015-05-05T18:35:27.194Z</time>
      </trkpt>
      <trkpt lat="48.83336" lon="2.37438">
        <ele>93.7</ele>
        <time>2015-05-05T18:35:28.229Z</time>
      </trkpt>
      <trkpt lat="48.83331" lon="2.37441">
        <ele>93.8</ele>
        <time>2015-05-05T18:35:29.234Z</time>
      </trkpt>
      <trkpt lat="48.83325" lon="2.37445">
        <ele>94</ele>
        <time>2015-05-05T18:35:30.241Z</time>
      </trkpt>
      <trkpt lat="48.83321" lon="2.37449">
        <ele>94.3</ele>
        <time>2015-05-05T18:35:31.244Z</time>
      </trkpt>
      <trkpt lat="48.83316" lon="2.37454">
        <ele>94.4</ele>
        <time>2015-05-05T18:35:32.257Z</time>
      </trkpt>
      <trkpt lat="48.83312" lon="2.37458">
        <ele>94.4</ele>
        <time>2015-05-05T18:35:33.153Z</time>
      </trkpt>
      <trkpt lat="48.83308" lon="2.37461">
        <ele>94.7</ele>
        <time>2015-05-05T18:35:34.273Z</time>
      </trkpt>
      <trkpt lat="48.83304" lon="2.37465">
        <ele>94.7</ele>
        <time>2015-05-05T18:35:35.167Z</time>
      </trkpt>
      <trkpt lat="48.833" lon="2.37469">
        <ele>94.7</ele>
        <time>2015-05-05T18:35:36.173Z</time>
      </trkpt>
      <trkpt lat="48.83296" lon="2.37473">
        <ele>94.7</ele>
        <time>2015-05-05T18:35:37.454Z</time>
      </trkpt>
      <trkpt lat="48.83288" lon="2.37479">
        <ele>94.5</ele>
        <time>2015-05-05T18:35:39.176Z</time>
      </trkpt>
      <trkpt lat="48.83285" lon="2.37482">
        <ele>94.5</ele>
        <time>2015-05-05T18:35:40.253Z</time>
      </trkpt>
      <trkpt lat="48.83281" lon="2.37484">
        <ele>94.6</ele>
        <time>2015-05-05T18:35:41.245Z</time>
      </trkpt>
      <trkpt lat="48.83277" lon="2.37488">
        <ele>94.7</ele>
        <time>2015-05-05T18:35:42.257Z</time>
      </trkpt>
      <trkpt lat="48.83269" lon="2.37495">
        <ele>94.9</ele>
        <time>2015-05-05T18:35:44.161Z</time>
      </trkpt>
      <trkpt lat="48.83265" lon="2.37499">
        <ele>94.8</ele>
        <time>2015-05-05T18:35:45.198Z</time>
      </trkpt>
      <trkpt lat="48.83261" lon="2.37503">
        <ele>94.9</ele>
        <time>2015-05-05T18:35:46.237Z</time>
      </trkpt>
      <trkpt lat="48.83257" lon="2.37507">
        <ele>94.9</ele>
        <time>2015-05-05T18:35:47.246Z</time>
      </trkpt>
      <trkpt lat="48.83253" lon="2.37511">
        <ele>94.9</ele>
        <time>2015-05-05T18:35:48.178Z</time>
      </trkpt>
      <trkpt lat="48.83249" lon="2.37515">
        <ele>95.1</ele>
        <time>2015-05-05T18:35:49.166Z</time>
      </trkpt>
      <trkpt lat="48.83245" lon="2.37519">
        <ele>95.1</ele>
        <time>2015-05-05T18:35:50.176Z</time>
      </trkpt>
      <trkpt lat="48.8324" lon="2.37524">
        <ele>95.1</ele>
        <time>2015-05-05T18:35:51.187Z</time>
      </trkpt>
      <trkpt lat="48.83236" lon="2.37528">
        <ele>95.2</ele>
        <time>2015-05-05T18:35:52.222Z</time>
      </trkpt>
      <trkpt lat="48.83232" lon="2.37533">
        <ele>95.3</ele>
        <time>2015-05-05T18:35:53.230Z</time>
      </trkpt>
      <trkpt lat="48.83225" lon="2.37541">
        <ele>95.1</ele>
        <time>2015-05-05T18:35:55.166Z</time>
      </trkpt>
      <trkpt lat="48.8322" lon="2.37545">
        <ele>95</ele>
        <time>2015-05-05T18:35:56.174Z</time>
      </trkpt>
      <trkpt lat="48.83216" lon="2.37549">
        <ele>94.8</ele>
        <time>2015-05-05T18:35:57.182Z</time>
      </trkpt>
      <trkpt lat="48.83211" lon="2.37552">
        <ele>94.6</ele>
        <time>2015-05-05T18:35:58.243Z</time>
      </trkpt>
      <trkpt lat="48.83207" lon="2.37556">
        <ele>94.6</ele>
        <time>2015-05-05T18:35:59.254Z</time>
      </trkpt>
      <trkpt lat="48.83203" lon="2.3756">
        <ele>94.7</ele>
        <time>2015-05-05T18:36:00.161Z</time>
      </trkpt>
      <trkpt lat="48.83196" lon="2.37563">
        <ele>95.3</ele>
        <time>2015-05-05T18:36:01.169Z</time>
      </trkpt>
      <trkpt lat="48.83192" lon="2.37565">
        <ele>95.5</ele>
        <time>2015-05-05T18:36:02.174Z</time>
      </trkpt>
      <trkpt lat="48.83184" lon="2.3757">
        <ele>95.9</ele>
        <time>2015-05-05T18:36:04.266Z</time>
      </trkpt>
      <trkpt lat="48.8318" lon="2.37572">
        <ele>96</ele>
        <time>2015-05-05T18:36:05.185Z</time>
      </trkpt>
      <trkpt lat="48.83172" lon="2.37578">
        <ele>96.4</ele>
        <time>2015-05-05T18:36:07.235Z</time>
      </trkpt>
      <trkpt lat="48.83167" lon="2.37579">
        <ele>96.6</ele>
        <time>2015-05-05T18:36:08.252Z</time>
      </trkpt>
      <trkpt lat="48.83163" lon="2.37581">
        <ele>96.8</ele>
        <time>2015-05-05T18:36:09.168Z</time>
      </trkpt>
      <trkpt lat="48.83159" lon="2.37584">
        <ele>97.1</ele>
        <time>2015-05-05T18:36:10.224Z</time>
      </trkpt>
      <trkpt lat="48.83154" lon="2.37591">
        <ele>98.1</ele>
        <time>2015-05-05T18:36:12.165Z</time>
      </trkpt>
      <trkpt lat="48.83148" lon="2.37596">
        <ele>99.7</ele>
        <time>2015-05-05T18:36:13.198Z</time>
      </trkpt>
      <trkpt lat="48.83144" lon="2.37601">
        <ele>100.2</ele>
        <time>2015-05-05T18:36:14.209Z</time>
      </trkpt>
      <trkpt lat="48.83137" lon="2.37614">
        <ele>99.3</ele>
        <time>2015-05-05T18:36:15.220Z</time>
      </trkpt>
      <trkpt lat="48.83133" lon="2.37619">
        <ele>99.7</ele>
        <time>2015-05-05T18:36:16.232Z</time>
      </trkpt>
      <trkpt lat="48.83129" lon="2.37624">
        <ele>100.5</ele>
        <time>2015-05-05T18:36:17.242Z</time>
      </trkpt>
      <trkpt lat="48.83125" lon="2.37629">
        <ele>101.3</ele>
        <time>2015-05-05T18:36:18.163Z</time>
      </trkpt>
      <trkpt lat="48.83121" lon="2.37634">
        <ele>102</ele>
        <time>2015-05-05T18:36:19.166Z</time>
      </trkpt>
      <trkpt lat="48.83115" lon="2.37643">
        <ele>103.4</ele>
        <time>2015-05-05T18:36:21.182Z</time>
      </trkpt>
      <trkpt lat="48.83112" lon="2.37646">
        <ele>104.1</ele>
        <time>2015-05-05T18:36:22.252Z</time>
      </trkpt>
      <trkpt lat="48.83107" lon="2.37652">
        <ele>105</ele>
        <time>2015-05-05T18:36:24.172Z</time>
      </trkpt>
      <trkpt lat="48.83104" lon="2.37656">
        <ele>105.7</ele>
        <time>2015-05-05T18:36:25.185Z</time>
      </trkpt>
      <trkpt lat="48.83098" lon="2.37663">
        <ele>106.8</ele>
        <time>2015-05-05T18:36:27.255Z</time>
      </trkpt>
      <trkpt lat="48.83095" lon="2.37666">
        <ele>107.2</ele>
        <time>2015-05-05T18:36:28.267Z</time>
      </trkpt>
      <trkpt lat="48.83087" lon="2.37668">
        <ele>108.3</ele>
        <time>2015-05-05T18:36:31.200Z</time>
      </trkpt>
      <trkpt lat="48.83082" lon="2.37666">
        <ele>107.9</ele>
        <time>2015-05-05T18:36:32.210Z</time>
      </trkpt>
      <trkpt lat="48.83077" lon="2.37659">
        <ele>106.3</ele>
        <time>2015-05-05T18:36:33.231Z</time>
      </trkpt>
      <trkpt lat="48.83073" lon="2.37656">
        <ele>105.8</ele>
        <time>2015-05-05T18:36:34.236Z</time>
      </trkpt>
      <trkpt lat="48.83065" lon="2.37653">
        <ele>102.9</ele>
        <time>2015-05-05T18:36:50.196Z</time>
      </trkpt>
      <trkpt lat="48.83064" lon="2.37652">
        <ele>102.8</ele>
        <time>2015-05-05T18:36:51.235Z</time>
      </trkpt>
      <trkpt lat="48.83058" lon="2.37661">
        <ele>102.6</ele>
        <time>2015-05-05T18:36:59.188Z</time>
      </trkpt>
      <trkpt lat="48.83056" lon="2.37662">
        <ele>102.9</ele>
        <time>2015-05-05T18:37:00.139Z</time>
      </trkpt>
      <trkpt lat="48.83058" lon="2.37674">
        <ele>101.8</ele>
        <time>2015-05-05T18:37:04.283Z</time>
      </trkpt>
      <trkpt lat="48.8306" lon="2.37679">
        <ele>101.8</ele>
        <time>2015-05-05T18:37:05.165Z</time>
      </trkpt>
      <trkpt lat="48.83064" lon="2.37683">
        <ele>101.1</ele>
        <time>2015-05-05T18:37:06.388Z</time>
      </trkpt>
      <trkpt lat="48.83068" lon="2.37688">
        <ele>100.7</ele>
        <time>2015-05-05T18:37:07.183Z</time>
      </trkpt>
      <trkpt lat="48.83073" lon="2.37697">
        <ele>100.6</ele>
        <time>2015-05-05T18:37:09.207Z</time>
      </trkpt>
      <trkpt lat="48.83075" lon="2.37701">
        <ele>100.7</ele>
        <time>2015-05-05T18:37:10.292Z</time>
      </trkpt>
      <trkpt lat="48.83078" lon="2.37705">
        <ele>100</ele>
        <time>2015-05-05T18:37:11.163Z</time>
      </trkpt>
      <trkpt lat="48.83082" lon="2.3771">
        <ele>99.8</ele>
        <time>2015-05-05T18:37:12.165Z</time>
      </trkpt>
      <trkpt lat="48.83086" lon="2.37717">
        <ele>99</ele>
        <time>2015-05-05T18:37:13.170Z</time>
      </trkpt>
      <trkpt lat="48.83091" lon="2.37724">
        <ele>98.7</ele>
        <time>2015-05-05T18:37:14.179Z</time>
      </trkpt>
      <trkpt lat="48.83097" lon="2.3773">
        <ele>98.5</ele>
        <time>2015-05-05T18:37:15.196Z</time>
      </trkpt>
      <trkpt lat="48.83103" lon="2.37736">
        <ele>98.3</ele>
        <time>2015-05-05T18:37:16.207Z</time>
      </trkpt>
      <trkpt lat="48.83108" lon="2.37742">
        <ele>98.2</ele>
        <time>2015-05-05T18:37:17.146Z</time>
      </trkpt>
      <trkpt lat="48.83113" lon="2.37748">
        <ele>97.6</ele>
        <time>2015-05-05T18:37:18.153Z</time>
      </trkpt>
      <trkpt lat="48.83119" lon="2.37754">
        <ele>97.6</ele>
        <time>2015-05-05T18:37:19.158Z</time>
      </trkpt>
      <trkpt lat="48.83124" lon="2.3776">
        <ele>97.5</ele>
        <time>2015-05-05T18:37:20.163Z</time>
      </trkpt>
      <trkpt lat="48.83129" lon="2.37767">
        <ele>97.7</ele>
        <time>2015-05-05T18:37:21.171Z</time>
      </trkpt>
      <trkpt lat="48.83135" lon="2.37774">
        <ele>98.7</ele>
        <time>2015-05-05T18:37:22.195Z</time>
      </trkpt>
      <trkpt lat="48.8314" lon="2.37781">
        <ele>99.4</ele>
        <time>2015-05-05T18:37:23.191Z</time>
      </trkpt>
      <trkpt lat="48.83146" lon="2.37789">
        <ele>99.8</ele>
        <time>2015-05-05T18:37:24.199Z</time>
      </trkpt>
      <trkpt lat="48.8315" lon="2.37798">
        <ele>100.3</ele>
        <time>2015-05-05T18:37:25.205Z</time>
      </trkpt>
      <trkpt lat="48.83155" lon="2.37807">
        <ele>100.7</ele>
        <time>2015-05-05T18:37:26.212Z</time>
      </trkpt>
      <trkpt lat="48.8316" lon="2.37817">
        <ele>100.9</ele>
        <time>2015-05-05T18:37:27.143Z</time>
      </trkpt>
      <trkpt lat="48.83165" lon="2.37826">
        <ele>101.2</ele>
        <time>2015-05-05T18:37:28.256Z</time>
      </trkpt>
      <trkpt lat="48.83169" lon="2.37835">
        <ele>101.6</ele>
        <time>2015-05-05T18:37:29.143Z</time>
      </trkpt>
      <trkpt lat="48.83173" lon="2.37843">
        <ele>101.8</ele>
        <time>2015-05-05T18:37:30.156Z</time>
      </trkpt>
      <trkpt lat="48.83177" lon="2.37851">
        <ele>102</ele>
        <time>2015-05-05T18:37:31.171Z</time>
      </trkpt>
      <trkpt lat="48.83181" lon="2.37859">
        <ele>102.3</ele>
        <time>2015-05-05T18:37:32.180Z</time>
      </trkpt>
      <trkpt lat="48.83186" lon="2.37865">
        <ele>102.6</ele>
        <time>2015-05-05T18:37:33.190Z</time>
      </trkpt>
      <trkpt lat="48.8319" lon="2.37871">
        <ele>102.8</ele>
        <time>2015-05-05T18:37:34.197Z</time>
      </trkpt>
      <trkpt lat="48.83193" lon="2.37879">
        <ele>103</ele>
        <time>2015-05-05T18:37:35.104Z</time>
      </trkpt>
      <trkpt lat="48.83197" lon="2.37888">
        <ele>103.3</ele>
        <time>2015-05-05T18:37:36.112Z</time>
      </trkpt>
      <trkpt lat="48.83201" lon="2.37898">
        <ele>103.5</ele>
        <time>2015-05-05T18:37:37.132Z</time>
      </trkpt>
      <trkpt lat="48.83204" lon="2.37905">
        <ele>103.4</ele>
        <time>2015-05-05T18:37:38.149Z</time>
      </trkpt>
      <trkpt lat="48.83208" lon="2.37913">
        <ele>103.3</ele>
        <time>2015-05-05T18:37:39.157Z</time>
      </trkpt>
      <trkpt lat="48.83211" lon="2.37922">
        <ele>103.3</ele>
        <time>2015-05-05T18:37:40.172Z</time>
      </trkpt>
      <trkpt lat="48.83215" lon="2.3793">
        <ele>103.4</ele>
        <time>2015-05-05T18:37:41.178Z</time>
      </trkpt>
      <trkpt lat="48.83217" lon="2.37939">
        <ele>103.4</ele>
        <time>2015-05-05T18:37:42.187Z</time>
      </trkpt>
      <trkpt lat="48.83221" lon="2.37948">
        <ele>103.5</ele>
        <time>2015-05-05T18:37:43.113Z</time>
      </trkpt>
      <trkpt lat="48.83225" lon="2.37958">
        <ele>103.2</ele>
        <time>2015-05-05T18:37:44.120Z</time>
      </trkpt>
      <trkpt lat="48.83229" lon="2.37967">
        <ele>103</ele>
        <time>2015-05-05T18:37:45.130Z</time>
      </trkpt>
      <trkpt lat="48.83233" lon="2.37976">
        <ele>102.4</ele>
        <time>2015-05-05T18:37:46.166Z</time>
      </trkpt>
      <trkpt lat="48.83237" lon="2.37986">
        <ele>102.4</ele>
        <time>2015-05-05T18:37:47.193Z</time>
      </trkpt>
      <trkpt lat="48.83241" lon="2.37994">
        <ele>102</ele>
        <time>2015-05-05T18:37:48.218Z</time>
      </trkpt>
      <trkpt lat="48.83245" lon="2.38003">
        <ele>101.7</ele>
        <time>2015-05-05T18:37:49.129Z</time>
      </trkpt>
      <trkpt lat="48.83249" lon="2.38012">
        <ele>101.3</ele>
        <time>2015-05-05T18:37:50.139Z</time>
      </trkpt>
      <trkpt lat="48.83254" lon="2.38021">
        <ele>100.9</ele>
        <time>2015-05-05T18:37:51.142Z</time>
      </trkpt>
      <trkpt lat="48.83258" lon="2.38029">
        <ele>100.5</ele>
        <time>2015-05-05T18:37:52.181Z</time>
      </trkpt>
      <trkpt lat="48.83262" lon="2.38037">
        <ele>100.4</ele>
        <time>2015-05-05T18:37:53.180Z</time>
      </trkpt>
      <trkpt lat="48.83267" lon="2.38045">
        <ele>100.1</ele>
        <time>2015-05-05T18:37:54.187Z</time>
      </trkpt>
      <trkpt lat="48.83271" lon="2.38052">
        <ele>99.5</ele>
        <time>2015-05-05T18:37:55.258Z</time>
      </trkpt>
      <trkpt lat="48.83275" lon="2.3806">
        <ele>99.5</ele>
        <time>2015-05-05T18:37:56.131Z</time>
      </trkpt>
      <trkpt lat="48.83279" lon="2.38067">
        <ele>99.3</ele>
        <time>2015-05-05T18:37:57.159Z</time>
      </trkpt>
      <trkpt lat="48.83282" lon="2.38074">
        <ele>99.1</ele>
        <time>2015-05-05T18:37:58.199Z</time>
      </trkpt>
      <trkpt lat="48.83286" lon="2.38081">
        <ele>98.8</ele>
        <time>2015-05-05T18:37:59.248Z</time>
      </trkpt>
      <trkpt lat="48.83289" lon="2.38088">
        <ele>98.5</ele>
        <time>2015-05-05T18:38:00.153Z</time>
      </trkpt>
      <trkpt lat="48.83293" lon="2.38095">
        <ele>98.4</ele>
        <time>2015-05-05T18:38:01.162Z</time>
      </trkpt>
      <trkpt lat="48.83296" lon="2.38102">
        <ele>98.1</ele>
        <time>2015-05-05T18:38:02.170Z</time>
      </trkpt>
      <trkpt lat="48.83299" lon="2.38108">
        <ele>98</ele>
        <time>2015-05-05T18:38:03.188Z</time>
      </trkpt>
      <trkpt lat="48.83302" lon="2.38115">
        <ele>97.5</ele>
        <time>2015-05-05T18:38:04.257Z</time>
      </trkpt>
      <trkpt lat="48.83306" lon="2.38121">
        <ele>97.2</ele>
        <time>2015-05-05T18:38:05.224Z</time>
      </trkpt>
      <trkpt lat="48.83309" lon="2.38128">
        <ele>96.8</ele>
        <time>2015-05-05T18:38:06.239Z</time>
      </trkpt>
      <trkpt lat="48.83312" lon="2.38136">
        <ele>96.6</ele>
        <time>2015-05-05T18:38:07.162Z</time>
      </trkpt>
      <trkpt lat="48.83316" lon="2.38143">
        <ele>96.3</ele>
        <time>2015-05-05T18:38:08.157Z</time>
      </trkpt>
      <trkpt lat="48.8332" lon="2.3815">
        <ele>96.1</ele>
        <time>2015-05-05T18:38:09.164Z</time>
      </trkpt>
      <trkpt lat="48.83323" lon="2.38156">
        <ele>95.8</ele>
        <time>2015-05-05T18:38:10.266Z</time>
      </trkpt>
      <trkpt lat="48.83326" lon="2.38163">
        <ele>95.5</ele>
        <time>2015-05-05T18:38:11.162Z</time>
      </trkpt>
      <trkpt lat="48.8333" lon="2.38169">
        <ele>95.3</ele>
        <time>2015-05-05T18:38:12.163Z</time>
      </trkpt>
      <trkpt lat="48.83334" lon="2.38176">
        <ele>95.2</ele>
        <time>2015-05-05T18:38:13.217Z</time>
      </trkpt>
      <trkpt lat="48.83337" lon="2.38182">
        <ele>95.2</ele>
        <time>2015-05-05T18:38:14.240Z</time>
      </trkpt>
      <trkpt lat="48.8334" lon="2.38188">
        <ele>95.1</ele>
        <time>2015-05-05T18:38:15.248Z</time>
      </trkpt>
      <trkpt lat="48.83343" lon="2.38193">
        <ele>94.9</ele>
        <time>2015-05-05T18:38:16.281Z</time>
      </trkpt>
      <trkpt lat="48.83348" lon="2.38202">
        <ele>94.4</ele>
        <time>2015-05-05T18:38:18.173Z</time>
      </trkpt>
      <trkpt lat="48.83349" lon="2.38205">
        <ele>94</ele>
        <time>2015-05-05T18:38:19.185Z</time>
      </trkpt>
      <trkpt lat="48.83349" lon="2.38206">
        <ele>93.8</ele>
        <time>2015-05-05T18:38:21.157Z</time>
      </trkpt>
      <trkpt lat="48.83349" lon="2.38206">
        <ele>93.4</ele>
        <time>2015-05-05T18:38:22.203Z</time>
      </trkpt>
      <trkpt lat="48.83348" lon="2.38205">
        <ele>93.3</ele>
        <time>2015-05-05T18:38:31.292Z</time>
      </trkpt>
      <trkpt lat="48.83347" lon="2.38207">
        <ele>92.6</ele>
        <time>2015-05-05T18:38:32.162Z</time>
      </trkpt>
      <trkpt lat="48.83351" lon="2.38219">
        <ele>93.1</ele>
        <time>2015-05-05T18:38:37.248Z</time>
      </trkpt>
      <trkpt lat="48.83353" lon="2.38223">
        <ele>93</ele>
        <time>2015-05-05T18:38:38.184Z</time>
      </trkpt>
      <trkpt lat="48.83358" lon="2.38231">
        <ele>93.1</ele>
        <time>2015-05-05T18:38:40.190Z</time>
      </trkpt>
      <trkpt lat="48.8336" lon="2.38235">
        <ele>93.1</ele>
        <time>2015-05-05T18:38:41.208Z</time>
      </trkpt>
      <trkpt lat="48.83366" lon="2.38243">
        <ele>93.2</ele>
        <time>2015-05-05T18:38:43.255Z</time>
      </trkpt>
      <trkpt lat="48.83368" lon="2.38247">
        <ele>93.2</ele>
        <time>2015-05-05T18:38:44.175Z</time>
      </trkpt>
      <trkpt lat="48.83374" lon="2.38253">
        <ele>93.2</ele>
        <time>2015-05-05T18:38:46.243Z</time>
      </trkpt>
      <trkpt lat="48.83378" lon="2.38258">
        <ele>93</ele>
        <time>2015-05-05T18:38:47.176Z</time>
      </trkpt>
      <trkpt lat="48.83386" lon="2.38264">
        <ele>93.1</ele>
        <time>2015-05-05T18:38:49.167Z</time>
      </trkpt>
      <trkpt lat="48.83389" lon="2.38267">
        <ele>93.1</ele>
        <time>2015-05-05T18:38:50.183Z</time>
      </trkpt>
      <trkpt lat="48.83396" lon="2.38273">
        <ele>93.2</ele>
        <time>2015-05-05T18:38:52.255Z</time>
      </trkpt>
      <trkpt lat="48.83398" lon="2.38277">
        <ele>93.2</ele>
        <time>2015-05-05T18:38:53.169Z</time>
      </trkpt>
      <trkpt lat="48.83399" lon="2.38284">
        <ele>93.1</ele>
        <time>2015-05-05T18:38:54.175Z</time>
      </trkpt>
      <trkpt lat="48.83401" lon="2.3829">
        <ele>93</ele>
        <time>2015-05-05T18:38:55.171Z</time>
      </trkpt>
      <trkpt lat="48.83404" lon="2.38296">
        <ele>92.9</ele>
        <time>2015-05-05T18:38:56.185Z</time>
      </trkpt>
      <trkpt lat="48.83407" lon="2.38301">
        <ele>92.8</ele>
        <time>2015-05-05T18:38:57.195Z</time>
      </trkpt>
      <trkpt lat="48.83409" lon="2.38309">
        <ele>92.8</ele>
        <time>2015-05-05T18:38:58.222Z</time>
      </trkpt>
      <trkpt lat="48.83412" lon="2.38317">
        <ele>92.8</ele>
        <time>2015-05-05T18:38:59.127Z</time>
      </trkpt>
      <trkpt lat="48.83413" lon="2.38324">
        <ele>92.9</ele>
        <time>2015-05-05T18:39:00.131Z</time>
      </trkpt>
      <trkpt lat="48.83415" lon="2.38331">
        <ele>93.1</ele>
        <time>2015-05-05T18:39:01.140Z</time>
      </trkpt>
      <trkpt lat="48.83418" lon="2.38343">
        <ele>93.3</ele>
        <time>2015-05-05T18:39:03.173Z</time>
      </trkpt>
      <trkpt lat="48.8342" lon="2.38348">
        <ele>93.6</ele>
        <time>2015-05-05T18:39:04.225Z</time>
      </trkpt>
      <trkpt lat="48.83422" lon="2.38354">
        <ele>94</ele>
        <time>2015-05-05T18:39:05.132Z</time>
      </trkpt>
      <trkpt lat="48.83425" lon="2.38362">
        <ele>94.3</ele>
        <time>2015-05-05T18:39:06.120Z</time>
      </trkpt>
      <trkpt lat="48.83428" lon="2.38368">
        <ele>94.4</ele>
        <time>2015-05-05T18:39:07.145Z</time>
      </trkpt>
      <trkpt lat="48.83431" lon="2.38373">
        <ele>94.4</ele>
        <time>2015-05-05T18:39:08.173Z</time>
      </trkpt>
      <trkpt lat="48.83435" lon="2.38384">
        <ele>94.4</ele>
        <time>2015-05-05T18:39:10.199Z</time>
      </trkpt>
      <trkpt lat="48.83438" lon="2.38389">
        <ele>94.3</ele>
        <time>2015-05-05T18:39:11.210Z</time>
      </trkpt>
      <trkpt lat="48.83443" lon="2.384">
        <ele>94.3</ele>
        <time>2015-05-05T18:39:13.143Z</time>
      </trkpt>
      <trkpt lat="48.83447" lon="2.38406">
        <ele>94.2</ele>
        <time>2015-05-05T18:39:14.137Z</time>
      </trkpt>
      <trkpt lat="48.83452" lon="2.38413">
        <ele>93.5</ele>
        <time>2015-05-05T18:39:15.157Z</time>
      </trkpt>
      <trkpt lat="48.83458" lon="2.3842">
        <ele>93.1</ele>
        <time>2015-05-05T18:39:16.190Z</time>
      </trkpt>
      <trkpt lat="48.83463" lon="2.38427">
        <ele>92.9</ele>
        <time>2015-05-05T18:39:17.206Z</time>
      </trkpt>
      <trkpt lat="48.83468" lon="2.38433">
        <ele>92.7</ele>
        <time>2015-05-05T18:39:18.221Z</time>
      </trkpt>
      <trkpt lat="48.83473" lon="2.38438">
        <ele>92.3</ele>
        <time>2015-05-05T18:39:19.152Z</time>
      </trkpt>
      <trkpt lat="48.83478" lon="2.38443">
        <ele>92</ele>
        <time>2015-05-05T18:39:20.148Z</time>
      </trkpt>
      <trkpt lat="48.83484" lon="2.38447">
        <ele>91.6</ele>
        <time>2015-05-05T18:39:21.167Z</time>
      </trkpt>
      <trkpt lat="48.83488" lon="2.38452">
        <ele>91.2</ele>
        <time>2015-05-05T18:39:22.183Z</time>
      </trkpt>
      <trkpt lat="48.83494" lon="2.38458">
        <ele>90.9</ele>
        <time>2015-05-05T18:39:23.803Z</time>
      </trkpt>
      <trkpt lat="48.83496" lon="2.38466">
        <ele>91.2</ele>
        <time>2015-05-05T18:39:24.127Z</time>
      </trkpt>
      <trkpt lat="48.83499" lon="2.38475">
        <ele>91.6</ele>
        <time>2015-05-05T18:39:25.138Z</time>
      </trkpt>
      <trkpt lat="48.83503" lon="2.38483">
        <ele>91.8</ele>
        <time>2015-05-05T18:39:26.134Z</time>
      </trkpt>
      <trkpt lat="48.83506" lon="2.38492">
        <ele>92.1</ele>
        <time>2015-05-05T18:39:27.143Z</time>
      </trkpt>
      <trkpt lat="48.8351" lon="2.385">
        <ele>92.3</ele>
        <time>2015-05-05T18:39:28.189Z</time>
      </trkpt>
      <trkpt lat="48.83514" lon="2.38507">
        <ele>92.4</ele>
        <time>2015-05-05T18:39:29.185Z</time>
      </trkpt>
      <trkpt lat="48.8352" lon="2.38515">
        <ele>92.2</ele>
        <time>2015-05-05T18:39:30.195Z</time>
      </trkpt>
      <trkpt lat="48.83524" lon="2.38524">
        <ele>92</ele>
        <time>2015-05-05T18:39:31.211Z</time>
      </trkpt>
      <trkpt lat="48.83529" lon="2.38532">
        <ele>91.9</ele>
        <time>2015-05-05T18:39:32.134Z</time>
      </trkpt>
      <trkpt lat="48.83534" lon="2.3854">
        <ele>91.6</ele>
        <time>2015-05-05T18:39:33.145Z</time>
      </trkpt>
      <trkpt lat="48.83539" lon="2.38547">
        <ele>91.6</ele>
        <time>2015-05-05T18:39:34.203Z</time>
      </trkpt>
      <trkpt lat="48.83543" lon="2.38556">
        <ele>91.5</ele>
        <time>2015-05-05T18:39:35.187Z</time>
      </trkpt>
      <trkpt lat="48.83548" lon="2.38566">
        <ele>91.7</ele>
        <time>2015-05-05T18:39:36.196Z</time>
      </trkpt>
      <trkpt lat="48.83552" lon="2.38575">
        <ele>91.5</ele>
        <time>2015-05-05T18:39:37.146Z</time>
      </trkpt>
      <trkpt lat="48.83557" lon="2.38584">
        <ele>91.5</ele>
        <time>2015-05-05T18:39:38.183Z</time>
      </trkpt>
      <trkpt lat="48.83562" lon="2.38592">
        <ele>91.2</ele>
        <time>2015-05-05T18:39:39.204Z</time>
      </trkpt>
      <trkpt lat="48.83567" lon="2.38601">
        <ele>91.1</ele>
        <time>2015-05-05T18:39:40.231Z</time>
      </trkpt>
      <trkpt lat="48.83571" lon="2.38608">
        <ele>90.9</ele>
        <time>2015-05-05T18:39:41.128Z</time>
      </trkpt>
      <trkpt lat="48.83577" lon="2.38615">
        <ele>90.4</ele>
        <time>2015-05-05T18:39:42.118Z</time>
      </trkpt>
      <trkpt lat="48.83581" lon="2.38622">
        <ele>90.1</ele>
        <time>2015-05-05T18:39:43.141Z</time>
      </trkpt>
      <trkpt lat="48.83585" lon="2.3863">
        <ele>90.1</ele>
        <time>2015-05-05T18:39:44.148Z</time>
      </trkpt>
      <trkpt lat="48.83589" lon="2.38637">
        <ele>90.1</ele>
        <time>2015-05-05T18:39:45.181Z</time>
      </trkpt>
      <trkpt lat="48.83592" lon="2.38645">
        <ele>89.9</ele>
        <time>2015-05-05T18:39:46.194Z</time>
      </trkpt>
      <trkpt lat="48.83594" lon="2.3865">
        <ele>90.1</ele>
        <time>2015-05-05T18:39:47.405Z</time>
      </trkpt>
      <trkpt lat="48.83598" lon="2.38655">
        <ele>90.5</ele>
        <time>2015-05-05T18:39:48.121Z</time>
      </trkpt>
      <trkpt lat="48.83601" lon="2.38664">
        <ele>91.1</ele>
        <time>2015-05-05T18:39:49.143Z</time>
      </trkpt>
      <trkpt lat="48.83604" lon="2.38673">
        <ele>91.5</ele>
        <time>2015-05-05T18:39:50.149Z</time>
      </trkpt>
      <trkpt lat="48.83605" lon="2.38683">
        <ele>91.9</ele>
        <time>2015-05-05T18:39:51.185Z</time>
      </trkpt>
      <trkpt lat="48.83607" lon="2.38691">
        <ele>92.3</ele>
        <time>2015-05-05T18:39:52.223Z</time>
      </trkpt>
      <trkpt lat="48.83609" lon="2.38699">
        <ele>92.6</ele>
        <time>2015-05-05T18:39:53.118Z</time>
      </trkpt>
      <trkpt lat="48.83611" lon="2.38706">
        <ele>92.7</ele>
        <time>2015-05-05T18:39:54.117Z</time>
      </trkpt>
      <trkpt lat="48.83613" lon="2.38714">
        <ele>92.8</ele>
        <time>2015-05-05T18:39:55.122Z</time>
      </trkpt>
      <trkpt lat="48.83616" lon="2.38722">
        <ele>92.9</ele>
        <time>2015-05-05T18:39:56.137Z</time>
      </trkpt>
      <trkpt lat="48.83619" lon="2.38731">
        <ele>92.9</ele>
        <time>2015-05-05T18:39:57.143Z</time>
      </trkpt>
      <trkpt lat="48.83622" lon="2.38738">
        <ele>92.9</ele>
        <time>2015-05-05T18:39:58.172Z</time>
      </trkpt>
      <trkpt lat="48.83625" lon="2.38744">
        <ele>92.9</ele>
        <time>2015-05-05T18:39:59.189Z</time>
      </trkpt>
      <trkpt lat="48.83629" lon="2.3875">
        <ele>93</ele>
        <time>2015-05-05T18:40:00.196Z</time>
      </trkpt>
      <trkpt lat="48.83632" lon="2.38756">
        <ele>93</ele>
        <time>2015-05-05T18:40:01.119Z</time>
      </trkpt>
      <trkpt lat="48.83635" lon="2.38762">
        <ele>92.6</ele>
        <time>2015-05-05T18:40:02.124Z</time>
      </trkpt>
      <trkpt lat="48.83638" lon="2.38767">
        <ele>92.5</ele>
        <time>2015-05-05T18:40:03.131Z</time>
      </trkpt>
      <trkpt lat="48.83641" lon="2.38773">
        <ele>92.2</ele>
        <time>2015-05-05T18:40:04.199Z</time>
      </trkpt>
      <trkpt lat="48.83645" lon="2.38778">
        <ele>92.3</ele>
        <time>2015-05-05T18:40:05.210Z</time>
      </trkpt>
      <trkpt lat="48.83648" lon="2.38782">
        <ele>92.5</ele>
        <time>2015-05-05T18:40:06.116Z</time>
      </trkpt>
      <trkpt lat="48.8365" lon="2.38787">
        <ele>92.7</ele>
        <time>2015-05-05T18:40:07.127Z</time>
      </trkpt>
      <trkpt lat="48.83653" lon="2.38797">
        <ele>93.6</ele>
        <time>2015-05-05T18:40:08.135Z</time>
      </trkpt>
      <trkpt lat="48.83656" lon="2.38803">
        <ele>94.2</ele>
        <time>2015-05-05T18:40:09.175Z</time>
      </trkpt>
      <trkpt lat="48.83659" lon="2.38807">
        <ele>94.5</ele>
        <time>2015-05-05T18:40:10.181Z</time>
      </trkpt>
      <trkpt lat="48.83665" lon="2.38815">
        <ele>94.8</ele>
        <time>2015-05-05T18:40:12.193Z</time>
      </trkpt>
      <trkpt lat="48.83667" lon="2.38819">
        <ele>94.9</ele>
        <time>2015-05-05T18:40:13.130Z</time>
      </trkpt>
      <trkpt lat="48.83672" lon="2.38826">
        <ele>95</ele>
        <time>2015-05-05T18:40:15.156Z</time>
      </trkpt>
      <trkpt lat="48.83673" lon="2.38833">
        <ele>95.5</ele>
        <time>2015-05-05T18:40:16.241Z</time>
      </trkpt>
      <trkpt lat="48.83673" lon="2.38839">
        <ele>95.6</ele>
        <time>2015-05-05T18:40:17.138Z</time>
      </trkpt>
      <trkpt lat="48.83638" lon="2.38994">
        <ele>96.3</ele>
        <time>2015-05-05T18:40:38.164Z</time>
      </trkpt>
      <trkpt lat="48.83637" lon="2.39005">
        <ele>96.3</ele>
        <time>2015-05-05T18:40:39.117Z</time>
      </trkpt>
      <trkpt lat="48.83636" lon="2.39013">
        <ele>96.4</ele>
        <time>2015-05-05T18:40:40.142Z</time>
      </trkpt>
      <trkpt lat="48.83637" lon="2.39018">
        <ele>96.4</ele>
        <time>2015-05-05T18:40:41.152Z</time>
      </trkpt>
      <trkpt lat="48.8364" lon="2.39025">
        <ele>96.6</ele>
        <time>2015-05-05T18:40:42.171Z</time>
      </trkpt>
      <trkpt lat="48.83642" lon="2.39031">
        <ele>96.7</ele>
        <time>2015-05-05T18:40:43.178Z</time>
      </trkpt>
      <trkpt lat="48.83644" lon="2.39038">
        <ele>96.8</ele>
        <time>2015-05-05T18:40:44.198Z</time>
      </trkpt>
      <trkpt lat="48.83647" lon="2.39044">
        <ele>96.9</ele>
        <time>2015-05-05T18:40:45.108Z</time>
      </trkpt>
      <trkpt lat="48.83648" lon="2.3905">
        <ele>97</ele>
        <time>2015-05-05T18:40:46.145Z</time>
      </trkpt>
      <trkpt lat="48.83653" lon="2.39055">
        <ele>97.2</ele>
        <time>2015-05-05T18:40:47.166Z</time>
      </trkpt>
      <trkpt lat="48.83656" lon="2.39061">
        <ele>97.4</ele>
        <time>2015-05-05T18:40:48.174Z</time>
      </trkpt>
      <trkpt lat="48.83661" lon="2.39072">
        <ele>97.6</ele>
        <time>2015-05-05T18:40:50.205Z</time>
      </trkpt>
      <trkpt lat="48.83666" lon="2.39077">
        <ele>97.8</ele>
        <time>2015-05-05T18:40:51.138Z</time>
      </trkpt>
      <trkpt lat="48.83674" lon="2.3908">
        <ele>98.3</ele>
        <time>2015-05-05T18:40:52.158Z</time>
      </trkpt>
      <trkpt lat="48.83678" lon="2.39085">
        <ele>98.4</ele>
        <time>2015-05-05T18:40:53.128Z</time>
      </trkpt>
      <trkpt lat="48.83681" lon="2.39091">
        <ele>98.5</ele>
        <time>2015-05-05T18:40:54.215Z</time>
      </trkpt>
      <trkpt lat="48.83684" lon="2.39096">
        <ele>98.6</ele>
        <time>2015-05-05T18:40:55.194Z</time>
      </trkpt>
      <trkpt lat="48.83688" lon="2.39106">
        <ele>98.4</ele>
        <time>2015-05-05T18:40:57.119Z</time>
      </trkpt>
      <trkpt lat="48.83691" lon="2.39109">
        <ele>98.2</ele>
        <time>2015-05-05T18:40:58.190Z</time>
      </trkpt>
      <trkpt lat="48.83696" lon="2.39112">
        <ele>97.3</ele>
        <time>2015-05-05T18:40:59.209Z</time>
      </trkpt>
      <trkpt lat="48.83703" lon="2.39115">
        <ele>95.7</ele>
        <time>2015-05-05T18:41:00.145Z</time>
      </trkpt>
      <trkpt lat="48.83711" lon="2.39114">
        <ele>96.4</ele>
        <time>2015-05-05T18:41:01.122Z</time>
      </trkpt>
      <trkpt lat="48.83716" lon="2.39114">
        <ele>96.8</ele>
        <time>2015-05-05T18:41:02.129Z</time>
      </trkpt>
      <trkpt lat="48.83725" lon="2.39111">
        <ele>97</ele>
        <time>2015-05-05T18:41:04.401Z</time>
      </trkpt>
      <trkpt lat="48.83729" lon="2.3911">
        <ele>97.1</ele>
        <time>2015-05-05T18:41:05.193Z</time>
      </trkpt>
      <trkpt lat="48.83736" lon="2.39106">
        <ele>97.2</ele>
        <time>2015-05-05T18:41:07.137Z</time>
      </trkpt>
      <trkpt lat="48.8374" lon="2.39103">
        <ele>97.3</ele>
        <time>2015-05-05T18:41:08.157Z</time>
      </trkpt>
      <trkpt lat="48.83748" lon="2.39095">
        <ele>97.4</ele>
        <time>2015-05-05T18:41:10.174Z</time>
      </trkpt>
      <trkpt lat="48.83752" lon="2.3909">
        <ele>97.4</ele>
        <time>2015-05-05T18:41:11.191Z</time>
      </trkpt>
      <trkpt lat="48.83757" lon="2.39084">
        <ele>97.5</ele>
        <time>2015-05-05T18:41:12.108Z</time>
      </trkpt>
      <trkpt lat="48.83766" lon="2.39073">
        <ele>97.6</ele>
        <time>2015-05-05T18:41:14.174Z</time>
      </trkpt>
      <trkpt lat="48.83775" lon="2.39061">
        <ele>97.7</ele>
        <time>2015-05-05T18:41:16.303Z</time>
      </trkpt>
      <trkpt lat="48.8378" lon="2.39056">
        <ele>97.7</ele>
        <time>2015-05-05T18:41:17.107Z</time>
      </trkpt>
      <trkpt lat="48.83786" lon="2.3905">
        <ele>97.7</ele>
        <time>2015-05-05T18:41:18.128Z</time>
      </trkpt>
      <trkpt lat="48.8379" lon="2.39043">
        <ele>97.7</ele>
        <time>2015-05-05T18:41:19.160Z</time>
      </trkpt>
      <trkpt lat="48.83795" lon="2.39035">
        <ele>97.7</ele>
        <time>2015-05-05T18:41:20.173Z</time>
      </trkpt>
      <trkpt lat="48.838" lon="2.39028">
        <ele>97.7</ele>
        <time>2015-05-05T18:41:21.198Z</time>
      </trkpt>
      <trkpt lat="48.83805" lon="2.39021">
        <ele>97.7</ele>
        <time>2015-05-05T18:41:22.224Z</time>
      </trkpt>
      <trkpt lat="48.8381" lon="2.39014">
        <ele>97.7</ele>
        <time>2015-05-05T18:41:23.131Z</time>
      </trkpt>
      <trkpt lat="48.83814" lon="2.39008">
        <ele>97.7</ele>
        <time>2015-05-05T18:41:24.146Z</time>
      </trkpt>
      <trkpt lat="48.83819" lon="2.39">
        <ele>97.7</ele>
        <time>2015-05-05T18:41:25.186Z</time>
      </trkpt>
      <trkpt lat="48.83824" lon="2.38992">
        <ele>97.8</ele>
        <time>2015-05-05T18:41:26.199Z</time>
      </trkpt>
      <trkpt lat="48.83832" lon="2.38985">
        <ele>97.9</ele>
        <time>2015-05-05T18:41:27.142Z</time>
      </trkpt>
      <trkpt lat="48.83836" lon="2.3898">
        <ele>97.9</ele>
        <time>2015-05-05T18:41:28.161Z</time>
      </trkpt>
      <trkpt lat="48.83841" lon="2.38976">
        <ele>97.9</ele>
        <time>2015-05-05T18:41:29.178Z</time>
      </trkpt>
      <trkpt lat="48.83846" lon="2.38972">
        <ele>98</ele>
        <time>2015-05-05T18:41:30.188Z</time>
      </trkpt>
      <trkpt lat="48.83851" lon="2.38969">
        <ele>98</ele>
        <time>2015-05-05T18:41:31.209Z</time>
      </trkpt>
      <trkpt lat="48.83853" lon="2.38962">
        <ele>98.1</ele>
        <time>2015-05-05T18:41:32.130Z</time>
      </trkpt>
      <trkpt lat="48.83861" lon="2.3896">
        <ele>98.6</ele>
        <time>2015-05-05T18:41:34.161Z</time>
      </trkpt>
      <trkpt lat="48.83865" lon="2.38959">
        <ele>98.8</ele>
        <time>2015-05-05T18:41:35.184Z</time>
      </trkpt>
      <trkpt lat="48.83873" lon="2.38955">
        <ele>99.1</ele>
        <time>2015-05-05T18:41:37.213Z</time>
      </trkpt>
      <trkpt lat="48.83877" lon="2.38953">
        <ele>99.1</ele>
        <time>2015-05-05T18:41:38.152Z</time>
      </trkpt>
      <trkpt lat="48.83884" lon="2.38949">
        <ele>99.3</ele>
        <time>2015-05-05T18:41:40.187Z</time>
      </trkpt>
      <trkpt lat="48.83891" lon="2.38941">
        <ele>96.7</ele>
        <time>2015-05-05T18:41:41.164Z</time>
      </trkpt>
      <trkpt lat="48.83896" lon="2.38934">
        <ele>95.9</ele>
        <time>2015-05-05T18:41:43.207Z</time>
      </trkpt>
      <trkpt lat="48.83898" lon="2.38931">
        <ele>95.2</ele>
        <time>2015-05-05T18:41:44.157Z</time>
      </trkpt>
      <trkpt lat="48.83898" lon="2.3893">
        <ele>95.3</ele>
        <time>2015-05-05T18:41:46.180Z</time>
      </trkpt>
      <trkpt lat="48.83896" lon="2.38931">
        <ele>95</ele>
        <time>2015-05-05T18:41:47.316Z</time>
      </trkpt>
      <trkpt lat="48.83895" lon="2.38933">
        <ele>94.8</ele>
        <time>2015-05-05T18:41:48.143Z</time>
      </trkpt>
      <trkpt lat="48.83894" lon="2.38936">
        <ele>94.5</ele>
        <time>2015-05-05T18:41:49.170Z</time>
      </trkpt>
      <trkpt lat="48.83892" lon="2.38937">
        <ele>94.5</ele>
        <time>2015-05-05T18:41:50.206Z</time>
      </trkpt>
      <trkpt lat="48.83891" lon="2.38938">
        <ele>94.5</ele>
        <time>2015-05-05T18:41:51.152Z</time>
      </trkpt>
      <trkpt lat="48.83891" lon="2.38938">
        <ele>94.8</ele>
        <time>2015-05-05T18:41:52.258Z</time>
      </trkpt>
      <trkpt lat="48.83898" lon="2.38933">
        <ele>94.7</ele>
        <time>2015-05-05T18:41:55.170Z</time>
      </trkpt>
      <trkpt lat="48.83902" lon="2.3893">
        <ele>94.6</ele>
        <time>2015-05-05T18:41:56.169Z</time>
      </trkpt>
      <trkpt lat="48.83908" lon="2.38924">
        <ele>94</ele>
        <time>2015-05-05T18:41:58.220Z</time>
      </trkpt>
      <trkpt lat="48.83911" lon="2.3892">
        <ele>93.9</ele>
        <time>2015-05-05T18:41:59.229Z</time>
      </trkpt>
      <trkpt lat="48.83917" lon="2.3891">
        <ele>94</ele>
        <time>2015-05-05T18:42:01.152Z</time>
      </trkpt>
      <trkpt lat="48.8392" lon="2.38905">
        <ele>94.3</ele>
        <time>2015-05-05T18:42:02.174Z</time>
      </trkpt>
      <trkpt lat="48.83924" lon="2.38901">
        <ele>94</ele>
        <time>2015-05-05T18:42:03.205Z</time>
      </trkpt>
      <trkpt lat="48.83928" lon="2.38897">
        <ele>94</ele>
        <time>2015-05-05T18:42:04.236Z</time>
      </trkpt>
      <trkpt lat="48.83931" lon="2.38892">
        <ele>94</ele>
        <time>2015-05-05T18:42:05.150Z</time>
      </trkpt>
      <trkpt lat="48.83934" lon="2.38886">
        <ele>94.8</ele>
        <time>2015-05-05T18:42:06.151Z</time>
      </trkpt>
      <trkpt lat="48.83939" lon="2.38877">
        <ele>95.8</ele>
        <time>2015-05-05T18:42:08.170Z</time>
      </trkpt>
      <trkpt lat="48.83943" lon="2.38873">
        <ele>95.8</ele>
        <time>2015-05-05T18:42:09.178Z</time>
      </trkpt>
      <trkpt lat="48.83946" lon="2.38868">
        <ele>95.8</ele>
        <time>2015-05-05T18:42:10.199Z</time>
      </trkpt>
      <trkpt lat="48.83948" lon="2.38861">
        <ele>95.5</ele>
        <time>2015-05-05T18:42:11.222Z</time>
      </trkpt>
      <trkpt lat="48.8395" lon="2.38855">
        <ele>95.6</ele>
        <time>2015-05-05T18:42:12.232Z</time>
      </trkpt>
      <trkpt lat="48.83974" lon="2.38789">
        <ele>94.7</ele>
        <time>2015-05-05T18:42:22.194Z</time>
      </trkpt>
      <trkpt lat="48.83978" lon="2.38784">
        <ele>94.4</ele>
        <time>2015-05-05T18:42:23.112Z</time>
      </trkpt>
      <trkpt lat="48.83982" lon="2.3878">
        <ele>94.3</ele>
        <time>2015-05-05T18:42:24.126Z</time>
      </trkpt>
      <trkpt lat="48.83985" lon="2.38777">
        <ele>94.2</ele>
        <time>2015-05-05T18:42:25.133Z</time>
      </trkpt>
      <trkpt lat="48.8399" lon="2.38776">
        <ele>93.9</ele>
        <time>2015-05-05T18:42:26.149Z</time>
      </trkpt>
      <trkpt lat="48.83996" lon="2.38774">
        <ele>93.4</ele>
        <time>2015-05-05T18:42:27.157Z</time>
      </trkpt>
      <trkpt lat="48.84001" lon="2.38773">
        <ele>93</ele>
        <time>2015-05-05T18:42:28.160Z</time>
      </trkpt>
      <trkpt lat="48.84007" lon="2.3877">
        <ele>92.8</ele>
        <time>2015-05-05T18:42:29.182Z</time>
      </trkpt>
      <trkpt lat="48.84014" lon="2.38766">
        <ele>92.5</ele>
        <time>2015-05-05T18:42:30.289Z</time>
      </trkpt>
      <trkpt lat="48.84021" lon="2.38763">
        <ele>92.3</ele>
        <time>2015-05-05T18:42:31.138Z</time>
      </trkpt>
      <trkpt lat="48.84028" lon="2.38761">
        <ele>92.2</ele>
        <time>2015-05-05T18:42:32.147Z</time>
      </trkpt>
      <trkpt lat="48.84035" lon="2.38759">
        <ele>92.2</ele>
        <time>2015-05-05T18:42:33.165Z</time>
      </trkpt>
      <trkpt lat="48.84043" lon="2.38758">
        <ele>92.2</ele>
        <time>2015-05-05T18:42:34.186Z</time>
      </trkpt>
      <trkpt lat="48.8405" lon="2.38757">
        <ele>92.1</ele>
        <time>2015-05-05T18:42:35.203Z</time>
      </trkpt>
      <trkpt lat="48.84056" lon="2.38754">
        <ele>92.1</ele>
        <time>2015-05-05T18:42:36.112Z</time>
      </trkpt>
      <trkpt lat="48.84064" lon="2.38752">
        <ele>91.8</ele>
        <time>2015-05-05T18:42:37.126Z</time>
      </trkpt>
      <trkpt lat="48.84076" lon="2.38747">
        <ele>89.9</ele>
        <time>2015-05-05T18:42:38.141Z</time>
      </trkpt>
      <trkpt lat="48.84083" lon="2.38744">
        <ele>89.7</ele>
        <time>2015-05-05T18:42:39.179Z</time>
      </trkpt>
      <trkpt lat="48.84091" lon="2.38741">
        <ele>89.5</ele>
        <time>2015-05-05T18:42:40.187Z</time>
      </trkpt>
      <trkpt lat="48.84098" lon="2.38737">
        <ele>89.5</ele>
        <time>2015-05-05T18:42:41.198Z</time>
      </trkpt>
      <trkpt lat="48.84104" lon="2.38735">
        <ele>89.5</ele>
        <time>2015-05-05T18:42:42.206Z</time>
      </trkpt>
      <trkpt lat="48.84111" lon="2.38733">
        <ele>89.6</ele>
        <time>2015-05-05T18:42:43.127Z</time>
      </trkpt>
      <trkpt lat="48.84117" lon="2.38732">
        <ele>89.6</ele>
        <time>2015-05-05T18:42:44.130Z</time>
      </trkpt>
      <trkpt lat="48.84124" lon="2.3873">
        <ele>89.7</ele>
        <time>2015-05-05T18:42:45.177Z</time>
      </trkpt>
      <trkpt lat="48.8413" lon="2.38729">
        <ele>89.9</ele>
        <time>2015-05-05T18:42:46.189Z</time>
      </trkpt>
      <trkpt lat="48.84138" lon="2.38726">
        <ele>90.5</ele>
        <time>2015-05-05T18:42:48.110Z</time>
      </trkpt>
      <trkpt lat="48.84139" lon="2.38725">
        <ele>90.8</ele>
        <time>2015-05-05T18:42:49.138Z</time>
      </trkpt>
      <trkpt lat="48.84143" lon="2.38724">
        <ele>92.1</ele>
        <time>2015-05-05T18:42:51.158Z</time>
      </trkpt>
      <trkpt lat="48.84144" lon="2.38723">
        <ele>92.4</ele>
        <time>2015-05-05T18:42:52.178Z</time>
      </trkpt>
      <trkpt lat="48.84144" lon="2.38722">
        <ele>92.7</ele>
        <time>2015-05-05T18:42:53.186Z</time>
      </trkpt>
      <trkpt lat="48.84144" lon="2.38723">
        <ele>92.7</ele>
        <time>2015-05-05T18:42:54.194Z</time>
      </trkpt>
      <trkpt lat="48.84143" lon="2.38723">
        <ele>92.7</ele>
        <time>2015-05-05T18:42:55.214Z</time>
      </trkpt>
      <trkpt lat="48.84143" lon="2.3872">
        <ele>93.1</ele>
        <time>2015-05-05T18:43:07.133Z</time>
      </trkpt>
      <trkpt lat="48.84145" lon="2.38716">
        <ele>95.8</ele>
        <time>2015-05-05T18:43:08.203Z</time>
      </trkpt>
      <trkpt lat="48.84151" lon="2.38713">
        <ele>96.8</ele>
        <time>2015-05-05T18:43:17.175Z</time>
      </trkpt>
      <trkpt lat="48.84151" lon="2.38714">
        <ele>96.8</ele>
        <time>2015-05-05T18:43:18.188Z</time>
      </trkpt>
      <trkpt lat="48.8415" lon="2.38713">
        <ele>96.7</ele>
        <time>2015-05-05T18:43:57.228Z</time>
      </trkpt>
      <trkpt lat="48.84143" lon="2.38715">
        <ele>97.8</ele>
        <time>2015-05-05T18:43:58.239Z</time>
      </trkpt>
      <trkpt lat="48.84143" lon="2.38715">
        <ele>97.7</ele>
        <time>2015-05-05T18:43:59.135Z</time>
      </trkpt>
      <trkpt lat="48.84143" lon="2.38715">
        <ele>97.7</ele>
        <time>2015-05-05T18:44:18.134Z</time>
      </trkpt>
      <trkpt lat="48.84142" lon="2.38714">
        <ele>97.3</ele>
        <time>2015-05-05T18:44:19.142Z</time>
      </trkpt>
      <trkpt lat="48.84143" lon="2.38714">
        <ele>97.5</ele>
        <time>2015-05-05T18:44:20.157Z</time>
      </trkpt>
      <trkpt lat="48.84143" lon="2.38714">
        <ele>97.5</ele>
        <time>2015-05-05T18:44:21.197Z</time>
      </trkpt>
      <trkpt lat="48.84144" lon="2.38714">
        <ele>97.5</ele>
        <time>2015-05-05T18:44:22.239Z</time>
      </trkpt>
      <trkpt lat="48.84145" lon="2.38714">
        <ele>97.4</ele>
        <time>2015-05-05T18:44:23.165Z</time>
      </trkpt>
      <trkpt lat="48.8415" lon="2.38704">
        <ele>97.1</ele>
        <time>2015-05-05T18:44:27.137Z</time>
      </trkpt>
      <trkpt lat="48.84152" lon="2.387">
        <ele>97.1</ele>
        <time>2015-05-05T18:44:28.240Z</time>
      </trkpt>
      <trkpt lat="48.84157" lon="2.38692">
        <ele>96.8</ele>
        <time>2015-05-05T18:44:30.140Z</time>
      </trkpt>
      <trkpt lat="48.84158" lon="2.38688">
        <ele>96.7</ele>
        <time>2015-05-05T18:44:31.177Z</time>
      </trkpt>
      <trkpt lat="48.84162" lon="2.3868">
        <ele>96.5</ele>
        <time>2015-05-05T18:44:33.124Z</time>
      </trkpt>
      <trkpt lat="48.84164" lon="2.38675">
        <ele>96.3</ele>
        <time>2015-05-05T18:44:34.165Z</time>
      </trkpt>
      <trkpt lat="48.8417" lon="2.38668">
        <ele>96.3</ele>
        <time>2015-05-05T18:44:36.113Z</time>
      </trkpt>
      <trkpt lat="48.84172" lon="2.38666">
        <ele>96.3</ele>
        <time>2015-05-05T18:44:37.146Z</time>
      </trkpt>
      <trkpt lat="48.84179" lon="2.3866">
        <ele>95.7</ele>
        <time>2015-05-05T18:44:40.164Z</time>
      </trkpt>
      <trkpt lat="48.84182" lon="2.38657">
        <ele>95.2</ele>
        <time>2015-05-05T18:44:41.165Z</time>
      </trkpt>
      <trkpt lat="48.84188" lon="2.38651">
        <ele>94.5</ele>
        <time>2015-05-05T18:44:44.212Z</time>
      </trkpt>
      <trkpt lat="48.8419" lon="2.38648">
        <ele>94.3</ele>
        <time>2015-05-05T18:44:45.110Z</time>
      </trkpt>
      <trkpt lat="48.84196" lon="2.38642">
        <ele>94</ele>
        <time>2015-05-05T18:44:47.186Z</time>
      </trkpt>
      <trkpt lat="48.842" lon="2.38638">
        <ele>94</ele>
        <time>2015-05-05T18:44:48.176Z</time>
      </trkpt>
      <trkpt lat="48.84203" lon="2.38634">
        <ele>94</ele>
        <time>2015-05-05T18:44:49.161Z</time>
      </trkpt>
      <trkpt lat="48.84207" lon="2.3863">
        <ele>93.9</ele>
        <time>2015-05-05T18:44:50.156Z</time>
      </trkpt>
      <trkpt lat="48.84211" lon="2.38626">
        <ele>93.8</ele>
        <time>2015-05-05T18:44:51.198Z</time>
      </trkpt>
      <trkpt lat="48.84215" lon="2.38622">
        <ele>93.8</ele>
        <time>2015-05-05T18:44:52.222Z</time>
      </trkpt>
      <trkpt lat="48.84219" lon="2.38617">
        <ele>93.7</ele>
        <time>2015-05-05T18:44:53.190Z</time>
      </trkpt>
      <trkpt lat="48.84223" lon="2.38613">
        <ele>93.6</ele>
        <time>2015-05-05T18:44:54.153Z</time>
      </trkpt>
      <trkpt lat="48.84228" lon="2.38609">
        <ele>93.4</ele>
        <time>2015-05-05T18:44:55.156Z</time>
      </trkpt>
      <trkpt lat="48.84233" lon="2.38604">
        <ele>93.5</ele>
        <time>2015-05-05T18:44:56.108Z</time>
      </trkpt>
      <trkpt lat="48.84237" lon="2.386">
        <ele>93.3</ele>
        <time>2015-05-05T18:44:57.159Z</time>
      </trkpt>
      <trkpt lat="48.84241" lon="2.38595">
        <ele>93.3</ele>
        <time>2015-05-05T18:44:58.269Z</time>
      </trkpt>
      <trkpt lat="48.84244" lon="2.38591">
        <ele>93</ele>
        <time>2015-05-05T18:44:59.337Z</time>
      </trkpt>
      <trkpt lat="48.84248" lon="2.38586">
        <ele>92.9</ele>
        <time>2015-05-05T18:45:00.132Z</time>
      </trkpt>
      <trkpt lat="48.84253" lon="2.38581">
        <ele>92.6</ele>
        <time>2015-05-05T18:45:01.160Z</time>
      </trkpt>
      <trkpt lat="48.84256" lon="2.38576">
        <ele>92.5</ele>
        <time>2015-05-05T18:45:02.188Z</time>
      </trkpt>
      <trkpt lat="48.84262" lon="2.38566">
        <ele>92.1</ele>
        <time>2015-05-05T18:45:04.222Z</time>
      </trkpt>
      <trkpt lat="48.84264" lon="2.3856">
        <ele>92.2</ele>
        <time>2015-05-05T18:45:05.173Z</time>
      </trkpt>
      <trkpt lat="48.84264" lon="2.3855">
        <ele>91.8</ele>
        <time>2015-05-05T18:45:06.193Z</time>
      </trkpt>
      <trkpt lat="48.84264" lon="2.3854">
        <ele>91.1</ele>
        <time>2015-05-05T18:45:07.201Z</time>
      </trkpt>
      <trkpt lat="48.84268" lon="2.38531">
        <ele>90.7</ele>
        <time>2015-05-05T18:45:08.130Z</time>
      </trkpt>
      <trkpt lat="48.84273" lon="2.38523">
        <ele>90.8</ele>
        <time>2015-05-05T18:45:09.106Z</time>
      </trkpt>
      <trkpt lat="48.84275" lon="2.38512">
        <ele>90.9</ele>
        <time>2015-05-05T18:45:10.177Z</time>
      </trkpt>
      <trkpt lat="48.84278" lon="2.38503">
        <ele>91</ele>
        <time>2015-05-05T18:45:11.183Z</time>
      </trkpt>
      <trkpt lat="48.8428" lon="2.38493">
        <ele>91.2</ele>
        <time>2015-05-05T18:45:12.195Z</time>
      </trkpt>
      <trkpt lat="48.84283" lon="2.38484">
        <ele>91.1</ele>
        <time>2015-05-05T18:45:13.210Z</time>
      </trkpt>
      <trkpt lat="48.84286" lon="2.38475">
        <ele>91</ele>
        <time>2015-05-05T18:45:14.136Z</time>
      </trkpt>
      <trkpt lat="48.84289" lon="2.38465">
        <ele>91.3</ele>
        <time>2015-05-05T18:45:15.130Z</time>
      </trkpt>
      <trkpt lat="48.8429" lon="2.38453">
        <ele>91.9</ele>
        <time>2015-05-05T18:45:16.145Z</time>
      </trkpt>
      <trkpt lat="48.84292" lon="2.38443">
        <ele>92.3</ele>
        <time>2015-05-05T18:45:17.158Z</time>
      </trkpt>
      <trkpt lat="48.84295" lon="2.38433">
        <ele>92.5</ele>
        <time>2015-05-05T18:45:18.163Z</time>
      </trkpt>
      <trkpt lat="48.84298" lon="2.38425">
        <ele>92.6</ele>
        <time>2015-05-05T18:45:19.172Z</time>
      </trkpt>
      <trkpt lat="48.84301" lon="2.38416">
        <ele>92.8</ele>
        <time>2015-05-05T18:45:20.187Z</time>
      </trkpt>
      <trkpt lat="48.84304" lon="2.38409">
        <ele>92.9</ele>
        <time>2015-05-05T18:45:21.240Z</time>
      </trkpt>
      <trkpt lat="48.84308" lon="2.38402">
        <ele>92.9</ele>
        <time>2015-05-05T18:45:22.214Z</time>
      </trkpt>
      <trkpt lat="48.84311" lon="2.38396">
        <ele>92.7</ele>
        <time>2015-05-05T18:45:23.098Z</time>
      </trkpt>
      <trkpt lat="48.84315" lon="2.3839">
        <ele>92.6</ele>
        <time>2015-05-05T18:45:24.125Z</time>
      </trkpt>
      <trkpt lat="48.84318" lon="2.38383">
        <ele>92.7</ele>
        <time>2015-05-05T18:45:25.133Z</time>
      </trkpt>
      <trkpt lat="48.84321" lon="2.38375">
        <ele>92.8</ele>
        <time>2015-05-05T18:45:26.154Z</time>
      </trkpt>
      <trkpt lat="48.84326" lon="2.38369">
        <ele>92.7</ele>
        <time>2015-05-05T18:45:27.160Z</time>
      </trkpt>
      <trkpt lat="48.84331" lon="2.38364">
        <ele>92.8</ele>
        <time>2015-05-05T18:45:28.185Z</time>
      </trkpt>
      <trkpt lat="48.84336" lon="2.3836">
        <ele>92.9</ele>
        <time>2015-05-05T18:45:29.190Z</time>
      </trkpt>
      <trkpt lat="48.84341" lon="2.38357">
        <ele>92.7</ele>
        <time>2015-05-05T18:45:30.197Z</time>
      </trkpt>
      <trkpt lat="48.84345" lon="2.38352">
        <ele>92.8</ele>
        <time>2015-05-05T18:45:31.201Z</time>
      </trkpt>
      <trkpt lat="48.84349" lon="2.38347">
        <ele>92.7</ele>
        <time>2015-05-05T18:45:32.214Z</time>
      </trkpt>
      <trkpt lat="48.84354" lon="2.38341">
        <ele>92.5</ele>
        <time>2015-05-05T18:45:33.131Z</time>
      </trkpt>
      <trkpt lat="48.84359" lon="2.38334">
        <ele>92.1</ele>
        <time>2015-05-05T18:45:34.234Z</time>
      </trkpt>
      <trkpt lat="48.84364" lon="2.3833">
        <ele>92.1</ele>
        <time>2015-05-05T18:45:35.114Z</time>
      </trkpt>
      <trkpt lat="48.84369" lon="2.38324">
        <ele>91.8</ele>
        <time>2015-05-05T18:45:36.129Z</time>
      </trkpt>
      <trkpt lat="48.84372" lon="2.38317">
        <ele>91.8</ele>
        <time>2015-05-05T18:45:37.128Z</time>
      </trkpt>
      <trkpt lat="48.84376" lon="2.38311">
        <ele>91.7</ele>
        <time>2015-05-05T18:45:38.137Z</time>
      </trkpt>
      <trkpt lat="48.84382" lon="2.38306">
        <ele>91.7</ele>
        <time>2015-05-05T18:45:39.142Z</time>
      </trkpt>
      <trkpt lat="48.84388" lon="2.38301">
        <ele>91.7</ele>
        <time>2015-05-05T18:45:40.167Z</time>
      </trkpt>
      <trkpt lat="48.84393" lon="2.38296">
        <ele>91.7</ele>
        <time>2015-05-05T18:45:41.178Z</time>
      </trkpt>
      <trkpt lat="48.84397" lon="2.38289">
        <ele>91.3</ele>
        <time>2015-05-05T18:45:42.178Z</time>
      </trkpt>
      <trkpt lat="48.84402" lon="2.38282">
        <ele>91.1</ele>
        <time>2015-05-05T18:45:43.190Z</time>
      </trkpt>
      <trkpt lat="48.84406" lon="2.38276">
        <ele>90.7</ele>
        <time>2015-05-05T18:45:44.123Z</time>
      </trkpt>
      <trkpt lat="48.84411" lon="2.38271">
        <ele>90.8</ele>
        <time>2015-05-05T18:45:45.133Z</time>
      </trkpt>
      <trkpt lat="48.84414" lon="2.38265">
        <ele>90.7</ele>
        <time>2015-05-05T18:45:46.142Z</time>
      </trkpt>
      <trkpt lat="48.84417" lon="2.38259">
        <ele>90.7</ele>
        <time>2015-05-05T18:45:47.152Z</time>
      </trkpt>
      <trkpt lat="48.8442" lon="2.38253">
        <ele>90.6</ele>
        <time>2015-05-05T18:45:48.166Z</time>
      </trkpt>
      <trkpt lat="48.84425" lon="2.38249">
        <ele>90.4</ele>
        <time>2015-05-05T18:45:49.172Z</time>
      </trkpt>
      <trkpt lat="48.84427" lon="2.38243">
        <ele>89.7</ele>
        <time>2015-05-05T18:45:50.182Z</time>
      </trkpt>
      <trkpt lat="48.84422" lon="2.38231">
        <ele>86</ele>
        <time>2015-05-05T18:45:51.187Z</time>
      </trkpt>
      <trkpt lat="48.84419" lon="2.3822">
        <ele>81.8</ele>
        <time>2015-05-05T18:45:52.194Z</time>
      </trkpt>
      <trkpt lat="48.84419" lon="2.38213">
        <ele>80.5</ele>
        <time>2015-05-05T18:45:53.099Z</time>
      </trkpt>
      <trkpt lat="48.84423" lon="2.38203">
        <ele>81.1</ele>
        <time>2015-05-05T18:45:55.133Z</time>
      </trkpt>
      <trkpt lat="48.84425" lon="2.38199">
        <ele>81.3</ele>
        <time>2015-05-05T18:45:56.192Z</time>
      </trkpt>
      <trkpt lat="48.84428" lon="2.3819">
        <ele>82.3</ele>
        <time>2015-05-05T18:45:58.167Z</time>
      </trkpt>
      <trkpt lat="48.84429" lon="2.38186">
        <ele>82.8</ele>
        <time>2015-05-05T18:45:59.190Z</time>
      </trkpt>
      <trkpt lat="48.8443" lon="2.38176">
        <ele>85.3</ele>
        <time>2015-05-05T18:46:03.264Z</time>
      </trkpt>
      <trkpt lat="48.8443" lon="2.38173">
        <ele>85.7</ele>
        <time>2015-05-05T18:46:04.301Z</time>
      </trkpt>
      <trkpt lat="48.84433" lon="2.38161">
        <ele>87</ele>
        <time>2015-05-05T18:46:07.165Z</time>
      </trkpt>
      <trkpt lat="48.84434" lon="2.38155">
        <ele>87.7</ele>
        <time>2015-05-05T18:46:08.207Z</time>
      </trkpt>
      <trkpt lat="48.84438" lon="2.38143">
        <ele>88.8</ele>
        <time>2015-05-05T18:46:10.243Z</time>
      </trkpt>
      <trkpt lat="48.8444" lon="2.38137">
        <ele>89.1</ele>
        <time>2015-05-05T18:46:11.154Z</time>
      </trkpt>
      <trkpt lat="48.84444" lon="2.38127">
        <ele>89.9</ele>
        <time>2015-05-05T18:46:13.201Z</time>
      </trkpt>
      <trkpt lat="48.84446" lon="2.38121">
        <ele>89.6</ele>
        <time>2015-05-05T18:46:14.206Z</time>
      </trkpt>
      <trkpt lat="48.84448" lon="2.38115">
        <ele>89.3</ele>
        <time>2015-05-05T18:46:15.142Z</time>
      </trkpt>
      <trkpt lat="48.84451" lon="2.38109">
        <ele>89</ele>
        <time>2015-05-05T18:46:16.172Z</time>
      </trkpt>
      <trkpt lat="48.84454" lon="2.38104">
        <ele>88.9</ele>
        <time>2015-05-05T18:46:17.217Z</time>
      </trkpt>
      <trkpt lat="48.84457" lon="2.38099">
        <ele>88.5</ele>
        <time>2015-05-05T18:46:18.163Z</time>
      </trkpt>
      <trkpt lat="48.8446" lon="2.38093">
        <ele>88.5</ele>
        <time>2015-05-05T18:46:19.137Z</time>
      </trkpt>
      <trkpt lat="48.84464" lon="2.38088">
        <ele>88.5</ele>
        <time>2015-05-05T18:46:20.148Z</time>
      </trkpt>
      <trkpt lat="48.84467" lon="2.38083">
        <ele>88.6</ele>
        <time>2015-05-05T18:46:21.133Z</time>
      </trkpt>
      <trkpt lat="48.84471" lon="2.38078">
        <ele>88.5</ele>
        <time>2015-05-05T18:46:22.187Z</time>
      </trkpt>
      <trkpt lat="48.84474" lon="2.38072">
        <ele>88.4</ele>
        <time>2015-05-05T18:46:23.155Z</time>
      </trkpt>
      <trkpt lat="48.84478" lon="2.38066">
        <ele>88.4</ele>
        <time>2015-05-05T18:46:24.139Z</time>
      </trkpt>
      <trkpt lat="48.84481" lon="2.38061">
        <ele>88.4</ele>
        <time>2015-05-05T18:46:25.146Z</time>
      </trkpt>
      <trkpt lat="48.84483" lon="2.38054">
        <ele>88.4</ele>
        <time>2015-05-05T18:46:26.181Z</time>
      </trkpt>
      <trkpt lat="48.84486" lon="2.38046">
        <ele>88.3</ele>
        <time>2015-05-05T18:46:27.210Z</time>
      </trkpt>
      <trkpt lat="48.84488" lon="2.38038">
        <ele>88.2</ele>
        <time>2015-05-05T18:46:28.225Z</time>
      </trkpt>
      <trkpt lat="48.84491" lon="2.3803">
        <ele>88.1</ele>
        <time>2015-05-05T18:46:29.101Z</time>
      </trkpt>
      <trkpt lat="48.84493" lon="2.38022">
        <ele>88.2</ele>
        <time>2015-05-05T18:46:30.135Z</time>
      </trkpt>
      <trkpt lat="48.84496" lon="2.38013">
        <ele>88.2</ele>
        <time>2015-05-05T18:46:31.125Z</time>
      </trkpt>
      <trkpt lat="48.84497" lon="2.38004">
        <ele>88.2</ele>
        <time>2015-05-05T18:46:32.169Z</time>
      </trkpt>
      <trkpt lat="48.84499" lon="2.37995">
        <ele>88.1</ele>
        <time>2015-05-05T18:46:33.183Z</time>
      </trkpt>
      <trkpt lat="48.84501" lon="2.37985">
        <ele>88.1</ele>
        <time>2015-05-05T18:46:34.206Z</time>
      </trkpt>
      <trkpt lat="48.84503" lon="2.37976">
        <ele>88.3</ele>
        <time>2015-05-05T18:46:35.109Z</time>
      </trkpt>
      <trkpt lat="48.84505" lon="2.37967">
        <ele>88.4</ele>
        <time>2015-05-05T18:46:36.160Z</time>
      </trkpt>
      <trkpt lat="48.84508" lon="2.37959">
        <ele>88.6</ele>
        <time>2015-05-05T18:46:37.116Z</time>
      </trkpt>
      <trkpt lat="48.84511" lon="2.37951">
        <ele>88.7</ele>
        <time>2015-05-05T18:46:38.126Z</time>
      </trkpt>
      <trkpt lat="48.84514" lon="2.37944">
        <ele>88.7</ele>
        <time>2015-05-05T18:46:39.167Z</time>
      </trkpt>
      <trkpt lat="48.84517" lon="2.37938">
        <ele>88.6</ele>
        <time>2015-05-05T18:46:40.177Z</time>
      </trkpt>
      <trkpt lat="48.8452" lon="2.37932">
        <ele>88.6</ele>
        <time>2015-05-05T18:46:41.197Z</time>
      </trkpt>
      <trkpt lat="48.84523" lon="2.37927">
        <ele>88.6</ele>
        <time>2015-05-05T18:46:42.205Z</time>
      </trkpt>
      <trkpt lat="48.84527" lon="2.37922">
        <ele>88.4</ele>
        <time>2015-05-05T18:46:43.122Z</time>
      </trkpt>
      <trkpt lat="48.8453" lon="2.37916">
        <ele>88.3</ele>
        <time>2015-05-05T18:46:44.114Z</time>
      </trkpt>
      <trkpt lat="48.84534" lon="2.37911">
        <ele>88.2</ele>
        <time>2015-05-05T18:46:45.122Z</time>
      </trkpt>
      <trkpt lat="48.84538" lon="2.37907">
        <ele>88.3</ele>
        <time>2015-05-05T18:46:46.158Z</time>
      </trkpt>
      <trkpt lat="48.84542" lon="2.37902">
        <ele>88.1</ele>
        <time>2015-05-05T18:46:47.176Z</time>
      </trkpt>
      <trkpt lat="48.84546" lon="2.37897">
        <ele>88.2</ele>
        <time>2015-05-05T18:46:48.184Z</time>
      </trkpt>
      <trkpt lat="48.84551" lon="2.37891">
        <ele>88.2</ele>
        <time>2015-05-05T18:46:49.205Z</time>
      </trkpt>
      <trkpt lat="48.84557" lon="2.37887">
        <ele>88.6</ele>
        <time>2015-05-05T18:46:50.201Z</time>
      </trkpt>
      <trkpt lat="48.84561" lon="2.37881">
        <ele>88.6</ele>
        <time>2015-05-05T18:46:51.115Z</time>
      </trkpt>
      <trkpt lat="48.84564" lon="2.37876">
        <ele>88.4</ele>
        <time>2015-05-05T18:46:52.157Z</time>
      </trkpt>
      <trkpt lat="48.84568" lon="2.37871">
        <ele>88.4</ele>
        <time>2015-05-05T18:46:53.203Z</time>
      </trkpt>
      <trkpt lat="48.84572" lon="2.37866">
        <ele>88.1</ele>
        <time>2015-05-05T18:46:54.210Z</time>
      </trkpt>
      <trkpt lat="48.84577" lon="2.37861">
        <ele>88</ele>
        <time>2015-05-05T18:46:55.117Z</time>
      </trkpt>
      <trkpt lat="48.84582" lon="2.37857">
        <ele>87.9</ele>
        <time>2015-05-05T18:46:56.126Z</time>
      </trkpt>
      <trkpt lat="48.84588" lon="2.37852">
        <ele>87.7</ele>
        <time>2015-05-05T18:46:57.132Z</time>
      </trkpt>
      <trkpt lat="48.84594" lon="2.37847">
        <ele>87.5</ele>
        <time>2015-05-05T18:46:58.162Z</time>
      </trkpt>
      <trkpt lat="48.84599" lon="2.37842">
        <ele>87.4</ele>
        <time>2015-05-05T18:46:59.181Z</time>
      </trkpt>
      <trkpt lat="48.84604" lon="2.37837">
        <ele>87.2</ele>
        <time>2015-05-05T18:47:00.192Z</time>
      </trkpt>
      <trkpt lat="48.84609" lon="2.37832">
        <ele>86.9</ele>
        <time>2015-05-05T18:47:01.196Z</time>
      </trkpt>
      <trkpt lat="48.84612" lon="2.37827">
        <ele>86.7</ele>
        <time>2015-05-05T18:47:02.201Z</time>
      </trkpt>
      <trkpt lat="48.84615" lon="2.37821">
        <ele>86.3</ele>
        <time>2015-05-05T18:47:03.116Z</time>
      </trkpt>
      <trkpt lat="48.84618" lon="2.37816">
        <ele>86.2</ele>
        <time>2015-05-05T18:47:04.204Z</time>
      </trkpt>
      <trkpt lat="48.84624" lon="2.37806">
        <ele>85.7</ele>
        <time>2015-05-05T18:47:06.192Z</time>
      </trkpt>
      <trkpt lat="48.84624" lon="2.37799">
        <ele>84.4</ele>
        <time>2015-05-05T18:47:07.183Z</time>
      </trkpt>
      <trkpt lat="48.84625" lon="2.37793">
        <ele>83.9</ele>
        <time>2015-05-05T18:47:08.189Z</time>
      </trkpt>
      <trkpt lat="48.84629" lon="2.37787">
        <ele>84.4</ele>
        <time>2015-05-05T18:47:09.281Z</time>
      </trkpt>
      <trkpt lat="48.84633" lon="2.37781">
        <ele>84.8</ele>
        <time>2015-05-05T18:47:10.161Z</time>
      </trkpt>
      <trkpt lat="48.84635" lon="2.37774">
        <ele>85</ele>
        <time>2015-05-05T18:47:11.167Z</time>
      </trkpt>
      <trkpt lat="48.8464" lon="2.37765">
        <ele>84.7</ele>
        <time>2015-05-05T18:47:13.197Z</time>
      </trkpt>
      <trkpt lat="48.84642" lon="2.37759">
        <ele>84.7</ele>
        <time>2015-05-05T18:47:14.136Z</time>
      </trkpt>
      <trkpt lat="48.84644" lon="2.37752">
        <ele>84.7</ele>
        <time>2015-05-05T18:47:15.224Z</time>
      </trkpt>
      <trkpt lat="48.84647" lon="2.37746">
        <ele>84.9</ele>
        <time>2015-05-05T18:47:16.230Z</time>
      </trkpt>
      <trkpt lat="48.8465" lon="2.37739">
        <ele>85</ele>
        <time>2015-05-05T18:47:17.096Z</time>
      </trkpt>
      <trkpt lat="48.84654" lon="2.37732">
        <ele>85.2</ele>
        <time>2015-05-05T18:47:18.145Z</time>
      </trkpt>
      <trkpt lat="48.84657" lon="2.37724">
        <ele>85.4</ele>
        <time>2015-05-05T18:47:19.179Z</time>
      </trkpt>
      <trkpt lat="48.8466" lon="2.37717">
        <ele>85.5</ele>
        <time>2015-05-05T18:47:20.211Z</time>
      </trkpt>
      <trkpt lat="48.84662" lon="2.3771">
        <ele>85.6</ele>
        <time>2015-05-05T18:47:21.127Z</time>
      </trkpt>
      <trkpt lat="48.84665" lon="2.37701">
        <ele>85.4</ele>
        <time>2015-05-05T18:47:22.186Z</time>
      </trkpt>
      <trkpt lat="48.84669" lon="2.37688">
        <ele>86.1</ele>
        <time>2015-05-05T18:47:23.198Z</time>
      </trkpt>
      <trkpt lat="48.84674" lon="2.37682">
        <ele>86.2</ele>
        <time>2015-05-05T18:47:24.202Z</time>
      </trkpt>
      <trkpt lat="48.84679" lon="2.37677">
        <ele>86.3</ele>
        <time>2015-05-05T18:47:25.202Z</time>
      </trkpt>
      <trkpt lat="48.84684" lon="2.37673">
        <ele>86.2</ele>
        <time>2015-05-05T18:47:26.202Z</time>
      </trkpt>
      <trkpt lat="48.84689" lon="2.37669">
        <ele>86.3</ele>
        <time>2015-05-05T18:47:27.122Z</time>
      </trkpt>
      <trkpt lat="48.84693" lon="2.37664">
        <ele>86.5</ele>
        <time>2015-05-05T18:47:28.223Z</time>
      </trkpt>
      <trkpt lat="48.84698" lon="2.37659">
        <ele>86.8</ele>
        <time>2015-05-05T18:47:29.119Z</time>
      </trkpt>
      <trkpt lat="48.84703" lon="2.37653">
        <ele>86.9</ele>
        <time>2015-05-05T18:47:30.123Z</time>
      </trkpt>
      <trkpt lat="48.84708" lon="2.37649">
        <ele>87</ele>
        <time>2015-05-05T18:47:31.136Z</time>
      </trkpt>
      <trkpt lat="48.84714" lon="2.37644">
        <ele>87</ele>
        <time>2015-05-05T18:47:32.155Z</time>
      </trkpt>
      <trkpt lat="48.84718" lon="2.37639">
        <ele>87</ele>
        <time>2015-05-05T18:47:33.162Z</time>
      </trkpt>
      <trkpt lat="48.84721" lon="2.37633">
        <ele>86.9</ele>
        <time>2015-05-05T18:47:34.176Z</time>
      </trkpt>
      <trkpt lat="48.84725" lon="2.37628">
        <ele>86.7</ele>
        <time>2015-05-05T18:47:35.185Z</time>
      </trkpt>
      <trkpt lat="48.84728" lon="2.37622">
        <ele>86.4</ele>
        <time>2015-05-05T18:47:36.200Z</time>
      </trkpt>
      <trkpt lat="48.8473" lon="2.37613">
        <ele>86.3</ele>
        <time>2015-05-05T18:47:37.209Z</time>
      </trkpt>
      <trkpt lat="48.84732" lon="2.37605">
        <ele>86.3</ele>
        <time>2015-05-05T18:47:38.117Z</time>
      </trkpt>
      <trkpt lat="48.84733" lon="2.37597">
        <ele>86.5</ele>
        <time>2015-05-05T18:47:39.124Z</time>
      </trkpt>
      <trkpt lat="48.84736" lon="2.37589">
        <ele>86.3</ele>
        <time>2015-05-05T18:47:40.156Z</time>
      </trkpt>
      <trkpt lat="48.84739" lon="2.37581">
        <ele>85.8</ele>
        <time>2015-05-05T18:47:41.155Z</time>
      </trkpt>
      <trkpt lat="48.8474" lon="2.37573">
        <ele>85.8</ele>
        <time>2015-05-05T18:47:42.181Z</time>
      </trkpt>
      <trkpt lat="48.84742" lon="2.37565">
        <ele>86.1</ele>
        <time>2015-05-05T18:47:43.187Z</time>
      </trkpt>
      <trkpt lat="48.84745" lon="2.37557">
        <ele>86.3</ele>
        <time>2015-05-05T18:47:44.195Z</time>
      </trkpt>
      <trkpt lat="48.84748" lon="2.37549">
        <ele>86.6</ele>
        <time>2015-05-05T18:47:45.120Z</time>
      </trkpt>
      <trkpt lat="48.84751" lon="2.37542">
        <ele>86.8</ele>
        <time>2015-05-05T18:47:46.223Z</time>
      </trkpt>
      <trkpt lat="48.84755" lon="2.37534">
        <ele>87</ele>
        <time>2015-05-05T18:47:47.108Z</time>
      </trkpt>
      <trkpt lat="48.84758" lon="2.37527">
        <ele>87.2</ele>
        <time>2015-05-05T18:47:48.156Z</time>
      </trkpt>
      <trkpt lat="48.84761" lon="2.3752">
        <ele>87.3</ele>
        <time>2015-05-05T18:47:49.177Z</time>
      </trkpt>
      <trkpt lat="48.84764" lon="2.37513">
        <ele>87.4</ele>
        <time>2015-05-05T18:47:50.192Z</time>
      </trkpt>
      <trkpt lat="48.84767" lon="2.37505">
        <ele>87.3</ele>
        <time>2015-05-05T18:47:51.118Z</time>
      </trkpt>
      <trkpt lat="48.84769" lon="2.37497">
        <ele>87.4</ele>
        <time>2015-05-05T18:47:52.219Z</time>
      </trkpt>
      <trkpt lat="48.84771" lon="2.3749">
        <ele>87.5</ele>
        <time>2015-05-05T18:47:53.130Z</time>
      </trkpt>
      <trkpt lat="48.84774" lon="2.37483">
        <ele>87.7</ele>
        <time>2015-05-05T18:47:54.125Z</time>
      </trkpt>
      <trkpt lat="48.84777" lon="2.37476">
        <ele>87.9</ele>
        <time>2015-05-05T18:47:55.134Z</time>
      </trkpt>
      <trkpt lat="48.84781" lon="2.37469">
        <ele>87.9</ele>
        <time>2015-05-05T18:47:56.153Z</time>
      </trkpt>
      <trkpt lat="48.84784" lon="2.37461">
        <ele>87.7</ele>
        <time>2015-05-05T18:47:57.155Z</time>
      </trkpt>
      <trkpt lat="48.84785" lon="2.37451">
        <ele>86.9</ele>
        <time>2015-05-05T18:47:58.190Z</time>
      </trkpt>
      <trkpt lat="48.84788" lon="2.37444">
        <ele>86.8</ele>
        <time>2015-05-05T18:47:59.098Z</time>
      </trkpt>
      <trkpt lat="48.84792" lon="2.37437">
        <ele>87.2</ele>
        <time>2015-05-05T18:48:00.134Z</time>
      </trkpt>
      <trkpt lat="48.84794" lon="2.3743">
        <ele>87.5</ele>
        <time>2015-05-05T18:48:01.153Z</time>
      </trkpt>
      <trkpt lat="48.84797" lon="2.37425">
        <ele>88</ele>
        <time>2015-05-05T18:48:02.164Z</time>
      </trkpt>
      <trkpt lat="48.84801" lon="2.37419">
        <ele>88.1</ele>
        <time>2015-05-05T18:48:03.168Z</time>
      </trkpt>
      <trkpt lat="48.84803" lon="2.37412">
        <ele>88.2</ele>
        <time>2015-05-05T18:48:04.208Z</time>
      </trkpt>
      <trkpt lat="48.84806" lon="2.37407">
        <ele>88.4</ele>
        <time>2015-05-05T18:48:05.121Z</time>
      </trkpt>
      <trkpt lat="48.8481" lon="2.37402">
        <ele>88.5</ele>
        <time>2015-05-05T18:48:06.098Z</time>
      </trkpt>
      <trkpt lat="48.84813" lon="2.37397">
        <ele>88.5</ele>
        <time>2015-05-05T18:48:07.116Z</time>
      </trkpt>
      <trkpt lat="48.84817" lon="2.37392">
        <ele>88.6</ele>
        <time>2015-05-05T18:48:08.125Z</time>
      </trkpt>
      <trkpt lat="48.84822" lon="2.37385">
        <ele>88.5</ele>
        <time>2015-05-05T18:48:09.135Z</time>
      </trkpt>
      <trkpt lat="48.84826" lon="2.37379">
        <ele>88.7</ele>
        <time>2015-05-05T18:48:10.148Z</time>
      </trkpt>
      <trkpt lat="48.84831" lon="2.37372">
        <ele>88.9</ele>
        <time>2015-05-05T18:48:11.158Z</time>
      </trkpt>
      <trkpt lat="48.84835" lon="2.37365">
        <ele>88.9</ele>
        <time>2015-05-05T18:48:12.169Z</time>
      </trkpt>
      <trkpt lat="48.84839" lon="2.37359">
        <ele>88.8</ele>
        <time>2015-05-05T18:48:13.172Z</time>
      </trkpt>
      <trkpt lat="48.84843" lon="2.37352">
        <ele>88.9</ele>
        <time>2015-05-05T18:48:14.181Z</time>
      </trkpt>
      <trkpt lat="48.84846" lon="2.37345">
        <ele>89.1</ele>
        <time>2015-05-05T18:48:15.213Z</time>
      </trkpt>
      <trkpt lat="48.84849" lon="2.37337">
        <ele>89.3</ele>
        <time>2015-05-05T18:48:16.224Z</time>
      </trkpt>
      <trkpt lat="48.84852" lon="2.37329">
        <ele>89.3</ele>
        <time>2015-05-05T18:48:17.123Z</time>
      </trkpt>
      <trkpt lat="48.84855" lon="2.37321">
        <ele>89.3</ele>
        <time>2015-05-05T18:48:18.140Z</time>
      </trkpt>
      <trkpt lat="48.84859" lon="2.37315">
        <ele>89.4</ele>
        <time>2015-05-05T18:48:19.158Z</time>
      </trkpt>
      <trkpt lat="48.84861" lon="2.37309">
        <ele>89.5</ele>
        <time>2015-05-05T18:48:20.166Z</time>
      </trkpt>
      <trkpt lat="48.84865" lon="2.37303">
        <ele>89.8</ele>
        <time>2015-05-05T18:48:21.187Z</time>
      </trkpt>
      <trkpt lat="48.84866" lon="2.37295">
        <ele>90.1</ele>
        <time>2015-05-05T18:48:22.204Z</time>
      </trkpt>
      <trkpt lat="48.84868" lon="2.3729">
        <ele>90.1</ele>
        <time>2015-05-05T18:48:23.381Z</time>
      </trkpt>
      <trkpt lat="48.84875" lon="2.37296">
        <ele>90.3</ele>
        <time>2015-05-05T18:48:27.199Z</time>
      </trkpt>
      <trkpt lat="48.84878" lon="2.37301">
        <ele>90.1</ele>
        <time>2015-05-05T18:48:28.222Z</time>
      </trkpt>
      <trkpt lat="48.84882" lon="2.37306">
        <ele>90</ele>
        <time>2015-05-05T18:48:29.235Z</time>
      </trkpt>
      <trkpt lat="48.84885" lon="2.37311">
        <ele>90</ele>
        <time>2015-05-05T18:48:30.125Z</time>
      </trkpt>
      <trkpt lat="48.8489" lon="2.37316">
        <ele>89.9</ele>
        <time>2015-05-05T18:48:31.162Z</time>
      </trkpt>
      <trkpt lat="48.84895" lon="2.37322">
        <ele>89.9</ele>
        <time>2015-05-05T18:48:32.170Z</time>
      </trkpt>
      <trkpt lat="48.84898" lon="2.37327">
        <ele>90.1</ele>
        <time>2015-05-05T18:48:33.180Z</time>
      </trkpt>
      <trkpt lat="48.84902" lon="2.37333">
        <ele>90.3</ele>
        <time>2015-05-05T18:48:34.211Z</time>
      </trkpt>
      <trkpt lat="48.84905" lon="2.37339">
        <ele>90.4</ele>
        <time>2015-05-05T18:48:35.117Z</time>
      </trkpt>
      <trkpt lat="48.84909" lon="2.37344">
        <ele>90.5</ele>
        <time>2015-05-05T18:48:36.152Z</time>
      </trkpt>
      <trkpt lat="48.84913" lon="2.3735">
        <ele>90.6</ele>
        <time>2015-05-05T18:48:37.186Z</time>
      </trkpt>
      <trkpt lat="48.84918" lon="2.37356">
        <ele>90.3</ele>
        <time>2015-05-05T18:48:38.197Z</time>
      </trkpt>
      <trkpt lat="48.84923" lon="2.37362">
        <ele>90.3</ele>
        <time>2015-05-05T18:48:39.163Z</time>
      </trkpt>
      <trkpt lat="48.84927" lon="2.37367">
        <ele>90.1</ele>
        <time>2015-05-05T18:48:40.170Z</time>
      </trkpt>
      <trkpt lat="48.84932" lon="2.37374">
        <ele>89.9</ele>
        <time>2015-05-05T18:48:41.181Z</time>
      </trkpt>
      <trkpt lat="48.84937" lon="2.37382">
        <ele>89.8</ele>
        <time>2015-05-05T18:48:42.188Z</time>
      </trkpt>
      <trkpt lat="48.84942" lon="2.37388">
        <ele>89.6</ele>
        <time>2015-05-05T18:48:43.112Z</time>
      </trkpt>
      <trkpt lat="48.84946" lon="2.37395">
        <ele>89.6</ele>
        <time>2015-05-05T18:48:44.113Z</time>
      </trkpt>
      <trkpt lat="48.84949" lon="2.37401">
        <ele>89.6</ele>
        <time>2015-05-05T18:48:45.119Z</time>
      </trkpt>
      <trkpt lat="48.84953" lon="2.37406">
        <ele>89.6</ele>
        <time>2015-05-05T18:48:46.156Z</time>
      </trkpt>
      <trkpt lat="48.84957" lon="2.37411">
        <ele>89.5</ele>
        <time>2015-05-05T18:48:47.158Z</time>
      </trkpt>
      <trkpt lat="48.8496" lon="2.37415">
        <ele>89.5</ele>
        <time>2015-05-05T18:48:48.162Z</time>
      </trkpt>
      <trkpt lat="48.84968" lon="2.37422">
        <ele>89.8</ele>
        <time>2015-05-05T18:48:50.176Z</time>
      </trkpt>
      <trkpt lat="48.84972" lon="2.37426">
        <ele>89.5</ele>
        <time>2015-05-05T18:48:51.245Z</time>
      </trkpt>
      <trkpt lat="48.84978" lon="2.37435">
        <ele>89.4</ele>
        <time>2015-05-05T18:48:53.119Z</time>
      </trkpt>
      <trkpt lat="48.8498" lon="2.3744">
        <ele>89.5</ele>
        <time>2015-05-05T18:48:54.184Z</time>
      </trkpt>
      <trkpt lat="48.84986" lon="2.37448">
        <ele>89.6</ele>
        <time>2015-05-05T18:48:56.157Z</time>
      </trkpt>
      <trkpt lat="48.84989" lon="2.37452">
        <ele>89.6</ele>
        <time>2015-05-05T18:48:57.176Z</time>
      </trkpt>
      <trkpt lat="48.84993" lon="2.37455">
        <ele>89.5</ele>
        <time>2015-05-05T18:48:58.210Z</time>
      </trkpt>
      <trkpt lat="48.84997" lon="2.37459">
        <ele>89.3</ele>
        <time>2015-05-05T18:48:59.127Z</time>
      </trkpt>
      <trkpt lat="48.85" lon="2.37464">
        <ele>89.1</ele>
        <time>2015-05-05T18:49:00.148Z</time>
      </trkpt>
      <trkpt lat="48.85004" lon="2.37467">
        <ele>88.8</ele>
        <time>2015-05-05T18:49:01.147Z</time>
      </trkpt>
      <trkpt lat="48.85007" lon="2.37472">
        <ele>88.5</ele>
        <time>2015-05-05T18:49:02.154Z</time>
      </trkpt>
      <trkpt lat="48.85011" lon="2.37477">
        <ele>88.2</ele>
        <time>2015-05-05T18:49:03.155Z</time>
      </trkpt>
      <trkpt lat="48.85016" lon="2.37481">
        <ele>88</ele>
        <time>2015-05-05T18:49:04.170Z</time>
      </trkpt>
      <trkpt lat="48.85021" lon="2.37485">
        <ele>87.8</ele>
        <time>2015-05-05T18:49:05.178Z</time>
      </trkpt>
      <trkpt lat="48.85027" lon="2.37489">
        <ele>87.7</ele>
        <time>2015-05-05T18:49:06.202Z</time>
      </trkpt>
      <trkpt lat="48.85032" lon="2.37492">
        <ele>87.6</ele>
        <time>2015-05-05T18:49:07.115Z</time>
      </trkpt>
      <trkpt lat="48.85037" lon="2.37496">
        <ele>87.6</ele>
        <time>2015-05-05T18:49:08.130Z</time>
      </trkpt>
      <trkpt lat="48.8504" lon="2.37501">
        <ele>87.5</ele>
        <time>2015-05-05T18:49:09.078Z</time>
      </trkpt>
      <trkpt lat="48.85044" lon="2.37505">
        <ele>87.5</ele>
        <time>2015-05-05T18:49:10.155Z</time>
      </trkpt>
      <trkpt lat="48.85047" lon="2.3751">
        <ele>87.5</ele>
        <time>2015-05-05T18:49:11.175Z</time>
      </trkpt>
      <trkpt lat="48.85051" lon="2.37514">
        <ele>87.6</ele>
        <time>2015-05-05T18:49:12.127Z</time>
      </trkpt>
      <trkpt lat="48.85055" lon="2.37519">
        <ele>87.6</ele>
        <time>2015-05-05T18:49:13.159Z</time>
      </trkpt>
      <trkpt lat="48.8506" lon="2.37524">
        <ele>87.7</ele>
        <time>2015-05-05T18:49:14.181Z</time>
      </trkpt>
      <trkpt lat="48.85063" lon="2.37529">
        <ele>87.7</ele>
        <time>2015-05-05T18:49:15.208Z</time>
      </trkpt>
      <trkpt lat="48.85068" lon="2.37537">
        <ele>88.1</ele>
        <time>2015-05-05T18:49:17.183Z</time>
      </trkpt>
      <trkpt lat="48.8507" lon="2.3754">
        <ele>88.4</ele>
        <time>2015-05-05T18:49:18.146Z</time>
      </trkpt>
      <trkpt lat="48.85072" lon="2.3755">
        <ele>90.4</ele>
        <time>2015-05-05T18:49:23.163Z</time>
      </trkpt>
      <trkpt lat="48.85076" lon="2.37553">
        <ele>91</ele>
        <time>2015-05-05T18:49:24.168Z</time>
      </trkpt>
      <trkpt lat="48.85083" lon="2.3756">
        <ele>91.3</ele>
        <time>2015-05-05T18:49:26.152Z</time>
      </trkpt>
      <trkpt lat="48.85085" lon="2.37563">
        <ele>91.6</ele>
        <time>2015-05-05T18:49:27.197Z</time>
      </trkpt>
      <trkpt lat="48.85092" lon="2.37567">
        <ele>92.2</ele>
        <time>2015-05-05T18:49:30.138Z</time>
      </trkpt>
      <trkpt lat="48.85094" lon="2.3757">
        <ele>92.4</ele>
        <time>2015-05-05T18:49:31.146Z</time>
      </trkpt>
      <trkpt lat="48.85096" lon="2.37578">
        <ele>92.6</ele>
        <time>2015-05-05T18:49:32.186Z</time>
      </trkpt>
      <trkpt lat="48.85098" lon="2.37586">
        <ele>93.1</ele>
        <time>2015-05-05T18:49:33.203Z</time>
      </trkpt>
      <trkpt lat="48.85104" lon="2.37591">
        <ele>93.2</ele>
        <time>2015-05-05T18:49:35.128Z</time>
      </trkpt>
      <trkpt lat="48.85107" lon="2.37592">
        <ele>93.2</ele>
        <time>2015-05-05T18:49:36.155Z</time>
      </trkpt>
      <trkpt lat="48.85114" lon="2.37594">
        <ele>93.5</ele>
        <time>2015-05-05T18:49:40.339Z</time>
      </trkpt>
      <trkpt lat="48.85116" lon="2.37595">
        <ele>94</ele>
        <time>2015-05-05T18:49:41.157Z</time>
      </trkpt>
      <trkpt lat="48.85118" lon="2.37597">
        <ele>94.6</ele>
        <time>2015-05-05T18:49:42.230Z</time>
      </trkpt>
      <trkpt lat="48.85119" lon="2.37598">
        <ele>94.8</ele>
        <time>2015-05-05T18:49:43.120Z</time>
      </trkpt>
      <trkpt lat="48.8512" lon="2.37599">
        <ele>94.8</ele>
        <time>2015-05-05T18:49:44.134Z</time>
      </trkpt>
      <trkpt lat="48.85126" lon="2.3759">
        <ele>100.6</ele>
        <time>2015-05-05T18:50:04.198Z</time>
      </trkpt>
      <trkpt lat="48.85127" lon="2.37587">
        <ele>100.6</ele>
        <time>2015-05-05T18:50:05.118Z</time>
      </trkpt>
      <trkpt lat="48.85131" lon="2.37576">
        <ele>100.5</ele>
        <time>2015-05-05T18:50:08.144Z</time>
      </trkpt>
      <trkpt lat="48.85132" lon="2.3757">
        <ele>100.4</ele>
        <time>2015-05-05T18:50:09.168Z</time>
      </trkpt>
      <trkpt lat="48.85134" lon="2.37563">
        <ele>100.1</ele>
        <time>2015-05-05T18:50:10.153Z</time>
      </trkpt>
      <trkpt lat="48.85135" lon="2.37556">
        <ele>100</ele>
        <time>2015-05-05T18:50:11.153Z</time>
      </trkpt>
      <trkpt lat="48.85136" lon="2.37548">
        <ele>99.6</ele>
        <time>2015-05-05T18:50:12.185Z</time>
      </trkpt>
      <trkpt lat="48.85137" lon="2.37539">
        <ele>99.4</ele>
        <time>2015-05-05T18:50:13.201Z</time>
      </trkpt>
      <trkpt lat="48.85138" lon="2.37531">
        <ele>99.4</ele>
        <time>2015-05-05T18:50:14.117Z</time>
      </trkpt>
      <trkpt lat="48.85139" lon="2.37524">
        <ele>99.3</ele>
        <time>2015-05-05T18:50:15.126Z</time>
      </trkpt>
      <trkpt lat="48.8514" lon="2.37516">
        <ele>99</ele>
        <time>2015-05-05T18:50:16.151Z</time>
      </trkpt>
      <trkpt lat="48.85142" lon="2.3751">
        <ele>98.9</ele>
        <time>2015-05-05T18:50:17.159Z</time>
      </trkpt>
      <trkpt lat="48.85143" lon="2.37503">
        <ele>98.9</ele>
        <time>2015-05-05T18:50:18.169Z</time>
      </trkpt>
      <trkpt lat="48.85145" lon="2.37497">
        <ele>98.7</ele>
        <time>2015-05-05T18:50:19.212Z</time>
      </trkpt>
      <trkpt lat="48.85147" lon="2.37489">
        <ele>98.7</ele>
        <time>2015-05-05T18:50:20.138Z</time>
      </trkpt>
      <trkpt lat="48.85149" lon="2.37481">
        <ele>98.6</ele>
        <time>2015-05-05T18:50:21.124Z</time>
      </trkpt>
      <trkpt lat="48.85152" lon="2.37473">
        <ele>98.6</ele>
        <time>2015-05-05T18:50:22.159Z</time>
      </trkpt>
      <trkpt lat="48.85157" lon="2.37466">
        <ele>98.6</ele>
        <time>2015-05-05T18:50:23.165Z</time>
      </trkpt>
      <trkpt lat="48.85159" lon="2.37459">
        <ele>98.7</ele>
        <time>2015-05-05T18:50:24.199Z</time>
      </trkpt>
      <trkpt lat="48.85162" lon="2.3745">
        <ele>98.6</ele>
        <time>2015-05-05T18:50:25.123Z</time>
      </trkpt>
      <trkpt lat="48.85165" lon="2.37443">
        <ele>98.6</ele>
        <time>2015-05-05T18:50:26.101Z</time>
      </trkpt>
      <trkpt lat="48.85168" lon="2.37435">
        <ele>98.7</ele>
        <time>2015-05-05T18:50:27.115Z</time>
      </trkpt>
      <trkpt lat="48.85171" lon="2.37428">
        <ele>98.7</ele>
        <time>2015-05-05T18:50:28.139Z</time>
      </trkpt>
      <trkpt lat="48.85173" lon="2.37421">
        <ele>98.7</ele>
        <time>2015-05-05T18:50:29.173Z</time>
      </trkpt>
      <trkpt lat="48.85175" lon="2.37414">
        <ele>98.6</ele>
        <time>2015-05-05T18:50:30.113Z</time>
      </trkpt>
      <trkpt lat="48.85178" lon="2.37407">
        <ele>98.7</ele>
        <time>2015-05-05T18:50:31.114Z</time>
      </trkpt>
      <trkpt lat="48.8518" lon="2.37402">
        <ele>98.7</ele>
        <time>2015-05-05T18:50:32.117Z</time>
      </trkpt>
      <trkpt lat="48.85183" lon="2.37396">
        <ele>98.9</ele>
        <time>2015-05-05T18:50:33.124Z</time>
      </trkpt>
      <trkpt lat="48.85189" lon="2.37387">
        <ele>99.1</ele>
        <time>2015-05-05T18:50:35.162Z</time>
      </trkpt>
      <trkpt lat="48.85191" lon="2.37384">
        <ele>99.3</ele>
        <time>2015-05-05T18:50:36.174Z</time>
      </trkpt>
      <trkpt lat="48.85197" lon="2.37383">
        <ele>99.3</ele>
        <time>2015-05-05T18:50:40.233Z</time>
      </trkpt>
      <trkpt lat="48.85197" lon="2.37383">
        <ele>99.4</ele>
        <time>2015-05-05T18:50:41.113Z</time>
      </trkpt>
      <trkpt lat="48.85198" lon="2.37383">
        <ele>99.5</ele>
        <time>2015-05-05T18:50:42.133Z</time>
      </trkpt>
      <trkpt lat="48.85199" lon="2.37382">
        <ele>100.5</ele>
        <time>2015-05-05T18:50:45.175Z</time>
      </trkpt>
      <trkpt lat="48.85199" lon="2.37382">
        <ele>101</ele>
        <time>2015-05-05T18:50:46.218Z</time>
      </trkpt>
      <trkpt lat="48.85198" lon="2.37381">
        <ele>101.2</ele>
        <time>2015-05-05T18:50:56.145Z</time>
      </trkpt>
      <trkpt lat="48.852" lon="2.37381">
        <ele>101</ele>
        <time>2015-05-05T18:50:57.148Z</time>
      </trkpt>
      <trkpt lat="48.85205" lon="2.3737">
        <ele>101.2</ele>
        <time>2015-05-05T18:51:02.125Z</time>
      </trkpt>
      <trkpt lat="48.85206" lon="2.37364">
        <ele>101.3</ele>
        <time>2015-05-05T18:51:03.153Z</time>
      </trkpt>
      <trkpt lat="48.85208" lon="2.37353">
        <ele>101</ele>
        <time>2015-05-05T18:51:05.113Z</time>
      </trkpt>
      <trkpt lat="48.85211" lon="2.37348">
        <ele>100.8</ele>
        <time>2015-05-05T18:51:06.131Z</time>
      </trkpt>
      <trkpt lat="48.85213" lon="2.37338">
        <ele>100</ele>
        <time>2015-05-05T18:51:08.167Z</time>
      </trkpt>
      <trkpt lat="48.85214" lon="2.37332">
        <ele>99.5</ele>
        <time>2015-05-05T18:51:09.368Z</time>
      </trkpt>
      <trkpt lat="48.85216" lon="2.37326">
        <ele>99.5</ele>
        <time>2015-05-05T18:51:10.198Z</time>
      </trkpt>
      <trkpt lat="48.85218" lon="2.37319">
        <ele>99.5</ele>
        <time>2015-05-05T18:51:11.118Z</time>
      </trkpt>
      <trkpt lat="48.85221" lon="2.37313">
        <ele>99.4</ele>
        <time>2015-05-05T18:51:12.128Z</time>
      </trkpt>
      <trkpt lat="48.85222" lon="2.37305">
        <ele>99.5</ele>
        <time>2015-05-05T18:51:13.144Z</time>
      </trkpt>
      <trkpt lat="48.85224" lon="2.37299">
        <ele>99.6</ele>
        <time>2015-05-05T18:51:14.112Z</time>
      </trkpt>
      <trkpt lat="48.85227" lon="2.37291">
        <ele>99.5</ele>
        <time>2015-05-05T18:51:15.098Z</time>
      </trkpt>
      <trkpt lat="48.85228" lon="2.37284">
        <ele>99.5</ele>
        <time>2015-05-05T18:51:16.124Z</time>
      </trkpt>
      <trkpt lat="48.8523" lon="2.37279">
        <ele>99.3</ele>
        <time>2015-05-05T18:51:17.134Z</time>
      </trkpt>
      <trkpt lat="48.85232" lon="2.37273">
        <ele>99.2</ele>
        <time>2015-05-05T18:51:18.156Z</time>
      </trkpt>
      <trkpt lat="48.85232" lon="2.37265">
        <ele>99.5</ele>
        <time>2015-05-05T18:51:19.196Z</time>
      </trkpt>
      <trkpt lat="48.85233" lon="2.37257">
        <ele>99.7</ele>
        <time>2015-05-05T18:51:20.088Z</time>
      </trkpt>
      <trkpt lat="48.85234" lon="2.3725">
        <ele>100</ele>
        <time>2015-05-05T18:51:21.090Z</time>
      </trkpt>
      <trkpt lat="48.85234" lon="2.37243">
        <ele>100.1</ele>
        <time>2015-05-05T18:51:22.137Z</time>
      </trkpt>
      <trkpt lat="48.85235" lon="2.37236">
        <ele>100.4</ele>
        <time>2015-05-05T18:51:23.146Z</time>
      </trkpt>
      <trkpt lat="48.85236" lon="2.37229">
        <ele>100.7</ele>
        <time>2015-05-05T18:51:24.166Z</time>
      </trkpt>
      <trkpt lat="48.85237" lon="2.37221">
        <ele>101</ele>
        <time>2015-05-05T18:51:25.180Z</time>
      </trkpt>
      <trkpt lat="48.85238" lon="2.37214">
        <ele>101</ele>
        <time>2015-05-05T18:51:26.101Z</time>
      </trkpt>
      <trkpt lat="48.8524" lon="2.37208">
        <ele>100.9</ele>
        <time>2015-05-05T18:51:27.102Z</time>
      </trkpt>
      <trkpt lat="48.85241" lon="2.37202">
        <ele>100.7</ele>
        <time>2015-05-05T18:51:28.175Z</time>
      </trkpt>
      <trkpt lat="48.85243" lon="2.37195">
        <ele>100.7</ele>
        <time>2015-05-05T18:51:29.096Z</time>
      </trkpt>
      <trkpt lat="48.85245" lon="2.37188">
        <ele>100.7</ele>
        <time>2015-05-05T18:51:30.100Z</time>
      </trkpt>
      <trkpt lat="48.85248" lon="2.37181">
        <ele>100.7</ele>
        <time>2015-05-05T18:51:31.117Z</time>
      </trkpt>
      <trkpt lat="48.85251" lon="2.37174">
        <ele>100.7</ele>
        <time>2015-05-05T18:51:32.128Z</time>
      </trkpt>
      <trkpt lat="48.85254" lon="2.37167">
        <ele>100.6</ele>
        <time>2015-05-05T18:51:33.183Z</time>
      </trkpt>
      <trkpt lat="48.85256" lon="2.37161">
        <ele>100.8</ele>
        <time>2015-05-05T18:51:34.212Z</time>
      </trkpt>
      <trkpt lat="48.85259" lon="2.37154">
        <ele>100.9</ele>
        <time>2015-05-05T18:51:35.110Z</time>
      </trkpt>
      <trkpt lat="48.85262" lon="2.37146">
        <ele>100.9</ele>
        <time>2015-05-05T18:51:36.105Z</time>
      </trkpt>
      <trkpt lat="48.85264" lon="2.37138">
        <ele>100.9</ele>
        <time>2015-05-05T18:51:37.121Z</time>
      </trkpt>
      <trkpt lat="48.85268" lon="2.3713">
        <ele>100.9</ele>
        <time>2015-05-05T18:51:38.131Z</time>
      </trkpt>
      <trkpt lat="48.85272" lon="2.37122">
        <ele>101</ele>
        <time>2015-05-05T18:51:39.144Z</time>
      </trkpt>
      <trkpt lat="48.85276" lon="2.37115">
        <ele>101.1</ele>
        <time>2015-05-05T18:51:40.152Z</time>
      </trkpt>
      <trkpt lat="48.8528" lon="2.37108">
        <ele>101.2</ele>
        <time>2015-05-05T18:51:41.159Z</time>
      </trkpt>
      <trkpt lat="48.85284" lon="2.37101">
        <ele>101.1</ele>
        <time>2015-05-05T18:51:42.176Z</time>
      </trkpt>
      <trkpt lat="48.85288" lon="2.37096">
        <ele>101.2</ele>
        <time>2015-05-05T18:51:43.095Z</time>
      </trkpt>
      <trkpt lat="48.85294" lon="2.37092">
        <ele>101.2</ele>
        <time>2015-05-05T18:51:44.115Z</time>
      </trkpt>
      <trkpt lat="48.85299" lon="2.37089">
        <ele>101.2</ele>
        <time>2015-05-05T18:51:45.126Z</time>
      </trkpt>
      <trkpt lat="48.85304" lon="2.37086">
        <ele>101.4</ele>
        <time>2015-05-05T18:51:46.138Z</time>
      </trkpt>
      <trkpt lat="48.85308" lon="2.37081">
        <ele>101.3</ele>
        <time>2015-05-05T18:51:47.144Z</time>
      </trkpt>
      <trkpt lat="48.85313" lon="2.37077">
        <ele>101.2</ele>
        <time>2015-05-05T18:51:48.157Z</time>
      </trkpt>
      <trkpt lat="48.85316" lon="2.37072">
        <ele>100.9</ele>
        <time>2015-05-05T18:51:49.163Z</time>
      </trkpt>
      <trkpt lat="48.85318" lon="2.37059">
        <ele>98.6</ele>
        <time>2015-05-05T18:51:51.105Z</time>
      </trkpt>
      <trkpt lat="48.8532" lon="2.37053">
        <ele>98.1</ele>
        <time>2015-05-05T18:51:52.145Z</time>
      </trkpt>
      <trkpt lat="48.85324" lon="2.37044">
        <ele>97.3</ele>
        <time>2015-05-05T18:51:54.100Z</time>
      </trkpt>
      <trkpt lat="48.85326" lon="2.3704">
        <ele>97.3</ele>
        <time>2015-05-05T18:51:55.146Z</time>
      </trkpt>
      <trkpt lat="48.85332" lon="2.37038">
        <ele>95.2</ele>
        <time>2015-05-05T18:51:57.240Z</time>
      </trkpt>
      <trkpt lat="48.85337" lon="2.37043">
        <ele>93.1</ele>
        <time>2015-05-05T18:51:58.297Z</time>
      </trkpt>
      <trkpt lat="48.85342" lon="2.37049">
        <ele>92.1</ele>
        <time>2015-05-05T18:51:59.127Z</time>
      </trkpt>
      <trkpt lat="48.85345" lon="2.37054">
        <ele>91.6</ele>
        <time>2015-05-05T18:52:00.139Z</time>
      </trkpt>
      <trkpt lat="48.85351" lon="2.37062">
        <ele>91.5</ele>
        <time>2015-05-05T18:52:02.178Z</time>
      </trkpt>
      <trkpt lat="48.85355" lon="2.37065">
        <ele>91.5</ele>
        <time>2015-05-05T18:52:03.215Z</time>
      </trkpt>
      <trkpt lat="48.85359" lon="2.37069">
        <ele>91.4</ele>
        <time>2015-05-05T18:52:04.227Z</time>
      </trkpt>
      <trkpt lat="48.85363" lon="2.37073">
        <ele>91.4</ele>
        <time>2015-05-05T18:52:05.111Z</time>
      </trkpt>
      <trkpt lat="48.85368" lon="2.37077">
        <ele>91.4</ele>
        <time>2015-05-05T18:52:06.115Z</time>
      </trkpt>
      <trkpt lat="48.85372" lon="2.37082">
        <ele>91.3</ele>
        <time>2015-05-05T18:52:07.115Z</time>
      </trkpt>
      <trkpt lat="48.85376" lon="2.37086">
        <ele>91.3</ele>
        <time>2015-05-05T18:52:08.122Z</time>
      </trkpt>
      <trkpt lat="48.85381" lon="2.3709">
        <ele>91.4</ele>
        <time>2015-05-05T18:52:09.121Z</time>
      </trkpt>
      <trkpt lat="48.85386" lon="2.37094">
        <ele>91.4</ele>
        <time>2015-05-05T18:52:10.160Z</time>
      </trkpt>
      <trkpt lat="48.85391" lon="2.37097">
        <ele>91.4</ele>
        <time>2015-05-05T18:52:11.173Z</time>
      </trkpt>
      <trkpt lat="48.85398" lon="2.37104">
        <ele>91.5</ele>
        <time>2015-05-05T18:52:13.111Z</time>
      </trkpt>
      <trkpt lat="48.85403" lon="2.37109">
        <ele>91.6</ele>
        <time>2015-05-05T18:52:14.135Z</time>
      </trkpt>
      <trkpt lat="48.85408" lon="2.37113">
        <ele>91.5</ele>
        <time>2015-05-05T18:52:15.206Z</time>
      </trkpt>
      <trkpt lat="48.85413" lon="2.37117">
        <ele>91.4</ele>
        <time>2015-05-05T18:52:16.199Z</time>
      </trkpt>
      <trkpt lat="48.85418" lon="2.37122">
        <ele>91.3</ele>
        <time>2015-05-05T18:52:17.121Z</time>
      </trkpt>
      <trkpt lat="48.85423" lon="2.37127">
        <ele>91.3</ele>
        <time>2015-05-05T18:52:18.123Z</time>
      </trkpt>
      <trkpt lat="48.85428" lon="2.37133">
        <ele>91.4</ele>
        <time>2015-05-05T18:52:19.130Z</time>
      </trkpt>
      <trkpt lat="48.85432" lon="2.3714">
        <ele>91.5</ele>
        <time>2015-05-05T18:52:20.136Z</time>
      </trkpt>
      <trkpt lat="48.85436" lon="2.37149">
        <ele>91.6</ele>
        <time>2015-05-05T18:52:21.149Z</time>
      </trkpt>
      <trkpt lat="48.85437" lon="2.37158">
        <ele>91.6</ele>
        <time>2015-05-05T18:52:22.154Z</time>
      </trkpt>
      <trkpt lat="48.8544" lon="2.37167">
        <ele>91.7</ele>
        <time>2015-05-05T18:52:23.165Z</time>
      </trkpt>
      <trkpt lat="48.85444" lon="2.37176">
        <ele>91.7</ele>
        <time>2015-05-05T18:52:24.171Z</time>
      </trkpt>
      <trkpt lat="48.85447" lon="2.37185">
        <ele>91.7</ele>
        <time>2015-05-05T18:52:25.192Z</time>
      </trkpt>
      <trkpt lat="48.85449" lon="2.37194">
        <ele>91.7</ele>
        <time>2015-05-05T18:52:26.108Z</time>
      </trkpt>
      <trkpt lat="48.85451" lon="2.37204">
        <ele>91.7</ele>
        <time>2015-05-05T18:52:27.107Z</time>
      </trkpt>
      <trkpt lat="48.85452" lon="2.37214">
        <ele>91.5</ele>
        <time>2015-05-05T18:52:28.148Z</time>
      </trkpt>
      <trkpt lat="48.85456" lon="2.37224">
        <ele>91.5</ele>
        <time>2015-05-05T18:52:29.154Z</time>
      </trkpt>
      <trkpt lat="48.85458" lon="2.37233">
        <ele>91.4</ele>
        <time>2015-05-05T18:52:30.166Z</time>
      </trkpt>
      <trkpt lat="48.8546" lon="2.37244">
        <ele>91.4</ele>
        <time>2015-05-05T18:52:31.178Z</time>
      </trkpt>
      <trkpt lat="48.85462" lon="2.37254">
        <ele>91.3</ele>
        <time>2015-05-05T18:52:32.183Z</time>
      </trkpt>
      <trkpt lat="48.85469" lon="2.37264">
        <ele>91.7</ele>
        <time>2015-05-05T18:52:33.207Z</time>
      </trkpt>
      <trkpt lat="48.85477" lon="2.37273">
        <ele>92.3</ele>
        <time>2015-05-05T18:52:34.219Z</time>
      </trkpt>
      <trkpt lat="48.85479" lon="2.37282">
        <ele>92.4</ele>
        <time>2015-05-05T18:52:35.093Z</time>
      </trkpt>
      <trkpt lat="48.85481" lon="2.3729">
        <ele>92.5</ele>
        <time>2015-05-05T18:52:36.109Z</time>
      </trkpt>
      <trkpt lat="48.85483" lon="2.37299">
        <ele>92.5</ele>
        <time>2015-05-05T18:52:37.123Z</time>
      </trkpt>
      <trkpt lat="48.85487" lon="2.37307">
        <ele>92.5</ele>
        <time>2015-05-05T18:52:38.141Z</time>
      </trkpt>
      <trkpt lat="48.85491" lon="2.37315">
        <ele>92.6</ele>
        <time>2015-05-05T18:52:39.150Z</time>
      </trkpt>
      <trkpt lat="48.85494" lon="2.37323">
        <ele>92.5</ele>
        <time>2015-05-05T18:52:40.163Z</time>
      </trkpt>
      <trkpt lat="48.85497" lon="2.37331">
        <ele>92.5</ele>
        <time>2015-05-05T18:52:41.178Z</time>
      </trkpt>
      <trkpt lat="48.85499" lon="2.37337">
        <ele>92.6</ele>
        <time>2015-05-05T18:52:42.093Z</time>
      </trkpt>
      <trkpt lat="48.85501" lon="2.37345">
        <ele>92.6</ele>
        <time>2015-05-05T18:52:43.103Z</time>
      </trkpt>
      <trkpt lat="48.85507" lon="2.37353">
        <ele>93.6</ele>
        <time>2015-05-05T18:52:44.133Z</time>
      </trkpt>
      <trkpt lat="48.85511" lon="2.3736">
        <ele>93.9</ele>
        <time>2015-05-05T18:52:45.137Z</time>
      </trkpt>
      <trkpt lat="48.85513" lon="2.37368">
        <ele>94</ele>
        <time>2015-05-05T18:52:46.148Z</time>
      </trkpt>
      <trkpt lat="48.85516" lon="2.3738">
        <ele>94</ele>
        <time>2015-05-05T18:52:48.155Z</time>
      </trkpt>
      <trkpt lat="48.85518" lon="2.37386">
        <ele>93.9</ele>
        <time>2015-05-05T18:52:49.165Z</time>
      </trkpt>
      <trkpt lat="48.85519" lon="2.37393">
        <ele>93.8</ele>
        <time>2015-05-05T18:52:50.191Z</time>
      </trkpt>
      <trkpt lat="48.8552" lon="2.37402">
        <ele>93.8</ele>
        <time>2015-05-05T18:52:51.097Z</time>
      </trkpt>
      <trkpt lat="48.85521" lon="2.37413">
        <ele>93.7</ele>
        <time>2015-05-05T18:52:52.130Z</time>
      </trkpt>
      <trkpt lat="48.85522" lon="2.37421">
        <ele>93.6</ele>
        <time>2015-05-05T18:52:53.131Z</time>
      </trkpt>
      <trkpt lat="48.85523" lon="2.3743">
        <ele>93.5</ele>
        <time>2015-05-05T18:52:54.142Z</time>
      </trkpt>
      <trkpt lat="48.85524" lon="2.37438">
        <ele>93.4</ele>
        <time>2015-05-05T18:52:55.155Z</time>
      </trkpt>
      <trkpt lat="48.85527" lon="2.37445">
        <ele>93.1</ele>
        <time>2015-05-05T18:52:56.165Z</time>
      </trkpt>
      <trkpt lat="48.85531" lon="2.37451">
        <ele>93</ele>
        <time>2015-05-05T18:52:57.169Z</time>
      </trkpt>
      <trkpt lat="48.85537" lon="2.37459">
        <ele>93.6</ele>
        <time>2015-05-05T18:52:58.181Z</time>
      </trkpt>
      <trkpt lat="48.85542" lon="2.37466">
        <ele>94.3</ele>
        <time>2015-05-05T18:52:59.186Z</time>
      </trkpt>
      <trkpt lat="48.85547" lon="2.37473">
        <ele>94.9</ele>
        <time>2015-05-05T18:53:00.203Z</time>
      </trkpt>
      <trkpt lat="48.8555" lon="2.37479">
        <ele>95.4</ele>
        <time>2015-05-05T18:53:01.122Z</time>
      </trkpt>
      <trkpt lat="48.85553" lon="2.37485">
        <ele>95.5</ele>
        <time>2015-05-05T18:53:02.121Z</time>
      </trkpt>
      <trkpt lat="48.85555" lon="2.37491">
        <ele>95.6</ele>
        <time>2015-05-05T18:53:03.123Z</time>
      </trkpt>
      <trkpt lat="48.85558" lon="2.37498">
        <ele>95.9</ele>
        <time>2015-05-05T18:53:04.158Z</time>
      </trkpt>
      <trkpt lat="48.85561" lon="2.37504">
        <ele>95.9</ele>
        <time>2015-05-05T18:53:05.166Z</time>
      </trkpt>
      <trkpt lat="48.85563" lon="2.3751">
        <ele>96</ele>
        <time>2015-05-05T18:53:06.173Z</time>
      </trkpt>
      <trkpt lat="48.85565" lon="2.37516">
        <ele>96.1</ele>
        <time>2015-05-05T18:53:07.189Z</time>
      </trkpt>
      <trkpt lat="48.85567" lon="2.37523">
        <ele>96.2</ele>
        <time>2015-05-05T18:53:08.126Z</time>
      </trkpt>
      <trkpt lat="48.85569" lon="2.37529">
        <ele>96.5</ele>
        <time>2015-05-05T18:53:09.114Z</time>
      </trkpt>
      <trkpt lat="48.85574" lon="2.37539">
        <ele>96.5</ele>
        <time>2015-05-05T18:53:11.167Z</time>
      </trkpt>
      <trkpt lat="48.85576" lon="2.37544">
        <ele>96.4</ele>
        <time>2015-05-05T18:53:12.182Z</time>
      </trkpt>
      <trkpt lat="48.85579" lon="2.37549">
        <ele>96.5</ele>
        <time>2015-05-05T18:53:13.121Z</time>
      </trkpt>
      <trkpt lat="48.85583" lon="2.37555">
        <ele>96.7</ele>
        <time>2015-05-05T18:53:14.111Z</time>
      </trkpt>
      <trkpt lat="48.85585" lon="2.37561">
        <ele>97</ele>
        <time>2015-05-05T18:53:15.127Z</time>
      </trkpt>
      <trkpt lat="48.85588" lon="2.37567">
        <ele>97</ele>
        <time>2015-05-05T18:53:16.158Z</time>
      </trkpt>
      <trkpt lat="48.8559" lon="2.37576">
        <ele>97</ele>
        <time>2015-05-05T18:53:17.160Z</time>
      </trkpt>
      <trkpt lat="48.85593" lon="2.37584">
        <ele>97</ele>
        <time>2015-05-05T18:53:18.163Z</time>
      </trkpt>
      <trkpt lat="48.85595" lon="2.37591">
        <ele>96.9</ele>
        <time>2015-05-05T18:53:19.174Z</time>
      </trkpt>
      <trkpt lat="48.85598" lon="2.37598">
        <ele>97</ele>
        <time>2015-05-05T18:53:20.190Z</time>
      </trkpt>
      <trkpt lat="48.856" lon="2.37606">
        <ele>96.9</ele>
        <time>2015-05-05T18:53:21.114Z</time>
      </trkpt>
      <trkpt lat="48.85601" lon="2.37613">
        <ele>96.8</ele>
        <time>2015-05-05T18:53:22.152Z</time>
      </trkpt>
      <trkpt lat="48.85605" lon="2.3762">
        <ele>96.7</ele>
        <time>2015-05-05T18:53:23.197Z</time>
      </trkpt>
      <trkpt lat="48.85606" lon="2.37627">
        <ele>96.7</ele>
        <time>2015-05-05T18:53:24.208Z</time>
      </trkpt>
      <trkpt lat="48.85608" lon="2.37635">
        <ele>96.8</ele>
        <time>2015-05-05T18:53:25.110Z</time>
      </trkpt>
      <trkpt lat="48.8561" lon="2.37643">
        <ele>96.7</ele>
        <time>2015-05-05T18:53:26.112Z</time>
      </trkpt>
      <trkpt lat="48.85612" lon="2.3765">
        <ele>96.8</ele>
        <time>2015-05-05T18:53:27.126Z</time>
      </trkpt>
      <trkpt lat="48.85613" lon="2.37658">
        <ele>96.9</ele>
        <time>2015-05-05T18:53:28.157Z</time>
      </trkpt>
      <trkpt lat="48.85615" lon="2.37666">
        <ele>96.8</ele>
        <time>2015-05-05T18:53:29.175Z</time>
      </trkpt>
      <trkpt lat="48.85617" lon="2.37673">
        <ele>96.8</ele>
        <time>2015-05-05T18:53:30.185Z</time>
      </trkpt>
      <trkpt lat="48.85621" lon="2.3768">
        <ele>97.2</ele>
        <time>2015-05-05T18:53:31.193Z</time>
      </trkpt>
      <trkpt lat="48.85627" lon="2.37687">
        <ele>97.5</ele>
        <time>2015-05-05T18:53:32.122Z</time>
      </trkpt>
      <trkpt lat="48.85633" lon="2.37694">
        <ele>97.4</ele>
        <time>2015-05-05T18:53:33.118Z</time>
      </trkpt>
      <trkpt lat="48.85637" lon="2.37701">
        <ele>97.6</ele>
        <time>2015-05-05T18:53:34.153Z</time>
      </trkpt>
      <trkpt lat="48.85639" lon="2.37707">
        <ele>97.3</ele>
        <time>2015-05-05T18:53:35.170Z</time>
      </trkpt>
      <trkpt lat="48.85641" lon="2.37713">
        <ele>97</ele>
        <time>2015-05-05T18:53:36.180Z</time>
      </trkpt>
      <trkpt lat="48.85643" lon="2.3772">
        <ele>96.6</ele>
        <time>2015-05-05T18:53:37.193Z</time>
      </trkpt>
      <trkpt lat="48.85644" lon="2.37726">
        <ele>96.5</ele>
        <time>2015-05-05T18:53:38.096Z</time>
      </trkpt>
      <trkpt lat="48.85646" lon="2.37733">
        <ele>96.4</ele>
        <time>2015-05-05T18:53:39.121Z</time>
      </trkpt>
      <trkpt lat="48.85647" lon="2.3774">
        <ele>96.1</ele>
        <time>2015-05-05T18:53:40.156Z</time>
      </trkpt>
      <trkpt lat="48.85649" lon="2.37746">
        <ele>96.1</ele>
        <time>2015-05-05T18:53:41.165Z</time>
      </trkpt>
      <trkpt lat="48.85651" lon="2.37753">
        <ele>96</ele>
        <time>2015-05-05T18:53:42.168Z</time>
      </trkpt>
      <trkpt lat="48.85653" lon="2.37759">
        <ele>95.8</ele>
        <time>2015-05-05T18:53:43.088Z</time>
      </trkpt>
      <trkpt lat="48.85655" lon="2.37766">
        <ele>95.8</ele>
        <time>2015-05-05T18:53:44.202Z</time>
      </trkpt>
      <trkpt lat="48.85659" lon="2.37771">
        <ele>95.8</ele>
        <time>2015-05-05T18:53:45.153Z</time>
      </trkpt>
      <trkpt lat="48.85662" lon="2.37776">
        <ele>95.8</ele>
        <time>2015-05-05T18:53:46.230Z</time>
      </trkpt>
      <trkpt lat="48.85666" lon="2.37781">
        <ele>95.8</ele>
        <time>2015-05-05T18:53:47.126Z</time>
      </trkpt>
      <trkpt lat="48.85669" lon="2.37787">
        <ele>95.8</ele>
        <time>2015-05-05T18:53:48.143Z</time>
      </trkpt>
      <trkpt lat="48.85672" lon="2.37795">
        <ele>95.8</ele>
        <time>2015-05-05T18:53:49.171Z</time>
      </trkpt>
      <trkpt lat="48.85677" lon="2.37803">
        <ele>96.1</ele>
        <time>2015-05-05T18:53:50.178Z</time>
      </trkpt>
      <trkpt lat="48.85678" lon="2.37811">
        <ele>96.2</ele>
        <time>2015-05-05T18:53:51.180Z</time>
      </trkpt>
      <trkpt lat="48.8568" lon="2.3782">
        <ele>96.3</ele>
        <time>2015-05-05T18:53:52.183Z</time>
      </trkpt>
      <trkpt lat="48.85681" lon="2.37829">
        <ele>96.4</ele>
        <time>2015-05-05T18:53:53.108Z</time>
      </trkpt>
      <trkpt lat="48.85684" lon="2.37837">
        <ele>96.5</ele>
        <time>2015-05-05T18:53:54.108Z</time>
      </trkpt>
      <trkpt lat="48.85687" lon="2.37844">
        <ele>96.5</ele>
        <time>2015-05-05T18:53:55.164Z</time>
      </trkpt>
      <trkpt lat="48.8569" lon="2.37852">
        <ele>96.5</ele>
        <time>2015-05-05T18:53:56.173Z</time>
      </trkpt>
      <trkpt lat="48.85693" lon="2.37859">
        <ele>96.4</ele>
        <time>2015-05-05T18:53:57.108Z</time>
      </trkpt>
      <trkpt lat="48.85696" lon="2.37866">
        <ele>96.3</ele>
        <time>2015-05-05T18:53:58.139Z</time>
      </trkpt>
      <trkpt lat="48.85699" lon="2.37874">
        <ele>96.4</ele>
        <time>2015-05-05T18:53:59.096Z</time>
      </trkpt>
      <trkpt lat="48.85702" lon="2.37882">
        <ele>96.5</ele>
        <time>2015-05-05T18:54:00.160Z</time>
      </trkpt>
      <trkpt lat="48.85705" lon="2.37889">
        <ele>96.5</ele>
        <time>2015-05-05T18:54:01.178Z</time>
      </trkpt>
      <trkpt lat="48.85708" lon="2.37895">
        <ele>96.6</ele>
        <time>2015-05-05T18:54:02.185Z</time>
      </trkpt>
      <trkpt lat="48.85713" lon="2.37905">
        <ele>96.8</ele>
        <time>2015-05-05T18:54:04.143Z</time>
      </trkpt>
      <trkpt lat="48.85715" lon="2.3791">
        <ele>96.9</ele>
        <time>2015-05-05T18:54:05.148Z</time>
      </trkpt>
      <trkpt lat="48.85719" lon="2.37915">
        <ele>96.6</ele>
        <time>2015-05-05T18:54:06.102Z</time>
      </trkpt>
      <trkpt lat="48.85721" lon="2.37921">
        <ele>97</ele>
        <time>2015-05-05T18:54:07.109Z</time>
      </trkpt>
      <trkpt lat="48.85724" lon="2.37928">
        <ele>97.4</ele>
        <time>2015-05-05T18:54:08.126Z</time>
      </trkpt>
      <trkpt lat="48.85729" lon="2.37933">
        <ele>96.8</ele>
        <time>2015-05-05T18:54:09.147Z</time>
      </trkpt>
      <trkpt lat="48.85733" lon="2.37937">
        <ele>96.1</ele>
        <time>2015-05-05T18:54:10.152Z</time>
      </trkpt>
      <trkpt lat="48.85737" lon="2.37941">
        <ele>95.8</ele>
        <time>2015-05-05T18:54:11.160Z</time>
      </trkpt>
      <trkpt lat="48.8574" lon="2.37951">
        <ele>96.1</ele>
        <time>2015-05-05T18:54:13.190Z</time>
      </trkpt>
      <trkpt lat="48.85742" lon="2.37956">
        <ele>96.2</ele>
        <time>2015-05-05T18:54:14.194Z</time>
      </trkpt>
      <trkpt lat="48.85746" lon="2.37966">
        <ele>95.9</ele>
        <time>2015-05-05T18:54:16.178Z</time>
      </trkpt>
      <trkpt lat="48.85748" lon="2.37971">
        <ele>95.9</ele>
        <time>2015-05-05T18:54:17.194Z</time>
      </trkpt>
      <trkpt lat="48.85753" lon="2.37982">
        <ele>96.4</ele>
        <time>2015-05-05T18:54:19.119Z</time>
      </trkpt>
      <trkpt lat="48.85755" lon="2.37987">
        <ele>96.5</ele>
        <time>2015-05-05T18:54:20.146Z</time>
      </trkpt>
      <trkpt lat="48.85758" lon="2.37997">
        <ele>96.6</ele>
        <time>2015-05-05T18:54:22.209Z</time>
      </trkpt>
      <trkpt lat="48.8576" lon="2.38004">
        <ele>96.5</ele>
        <time>2015-05-05T18:54:23.141Z</time>
      </trkpt>
      <trkpt lat="48.85761" lon="2.3801">
        <ele>96.5</ele>
        <time>2015-05-05T18:54:24.123Z</time>
      </trkpt>
      <trkpt lat="48.85762" lon="2.38017">
        <ele>96.6</ele>
        <time>2015-05-05T18:54:25.127Z</time>
      </trkpt>
      <trkpt lat="48.85765" lon="2.38028">
        <ele>96.8</ele>
        <time>2015-05-05T18:54:27.156Z</time>
      </trkpt>
      <trkpt lat="48.85766" lon="2.38034">
        <ele>96.9</ele>
        <time>2015-05-05T18:54:28.196Z</time>
      </trkpt>
      <trkpt lat="48.85767" lon="2.38046">
        <ele>97.5</ele>
        <time>2015-05-05T18:54:30.150Z</time>
      </trkpt>
      <trkpt lat="48.85769" lon="2.38052">
        <ele>98.2</ele>
        <time>2015-05-05T18:54:31.172Z</time>
      </trkpt>
      <trkpt lat="48.85771" lon="2.38065">
        <ele>99</ele>
        <time>2015-05-05T18:54:33.207Z</time>
      </trkpt>
      <trkpt lat="48.85772" lon="2.38071">
        <ele>99.4</ele>
        <time>2015-05-05T18:54:34.223Z</time>
      </trkpt>
      <trkpt lat="48.85774" lon="2.38084">
        <ele>99.5</ele>
        <time>2015-05-05T18:54:36.143Z</time>
      </trkpt>
      <trkpt lat="48.85775" lon="2.38091">
        <ele>99.4</ele>
        <time>2015-05-05T18:54:37.157Z</time>
      </trkpt>
      <trkpt lat="48.85777" lon="2.38097">
        <ele>99.6</ele>
        <time>2015-05-05T18:54:38.303Z</time>
      </trkpt>
      <trkpt lat="48.85779" lon="2.38103">
        <ele>99.9</ele>
        <time>2015-05-05T18:54:39.212Z</time>
      </trkpt>
      <trkpt lat="48.85782" lon="2.38115">
        <ele>100.3</ele>
        <time>2015-05-05T18:54:39.794Z</time>
      </trkpt>
      <trkpt lat="48.85786" lon="2.38121">
        <ele>101</ele>
        <time>2015-05-05T18:54:42.181Z</time>
      </trkpt>
      <trkpt lat="48.8579" lon="2.38132">
        <ele>101.5</ele>
        <time>2015-05-05T18:54:44.897Z</time>
      </trkpt>
      <trkpt lat="48.85793" lon="2.38137">
        <ele>101.5</ele>
        <time>2015-05-05T18:54:45.133Z</time>
      </trkpt>
      <trkpt lat="48.85796" lon="2.38149">
        <ele>101.5</ele>
        <time>2015-05-05T18:54:47.180Z</time>
      </trkpt>
      <trkpt lat="48.85797" lon="2.38154">
        <ele>101.4</ele>
        <time>2015-05-05T18:54:48.100Z</time>
      </trkpt>
      <trkpt lat="48.85799" lon="2.3816">
        <ele>101.3</ele>
        <time>2015-05-05T18:54:49.109Z</time>
      </trkpt>
      <trkpt lat="48.85802" lon="2.38166">
        <ele>101.2</ele>
        <time>2015-05-05T18:54:50.119Z</time>
      </trkpt>
      <trkpt lat="48.85805" lon="2.38172">
        <ele>101.2</ele>
        <time>2015-05-05T18:54:51.131Z</time>
      </trkpt>
      <trkpt lat="48.85808" lon="2.38178">
        <ele>101.2</ele>
        <time>2015-05-05T18:54:52.155Z</time>
      </trkpt>
      <trkpt lat="48.85809" lon="2.38191">
        <ele>100.9</ele>
        <time>2015-05-05T18:54:55.022Z</time>
      </trkpt>
      <trkpt lat="48.85809" lon="2.38198">
        <ele>100.7</ele>
        <time>2015-05-05T18:54:55.090Z</time>
      </trkpt>
      <trkpt lat="48.8581" lon="2.38205">
        <ele>100.8</ele>
        <time>2015-05-05T18:54:56.128Z</time>
      </trkpt>
      <trkpt lat="48.8581" lon="2.38212">
        <ele>100.7</ele>
        <time>2015-05-05T18:54:57.137Z</time>
      </trkpt>
      <trkpt lat="48.8581" lon="2.38219">
        <ele>100.8</ele>
        <time>2015-05-05T18:54:58.175Z</time>
      </trkpt>
      <trkpt lat="48.8581" lon="2.38227">
        <ele>100.7</ele>
        <time>2015-05-05T18:54:59.187Z</time>
      </trkpt>
      <trkpt lat="48.85812" lon="2.38234">
        <ele>100.6</ele>
        <time>2015-05-05T18:55:00.352Z</time>
      </trkpt>
      <trkpt lat="48.85815" lon="2.3824">
        <ele>100.6</ele>
        <time>2015-05-05T18:55:01.122Z</time>
      </trkpt>
      <trkpt lat="48.85818" lon="2.38246">
        <ele>100.6</ele>
        <time>2015-05-05T18:55:02.138Z</time>
      </trkpt>
      <trkpt lat="48.8582" lon="2.38253">
        <ele>100.5</ele>
        <time>2015-05-05T18:55:03.150Z</time>
      </trkpt>
      <trkpt lat="48.85822" lon="2.38259">
        <ele>100.5</ele>
        <time>2015-05-05T18:55:04.157Z</time>
      </trkpt>
      <trkpt lat="48.85823" lon="2.38266">
        <ele>100.6</ele>
        <time>2015-05-05T18:55:05.163Z</time>
      </trkpt>
      <trkpt lat="48.85824" lon="2.38273">
        <ele>100.4</ele>
        <time>2015-05-05T18:55:06.187Z</time>
      </trkpt>
      <trkpt lat="48.85825" lon="2.3828">
        <ele>100.4</ele>
        <time>2015-05-05T18:55:07.104Z</time>
      </trkpt>
      <trkpt lat="48.85825" lon="2.38287">
        <ele>100.3</ele>
        <time>2015-05-05T18:55:08.116Z</time>
      </trkpt>
      <trkpt lat="48.85826" lon="2.38294">
        <ele>100.3</ele>
        <time>2015-05-05T18:55:09.136Z</time>
      </trkpt>
      <trkpt lat="48.85828" lon="2.38301">
        <ele>100.2</ele>
        <time>2015-05-05T18:55:10.273Z</time>
      </trkpt>
      <trkpt lat="48.85829" lon="2.38309">
        <ele>100.3</ele>
        <time>2015-05-05T18:55:11.170Z</time>
      </trkpt>
      <trkpt lat="48.85832" lon="2.38315">
        <ele>100.2</ele>
        <time>2015-05-05T18:55:12.172Z</time>
      </trkpt>
      <trkpt lat="48.85835" lon="2.38322">
        <ele>100.3</ele>
        <time>2015-05-05T18:55:13.186Z</time>
      </trkpt>
      <trkpt lat="48.85837" lon="2.3833">
        <ele>100.3</ele>
        <time>2015-05-05T18:55:14.106Z</time>
      </trkpt>
      <trkpt lat="48.85839" lon="2.38339">
        <ele>100.2</ele>
        <time>2015-05-05T18:55:15.092Z</time>
      </trkpt>
      <trkpt lat="48.85841" lon="2.38349">
        <ele>100.2</ele>
        <time>2015-05-05T18:55:16.137Z</time>
      </trkpt>
      <trkpt lat="48.85842" lon="2.38359">
        <ele>100.3</ele>
        <time>2015-05-05T18:55:17.146Z</time>
      </trkpt>
      <trkpt lat="48.85845" lon="2.38368">
        <ele>100.4</ele>
        <time>2015-05-05T18:55:18.158Z</time>
      </trkpt>
      <trkpt lat="48.85846" lon="2.38379">
        <ele>100.1</ele>
        <time>2015-05-05T18:55:19.164Z</time>
      </trkpt>
      <trkpt lat="48.8585" lon="2.38388">
        <ele>99.9</ele>
        <time>2015-05-05T18:55:20.173Z</time>
      </trkpt>
      <trkpt lat="48.85854" lon="2.38397">
        <ele>99.8</ele>
        <time>2015-05-05T18:55:21.180Z</time>
      </trkpt>
      <trkpt lat="48.85856" lon="2.38407">
        <ele>100.1</ele>
        <time>2015-05-05T18:55:22.225Z</time>
      </trkpt>
      <trkpt lat="48.85858" lon="2.38416">
        <ele>100.3</ele>
        <time>2015-05-05T18:55:23.110Z</time>
      </trkpt>
      <trkpt lat="48.8586" lon="2.38426">
        <ele>100.3</ele>
        <time>2015-05-05T18:55:24.134Z</time>
      </trkpt>
      <trkpt lat="48.85861" lon="2.38436">
        <ele>100.2</ele>
        <time>2015-05-05T18:55:25.166Z</time>
      </trkpt>
      <trkpt lat="48.85862" lon="2.38446">
        <ele>100.1</ele>
        <time>2015-05-05T18:55:26.118Z</time>
      </trkpt>
      <trkpt lat="48.85863" lon="2.38456">
        <ele>100</ele>
        <time>2015-05-05T18:55:27.110Z</time>
      </trkpt>
      <trkpt lat="48.85866" lon="2.38466">
        <ele>99.8</ele>
        <time>2015-05-05T18:55:28.150Z</time>
      </trkpt>
      <trkpt lat="48.85868" lon="2.38474">
        <ele>99.8</ele>
        <time>2015-05-05T18:55:29.148Z</time>
      </trkpt>
      <trkpt lat="48.85871" lon="2.38483">
        <ele>99.7</ele>
        <time>2015-05-05T18:55:30.166Z</time>
      </trkpt>
      <trkpt lat="48.85874" lon="2.38493">
        <ele>99.6</ele>
        <time>2015-05-05T18:55:31.173Z</time>
      </trkpt>
      <trkpt lat="48.85876" lon="2.38502">
        <ele>99.4</ele>
        <time>2015-05-05T18:55:32.181Z</time>
      </trkpt>
      <trkpt lat="48.85878" lon="2.3851">
        <ele>99.3</ele>
        <time>2015-05-05T18:55:33.192Z</time>
      </trkpt>
      <trkpt lat="48.8588" lon="2.3852">
        <ele>99.7</ele>
        <time>2015-05-05T18:55:34.204Z</time>
      </trkpt>
      <trkpt lat="48.85883" lon="2.38529">
        <ele>99.8</ele>
        <time>2015-05-05T18:55:35.110Z</time>
      </trkpt>
      <trkpt lat="48.85885" lon="2.38538">
        <ele>100.1</ele>
        <time>2015-05-05T18:55:36.123Z</time>
      </trkpt>
      <trkpt lat="48.85887" lon="2.38547">
        <ele>100.5</ele>
        <time>2015-05-05T18:55:37.195Z</time>
      </trkpt>
      <trkpt lat="48.85889" lon="2.38557">
        <ele>100.9</ele>
        <time>2015-05-05T18:55:38.147Z</time>
      </trkpt>
      <trkpt lat="48.85892" lon="2.38566">
        <ele>101.2</ele>
        <time>2015-05-05T18:55:39.151Z</time>
      </trkpt>
      <trkpt lat="48.85894" lon="2.38574">
        <ele>101.5</ele>
        <time>2015-05-05T18:55:40.162Z</time>
      </trkpt>
      <trkpt lat="48.85897" lon="2.38582">
        <ele>101.6</ele>
        <time>2015-05-05T18:55:41.171Z</time>
      </trkpt>
      <trkpt lat="48.85899" lon="2.3859">
        <ele>101.7</ele>
        <time>2015-05-05T18:55:42.183Z</time>
      </trkpt>
      <trkpt lat="48.85902" lon="2.38598">
        <ele>101.8</ele>
        <time>2015-05-05T18:55:43.148Z</time>
      </trkpt>
      <trkpt lat="48.85904" lon="2.38605">
        <ele>102.2</ele>
        <time>2015-05-05T18:55:44.101Z</time>
      </trkpt>
      <trkpt lat="48.85906" lon="2.38612">
        <ele>102.5</ele>
        <time>2015-05-05T18:55:45.107Z</time>
      </trkpt>
      <trkpt lat="48.85909" lon="2.38619">
        <ele>102.9</ele>
        <time>2015-05-05T18:55:46.137Z</time>
      </trkpt>
      <trkpt lat="48.85911" lon="2.38626">
        <ele>103.2</ele>
        <time>2015-05-05T18:55:47.149Z</time>
      </trkpt>
      <trkpt lat="48.85914" lon="2.38633">
        <ele>103.5</ele>
        <time>2015-05-05T18:55:48.153Z</time>
      </trkpt>
      <trkpt lat="48.85916" lon="2.3864">
        <ele>104</ele>
        <time>2015-05-05T18:55:49.166Z</time>
      </trkpt>
      <trkpt lat="48.85919" lon="2.38647">
        <ele>104.5</ele>
        <time>2015-05-05T18:55:50.093Z</time>
      </trkpt>
      <trkpt lat="48.85922" lon="2.38654">
        <ele>104.9</ele>
        <time>2015-05-05T18:55:51.098Z</time>
      </trkpt>
      <trkpt lat="48.85924" lon="2.3866">
        <ele>105.1</ele>
        <time>2015-05-05T18:55:52.133Z</time>
      </trkpt>
      <trkpt lat="48.85926" lon="2.38666">
        <ele>105.6</ele>
        <time>2015-05-05T18:55:53.135Z</time>
      </trkpt>
      <trkpt lat="48.8593" lon="2.38677">
        <ele>106.2</ele>
        <time>2015-05-05T18:55:55.154Z</time>
      </trkpt>
      <trkpt lat="48.85932" lon="2.38683">
        <ele>106.3</ele>
        <time>2015-05-05T18:55:56.077Z</time>
      </trkpt>
      <trkpt lat="48.85934" lon="2.38689">
        <ele>106.4</ele>
        <time>2015-05-05T18:55:57.095Z</time>
      </trkpt>
      <trkpt lat="48.85936" lon="2.38695">
        <ele>106.4</ele>
        <time>2015-05-05T18:55:58.157Z</time>
      </trkpt>
      <trkpt lat="48.85937" lon="2.38703">
        <ele>106.7</ele>
        <time>2015-05-05T18:55:59.170Z</time>
      </trkpt>
      <trkpt lat="48.85939" lon="2.3871">
        <ele>106.8</ele>
        <time>2015-05-05T18:56:00.190Z</time>
      </trkpt>
      <trkpt lat="48.85942" lon="2.38718">
        <ele>106.8</ele>
        <time>2015-05-05T18:56:01.139Z</time>
      </trkpt>
      <trkpt lat="48.85945" lon="2.38726">
        <ele>106.6</ele>
        <time>2015-05-05T18:56:02.089Z</time>
      </trkpt>
      <trkpt lat="48.85949" lon="2.38734">
        <ele>106.6</ele>
        <time>2015-05-05T18:56:03.100Z</time>
      </trkpt>
      <trkpt lat="48.85952" lon="2.38743">
        <ele>106.7</ele>
        <time>2015-05-05T18:56:04.133Z</time>
      </trkpt>
      <trkpt lat="48.85954" lon="2.38752">
        <ele>106.9</ele>
        <time>2015-05-05T18:56:05.143Z</time>
      </trkpt>
      <trkpt lat="48.85956" lon="2.3876">
        <ele>107</ele>
        <time>2015-05-05T18:56:06.166Z</time>
      </trkpt>
      <trkpt lat="48.85959" lon="2.38768">
        <ele>107</ele>
        <time>2015-05-05T18:56:07.095Z</time>
      </trkpt>
      <trkpt lat="48.85962" lon="2.38776">
        <ele>107.3</ele>
        <time>2015-05-05T18:56:08.111Z</time>
      </trkpt>
      <trkpt lat="48.85964" lon="2.38784">
        <ele>107.5</ele>
        <time>2015-05-05T18:56:09.100Z</time>
      </trkpt>
      <trkpt lat="48.85965" lon="2.38792">
        <ele>107.6</ele>
        <time>2015-05-05T18:56:10.128Z</time>
      </trkpt>
      <trkpt lat="48.85967" lon="2.388">
        <ele>107.5</ele>
        <time>2015-05-05T18:56:11.167Z</time>
      </trkpt>
      <trkpt lat="48.8597" lon="2.38808">
        <ele>107.3</ele>
        <time>2015-05-05T18:56:12.181Z</time>
      </trkpt>
      <trkpt lat="48.85972" lon="2.38816">
        <ele>107.1</ele>
        <time>2015-05-05T18:56:13.076Z</time>
      </trkpt>
      <trkpt lat="48.85972" lon="2.38823">
        <ele>107</ele>
        <time>2015-05-05T18:56:14.100Z</time>
      </trkpt>
      <trkpt lat="48.85972" lon="2.3883">
        <ele>106.6</ele>
        <time>2015-05-05T18:56:15.131Z</time>
      </trkpt>
      <trkpt lat="48.85971" lon="2.38837">
        <ele>106.5</ele>
        <time>2015-05-05T18:56:16.128Z</time>
      </trkpt>
      <trkpt lat="48.85972" lon="2.38849">
        <ele>106.8</ele>
        <time>2015-05-05T18:56:18.167Z</time>
      </trkpt>
      <trkpt lat="48.85974" lon="2.38854">
        <ele>106.8</ele>
        <time>2015-05-05T18:56:19.090Z</time>
      </trkpt>
      <trkpt lat="48.85977" lon="2.38862">
        <ele>106.9</ele>
        <time>2015-05-05T18:56:21.136Z</time>
      </trkpt>
      <trkpt lat="48.85978" lon="2.38866">
        <ele>106.9</ele>
        <time>2015-05-05T18:56:22.144Z</time>
      </trkpt>
      <trkpt lat="48.85985" lon="2.38871">
        <ele>106.4</ele>
        <time>2015-05-05T18:56:27.098Z</time>
      </trkpt>
      <trkpt lat="48.85986" lon="2.38871">
        <ele>106.4</ele>
        <time>2015-05-05T18:56:28.583Z</time>
      </trkpt>
      <trkpt lat="48.85986" lon="2.3887">
        <ele>106.4</ele>
        <time>2015-05-05T18:56:34.188Z</time>
      </trkpt>
      <trkpt lat="48.85987" lon="2.38872">
        <ele>106.8</ele>
        <time>2015-05-05T18:56:35.121Z</time>
      </trkpt>
      <trkpt lat="48.85988" lon="2.38873">
        <ele>107</ele>
        <time>2015-05-05T18:56:36.090Z</time>
      </trkpt>
      <trkpt lat="48.85988" lon="2.38873">
        <ele>107</ele>
        <time>2015-05-05T18:56:37.121Z</time>
      </trkpt>
      <trkpt lat="48.85988" lon="2.38874">
        <ele>106.9</ele>
        <time>2015-05-05T18:56:58.174Z</time>
      </trkpt>
      <trkpt lat="48.85986" lon="2.38876">
        <ele>105.4</ele>
        <time>2015-05-05T18:56:59.185Z</time>
      </trkpt>
      <trkpt lat="48.85986" lon="2.38876">
        <ele>105.4</ele>
        <time>2015-05-05T18:57:00.130Z</time>
      </trkpt>
      <trkpt lat="48.85986" lon="2.38875">
        <ele>105.4</ele>
        <time>2015-05-05T18:57:01.119Z</time>
      </trkpt>
      <trkpt lat="48.85986" lon="2.38875">
        <ele>105.5</ele>
        <time>2015-05-05T18:57:23.135Z</time>
      </trkpt>
      <trkpt lat="48.85988" lon="2.38875">
        <ele>106.1</ele>
        <time>2015-05-05T18:57:24.141Z</time>
      </trkpt>
      <trkpt lat="48.85989" lon="2.38875">
        <ele>106.1</ele>
        <time>2015-05-05T18:57:27.221Z</time>
      </trkpt>
      <trkpt lat="48.85988" lon="2.38874">
        <ele>105.8</ele>
        <time>2015-05-05T18:57:28.143Z</time>
      </trkpt>
      <trkpt lat="48.85987" lon="2.38873">
        <ele>105.3</ele>
        <time>2015-05-05T18:58:49.702Z</time>
      </trkpt>
      <trkpt lat="48.85981" lon="2.38872">
        <ele>105.5</ele>
        <time>2015-05-05T18:58:50.101Z</time>
      </trkpt>
      <trkpt lat="48.85975" lon="2.38876">
        <ele>104.7</ele>
        <time>2015-05-05T18:58:55.080Z</time>
      </trkpt>
      <trkpt lat="48.85974" lon="2.38881">
        <ele>104.5</ele>
        <time>2015-05-05T18:58:56.131Z</time>
      </trkpt>
      <trkpt lat="48.85976" lon="2.38894">
        <ele>104.5</ele>
        <time>2015-05-05T18:59:00.146Z</time>
      </trkpt>
      <trkpt lat="48.85977" lon="2.38894">
        <ele>104.7</ele>
        <time>2015-05-05T18:59:01.142Z</time>
      </trkpt>
      <trkpt lat="48.85984" lon="2.38891">
        <ele>104.9</ele>
        <time>2015-05-05T18:59:03.179Z</time>
      </trkpt>
      <trkpt lat="48.85989" lon="2.38887">
        <ele>105.1</ele>
        <time>2015-05-05T18:59:04.249Z</time>
      </trkpt>
      <trkpt lat="48.85996" lon="2.38885">
        <ele>105.5</ele>
        <time>2015-05-05T18:59:05.136Z</time>
      </trkpt>
      <trkpt lat="48.86" lon="2.38883">
        <ele>105.6</ele>
        <time>2015-05-05T18:59:06.250Z</time>
      </trkpt>
      <trkpt lat="48.86006" lon="2.38881">
        <ele>105.8</ele>
        <time>2015-05-05T18:59:07.135Z</time>
      </trkpt>
      <trkpt lat="48.86012" lon="2.38878">
        <ele>106.1</ele>
        <time>2015-05-05T18:59:08.142Z</time>
      </trkpt>
      <trkpt lat="48.8602" lon="2.38874">
        <ele>106.6</ele>
        <time>2015-05-05T18:59:09.142Z</time>
      </trkpt>
      <trkpt lat="48.86025" lon="2.3887">
        <ele>106.9</ele>
        <time>2015-05-05T18:59:10.178Z</time>
      </trkpt>
      <trkpt lat="48.8603" lon="2.38866">
        <ele>107.4</ele>
        <time>2015-05-05T18:59:11.300Z</time>
      </trkpt>
      <trkpt lat="48.86036" lon="2.38862">
        <ele>107.9</ele>
        <time>2015-05-05T18:59:12.200Z</time>
      </trkpt>
      <trkpt lat="48.86042" lon="2.38858">
        <ele>108.3</ele>
        <time>2015-05-05T18:59:13.143Z</time>
      </trkpt>
      <trkpt lat="48.86047" lon="2.38855">
        <ele>108.6</ele>
        <time>2015-05-05T18:59:14.155Z</time>
      </trkpt>
      <trkpt lat="48.86053" lon="2.38852">
        <ele>109.2</ele>
        <time>2015-05-05T18:59:15.218Z</time>
      </trkpt>
      <trkpt lat="48.86059" lon="2.38849">
        <ele>109.5</ele>
        <time>2015-05-05T18:59:16.234Z</time>
      </trkpt>
      <trkpt lat="48.86065" lon="2.38846">
        <ele>109.8</ele>
        <time>2015-05-05T18:59:17.119Z</time>
      </trkpt>
      <trkpt lat="48.8607" lon="2.38842">
        <ele>110.1</ele>
        <time>2015-05-05T18:59:18.134Z</time>
      </trkpt>
      <trkpt lat="48.86076" lon="2.38839">
        <ele>110.4</ele>
        <time>2015-05-05T18:59:19.154Z</time>
      </trkpt>
      <trkpt lat="48.86082" lon="2.38836">
        <ele>110.9</ele>
        <time>2015-05-05T18:59:20.176Z</time>
      </trkpt>
      <trkpt lat="48.86088" lon="2.38833">
        <ele>110.9</ele>
        <time>2015-05-05T18:59:21.332Z</time>
      </trkpt>
      <trkpt lat="48.86094" lon="2.3883">
        <ele>111.2</ele>
        <time>2015-05-05T18:59:22.240Z</time>
      </trkpt>
      <trkpt lat="48.861" lon="2.38827">
        <ele>111.4</ele>
        <time>2015-05-05T18:59:23.153Z</time>
      </trkpt>
      <trkpt lat="48.86106" lon="2.38825">
        <ele>111.7</ele>
        <time>2015-05-05T18:59:24.183Z</time>
      </trkpt>
      <trkpt lat="48.86111" lon="2.38822">
        <ele>112.3</ele>
        <time>2015-05-05T18:59:25.210Z</time>
      </trkpt>
      <trkpt lat="48.86117" lon="2.3882">
        <ele>113</ele>
        <time>2015-05-05T18:59:26.212Z</time>
      </trkpt>
      <trkpt lat="48.86124" lon="2.38817">
        <ele>113.3</ele>
        <time>2015-05-05T18:59:27.143Z</time>
      </trkpt>
      <trkpt lat="48.86129" lon="2.38815">
        <ele>113.4</ele>
        <time>2015-05-05T18:59:28.187Z</time>
      </trkpt>
      <trkpt lat="48.86136" lon="2.38812">
        <ele>113.3</ele>
        <time>2015-05-05T18:59:29.278Z</time>
      </trkpt>
      <trkpt lat="48.86141" lon="2.3881">
        <ele>113.5</ele>
        <time>2015-05-05T18:59:30.125Z</time>
      </trkpt>
      <trkpt lat="48.86147" lon="2.38807">
        <ele>113.4</ele>
        <time>2015-05-05T18:59:31.135Z</time>
      </trkpt>
      <trkpt lat="48.86153" lon="2.38804">
        <ele>113.5</ele>
        <time>2015-05-05T18:59:32.175Z</time>
      </trkpt>
      <trkpt lat="48.86159" lon="2.38802">
        <ele>113.4</ele>
        <time>2015-05-05T18:59:33.195Z</time>
      </trkpt>
      <trkpt lat="48.86165" lon="2.388">
        <ele>113.3</ele>
        <time>2015-05-05T18:59:34.216Z</time>
      </trkpt>
      <trkpt lat="48.8617" lon="2.38798">
        <ele>113.4</ele>
        <time>2015-05-05T18:59:35.110Z</time>
      </trkpt>
      <trkpt lat="48.86176" lon="2.38796">
        <ele>113.3</ele>
        <time>2015-05-05T18:59:36.111Z</time>
      </trkpt>
      <trkpt lat="48.86181" lon="2.38795">
        <ele>113.3</ele>
        <time>2015-05-05T18:59:37.137Z</time>
      </trkpt>
      <trkpt lat="48.86187" lon="2.38792">
        <ele>113.2</ele>
        <time>2015-05-05T18:59:38.143Z</time>
      </trkpt>
      <trkpt lat="48.86192" lon="2.3879">
        <ele>113.4</ele>
        <time>2015-05-05T18:59:39.157Z</time>
      </trkpt>
      <trkpt lat="48.86197" lon="2.38789">
        <ele>113.5</ele>
        <time>2015-05-05T18:59:40.166Z</time>
      </trkpt>
      <trkpt lat="48.86203" lon="2.38787">
        <ele>113.5</ele>
        <time>2015-05-05T18:59:41.181Z</time>
      </trkpt>
      <trkpt lat="48.8621" lon="2.38784">
        <ele>114.1</ele>
        <time>2015-05-05T18:59:42.181Z</time>
      </trkpt>
      <trkpt lat="48.86215" lon="2.38781">
        <ele>114.1</ele>
        <time>2015-05-05T18:59:43.186Z</time>
      </trkpt>
      <trkpt lat="48.8622" lon="2.38779">
        <ele>114.2</ele>
        <time>2015-05-05T18:59:44.103Z</time>
      </trkpt>
      <trkpt lat="48.86225" lon="2.38776">
        <ele>114.2</ele>
        <time>2015-05-05T18:59:45.128Z</time>
      </trkpt>
      <trkpt lat="48.86229" lon="2.38773">
        <ele>114.5</ele>
        <time>2015-05-05T18:59:46.159Z</time>
      </trkpt>
      <trkpt lat="48.86234" lon="2.3877">
        <ele>114.6</ele>
        <time>2015-05-05T18:59:47.175Z</time>
      </trkpt>
      <trkpt lat="48.86239" lon="2.38767">
        <ele>114.8</ele>
        <time>2015-05-05T18:59:48.186Z</time>
      </trkpt>
      <trkpt lat="48.86243" lon="2.38765">
        <ele>114.9</ele>
        <time>2015-05-05T18:59:49.112Z</time>
      </trkpt>
      <trkpt lat="48.86247" lon="2.3876">
        <ele>115.2</ele>
        <time>2015-05-05T18:59:50.108Z</time>
      </trkpt>
      <trkpt lat="48.86254" lon="2.38755">
        <ele>115.5</ele>
        <time>2015-05-05T18:59:52.183Z</time>
      </trkpt>
      <trkpt lat="48.86258" lon="2.38753">
        <ele>115.5</ele>
        <time>2015-05-05T18:59:53.193Z</time>
      </trkpt>
      <trkpt lat="48.86266" lon="2.38749">
        <ele>115.9</ele>
        <time>2015-05-05T18:59:55.156Z</time>
      </trkpt>
      <trkpt lat="48.86269" lon="2.38746">
        <ele>116.1</ele>
        <time>2015-05-05T18:59:56.142Z</time>
      </trkpt>
      <trkpt lat="48.86275" lon="2.38742">
        <ele>116.4</ele>
        <time>2015-05-05T18:59:58.157Z</time>
      </trkpt>
      <trkpt lat="48.86278" lon="2.3874">
        <ele>116.8</ele>
        <time>2015-05-05T18:59:59.200Z</time>
      </trkpt>
      <trkpt lat="48.86285" lon="2.38734">
        <ele>117.3</ele>
        <time>2015-05-05T19:00:02.131Z</time>
      </trkpt>
      <trkpt lat="48.86286" lon="2.38731">
        <ele>117.4</ele>
        <time>2015-05-05T19:00:03.133Z</time>
      </trkpt>
      <trkpt lat="48.86284" lon="2.38722">
        <ele>116.9</ele>
        <time>2015-05-05T19:00:06.129Z</time>
      </trkpt>
      <trkpt lat="48.86283" lon="2.38718">
        <ele>117.7</ele>
        <time>2015-05-05T19:00:07.146Z</time>
      </trkpt>
      <trkpt lat="48.86284" lon="2.38705">
        <ele>118.2</ele>
        <time>2015-05-05T19:00:11.152Z</time>
      </trkpt>
      <trkpt lat="48.86285" lon="2.38701">
        <ele>118.4</ele>
        <time>2015-05-05T19:00:12.104Z</time>
      </trkpt>
      <trkpt lat="48.86287" lon="2.38692">
        <ele>118.8</ele>
        <time>2015-05-05T19:00:14.138Z</time>
      </trkpt>
      <trkpt lat="48.86287" lon="2.38687">
        <ele>118.9</ele>
        <time>2015-05-05T19:00:15.270Z</time>
      </trkpt>
      <trkpt lat="48.86289" lon="2.38677">
        <ele>119.1</ele>
        <time>2015-05-05T19:00:17.109Z</time>
      </trkpt>
      <trkpt lat="48.8629" lon="2.3867">
        <ele>119.2</ele>
        <time>2015-05-05T19:00:18.169Z</time>
      </trkpt>
      <trkpt lat="48.86292" lon="2.38663">
        <ele>119.3</ele>
        <time>2015-05-05T19:00:19.112Z</time>
      </trkpt>
      <trkpt lat="48.86293" lon="2.38655">
        <ele>119.3</ele>
        <time>2015-05-05T19:00:20.118Z</time>
      </trkpt>
      <trkpt lat="48.86294" lon="2.38646">
        <ele>119.6</ele>
        <time>2015-05-05T19:00:21.120Z</time>
      </trkpt>
      <trkpt lat="48.86296" lon="2.38637">
        <ele>119.9</ele>
        <time>2015-05-05T19:00:22.143Z</time>
      </trkpt>
      <trkpt lat="48.86297" lon="2.38629">
        <ele>120</ele>
        <time>2015-05-05T19:00:23.157Z</time>
      </trkpt>
      <trkpt lat="48.86298" lon="2.38623">
        <ele>120.1</ele>
        <time>2015-05-05T19:00:24.167Z</time>
      </trkpt>
      <trkpt lat="48.86299" lon="2.38615">
        <ele>120.1</ele>
        <time>2015-05-05T19:00:25.085Z</time>
      </trkpt>
      <trkpt lat="48.863" lon="2.38608">
        <ele>120.1</ele>
        <time>2015-05-05T19:00:26.109Z</time>
      </trkpt>
      <trkpt lat="48.86305" lon="2.38596">
        <ele>119.9</ele>
        <time>2015-05-05T19:00:28.153Z</time>
      </trkpt>
      <trkpt lat="48.86306" lon="2.38591">
        <ele>119.8</ele>
        <time>2015-05-05T19:00:29.078Z</time>
      </trkpt>
      <trkpt lat="48.86308" lon="2.38584">
        <ele>119.8</ele>
        <time>2015-05-05T19:00:30.084Z</time>
      </trkpt>
      <trkpt lat="48.8631" lon="2.38577">
        <ele>119.7</ele>
        <time>2015-05-05T19:00:31.127Z</time>
      </trkpt>
      <trkpt lat="48.86311" lon="2.38569">
        <ele>119.6</ele>
        <time>2015-05-05T19:00:32.164Z</time>
      </trkpt>
      <trkpt lat="48.86313" lon="2.38561">
        <ele>119.7</ele>
        <time>2015-05-05T19:00:33.173Z</time>
      </trkpt>
      <trkpt lat="48.86314" lon="2.38554">
        <ele>119.7</ele>
        <time>2015-05-05T19:00:34.188Z</time>
      </trkpt>
      <trkpt lat="48.86316" lon="2.38546">
        <ele>119.8</ele>
        <time>2015-05-05T19:00:35.086Z</time>
      </trkpt>
      <trkpt lat="48.86318" lon="2.38537">
        <ele>119.8</ele>
        <time>2015-05-05T19:00:36.105Z</time>
      </trkpt>
      <trkpt lat="48.86319" lon="2.38529">
        <ele>119.8</ele>
        <time>2015-05-05T19:00:37.109Z</time>
      </trkpt>
      <trkpt lat="48.86321" lon="2.3852">
        <ele>119.8</ele>
        <time>2015-05-05T19:00:38.116Z</time>
      </trkpt>
      <trkpt lat="48.86322" lon="2.38508">
        <ele>120.6</ele>
        <time>2015-05-05T19:00:39.122Z</time>
      </trkpt>
      <trkpt lat="48.86322" lon="2.38498">
        <ele>120.9</ele>
        <time>2015-05-05T19:00:40.128Z</time>
      </trkpt>
      <trkpt lat="48.86323" lon="2.38487">
        <ele>121.3</ele>
        <time>2015-05-05T19:00:41.148Z</time>
      </trkpt>
      <trkpt lat="48.86324" lon="2.38479">
        <ele>121.4</ele>
        <time>2015-05-05T19:00:42.149Z</time>
      </trkpt>
      <trkpt lat="48.86326" lon="2.38472">
        <ele>121.4</ele>
        <time>2015-05-05T19:00:43.166Z</time>
      </trkpt>
      <trkpt lat="48.86327" lon="2.38464">
        <ele>121.3</ele>
        <time>2015-05-05T19:00:44.177Z</time>
      </trkpt>
      <trkpt lat="48.8633" lon="2.38456">
        <ele>121.3</ele>
        <time>2015-05-05T19:00:45.094Z</time>
      </trkpt>
      <trkpt lat="48.86332" lon="2.38449">
        <ele>121.2</ele>
        <time>2015-05-05T19:00:46.115Z</time>
      </trkpt>
      <trkpt lat="48.86333" lon="2.38441">
        <ele>121.2</ele>
        <time>2015-05-05T19:00:47.112Z</time>
      </trkpt>
      <trkpt lat="48.86335" lon="2.38433">
        <ele>121.1</ele>
        <time>2015-05-05T19:00:48.134Z</time>
      </trkpt>
      <trkpt lat="48.86336" lon="2.38424">
        <ele>121</ele>
        <time>2015-05-05T19:00:49.149Z</time>
      </trkpt>
      <trkpt lat="48.86338" lon="2.38414">
        <ele>120.6</ele>
        <time>2015-05-05T19:00:50.155Z</time>
      </trkpt>
      <trkpt lat="48.8634" lon="2.38405">
        <ele>120.3</ele>
        <time>2015-05-05T19:00:51.071Z</time>
      </trkpt>
      <trkpt lat="48.86341" lon="2.38395">
        <ele>120.2</ele>
        <time>2015-05-05T19:00:52.108Z</time>
      </trkpt>
      <trkpt lat="48.86343" lon="2.38386">
        <ele>120.1</ele>
        <time>2015-05-05T19:00:53.100Z</time>
      </trkpt>
      <trkpt lat="48.86345" lon="2.38378">
        <ele>120.1</ele>
        <time>2015-05-05T19:00:54.154Z</time>
      </trkpt>
      <trkpt lat="48.86346" lon="2.38368">
        <ele>120</ele>
        <time>2015-05-05T19:00:55.138Z</time>
      </trkpt>
      <trkpt lat="48.86348" lon="2.38359">
        <ele>120</ele>
        <time>2015-05-05T19:00:56.169Z</time>
      </trkpt>
      <trkpt lat="48.86349" lon="2.38351">
        <ele>120</ele>
        <time>2015-05-05T19:00:57.102Z</time>
      </trkpt>
      <trkpt lat="48.86351" lon="2.38343">
        <ele>119.9</ele>
        <time>2015-05-05T19:00:58.152Z</time>
      </trkpt>
      <trkpt lat="48.86352" lon="2.38335">
        <ele>119.8</ele>
        <time>2015-05-05T19:00:59.130Z</time>
      </trkpt>
      <trkpt lat="48.86354" lon="2.38328">
        <ele>119.7</ele>
        <time>2015-05-05T19:01:00.137Z</time>
      </trkpt>
      <trkpt lat="48.86355" lon="2.38321">
        <ele>119.5</ele>
        <time>2015-05-05T19:01:01.151Z</time>
      </trkpt>
      <trkpt lat="48.86356" lon="2.38314">
        <ele>119.4</ele>
        <time>2015-05-05T19:01:02.087Z</time>
      </trkpt>
      <trkpt lat="48.86356" lon="2.38307">
        <ele>119.4</ele>
        <time>2015-05-05T19:01:03.111Z</time>
      </trkpt>
      <trkpt lat="48.86358" lon="2.38299">
        <ele>119.4</ele>
        <time>2015-05-05T19:01:04.286Z</time>
      </trkpt>
      <trkpt lat="48.8636" lon="2.38291">
        <ele>119.4</ele>
        <time>2015-05-05T19:01:05.078Z</time>
      </trkpt>
      <trkpt lat="48.86361" lon="2.38282">
        <ele>119.3</ele>
        <time>2015-05-05T19:01:06.092Z</time>
      </trkpt>
      <trkpt lat="48.86362" lon="2.38274">
        <ele>119.2</ele>
        <time>2015-05-05T19:01:07.096Z</time>
      </trkpt>
      <trkpt lat="48.86363" lon="2.38266">
        <ele>119.1</ele>
        <time>2015-05-05T19:01:08.097Z</time>
      </trkpt>
      <trkpt lat="48.86365" lon="2.38257">
        <ele>118.9</ele>
        <time>2015-05-05T19:01:09.106Z</time>
      </trkpt>
      <trkpt lat="48.86368" lon="2.38242">
        <ele>118.6</ele>
        <time>2015-05-05T19:01:11.161Z</time>
      </trkpt>
      <trkpt lat="48.8637" lon="2.38234">
        <ele>118.5</ele>
        <time>2015-05-05T19:01:12.106Z</time>
      </trkpt>
      <trkpt lat="48.86372" lon="2.38227">
        <ele>118.3</ele>
        <time>2015-05-05T19:01:13.120Z</time>
      </trkpt>
      <trkpt lat="48.86373" lon="2.3822">
        <ele>118.2</ele>
        <time>2015-05-05T19:01:14.078Z</time>
      </trkpt>
      <trkpt lat="48.86375" lon="2.38212">
        <ele>118</ele>
        <time>2015-05-05T19:01:15.116Z</time>
      </trkpt>
      <trkpt lat="48.86376" lon="2.38204">
        <ele>118</ele>
        <time>2015-05-05T19:01:16.122Z</time>
      </trkpt>
      <trkpt lat="48.86376" lon="2.38197">
        <ele>118</ele>
        <time>2015-05-05T19:01:17.130Z</time>
      </trkpt>
      <trkpt lat="48.86377" lon="2.38188">
        <ele>118.2</ele>
        <time>2015-05-05T19:01:18.163Z</time>
      </trkpt>
      <trkpt lat="48.86379" lon="2.3818">
        <ele>118.2</ele>
        <time>2015-05-05T19:01:19.078Z</time>
      </trkpt>
      <trkpt lat="48.86381" lon="2.38171">
        <ele>118.3</ele>
        <time>2015-05-05T19:01:20.181Z</time>
      </trkpt>
      <trkpt lat="48.86383" lon="2.38163">
        <ele>118.4</ele>
        <time>2015-05-05T19:01:21.129Z</time>
      </trkpt>
      <trkpt lat="48.86384" lon="2.38154">
        <ele>118.6</ele>
        <time>2015-05-05T19:01:22.134Z</time>
      </trkpt>
      <trkpt lat="48.86386" lon="2.38146">
        <ele>118.9</ele>
        <time>2015-05-05T19:01:23.148Z</time>
      </trkpt>
      <trkpt lat="48.86388" lon="2.38137">
        <ele>119.1</ele>
        <time>2015-05-05T19:01:24.086Z</time>
      </trkpt>
      <trkpt lat="48.8639" lon="2.3813">
        <ele>119.3</ele>
        <time>2015-05-05T19:01:25.085Z</time>
      </trkpt>
      <trkpt lat="48.86392" lon="2.38122">
        <ele>119.6</ele>
        <time>2015-05-05T19:01:26.114Z</time>
      </trkpt>
      <trkpt lat="48.86394" lon="2.38114">
        <ele>119.8</ele>
        <time>2015-05-05T19:01:27.113Z</time>
      </trkpt>
      <trkpt lat="48.86395" lon="2.38105">
        <ele>120.1</ele>
        <time>2015-05-05T19:01:28.138Z</time>
      </trkpt>
      <trkpt lat="48.86397" lon="2.38096">
        <ele>120.2</ele>
        <time>2015-05-05T19:01:29.309Z</time>
      </trkpt>
      <trkpt lat="48.86398" lon="2.38086">
        <ele>120.2</ele>
        <time>2015-05-05T19:01:30.081Z</time>
      </trkpt>
      <trkpt lat="48.86399" lon="2.38077">
        <ele>120.2</ele>
        <time>2015-05-05T19:01:31.123Z</time>
      </trkpt>
      <trkpt lat="48.864" lon="2.38068">
        <ele>120.2</ele>
        <time>2015-05-05T19:01:32.091Z</time>
      </trkpt>
      <trkpt lat="48.86402" lon="2.38058">
        <ele>120.1</ele>
        <time>2015-05-05T19:01:33.100Z</time>
      </trkpt>
      <trkpt lat="48.86403" lon="2.38048">
        <ele>120.2</ele>
        <time>2015-05-05T19:01:34.116Z</time>
      </trkpt>
      <trkpt lat="48.86405" lon="2.38039">
        <ele>120.2</ele>
        <time>2015-05-05T19:01:35.138Z</time>
      </trkpt>
      <trkpt lat="48.86406" lon="2.3803">
        <ele>120.2</ele>
        <time>2015-05-05T19:01:36.096Z</time>
      </trkpt>
      <trkpt lat="48.86409" lon="2.38021">
        <ele>120</ele>
        <time>2015-05-05T19:01:37.084Z</time>
      </trkpt>
      <trkpt lat="48.86413" lon="2.38012">
        <ele>120.1</ele>
        <time>2015-05-05T19:01:38.089Z</time>
      </trkpt>
      <trkpt lat="48.86415" lon="2.38003">
        <ele>120.1</ele>
        <time>2015-05-05T19:01:39.105Z</time>
      </trkpt>
      <trkpt lat="48.86416" lon="2.37996">
        <ele>120</ele>
        <time>2015-05-05T19:01:40.121Z</time>
      </trkpt>
      <trkpt lat="48.86417" lon="2.37988">
        <ele>119.9</ele>
        <time>2015-05-05T19:01:41.187Z</time>
      </trkpt>
      <trkpt lat="48.86419" lon="2.3798">
        <ele>120</ele>
        <time>2015-05-05T19:01:42.091Z</time>
      </trkpt>
      <trkpt lat="48.8642" lon="2.37971">
        <ele>120.1</ele>
        <time>2015-05-05T19:01:43.089Z</time>
      </trkpt>
      <trkpt lat="48.86422" lon="2.37962">
        <ele>120.2</ele>
        <time>2015-05-05T19:01:44.099Z</time>
      </trkpt>
      <trkpt lat="48.86423" lon="2.37953">
        <ele>120</ele>
        <time>2015-05-05T19:01:45.110Z</time>
      </trkpt>
      <trkpt lat="48.86424" lon="2.37944">
        <ele>119.9</ele>
        <time>2015-05-05T19:01:46.246Z</time>
      </trkpt>
      <trkpt lat="48.86426" lon="2.37936">
        <ele>119.8</ele>
        <time>2015-05-05T19:01:47.128Z</time>
      </trkpt>
      <trkpt lat="48.86427" lon="2.37928">
        <ele>119.6</ele>
        <time>2015-05-05T19:01:48.135Z</time>
      </trkpt>
      <trkpt lat="48.86429" lon="2.3792">
        <ele>119.5</ele>
        <time>2015-05-05T19:01:49.147Z</time>
      </trkpt>
      <trkpt lat="48.8643" lon="2.37912">
        <ele>119.3</ele>
        <time>2015-05-05T19:01:50.161Z</time>
      </trkpt>
      <trkpt lat="48.86431" lon="2.37903">
        <ele>119</ele>
        <time>2015-05-05T19:01:51.163Z</time>
      </trkpt>
      <trkpt lat="48.86433" lon="2.37894">
        <ele>118.7</ele>
        <time>2015-05-05T19:01:52.186Z</time>
      </trkpt>
      <trkpt lat="48.86434" lon="2.37885">
        <ele>118.6</ele>
        <time>2015-05-05T19:01:53.082Z</time>
      </trkpt>
      <trkpt lat="48.86435" lon="2.37877">
        <ele>118.6</ele>
        <time>2015-05-05T19:01:54.080Z</time>
      </trkpt>
      <trkpt lat="48.86437" lon="2.3787">
        <ele>118.3</ele>
        <time>2015-05-05T19:01:55.088Z</time>
      </trkpt>
      <trkpt lat="48.86439" lon="2.37862">
        <ele>118.2</ele>
        <time>2015-05-05T19:01:56.097Z</time>
      </trkpt>
      <trkpt lat="48.8644" lon="2.37855">
        <ele>117.9</ele>
        <time>2015-05-05T19:01:57.116Z</time>
      </trkpt>
      <trkpt lat="48.86442" lon="2.37847">
        <ele>117.6</ele>
        <time>2015-05-05T19:01:58.139Z</time>
      </trkpt>
      <trkpt lat="48.86443" lon="2.37839">
        <ele>117.5</ele>
        <time>2015-05-05T19:01:59.141Z</time>
      </trkpt>
      <trkpt lat="48.86444" lon="2.3783">
        <ele>117.3</ele>
        <time>2015-05-05T19:02:00.156Z</time>
      </trkpt>
      <trkpt lat="48.86446" lon="2.37819">
        <ele>118.3</ele>
        <time>2015-05-05T19:02:01.165Z</time>
      </trkpt>
      <trkpt lat="48.86448" lon="2.37811">
        <ele>118</ele>
        <time>2015-05-05T19:02:02.076Z</time>
      </trkpt>
      <trkpt lat="48.86449" lon="2.37804">
        <ele>117.8</ele>
        <time>2015-05-05T19:02:03.101Z</time>
      </trkpt>
      <trkpt lat="48.8645" lon="2.37797">
        <ele>117.6</ele>
        <time>2015-05-05T19:02:04.117Z</time>
      </trkpt>
      <trkpt lat="48.86451" lon="2.3779">
        <ele>117.7</ele>
        <time>2015-05-05T19:02:05.131Z</time>
      </trkpt>
      <trkpt lat="48.86452" lon="2.37783">
        <ele>117.7</ele>
        <time>2015-05-05T19:02:06.139Z</time>
      </trkpt>
      <trkpt lat="48.86454" lon="2.37775">
        <ele>117.6</ele>
        <time>2015-05-05T19:02:07.142Z</time>
      </trkpt>
      <trkpt lat="48.86455" lon="2.37767">
        <ele>117.6</ele>
        <time>2015-05-05T19:02:08.148Z</time>
      </trkpt>
      <trkpt lat="48.86456" lon="2.37758">
        <ele>117.6</ele>
        <time>2015-05-05T19:02:09.158Z</time>
      </trkpt>
      <trkpt lat="48.86458" lon="2.3775">
        <ele>117.5</ele>
        <time>2015-05-05T19:02:10.168Z</time>
      </trkpt>
      <trkpt lat="48.8646" lon="2.37741">
        <ele>117.5</ele>
        <time>2015-05-05T19:02:11.081Z</time>
      </trkpt>
      <trkpt lat="48.86462" lon="2.37732">
        <ele>117.4</ele>
        <time>2015-05-05T19:02:12.086Z</time>
      </trkpt>
      <trkpt lat="48.86464" lon="2.37724">
        <ele>117.3</ele>
        <time>2015-05-05T19:02:13.093Z</time>
      </trkpt>
      <trkpt lat="48.86466" lon="2.37715">
        <ele>117.3</ele>
        <time>2015-05-05T19:02:14.113Z</time>
      </trkpt>
      <trkpt lat="48.86467" lon="2.37706">
        <ele>117.1</ele>
        <time>2015-05-05T19:02:15.119Z</time>
      </trkpt>
      <trkpt lat="48.86469" lon="2.37698">
        <ele>117.2</ele>
        <time>2015-05-05T19:02:16.137Z</time>
      </trkpt>
      <trkpt lat="48.86471" lon="2.3769">
        <ele>117</ele>
        <time>2015-05-05T19:02:17.143Z</time>
      </trkpt>
      <trkpt lat="48.86474" lon="2.37682">
        <ele>116.9</ele>
        <time>2015-05-05T19:02:18.158Z</time>
      </trkpt>
      <trkpt lat="48.86476" lon="2.37674">
        <ele>116.9</ele>
        <time>2015-05-05T19:02:19.080Z</time>
      </trkpt>
      <trkpt lat="48.86478" lon="2.37665">
        <ele>116.8</ele>
        <time>2015-05-05T19:02:20.079Z</time>
      </trkpt>
      <trkpt lat="48.8648" lon="2.37657">
        <ele>116.9</ele>
        <time>2015-05-05T19:02:21.094Z</time>
      </trkpt>
      <trkpt lat="48.86482" lon="2.37649">
        <ele>116.9</ele>
        <time>2015-05-05T19:02:22.117Z</time>
      </trkpt>
      <trkpt lat="48.86484" lon="2.37641">
        <ele>117</ele>
        <time>2015-05-05T19:02:23.117Z</time>
      </trkpt>
      <trkpt lat="48.86485" lon="2.37634">
        <ele>117</ele>
        <time>2015-05-05T19:02:24.136Z</time>
      </trkpt>
      <trkpt lat="48.86486" lon="2.37627">
        <ele>117</ele>
        <time>2015-05-05T19:02:25.154Z</time>
      </trkpt>
      <trkpt lat="48.86486" lon="2.3762">
        <ele>116.9</ele>
        <time>2015-05-05T19:02:26.077Z</time>
      </trkpt>
      <trkpt lat="48.86487" lon="2.37613">
        <ele>116.8</ele>
        <time>2015-05-05T19:02:27.096Z</time>
      </trkpt>
      <trkpt lat="48.86488" lon="2.37606">
        <ele>116.6</ele>
        <time>2015-05-05T19:02:28.165Z</time>
      </trkpt>
      <trkpt lat="48.8649" lon="2.376">
        <ele>116.5</ele>
        <time>2015-05-05T19:02:29.057Z</time>
      </trkpt>
      <trkpt lat="48.86491" lon="2.37593">
        <ele>116.4</ele>
        <time>2015-05-05T19:02:30.079Z</time>
      </trkpt>
      <trkpt lat="48.86492" lon="2.37586">
        <ele>116.3</ele>
        <time>2015-05-05T19:02:31.084Z</time>
      </trkpt>
      <trkpt lat="48.86493" lon="2.37579">
        <ele>116.4</ele>
        <time>2015-05-05T19:02:32.107Z</time>
      </trkpt>
      <trkpt lat="48.86495" lon="2.37572">
        <ele>116.5</ele>
        <time>2015-05-05T19:02:33.135Z</time>
      </trkpt>
      <trkpt lat="48.86497" lon="2.37565">
        <ele>116.5</ele>
        <time>2015-05-05T19:02:34.145Z</time>
      </trkpt>
      <trkpt lat="48.86498" lon="2.37558">
        <ele>116.4</ele>
        <time>2015-05-05T19:02:35.151Z</time>
      </trkpt>
      <trkpt lat="48.865" lon="2.37551">
        <ele>116.4</ele>
        <time>2015-05-05T19:02:36.167Z</time>
      </trkpt>
      <trkpt lat="48.865" lon="2.37544">
        <ele>116.3</ele>
        <time>2015-05-05T19:02:37.208Z</time>
      </trkpt>
      <trkpt lat="48.86503" lon="2.37533">
        <ele>116.3</ele>
        <time>2015-05-05T19:02:40.173Z</time>
      </trkpt>
      <trkpt lat="48.86504" lon="2.37532">
        <ele>116.4</ele>
        <time>2015-05-05T19:02:41.158Z</time>
      </trkpt>
      <trkpt lat="48.8651" lon="2.37522">
        <ele>118.7</ele>
        <time>2015-05-05T19:02:52.146Z</time>
      </trkpt>
      <trkpt lat="48.86511" lon="2.37518">
        <ele>119</ele>
        <time>2015-05-05T19:02:53.165Z</time>
      </trkpt>
      <trkpt lat="48.86512" lon="2.37507">
        <ele>119.6</ele>
        <time>2015-05-05T19:02:55.102Z</time>
      </trkpt>
      <trkpt lat="48.86513" lon="2.375">
        <ele>119.9</ele>
        <time>2015-05-05T19:02:56.127Z</time>
      </trkpt>
      <trkpt lat="48.86515" lon="2.37488">
        <ele>120.3</ele>
        <time>2015-05-05T19:02:58.148Z</time>
      </trkpt>
      <trkpt lat="48.86515" lon="2.37484">
        <ele>120.5</ele>
        <time>2015-05-05T19:02:59.167Z</time>
      </trkpt>
      <trkpt lat="48.86517" lon="2.37473">
        <ele>120.9</ele>
        <time>2015-05-05T19:03:01.120Z</time>
      </trkpt>
      <trkpt lat="48.86519" lon="2.37466">
        <ele>121</ele>
        <time>2015-05-05T19:03:02.141Z</time>
      </trkpt>
      <trkpt lat="48.8652" lon="2.37454">
        <ele>121.2</ele>
        <time>2015-05-05T19:03:04.156Z</time>
      </trkpt>
      <trkpt lat="48.8652" lon="2.37449">
        <ele>121.3</ele>
        <time>2015-05-05T19:03:05.152Z</time>
      </trkpt>
      <trkpt lat="48.86521" lon="2.37435">
        <ele>120.9</ele>
        <time>2015-05-05T19:03:09.100Z</time>
      </trkpt>
      <trkpt lat="48.86521" lon="2.37434">
        <ele>120.8</ele>
        <time>2015-05-05T19:03:10.167Z</time>
      </trkpt>
      <trkpt lat="48.86523" lon="2.37421">
        <ele>121.4</ele>
        <time>2015-05-05T19:03:17.179Z</time>
      </trkpt>
      <trkpt lat="48.86524" lon="2.37417">
        <ele>121.4</ele>
        <time>2015-05-05T19:03:18.114Z</time>
      </trkpt>
      <trkpt lat="48.86525" lon="2.37404">
        <ele>121.2</ele>
        <time>2015-05-05T19:03:21.161Z</time>
      </trkpt>
      <trkpt lat="48.86525" lon="2.37399">
        <ele>121.1</ele>
        <time>2015-05-05T19:03:22.200Z</time>
      </trkpt>
      <trkpt lat="48.86525" lon="2.37388">
        <ele>120.9</ele>
        <time>2015-05-05T19:03:24.118Z</time>
      </trkpt>
      <trkpt lat="48.86525" lon="2.37382">
        <ele>120.6</ele>
        <time>2015-05-05T19:03:25.147Z</time>
      </trkpt>
      <trkpt lat="48.86526" lon="2.37376">
        <ele>120.4</ele>
        <time>2015-05-05T19:03:26.151Z</time>
      </trkpt>
      <trkpt lat="48.86527" lon="2.37369">
        <ele>120.1</ele>
        <time>2015-05-05T19:03:27.170Z</time>
      </trkpt>
      <trkpt lat="48.86529" lon="2.37361">
        <ele>119.9</ele>
        <time>2015-05-05T19:03:28.220Z</time>
      </trkpt>
      <trkpt lat="48.86531" lon="2.37354">
        <ele>119.8</ele>
        <time>2015-05-05T19:03:29.145Z</time>
      </trkpt>
      <trkpt lat="48.86532" lon="2.37346">
        <ele>119.6</ele>
        <time>2015-05-05T19:03:30.105Z</time>
      </trkpt>
      <trkpt lat="48.86535" lon="2.37338">
        <ele>119.4</ele>
        <time>2015-05-05T19:03:31.108Z</time>
      </trkpt>
      <trkpt lat="48.86537" lon="2.37329">
        <ele>119.2</ele>
        <time>2015-05-05T19:03:32.148Z</time>
      </trkpt>
      <trkpt lat="48.86539" lon="2.37321">
        <ele>119</ele>
        <time>2015-05-05T19:03:33.175Z</time>
      </trkpt>
      <trkpt lat="48.86541" lon="2.37313">
        <ele>118.8</ele>
        <time>2015-05-05T19:03:34.189Z</time>
      </trkpt>
      <trkpt lat="48.86543" lon="2.37304">
        <ele>118.6</ele>
        <time>2015-05-05T19:03:35.093Z</time>
      </trkpt>
      <trkpt lat="48.86545" lon="2.37296">
        <ele>118.2</ele>
        <time>2015-05-05T19:03:36.091Z</time>
      </trkpt>
      <trkpt lat="48.86547" lon="2.37287">
        <ele>118</ele>
        <time>2015-05-05T19:03:37.101Z</time>
      </trkpt>
      <trkpt lat="48.86548" lon="2.37279">
        <ele>117.8</ele>
        <time>2015-05-05T19:03:38.141Z</time>
      </trkpt>
      <trkpt lat="48.86551" lon="2.3727">
        <ele>117.7</ele>
        <time>2015-05-05T19:03:39.152Z</time>
      </trkpt>
      <trkpt lat="48.86552" lon="2.37261">
        <ele>117.8</ele>
        <time>2015-05-05T19:03:40.165Z</time>
      </trkpt>
      <trkpt lat="48.86554" lon="2.37252">
        <ele>117.9</ele>
        <time>2015-05-05T19:03:41.086Z</time>
      </trkpt>
      <trkpt lat="48.86556" lon="2.37243">
        <ele>117.8</ele>
        <time>2015-05-05T19:03:42.091Z</time>
      </trkpt>
      <trkpt lat="48.86558" lon="2.37234">
        <ele>117.7</ele>
        <time>2015-05-05T19:03:43.132Z</time>
      </trkpt>
      <trkpt lat="48.8656" lon="2.37225">
        <ele>117.5</ele>
        <time>2015-05-05T19:03:44.167Z</time>
      </trkpt>
      <trkpt lat="48.86562" lon="2.37216">
        <ele>117.2</ele>
        <time>2015-05-05T19:03:45.113Z</time>
      </trkpt>
      <trkpt lat="48.86563" lon="2.37208">
        <ele>117</ele>
        <time>2015-05-05T19:03:46.129Z</time>
      </trkpt>
      <trkpt lat="48.86563" lon="2.372">
        <ele>116.8</ele>
        <time>2015-05-05T19:03:47.126Z</time>
      </trkpt>
      <trkpt lat="48.86564" lon="2.37193">
        <ele>116.5</ele>
        <time>2015-05-05T19:03:48.129Z</time>
      </trkpt>
      <trkpt lat="48.86564" lon="2.37185">
        <ele>116.3</ele>
        <time>2015-05-05T19:03:49.155Z</time>
      </trkpt>
      <trkpt lat="48.86566" lon="2.37175">
        <ele>116.1</ele>
        <time>2015-05-05T19:03:50.106Z</time>
      </trkpt>
      <trkpt lat="48.86569" lon="2.37166">
        <ele>115.9</ele>
        <time>2015-05-05T19:03:51.126Z</time>
      </trkpt>
      <trkpt lat="48.86571" lon="2.37156">
        <ele>115.8</ele>
        <time>2015-05-05T19:03:52.154Z</time>
      </trkpt>
      <trkpt lat="48.86573" lon="2.37148">
        <ele>115.7</ele>
        <time>2015-05-05T19:03:53.079Z</time>
      </trkpt>
      <trkpt lat="48.86575" lon="2.37138">
        <ele>115.6</ele>
        <time>2015-05-05T19:03:54.099Z</time>
      </trkpt>
      <trkpt lat="48.86577" lon="2.37129">
        <ele>115.6</ele>
        <time>2015-05-05T19:03:55.120Z</time>
      </trkpt>
      <trkpt lat="48.86579" lon="2.3712">
        <ele>115.6</ele>
        <time>2015-05-05T19:03:56.124Z</time>
      </trkpt>
      <trkpt lat="48.86581" lon="2.3711">
        <ele>115.5</ele>
        <time>2015-05-05T19:03:57.139Z</time>
      </trkpt>
      <trkpt lat="48.86583" lon="2.37101">
        <ele>115.5</ele>
        <time>2015-05-05T19:03:58.153Z</time>
      </trkpt>
      <trkpt lat="48.86586" lon="2.37092">
        <ele>115.4</ele>
        <time>2015-05-05T19:03:59.161Z</time>
      </trkpt>
      <trkpt lat="48.86588" lon="2.37082">
        <ele>115.4</ele>
        <time>2015-05-05T19:04:00.085Z</time>
      </trkpt>
      <trkpt lat="48.8659" lon="2.37073">
        <ele>115.2</ele>
        <time>2015-05-05T19:04:01.108Z</time>
      </trkpt>
      <trkpt lat="48.86592" lon="2.37064">
        <ele>115</ele>
        <time>2015-05-05T19:04:02.092Z</time>
      </trkpt>
      <trkpt lat="48.86596" lon="2.37054">
        <ele>114.8</ele>
        <time>2015-05-05T19:04:03.103Z</time>
      </trkpt>
      <trkpt lat="48.866" lon="2.37044">
        <ele>114.4</ele>
        <time>2015-05-05T19:04:04.136Z</time>
      </trkpt>
      <trkpt lat="48.86602" lon="2.37034">
        <ele>113.9</ele>
        <time>2015-05-05T19:04:05.139Z</time>
      </trkpt>
      <trkpt lat="48.86604" lon="2.37025">
        <ele>113.4</ele>
        <time>2015-05-05T19:04:06.297Z</time>
      </trkpt>
      <trkpt lat="48.86605" lon="2.37016">
        <ele>113.2</ele>
        <time>2015-05-05T19:04:07.161Z</time>
      </trkpt>
      <trkpt lat="48.86606" lon="2.37007">
        <ele>112.9</ele>
        <time>2015-05-05T19:04:08.170Z</time>
      </trkpt>
      <trkpt lat="48.86608" lon="2.36998">
        <ele>112.8</ele>
        <time>2015-05-05T19:04:09.075Z</time>
      </trkpt>
      <trkpt lat="48.8661" lon="2.36991">
        <ele>112.8</ele>
        <time>2015-05-05T19:04:10.109Z</time>
      </trkpt>
      <trkpt lat="48.86611" lon="2.36984">
        <ele>112.8</ele>
        <time>2015-05-05T19:04:11.118Z</time>
      </trkpt>
      <trkpt lat="48.86613" lon="2.36972">
        <ele>112.6</ele>
        <time>2015-05-05T19:04:13.148Z</time>
      </trkpt>
      <trkpt lat="48.86613" lon="2.36967">
        <ele>112.6</ele>
        <time>2015-05-05T19:04:14.149Z</time>
      </trkpt>
      <trkpt lat="48.86614" lon="2.36954">
        <ele>113</ele>
        <time>2015-05-05T19:04:18.187Z</time>
      </trkpt>
      <trkpt lat="48.86615" lon="2.36953">
        <ele>113</ele>
        <time>2015-05-05T19:04:19.118Z</time>
      </trkpt>
      <trkpt lat="48.86617" lon="2.36943">
        <ele>115.7</ele>
        <time>2015-05-05T19:04:54.190Z</time>
      </trkpt>
      <trkpt lat="48.8662" lon="2.36941">
        <ele>116</ele>
        <time>2015-05-05T19:04:55.115Z</time>
      </trkpt>
      <trkpt lat="48.86625" lon="2.36935">
        <ele>116.4</ele>
        <time>2015-05-05T19:04:57.137Z</time>
      </trkpt>
      <trkpt lat="48.86629" lon="2.36932">
        <ele>116.7</ele>
        <time>2015-05-05T19:04:58.182Z</time>
      </trkpt>
      <trkpt lat="48.86633" lon="2.36929">
        <ele>116.9</ele>
        <time>2015-05-05T19:04:59.120Z</time>
      </trkpt>
      <trkpt lat="48.86637" lon="2.36925">
        <ele>117.2</ele>
        <time>2015-05-05T19:05:00.112Z</time>
      </trkpt>
      <trkpt lat="48.86641" lon="2.36921">
        <ele>117.4</ele>
        <time>2015-05-05T19:05:01.124Z</time>
      </trkpt>
      <trkpt lat="48.86645" lon="2.36917">
        <ele>117.6</ele>
        <time>2015-05-05T19:05:02.131Z</time>
      </trkpt>
      <trkpt lat="48.8665" lon="2.36913">
        <ele>117.9</ele>
        <time>2015-05-05T19:05:03.158Z</time>
      </trkpt>
      <trkpt lat="48.86654" lon="2.36908">
        <ele>118.2</ele>
        <time>2015-05-05T19:05:04.202Z</time>
      </trkpt>
      <trkpt lat="48.86659" lon="2.36904">
        <ele>118.4</ele>
        <time>2015-05-05T19:05:05.094Z</time>
      </trkpt>
      <trkpt lat="48.86664" lon="2.369">
        <ele>118.5</ele>
        <time>2015-05-05T19:05:06.100Z</time>
      </trkpt>
      <trkpt lat="48.86668" lon="2.36895">
        <ele>118.7</ele>
        <time>2015-05-05T19:05:07.135Z</time>
      </trkpt>
      <trkpt lat="48.86671" lon="2.36891">
        <ele>118.9</ele>
        <time>2015-05-05T19:05:08.158Z</time>
      </trkpt>
      <trkpt lat="48.86675" lon="2.36886">
        <ele>119.1</ele>
        <time>2015-05-05T19:05:09.180Z</time>
      </trkpt>
      <trkpt lat="48.86679" lon="2.36881">
        <ele>119.2</ele>
        <time>2015-05-05T19:05:10.184Z</time>
      </trkpt>
      <trkpt lat="48.86683" lon="2.36875">
        <ele>119.3</ele>
        <time>2015-05-05T19:05:11.098Z</time>
      </trkpt>
      <trkpt lat="48.86687" lon="2.3687">
        <ele>119.3</ele>
        <time>2015-05-05T19:05:12.095Z</time>
      </trkpt>
      <trkpt lat="48.86691" lon="2.36864">
        <ele>119.3</ele>
        <time>2015-05-05T19:05:13.109Z</time>
      </trkpt>
      <trkpt lat="48.86696" lon="2.36859">
        <ele>119.4</ele>
        <time>2015-05-05T19:05:14.127Z</time>
      </trkpt>
      <trkpt lat="48.86701" lon="2.36855">
        <ele>119.4</ele>
        <time>2015-05-05T19:05:15.138Z</time>
      </trkpt>
      <trkpt lat="48.86706" lon="2.36851">
        <ele>119.4</ele>
        <time>2015-05-05T19:05:16.147Z</time>
      </trkpt>
      <trkpt lat="48.8671" lon="2.36847">
        <ele>119.3</ele>
        <time>2015-05-05T19:05:17.159Z</time>
      </trkpt>
      <trkpt lat="48.86715" lon="2.36843">
        <ele>119.4</ele>
        <time>2015-05-05T19:05:18.097Z</time>
      </trkpt>
      <trkpt lat="48.8672" lon="2.3684">
        <ele>119.6</ele>
        <time>2015-05-05T19:05:19.100Z</time>
      </trkpt>
      <trkpt lat="48.86724" lon="2.36837">
        <ele>119.8</ele>
        <time>2015-05-05T19:05:20.112Z</time>
      </trkpt>
      <trkpt lat="48.86732" lon="2.36831">
        <ele>120.4</ele>
        <time>2015-05-05T19:05:22.141Z</time>
      </trkpt>
      <trkpt lat="48.86736" lon="2.36829">
        <ele>120.4</ele>
        <time>2015-05-05T19:05:23.156Z</time>
      </trkpt>
      <trkpt lat="48.86743" lon="2.36824">
        <ele>120.5</ele>
        <time>2015-05-05T19:05:25.098Z</time>
      </trkpt>
      <trkpt lat="48.86746" lon="2.36822">
        <ele>120.5</ele>
        <time>2015-05-05T19:05:26.124Z</time>
      </trkpt>
      <trkpt lat="48.86754" lon="2.36816">
        <ele>120.2</ele>
        <time>2015-05-05T19:05:28.149Z</time>
      </trkpt>
      <trkpt lat="48.86759" lon="2.36815">
        <ele>120.2</ele>
        <time>2015-05-05T19:05:29.153Z</time>
      </trkpt>
      <trkpt lat="48.86763" lon="2.36813">
        <ele>120.1</ele>
        <time>2015-05-05T19:05:30.108Z</time>
      </trkpt>
      <trkpt lat="48.86768" lon="2.36811">
        <ele>120.1</ele>
        <time>2015-05-05T19:05:31.104Z</time>
      </trkpt>
      <trkpt lat="48.86776" lon="2.36806">
        <ele>119.7</ele>
        <time>2015-05-05T19:05:33.234Z</time>
      </trkpt>
      <trkpt lat="48.86781" lon="2.36804">
        <ele>119.6</ele>
        <time>2015-05-05T19:05:34.175Z</time>
      </trkpt>
      <trkpt lat="48.86785" lon="2.368">
        <ele>118.4</ele>
        <time>2015-05-05T19:05:35.118Z</time>
      </trkpt>
      <trkpt lat="48.86789" lon="2.36797">
        <ele>118.3</ele>
        <time>2015-05-05T19:05:36.131Z</time>
      </trkpt>
      <trkpt lat="48.86794" lon="2.36794">
        <ele>118.2</ele>
        <time>2015-05-05T19:05:37.234Z</time>
      </trkpt>
      <trkpt lat="48.86799" lon="2.36791">
        <ele>118</ele>
        <time>2015-05-05T19:05:38.107Z</time>
      </trkpt>
      <trkpt lat="48.86805" lon="2.36788">
        <ele>117.7</ele>
        <time>2015-05-05T19:05:39.115Z</time>
      </trkpt>
      <trkpt lat="48.8681" lon="2.36786">
        <ele>117.6</ele>
        <time>2015-05-05T19:05:40.185Z</time>
      </trkpt>
      <trkpt lat="48.86817" lon="2.36778">
        <ele>117.3</ele>
        <time>2015-05-05T19:05:42.102Z</time>
      </trkpt>
      <trkpt lat="48.86821" lon="2.36776">
        <ele>117.2</ele>
        <time>2015-05-05T19:05:43.137Z</time>
      </trkpt>
      <trkpt lat="48.86826" lon="2.36773">
        <ele>117</ele>
        <time>2015-05-05T19:05:44.182Z</time>
      </trkpt>
      <trkpt lat="48.8683" lon="2.36771">
        <ele>117.2</ele>
        <time>2015-05-05T19:05:45.196Z</time>
      </trkpt>
      <trkpt lat="48.86835" lon="2.36767">
        <ele>117.1</ele>
        <time>2015-05-05T19:05:46.230Z</time>
      </trkpt>
      <trkpt lat="48.86839" lon="2.36765">
        <ele>117.1</ele>
        <time>2015-05-05T19:05:47.076Z</time>
      </trkpt>
      <trkpt lat="48.86844" lon="2.36762">
        <ele>117.1</ele>
        <time>2015-05-05T19:05:48.164Z</time>
      </trkpt>
      <trkpt lat="48.86848" lon="2.36759">
        <ele>117.1</ele>
        <time>2015-05-05T19:05:49.163Z</time>
      </trkpt>
      <trkpt lat="48.86855" lon="2.36751">
        <ele>116.9</ele>
        <time>2015-05-05T19:05:51.125Z</time>
      </trkpt>
      <trkpt lat="48.86859" lon="2.36748">
        <ele>117</ele>
        <time>2015-05-05T19:05:52.336Z</time>
      </trkpt>
      <trkpt lat="48.86863" lon="2.36745">
        <ele>116.9</ele>
        <time>2015-05-05T19:05:53.137Z</time>
      </trkpt>
      <trkpt lat="48.86868" lon="2.36742">
        <ele>117.1</ele>
        <time>2015-05-05T19:05:54.126Z</time>
      </trkpt>
      <trkpt lat="48.86872" lon="2.36739">
        <ele>117.1</ele>
        <time>2015-05-05T19:05:55.127Z</time>
      </trkpt>
      <trkpt lat="48.86877" lon="2.36737">
        <ele>116.3</ele>
        <time>2015-05-05T19:05:56.141Z</time>
      </trkpt>
      <trkpt lat="48.86882" lon="2.36734">
        <ele>116.3</ele>
        <time>2015-05-05T19:05:57.162Z</time>
      </trkpt>
      <trkpt lat="48.86887" lon="2.3673">
        <ele>116.4</ele>
        <time>2015-05-05T19:05:58.165Z</time>
      </trkpt>
      <trkpt lat="48.86891" lon="2.36726">
        <ele>116.5</ele>
        <time>2015-05-05T19:05:59.174Z</time>
      </trkpt>
      <trkpt lat="48.86897" lon="2.36723">
        <ele>116.5</ele>
        <time>2015-05-05T19:06:00.154Z</time>
      </trkpt>
      <trkpt lat="48.86902" lon="2.36719">
        <ele>116.5</ele>
        <time>2015-05-05T19:06:01.107Z</time>
      </trkpt>
      <trkpt lat="48.86906" lon="2.36715">
        <ele>116.4</ele>
        <time>2015-05-05T19:06:02.112Z</time>
      </trkpt>
      <trkpt lat="48.86911" lon="2.3671">
        <ele>116.3</ele>
        <time>2015-05-05T19:06:03.126Z</time>
      </trkpt>
      <trkpt lat="48.86915" lon="2.36707">
        <ele>116.3</ele>
        <time>2015-05-05T19:06:04.147Z</time>
      </trkpt>
      <trkpt lat="48.8692" lon="2.36704">
        <ele>116.3</ele>
        <time>2015-05-05T19:06:05.158Z</time>
      </trkpt>
      <trkpt lat="48.86925" lon="2.36701">
        <ele>116.3</ele>
        <time>2015-05-05T19:06:06.167Z</time>
      </trkpt>
      <trkpt lat="48.8693" lon="2.367">
        <ele>116.3</ele>
        <time>2015-05-05T19:06:07.193Z</time>
      </trkpt>
      <trkpt lat="48.86934" lon="2.36696">
        <ele>116.3</ele>
        <time>2015-05-05T19:06:08.096Z</time>
      </trkpt>
      <trkpt lat="48.86939" lon="2.36693">
        <ele>116.3</ele>
        <time>2015-05-05T19:06:09.100Z</time>
      </trkpt>
      <trkpt lat="48.86943" lon="2.36689">
        <ele>116.2</ele>
        <time>2015-05-05T19:06:10.134Z</time>
      </trkpt>
      <trkpt lat="48.86947" lon="2.36685">
        <ele>116.1</ele>
        <time>2015-05-05T19:06:11.155Z</time>
      </trkpt>
      <trkpt lat="48.86951" lon="2.36683">
        <ele>115.9</ele>
        <time>2015-05-05T19:06:12.169Z</time>
      </trkpt>
      <trkpt lat="48.86955" lon="2.3668">
        <ele>115.7</ele>
        <time>2015-05-05T19:06:13.103Z</time>
      </trkpt>
      <trkpt lat="48.8696" lon="2.36677">
        <ele>115.5</ele>
        <time>2015-05-05T19:06:14.095Z</time>
      </trkpt>
      <trkpt lat="48.86965" lon="2.36674">
        <ele>115.4</ele>
        <time>2015-05-05T19:06:15.103Z</time>
      </trkpt>
      <trkpt lat="48.86969" lon="2.36671">
        <ele>115.2</ele>
        <time>2015-05-05T19:06:16.123Z</time>
      </trkpt>
      <trkpt lat="48.86977" lon="2.36665">
        <ele>114.8</ele>
        <time>2015-05-05T19:06:18.165Z</time>
      </trkpt>
      <trkpt lat="48.86982" lon="2.36662">
        <ele>114.8</ele>
        <time>2015-05-05T19:06:19.179Z</time>
      </trkpt>
      <trkpt lat="48.86987" lon="2.36658">
        <ele>114.6</ele>
        <time>2015-05-05T19:06:20.102Z</time>
      </trkpt>
      <trkpt lat="48.86992" lon="2.36656">
        <ele>114.5</ele>
        <time>2015-05-05T19:06:21.080Z</time>
      </trkpt>
      <trkpt lat="48.86997" lon="2.36652">
        <ele>114.5</ele>
        <time>2015-05-05T19:06:22.133Z</time>
      </trkpt>
      <trkpt lat="48.87002" lon="2.36649">
        <ele>114.5</ele>
        <time>2015-05-05T19:06:23.149Z</time>
      </trkpt>
      <trkpt lat="48.87007" lon="2.36646">
        <ele>114.3</ele>
        <time>2015-05-05T19:06:24.156Z</time>
      </trkpt>
      <trkpt lat="48.87012" lon="2.36642">
        <ele>114.3</ele>
        <time>2015-05-05T19:06:25.177Z</time>
      </trkpt>
      <trkpt lat="48.87015" lon="2.36639">
        <ele>114.2</ele>
        <time>2015-05-05T19:06:26.113Z</time>
      </trkpt>
      <trkpt lat="48.87019" lon="2.36634">
        <ele>114.3</ele>
        <time>2015-05-05T19:06:27.139Z</time>
      </trkpt>
      <trkpt lat="48.87023" lon="2.36629">
        <ele>114.2</ele>
        <time>2015-05-05T19:06:28.147Z</time>
      </trkpt>
      <trkpt lat="48.87029" lon="2.36625">
        <ele>114.4</ele>
        <time>2015-05-05T19:06:29.146Z</time>
      </trkpt>
      <trkpt lat="48.87033" lon="2.3662">
        <ele>114.7</ele>
        <time>2015-05-05T19:06:30.155Z</time>
      </trkpt>
      <trkpt lat="48.87038" lon="2.36616">
        <ele>115.1</ele>
        <time>2015-05-05T19:06:31.164Z</time>
      </trkpt>
      <trkpt lat="48.87042" lon="2.36611">
        <ele>115.4</ele>
        <time>2015-05-05T19:06:32.166Z</time>
      </trkpt>
      <trkpt lat="48.87046" lon="2.36607">
        <ele>115.7</ele>
        <time>2015-05-05T19:06:33.086Z</time>
      </trkpt>
      <trkpt lat="48.8705" lon="2.36603">
        <ele>116.1</ele>
        <time>2015-05-05T19:06:34.128Z</time>
      </trkpt>
      <trkpt lat="48.87054" lon="2.36599">
        <ele>116.4</ele>
        <time>2015-05-05T19:06:35.139Z</time>
      </trkpt>
      <trkpt lat="48.87058" lon="2.36594">
        <ele>116.6</ele>
        <time>2015-05-05T19:06:36.116Z</time>
      </trkpt>
      <trkpt lat="48.87062" lon="2.36591">
        <ele>116.8</ele>
        <time>2015-05-05T19:06:37.108Z</time>
      </trkpt>
      <trkpt lat="48.87066" lon="2.36587">
        <ele>117.1</ele>
        <time>2015-05-05T19:06:38.329Z</time>
      </trkpt>
      <trkpt lat="48.8707" lon="2.36583">
        <ele>117.5</ele>
        <time>2015-05-05T19:06:39.132Z</time>
      </trkpt>
      <trkpt lat="48.87074" lon="2.3658">
        <ele>117.9</ele>
        <time>2015-05-05T19:06:40.182Z</time>
      </trkpt>
      <trkpt lat="48.87079" lon="2.36576">
        <ele>118.3</ele>
        <time>2015-05-05T19:06:41.208Z</time>
      </trkpt>
      <trkpt lat="48.87083" lon="2.36573">
        <ele>118.6</ele>
        <time>2015-05-05T19:06:42.110Z</time>
      </trkpt>
      <trkpt lat="48.87087" lon="2.3657">
        <ele>118.7</ele>
        <time>2015-05-05T19:06:43.119Z</time>
      </trkpt>
      <trkpt lat="48.87094" lon="2.36564">
        <ele>119.2</ele>
        <time>2015-05-05T19:06:45.171Z</time>
      </trkpt>
      <trkpt lat="48.87099" lon="2.36561">
        <ele>119.5</ele>
        <time>2015-05-05T19:06:46.187Z</time>
      </trkpt>
      <trkpt lat="48.87103" lon="2.36558">
        <ele>119.8</ele>
        <time>2015-05-05T19:06:46.548Z</time>
      </trkpt>
      <trkpt lat="48.87107" lon="2.36553">
        <ele>120</ele>
        <time>2015-05-05T19:06:48.102Z</time>
      </trkpt>
      <trkpt lat="48.8711" lon="2.36549">
        <ele>120.3</ele>
        <time>2015-05-05T19:06:49.181Z</time>
      </trkpt>
      <trkpt lat="48.87115" lon="2.36545">
        <ele>120.6</ele>
        <time>2015-05-05T19:06:50.070Z</time>
      </trkpt>
      <trkpt lat="48.87119" lon="2.36541">
        <ele>120.6</ele>
        <time>2015-05-05T19:06:51.608Z</time>
      </trkpt>
      <trkpt lat="48.87123" lon="2.36537">
        <ele>120.8</ele>
        <time>2015-05-05T19:06:52.152Z</time>
      </trkpt>
      <trkpt lat="48.87128" lon="2.36534">
        <ele>120.9</ele>
        <time>2015-05-05T19:06:53.149Z</time>
      </trkpt>
      <trkpt lat="48.87132" lon="2.36531">
        <ele>121</ele>
        <time>2015-05-05T19:06:54.152Z</time>
      </trkpt>
      <trkpt lat="48.87136" lon="2.36528">
        <ele>121.1</ele>
        <time>2015-05-05T19:06:55.167Z</time>
      </trkpt>
      <trkpt lat="48.87142" lon="2.36525">
        <ele>121.1</ele>
        <time>2015-05-05T19:06:56.164Z</time>
      </trkpt>
      <trkpt lat="48.87147" lon="2.36523">
        <ele>120.8</ele>
        <time>2015-05-05T19:06:57.110Z</time>
      </trkpt>
      <trkpt lat="48.87152" lon="2.3652">
        <ele>120.7</ele>
        <time>2015-05-05T19:06:58.173Z</time>
      </trkpt>
      <trkpt lat="48.8716" lon="2.36514">
        <ele>120.3</ele>
        <time>2015-05-05T19:07:00.147Z</time>
      </trkpt>
      <trkpt lat="48.87163" lon="2.36511">
        <ele>120.3</ele>
        <time>2015-05-05T19:07:01.097Z</time>
      </trkpt>
      <trkpt lat="48.8717" lon="2.36503">
        <ele>119.9</ele>
        <time>2015-05-05T19:07:03.132Z</time>
      </trkpt>
      <trkpt lat="48.87176" lon="2.36499">
        <ele>119.8</ele>
        <time>2015-05-05T19:07:04.477Z</time>
      </trkpt>
      <trkpt lat="48.8718" lon="2.36496">
        <ele>119.6</ele>
        <time>2015-05-05T19:07:05.101Z</time>
      </trkpt>
      <trkpt lat="48.87184" lon="2.36493">
        <ele>119.4</ele>
        <time>2015-05-05T19:07:06.110Z</time>
      </trkpt>
      <trkpt lat="48.87193" lon="2.36491">
        <ele>119.1</ele>
        <time>2015-05-05T19:07:08.146Z</time>
      </trkpt>
      <trkpt lat="48.87196" lon="2.36491">
        <ele>119</ele>
        <time>2015-05-05T19:07:09.157Z</time>
      </trkpt>
      <trkpt lat="48.87204" lon="2.36488">
        <ele>118.9</ele>
        <time>2015-05-05T19:07:11.137Z</time>
      </trkpt>
      <trkpt lat="48.87207" lon="2.36486">
        <ele>119</ele>
        <time>2015-05-05T19:07:12.166Z</time>
      </trkpt>
      <trkpt lat="48.87213" lon="2.36481">
        <ele>118.8</ele>
        <time>2015-05-05T19:07:14.170Z</time>
      </trkpt>
      <trkpt lat="48.87218" lon="2.36479">
        <ele>118.9</ele>
        <time>2015-05-05T19:07:15.163Z</time>
      </trkpt>
      <trkpt lat="48.87222" lon="2.36476">
        <ele>118.8</ele>
        <time>2015-05-05T19:07:16.103Z</time>
      </trkpt>
      <trkpt lat="48.87226" lon="2.36473">
        <ele>118.9</ele>
        <time>2015-05-05T19:07:17.120Z</time>
      </trkpt>
      <trkpt lat="48.8723" lon="2.36469">
        <ele>119</ele>
        <time>2015-05-05T19:07:18.146Z</time>
      </trkpt>
      <trkpt lat="48.87234" lon="2.36465">
        <ele>119.1</ele>
        <time>2015-05-05T19:07:19.160Z</time>
      </trkpt>
      <trkpt lat="48.87238" lon="2.36461">
        <ele>119.2</ele>
        <time>2015-05-05T19:07:20.460Z</time>
      </trkpt>
      <trkpt lat="48.87242" lon="2.36458">
        <ele>119.5</ele>
        <time>2015-05-05T19:07:21.116Z</time>
      </trkpt>
      <trkpt lat="48.8725" lon="2.36451">
        <ele>119.7</ele>
        <time>2015-05-05T19:07:23.160Z</time>
      </trkpt>
      <trkpt lat="48.87255" lon="2.36447">
        <ele>119.8</ele>
        <time>2015-05-05T19:07:24.182Z</time>
      </trkpt>
      <trkpt lat="48.87259" lon="2.36444">
        <ele>120</ele>
        <time>2015-05-05T19:07:25.512Z</time>
      </trkpt>
      <trkpt lat="48.87263" lon="2.36441">
        <ele>120.2</ele>
        <time>2015-05-05T19:07:26.101Z</time>
      </trkpt>
      <trkpt lat="48.87269" lon="2.36435">
        <ele>120</ele>
        <time>2015-05-05T19:07:28.148Z</time>
      </trkpt>
      <trkpt lat="48.87273" lon="2.36432">
        <ele>120</ele>
        <time>2015-05-05T19:07:29.151Z</time>
      </trkpt>
      <trkpt lat="48.87277" lon="2.3643">
        <ele>120</ele>
        <time>2015-05-05T19:07:30.546Z</time>
      </trkpt>
      <trkpt lat="48.87281" lon="2.36427">
        <ele>120.1</ele>
        <time>2015-05-05T19:07:31.094Z</time>
      </trkpt>
      <trkpt lat="48.87289" lon="2.36422">
        <ele>120.7</ele>
        <time>2015-05-05T19:07:33.066Z</time>
      </trkpt>
      <trkpt lat="48.87293" lon="2.36419">
        <ele>120.7</ele>
        <time>2015-05-05T19:07:34.144Z</time>
      </trkpt>
      <trkpt lat="48.873" lon="2.36411">
        <ele>120.3</ele>
        <time>2015-05-05T19:07:36.203Z</time>
      </trkpt>
      <trkpt lat="48.87304" lon="2.36409">
        <ele>120.4</ele>
        <time>2015-05-05T19:07:37.085Z</time>
      </trkpt>
      <trkpt lat="48.87312" lon="2.36407">
        <ele>120.3</ele>
        <time>2015-05-05T19:07:39.078Z</time>
      </trkpt>
      <trkpt lat="48.87316" lon="2.36405">
        <ele>120.2</ele>
        <time>2015-05-05T19:07:40.098Z</time>
      </trkpt>
      <trkpt lat="48.87321" lon="2.36404">
        <ele>120</ele>
        <time>2015-05-05T19:07:41.104Z</time>
      </trkpt>
      <trkpt lat="48.87325" lon="2.36402">
        <ele>119.7</ele>
        <time>2015-05-05T19:07:42.107Z</time>
      </trkpt>
      <trkpt lat="48.87332" lon="2.36398">
        <ele>119.5</ele>
        <time>2015-05-05T19:07:44.131Z</time>
      </trkpt>
      <trkpt lat="48.87336" lon="2.36396">
        <ele>119.3</ele>
        <time>2015-05-05T19:07:45.140Z</time>
      </trkpt>
      <trkpt lat="48.87343" lon="2.36393">
        <ele>118.9</ele>
        <time>2015-05-05T19:07:47.171Z</time>
      </trkpt>
      <trkpt lat="48.87345" lon="2.36392">
        <ele>118.7</ele>
        <time>2015-05-05T19:07:48.070Z</time>
      </trkpt>
      <trkpt lat="48.8735" lon="2.36389">
        <ele>118.6</ele>
        <time>2015-05-05T19:07:50.103Z</time>
      </trkpt>
      <trkpt lat="48.87354" lon="2.36387">
        <ele>118.6</ele>
        <time>2015-05-05T19:07:51.111Z</time>
      </trkpt>
      <trkpt lat="48.8736" lon="2.36387">
        <ele>118.6</ele>
        <time>2015-05-05T19:07:52.124Z</time>
      </trkpt>
      <trkpt lat="48.87364" lon="2.36384">
        <ele>118.7</ele>
        <time>2015-05-05T19:07:53.132Z</time>
      </trkpt>
      <trkpt lat="48.87368" lon="2.36379">
        <ele>118.5</ele>
        <time>2015-05-05T19:07:54.142Z</time>
      </trkpt>
      <trkpt lat="48.87374" lon="2.36374">
        <ele>118.4</ele>
        <time>2015-05-05T19:07:55.096Z</time>
      </trkpt>
      <trkpt lat="48.87379" lon="2.36371">
        <ele>118.4</ele>
        <time>2015-05-05T19:07:56.090Z</time>
      </trkpt>
      <trkpt lat="48.87385" lon="2.36368">
        <ele>118.3</ele>
        <time>2015-05-05T19:07:57.157Z</time>
      </trkpt>
      <trkpt lat="48.87391" lon="2.36365">
        <ele>117.9</ele>
        <time>2015-05-05T19:07:58.450Z</time>
      </trkpt>
      <trkpt lat="48.87403" lon="2.36362">
        <ele>117.3</ele>
        <time>2015-05-05T19:07:59.118Z</time>
      </trkpt>
      <trkpt lat="48.8741" lon="2.36361">
        <ele>117.1</ele>
        <time>2015-05-05T19:08:00.145Z</time>
      </trkpt>
      <trkpt lat="48.87417" lon="2.36361">
        <ele>117</ele>
        <time>2015-05-05T19:08:01.148Z</time>
      </trkpt>
      <trkpt lat="48.87424" lon="2.36362">
        <ele>116.9</ele>
        <time>2015-05-05T19:08:02.164Z</time>
      </trkpt>
      <trkpt lat="48.8743" lon="2.36363">
        <ele>116.9</ele>
        <time>2015-05-05T19:08:03.081Z</time>
      </trkpt>
      <trkpt lat="48.87435" lon="2.36365">
        <ele>116.8</ele>
        <time>2015-05-05T19:08:04.104Z</time>
      </trkpt>
      <trkpt lat="48.87439" lon="2.36366">
        <ele>116.6</ele>
        <time>2015-05-05T19:08:05.109Z</time>
      </trkpt>
      <trkpt lat="48.87444" lon="2.36368">
        <ele>116.2</ele>
        <time>2015-05-05T19:08:06.137Z</time>
      </trkpt>
      <trkpt lat="48.87448" lon="2.36371">
        <ele>115.9</ele>
        <time>2015-05-05T19:08:07.143Z</time>
      </trkpt>
      <trkpt lat="48.87454" lon="2.36375">
        <ele>114.5</ele>
        <time>2015-05-05T19:08:08.178Z</time>
      </trkpt>
      <trkpt lat="48.87461" lon="2.36382">
        <ele>112.1</ele>
        <time>2015-05-05T19:08:09.093Z</time>
      </trkpt>
      <trkpt lat="48.87467" lon="2.36385">
        <ele>110.9</ele>
        <time>2015-05-05T19:08:10.223Z</time>
      </trkpt>
      <trkpt lat="48.87472" lon="2.36389">
        <ele>109.8</ele>
        <time>2015-05-05T19:08:11.113Z</time>
      </trkpt>
      <trkpt lat="48.87478" lon="2.36393">
        <ele>108.8</ele>
        <time>2015-05-05T19:08:12.118Z</time>
      </trkpt>
      <trkpt lat="48.87482" lon="2.36396">
        <ele>108.5</ele>
        <time>2015-05-05T19:08:13.116Z</time>
      </trkpt>
      <trkpt lat="48.87487" lon="2.364">
        <ele>107.6</ele>
        <time>2015-05-05T19:08:14.123Z</time>
      </trkpt>
      <trkpt lat="48.87491" lon="2.36403">
        <ele>107.4</ele>
        <time>2015-05-05T19:08:15.128Z</time>
      </trkpt>
      <trkpt lat="48.87496" lon="2.36406">
        <ele>106.8</ele>
        <time>2015-05-05T19:08:16.138Z</time>
      </trkpt>
      <trkpt lat="48.87502" lon="2.36409">
        <ele>106.2</ele>
        <time>2015-05-05T19:08:17.305Z</time>
      </trkpt>
      <trkpt lat="48.87507" lon="2.36412">
        <ele>106.1</ele>
        <time>2015-05-05T19:08:18.177Z</time>
      </trkpt>
      <trkpt lat="48.87511" lon="2.36414">
        <ele>105.8</ele>
        <time>2015-05-05T19:08:19.090Z</time>
      </trkpt>
      <trkpt lat="48.87516" lon="2.36417">
        <ele>105.7</ele>
        <time>2015-05-05T19:08:20.096Z</time>
      </trkpt>
      <trkpt lat="48.8752" lon="2.36419">
        <ele>105.5</ele>
        <time>2015-05-05T19:08:21.109Z</time>
      </trkpt>
      <trkpt lat="48.87525" lon="2.36421">
        <ele>105.3</ele>
        <time>2015-05-05T19:08:22.132Z</time>
      </trkpt>
      <trkpt lat="48.87531" lon="2.36424">
        <ele>105</ele>
        <time>2015-05-05T19:08:23.129Z</time>
      </trkpt>
      <trkpt lat="48.87535" lon="2.36427">
        <ele>104.8</ele>
        <time>2015-05-05T19:08:24.134Z</time>
      </trkpt>
      <trkpt lat="48.87541" lon="2.36431">
        <ele>104.5</ele>
        <time>2015-05-05T19:08:25.151Z</time>
      </trkpt>
      <trkpt lat="48.87546" lon="2.36434">
        <ele>104</ele>
        <time>2015-05-05T19:08:26.163Z</time>
      </trkpt>
      <trkpt lat="48.87551" lon="2.36437">
        <ele>103.9</ele>
        <time>2015-05-05T19:08:27.170Z</time>
      </trkpt>
      <trkpt lat="48.87555" lon="2.36441">
        <ele>103.7</ele>
        <time>2015-05-05T19:08:28.165Z</time>
      </trkpt>
      <trkpt lat="48.8756" lon="2.36444">
        <ele>103.8</ele>
        <time>2015-05-05T19:08:29.091Z</time>
      </trkpt>
      <trkpt lat="48.87564" lon="2.36448">
        <ele>103.6</ele>
        <time>2015-05-05T19:08:30.321Z</time>
      </trkpt>
      <trkpt lat="48.87569" lon="2.3645">
        <ele>103.3</ele>
        <time>2015-05-05T19:08:31.100Z</time>
      </trkpt>
      <trkpt lat="48.87573" lon="2.36452">
        <ele>103.1</ele>
        <time>2015-05-05T19:08:32.105Z</time>
      </trkpt>
      <trkpt lat="48.87579" lon="2.36454">
        <ele>103.2</ele>
        <time>2015-05-05T19:08:33.125Z</time>
      </trkpt>
      <trkpt lat="48.87584" lon="2.36456">
        <ele>103.2</ele>
        <time>2015-05-05T19:08:34.149Z</time>
      </trkpt>
      <trkpt lat="48.87589" lon="2.36458">
        <ele>102.4</ele>
        <time>2015-05-05T19:08:35.154Z</time>
      </trkpt>
      <trkpt lat="48.87593" lon="2.36462">
        <ele>102.1</ele>
        <time>2015-05-05T19:08:36.197Z</time>
      </trkpt>
      <trkpt lat="48.87598" lon="2.36466">
        <ele>101.9</ele>
        <time>2015-05-05T19:08:37.103Z</time>
      </trkpt>
      <trkpt lat="48.87603" lon="2.3647">
        <ele>101.8</ele>
        <time>2015-05-05T19:08:38.138Z</time>
      </trkpt>
      <trkpt lat="48.87608" lon="2.36473">
        <ele>101.7</ele>
        <time>2015-05-05T19:08:39.155Z</time>
      </trkpt>
      <trkpt lat="48.87613" lon="2.36477">
        <ele>101.5</ele>
        <time>2015-05-05T19:08:40.163Z</time>
      </trkpt>
      <trkpt lat="48.87617" lon="2.36481">
        <ele>101.5</ele>
        <time>2015-05-05T19:08:41.172Z</time>
      </trkpt>
      <trkpt lat="48.87622" lon="2.36486">
        <ele>101.4</ele>
        <time>2015-05-05T19:08:42.182Z</time>
      </trkpt>
      <trkpt lat="48.87627" lon="2.36491">
        <ele>101.3</ele>
        <time>2015-05-05T19:08:43.101Z</time>
      </trkpt>
      <trkpt lat="48.87634" lon="2.36494">
        <ele>100.3</ele>
        <time>2015-05-05T19:08:44.113Z</time>
      </trkpt>
      <trkpt lat="48.87639" lon="2.36499">
        <ele>99.7</ele>
        <time>2015-05-05T19:08:45.118Z</time>
      </trkpt>
      <trkpt lat="48.87645" lon="2.36503">
        <ele>99.4</ele>
        <time>2015-05-05T19:08:46.146Z</time>
      </trkpt>
      <trkpt lat="48.87651" lon="2.36508">
        <ele>99.1</ele>
        <time>2015-05-05T19:08:47.152Z</time>
      </trkpt>
      <trkpt lat="48.87657" lon="2.36512">
        <ele>98.8</ele>
        <time>2015-05-05T19:08:48.160Z</time>
      </trkpt>
      <trkpt lat="48.87663" lon="2.36517">
        <ele>98.3</ele>
        <time>2015-05-05T19:08:49.168Z</time>
      </trkpt>
      <trkpt lat="48.87669" lon="2.36522">
        <ele>98.1</ele>
        <time>2015-05-05T19:08:50.179Z</time>
      </trkpt>
      <trkpt lat="48.87676" lon="2.36528">
        <ele>97.8</ele>
        <time>2015-05-05T19:08:51.187Z</time>
      </trkpt>
      <trkpt lat="48.87682" lon="2.36533">
        <ele>97.9</ele>
        <time>2015-05-05T19:08:52.200Z</time>
      </trkpt>
      <trkpt lat="48.87689" lon="2.36538">
        <ele>97.9</ele>
        <time>2015-05-05T19:08:53.115Z</time>
      </trkpt>
      <trkpt lat="48.87695" lon="2.36542">
        <ele>97.9</ele>
        <time>2015-05-05T19:08:54.112Z</time>
      </trkpt>
      <trkpt lat="48.877" lon="2.36547">
        <ele>98</ele>
        <time>2015-05-05T19:08:55.111Z</time>
      </trkpt>
      <trkpt lat="48.87706" lon="2.36552">
        <ele>98.3</ele>
        <time>2015-05-05T19:08:56.123Z</time>
      </trkpt>
      <trkpt lat="48.87711" lon="2.36557">
        <ele>98</ele>
        <time>2015-05-05T19:08:57.134Z</time>
      </trkpt>
      <trkpt lat="48.87718" lon="2.36561">
        <ele>98.1</ele>
        <time>2015-05-05T19:08:58.167Z</time>
      </trkpt>
      <trkpt lat="48.87723" lon="2.36566">
        <ele>98.4</ele>
        <time>2015-05-05T19:08:59.187Z</time>
      </trkpt>
      <trkpt lat="48.87728" lon="2.3657">
        <ele>98.5</ele>
        <time>2015-05-05T19:09:00.086Z</time>
      </trkpt>
      <trkpt lat="48.87732" lon="2.36574">
        <ele>98.7</ele>
        <time>2015-05-05T19:09:01.084Z</time>
      </trkpt>
      <trkpt lat="48.87738" lon="2.36581">
        <ele>99.1</ele>
        <time>2015-05-05T19:09:03.112Z</time>
      </trkpt>
      <trkpt lat="48.8774" lon="2.36585">
        <ele>99.3</ele>
        <time>2015-05-05T19:09:04.177Z</time>
      </trkpt>
      <trkpt lat="48.87742" lon="2.36592">
        <ele>100.3</ele>
        <time>2015-05-05T19:09:07.107Z</time>
      </trkpt>
      <trkpt lat="48.87741" lon="2.36592">
        <ele>100.1</ele>
        <time>2015-05-05T19:09:08.113Z</time>
      </trkpt>
      <trkpt lat="48.87741" lon="2.36592">
        <ele>99.8</ele>
        <time>2015-05-05T19:09:09.148Z</time>
      </trkpt>
      <trkpt lat="48.87741" lon="2.36592">
        <ele>100</ele>
        <time>2015-05-05T19:09:10.154Z</time>
      </trkpt>
      <trkpt lat="48.87741" lon="2.36589">
        <ele>99.9</ele>
        <time>2015-05-05T19:09:14.125Z</time>
      </trkpt>
      <trkpt lat="48.8774" lon="2.36588">
        <ele>99.9</ele>
        <time>2015-05-05T19:09:15.138Z</time>
      </trkpt>
      <trkpt lat="48.8774" lon="2.36589">
        <ele>99.8</ele>
        <time>2015-05-05T19:09:53.151Z</time>
      </trkpt>
      <trkpt lat="48.87737" lon="2.36581">
        <ele>101.3</ele>
        <time>2015-05-05T19:09:54.165Z</time>
      </trkpt>
      <trkpt lat="48.87731" lon="2.36581">
        <ele>103.3</ele>
        <time>2015-05-05T19:10:11.157Z</time>
      </trkpt>
      <trkpt lat="48.87731" lon="2.36581">
        <ele>103.3</ele>
        <time>2015-05-05T19:10:12.162Z</time>
      </trkpt>
      <trkpt lat="48.87731" lon="2.36582">
        <ele>103.4</ele>
        <time>2015-05-05T19:10:35.126Z</time>
      </trkpt>
      <trkpt lat="48.87726" lon="2.36583">
        <ele>104</ele>
        <time>2015-05-05T19:10:36.190Z</time>
      </trkpt>
      <trkpt lat="48.87725" lon="2.36583">
        <ele>104</ele>
        <time>2015-05-05T19:10:37.102Z</time>
      </trkpt>
      <trkpt lat="48.87725" lon="2.36583">
        <ele>104</ele>
        <time>2015-05-05T19:10:38.150Z</time>
      </trkpt>
      <trkpt lat="48.87725" lon="2.36584">
        <ele>104</ele>
        <time>2015-05-05T19:10:39.157Z</time>
      </trkpt>
      <trkpt lat="48.87725" lon="2.36584">
        <ele>104.2</ele>
        <time>2015-05-05T19:10:40.153Z</time>
      </trkpt>
      <trkpt lat="48.87725" lon="2.36584">
        <ele>104.4</ele>
        <time>2015-05-05T19:10:41.102Z</time>
      </trkpt>
      <trkpt lat="48.87724" lon="2.36585">
        <ele>104.5</ele>
        <time>2015-05-05T19:10:42.068Z</time>
      </trkpt>
      <trkpt lat="48.87724" lon="2.36585">
        <ele>104.5</ele>
        <time>2015-05-05T19:10:43.122Z</time>
      </trkpt>
      <trkpt lat="48.87724" lon="2.36586">
        <ele>104.7</ele>
        <time>2015-05-05T19:10:44.104Z</time>
      </trkpt>
      <trkpt lat="48.87723" lon="2.36586">
        <ele>104.8</ele>
        <time>2015-05-05T19:10:49.075Z</time>
      </trkpt>
      <trkpt lat="48.87723" lon="2.36586">
        <ele>105.3</ele>
        <time>2015-05-05T19:10:50.130Z</time>
      </trkpt>
      <trkpt lat="48.87722" lon="2.36584">
        <ele>105.5</ele>
        <time>2015-05-05T19:10:52.135Z</time>
      </trkpt>
      <trkpt lat="48.87722" lon="2.36584">
        <ele>105.6</ele>
        <time>2015-05-05T19:10:53.147Z</time>
      </trkpt>
      <trkpt lat="48.87722" lon="2.36584">
        <ele>105.8</ele>
        <time>2015-05-05T19:10:57.194Z</time>
      </trkpt>
      <trkpt lat="48.87723" lon="2.36585">
        <ele>106.1</ele>
        <time>2015-05-05T19:10:58.170Z</time>
      </trkpt>
      <trkpt lat="48.87732" lon="2.36589">
        <ele>106.1</ele>
        <time>2015-05-05T19:11:02.132Z</time>
      </trkpt>
      <trkpt lat="48.87735" lon="2.3659">
        <ele>106.4</ele>
        <time>2015-05-05T19:11:03.191Z</time>
      </trkpt>
      <trkpt lat="48.87741" lon="2.36595">
        <ele>106.7</ele>
        <time>2015-05-05T19:11:05.057Z</time>
      </trkpt>
      <trkpt lat="48.87744" lon="2.36598">
        <ele>106.7</ele>
        <time>2015-05-05T19:11:06.161Z</time>
      </trkpt>
      <trkpt lat="48.87752" lon="2.36603">
        <ele>105.9</ele>
        <time>2015-05-05T19:11:08.151Z</time>
      </trkpt>
      <trkpt lat="48.87756" lon="2.36606">
        <ele>105.4</ele>
        <time>2015-05-05T19:11:09.131Z</time>
      </trkpt>
      <trkpt lat="48.87761" lon="2.36609">
        <ele>104.8</ele>
        <time>2015-05-05T19:11:10.152Z</time>
      </trkpt>
      <trkpt lat="48.87766" lon="2.36613">
        <ele>104.5</ele>
        <time>2015-05-05T19:11:11.161Z</time>
      </trkpt>
      <trkpt lat="48.87771" lon="2.36616">
        <ele>104.2</ele>
        <time>2015-05-05T19:11:12.150Z</time>
      </trkpt>
      <trkpt lat="48.87776" lon="2.36619">
        <ele>104.2</ele>
        <time>2015-05-05T19:11:13.186Z</time>
      </trkpt>
      <trkpt lat="48.87779" lon="2.36622">
        <ele>104.1</ele>
        <time>2015-05-05T19:11:14.155Z</time>
      </trkpt>
      <trkpt lat="48.87784" lon="2.36625">
        <ele>103.9</ele>
        <time>2015-05-05T19:11:15.163Z</time>
      </trkpt>
      <trkpt lat="48.87791" lon="2.36631">
        <ele>103.7</ele>
        <time>2015-05-05T19:11:17.119Z</time>
      </trkpt>
      <trkpt lat="48.87795" lon="2.36634">
        <ele>103.7</ele>
        <time>2015-05-05T19:11:18.113Z</time>
      </trkpt>
      <trkpt lat="48.87799" lon="2.36638">
        <ele>103.5</ele>
        <time>2015-05-05T19:11:19.120Z</time>
      </trkpt>
      <trkpt lat="48.87804" lon="2.36641">
        <ele>103.5</ele>
        <time>2015-05-05T19:11:20.152Z</time>
      </trkpt>
      <trkpt lat="48.87809" lon="2.36644">
        <ele>103.4</ele>
        <time>2015-05-05T19:11:21.103Z</time>
      </trkpt>
      <trkpt lat="48.87814" lon="2.36648">
        <ele>103.3</ele>
        <time>2015-05-05T19:11:22.148Z</time>
      </trkpt>
      <trkpt lat="48.8782" lon="2.36651">
        <ele>103.3</ele>
        <time>2015-05-05T19:11:23.150Z</time>
      </trkpt>
      <trkpt lat="48.87829" lon="2.36657">
        <ele>101.8</ele>
        <time>2015-05-05T19:11:24.155Z</time>
      </trkpt>
      <trkpt lat="48.87837" lon="2.36661">
        <ele>101.3</ele>
        <time>2015-05-05T19:11:25.185Z</time>
      </trkpt>
      <trkpt lat="48.87843" lon="2.36665">
        <ele>100.9</ele>
        <time>2015-05-05T19:11:26.131Z</time>
      </trkpt>
      <trkpt lat="48.87848" lon="2.36669">
        <ele>100.6</ele>
        <time>2015-05-05T19:11:27.111Z</time>
      </trkpt>
      <trkpt lat="48.87853" lon="2.36674">
        <ele>100.4</ele>
        <time>2015-05-05T19:11:28.132Z</time>
      </trkpt>
      <trkpt lat="48.87858" lon="2.3668">
        <ele>100.1</ele>
        <time>2015-05-05T19:11:29.169Z</time>
      </trkpt>
      <trkpt lat="48.87864" lon="2.36685">
        <ele>99.7</ele>
        <time>2015-05-05T19:11:30.164Z</time>
      </trkpt>
      <trkpt lat="48.87869" lon="2.3669">
        <ele>99.2</ele>
        <time>2015-05-05T19:11:31.103Z</time>
      </trkpt>
      <trkpt lat="48.87874" lon="2.36694">
        <ele>99</ele>
        <time>2015-05-05T19:11:32.111Z</time>
      </trkpt>
      <trkpt lat="48.87879" lon="2.36699">
        <ele>98.8</ele>
        <time>2015-05-05T19:11:33.127Z</time>
      </trkpt>
      <trkpt lat="48.87884" lon="2.36703">
        <ele>98.5</ele>
        <time>2015-05-05T19:11:34.197Z</time>
      </trkpt>
      <trkpt lat="48.87889" lon="2.36708">
        <ele>98.6</ele>
        <time>2015-05-05T19:11:35.176Z</time>
      </trkpt>
      <trkpt lat="48.87894" lon="2.36712">
        <ele>98.2</ele>
        <time>2015-05-05T19:11:36.116Z</time>
      </trkpt>
      <trkpt lat="48.87898" lon="2.36716">
        <ele>98.1</ele>
        <time>2015-05-05T19:11:37.090Z</time>
      </trkpt>
      <trkpt lat="48.87903" lon="2.36719">
        <ele>97.7</ele>
        <time>2015-05-05T19:11:38.108Z</time>
      </trkpt>
      <trkpt lat="48.87907" lon="2.36723">
        <ele>97.7</ele>
        <time>2015-05-05T19:11:39.147Z</time>
      </trkpt>
      <trkpt lat="48.87911" lon="2.36726">
        <ele>97.7</ele>
        <time>2015-05-05T19:11:40.171Z</time>
      </trkpt>
      <trkpt lat="48.87916" lon="2.3673">
        <ele>97.6</ele>
        <time>2015-05-05T19:11:41.186Z</time>
      </trkpt>
      <trkpt lat="48.87921" lon="2.36734">
        <ele>97.7</ele>
        <time>2015-05-05T19:11:42.094Z</time>
      </trkpt>
      <trkpt lat="48.87926" lon="2.36737">
        <ele>97.6</ele>
        <time>2015-05-05T19:11:43.123Z</time>
      </trkpt>
      <trkpt lat="48.8793" lon="2.3674">
        <ele>97.9</ele>
        <time>2015-05-05T19:11:44.124Z</time>
      </trkpt>
      <trkpt lat="48.87935" lon="2.36744">
        <ele>98.3</ele>
        <time>2015-05-05T19:11:45.137Z</time>
      </trkpt>
      <trkpt lat="48.87939" lon="2.36747">
        <ele>98.6</ele>
        <time>2015-05-05T19:11:46.150Z</time>
      </trkpt>
      <trkpt lat="48.87945" lon="2.36749">
        <ele>98.8</ele>
        <time>2015-05-05T19:11:47.191Z</time>
      </trkpt>
      <trkpt lat="48.87949" lon="2.36751">
        <ele>99.1</ele>
        <time>2015-05-05T19:11:48.094Z</time>
      </trkpt>
      <trkpt lat="48.87955" lon="2.3676">
        <ele>99.8</ele>
        <time>2015-05-05T19:11:50.160Z</time>
      </trkpt>
      <trkpt lat="48.87957" lon="2.36765">
        <ele>100.2</ele>
        <time>2015-05-05T19:11:51.178Z</time>
      </trkpt>
      <trkpt lat="48.87958" lon="2.36778">
        <ele>101.3</ele>
        <time>2015-05-05T19:11:54.104Z</time>
      </trkpt>
      <trkpt lat="48.87959" lon="2.36782">
        <ele>101.4</ele>
        <time>2015-05-05T19:11:55.111Z</time>
      </trkpt>
      <trkpt lat="48.87961" lon="2.36792">
        <ele>101.3</ele>
        <time>2015-05-05T19:11:57.147Z</time>
      </trkpt>
      <trkpt lat="48.87963" lon="2.36797">
        <ele>101.2</ele>
        <time>2015-05-05T19:11:58.176Z</time>
      </trkpt>
      <trkpt lat="48.87969" lon="2.36807">
        <ele>101.4</ele>
        <time>2015-05-05T19:12:00.173Z</time>
      </trkpt>
      <trkpt lat="48.87972" lon="2.3681">
        <ele>101.6</ele>
        <time>2015-05-05T19:12:01.088Z</time>
      </trkpt>
      <trkpt lat="48.87976" lon="2.36814">
        <ele>101.5</ele>
        <time>2015-05-05T19:12:02.092Z</time>
      </trkpt>
      <trkpt lat="48.87981" lon="2.36817">
        <ele>101.7</ele>
        <time>2015-05-05T19:12:03.122Z</time>
      </trkpt>
      <trkpt lat="48.87985" lon="2.36821">
        <ele>101.8</ele>
        <time>2015-05-05T19:12:04.160Z</time>
      </trkpt>
      <trkpt lat="48.8799" lon="2.36826">
        <ele>102</ele>
        <time>2015-05-05T19:12:05.088Z</time>
      </trkpt>
      <trkpt lat="48.87994" lon="2.3683">
        <ele>102.1</ele>
        <time>2015-05-05T19:12:06.083Z</time>
      </trkpt>
      <trkpt lat="48.87998" lon="2.36835">
        <ele>102.2</ele>
        <time>2015-05-05T19:12:07.099Z</time>
      </trkpt>
      <trkpt lat="48.88002" lon="2.36839">
        <ele>102.2</ele>
        <time>2015-05-05T19:12:08.115Z</time>
      </trkpt>
      <trkpt lat="48.88006" lon="2.36843">
        <ele>102.2</ele>
        <time>2015-05-05T19:12:09.137Z</time>
      </trkpt>
      <trkpt lat="48.88009" lon="2.36848">
        <ele>102.2</ele>
        <time>2015-05-05T19:12:10.155Z</time>
      </trkpt>
      <trkpt lat="48.88013" lon="2.36853">
        <ele>102.4</ele>
        <time>2015-05-05T19:12:11.163Z</time>
      </trkpt>
      <trkpt lat="48.88017" lon="2.36858">
        <ele>102.6</ele>
        <time>2015-05-05T19:12:12.179Z</time>
      </trkpt>
      <trkpt lat="48.88022" lon="2.36863">
        <ele>102.6</ele>
        <time>2015-05-05T19:12:13.091Z</time>
      </trkpt>
      <trkpt lat="48.88027" lon="2.36867">
        <ele>102.6</ele>
        <time>2015-05-05T19:12:14.069Z</time>
      </trkpt>
      <trkpt lat="48.88032" lon="2.36871">
        <ele>102.8</ele>
        <time>2015-05-05T19:12:15.107Z</time>
      </trkpt>
      <trkpt lat="48.88037" lon="2.36875">
        <ele>102.7</ele>
        <time>2015-05-05T19:12:16.142Z</time>
      </trkpt>
      <trkpt lat="48.88042" lon="2.36879">
        <ele>102.7</ele>
        <time>2015-05-05T19:12:17.148Z</time>
      </trkpt>
      <trkpt lat="48.88047" lon="2.36883">
        <ele>102.6</ele>
        <time>2015-05-05T19:12:18.157Z</time>
      </trkpt>
      <trkpt lat="48.88052" lon="2.36887">
        <ele>102.6</ele>
        <time>2015-05-05T19:12:19.162Z</time>
      </trkpt>
      <trkpt lat="48.88056" lon="2.36892">
        <ele>102.8</ele>
        <time>2015-05-05T19:12:20.155Z</time>
      </trkpt>
      <trkpt lat="48.88061" lon="2.36896">
        <ele>102.9</ele>
        <time>2015-05-05T19:12:21.161Z</time>
      </trkpt>
      <trkpt lat="48.88065" lon="2.369">
        <ele>102.8</ele>
        <time>2015-05-05T19:12:22.202Z</time>
      </trkpt>
      <trkpt lat="48.8807" lon="2.36904">
        <ele>102.9</ele>
        <time>2015-05-05T19:12:23.105Z</time>
      </trkpt>
      <trkpt lat="48.88074" lon="2.36908">
        <ele>103</ele>
        <time>2015-05-05T19:12:24.113Z</time>
      </trkpt>
      <trkpt lat="48.88078" lon="2.36912">
        <ele>103</ele>
        <time>2015-05-05T19:12:25.117Z</time>
      </trkpt>
      <trkpt lat="48.88082" lon="2.36916">
        <ele>103.1</ele>
        <time>2015-05-05T19:12:26.125Z</time>
      </trkpt>
      <trkpt lat="48.88085" lon="2.36922">
        <ele>103.3</ele>
        <time>2015-05-05T19:12:27.137Z</time>
      </trkpt>
      <trkpt lat="48.88089" lon="2.36926">
        <ele>103.2</ele>
        <time>2015-05-05T19:12:28.174Z</time>
      </trkpt>
      <trkpt lat="48.88092" lon="2.36931">
        <ele>103</ele>
        <time>2015-05-05T19:12:29.183Z</time>
      </trkpt>
      <trkpt lat="48.881" lon="2.36937">
        <ele>103.2</ele>
        <time>2015-05-05T19:12:31.113Z</time>
      </trkpt>
      <trkpt lat="48.88104" lon="2.3694">
        <ele>103.4</ele>
        <time>2015-05-05T19:12:32.149Z</time>
      </trkpt>
      <trkpt lat="48.88109" lon="2.36943">
        <ele>103.2</ele>
        <time>2015-05-05T19:12:33.186Z</time>
      </trkpt>
      <trkpt lat="48.88113" lon="2.36947">
        <ele>103.2</ele>
        <time>2015-05-05T19:12:34.197Z</time>
      </trkpt>
      <trkpt lat="48.88117" lon="2.36951">
        <ele>103.3</ele>
        <time>2015-05-05T19:12:35.096Z</time>
      </trkpt>
      <trkpt lat="48.88121" lon="2.36954">
        <ele>103.4</ele>
        <time>2015-05-05T19:12:36.097Z</time>
      </trkpt>
      <trkpt lat="48.88128" lon="2.3696">
        <ele>104.2</ele>
        <time>2015-05-05T19:12:38.159Z</time>
      </trkpt>
      <trkpt lat="48.88131" lon="2.36964">
        <ele>104.5</ele>
        <time>2015-05-05T19:12:39.181Z</time>
      </trkpt>
      <trkpt lat="48.88134" lon="2.36971">
        <ele>104.5</ele>
        <time>2015-05-05T19:12:40.168Z</time>
      </trkpt>
      <trkpt lat="48.88137" lon="2.36976">
        <ele>104.4</ele>
        <time>2015-05-05T19:12:41.078Z</time>
      </trkpt>
      <trkpt lat="48.8814" lon="2.36981">
        <ele>104.4</ele>
        <time>2015-05-05T19:12:42.122Z</time>
      </trkpt>
      <trkpt lat="48.88143" lon="2.36989">
        <ele>105.4</ele>
        <time>2015-05-05T19:12:43.150Z</time>
      </trkpt>
      <trkpt lat="48.88146" lon="2.36998">
        <ele>107.6</ele>
        <time>2015-05-05T19:12:44.155Z</time>
      </trkpt>
      <trkpt lat="48.88147" lon="2.37002">
        <ele>108</ele>
        <time>2015-05-05T19:12:45.159Z</time>
      </trkpt>
      <trkpt lat="48.88153" lon="2.37009">
        <ele>108.8</ele>
        <time>2015-05-05T19:12:47.089Z</time>
      </trkpt>
      <trkpt lat="48.88156" lon="2.37015">
        <ele>108.8</ele>
        <time>2015-05-05T19:12:48.115Z</time>
      </trkpt>
      <trkpt lat="48.88162" lon="2.37024">
        <ele>109.5</ele>
        <time>2015-05-05T19:12:50.094Z</time>
      </trkpt>
      <trkpt lat="48.88166" lon="2.37025">
        <ele>109.5</ele>
        <time>2015-05-05T19:12:51.116Z</time>
      </trkpt>
      <trkpt lat="48.88174" lon="2.37026">
        <ele>110</ele>
        <time>2015-05-05T19:12:53.167Z</time>
      </trkpt>
      <trkpt lat="48.88178" lon="2.37027">
        <ele>110.1</ele>
        <time>2015-05-05T19:12:54.183Z</time>
      </trkpt>
      <trkpt lat="48.88187" lon="2.37028">
        <ele>110.5</ele>
        <time>2015-05-05T19:12:56.128Z</time>
      </trkpt>
      <trkpt lat="48.8819" lon="2.37027">
        <ele>110.6</ele>
        <time>2015-05-05T19:12:57.145Z</time>
      </trkpt>
      <trkpt lat="48.88198" lon="2.37026">
        <ele>110.7</ele>
        <time>2015-05-05T19:12:59.090Z</time>
      </trkpt>
      <trkpt lat="48.88202" lon="2.37024">
        <ele>110.8</ele>
        <time>2015-05-05T19:13:00.208Z</time>
      </trkpt>
      <trkpt lat="48.88209" lon="2.37021">
        <ele>111.1</ele>
        <time>2015-05-05T19:13:02.117Z</time>
      </trkpt>
      <trkpt lat="48.88211" lon="2.37019">
        <ele>111.2</ele>
        <time>2015-05-05T19:13:03.198Z</time>
      </trkpt>
      <trkpt lat="48.88216" lon="2.3702">
        <ele>111.3</ele>
        <time>2015-05-05T19:13:04.216Z</time>
      </trkpt>
      <trkpt lat="48.88221" lon="2.37021">
        <ele>111.2</ele>
        <time>2015-05-05T19:13:05.078Z</time>
      </trkpt>
      <trkpt lat="48.88228" lon="2.37023">
        <ele>111.3</ele>
        <time>2015-05-05T19:13:07.088Z</time>
      </trkpt>
      <trkpt lat="48.88234" lon="2.37025">
        <ele>111.4</ele>
        <time>2015-05-05T19:13:08.113Z</time>
      </trkpt>
      <trkpt lat="48.88241" lon="2.37026">
        <ele>111.7</ele>
        <time>2015-05-05T19:13:10.141Z</time>
      </trkpt>
      <trkpt lat="48.88244" lon="2.37026">
        <ele>112</ele>
        <time>2015-05-05T19:13:11.099Z</time>
      </trkpt>
      <trkpt lat="48.88253" lon="2.37024">
        <ele>112.7</ele>
        <time>2015-05-05T19:13:14.124Z</time>
      </trkpt>
      <trkpt lat="48.88256" lon="2.37022">
        <ele>113</ele>
        <time>2015-05-05T19:13:15.140Z</time>
      </trkpt>
      <trkpt lat="48.88262" lon="2.3702">
        <ele>113.6</ele>
        <time>2015-05-05T19:13:17.089Z</time>
      </trkpt>
      <trkpt lat="48.88266" lon="2.37019">
        <ele>113.7</ele>
        <time>2015-05-05T19:13:18.114Z</time>
      </trkpt>
      <trkpt lat="48.88273" lon="2.37016">
        <ele>114.1</ele>
        <time>2015-05-05T19:13:20.162Z</time>
      </trkpt>
      <trkpt lat="48.88276" lon="2.37015">
        <ele>114.2</ele>
        <time>2015-05-05T19:13:21.243Z</time>
      </trkpt>
      <trkpt lat="48.88283" lon="2.37011">
        <ele>114.1</ele>
        <time>2015-05-05T19:13:23.183Z</time>
      </trkpt>
      <trkpt lat="48.88286" lon="2.37009">
        <ele>114.3</ele>
        <time>2015-05-05T19:13:24.201Z</time>
      </trkpt>
      <trkpt lat="48.88293" lon="2.37006">
        <ele>114.3</ele>
        <time>2015-05-05T19:13:26.191Z</time>
      </trkpt>
      <trkpt lat="48.88297" lon="2.37003">
        <ele>114.4</ele>
        <time>2015-05-05T19:13:27.147Z</time>
      </trkpt>
      <trkpt lat="48.88301" lon="2.36998">
        <ele>114.6</ele>
        <time>2015-05-05T19:13:28.169Z</time>
      </trkpt>
      <trkpt lat="48.88305" lon="2.36993">
        <ele>115.1</ele>
        <time>2015-05-05T19:13:29.176Z</time>
      </trkpt>
      <trkpt lat="48.88311" lon="2.36986">
        <ele>115.4</ele>
        <time>2015-05-05T19:13:31.097Z</time>
      </trkpt>
      <trkpt lat="48.88315" lon="2.36984">
        <ele>115.5</ele>
        <time>2015-05-05T19:13:32.106Z</time>
      </trkpt>
      <trkpt lat="48.88323" lon="2.36979">
        <ele>115.5</ele>
        <time>2015-05-05T19:13:34.192Z</time>
      </trkpt>
      <trkpt lat="48.88326" lon="2.36977">
        <ele>115.6</ele>
        <time>2015-05-05T19:13:35.097Z</time>
      </trkpt>
      <trkpt lat="48.88332" lon="2.36973">
        <ele>115.9</ele>
        <time>2015-05-05T19:13:37.134Z</time>
      </trkpt>
      <trkpt lat="48.88335" lon="2.36971">
        <ele>116</ele>
        <time>2015-05-05T19:13:38.155Z</time>
      </trkpt>
      <trkpt lat="48.88341" lon="2.36962">
        <ele>116.5</ele>
        <time>2015-05-05T19:13:41.091Z</time>
      </trkpt>
      <trkpt lat="48.88343" lon="2.36958">
        <ele>116.6</ele>
        <time>2015-05-05T19:13:42.099Z</time>
      </trkpt>
      <trkpt lat="48.88342" lon="2.36949">
        <ele>116.8</ele>
        <time>2015-05-05T19:13:44.102Z</time>
      </trkpt>
      <trkpt lat="48.88341" lon="2.36943">
        <ele>117</ele>
        <time>2015-05-05T19:13:45.102Z</time>
      </trkpt>
      <trkpt lat="48.8834" lon="2.3694">
        <ele>116.9</ele>
        <time>2015-05-05T19:13:46.146Z</time>
      </trkpt>
      <trkpt lat="48.88339" lon="2.36936">
        <ele>116.4</ele>
        <time>2015-05-05T19:13:47.145Z</time>
      </trkpt>
      <trkpt lat="48.88339" lon="2.36934">
        <ele>116</ele>
        <time>2015-05-05T19:13:48.170Z</time>
      </trkpt>
      <trkpt lat="48.88344" lon="2.36931">
        <ele>115.5</ele>
        <time>2015-05-05T19:13:50.101Z</time>
      </trkpt>
      <trkpt lat="48.88347" lon="2.36929">
        <ele>115.4</ele>
        <time>2015-05-05T19:13:51.086Z</time>
      </trkpt>
      <trkpt lat="48.88351" lon="2.36927">
        <ele>115.2</ele>
        <time>2015-05-05T19:13:52.163Z</time>
      </trkpt>
      <trkpt lat="48.88359" lon="2.36927">
        <ele>114.4</ele>
        <time>2015-05-05T19:13:53.119Z</time>
      </trkpt>
      <trkpt lat="48.88359" lon="2.36927">
        <ele>114.4</ele>
        <time>2015-05-05T19:13:53.424Z</time>
      </trkpt>
      <trkpt lat="48.88371" lon="2.36928">
        <ele>113.3</ele>
        <time>2015-05-05T19:13:54.148Z</time>
      </trkpt>
      <trkpt lat="48.88381" lon="2.36929">
        <ele>112.4</ele>
        <time>2015-05-05T19:13:55.172Z</time>
      </trkpt>
      <trkpt lat="48.8839" lon="2.3693">
        <ele>112</ele>
        <time>2015-05-05T19:13:56.073Z</time>
      </trkpt>
      <trkpt lat="48.88399" lon="2.36931">
        <ele>111.6</ele>
        <time>2015-05-05T19:13:57.145Z</time>
      </trkpt>
      <trkpt lat="48.88408" lon="2.36933">
        <ele>111.3</ele>
        <time>2015-05-05T19:13:58.471Z</time>
      </trkpt>
      <trkpt lat="48.88417" lon="2.36935">
        <ele>111.5</ele>
        <time>2015-05-05T19:13:59.157Z</time>
      </trkpt>
      <trkpt lat="48.88424" lon="2.36939">
        <ele>111.3</ele>
        <time>2015-05-05T19:14:00.169Z</time>
      </trkpt>
      <trkpt lat="48.88432" lon="2.36943">
        <ele>111.2</ele>
        <time>2015-05-05T19:14:01.110Z</time>
      </trkpt>
      <trkpt lat="48.88442" lon="2.36947">
        <ele>111.8</ele>
        <time>2015-05-05T19:14:02.103Z</time>
      </trkpt>
      <trkpt lat="48.88449" lon="2.36952">
        <ele>112.4</ele>
        <time>2015-05-05T19:14:03.110Z</time>
      </trkpt>
      <trkpt lat="48.88457" lon="2.36956">
        <ele>113.1</ele>
        <time>2015-05-05T19:14:04.183Z</time>
      </trkpt>
      <trkpt lat="48.88464" lon="2.36961">
        <ele>113.3</ele>
        <time>2015-05-05T19:14:05.175Z</time>
      </trkpt>
      <trkpt lat="48.8847" lon="2.36966">
        <ele>113.8</ele>
        <time>2015-05-05T19:14:06.185Z</time>
      </trkpt>
      <trkpt lat="48.88475" lon="2.36973">
        <ele>114</ele>
        <time>2015-05-05T19:14:07.082Z</time>
      </trkpt>
      <trkpt lat="48.8848" lon="2.36979">
        <ele>114.3</ele>
        <time>2015-05-05T19:14:08.168Z</time>
      </trkpt>
      <trkpt lat="48.88484" lon="2.36985">
        <ele>114.4</ele>
        <time>2015-05-05T19:14:09.200Z</time>
      </trkpt>
      <trkpt lat="48.88489" lon="2.36991">
        <ele>114.5</ele>
        <time>2015-05-05T19:14:10.147Z</time>
      </trkpt>
      <trkpt lat="48.88494" lon="2.36998">
        <ele>114.7</ele>
        <time>2015-05-05T19:14:11.156Z</time>
      </trkpt>
      <trkpt lat="48.88499" lon="2.37004">
        <ele>114.8</ele>
        <time>2015-05-05T19:14:12.167Z</time>
      </trkpt>
      <trkpt lat="48.88505" lon="2.3701">
        <ele>115</ele>
        <time>2015-05-05T19:14:13.191Z</time>
      </trkpt>
      <trkpt lat="48.88509" lon="2.37016">
        <ele>114.5</ele>
        <time>2015-05-05T19:14:14.100Z</time>
      </trkpt>
      <trkpt lat="48.88514" lon="2.37022">
        <ele>114.2</ele>
        <time>2015-05-05T19:14:15.146Z</time>
      </trkpt>
      <trkpt lat="48.88519" lon="2.37028">
        <ele>114</ele>
        <time>2015-05-05T19:14:16.162Z</time>
      </trkpt>
      <trkpt lat="48.88523" lon="2.37033">
        <ele>113.7</ele>
        <time>2015-05-05T19:14:17.171Z</time>
      </trkpt>
      <trkpt lat="48.88528" lon="2.37039">
        <ele>113.6</ele>
        <time>2015-05-05T19:14:18.134Z</time>
      </trkpt>
      <trkpt lat="48.88533" lon="2.37045">
        <ele>113.6</ele>
        <time>2015-05-05T19:14:19.117Z</time>
      </trkpt>
      <trkpt lat="48.88538" lon="2.37051">
        <ele>113.8</ele>
        <time>2015-05-05T19:14:20.129Z</time>
      </trkpt>
      <trkpt lat="48.88543" lon="2.37057">
        <ele>113.9</ele>
        <time>2015-05-05T19:14:21.135Z</time>
      </trkpt>
      <trkpt lat="48.88548" lon="2.37062">
        <ele>114</ele>
        <time>2015-05-05T19:14:22.142Z</time>
      </trkpt>
      <trkpt lat="48.88553" lon="2.37068">
        <ele>113.9</ele>
        <time>2015-05-05T19:14:23.160Z</time>
      </trkpt>
      <trkpt lat="48.88557" lon="2.37074">
        <ele>113.8</ele>
        <time>2015-05-05T19:14:24.165Z</time>
      </trkpt>
      <trkpt lat="48.88562" lon="2.37079">
        <ele>113.8</ele>
        <time>2015-05-05T19:14:25.095Z</time>
      </trkpt>
      <trkpt lat="48.88567" lon="2.37085">
        <ele>113.7</ele>
        <time>2015-05-05T19:14:26.100Z</time>
      </trkpt>
      <trkpt lat="48.88572" lon="2.37091">
        <ele>113.7</ele>
        <time>2015-05-05T19:14:27.110Z</time>
      </trkpt>
      <trkpt lat="48.88577" lon="2.37096">
        <ele>113.6</ele>
        <time>2015-05-05T19:14:28.147Z</time>
      </trkpt>
      <trkpt lat="48.88582" lon="2.37102">
        <ele>113.6</ele>
        <time>2015-05-05T19:14:29.154Z</time>
      </trkpt>
      <trkpt lat="48.88586" lon="2.37108">
        <ele>113.6</ele>
        <time>2015-05-05T19:14:30.160Z</time>
      </trkpt>
      <trkpt lat="48.88591" lon="2.37114">
        <ele>113.7</ele>
        <time>2015-05-05T19:14:31.174Z</time>
      </trkpt>
      <trkpt lat="48.88595" lon="2.3712">
        <ele>113.7</ele>
        <time>2015-05-05T19:14:32.101Z</time>
      </trkpt>
      <trkpt lat="48.88601" lon="2.37125">
        <ele>113.9</ele>
        <time>2015-05-05T19:14:33.091Z</time>
      </trkpt>
      <trkpt lat="48.88606" lon="2.37132">
        <ele>113.8</ele>
        <time>2015-05-05T19:14:34.154Z</time>
      </trkpt>
      <trkpt lat="48.8861" lon="2.37139">
        <ele>113.8</ele>
        <time>2015-05-05T19:14:35.174Z</time>
      </trkpt>
      <trkpt lat="48.88615" lon="2.37146">
        <ele>113.9</ele>
        <time>2015-05-05T19:14:36.070Z</time>
      </trkpt>
      <trkpt lat="48.8862" lon="2.37154">
        <ele>113.8</ele>
        <time>2015-05-05T19:14:37.081Z</time>
      </trkpt>
      <trkpt lat="48.88625" lon="2.37161">
        <ele>113.9</ele>
        <time>2015-05-05T19:14:38.084Z</time>
      </trkpt>
      <trkpt lat="48.8863" lon="2.37168">
        <ele>113.9</ele>
        <time>2015-05-05T19:14:39.092Z</time>
      </trkpt>
      <trkpt lat="48.88636" lon="2.37175">
        <ele>114</ele>
        <time>2015-05-05T19:14:40.106Z</time>
      </trkpt>
      <trkpt lat="48.8864" lon="2.37181">
        <ele>114.2</ele>
        <time>2015-05-05T19:14:41.112Z</time>
      </trkpt>
      <trkpt lat="48.88645" lon="2.37187">
        <ele>114.3</ele>
        <time>2015-05-05T19:14:42.125Z</time>
      </trkpt>
      <trkpt lat="48.88649" lon="2.37194">
        <ele>114.3</ele>
        <time>2015-05-05T19:14:43.147Z</time>
      </trkpt>
      <trkpt lat="48.88653" lon="2.37201">
        <ele>114.4</ele>
        <time>2015-05-05T19:14:44.158Z</time>
      </trkpt>
      <trkpt lat="48.88657" lon="2.37209">
        <ele>114.6</ele>
        <time>2015-05-05T19:14:45.054Z</time>
      </trkpt>
      <trkpt lat="48.88662" lon="2.37216">
        <ele>114.6</ele>
        <time>2015-05-05T19:14:46.111Z</time>
      </trkpt>
      <trkpt lat="48.88666" lon="2.37223">
        <ele>114.7</ele>
        <time>2015-05-05T19:14:47.128Z</time>
      </trkpt>
      <trkpt lat="48.88672" lon="2.37229">
        <ele>114.7</ele>
        <time>2015-05-05T19:14:48.136Z</time>
      </trkpt>
      <trkpt lat="48.88677" lon="2.37236">
        <ele>114.8</ele>
        <time>2015-05-05T19:14:49.149Z</time>
      </trkpt>
      <trkpt lat="48.88683" lon="2.37243">
        <ele>114.8</ele>
        <time>2015-05-05T19:14:50.152Z</time>
      </trkpt>
      <trkpt lat="48.8869" lon="2.37249">
        <ele>114.7</ele>
        <time>2015-05-05T19:14:51.161Z</time>
      </trkpt>
      <trkpt lat="48.88696" lon="2.37256">
        <ele>114.6</ele>
        <time>2015-05-05T19:14:52.175Z</time>
      </trkpt>
      <trkpt lat="48.88702" lon="2.37262">
        <ele>114.4</ele>
        <time>2015-05-05T19:14:53.085Z</time>
      </trkpt>
      <trkpt lat="48.88708" lon="2.37268">
        <ele>114.3</ele>
        <time>2015-05-05T19:14:54.095Z</time>
      </trkpt>
      <trkpt lat="48.88713" lon="2.37273">
        <ele>114</ele>
        <time>2015-05-05T19:14:55.106Z</time>
      </trkpt>
      <trkpt lat="48.88718" lon="2.37279">
        <ele>113.9</ele>
        <time>2015-05-05T19:14:56.122Z</time>
      </trkpt>
      <trkpt lat="48.88723" lon="2.37284">
        <ele>113.9</ele>
        <time>2015-05-05T19:14:57.134Z</time>
      </trkpt>
      <trkpt lat="48.88729" lon="2.37289">
        <ele>113.9</ele>
        <time>2015-05-05T19:14:58.145Z</time>
      </trkpt>
      <trkpt lat="48.88734" lon="2.37294">
        <ele>113.9</ele>
        <time>2015-05-05T19:14:59.153Z</time>
      </trkpt>
      <trkpt lat="48.88739" lon="2.373">
        <ele>114</ele>
        <time>2015-05-05T19:15:00.168Z</time>
      </trkpt>
      <trkpt lat="48.88745" lon="2.37306">
        <ele>114.1</ele>
        <time>2015-05-05T19:15:01.098Z</time>
      </trkpt>
      <trkpt lat="48.8875" lon="2.37311">
        <ele>114.2</ele>
        <time>2015-05-05T19:15:02.100Z</time>
      </trkpt>
      <trkpt lat="48.88755" lon="2.37317">
        <ele>114.2</ele>
        <time>2015-05-05T19:15:03.118Z</time>
      </trkpt>
      <trkpt lat="48.8876" lon="2.37323">
        <ele>114.2</ele>
        <time>2015-05-05T19:15:04.155Z</time>
      </trkpt>
      <trkpt lat="48.88765" lon="2.37328">
        <ele>114.1</ele>
        <time>2015-05-05T19:15:05.173Z</time>
      </trkpt>
      <trkpt lat="48.88771" lon="2.37334">
        <ele>114.1</ele>
        <time>2015-05-05T19:15:06.071Z</time>
      </trkpt>
      <trkpt lat="48.88776" lon="2.3734">
        <ele>114.2</ele>
        <time>2015-05-05T19:15:07.091Z</time>
      </trkpt>
      <trkpt lat="48.88781" lon="2.37346">
        <ele>114.2</ele>
        <time>2015-05-05T19:15:08.094Z</time>
      </trkpt>
      <trkpt lat="48.88786" lon="2.37352">
        <ele>114.2</ele>
        <time>2015-05-05T19:15:09.145Z</time>
      </trkpt>
      <trkpt lat="48.88792" lon="2.37358">
        <ele>114.3</ele>
        <time>2015-05-05T19:15:10.152Z</time>
      </trkpt>
      <trkpt lat="48.88797" lon="2.37365">
        <ele>114.3</ele>
        <time>2015-05-05T19:15:11.052Z</time>
      </trkpt>
      <trkpt lat="48.88803" lon="2.37371">
        <ele>114.5</ele>
        <time>2015-05-05T19:15:12.073Z</time>
      </trkpt>
      <trkpt lat="48.88807" lon="2.37377">
        <ele>114.6</ele>
        <time>2015-05-05T19:15:13.383Z</time>
      </trkpt>
      <trkpt lat="48.88812" lon="2.37382">
        <ele>114.7</ele>
        <time>2015-05-05T19:15:14.100Z</time>
      </trkpt>
      <trkpt lat="48.88816" lon="2.37388">
        <ele>115.1</ele>
        <time>2015-05-05T19:15:15.110Z</time>
      </trkpt>
      <trkpt lat="48.8882" lon="2.37393">
        <ele>115</ele>
        <time>2015-05-05T19:15:16.129Z</time>
      </trkpt>
      <trkpt lat="48.88823" lon="2.37398">
        <ele>114.8</ele>
        <time>2015-05-05T19:15:17.138Z</time>
      </trkpt>
      <trkpt lat="48.88827" lon="2.37401">
        <ele>114.5</ele>
        <time>2015-05-05T19:15:18.144Z</time>
      </trkpt>
      <trkpt lat="48.88831" lon="2.37408">
        <ele>114.7</ele>
        <time>2015-05-05T19:15:20.156Z</time>
      </trkpt>
      <trkpt lat="48.88834" lon="2.3741">
        <ele>114.9</ele>
        <time>2015-05-05T19:15:21.093Z</time>
      </trkpt>
      <trkpt lat="48.88839" lon="2.37415">
        <ele>115.3</ele>
        <time>2015-05-05T19:15:23.129Z</time>
      </trkpt>
      <trkpt lat="48.88842" lon="2.37418">
        <ele>115.4</ele>
        <time>2015-05-05T19:15:24.146Z</time>
      </trkpt>
      <trkpt lat="48.88849" lon="2.37423">
        <ele>115.8</ele>
        <time>2015-05-05T19:15:26.073Z</time>
      </trkpt>
      <trkpt lat="48.88853" lon="2.37426">
        <ele>116.1</ele>
        <time>2015-05-05T19:15:27.119Z</time>
      </trkpt>
      <trkpt lat="48.88857" lon="2.37428">
        <ele>116.3</ele>
        <time>2015-05-05T19:15:28.160Z</time>
      </trkpt>
      <trkpt lat="48.88861" lon="2.37431">
        <ele>117.1</ele>
        <time>2015-05-05T19:15:29.079Z</time>
      </trkpt>
      <trkpt lat="48.88867" lon="2.37439">
        <ele>117.6</ele>
        <time>2015-05-05T19:15:31.105Z</time>
      </trkpt>
      <trkpt lat="48.88872" lon="2.37443">
        <ele>118.1</ele>
        <time>2015-05-05T19:15:32.192Z</time>
      </trkpt>
      <trkpt lat="48.88877" lon="2.37446">
        <ele>118.6</ele>
        <time>2015-05-05T19:15:33.092Z</time>
      </trkpt>
      <trkpt lat="48.88881" lon="2.37449">
        <ele>118.9</ele>
        <time>2015-05-05T19:15:34.140Z</time>
      </trkpt>
      <trkpt lat="48.88885" lon="2.37452">
        <ele>119.3</ele>
        <time>2015-05-05T19:15:35.140Z</time>
      </trkpt>
      <trkpt lat="48.88891" lon="2.37457">
        <ele>119.4</ele>
        <time>2015-05-05T19:15:36.149Z</time>
      </trkpt>
      <trkpt lat="48.88899" lon="2.37464">
        <ele>119</ele>
        <time>2015-05-05T19:15:37.161Z</time>
      </trkpt>
      <trkpt lat="48.88904" lon="2.37471">
        <ele>119</ele>
        <time>2015-05-05T19:15:38.083Z</time>
      </trkpt>
      <trkpt lat="48.8891" lon="2.37476">
        <ele>119.1</ele>
        <time>2015-05-05T19:15:39.080Z</time>
      </trkpt>
      <trkpt lat="48.88915" lon="2.37482">
        <ele>119.1</ele>
        <time>2015-05-05T19:15:40.132Z</time>
      </trkpt>
      <trkpt lat="48.8892" lon="2.37487">
        <ele>119.3</ele>
        <time>2015-05-05T19:15:41.149Z</time>
      </trkpt>
      <trkpt lat="48.88924" lon="2.37492">
        <ele>119.4</ele>
        <time>2015-05-05T19:15:42.174Z</time>
      </trkpt>
      <trkpt lat="48.88929" lon="2.37497">
        <ele>119.7</ele>
        <time>2015-05-05T19:15:43.094Z</time>
      </trkpt>
      <trkpt lat="48.88935" lon="2.37503">
        <ele>119.6</ele>
        <time>2015-05-05T19:15:44.096Z</time>
      </trkpt>
      <trkpt lat="48.8894" lon="2.3751">
        <ele>119.6</ele>
        <time>2015-05-05T19:15:45.100Z</time>
      </trkpt>
      <trkpt lat="48.88945" lon="2.37516">
        <ele>119.9</ele>
        <time>2015-05-05T19:15:46.141Z</time>
      </trkpt>
      <trkpt lat="48.8895" lon="2.37523">
        <ele>119.9</ele>
        <time>2015-05-05T19:15:47.139Z</time>
      </trkpt>
      <trkpt lat="48.88956" lon="2.37529">
        <ele>119.8</ele>
        <time>2015-05-05T19:15:48.151Z</time>
      </trkpt>
      <trkpt lat="48.88961" lon="2.37536">
        <ele>119.8</ele>
        <time>2015-05-05T19:15:49.158Z</time>
      </trkpt>
      <trkpt lat="48.88967" lon="2.37542">
        <ele>119.8</ele>
        <time>2015-05-05T19:15:50.169Z</time>
      </trkpt>
      <trkpt lat="48.88972" lon="2.37548">
        <ele>119.9</ele>
        <time>2015-05-05T19:15:51.182Z</time>
      </trkpt>
      <trkpt lat="48.88978" lon="2.37553">
        <ele>119.9</ele>
        <time>2015-05-05T19:15:52.202Z</time>
      </trkpt>
      <trkpt lat="48.88982" lon="2.37558">
        <ele>120.2</ele>
        <time>2015-05-05T19:15:53.076Z</time>
      </trkpt>
      <trkpt lat="48.88985" lon="2.37562">
        <ele>120.4</ele>
        <time>2015-05-05T19:15:54.100Z</time>
      </trkpt>
      <trkpt lat="48.88989" lon="2.37567">
        <ele>120.7</ele>
        <time>2015-05-05T19:15:55.100Z</time>
      </trkpt>
      <trkpt lat="48.88993" lon="2.37572">
        <ele>120.9</ele>
        <time>2015-05-05T19:15:56.106Z</time>
      </trkpt>
      <trkpt lat="48.88998" lon="2.37579">
        <ele>120.7</ele>
        <time>2015-05-05T19:15:57.115Z</time>
      </trkpt>
      <trkpt lat="48.89002" lon="2.37584">
        <ele>120.9</ele>
        <time>2015-05-05T19:15:58.147Z</time>
      </trkpt>
      <trkpt lat="48.89006" lon="2.37589">
        <ele>121.1</ele>
        <time>2015-05-05T19:15:59.146Z</time>
      </trkpt>
      <trkpt lat="48.8901" lon="2.37595">
        <ele>121.1</ele>
        <time>2015-05-05T19:16:00.069Z</time>
      </trkpt>
      <trkpt lat="48.89013" lon="2.37601">
        <ele>121.1</ele>
        <time>2015-05-05T19:16:01.061Z</time>
      </trkpt>
      <trkpt lat="48.89017" lon="2.37606">
        <ele>121.2</ele>
        <time>2015-05-05T19:16:02.150Z</time>
      </trkpt>
      <trkpt lat="48.89024" lon="2.37614">
        <ele>120.8</ele>
        <time>2015-05-05T19:16:03.214Z</time>
      </trkpt>
      <trkpt lat="48.8903" lon="2.37621">
        <ele>120.6</ele>
        <time>2015-05-05T19:16:04.182Z</time>
      </trkpt>
      <trkpt lat="48.89035" lon="2.37627">
        <ele>120.4</ele>
        <time>2015-05-05T19:16:05.106Z</time>
      </trkpt>
      <trkpt lat="48.8904" lon="2.37634">
        <ele>119.9</ele>
        <time>2015-05-05T19:16:06.139Z</time>
      </trkpt>
      <trkpt lat="48.89045" lon="2.37639">
        <ele>119.6</ele>
        <time>2015-05-05T19:16:07.149Z</time>
      </trkpt>
      <trkpt lat="48.89049" lon="2.37643">
        <ele>119.4</ele>
        <time>2015-05-05T19:16:08.164Z</time>
      </trkpt>
      <trkpt lat="48.89053" lon="2.37648">
        <ele>119.4</ele>
        <time>2015-05-05T19:16:09.139Z</time>
      </trkpt>
      <trkpt lat="48.89056" lon="2.37654">
        <ele>119.2</ele>
        <time>2015-05-05T19:16:10.164Z</time>
      </trkpt>
      <trkpt lat="48.89059" lon="2.37659">
        <ele>119.2</ele>
        <time>2015-05-05T19:16:11.199Z</time>
      </trkpt>
      <trkpt lat="48.89063" lon="2.37669">
        <ele>119.2</ele>
        <time>2015-05-05T19:16:14.145Z</time>
      </trkpt>
      <trkpt lat="48.89064" lon="2.3767">
        <ele>118.8</ele>
        <time>2015-05-05T19:16:15.194Z</time>
      </trkpt>
      <trkpt lat="48.89071" lon="2.37675">
        <ele>117.8</ele>
        <time>2015-05-05T19:16:22.150Z</time>
      </trkpt>
      <trkpt lat="48.89072" lon="2.37676">
        <ele>117.5</ele>
        <time>2015-05-05T19:16:23.068Z</time>
      </trkpt>
      <trkpt lat="48.89076" lon="2.37687">
        <ele>116.6</ele>
        <time>2015-05-05T19:16:27.068Z</time>
      </trkpt>
      <trkpt lat="48.89077" lon="2.3769">
        <ele>116.7</ele>
        <time>2015-05-05T19:16:28.201Z</time>
      </trkpt>
      <trkpt lat="48.89081" lon="2.37701">
        <ele>116.6</ele>
        <time>2015-05-05T19:16:31.210Z</time>
      </trkpt>
      <trkpt lat="48.89088" lon="2.37707">
        <ele>116.1</ele>
        <time>2015-05-05T19:16:32.148Z</time>
      </trkpt>
      <trkpt lat="48.89091" lon="2.37712">
        <ele>116.3</ele>
        <time>2015-05-05T19:16:33.074Z</time>
      </trkpt>
      <trkpt lat="48.89098" lon="2.37718">
        <ele>115.9</ele>
        <time>2015-05-05T19:16:34.160Z</time>
      </trkpt>
      <trkpt lat="48.89104" lon="2.37725">
        <ele>115.8</ele>
        <time>2015-05-05T19:16:35.171Z</time>
      </trkpt>
      <trkpt lat="48.8911" lon="2.37732">
        <ele>115.7</ele>
        <time>2015-05-05T19:16:36.176Z</time>
      </trkpt>
      <trkpt lat="48.89116" lon="2.37737">
        <ele>115.8</ele>
        <time>2015-05-05T19:16:37.146Z</time>
      </trkpt>
      <trkpt lat="48.89122" lon="2.37743">
        <ele>115.9</ele>
        <time>2015-05-05T19:16:38.134Z</time>
      </trkpt>
      <trkpt lat="48.89126" lon="2.37748">
        <ele>116.2</ele>
        <time>2015-05-05T19:16:39.140Z</time>
      </trkpt>
      <trkpt lat="48.8913" lon="2.37753">
        <ele>116.4</ele>
        <time>2015-05-05T19:16:40.148Z</time>
      </trkpt>
      <trkpt lat="48.89135" lon="2.37758">
        <ele>116.5</ele>
        <time>2015-05-05T19:16:41.087Z</time>
      </trkpt>
      <trkpt lat="48.8914" lon="2.37764">
        <ele>116.6</ele>
        <time>2015-05-05T19:16:42.083Z</time>
      </trkpt>
      <trkpt lat="48.89144" lon="2.3777">
        <ele>116.9</ele>
        <time>2015-05-05T19:16:43.091Z</time>
      </trkpt>
      <trkpt lat="48.89149" lon="2.37775">
        <ele>117.2</ele>
        <time>2015-05-05T19:16:44.094Z</time>
      </trkpt>
      <trkpt lat="48.89154" lon="2.3778">
        <ele>117.6</ele>
        <time>2015-05-05T19:16:45.113Z</time>
      </trkpt>
      <trkpt lat="48.89158" lon="2.37786">
        <ele>118</ele>
        <time>2015-05-05T19:16:46.148Z</time>
      </trkpt>
      <trkpt lat="48.89162" lon="2.37792">
        <ele>118.4</ele>
        <time>2015-05-05T19:16:47.165Z</time>
      </trkpt>
      <trkpt lat="48.89167" lon="2.37798">
        <ele>118.7</ele>
        <time>2015-05-05T19:16:48.175Z</time>
      </trkpt>
      <trkpt lat="48.89171" lon="2.37804">
        <ele>119</ele>
        <time>2015-05-05T19:16:49.070Z</time>
      </trkpt>
      <trkpt lat="48.89176" lon="2.3781">
        <ele>119.6</ele>
        <time>2015-05-05T19:16:50.119Z</time>
      </trkpt>
      <trkpt lat="48.89181" lon="2.37816">
        <ele>120</ele>
        <time>2015-05-05T19:16:51.158Z</time>
      </trkpt>
      <trkpt lat="48.89186" lon="2.37821">
        <ele>120.6</ele>
        <time>2015-05-05T19:16:52.179Z</time>
      </trkpt>
      <trkpt lat="48.8919" lon="2.37826">
        <ele>120.8</ele>
        <time>2015-05-05T19:16:53.180Z</time>
      </trkpt>
      <trkpt lat="48.89194" lon="2.37831">
        <ele>120.8</ele>
        <time>2015-05-05T19:16:54.091Z</time>
      </trkpt>
      <trkpt lat="48.89197" lon="2.37837">
        <ele>121.3</ele>
        <time>2015-05-05T19:16:55.097Z</time>
      </trkpt>
      <trkpt lat="48.89202" lon="2.3784">
        <ele>121.5</ele>
        <time>2015-05-05T19:16:56.107Z</time>
      </trkpt>
      <trkpt lat="48.89206" lon="2.37844">
        <ele>121.6</ele>
        <time>2015-05-05T19:16:57.123Z</time>
      </trkpt>
      <trkpt lat="48.89211" lon="2.37849">
        <ele>121.6</ele>
        <time>2015-05-05T19:16:58.140Z</time>
      </trkpt>
      <trkpt lat="48.89216" lon="2.37855">
        <ele>121.8</ele>
        <time>2015-05-05T19:16:59.170Z</time>
      </trkpt>
      <trkpt lat="48.89221" lon="2.3786">
        <ele>121.8</ele>
        <time>2015-05-05T19:17:00.100Z</time>
      </trkpt>
      <trkpt lat="48.89227" lon="2.37865">
        <ele>121.4</ele>
        <time>2015-05-05T19:17:01.089Z</time>
      </trkpt>
      <trkpt lat="48.89233" lon="2.3787">
        <ele>121.3</ele>
        <time>2015-05-05T19:17:02.091Z</time>
      </trkpt>
      <trkpt lat="48.89239" lon="2.37874">
        <ele>120.8</ele>
        <time>2015-05-05T19:17:03.097Z</time>
      </trkpt>
      <trkpt lat="48.89243" lon="2.37879">
        <ele>120.7</ele>
        <time>2015-05-05T19:17:04.153Z</time>
      </trkpt>
      <trkpt lat="48.89247" lon="2.37884">
        <ele>120.9</ele>
        <time>2015-05-05T19:17:05.164Z</time>
      </trkpt>
      <trkpt lat="48.8925" lon="2.37891">
        <ele>120.5</ele>
        <time>2015-05-05T19:17:06.168Z</time>
      </trkpt>
      <trkpt lat="48.89255" lon="2.37902">
        <ele>119.7</ele>
        <time>2015-05-05T19:17:08.181Z</time>
      </trkpt>
      <trkpt lat="48.89258" lon="2.37906">
        <ele>119.5</ele>
        <time>2015-05-05T19:17:09.114Z</time>
      </trkpt>
      <trkpt lat="48.89263" lon="2.37914">
        <ele>119.6</ele>
        <time>2015-05-05T19:17:11.146Z</time>
      </trkpt>
      <trkpt lat="48.89267" lon="2.37919">
        <ele>119.2</ele>
        <time>2015-05-05T19:17:12.162Z</time>
      </trkpt>
      <trkpt lat="48.89271" lon="2.37923">
        <ele>118.9</ele>
        <time>2015-05-05T19:17:13.062Z</time>
      </trkpt>
      <trkpt lat="48.89275" lon="2.37928">
        <ele>118.8</ele>
        <time>2015-05-05T19:17:14.085Z</time>
      </trkpt>
      <trkpt lat="48.89278" lon="2.37932">
        <ele>118.9</ele>
        <time>2015-05-05T19:17:15.087Z</time>
      </trkpt>
      <trkpt lat="48.89282" lon="2.37937">
        <ele>119</ele>
        <time>2015-05-05T19:17:16.136Z</time>
      </trkpt>
      <trkpt lat="48.89287" lon="2.37946">
        <ele>119.2</ele>
        <time>2015-05-05T19:17:18.078Z</time>
      </trkpt>
      <trkpt lat="48.89291" lon="2.3795">
        <ele>119.2</ele>
        <time>2015-05-05T19:17:19.080Z</time>
      </trkpt>
      <trkpt lat="48.89295" lon="2.37953">
        <ele>119.3</ele>
        <time>2015-05-05T19:17:20.116Z</time>
      </trkpt>
      <trkpt lat="48.89299" lon="2.37956">
        <ele>119.4</ele>
        <time>2015-05-05T19:17:21.129Z</time>
      </trkpt>
      <trkpt lat="48.89305" lon="2.37962">
        <ele>119.6</ele>
        <time>2015-05-05T19:17:23.157Z</time>
      </trkpt>
      <trkpt lat="48.89307" lon="2.37966">
        <ele>119.7</ele>
        <time>2015-05-05T19:17:24.129Z</time>
      </trkpt>
      <trkpt lat="48.89309" lon="2.37969">
        <ele>119.8</ele>
        <time>2015-05-05T19:17:25.106Z</time>
      </trkpt>
      <trkpt lat="48.89315" lon="2.37975">
        <ele>119.2</ele>
        <time>2015-05-05T19:17:26.107Z</time>
      </trkpt>
      <trkpt lat="48.89322" lon="2.37984">
        <ele>119.1</ele>
        <time>2015-05-05T19:17:28.150Z</time>
      </trkpt>
      <trkpt lat="48.89325" lon="2.37988">
        <ele>119</ele>
        <time>2015-05-05T19:17:29.153Z</time>
      </trkpt>
      <trkpt lat="48.89328" lon="2.37993">
        <ele>119</ele>
        <time>2015-05-05T19:17:30.166Z</time>
      </trkpt>
      <trkpt lat="48.89332" lon="2.37999">
        <ele>119</ele>
        <time>2015-05-05T19:17:31.096Z</time>
      </trkpt>
      <trkpt lat="48.89335" lon="2.38004">
        <ele>119.1</ele>
        <time>2015-05-05T19:17:32.108Z</time>
      </trkpt>
      <trkpt lat="48.89338" lon="2.3801">
        <ele>119.3</ele>
        <time>2015-05-05T19:17:33.126Z</time>
      </trkpt>
      <trkpt lat="48.89342" lon="2.38016">
        <ele>119.3</ele>
        <time>2015-05-05T19:17:34.182Z</time>
      </trkpt>
      <trkpt lat="48.89345" lon="2.38023">
        <ele>119.4</ele>
        <time>2015-05-05T19:17:35.082Z</time>
      </trkpt>
      <trkpt lat="48.89349" lon="2.3803">
        <ele>119.5</ele>
        <time>2015-05-05T19:17:36.091Z</time>
      </trkpt>
      <trkpt lat="48.89356" lon="2.38038">
        <ele>119</ele>
        <time>2015-05-05T19:17:37.102Z</time>
      </trkpt>
      <trkpt lat="48.89363" lon="2.38044">
        <ele>118.8</ele>
        <time>2015-05-05T19:17:38.102Z</time>
      </trkpt>
      <trkpt lat="48.8937" lon="2.38051">
        <ele>118.6</ele>
        <time>2015-05-05T19:17:39.119Z</time>
      </trkpt>
      <trkpt lat="48.89374" lon="2.38057">
        <ele>118.8</ele>
        <time>2015-05-05T19:17:40.128Z</time>
      </trkpt>
      <trkpt lat="48.89378" lon="2.38063">
        <ele>119</ele>
        <time>2015-05-05T19:17:41.145Z</time>
      </trkpt>
      <trkpt lat="48.89382" lon="2.3807">
        <ele>119.3</ele>
        <time>2015-05-05T19:17:42.149Z</time>
      </trkpt>
      <trkpt lat="48.89386" lon="2.38075">
        <ele>119.5</ele>
        <time>2015-05-05T19:17:43.150Z</time>
      </trkpt>
      <trkpt lat="48.8939" lon="2.38081">
        <ele>119.6</ele>
        <time>2015-05-05T19:17:44.076Z</time>
      </trkpt>
      <trkpt lat="48.89394" lon="2.38087">
        <ele>119.8</ele>
        <time>2015-05-05T19:17:45.177Z</time>
      </trkpt>
      <trkpt lat="48.89401" lon="2.38094">
        <ele>119.6</ele>
        <time>2015-05-05T19:17:46.191Z</time>
      </trkpt>
      <trkpt lat="48.89406" lon="2.38098">
        <ele>119.7</ele>
        <time>2015-05-05T19:17:47.088Z</time>
      </trkpt>
      <trkpt lat="48.8941" lon="2.38103">
        <ele>119.7</ele>
        <time>2015-05-05T19:17:48.094Z</time>
      </trkpt>
      <trkpt lat="48.89413" lon="2.38108">
        <ele>119.8</ele>
        <time>2015-05-05T19:17:49.105Z</time>
      </trkpt>
      <trkpt lat="48.89417" lon="2.38113">
        <ele>119.8</ele>
        <time>2015-05-05T19:17:50.129Z</time>
      </trkpt>
      <trkpt lat="48.8942" lon="2.38117">
        <ele>119.8</ele>
        <time>2015-05-05T19:17:51.132Z</time>
      </trkpt>
      <trkpt lat="48.89426" lon="2.38125">
        <ele>119.9</ele>
        <time>2015-05-05T19:17:53.170Z</time>
      </trkpt>
      <trkpt lat="48.89428" lon="2.38129">
        <ele>120.1</ele>
        <time>2015-05-05T19:17:54.177Z</time>
      </trkpt>
      <trkpt lat="48.89433" lon="2.38137">
        <ele>120.6</ele>
        <time>2015-05-05T19:17:56.098Z</time>
      </trkpt>
      <trkpt lat="48.89436" lon="2.3814">
        <ele>120.8</ele>
        <time>2015-05-05T19:17:57.175Z</time>
      </trkpt>
      <trkpt lat="48.8943" lon="2.38131">
        <ele>118.3</ele>
        <time>2015-05-05T19:18:05.056Z</time>
      </trkpt>
      <trkpt lat="48.89427" lon="2.38127">
        <ele>118.1</ele>
        <time>2015-05-05T19:18:06.084Z</time>
      </trkpt>
      <trkpt lat="48.89421" lon="2.38119">
        <ele>117.6</ele>
        <time>2015-05-05T19:18:08.105Z</time>
      </trkpt>
      <trkpt lat="48.89417" lon="2.38114">
        <ele>117.4</ele>
        <time>2015-05-05T19:18:09.147Z</time>
      </trkpt>
      <trkpt lat="48.89414" lon="2.38108">
        <ele>117.3</ele>
        <time>2015-05-05T19:18:10.162Z</time>
      </trkpt>
      <trkpt lat="48.89411" lon="2.38102">
        <ele>117.3</ele>
        <time>2015-05-05T19:18:11.056Z</time>
      </trkpt>
      <trkpt lat="48.89408" lon="2.38097">
        <ele>117.3</ele>
        <time>2015-05-05T19:18:12.095Z</time>
      </trkpt>
      <trkpt lat="48.89404" lon="2.38091">
        <ele>117.2</ele>
        <time>2015-05-05T19:18:13.100Z</time>
      </trkpt>
      <trkpt lat="48.89401" lon="2.38085">
        <ele>117.1</ele>
        <time>2015-05-05T19:18:14.116Z</time>
      </trkpt>
      <trkpt lat="48.89391" lon="2.38079">
        <ele>116.1</ele>
        <time>2015-05-05T19:18:15.090Z</time>
      </trkpt>
      <trkpt lat="48.89383" lon="2.38074">
        <ele>115.6</ele>
        <time>2015-05-05T19:18:16.124Z</time>
      </trkpt>
      <trkpt lat="48.89375" lon="2.3807">
        <ele>115.2</ele>
        <time>2015-05-05T19:18:17.122Z</time>
      </trkpt>
      <trkpt lat="48.89369" lon="2.38066">
        <ele>115.2</ele>
        <time>2015-05-05T19:18:18.176Z</time>
      </trkpt>
      <trkpt lat="48.89363" lon="2.38062">
        <ele>115.1</ele>
        <time>2015-05-05T19:18:19.070Z</time>
      </trkpt>
      <trkpt lat="48.89359" lon="2.38057">
        <ele>115.2</ele>
        <time>2015-05-05T19:18:20.081Z</time>
      </trkpt>
      <trkpt lat="48.89355" lon="2.38052">
        <ele>115.2</ele>
        <time>2015-05-05T19:18:21.113Z</time>
      </trkpt>
      <trkpt lat="48.8935" lon="2.38047">
        <ele>115.2</ele>
        <time>2015-05-05T19:18:22.177Z</time>
      </trkpt>
      <trkpt lat="48.89346" lon="2.38041">
        <ele>115.1</ele>
        <time>2015-05-05T19:18:23.056Z</time>
      </trkpt>
      <trkpt lat="48.89341" lon="2.38035">
        <ele>114.9</ele>
        <time>2015-05-05T19:18:24.104Z</time>
      </trkpt>
      <trkpt lat="48.89337" lon="2.3803">
        <ele>114.9</ele>
        <time>2015-05-05T19:18:25.140Z</time>
      </trkpt>
      <trkpt lat="48.89333" lon="2.38024">
        <ele>114.9</ele>
        <time>2015-05-05T19:18:26.158Z</time>
      </trkpt>
      <trkpt lat="48.89329" lon="2.38019">
        <ele>115</ele>
        <time>2015-05-05T19:18:27.073Z</time>
      </trkpt>
      <trkpt lat="48.89325" lon="2.38014">
        <ele>115.2</ele>
        <time>2015-05-05T19:18:28.176Z</time>
      </trkpt>
      <trkpt lat="48.89321" lon="2.3801">
        <ele>115.3</ele>
        <time>2015-05-05T19:18:29.071Z</time>
      </trkpt>
      <trkpt lat="48.89317" lon="2.38006">
        <ele>115.5</ele>
        <time>2015-05-05T19:18:30.076Z</time>
      </trkpt>
      <trkpt lat="48.8931" lon="2.37997">
        <ele>115.9</ele>
        <time>2015-05-05T19:18:32.104Z</time>
      </trkpt>
      <trkpt lat="48.89307" lon="2.37994">
        <ele>115.9</ele>
        <time>2015-05-05T19:18:33.116Z</time>
      </trkpt>
      <trkpt lat="48.893" lon="2.37986">
        <ele>115.9</ele>
        <time>2015-05-05T19:18:35.149Z</time>
      </trkpt>
      <trkpt lat="48.89297" lon="2.37981">
        <ele>115.8</ele>
        <time>2015-05-05T19:18:36.095Z</time>
      </trkpt>
      <trkpt lat="48.89294" lon="2.37974">
        <ele>115.6</ele>
        <time>2015-05-05T19:18:37.080Z</time>
      </trkpt>
      <trkpt lat="48.89291" lon="2.37968">
        <ele>115.3</ele>
        <time>2015-05-05T19:18:38.095Z</time>
      </trkpt>
      <trkpt lat="48.89287" lon="2.37963">
        <ele>115.1</ele>
        <time>2015-05-05T19:18:39.122Z</time>
      </trkpt>
      <trkpt lat="48.89284" lon="2.37959">
        <ele>115</ele>
        <time>2015-05-05T19:18:40.123Z</time>
      </trkpt>
      <trkpt lat="48.89278" lon="2.3795">
        <ele>114.4</ele>
        <time>2015-05-05T19:18:42.145Z</time>
      </trkpt>
      <trkpt lat="48.89275" lon="2.37947">
        <ele>114.3</ele>
        <time>2015-05-05T19:18:43.157Z</time>
      </trkpt>
      <trkpt lat="48.89269" lon="2.37941">
        <ele>114.4</ele>
        <time>2015-05-05T19:18:46.139Z</time>
      </trkpt>
      <trkpt lat="48.89266" lon="2.37939">
        <ele>114.3</ele>
        <time>2015-05-05T19:18:47.172Z</time>
      </trkpt>
      <trkpt lat="48.89259" lon="2.37934">
        <ele>114.4</ele>
        <time>2015-05-05T19:18:50.124Z</time>
      </trkpt>
      <trkpt lat="48.89256" lon="2.37933">
        <ele>114.4</ele>
        <time>2015-05-05T19:18:51.046Z</time>
      </trkpt>
      <trkpt lat="48.89251" lon="2.37928">
        <ele>114.3</ele>
        <time>2015-05-05T19:18:53.129Z</time>
      </trkpt>
      <trkpt lat="48.89248" lon="2.37923">
        <ele>114.1</ele>
        <time>2015-05-05T19:18:54.044Z</time>
      </trkpt>
      <trkpt lat="48.89243" lon="2.37916">
        <ele>114.8</ele>
        <time>2015-05-05T19:18:56.070Z</time>
      </trkpt>
      <trkpt lat="48.8924" lon="2.3791">
        <ele>115.2</ele>
        <time>2015-05-05T19:18:57.091Z</time>
      </trkpt>
      <trkpt lat="48.89234" lon="2.37902">
        <ele>115.6</ele>
        <time>2015-05-05T19:18:59.070Z</time>
      </trkpt>
      <trkpt lat="48.89231" lon="2.37899">
        <ele>115.7</ele>
        <time>2015-05-05T19:19:00.193Z</time>
      </trkpt>
      <trkpt lat="48.89225" lon="2.3789">
        <ele>116.2</ele>
        <time>2015-05-05T19:19:02.363Z</time>
      </trkpt>
      <trkpt lat="48.89222" lon="2.37886">
        <ele>116.3</ele>
        <time>2015-05-05T19:19:03.092Z</time>
      </trkpt>
      <trkpt lat="48.89218" lon="2.37881">
        <ele>116.4</ele>
        <time>2015-05-05T19:19:04.124Z</time>
      </trkpt>
      <trkpt lat="48.89213" lon="2.37877">
        <ele>116.6</ele>
        <time>2015-05-05T19:19:05.143Z</time>
      </trkpt>
      <trkpt lat="48.89208" lon="2.37872">
        <ele>116.6</ele>
        <time>2015-05-05T19:19:06.053Z</time>
      </trkpt>
      <trkpt lat="48.89204" lon="2.37866">
        <ele>116.5</ele>
        <time>2015-05-05T19:19:07.111Z</time>
      </trkpt>
      <trkpt lat="48.89199" lon="2.3786">
        <ele>116.6</ele>
        <time>2015-05-05T19:19:08.163Z</time>
      </trkpt>
      <trkpt lat="48.89195" lon="2.37854">
        <ele>116.8</ele>
        <time>2015-05-05T19:19:09.075Z</time>
      </trkpt>
      <trkpt lat="48.89191" lon="2.37847">
        <ele>116.9</ele>
        <time>2015-05-05T19:19:10.146Z</time>
      </trkpt>
      <trkpt lat="48.89187" lon="2.37841">
        <ele>116.8</ele>
        <time>2015-05-05T19:19:11.151Z</time>
      </trkpt>
      <trkpt lat="48.89184" lon="2.3783">
        <ele>116.3</ele>
        <time>2015-05-05T19:19:12.233Z</time>
      </trkpt>
      <trkpt lat="48.8918" lon="2.37823">
        <ele>116.5</ele>
        <time>2015-05-05T19:19:13.088Z</time>
      </trkpt>
      <trkpt lat="48.89176" lon="2.37816">
        <ele>116.8</ele>
        <time>2015-05-05T19:19:14.105Z</time>
      </trkpt>
      <trkpt lat="48.89172" lon="2.37808">
        <ele>116.9</ele>
        <time>2015-05-05T19:19:15.272Z</time>
      </trkpt>
      <trkpt lat="48.89168" lon="2.37799">
        <ele>116.9</ele>
        <time>2015-05-05T19:19:16.141Z</time>
      </trkpt>
      <trkpt lat="48.89164" lon="2.37791">
        <ele>116.8</ele>
        <time>2015-05-05T19:19:17.148Z</time>
      </trkpt>
      <trkpt lat="48.89161" lon="2.37784">
        <ele>116.7</ele>
        <time>2015-05-05T19:19:18.085Z</time>
      </trkpt>
      <trkpt lat="48.89157" lon="2.37777">
        <ele>116.7</ele>
        <time>2015-05-05T19:19:19.081Z</time>
      </trkpt>
      <trkpt lat="48.89152" lon="2.3777">
        <ele>116.6</ele>
        <time>2015-05-05T19:19:20.095Z</time>
      </trkpt>
      <trkpt lat="48.89148" lon="2.37764">
        <ele>116.5</ele>
        <time>2015-05-05T19:19:21.103Z</time>
      </trkpt>
      <trkpt lat="48.89143" lon="2.37757">
        <ele>116.6</ele>
        <time>2015-05-05T19:19:22.124Z</time>
      </trkpt>
      <trkpt lat="48.89139" lon="2.37751">
        <ele>116.9</ele>
        <time>2015-05-05T19:19:23.133Z</time>
      </trkpt>
      <trkpt lat="48.89135" lon="2.37745">
        <ele>117.1</ele>
        <time>2015-05-05T19:19:24.167Z</time>
      </trkpt>
      <trkpt lat="48.89131" lon="2.3774">
        <ele>117.5</ele>
        <time>2015-05-05T19:19:25.066Z</time>
      </trkpt>
      <trkpt lat="48.89128" lon="2.37735">
        <ele>117.8</ele>
        <time>2015-05-05T19:19:26.086Z</time>
      </trkpt>
      <trkpt lat="48.89124" lon="2.3773">
        <ele>118.1</ele>
        <time>2015-05-05T19:19:27.104Z</time>
      </trkpt>
      <trkpt lat="48.8912" lon="2.37726">
        <ele>118.2</ele>
        <time>2015-05-05T19:19:28.101Z</time>
      </trkpt>
      <trkpt lat="48.89117" lon="2.37721">
        <ele>118.4</ele>
        <time>2015-05-05T19:19:29.105Z</time>
      </trkpt>
      <trkpt lat="48.89113" lon="2.37715">
        <ele>118.5</ele>
        <time>2015-05-05T19:19:30.113Z</time>
      </trkpt>
      <trkpt lat="48.89109" lon="2.3771">
        <ele>118.6</ele>
        <time>2015-05-05T19:19:31.127Z</time>
      </trkpt>
      <trkpt lat="48.89105" lon="2.37705">
        <ele>118.7</ele>
        <time>2015-05-05T19:19:32.136Z</time>
      </trkpt>
      <trkpt lat="48.89102" lon="2.37701">
        <ele>118.7</ele>
        <time>2015-05-05T19:19:33.138Z</time>
      </trkpt>
      <trkpt lat="48.89094" lon="2.37693">
        <ele>119</ele>
        <time>2015-05-05T19:19:35.080Z</time>
      </trkpt>
      <trkpt lat="48.89091" lon="2.3769">
        <ele>119</ele>
        <time>2015-05-05T19:19:36.135Z</time>
      </trkpt>
      <trkpt lat="48.89084" lon="2.37682">
        <ele>119.2</ele>
        <time>2015-05-05T19:19:38.081Z</time>
      </trkpt>
      <trkpt lat="48.8908" lon="2.37678">
        <ele>119.2</ele>
        <time>2015-05-05T19:19:39.082Z</time>
      </trkpt>
      <trkpt lat="48.89076" lon="2.37673">
        <ele>119.2</ele>
        <time>2015-05-05T19:19:40.129Z</time>
      </trkpt>
      <trkpt lat="48.89073" lon="2.37669">
        <ele>119.3</ele>
        <time>2015-05-05T19:19:41.166Z</time>
      </trkpt>
      <trkpt lat="48.89069" lon="2.37665">
        <ele>119.3</ele>
        <time>2015-05-05T19:19:42.165Z</time>
      </trkpt>
      <trkpt lat="48.89065" lon="2.37661">
        <ele>119.7</ele>
        <time>2015-05-05T19:19:43.087Z</time>
      </trkpt>
      <trkpt lat="48.8906" lon="2.37651">
        <ele>119</ele>
        <time>2015-05-05T19:19:45.101Z</time>
      </trkpt>
      <trkpt lat="48.89055" lon="2.37649">
        <ele>119.1</ele>
        <time>2015-05-05T19:19:46.135Z</time>
      </trkpt>
      <trkpt lat="48.89051" lon="2.37646">
        <ele>119.4</ele>
        <time>2015-05-05T19:19:47.139Z</time>
      </trkpt>
      <trkpt lat="48.89047" lon="2.37642">
        <ele>119.4</ele>
        <time>2015-05-05T19:19:48.195Z</time>
      </trkpt>
      <trkpt lat="48.89043" lon="2.37638">
        <ele>119.5</ele>
        <time>2015-05-05T19:19:49.097Z</time>
      </trkpt>
      <trkpt lat="48.89039" lon="2.37633">
        <ele>119.5</ele>
        <time>2015-05-05T19:19:50.102Z</time>
      </trkpt>
      <trkpt lat="48.89035" lon="2.37629">
        <ele>119.3</ele>
        <time>2015-05-05T19:19:51.182Z</time>
      </trkpt>
      <trkpt lat="48.89031" lon="2.37625">
        <ele>119.6</ele>
        <time>2015-05-05T19:19:52.173Z</time>
      </trkpt>
      <trkpt lat="48.89027" lon="2.37621">
        <ele>119.5</ele>
        <time>2015-05-05T19:19:53.089Z</time>
      </trkpt>
      <trkpt lat="48.89023" lon="2.37617">
        <ele>119.8</ele>
        <time>2015-05-05T19:19:54.104Z</time>
      </trkpt>
      <trkpt lat="48.89019" lon="2.37614">
        <ele>120</ele>
        <time>2015-05-05T19:19:55.126Z</time>
      </trkpt>
      <trkpt lat="48.89014" lon="2.3761">
        <ele>120.2</ele>
        <time>2015-05-05T19:19:56.079Z</time>
      </trkpt>
      <trkpt lat="48.89009" lon="2.37605">
        <ele>120.7</ele>
        <time>2015-05-05T19:19:57.149Z</time>
      </trkpt>
      <trkpt lat="48.89006" lon="2.37599">
        <ele>120.6</ele>
        <time>2015-05-05T19:19:58.158Z</time>
      </trkpt>
      <trkpt lat="48.89001" lon="2.37593">
        <ele>120.7</ele>
        <time>2015-05-05T19:19:59.171Z</time>
      </trkpt>
      <trkpt lat="48.88997" lon="2.37588">
        <ele>120.7</ele>
        <time>2015-05-05T19:20:00.184Z</time>
      </trkpt>
      <trkpt lat="48.8899" lon="2.37581">
        <ele>121.1</ele>
        <time>2015-05-05T19:20:02.117Z</time>
      </trkpt>
      <trkpt lat="48.88987" lon="2.37578">
        <ele>121.3</ele>
        <time>2015-05-05T19:20:03.142Z</time>
      </trkpt>
      <trkpt lat="48.88983" lon="2.37573">
        <ele>121.5</ele>
        <time>2015-05-05T19:20:04.143Z</time>
      </trkpt>
      <trkpt lat="48.88978" lon="2.37567">
        <ele>121.6</ele>
        <time>2015-05-05T19:20:05.157Z</time>
      </trkpt>
      <trkpt lat="48.88973" lon="2.37562">
        <ele>121.8</ele>
        <time>2015-05-05T19:20:06.244Z</time>
      </trkpt>
      <trkpt lat="48.88968" lon="2.37555">
        <ele>121.8</ele>
        <time>2015-05-05T19:20:07.077Z</time>
      </trkpt>
      <trkpt lat="48.88965" lon="2.37546">
        <ele>122</ele>
        <time>2015-05-05T19:20:08.092Z</time>
      </trkpt>
      <trkpt lat="48.88961" lon="2.37539">
        <ele>122.1</ele>
        <time>2015-05-05T19:20:09.126Z</time>
      </trkpt>
      <trkpt lat="48.88956" lon="2.37532">
        <ele>122.3</ele>
        <time>2015-05-05T19:20:10.168Z</time>
      </trkpt>
      <trkpt lat="48.88952" lon="2.37526">
        <ele>122.5</ele>
        <time>2015-05-05T19:20:11.075Z</time>
      </trkpt>
      <trkpt lat="48.88948" lon="2.37519">
        <ele>122.5</ele>
        <time>2015-05-05T19:20:12.098Z</time>
      </trkpt>
      <trkpt lat="48.88944" lon="2.37514">
        <ele>122.5</ele>
        <time>2015-05-05T19:20:13.098Z</time>
      </trkpt>
      <trkpt lat="48.88939" lon="2.3751">
        <ele>122.7</ele>
        <time>2015-05-05T19:20:14.119Z</time>
      </trkpt>
      <trkpt lat="48.88934" lon="2.37505">
        <ele>123</ele>
        <time>2015-05-05T19:20:15.123Z</time>
      </trkpt>
      <trkpt lat="48.88929" lon="2.37501">
        <ele>123</ele>
        <time>2015-05-05T19:20:16.138Z</time>
      </trkpt>
      <trkpt lat="48.88925" lon="2.37498">
        <ele>123.3</ele>
        <time>2015-05-05T19:20:17.148Z</time>
      </trkpt>
      <trkpt lat="48.88921" lon="2.37494">
        <ele>123.5</ele>
        <time>2015-05-05T19:20:18.150Z</time>
      </trkpt>
      <trkpt lat="48.88917" lon="2.3749">
        <ele>123.7</ele>
        <time>2015-05-05T19:20:19.155Z</time>
      </trkpt>
      <trkpt lat="48.88913" lon="2.37487">
        <ele>124</ele>
        <time>2015-05-05T19:20:20.085Z</time>
      </trkpt>
      <trkpt lat="48.88909" lon="2.37482">
        <ele>124.3</ele>
        <time>2015-05-05T19:20:21.085Z</time>
      </trkpt>
      <trkpt lat="48.88905" lon="2.37478">
        <ele>124.4</ele>
        <time>2015-05-05T19:20:22.113Z</time>
      </trkpt>
      <trkpt lat="48.88901" lon="2.37473">
        <ele>124.3</ele>
        <time>2015-05-05T19:20:23.122Z</time>
      </trkpt>
      <trkpt lat="48.88897" lon="2.37468">
        <ele>124.4</ele>
        <time>2015-05-05T19:20:24.139Z</time>
      </trkpt>
      <trkpt lat="48.88892" lon="2.37463">
        <ele>124.4</ele>
        <time>2015-05-05T19:20:25.161Z</time>
      </trkpt>
      <trkpt lat="48.88887" lon="2.37458">
        <ele>124.4</ele>
        <time>2015-05-05T19:20:26.171Z</time>
      </trkpt>
      <trkpt lat="48.88883" lon="2.37451">
        <ele>124.4</ele>
        <time>2015-05-05T19:20:27.187Z</time>
      </trkpt>
      <trkpt lat="48.88879" lon="2.37446">
        <ele>124.4</ele>
        <time>2015-05-05T19:20:28.196Z</time>
      </trkpt>
      <trkpt lat="48.88877" lon="2.37438">
        <ele>123.8</ele>
        <time>2015-05-05T19:20:29.103Z</time>
      </trkpt>
      <trkpt lat="48.88873" lon="2.37431">
        <ele>123.5</ele>
        <time>2015-05-05T19:20:30.118Z</time>
      </trkpt>
      <trkpt lat="48.88868" lon="2.37427">
        <ele>123.6</ele>
        <time>2015-05-05T19:20:31.128Z</time>
      </trkpt>
      <trkpt lat="48.88864" lon="2.37422">
        <ele>123.6</ele>
        <time>2015-05-05T19:20:32.153Z</time>
      </trkpt>
      <trkpt lat="48.88859" lon="2.37419">
        <ele>123.8</ele>
        <time>2015-05-05T19:20:33.056Z</time>
      </trkpt>
      <trkpt lat="48.88855" lon="2.37416">
        <ele>123.9</ele>
        <time>2015-05-05T19:20:34.119Z</time>
      </trkpt>
      <trkpt lat="48.88851" lon="2.37413">
        <ele>124</ele>
        <time>2015-05-05T19:20:35.127Z</time>
      </trkpt>
      <trkpt lat="48.88844" lon="2.37408">
        <ele>124.3</ele>
        <time>2015-05-05T19:20:37.139Z</time>
      </trkpt>
      <trkpt lat="48.88842" lon="2.37406">
        <ele>124.4</ele>
        <time>2015-05-05T19:20:38.169Z</time>
      </trkpt>
      <trkpt lat="48.88838" lon="2.374">
        <ele>124.7</ele>
        <time>2015-05-05T19:20:41.156Z</time>
      </trkpt>
      <trkpt lat="48.88838" lon="2.37398">
        <ele>124.6</ele>
        <time>2015-05-05T19:20:42.054Z</time>
      </trkpt>
      <trkpt lat="48.88838" lon="2.37397">
        <ele>124.6</ele>
        <time>2015-05-05T19:20:43.071Z</time>
      </trkpt>
      <trkpt lat="48.88837" lon="2.37396">
        <ele>124.4</ele>
        <time>2015-05-05T19:20:44.090Z</time>
      </trkpt>
      <trkpt lat="48.88828" lon="2.37395">
        <ele>124.6</ele>
        <time>2015-05-05T19:20:48.068Z</time>
      </trkpt>
      <trkpt lat="48.88825" lon="2.37392">
        <ele>124.8</ele>
        <time>2015-05-05T19:20:49.099Z</time>
      </trkpt>
      <trkpt lat="48.88818" lon="2.37385">
        <ele>125.1</ele>
        <time>2015-05-05T19:20:51.132Z</time>
      </trkpt>
      <trkpt lat="48.88814" lon="2.37381">
        <ele>125.1</ele>
        <time>2015-05-05T19:20:52.149Z</time>
      </trkpt>
      <trkpt lat="48.88807" lon="2.37372">
        <ele>124.9</ele>
        <time>2015-05-05T19:20:54.154Z</time>
      </trkpt>
      <trkpt lat="48.88804" lon="2.37367">
        <ele>124.9</ele>
        <time>2015-05-05T19:20:55.056Z</time>
      </trkpt>
      <trkpt lat="48.888" lon="2.3736">
        <ele>124.9</ele>
        <time>2015-05-05T19:20:56.085Z</time>
      </trkpt>
      <trkpt lat="48.88796" lon="2.37354">
        <ele>124.7</ele>
        <time>2015-05-05T19:20:57.113Z</time>
      </trkpt>
      <trkpt lat="48.88793" lon="2.37347">
        <ele>124.7</ele>
        <time>2015-05-05T19:20:58.175Z</time>
      </trkpt>
      <trkpt lat="48.88789" lon="2.37342">
        <ele>124.5</ele>
        <time>2015-05-05T19:20:59.084Z</time>
      </trkpt>
      <trkpt lat="48.88785" lon="2.37335">
        <ele>124.3</ele>
        <time>2015-05-05T19:21:00.109Z</time>
      </trkpt>
      <trkpt lat="48.88782" lon="2.37329">
        <ele>123.9</ele>
        <time>2015-05-05T19:21:01.106Z</time>
      </trkpt>
      <trkpt lat="48.88779" lon="2.37321">
        <ele>123.4</ele>
        <time>2015-05-05T19:21:02.150Z</time>
      </trkpt>
      <trkpt lat="48.88776" lon="2.37313">
        <ele>123.1</ele>
        <time>2015-05-05T19:21:03.151Z</time>
      </trkpt>
      <trkpt lat="48.88772" lon="2.37307">
        <ele>123.1</ele>
        <time>2015-05-05T19:21:04.158Z</time>
      </trkpt>
      <trkpt lat="48.88767" lon="2.37299">
        <ele>123.4</ele>
        <time>2015-05-05T19:21:05.068Z</time>
      </trkpt>
      <trkpt lat="48.88763" lon="2.37293">
        <ele>123.5</ele>
        <time>2015-05-05T19:21:06.064Z</time>
      </trkpt>
      <trkpt lat="48.88759" lon="2.37288">
        <ele>123.4</ele>
        <time>2015-05-05T19:21:07.079Z</time>
      </trkpt>
      <trkpt lat="48.88754" lon="2.37284">
        <ele>123.4</ele>
        <time>2015-05-05T19:21:08.129Z</time>
      </trkpt>
      <trkpt lat="48.8875" lon="2.37281">
        <ele>123.4</ele>
        <time>2015-05-05T19:21:09.139Z</time>
      </trkpt>
      <trkpt lat="48.88743" lon="2.37275">
        <ele>122.8</ele>
        <time>2015-05-05T19:21:11.068Z</time>
      </trkpt>
      <trkpt lat="48.88739" lon="2.37272">
        <ele>122.8</ele>
        <time>2015-05-05T19:21:12.106Z</time>
      </trkpt>
      <trkpt lat="48.88735" lon="2.3727">
        <ele>123.1</ele>
        <time>2015-05-05T19:21:13.072Z</time>
      </trkpt>
      <trkpt lat="48.88729" lon="2.37269">
        <ele>124</ele>
        <time>2015-05-05T19:21:14.069Z</time>
      </trkpt>
      <trkpt lat="48.88725" lon="2.37265">
        <ele>124</ele>
        <time>2015-05-05T19:21:15.156Z</time>
      </trkpt>
      <trkpt lat="48.88721" lon="2.37261">
        <ele>124</ele>
        <time>2015-05-05T19:21:16.168Z</time>
      </trkpt>
      <trkpt lat="48.88718" lon="2.37256">
        <ele>123.9</ele>
        <time>2015-05-05T19:21:17.070Z</time>
      </trkpt>
      <trkpt lat="48.88715" lon="2.37251">
        <ele>123.7</ele>
        <time>2015-05-05T19:21:18.075Z</time>
      </trkpt>
      <trkpt lat="48.8871" lon="2.37246">
        <ele>123.6</ele>
        <time>2015-05-05T19:21:19.086Z</time>
      </trkpt>
      <trkpt lat="48.88706" lon="2.37241">
        <ele>123.5</ele>
        <time>2015-05-05T19:21:20.092Z</time>
      </trkpt>
      <trkpt lat="48.88702" lon="2.37235">
        <ele>123.3</ele>
        <time>2015-05-05T19:21:21.111Z</time>
      </trkpt>
      <trkpt lat="48.88698" lon="2.37228">
        <ele>123</ele>
        <time>2015-05-05T19:21:22.133Z</time>
      </trkpt>
      <trkpt lat="48.88694" lon="2.37222">
        <ele>122.5</ele>
        <time>2015-05-05T19:21:23.145Z</time>
      </trkpt>
      <trkpt lat="48.8869" lon="2.37216">
        <ele>122.3</ele>
        <time>2015-05-05T19:21:24.065Z</time>
      </trkpt>
      <trkpt lat="48.88686" lon="2.3721">
        <ele>121.9</ele>
        <time>2015-05-05T19:21:25.070Z</time>
      </trkpt>
      <trkpt lat="48.88681" lon="2.37205">
        <ele>121.4</ele>
        <time>2015-05-05T19:21:26.080Z</time>
      </trkpt>
      <trkpt lat="48.88675" lon="2.37196">
        <ele>121.4</ele>
        <time>2015-05-05T19:21:28.144Z</time>
      </trkpt>
      <trkpt lat="48.88671" lon="2.37192">
        <ele>121.2</ele>
        <time>2015-05-05T19:21:29.087Z</time>
      </trkpt>
      <trkpt lat="48.88667" lon="2.37187">
        <ele>120.8</ele>
        <time>2015-05-05T19:21:30.105Z</time>
      </trkpt>
      <trkpt lat="48.88663" lon="2.37183">
        <ele>120.7</ele>
        <time>2015-05-05T19:21:31.166Z</time>
      </trkpt>
      <trkpt lat="48.88659" lon="2.37178">
        <ele>120.5</ele>
        <time>2015-05-05T19:21:32.065Z</time>
      </trkpt>
      <trkpt lat="48.88654" lon="2.37172">
        <ele>120.3</ele>
        <time>2015-05-05T19:21:33.055Z</time>
      </trkpt>
      <trkpt lat="48.8865" lon="2.37167">
        <ele>120.4</ele>
        <time>2015-05-05T19:21:34.120Z</time>
      </trkpt>
      <trkpt lat="48.88646" lon="2.37161">
        <ele>120.4</ele>
        <time>2015-05-05T19:21:35.129Z</time>
      </trkpt>
      <trkpt lat="48.88642" lon="2.37156">
        <ele>120.3</ele>
        <time>2015-05-05T19:21:36.144Z</time>
      </trkpt>
      <trkpt lat="48.88637" lon="2.37152">
        <ele>120.2</ele>
        <time>2015-05-05T19:21:37.160Z</time>
      </trkpt>
      <trkpt lat="48.88633" lon="2.37148">
        <ele>120.1</ele>
        <time>2015-05-05T19:21:38.050Z</time>
      </trkpt>
      <trkpt lat="48.88629" lon="2.37144">
        <ele>120</ele>
        <time>2015-05-05T19:21:39.068Z</time>
      </trkpt>
      <trkpt lat="48.88626" lon="2.37141">
        <ele>119.7</ele>
        <time>2015-05-05T19:21:40.127Z</time>
      </trkpt>
      <trkpt lat="48.88622" lon="2.37136">
        <ele>119.4</ele>
        <time>2015-05-05T19:21:41.171Z</time>
      </trkpt>
      <trkpt lat="48.88618" lon="2.37131">
        <ele>119.2</ele>
        <time>2015-05-05T19:21:42.068Z</time>
      </trkpt>
      <trkpt lat="48.88614" lon="2.37126">
        <ele>119.3</ele>
        <time>2015-05-05T19:21:43.076Z</time>
      </trkpt>
      <trkpt lat="48.8861" lon="2.37119">
        <ele>119.3</ele>
        <time>2015-05-05T19:21:44.090Z</time>
      </trkpt>
      <trkpt lat="48.88606" lon="2.37113">
        <ele>119.4</ele>
        <time>2015-05-05T19:21:45.098Z</time>
      </trkpt>
      <trkpt lat="48.88603" lon="2.37109">
        <ele>119.6</ele>
        <time>2015-05-05T19:21:46.117Z</time>
      </trkpt>
      <trkpt lat="48.88599" lon="2.37105">
        <ele>119.7</ele>
        <time>2015-05-05T19:21:47.133Z</time>
      </trkpt>
      <trkpt lat="48.88594" lon="2.371">
        <ele>119.7</ele>
        <time>2015-05-05T19:21:48.147Z</time>
      </trkpt>
      <trkpt lat="48.8859" lon="2.37095">
        <ele>119.8</ele>
        <time>2015-05-05T19:21:49.174Z</time>
      </trkpt>
      <trkpt lat="48.88586" lon="2.3709">
        <ele>119.8</ele>
        <time>2015-05-05T19:21:50.087Z</time>
      </trkpt>
      <trkpt lat="48.88582" lon="2.37085">
        <ele>119.9</ele>
        <time>2015-05-05T19:21:51.133Z</time>
      </trkpt>
      <trkpt lat="48.88578" lon="2.37082">
        <ele>120.1</ele>
        <time>2015-05-05T19:21:52.139Z</time>
      </trkpt>
      <trkpt lat="48.88574" lon="2.37078">
        <ele>120.4</ele>
        <time>2015-05-05T19:21:53.163Z</time>
      </trkpt>
      <trkpt lat="48.8857" lon="2.37074">
        <ele>120.7</ele>
        <time>2015-05-05T19:21:54.064Z</time>
      </trkpt>
      <trkpt lat="48.88566" lon="2.37069">
        <ele>120.9</ele>
        <time>2015-05-05T19:21:55.070Z</time>
      </trkpt>
      <trkpt lat="48.88562" lon="2.37064">
        <ele>121</ele>
        <time>2015-05-05T19:21:56.075Z</time>
      </trkpt>
      <trkpt lat="48.88558" lon="2.3706">
        <ele>121.2</ele>
        <time>2015-05-05T19:21:57.083Z</time>
      </trkpt>
      <trkpt lat="48.88555" lon="2.37055">
        <ele>121.3</ele>
        <time>2015-05-05T19:21:58.136Z</time>
      </trkpt>
      <trkpt lat="48.88551" lon="2.3705">
        <ele>121.4</ele>
        <time>2015-05-05T19:21:59.074Z</time>
      </trkpt>
      <trkpt lat="48.88547" lon="2.37044">
        <ele>121.7</ele>
        <time>2015-05-05T19:22:00.078Z</time>
      </trkpt>
      <trkpt lat="48.88543" lon="2.37038">
        <ele>121.7</ele>
        <time>2015-05-05T19:22:01.085Z</time>
      </trkpt>
      <trkpt lat="48.88539" lon="2.37032">
        <ele>122.1</ele>
        <time>2015-05-05T19:22:02.113Z</time>
      </trkpt>
      <trkpt lat="48.88535" lon="2.37027">
        <ele>122.3</ele>
        <time>2015-05-05T19:22:03.176Z</time>
      </trkpt>
      <trkpt lat="48.88532" lon="2.37022">
        <ele>122.4</ele>
        <time>2015-05-05T19:22:04.102Z</time>
      </trkpt>
      <trkpt lat="48.88529" lon="2.37017">
        <ele>122.5</ele>
        <time>2015-05-05T19:22:05.066Z</time>
      </trkpt>
      <trkpt lat="48.88525" lon="2.37012">
        <ele>122.5</ele>
        <time>2015-05-05T19:22:06.070Z</time>
      </trkpt>
      <trkpt lat="48.88522" lon="2.37008">
        <ele>122.6</ele>
        <time>2015-05-05T19:22:07.082Z</time>
      </trkpt>
      <trkpt lat="48.88519" lon="2.37003">
        <ele>122.8</ele>
        <time>2015-05-05T19:22:08.104Z</time>
      </trkpt>
      <trkpt lat="48.88515" lon="2.36999">
        <ele>123.1</ele>
        <time>2015-05-05T19:22:09.123Z</time>
      </trkpt>
      <trkpt lat="48.88508" lon="2.36996">
        <ele>124.6</ele>
        <time>2015-05-05T19:22:10.141Z</time>
      </trkpt>
      <trkpt lat="48.88503" lon="2.36992">
        <ele>125.5</ele>
        <time>2015-05-05T19:22:11.062Z</time>
      </trkpt>
      <trkpt lat="48.885" lon="2.36987">
        <ele>125.9</ele>
        <time>2015-05-05T19:22:12.065Z</time>
      </trkpt>
      <trkpt lat="48.88496" lon="2.36982">
        <ele>125.8</ele>
        <time>2015-05-05T19:22:13.074Z</time>
      </trkpt>
      <trkpt lat="48.8849" lon="2.36974">
        <ele>125.5</ele>
        <time>2015-05-05T19:22:15.101Z</time>
      </trkpt>
      <trkpt lat="48.88486" lon="2.36971">
        <ele>125.5</ele>
        <time>2015-05-05T19:22:16.141Z</time>
      </trkpt>
      <trkpt lat="48.88482" lon="2.36966">
        <ele>125.4</ele>
        <time>2015-05-05T19:22:17.158Z</time>
      </trkpt>
      <trkpt lat="48.88479" lon="2.36961">
        <ele>125.4</ele>
        <time>2015-05-05T19:22:18.048Z</time>
      </trkpt>
      <trkpt lat="48.88475" lon="2.36955">
        <ele>125.5</ele>
        <time>2015-05-05T19:22:19.343Z</time>
      </trkpt>
      <trkpt lat="48.88471" lon="2.3695">
        <ele>125.6</ele>
        <time>2015-05-05T19:22:20.115Z</time>
      </trkpt>
      <trkpt lat="48.88468" lon="2.36945">
        <ele>125.8</ele>
        <time>2015-05-05T19:22:21.127Z</time>
      </trkpt>
      <trkpt lat="48.88464" lon="2.36939">
        <ele>126.8</ele>
        <time>2015-05-05T19:22:22.149Z</time>
      </trkpt>
      <trkpt lat="48.88457" lon="2.36934">
        <ele>127</ele>
        <time>2015-05-05T19:22:24.500Z</time>
      </trkpt>
      <trkpt lat="48.88453" lon="2.36931">
        <ele>127</ele>
        <time>2015-05-05T19:22:25.106Z</time>
      </trkpt>
      <trkpt lat="48.88446" lon="2.36924">
        <ele>127.3</ele>
        <time>2015-05-05T19:22:27.161Z</time>
      </trkpt>
      <trkpt lat="48.88444" lon="2.36914">
        <ele>127.6</ele>
        <time>2015-05-05T19:22:28.207Z</time>
      </trkpt>
      <trkpt lat="48.88437" lon="2.36907">
        <ele>128</ele>
        <time>2015-05-05T19:22:30.084Z</time>
      </trkpt>
      <trkpt lat="48.88434" lon="2.36903">
        <ele>128.1</ele>
        <time>2015-05-05T19:22:31.094Z</time>
      </trkpt>
      <trkpt lat="48.88427" lon="2.36896">
        <ele>128.5</ele>
        <time>2015-05-05T19:22:33.084Z</time>
      </trkpt>
      <trkpt lat="48.88423" lon="2.36892">
        <ele>129.4</ele>
        <time>2015-05-05T19:22:34.206Z</time>
      </trkpt>
      <trkpt lat="48.88416" lon="2.36885">
        <ele>131.2</ele>
        <time>2015-05-05T19:22:36.105Z</time>
      </trkpt>
      <trkpt lat="48.88413" lon="2.3688">
        <ele>132</ele>
        <time>2015-05-05T19:22:37.123Z</time>
      </trkpt>
      <trkpt lat="48.88408" lon="2.36869">
        <ele>132.2</ele>
        <time>2015-05-05T19:22:40.235Z</time>
      </trkpt>
      <trkpt lat="48.88407" lon="2.36865">
        <ele>131.9</ele>
        <time>2015-05-05T19:22:41.053Z</time>
      </trkpt>
      <trkpt lat="48.88414" lon="2.36863">
        <ele>120</ele>
        <time>2015-05-05T19:23:01.084Z</time>
      </trkpt>
      <trkpt lat="48.88414" lon="2.36863">
        <ele>120.2</ele>
        <time>2015-05-05T19:23:02.080Z</time>
      </trkpt>
      <trkpt lat="48.88414" lon="2.36864">
        <ele>120.2</ele>
        <time>2015-05-05T19:23:45.176Z</time>
      </trkpt>
      <trkpt lat="48.88417" lon="2.36865">
        <ele>116.2</ele>
        <time>2015-05-05T19:23:46.205Z</time>
      </trkpt>
      <trkpt lat="48.88411" lon="2.36855">
        <ele>116.2</ele>
        <time>2015-05-05T19:23:52.166Z</time>
      </trkpt>
      <trkpt lat="48.8841" lon="2.36853">
        <ele>116.3</ele>
        <time>2015-05-05T19:23:53.151Z</time>
      </trkpt>
      <trkpt lat="48.88403" lon="2.36851">
        <ele>116.7</ele>
        <time>2015-05-05T19:23:57.117Z</time>
      </trkpt>
      <trkpt lat="48.884" lon="2.36851">
        <ele>116.5</ele>
        <time>2015-05-05T19:23:58.153Z</time>
      </trkpt>
      <trkpt lat="48.88394" lon="2.36852">
        <ele>116.4</ele>
        <time>2015-05-05T19:24:00.076Z</time>
      </trkpt>
      <trkpt lat="48.8839" lon="2.36851">
        <ele>116.5</ele>
        <time>2015-05-05T19:24:01.106Z</time>
      </trkpt>
      <trkpt lat="48.88383" lon="2.36849">
        <ele>116.4</ele>
        <time>2015-05-05T19:24:04.175Z</time>
      </trkpt>
      <trkpt lat="48.88381" lon="2.36846">
        <ele>116.5</ele>
        <time>2015-05-05T19:24:05.099Z</time>
      </trkpt>
      <trkpt lat="48.88375" lon="2.36837">
        <ele>116.8</ele>
        <time>2015-05-05T19:24:08.106Z</time>
      </trkpt>
      <trkpt lat="48.88372" lon="2.36835">
        <ele>117.1</ele>
        <time>2015-05-05T19:24:09.090Z</time>
      </trkpt>
      <trkpt lat="48.88367" lon="2.36829">
        <ele>117.5</ele>
        <time>2015-05-05T19:24:11.105Z</time>
      </trkpt>
      <trkpt lat="48.88365" lon="2.36825">
        <ele>117.4</ele>
        <time>2015-05-05T19:24:12.158Z</time>
      </trkpt>
      <trkpt lat="48.88361" lon="2.36817">
        <ele>117.5</ele>
        <time>2015-05-05T19:24:14.076Z</time>
      </trkpt>
      <trkpt lat="48.88358" lon="2.36814">
        <ele>117.7</ele>
        <time>2015-05-05T19:24:15.086Z</time>
      </trkpt>
      <trkpt lat="48.88353" lon="2.36807">
        <ele>117.9</ele>
        <time>2015-05-05T19:24:17.144Z</time>
      </trkpt>
      <trkpt lat="48.8835" lon="2.36803">
        <ele>118.1</ele>
        <time>2015-05-05T19:24:18.060Z</time>
      </trkpt>
      <trkpt lat="48.88343" lon="2.36795">
        <ele>118.4</ele>
        <time>2015-05-05T19:24:20.095Z</time>
      </trkpt>
      <trkpt lat="48.8834" lon="2.36792">
        <ele>118.4</ele>
        <time>2015-05-05T19:24:21.116Z</time>
      </trkpt>
      <trkpt lat="48.88334" lon="2.36786">
        <ele>118.7</ele>
        <time>2015-05-05T19:24:23.583Z</time>
      </trkpt>
      <trkpt lat="48.8833" lon="2.36782">
        <ele>118.9</ele>
        <time>2015-05-05T19:24:24.121Z</time>
      </trkpt>
      <trkpt lat="48.88323" lon="2.36775">
        <ele>119</ele>
        <time>2015-05-05T19:24:26.076Z</time>
      </trkpt>
      <trkpt lat="48.8832" lon="2.36772">
        <ele>119</ele>
        <time>2015-05-05T19:24:27.070Z</time>
      </trkpt>
      <trkpt lat="48.88315" lon="2.36764">
        <ele>118.6</ele>
        <time>2015-05-05T19:24:29.089Z</time>
      </trkpt>
      <trkpt lat="48.88313" lon="2.36761">
        <ele>118.6</ele>
        <time>2015-05-05T19:24:30.093Z</time>
      </trkpt>
      <trkpt lat="48.88306" lon="2.36753">
        <ele>118.6</ele>
        <time>2015-05-05T19:24:33.077Z</time>
      </trkpt>
      <trkpt lat="48.88303" lon="2.3675">
        <ele>118.6</ele>
        <time>2015-05-05T19:24:33.132Z</time>
      </trkpt>
      <trkpt lat="48.88299" lon="2.36744">
        <ele>118.7</ele>
        <time>2015-05-05T19:24:35.045Z</time>
      </trkpt>
      <trkpt lat="48.88297" lon="2.3674">
        <ele>118.9</ele>
        <time>2015-05-05T19:24:36.056Z</time>
      </trkpt>
      <trkpt lat="48.88293" lon="2.36732">
        <ele>119</ele>
        <time>2015-05-05T19:24:38.152Z</time>
      </trkpt>
      <trkpt lat="48.8829" lon="2.36728">
        <ele>118.9</ele>
        <time>2015-05-05T19:24:39.097Z</time>
      </trkpt>
      <trkpt lat="48.88285" lon="2.36721">
        <ele>118.8</ele>
        <time>2015-05-05T19:24:41.126Z</time>
      </trkpt>
      <trkpt lat="48.88281" lon="2.36718">
        <ele>118.8</ele>
        <time>2015-05-05T19:24:42.031Z</time>
      </trkpt>
      <trkpt lat="48.88274" lon="2.36712">
        <ele>119</ele>
        <time>2015-05-05T19:24:44.076Z</time>
      </trkpt>
      <trkpt lat="48.88271" lon="2.36708">
        <ele>119</ele>
        <time>2015-05-05T19:24:45.090Z</time>
      </trkpt>
      <trkpt lat="48.88264" lon="2.367">
        <ele>119.1</ele>
        <time>2015-05-05T19:24:47.112Z</time>
      </trkpt>
      <trkpt lat="48.88259" lon="2.36694">
        <ele>119</ele>
        <time>2015-05-05T19:24:48.058Z</time>
      </trkpt>
      <trkpt lat="48.88254" lon="2.3669">
        <ele>118.8</ele>
        <time>2015-05-05T19:24:49.100Z</time>
      </trkpt>
      <trkpt lat="48.88244" lon="2.36685">
        <ele>118.1</ele>
        <time>2015-05-05T19:24:50.112Z</time>
      </trkpt>
      <trkpt lat="48.88234" lon="2.3668">
        <ele>117.4</ele>
        <time>2015-05-05T19:24:51.060Z</time>
      </trkpt>
      <trkpt lat="48.88227" lon="2.36675">
        <ele>117.1</ele>
        <time>2015-05-05T19:24:52.092Z</time>
      </trkpt>
      <trkpt lat="48.88221" lon="2.36671">
        <ele>116.7</ele>
        <time>2015-05-05T19:24:53.094Z</time>
      </trkpt>
      <trkpt lat="48.88216" lon="2.36668">
        <ele>116.5</ele>
        <time>2015-05-05T19:24:53.412Z</time>
      </trkpt>
      <trkpt lat="48.8821" lon="2.36664">
        <ele>116.2</ele>
        <time>2015-05-05T19:24:55.157Z</time>
      </trkpt>
      <trkpt lat="48.88204" lon="2.36658">
        <ele>115.9</ele>
        <time>2015-05-05T19:24:56.069Z</time>
      </trkpt>
      <trkpt lat="48.88199" lon="2.36651">
        <ele>115.5</ele>
        <time>2015-05-05T19:24:57.073Z</time>
      </trkpt>
      <trkpt lat="48.88195" lon="2.36644">
        <ele>115.3</ele>
        <time>2015-05-05T19:24:58.471Z</time>
      </trkpt>
      <trkpt lat="48.88191" lon="2.36638">
        <ele>115</ele>
        <time>2015-05-05T19:24:59.112Z</time>
      </trkpt>
      <trkpt lat="48.88187" lon="2.36631">
        <ele>114.8</ele>
        <time>2015-05-05T19:25:00.130Z</time>
      </trkpt>
      <trkpt lat="48.88184" lon="2.36624">
        <ele>114.6</ele>
        <time>2015-05-05T19:25:01.121Z</time>
      </trkpt>
      <trkpt lat="48.8818" lon="2.36617">
        <ele>114.8</ele>
        <time>2015-05-05T19:25:02.127Z</time>
      </trkpt>
      <trkpt lat="48.88177" lon="2.36611">
        <ele>115.2</ele>
        <time>2015-05-05T19:25:03.149Z</time>
      </trkpt>
      <trkpt lat="48.88175" lon="2.36606">
        <ele>115.5</ele>
        <time>2015-05-05T19:25:04.151Z</time>
      </trkpt>
      <trkpt lat="48.88172" lon="2.366">
        <ele>115.8</ele>
        <time>2015-05-05T19:25:05.061Z</time>
      </trkpt>
      <trkpt lat="48.88168" lon="2.3659">
        <ele>116.3</ele>
        <time>2015-05-05T19:25:07.072Z</time>
      </trkpt>
      <trkpt lat="48.88165" lon="2.36587">
        <ele>116.4</ele>
        <time>2015-05-05T19:25:08.094Z</time>
      </trkpt>
      <trkpt lat="48.88158" lon="2.36579">
        <ele>116.2</ele>
        <time>2015-05-05T19:25:13.120Z</time>
      </trkpt>
      <trkpt lat="48.88157" lon="2.36578">
        <ele>116.2</ele>
        <time>2015-05-05T19:25:14.131Z</time>
      </trkpt>
      <trkpt lat="48.8815" lon="2.36573">
        <ele>116.4</ele>
        <time>2015-05-05T19:25:19.095Z</time>
      </trkpt>
      <trkpt lat="48.88149" lon="2.36571">
        <ele>116.5</ele>
        <time>2015-05-05T19:25:20.119Z</time>
      </trkpt>
      <trkpt lat="48.88143" lon="2.36566">
        <ele>116.8</ele>
        <time>2015-05-05T19:25:23.089Z</time>
      </trkpt>
      <trkpt lat="48.8814" lon="2.36565">
        <ele>117</ele>
        <time>2015-05-05T19:25:24.093Z</time>
      </trkpt>
      <trkpt lat="48.88135" lon="2.36561">
        <ele>117.1</ele>
        <time>2015-05-05T19:25:26.150Z</time>
      </trkpt>
      <trkpt lat="48.88132" lon="2.36558">
        <ele>117.1</ele>
        <time>2015-05-05T19:25:27.086Z</time>
      </trkpt>
      <trkpt lat="48.88129" lon="2.36549">
        <ele>117.4</ele>
        <time>2015-05-05T19:25:29.113Z</time>
      </trkpt>
      <trkpt lat="48.88127" lon="2.36545">
        <ele>117.6</ele>
        <time>2015-05-05T19:25:30.127Z</time>
      </trkpt>
      <trkpt lat="48.88123" lon="2.36537">
        <ele>118</ele>
        <time>2015-05-05T19:25:32.069Z</time>
      </trkpt>
      <trkpt lat="48.88121" lon="2.36533">
        <ele>118</ele>
        <time>2015-05-05T19:25:33.109Z</time>
      </trkpt>
      <trkpt lat="48.88114" lon="2.36527">
        <ele>119.1</ele>
        <time>2015-05-05T19:25:36.055Z</time>
      </trkpt>
      <trkpt lat="48.88112" lon="2.36525">
        <ele>119</ele>
        <time>2015-05-05T19:25:37.065Z</time>
      </trkpt>
      <trkpt lat="48.88107" lon="2.36519">
        <ele>119.1</ele>
        <time>2015-05-05T19:25:39.075Z</time>
      </trkpt>
      <trkpt lat="48.88105" lon="2.36515">
        <ele>119.1</ele>
        <time>2015-05-05T19:25:40.122Z</time>
      </trkpt>
      <trkpt lat="48.88098" lon="2.36506">
        <ele>119.4</ele>
        <time>2015-05-05T19:25:42.058Z</time>
      </trkpt>
      <trkpt lat="48.88094" lon="2.36501">
        <ele>119.3</ele>
        <time>2015-05-05T19:25:43.092Z</time>
      </trkpt>
      <trkpt lat="48.88091" lon="2.36496">
        <ele>119.4</ele>
        <time>2015-05-05T19:25:44.100Z</time>
      </trkpt>
      <trkpt lat="48.88087" lon="2.36491">
        <ele>119.4</ele>
        <time>2015-05-05T19:25:45.148Z</time>
      </trkpt>
      <trkpt lat="48.88083" lon="2.36486">
        <ele>119.4</ele>
        <time>2015-05-05T19:25:46.088Z</time>
      </trkpt>
      <trkpt lat="48.88079" lon="2.36482">
        <ele>119.5</ele>
        <time>2015-05-05T19:25:47.088Z</time>
      </trkpt>
      <trkpt lat="48.88075" lon="2.36477">
        <ele>119.4</ele>
        <time>2015-05-05T19:25:48.099Z</time>
      </trkpt>
      <trkpt lat="48.88071" lon="2.36472">
        <ele>119.5</ele>
        <time>2015-05-05T19:25:49.127Z</time>
      </trkpt>
      <trkpt lat="48.88067" lon="2.36468">
        <ele>119.4</ele>
        <time>2015-05-05T19:25:50.059Z</time>
      </trkpt>
      <trkpt lat="48.88063" lon="2.36463">
        <ele>119.3</ele>
        <time>2015-05-05T19:25:51.061Z</time>
      </trkpt>
      <trkpt lat="48.88059" lon="2.36458">
        <ele>119.3</ele>
        <time>2015-05-05T19:25:52.111Z</time>
      </trkpt>
      <trkpt lat="48.88055" lon="2.36453">
        <ele>119.5</ele>
        <time>2015-05-05T19:25:53.123Z</time>
      </trkpt>
      <trkpt lat="48.8805" lon="2.36448">
        <ele>119.5</ele>
        <time>2015-05-05T19:25:54.124Z</time>
      </trkpt>
      <trkpt lat="48.88046" lon="2.36443">
        <ele>119.6</ele>
        <time>2015-05-05T19:25:55.134Z</time>
      </trkpt>
      <trkpt lat="48.88042" lon="2.36438">
        <ele>119.6</ele>
        <time>2015-05-05T19:25:56.067Z</time>
      </trkpt>
      <trkpt lat="48.88037" lon="2.36432">
        <ele>119.8</ele>
        <time>2015-05-05T19:25:57.059Z</time>
      </trkpt>
      <trkpt lat="48.88033" lon="2.36426">
        <ele>119.9</ele>
        <time>2015-05-05T19:25:58.107Z</time>
      </trkpt>
      <trkpt lat="48.88029" lon="2.36422">
        <ele>120</ele>
        <time>2015-05-05T19:25:59.117Z</time>
      </trkpt>
      <trkpt lat="48.88023" lon="2.36413">
        <ele>120.1</ele>
        <time>2015-05-05T19:26:01.133Z</time>
      </trkpt>
      <trkpt lat="48.8802" lon="2.36409">
        <ele>120</ele>
        <time>2015-05-05T19:26:02.141Z</time>
      </trkpt>
      <trkpt lat="48.88017" lon="2.36404">
        <ele>120</ele>
        <time>2015-05-05T19:26:03.057Z</time>
      </trkpt>
      <trkpt lat="48.88013" lon="2.36399">
        <ele>119.9</ele>
        <time>2015-05-05T19:26:04.158Z</time>
      </trkpt>
      <trkpt lat="48.88009" lon="2.36393">
        <ele>119.7</ele>
        <time>2015-05-05T19:26:05.054Z</time>
      </trkpt>
      <trkpt lat="48.88005" lon="2.36388">
        <ele>119.7</ele>
        <time>2015-05-05T19:26:06.058Z</time>
      </trkpt>
      <trkpt lat="48.88001" lon="2.36384">
        <ele>119.7</ele>
        <time>2015-05-05T19:26:07.087Z</time>
      </trkpt>
      <trkpt lat="48.87997" lon="2.36381">
        <ele>119.7</ele>
        <time>2015-05-05T19:26:08.116Z</time>
      </trkpt>
      <trkpt lat="48.87992" lon="2.36376">
        <ele>119.7</ele>
        <time>2015-05-05T19:26:09.128Z</time>
      </trkpt>
      <trkpt lat="48.87988" lon="2.36371">
        <ele>119.7</ele>
        <time>2015-05-05T19:26:10.146Z</time>
      </trkpt>
      <trkpt lat="48.87981" lon="2.36364">
        <ele>119.4</ele>
        <time>2015-05-05T19:26:11.157Z</time>
      </trkpt>
      <trkpt lat="48.87972" lon="2.36358">
        <ele>118.9</ele>
        <time>2015-05-05T19:26:12.054Z</time>
      </trkpt>
      <trkpt lat="48.87964" lon="2.36351">
        <ele>118.6</ele>
        <time>2015-05-05T19:26:13.070Z</time>
      </trkpt>
      <trkpt lat="48.87961" lon="2.36346">
        <ele>118.7</ele>
        <time>2015-05-05T19:26:14.162Z</time>
      </trkpt>
      <trkpt lat="48.87954" lon="2.36338">
        <ele>119</ele>
        <time>2015-05-05T19:26:16.111Z</time>
      </trkpt>
      <trkpt lat="48.8795" lon="2.36332">
        <ele>119.2</ele>
        <time>2015-05-05T19:26:17.117Z</time>
      </trkpt>
      <trkpt lat="48.87946" lon="2.36326">
        <ele>119.4</ele>
        <time>2015-05-05T19:26:18.134Z</time>
      </trkpt>
      <trkpt lat="48.87942" lon="2.36321">
        <ele>119.6</ele>
        <time>2015-05-05T19:26:19.272Z</time>
      </trkpt>
      <trkpt lat="48.8794" lon="2.36315">
        <ele>119.7</ele>
        <time>2015-05-05T19:26:20.240Z</time>
      </trkpt>
      <trkpt lat="48.87937" lon="2.36309">
        <ele>119.8</ele>
        <time>2015-05-05T19:26:21.064Z</time>
      </trkpt>
      <trkpt lat="48.87931" lon="2.363">
        <ele>119.9</ele>
        <time>2015-05-05T19:26:23.105Z</time>
      </trkpt>
      <trkpt lat="48.87928" lon="2.36296">
        <ele>120</ele>
        <time>2015-05-05T19:26:24.128Z</time>
      </trkpt>
      <trkpt lat="48.87923" lon="2.36285">
        <ele>120.1</ele>
        <time>2015-05-05T19:26:26.078Z</time>
      </trkpt>
      <trkpt lat="48.87918" lon="2.36279">
        <ele>120</ele>
        <time>2015-05-05T19:26:27.096Z</time>
      </trkpt>
      <trkpt lat="48.87909" lon="2.36272">
        <ele>119.7</ele>
        <time>2015-05-05T19:26:28.110Z</time>
      </trkpt>
      <trkpt lat="48.87902" lon="2.36265">
        <ele>119.4</ele>
        <time>2015-05-05T19:26:29.185Z</time>
      </trkpt>
      <trkpt lat="48.87898" lon="2.36259">
        <ele>119.3</ele>
        <time>2015-05-05T19:26:30.131Z</time>
      </trkpt>
      <trkpt lat="48.87895" lon="2.36248">
        <ele>119.8</ele>
        <time>2015-05-05T19:26:31.050Z</time>
      </trkpt>
      <trkpt lat="48.87891" lon="2.36242">
        <ele>120</ele>
        <time>2015-05-05T19:26:32.053Z</time>
      </trkpt>
      <trkpt lat="48.87887" lon="2.36236">
        <ele>120</ele>
        <time>2015-05-05T19:26:33.067Z</time>
      </trkpt>
      <trkpt lat="48.87884" lon="2.36231">
        <ele>120</ele>
        <time>2015-05-05T19:26:34.096Z</time>
      </trkpt>
      <trkpt lat="48.87879" lon="2.36226">
        <ele>120</ele>
        <time>2015-05-05T19:26:35.112Z</time>
      </trkpt>
      <trkpt lat="48.87874" lon="2.36223">
        <ele>119.9</ele>
        <time>2015-05-05T19:26:36.144Z</time>
      </trkpt>
      <trkpt lat="48.87869" lon="2.36219">
        <ele>119.9</ele>
        <time>2015-05-05T19:26:37.036Z</time>
      </trkpt>
      <trkpt lat="48.87865" lon="2.36214">
        <ele>119.7</ele>
        <time>2015-05-05T19:26:38.057Z</time>
      </trkpt>
      <trkpt lat="48.87858" lon="2.36208">
        <ele>119.3</ele>
        <time>2015-05-05T19:26:40.096Z</time>
      </trkpt>
      <trkpt lat="48.87855" lon="2.36204">
        <ele>119</ele>
        <time>2015-05-05T19:26:41.354Z</time>
      </trkpt>
      <trkpt lat="48.87848" lon="2.36196">
        <ele>119.1</ele>
        <time>2015-05-05T19:26:43.071Z</time>
      </trkpt>
      <trkpt lat="48.87844" lon="2.36192">
        <ele>119.2</ele>
        <time>2015-05-05T19:26:44.111Z</time>
      </trkpt>
      <trkpt lat="48.8784" lon="2.36187">
        <ele>119.4</ele>
        <time>2015-05-05T19:26:45.125Z</time>
      </trkpt>
      <trkpt lat="48.87836" lon="2.36184">
        <ele>119.6</ele>
        <time>2015-05-05T19:26:46.151Z</time>
      </trkpt>
      <trkpt lat="48.87832" lon="2.3618">
        <ele>119.6</ele>
        <time>2015-05-05T19:26:47.074Z</time>
      </trkpt>
      <trkpt lat="48.87827" lon="2.36176">
        <ele>119.8</ele>
        <time>2015-05-05T19:26:48.045Z</time>
      </trkpt>
      <trkpt lat="48.8782" lon="2.36174">
        <ele>119.7</ele>
        <time>2015-05-05T19:26:49.065Z</time>
      </trkpt>
      <trkpt lat="48.87813" lon="2.36173">
        <ele>119.9</ele>
        <time>2015-05-05T19:26:50.078Z</time>
      </trkpt>
      <trkpt lat="48.87807" lon="2.36171">
        <ele>120.1</ele>
        <time>2015-05-05T19:26:51.083Z</time>
      </trkpt>
      <trkpt lat="48.878" lon="2.36168">
        <ele>120.2</ele>
        <time>2015-05-05T19:26:52.126Z</time>
      </trkpt>
      <trkpt lat="48.87791" lon="2.36161">
        <ele>122.7</ele>
        <time>2015-05-05T19:26:53.128Z</time>
      </trkpt>
      <trkpt lat="48.87784" lon="2.36157">
        <ele>122.7</ele>
        <time>2015-05-05T19:26:54.151Z</time>
      </trkpt>
      <trkpt lat="48.87777" lon="2.36154">
        <ele>122.7</ele>
        <time>2015-05-05T19:26:55.046Z</time>
      </trkpt>
      <trkpt lat="48.8777" lon="2.36149">
        <ele>123</ele>
        <time>2015-05-05T19:26:56.077Z</time>
      </trkpt>
      <trkpt lat="48.87763" lon="2.36144">
        <ele>122.5</ele>
        <time>2015-05-05T19:26:57.087Z</time>
      </trkpt>
      <trkpt lat="48.87757" lon="2.36139">
        <ele>122.4</ele>
        <time>2015-05-05T19:26:58.113Z</time>
      </trkpt>
      <trkpt lat="48.8775" lon="2.36134">
        <ele>122.2</ele>
        <time>2015-05-05T19:26:59.127Z</time>
      </trkpt>
      <trkpt lat="48.87743" lon="2.36131">
        <ele>121.8</ele>
        <time>2015-05-05T19:27:00.060Z</time>
      </trkpt>
      <trkpt lat="48.87736" lon="2.36129">
        <ele>121</ele>
        <time>2015-05-05T19:27:01.074Z</time>
      </trkpt>
      <trkpt lat="48.8773" lon="2.36124">
        <ele>120.8</ele>
        <time>2015-05-05T19:27:02.095Z</time>
      </trkpt>
      <trkpt lat="48.87723" lon="2.36121">
        <ele>120.7</ele>
        <time>2015-05-05T19:27:03.301Z</time>
      </trkpt>
      <trkpt lat="48.87717" lon="2.36118">
        <ele>120.7</ele>
        <time>2015-05-05T19:27:04.140Z</time>
      </trkpt>
      <trkpt lat="48.87711" lon="2.36115">
        <ele>120.9</ele>
        <time>2015-05-05T19:27:05.152Z</time>
      </trkpt>
      <trkpt lat="48.87704" lon="2.36111">
        <ele>120.9</ele>
        <time>2015-05-05T19:27:06.160Z</time>
      </trkpt>
      <trkpt lat="48.87698" lon="2.36107">
        <ele>121.2</ele>
        <time>2015-05-05T19:27:07.159Z</time>
      </trkpt>
      <trkpt lat="48.87691" lon="2.36102">
        <ele>121.2</ele>
        <time>2015-05-05T19:27:08.094Z</time>
      </trkpt>
      <trkpt lat="48.87684" lon="2.361">
        <ele>121.5</ele>
        <time>2015-05-05T19:27:09.086Z</time>
      </trkpt>
      <trkpt lat="48.87677" lon="2.36097">
        <ele>121.9</ele>
        <time>2015-05-05T19:27:10.127Z</time>
      </trkpt>
      <trkpt lat="48.8767" lon="2.36094">
        <ele>122.2</ele>
        <time>2015-05-05T19:27:11.131Z</time>
      </trkpt>
      <trkpt lat="48.87663" lon="2.36091">
        <ele>122.6</ele>
        <time>2015-05-05T19:27:12.147Z</time>
      </trkpt>
      <trkpt lat="48.87656" lon="2.3609">
        <ele>122.7</ele>
        <time>2015-05-05T19:27:13.153Z</time>
      </trkpt>
      <trkpt lat="48.87649" lon="2.36088">
        <ele>123</ele>
        <time>2015-05-05T19:27:14.149Z</time>
      </trkpt>
      <trkpt lat="48.87642" lon="2.36086">
        <ele>123</ele>
        <time>2015-05-05T19:27:15.161Z</time>
      </trkpt>
      <trkpt lat="48.87636" lon="2.36082">
        <ele>122.7</ele>
        <time>2015-05-05T19:27:16.416Z</time>
      </trkpt>
      <trkpt lat="48.8763" lon="2.36079">
        <ele>122.9</ele>
        <time>2015-05-05T19:27:17.079Z</time>
      </trkpt>
      <trkpt lat="48.87624" lon="2.36074">
        <ele>123.2</ele>
        <time>2015-05-05T19:27:18.083Z</time>
      </trkpt>
      <trkpt lat="48.87618" lon="2.3607">
        <ele>123.3</ele>
        <time>2015-05-05T19:27:19.094Z</time>
      </trkpt>
      <trkpt lat="48.87612" lon="2.36065">
        <ele>123.2</ele>
        <time>2015-05-05T19:27:20.096Z</time>
      </trkpt>
      <trkpt lat="48.87606" lon="2.36063">
        <ele>122.8</ele>
        <time>2015-05-05T19:27:21.110Z</time>
      </trkpt>
      <trkpt lat="48.876" lon="2.36059">
        <ele>122.8</ele>
        <time>2015-05-05T19:27:22.112Z</time>
      </trkpt>
      <trkpt lat="48.87594" lon="2.36055">
        <ele>122.9</ele>
        <time>2015-05-05T19:27:23.121Z</time>
      </trkpt>
      <trkpt lat="48.87588" lon="2.36051">
        <ele>122.7</ele>
        <time>2015-05-05T19:27:24.162Z</time>
      </trkpt>
      <trkpt lat="48.87584" lon="2.36045">
        <ele>122.5</ele>
        <time>2015-05-05T19:27:25.053Z</time>
      </trkpt>
      <trkpt lat="48.8758" lon="2.3604">
        <ele>122</ele>
        <time>2015-05-05T19:27:26.071Z</time>
      </trkpt>
      <trkpt lat="48.87576" lon="2.36035">
        <ele>121.2</ele>
        <time>2015-05-05T19:27:27.075Z</time>
      </trkpt>
      <trkpt lat="48.87573" lon="2.3603">
        <ele>120.7</ele>
        <time>2015-05-05T19:27:28.112Z</time>
      </trkpt>
      <trkpt lat="48.87569" lon="2.36024">
        <ele>120.2</ele>
        <time>2015-05-05T19:27:29.285Z</time>
      </trkpt>
      <trkpt lat="48.87565" lon="2.36019">
        <ele>119.7</ele>
        <time>2015-05-05T19:27:30.130Z</time>
      </trkpt>
      <trkpt lat="48.87562" lon="2.36013">
        <ele>119.2</ele>
        <time>2015-05-05T19:27:31.137Z</time>
      </trkpt>
      <trkpt lat="48.87558" lon="2.36007">
        <ele>119</ele>
        <time>2015-05-05T19:27:32.066Z</time>
      </trkpt>
      <trkpt lat="48.87554" lon="2.36">
        <ele>118.8</ele>
        <time>2015-05-05T19:27:33.073Z</time>
      </trkpt>
      <trkpt lat="48.87551" lon="2.35995">
        <ele>118.7</ele>
        <time>2015-05-05T19:27:34.112Z</time>
      </trkpt>
      <trkpt lat="48.87547" lon="2.35989">
        <ele>118.3</ele>
        <time>2015-05-05T19:27:35.119Z</time>
      </trkpt>
      <trkpt lat="48.87545" lon="2.35983">
        <ele>118.3</ele>
        <time>2015-05-05T19:27:36.124Z</time>
      </trkpt>
      <trkpt lat="48.87542" lon="2.35976">
        <ele>117.9</ele>
        <time>2015-05-05T19:27:37.125Z</time>
      </trkpt>
      <trkpt lat="48.87538" lon="2.35969">
        <ele>117.1</ele>
        <time>2015-05-05T19:27:38.058Z</time>
      </trkpt>
      <trkpt lat="48.87534" lon="2.35962">
        <ele>116.9</ele>
        <time>2015-05-05T19:27:39.030Z</time>
      </trkpt>
      <trkpt lat="48.8753" lon="2.35954">
        <ele>116.5</ele>
        <time>2015-05-05T19:27:40.102Z</time>
      </trkpt>
      <trkpt lat="48.87528" lon="2.35946">
        <ele>115.3</ele>
        <time>2015-05-05T19:27:41.101Z</time>
      </trkpt>
      <trkpt lat="48.87525" lon="2.35939">
        <ele>115.1</ele>
        <time>2015-05-05T19:27:42.098Z</time>
      </trkpt>
      <trkpt lat="48.87522" lon="2.35932">
        <ele>115</ele>
        <time>2015-05-05T19:27:43.106Z</time>
      </trkpt>
      <trkpt lat="48.87518" lon="2.35924">
        <ele>113.8</ele>
        <time>2015-05-05T19:27:44.111Z</time>
      </trkpt>
      <trkpt lat="48.87515" lon="2.35916">
        <ele>113.2</ele>
        <time>2015-05-05T19:27:45.110Z</time>
      </trkpt>
      <trkpt lat="48.87512" lon="2.35908">
        <ele>112.9</ele>
        <time>2015-05-05T19:27:46.113Z</time>
      </trkpt>
      <trkpt lat="48.87508" lon="2.35902">
        <ele>112.7</ele>
        <time>2015-05-05T19:27:47.127Z</time>
      </trkpt>
      <trkpt lat="48.87503" lon="2.35897">
        <ele>112.4</ele>
        <time>2015-05-05T19:27:48.141Z</time>
      </trkpt>
      <trkpt lat="48.87497" lon="2.35893">
        <ele>112.2</ele>
        <time>2015-05-05T19:27:49.071Z</time>
      </trkpt>
      <trkpt lat="48.87492" lon="2.3589">
        <ele>112.1</ele>
        <time>2015-05-05T19:27:50.101Z</time>
      </trkpt>
      <trkpt lat="48.87485" lon="2.35888">
        <ele>112.3</ele>
        <time>2015-05-05T19:27:51.126Z</time>
      </trkpt>
      <trkpt lat="48.87479" lon="2.35885">
        <ele>112.4</ele>
        <time>2015-05-05T19:27:52.149Z</time>
      </trkpt>
      <trkpt lat="48.87474" lon="2.35881">
        <ele>112.4</ele>
        <time>2015-05-05T19:27:53.064Z</time>
      </trkpt>
      <trkpt lat="48.87468" lon="2.35878">
        <ele>112.6</ele>
        <time>2015-05-05T19:27:54.079Z</time>
      </trkpt>
      <trkpt lat="48.87461" lon="2.35874">
        <ele>112.6</ele>
        <time>2015-05-05T19:27:55.115Z</time>
      </trkpt>
      <trkpt lat="48.87455" lon="2.35871">
        <ele>112.8</ele>
        <time>2015-05-05T19:27:56.096Z</time>
      </trkpt>
      <trkpt lat="48.87449" lon="2.35867">
        <ele>112.9</ele>
        <time>2015-05-05T19:27:57.105Z</time>
      </trkpt>
      <trkpt lat="48.87443" lon="2.35864">
        <ele>113</ele>
        <time>2015-05-05T19:27:58.119Z</time>
      </trkpt>
      <trkpt lat="48.87436" lon="2.3586">
        <ele>113</ele>
        <time>2015-05-05T19:27:59.129Z</time>
      </trkpt>
      <trkpt lat="48.87431" lon="2.35856">
        <ele>113</ele>
        <time>2015-05-05T19:28:00.170Z</time>
      </trkpt>
      <trkpt lat="48.87425" lon="2.35853">
        <ele>113</ele>
        <time>2015-05-05T19:28:01.068Z</time>
      </trkpt>
      <trkpt lat="48.87419" lon="2.35849">
        <ele>112.9</ele>
        <time>2015-05-05T19:28:02.078Z</time>
      </trkpt>
      <trkpt lat="48.87413" lon="2.35846">
        <ele>113</ele>
        <time>2015-05-05T19:28:03.087Z</time>
      </trkpt>
      <trkpt lat="48.87408" lon="2.35844">
        <ele>112.7</ele>
        <time>2015-05-05T19:28:04.108Z</time>
      </trkpt>
      <trkpt lat="48.87403" lon="2.35842">
        <ele>112.4</ele>
        <time>2015-05-05T19:28:05.115Z</time>
      </trkpt>
      <trkpt lat="48.87398" lon="2.3584">
        <ele>112.3</ele>
        <time>2015-05-05T19:28:06.136Z</time>
      </trkpt>
      <trkpt lat="48.87393" lon="2.35839">
        <ele>112.1</ele>
        <time>2015-05-05T19:28:07.150Z</time>
      </trkpt>
      <trkpt lat="48.87385" lon="2.35838">
        <ele>111.4</ele>
        <time>2015-05-05T19:28:10.131Z</time>
      </trkpt>
      <trkpt lat="48.87383" lon="2.35838">
        <ele>111.3</ele>
        <time>2015-05-05T19:28:11.127Z</time>
      </trkpt>
      <trkpt lat="48.8738" lon="2.35837">
        <ele>111.1</ele>
        <time>2015-05-05T19:28:14.079Z</time>
      </trkpt>
      <trkpt lat="48.87381" lon="2.35837">
        <ele>110.6</ele>
        <time>2015-05-05T19:28:15.076Z</time>
      </trkpt>
      <trkpt lat="48.87381" lon="2.35837">
        <ele>110.5</ele>
        <time>2015-05-05T19:28:24.125Z</time>
      </trkpt>
      <trkpt lat="48.87384" lon="2.35834">
        <ele>108.4</ele>
        <time>2015-05-05T19:28:25.155Z</time>
      </trkpt>
      <trkpt lat="48.87387" lon="2.35834">
        <ele>105.8</ele>
        <time>2015-05-05T19:28:29.079Z</time>
      </trkpt>
      <trkpt lat="48.87387" lon="2.35835">
        <ele>106</ele>
        <time>2015-05-05T19:28:30.092Z</time>
      </trkpt>
      <trkpt lat="48.87386" lon="2.35837">
        <ele>106.3</ele>
        <time>2015-05-05T19:28:33.175Z</time>
      </trkpt>
      <trkpt lat="48.87385" lon="2.35837">
        <ele>107.8</ele>
        <time>2015-05-05T19:28:34.192Z</time>
      </trkpt>
      <trkpt lat="48.87384" lon="2.35838">
        <ele>108.6</ele>
        <time>2015-05-05T19:28:36.098Z</time>
      </trkpt>
      <trkpt lat="48.87384" lon="2.35838">
        <ele>108.8</ele>
        <time>2015-05-05T19:28:37.094Z</time>
      </trkpt>
      <trkpt lat="48.87384" lon="2.35838">
        <ele>108.9</ele>
        <time>2015-05-05T19:28:38.148Z</time>
      </trkpt>
      <trkpt lat="48.87377" lon="2.3584">
        <ele>109.7</ele>
        <time>2015-05-05T19:28:58.191Z</time>
      </trkpt>
      <trkpt lat="48.87375" lon="2.3584">
        <ele>109.8</ele>
        <time>2015-05-05T19:28:59.098Z</time>
      </trkpt>
      <trkpt lat="48.87369" lon="2.35841">
        <ele>109.2</ele>
        <time>2015-05-05T19:29:01.149Z</time>
      </trkpt>
      <trkpt lat="48.87364" lon="2.35837">
        <ele>108.6</ele>
        <time>2015-05-05T19:29:02.095Z</time>
      </trkpt>
      <trkpt lat="48.87357" lon="2.35833">
        <ele>108.2</ele>
        <time>2015-05-05T19:29:04.139Z</time>
      </trkpt>
      <trkpt lat="48.87353" lon="2.35831">
        <ele>108</ele>
        <time>2015-05-05T19:29:05.070Z</time>
      </trkpt>
      <trkpt lat="48.87346" lon="2.35825">
        <ele>107.7</ele>
        <time>2015-05-05T19:29:07.086Z</time>
      </trkpt>
      <trkpt lat="48.87341" lon="2.35823">
        <ele>107.6</ele>
        <time>2015-05-05T19:29:08.126Z</time>
      </trkpt>
      <trkpt lat="48.87336" lon="2.35821">
        <ele>107.3</ele>
        <time>2015-05-05T19:29:09.148Z</time>
      </trkpt>
      <trkpt lat="48.87332" lon="2.35819">
        <ele>107.2</ele>
        <time>2015-05-05T19:29:10.155Z</time>
      </trkpt>
      <trkpt lat="48.87326" lon="2.35817">
        <ele>107</ele>
        <time>2015-05-05T19:29:11.038Z</time>
      </trkpt>
      <trkpt lat="48.87322" lon="2.35813">
        <ele>106.9</ele>
        <time>2015-05-05T19:29:12.043Z</time>
      </trkpt>
      <trkpt lat="48.87317" lon="2.35809">
        <ele>106.7</ele>
        <time>2015-05-05T19:29:13.060Z</time>
      </trkpt>
      <trkpt lat="48.87312" lon="2.35806">
        <ele>106.7</ele>
        <time>2015-05-05T19:29:14.088Z</time>
      </trkpt>
      <trkpt lat="48.87306" lon="2.35803">
        <ele>106.5</ele>
        <time>2015-05-05T19:29:15.107Z</time>
      </trkpt>
      <trkpt lat="48.87301" lon="2.358">
        <ele>106.2</ele>
        <time>2015-05-05T19:29:16.118Z</time>
      </trkpt>
      <trkpt lat="48.87295" lon="2.35798">
        <ele>106.2</ele>
        <time>2015-05-05T19:29:17.039Z</time>
      </trkpt>
      <trkpt lat="48.8729" lon="2.35796">
        <ele>106.1</ele>
        <time>2015-05-05T19:29:18.067Z</time>
      </trkpt>
      <trkpt lat="48.87284" lon="2.35793">
        <ele>106.1</ele>
        <time>2015-05-05T19:29:19.078Z</time>
      </trkpt>
      <trkpt lat="48.87279" lon="2.35789">
        <ele>105.9</ele>
        <time>2015-05-05T19:29:20.097Z</time>
      </trkpt>
      <trkpt lat="48.87275" lon="2.35784">
        <ele>105.8</ele>
        <time>2015-05-05T19:29:21.064Z</time>
      </trkpt>
      <trkpt lat="48.8727" lon="2.3578">
        <ele>105.5</ele>
        <time>2015-05-05T19:29:22.115Z</time>
      </trkpt>
      <trkpt lat="48.87265" lon="2.35777">
        <ele>105.3</ele>
        <time>2015-05-05T19:29:23.155Z</time>
      </trkpt>
      <trkpt lat="48.8726" lon="2.35774">
        <ele>105.1</ele>
        <time>2015-05-05T19:29:24.074Z</time>
      </trkpt>
      <trkpt lat="48.87256" lon="2.35771">
        <ele>105.1</ele>
        <time>2015-05-05T19:29:25.070Z</time>
      </trkpt>
      <trkpt lat="48.87251" lon="2.35768">
        <ele>105.1</ele>
        <time>2015-05-05T19:29:26.109Z</time>
      </trkpt>
      <trkpt lat="48.87246" lon="2.35766">
        <ele>105.1</ele>
        <time>2015-05-05T19:29:27.148Z</time>
      </trkpt>
      <trkpt lat="48.8724" lon="2.35764">
        <ele>105.1</ele>
        <time>2015-05-05T19:29:28.151Z</time>
      </trkpt>
      <trkpt lat="48.87234" lon="2.35762">
        <ele>105.3</ele>
        <time>2015-05-05T19:29:29.065Z</time>
      </trkpt>
      <trkpt lat="48.87228" lon="2.3576">
        <ele>105.5</ele>
        <time>2015-05-05T19:29:30.142Z</time>
      </trkpt>
      <trkpt lat="48.87221" lon="2.35757">
        <ele>105.8</ele>
        <time>2015-05-05T19:29:31.156Z</time>
      </trkpt>
      <trkpt lat="48.87215" lon="2.35752">
        <ele>105.8</ele>
        <time>2015-05-05T19:29:32.150Z</time>
      </trkpt>
      <trkpt lat="48.8721" lon="2.35748">
        <ele>105.8</ele>
        <time>2015-05-05T19:29:33.057Z</time>
      </trkpt>
      <trkpt lat="48.87205" lon="2.35743">
        <ele>105.9</ele>
        <time>2015-05-05T19:29:34.084Z</time>
      </trkpt>
      <trkpt lat="48.872" lon="2.3574">
        <ele>106.2</ele>
        <time>2015-05-05T19:29:35.081Z</time>
      </trkpt>
      <trkpt lat="48.87195" lon="2.35737">
        <ele>106.1</ele>
        <time>2015-05-05T19:29:36.092Z</time>
      </trkpt>
      <trkpt lat="48.87189" lon="2.35734">
        <ele>106.1</ele>
        <time>2015-05-05T19:29:37.118Z</time>
      </trkpt>
      <trkpt lat="48.87184" lon="2.35731">
        <ele>106.1</ele>
        <time>2015-05-05T19:29:38.136Z</time>
      </trkpt>
      <trkpt lat="48.87178" lon="2.35727">
        <ele>106</ele>
        <time>2015-05-05T19:29:39.029Z</time>
      </trkpt>
      <trkpt lat="48.87173" lon="2.35724">
        <ele>105.8</ele>
        <time>2015-05-05T19:29:40.068Z</time>
      </trkpt>
      <trkpt lat="48.87168" lon="2.3572">
        <ele>105.7</ele>
        <time>2015-05-05T19:29:41.074Z</time>
      </trkpt>
      <trkpt lat="48.87163" lon="2.35717">
        <ele>105.7</ele>
        <time>2015-05-05T19:29:42.110Z</time>
      </trkpt>
      <trkpt lat="48.87157" lon="2.35714">
        <ele>105.5</ele>
        <time>2015-05-05T19:29:43.114Z</time>
      </trkpt>
      <trkpt lat="48.87151" lon="2.35711">
        <ele>105.4</ele>
        <time>2015-05-05T19:29:44.121Z</time>
      </trkpt>
      <trkpt lat="48.87145" lon="2.35708">
        <ele>105.5</ele>
        <time>2015-05-05T19:29:45.030Z</time>
      </trkpt>
      <trkpt lat="48.87139" lon="2.35704">
        <ele>105.3</ele>
        <time>2015-05-05T19:29:46.069Z</time>
      </trkpt>
      <trkpt lat="48.87134" lon="2.35699">
        <ele>105.2</ele>
        <time>2015-05-05T19:29:47.077Z</time>
      </trkpt>
      <trkpt lat="48.87129" lon="2.35696">
        <ele>105.1</ele>
        <time>2015-05-05T19:29:48.102Z</time>
      </trkpt>
      <trkpt lat="48.87123" lon="2.35691">
        <ele>105.2</ele>
        <time>2015-05-05T19:29:49.123Z</time>
      </trkpt>
      <trkpt lat="48.87118" lon="2.35687">
        <ele>105.2</ele>
        <time>2015-05-05T19:29:50.029Z</time>
      </trkpt>
      <trkpt lat="48.87113" lon="2.35684">
        <ele>105.4</ele>
        <time>2015-05-05T19:29:51.091Z</time>
      </trkpt>
      <trkpt lat="48.87108" lon="2.35682">
        <ele>105.4</ele>
        <time>2015-05-05T19:29:52.097Z</time>
      </trkpt>
      <trkpt lat="48.87103" lon="2.3568">
        <ele>105.3</ele>
        <time>2015-05-05T19:29:53.031Z</time>
      </trkpt>
      <trkpt lat="48.87098" lon="2.35677">
        <ele>105.3</ele>
        <time>2015-05-05T19:29:54.042Z</time>
      </trkpt>
      <trkpt lat="48.87094" lon="2.35674">
        <ele>105.2</ele>
        <time>2015-05-05T19:29:55.058Z</time>
      </trkpt>
      <trkpt lat="48.87089" lon="2.3567">
        <ele>105.2</ele>
        <time>2015-05-05T19:29:56.063Z</time>
      </trkpt>
      <trkpt lat="48.87085" lon="2.35667">
        <ele>105.3</ele>
        <time>2015-05-05T19:29:57.089Z</time>
      </trkpt>
      <trkpt lat="48.8708" lon="2.35666">
        <ele>105.4</ele>
        <time>2015-05-05T19:29:58.101Z</time>
      </trkpt>
      <trkpt lat="48.87075" lon="2.35664">
        <ele>105.6</ele>
        <time>2015-05-05T19:29:59.114Z</time>
      </trkpt>
      <trkpt lat="48.8707" lon="2.35661">
        <ele>105.6</ele>
        <time>2015-05-05T19:30:00.019Z</time>
      </trkpt>
      <trkpt lat="48.87065" lon="2.35658">
        <ele>105.7</ele>
        <time>2015-05-05T19:30:01.135Z</time>
      </trkpt>
      <trkpt lat="48.8706" lon="2.35655">
        <ele>105.6</ele>
        <time>2015-05-05T19:30:02.039Z</time>
      </trkpt>
      <trkpt lat="48.87055" lon="2.35652">
        <ele>105.5</ele>
        <time>2015-05-05T19:30:03.055Z</time>
      </trkpt>
      <trkpt lat="48.87049" lon="2.35649">
        <ele>105.5</ele>
        <time>2015-05-05T19:30:04.100Z</time>
      </trkpt>
      <trkpt lat="48.87044" lon="2.35645">
        <ele>105.6</ele>
        <time>2015-05-05T19:30:05.107Z</time>
      </trkpt>
      <trkpt lat="48.87039" lon="2.35642">
        <ele>105.6</ele>
        <time>2015-05-05T19:30:06.116Z</time>
      </trkpt>
      <trkpt lat="48.87033" lon="2.35638">
        <ele>105.6</ele>
        <time>2015-05-05T19:30:07.155Z</time>
      </trkpt>
      <trkpt lat="48.87028" lon="2.35635">
        <ele>105.8</ele>
        <time>2015-05-05T19:30:08.049Z</time>
      </trkpt>
      <trkpt lat="48.87022" lon="2.35632">
        <ele>106.2</ele>
        <time>2015-05-05T19:30:09.071Z</time>
      </trkpt>
      <trkpt lat="48.87017" lon="2.35629">
        <ele>106.5</ele>
        <time>2015-05-05T19:30:10.111Z</time>
      </trkpt>
      <trkpt lat="48.87011" lon="2.35626">
        <ele>106.5</ele>
        <time>2015-05-05T19:30:11.123Z</time>
      </trkpt>
      <trkpt lat="48.87005" lon="2.35623">
        <ele>106.6</ele>
        <time>2015-05-05T19:30:12.125Z</time>
      </trkpt>
      <trkpt lat="48.86999" lon="2.3562">
        <ele>106.8</ele>
        <time>2015-05-05T19:30:13.052Z</time>
      </trkpt>
      <trkpt lat="48.86994" lon="2.35617">
        <ele>107</ele>
        <time>2015-05-05T19:30:14.046Z</time>
      </trkpt>
      <trkpt lat="48.86988" lon="2.35614">
        <ele>107.3</ele>
        <time>2015-05-05T19:30:15.062Z</time>
      </trkpt>
      <trkpt lat="48.86982" lon="2.3561">
        <ele>107.3</ele>
        <time>2015-05-05T19:30:16.091Z</time>
      </trkpt>
      <trkpt lat="48.86977" lon="2.35606">
        <ele>107.3</ele>
        <time>2015-05-05T19:30:17.108Z</time>
      </trkpt>
      <trkpt lat="48.86971" lon="2.35602">
        <ele>107.3</ele>
        <time>2015-05-05T19:30:18.117Z</time>
      </trkpt>
      <trkpt lat="48.86966" lon="2.35599">
        <ele>107.2</ele>
        <time>2015-05-05T19:30:19.126Z</time>
      </trkpt>
      <trkpt lat="48.86961" lon="2.35596">
        <ele>107.1</ele>
        <time>2015-05-05T19:30:20.126Z</time>
      </trkpt>
      <trkpt lat="48.86956" lon="2.35593">
        <ele>107.3</ele>
        <time>2015-05-05T19:30:21.139Z</time>
      </trkpt>
      <trkpt lat="48.86951" lon="2.3559">
        <ele>107.4</ele>
        <time>2015-05-05T19:30:22.163Z</time>
      </trkpt>
      <trkpt lat="48.86946" lon="2.35587">
        <ele>107.5</ele>
        <time>2015-05-05T19:30:23.054Z</time>
      </trkpt>
      <trkpt lat="48.86942" lon="2.35586">
        <ele>107.4</ele>
        <time>2015-05-05T19:30:24.064Z</time>
      </trkpt>
      <trkpt lat="48.86937" lon="2.35584">
        <ele>107.5</ele>
        <time>2015-05-05T19:30:25.078Z</time>
      </trkpt>
      <trkpt lat="48.86932" lon="2.35582">
        <ele>107.8</ele>
        <time>2015-05-05T19:30:26.084Z</time>
      </trkpt>
      <trkpt lat="48.86925" lon="2.35578">
        <ele>108</ele>
        <time>2015-05-05T19:30:28.109Z</time>
      </trkpt>
      <trkpt lat="48.86922" lon="2.35576">
        <ele>108.1</ele>
        <time>2015-05-05T19:30:29.147Z</time>
      </trkpt>
      <trkpt lat="48.86917" lon="2.35567">
        <ele>107.6</ele>
        <time>2015-05-05T19:30:31.105Z</time>
      </trkpt>
      <trkpt lat="48.86915" lon="2.35561">
        <ele>107.1</ele>
        <time>2015-05-05T19:30:32.115Z</time>
      </trkpt>
      <trkpt lat="48.86911" lon="2.35552">
        <ele>106.7</ele>
        <time>2015-05-05T19:30:34.139Z</time>
      </trkpt>
      <trkpt lat="48.8691" lon="2.35549">
        <ele>106.6</ele>
        <time>2015-05-05T19:30:35.059Z</time>
      </trkpt>
      <trkpt lat="48.86906" lon="2.35546">
        <ele>105.9</ele>
        <time>2015-05-05T19:30:39.090Z</time>
      </trkpt>
      <trkpt lat="48.86906" lon="2.35547">
        <ele>105.7</ele>
        <time>2015-05-05T19:30:40.152Z</time>
      </trkpt>
      <trkpt lat="48.86908" lon="2.35547">
        <ele>105.5</ele>
        <time>2015-05-05T19:30:41.149Z</time>
      </trkpt>
      <trkpt lat="48.86908" lon="2.35545">
        <ele>105.2</ele>
        <time>2015-05-05T19:30:44.071Z</time>
      </trkpt>
      <trkpt lat="48.86908" lon="2.35544">
        <ele>105.1</ele>
        <time>2015-05-05T19:30:45.072Z</time>
      </trkpt>
      <trkpt lat="48.86908" lon="2.35543">
        <ele>105.3</ele>
        <time>2015-05-05T19:30:46.120Z</time>
      </trkpt>
      <trkpt lat="48.86908" lon="2.35544">
        <ele>105.8</ele>
        <time>2015-05-05T19:30:47.126Z</time>
      </trkpt>
      <trkpt lat="48.86909" lon="2.35543">
        <ele>105.9</ele>
        <time>2015-05-05T19:30:48.131Z</time>
      </trkpt>
      <trkpt lat="48.86905" lon="2.35545">
        <ele>105.8</ele>
        <time>2015-05-05T19:30:57.072Z</time>
      </trkpt>
      <trkpt lat="48.86899" lon="2.35543">
        <ele>105.3</ele>
        <time>2015-05-05T19:30:58.133Z</time>
      </trkpt>
      <trkpt lat="48.86892" lon="2.3554">
        <ele>104.7</ele>
        <time>2015-05-05T19:30:59.037Z</time>
      </trkpt>
      <trkpt lat="48.86887" lon="2.35538">
        <ele>104.6</ele>
        <time>2015-05-05T19:31:00.079Z</time>
      </trkpt>
      <trkpt lat="48.86882" lon="2.35535">
        <ele>104.4</ele>
        <time>2015-05-05T19:31:00.872Z</time>
      </trkpt>
      <trkpt lat="48.86877" lon="2.35533">
        <ele>104.3</ele>
        <time>2015-05-05T19:31:02.103Z</time>
      </trkpt>
      <trkpt lat="48.86872" lon="2.35532">
        <ele>104.2</ele>
        <time>2015-05-05T19:31:03.665Z</time>
      </trkpt>
      <trkpt lat="48.86867" lon="2.3553">
        <ele>104</ele>
        <time>2015-05-05T19:31:04.167Z</time>
      </trkpt>
      <trkpt lat="48.86863" lon="2.35528">
        <ele>103.7</ele>
        <time>2015-05-05T19:31:05.045Z</time>
      </trkpt>
      <trkpt lat="48.86858" lon="2.35527">
        <ele>103.5</ele>
        <time>2015-05-05T19:31:06.120Z</time>
      </trkpt>
      <trkpt lat="48.86854" lon="2.35525">
        <ele>103.3</ele>
        <time>2015-05-05T19:31:07.137Z</time>
      </trkpt>
      <trkpt lat="48.86848" lon="2.35523">
        <ele>103</ele>
        <time>2015-05-05T19:31:08.050Z</time>
      </trkpt>
      <trkpt lat="48.86843" lon="2.35521">
        <ele>102.8</ele>
        <time>2015-05-05T19:31:09.071Z</time>
      </trkpt>
      <trkpt lat="48.86839" lon="2.35518">
        <ele>102.5</ele>
        <time>2015-05-05T19:31:10.096Z</time>
      </trkpt>
      <trkpt lat="48.86834" lon="2.35516">
        <ele>102.4</ele>
        <time>2015-05-05T19:31:11.109Z</time>
      </trkpt>
      <trkpt lat="48.86829" lon="2.35513">
        <ele>102.3</ele>
        <time>2015-05-05T19:31:12.125Z</time>
      </trkpt>
      <trkpt lat="48.86822" lon="2.35511">
        <ele>102.7</ele>
        <time>2015-05-05T19:31:13.141Z</time>
      </trkpt>
      <trkpt lat="48.86816" lon="2.3551">
        <ele>102.9</ele>
        <time>2015-05-05T19:31:14.061Z</time>
      </trkpt>
      <trkpt lat="48.8681" lon="2.35508">
        <ele>103</ele>
        <time>2015-05-05T19:31:15.055Z</time>
      </trkpt>
      <trkpt lat="48.86803" lon="2.35506">
        <ele>103</ele>
        <time>2015-05-05T19:31:16.086Z</time>
      </trkpt>
      <trkpt lat="48.86797" lon="2.35504">
        <ele>103</ele>
        <time>2015-05-05T19:31:17.050Z</time>
      </trkpt>
      <trkpt lat="48.86791" lon="2.35502">
        <ele>103.1</ele>
        <time>2015-05-05T19:31:18.046Z</time>
      </trkpt>
      <trkpt lat="48.86785" lon="2.355">
        <ele>103.2</ele>
        <time>2015-05-05T19:31:19.070Z</time>
      </trkpt>
      <trkpt lat="48.8678" lon="2.35497">
        <ele>103.3</ele>
        <time>2015-05-05T19:31:20.074Z</time>
      </trkpt>
      <trkpt lat="48.86775" lon="2.35495">
        <ele>103.4</ele>
        <time>2015-05-05T19:31:21.102Z</time>
      </trkpt>
      <trkpt lat="48.86769" lon="2.35492">
        <ele>103.4</ele>
        <time>2015-05-05T19:31:22.110Z</time>
      </trkpt>
      <trkpt lat="48.86764" lon="2.35489">
        <ele>103.4</ele>
        <time>2015-05-05T19:31:23.053Z</time>
      </trkpt>
      <trkpt lat="48.86759" lon="2.35487">
        <ele>103.3</ele>
        <time>2015-05-05T19:31:24.249Z</time>
      </trkpt>
      <trkpt lat="48.86753" lon="2.35486">
        <ele>103.2</ele>
        <time>2015-05-05T19:31:25.074Z</time>
      </trkpt>
      <trkpt lat="48.86746" lon="2.35485">
        <ele>103.2</ele>
        <time>2015-05-05T19:31:26.086Z</time>
      </trkpt>
      <trkpt lat="48.8674" lon="2.35483">
        <ele>103.4</ele>
        <time>2015-05-05T19:31:27.097Z</time>
      </trkpt>
      <trkpt lat="48.86735" lon="2.3548">
        <ele>103.4</ele>
        <time>2015-05-05T19:31:28.109Z</time>
      </trkpt>
      <trkpt lat="48.8673" lon="2.35476">
        <ele>103.4</ele>
        <time>2015-05-05T19:31:29.115Z</time>
      </trkpt>
      <trkpt lat="48.86725" lon="2.35473">
        <ele>103.3</ele>
        <time>2015-05-05T19:31:30.122Z</time>
      </trkpt>
      <trkpt lat="48.8672" lon="2.3547">
        <ele>103</ele>
        <time>2015-05-05T19:31:31.148Z</time>
      </trkpt>
      <trkpt lat="48.86713" lon="2.35469">
        <ele>103.2</ele>
        <time>2015-05-05T19:31:32.053Z</time>
      </trkpt>
      <trkpt lat="48.86707" lon="2.35467">
        <ele>103.3</ele>
        <time>2015-05-05T19:31:33.073Z</time>
      </trkpt>
      <trkpt lat="48.86701" lon="2.35465">
        <ele>103.4</ele>
        <time>2015-05-05T19:31:34.144Z</time>
      </trkpt>
      <trkpt lat="48.86695" lon="2.35462">
        <ele>103.1</ele>
        <time>2015-05-05T19:31:35.049Z</time>
      </trkpt>
      <trkpt lat="48.86691" lon="2.35458">
        <ele>102.9</ele>
        <time>2015-05-05T19:31:36.066Z</time>
      </trkpt>
      <trkpt lat="48.86685" lon="2.35455">
        <ele>102.7</ele>
        <time>2015-05-05T19:31:37.287Z</time>
      </trkpt>
      <trkpt lat="48.8668" lon="2.35452">
        <ele>103</ele>
        <time>2015-05-05T19:31:38.097Z</time>
      </trkpt>
      <trkpt lat="48.86674" lon="2.35448">
        <ele>103.7</ele>
        <time>2015-05-05T19:31:39.157Z</time>
      </trkpt>
      <trkpt lat="48.86667" lon="2.35445">
        <ele>104.6</ele>
        <time>2015-05-05T19:31:40.174Z</time>
      </trkpt>
      <trkpt lat="48.86663" lon="2.3544">
        <ele>104.9</ele>
        <time>2015-05-05T19:31:41.083Z</time>
      </trkpt>
      <trkpt lat="48.86658" lon="2.35435">
        <ele>105.2</ele>
        <time>2015-05-05T19:31:42.102Z</time>
      </trkpt>
      <trkpt lat="48.86654" lon="2.3543">
        <ele>105.4</ele>
        <time>2015-05-05T19:31:43.148Z</time>
      </trkpt>
      <trkpt lat="48.86649" lon="2.35426">
        <ele>105.6</ele>
        <time>2015-05-05T19:31:44.064Z</time>
      </trkpt>
      <trkpt lat="48.86645" lon="2.3542">
        <ele>105.8</ele>
        <time>2015-05-05T19:31:45.076Z</time>
      </trkpt>
      <trkpt lat="48.8664" lon="2.35415">
        <ele>106.1</ele>
        <time>2015-05-05T19:31:46.111Z</time>
      </trkpt>
      <trkpt lat="48.86636" lon="2.3541">
        <ele>106.3</ele>
        <time>2015-05-05T19:31:47.124Z</time>
      </trkpt>
      <trkpt lat="48.86631" lon="2.35406">
        <ele>106.1</ele>
        <time>2015-05-05T19:31:48.127Z</time>
      </trkpt>
      <trkpt lat="48.86627" lon="2.35403">
        <ele>106.2</ele>
        <time>2015-05-05T19:31:49.137Z</time>
      </trkpt>
      <trkpt lat="48.86623" lon="2.35399">
        <ele>106.2</ele>
        <time>2015-05-05T19:31:50.055Z</time>
      </trkpt>
      <trkpt lat="48.86619" lon="2.35396">
        <ele>106.2</ele>
        <time>2015-05-05T19:31:51.057Z</time>
      </trkpt>
      <trkpt lat="48.86614" lon="2.35393">
        <ele>106.2</ele>
        <time>2015-05-05T19:31:52.089Z</time>
      </trkpt>
      <trkpt lat="48.86608" lon="2.35386">
        <ele>106.1</ele>
        <time>2015-05-05T19:31:54.094Z</time>
      </trkpt>
      <trkpt lat="48.86605" lon="2.35382">
        <ele>106.2</ele>
        <time>2015-05-05T19:31:55.117Z</time>
      </trkpt>
      <trkpt lat="48.86599" lon="2.35377">
        <ele>106</ele>
        <time>2015-05-05T19:31:57.170Z</time>
      </trkpt>
      <trkpt lat="48.86596" lon="2.35375">
        <ele>106.2</ele>
        <time>2015-05-05T19:31:58.220Z</time>
      </trkpt>
      <trkpt lat="48.86593" lon="2.35384">
        <ele>105.7</ele>
        <time>2015-05-05T19:32:02.106Z</time>
      </trkpt>
      <trkpt lat="48.86592" lon="2.35389">
        <ele>105.6</ele>
        <time>2015-05-05T19:32:03.116Z</time>
      </trkpt>
      <trkpt lat="48.8659" lon="2.35401">
        <ele>105.3</ele>
        <time>2015-05-05T19:32:05.063Z</time>
      </trkpt>
      <trkpt lat="48.86589" lon="2.35408">
        <ele>105.2</ele>
        <time>2015-05-05T19:32:06.088Z</time>
      </trkpt>
      <trkpt lat="48.86587" lon="2.35414">
        <ele>105.1</ele>
        <time>2015-05-05T19:32:07.107Z</time>
      </trkpt>
      <trkpt lat="48.86585" lon="2.35421">
        <ele>104.9</ele>
        <time>2015-05-05T19:32:08.120Z</time>
      </trkpt>
      <trkpt lat="48.86586" lon="2.35427">
        <ele>104.7</ele>
        <time>2015-05-05T19:32:09.136Z</time>
      </trkpt>
      <trkpt lat="48.86586" lon="2.35434">
        <ele>104.4</ele>
        <time>2015-05-05T19:32:10.144Z</time>
      </trkpt>
      <trkpt lat="48.86588" lon="2.35445">
        <ele>101.9</ele>
        <time>2015-05-05T19:32:11.065Z</time>
      </trkpt>
      <trkpt lat="48.8659" lon="2.35458">
        <ele>98.7</ele>
        <time>2015-05-05T19:32:12.065Z</time>
      </trkpt>
      <trkpt lat="48.86593" lon="2.35467">
        <ele>97.4</ele>
        <time>2015-05-05T19:32:13.090Z</time>
      </trkpt>
      <trkpt lat="48.86594" lon="2.35476">
        <ele>96.2</ele>
        <time>2015-05-05T19:32:14.095Z</time>
      </trkpt>
      <trkpt lat="48.86593" lon="2.35483">
        <ele>96.3</ele>
        <time>2015-05-05T19:32:15.116Z</time>
      </trkpt>
      <trkpt lat="48.86591" lon="2.3549">
        <ele>96.4</ele>
        <time>2015-05-05T19:32:16.154Z</time>
      </trkpt>
      <trkpt lat="48.86589" lon="2.35497">
        <ele>96.6</ele>
        <time>2015-05-05T19:32:17.061Z</time>
      </trkpt>
      <trkpt lat="48.86586" lon="2.35503">
        <ele>96.5</ele>
        <time>2015-05-05T19:32:18.063Z</time>
      </trkpt>
      <trkpt lat="48.86579" lon="2.35511">
        <ele>96.1</ele>
        <time>2015-05-05T19:32:19.075Z</time>
      </trkpt>
      <trkpt lat="48.86574" lon="2.35517">
        <ele>95.8</ele>
        <time>2015-05-05T19:32:20.084Z</time>
      </trkpt>
      <trkpt lat="48.8657" lon="2.35522">
        <ele>95.5</ele>
        <time>2015-05-05T19:32:21.092Z</time>
      </trkpt>
      <trkpt lat="48.86567" lon="2.35527">
        <ele>95.3</ele>
        <time>2015-05-05T19:32:22.105Z</time>
      </trkpt>
      <trkpt lat="48.86563" lon="2.35535">
        <ele>95.3</ele>
        <time>2015-05-05T19:32:25.142Z</time>
      </trkpt>
      <trkpt lat="48.86561" lon="2.35538">
        <ele>95.5</ele>
        <time>2015-05-05T19:32:26.092Z</time>
      </trkpt>
      <trkpt lat="48.86559" lon="2.35549">
        <ele>95.6</ele>
        <time>2015-05-05T19:32:29.160Z</time>
      </trkpt>
      <trkpt lat="48.86559" lon="2.35555">
        <ele>94.9</ele>
        <time>2015-05-05T19:32:30.088Z</time>
      </trkpt>
      <trkpt lat="48.8656" lon="2.35566">
        <ele>93</ele>
        <time>2015-05-05T19:32:32.149Z</time>
      </trkpt>
      <trkpt lat="48.8656" lon="2.35571">
        <ele>92.3</ele>
        <time>2015-05-05T19:32:33.092Z</time>
      </trkpt>
      <trkpt lat="48.86552" lon="2.35574">
        <ele>91.1</ele>
        <time>2015-05-05T19:33:22.190Z</time>
      </trkpt>
      <trkpt lat="48.86552" lon="2.35585">
        <ele>88.9</ele>
        <time>2015-05-05T19:33:23.100Z</time>
      </trkpt>
      <trkpt lat="48.86557" lon="2.35594">
        <ele>88.7</ele>
        <time>2015-05-05T19:33:32.085Z</time>
      </trkpt>
      <trkpt lat="48.86557" lon="2.35596">
        <ele>88.9</ele>
        <time>2015-05-05T19:33:33.171Z</time>
      </trkpt>
      <trkpt lat="48.86558" lon="2.356">
        <ele>88.8</ele>
        <time>2015-05-05T19:33:55.103Z</time>
      </trkpt>
      <trkpt lat="48.86558" lon="2.356">
        <ele>88.8</ele>
        <time>2015-05-05T19:33:56.115Z</time>
      </trkpt>
      <trkpt lat="48.86558" lon="2.356">
        <ele>88.6</ele>
        <time>2015-05-05T19:34:27.098Z</time>
      </trkpt>
      <trkpt lat="48.86559" lon="2.35601">
        <ele>88.8</ele>
        <time>2015-05-05T19:34:28.130Z</time>
      </trkpt>
      <trkpt lat="48.86559" lon="2.356">
        <ele>88.6</ele>
        <time>2015-05-05T19:34:29.049Z</time>
      </trkpt>
      <trkpt lat="48.86559" lon="2.356">
        <ele>88.5</ele>
        <time>2015-05-05T19:34:30.072Z</time>
      </trkpt>
      <trkpt lat="48.86559" lon="2.356">
        <ele>88.4</ele>
        <time>2015-05-05T19:37:19.019Z</time>
      </trkpt>
      <trkpt lat="48.86563" lon="2.35597">
        <ele>91.2</ele>
        <time>2015-05-05T19:37:20.048Z</time>
      </trkpt>
      <trkpt lat="48.86563" lon="2.35597">
        <ele>91.3</ele>
        <time>2015-05-05T19:37:21.075Z</time>
      </trkpt>
      <trkpt lat="48.86563" lon="2.35597">
        <ele>91.2</ele>
        <time>2015-05-05T19:37:22.121Z</time>
      </trkpt>
      <trkpt lat="48.86562" lon="2.35597">
        <ele>91.1</ele>
        <time>2015-05-05T19:37:23.058Z</time>
      </trkpt>
      <trkpt lat="48.86562" lon="2.35597">
        <ele>91.2</ele>
        <time>2015-05-05T19:37:24.068Z</time>
      </trkpt>
      <trkpt lat="48.86562" lon="2.35597">
        <ele>90.9</ele>
        <time>2015-05-05T19:38:24.037Z</time>
      </trkpt>
      <trkpt lat="48.8656" lon="2.35598">
        <ele>93</ele>
        <time>2015-05-05T19:38:25.068Z</time>
      </trkpt>
      <trkpt lat="48.86559" lon="2.35597">
        <ele>93</ele>
        <time>2015-05-05T19:38:26.108Z</time>
      </trkpt>
      <trkpt lat="48.86559" lon="2.35596">
        <ele>92.7</ele>
        <time>2015-05-05T19:39:52.085Z</time>
      </trkpt>
      <trkpt lat="48.86559" lon="2.35595">
        <ele>94.6</ele>
        <time>2015-05-05T19:39:53.198Z</time>
      </trkpt>
      <trkpt lat="48.86559" lon="2.35594">
        <ele>94.7</ele>
        <time>2015-05-05T19:39:54.030Z</time>
      </trkpt>
      <trkpt lat="48.86559" lon="2.35594">
        <ele>94.8</ele>
        <time>2015-05-05T19:39:55.038Z</time>
      </trkpt>
      <trkpt lat="48.86559" lon="2.35594">
        <ele>94.8</ele>
        <time>2015-05-05T19:40:08.044Z</time>
      </trkpt>
      <trkpt lat="48.86558" lon="2.35594">
        <ele>94.9</ele>
        <time>2015-05-05T19:40:09.046Z</time>
      </trkpt>
      <trkpt lat="48.86552" lon="2.35586">
        <ele>94.3</ele>
        <time>2015-05-05T19:40:16.103Z</time>
      </trkpt>
      <trkpt lat="48.86551" lon="2.35584">
        <ele>94.1</ele>
        <time>2015-05-05T19:40:17.112Z</time>
      </trkpt>
      <trkpt lat="48.86546" lon="2.35574">
        <ele>94.1</ele>
        <time>2015-05-05T19:40:23.348Z</time>
      </trkpt>
      <trkpt lat="48.86545" lon="2.35573">
        <ele>94.1</ele>
        <time>2015-05-05T19:40:24.100Z</time>
      </trkpt>
      <trkpt lat="48.86545" lon="2.35573">
        <ele>94.1</ele>
        <time>2015-05-05T19:40:26.153Z</time>
      </trkpt>
      <trkpt lat="48.86545" lon="2.35574">
        <ele>94</ele>
        <time>2015-05-05T19:40:27.026Z</time>
      </trkpt>
      <trkpt lat="48.86545" lon="2.35574">
        <ele>94</ele>
        <time>2015-05-05T19:40:35.078Z</time>
      </trkpt>
      <trkpt lat="48.86543" lon="2.35574">
        <ele>94.2</ele>
        <time>2015-05-05T19:40:36.189Z</time>
      </trkpt>
      <trkpt lat="48.86537" lon="2.35571">
        <ele>94.1</ele>
        <time>2015-05-05T19:40:39.066Z</time>
      </trkpt>
      <trkpt lat="48.86533" lon="2.35568">
        <ele>93.8</ele>
        <time>2015-05-05T19:40:40.106Z</time>
      </trkpt>
      <trkpt lat="48.86526" lon="2.35563">
        <ele>93.6</ele>
        <time>2015-05-05T19:40:42.045Z</time>
      </trkpt>
      <trkpt lat="48.86522" lon="2.35561">
        <ele>93.7</ele>
        <time>2015-05-05T19:40:43.060Z</time>
      </trkpt>
      <trkpt lat="48.86514" lon="2.35555">
        <ele>93.6</ele>
        <time>2015-05-05T19:40:45.091Z</time>
      </trkpt>
      <trkpt lat="48.8651" lon="2.35552">
        <ele>93.6</ele>
        <time>2015-05-05T19:40:46.128Z</time>
      </trkpt>
      <trkpt lat="48.86505" lon="2.3555">
        <ele>93.7</ele>
        <time>2015-05-05T19:40:47.028Z</time>
      </trkpt>
      <trkpt lat="48.86499" lon="2.35548">
        <ele>93.6</ele>
        <time>2015-05-05T19:40:48.026Z</time>
      </trkpt>
      <trkpt lat="48.86494" lon="2.35548">
        <ele>93.7</ele>
        <time>2015-05-05T19:40:49.063Z</time>
      </trkpt>
      <trkpt lat="48.86489" lon="2.35547">
        <ele>93.8</ele>
        <time>2015-05-05T19:40:50.123Z</time>
      </trkpt>
      <trkpt lat="48.86484" lon="2.35545">
        <ele>93.8</ele>
        <time>2015-05-05T19:40:51.040Z</time>
      </trkpt>
      <trkpt lat="48.86479" lon="2.35543">
        <ele>93.9</ele>
        <time>2015-05-05T19:40:52.071Z</time>
      </trkpt>
      <trkpt lat="48.86474" lon="2.3554">
        <ele>93.9</ele>
        <time>2015-05-05T19:40:53.159Z</time>
      </trkpt>
      <trkpt lat="48.86469" lon="2.35538">
        <ele>94</ele>
        <time>2015-05-05T19:40:54.045Z</time>
      </trkpt>
      <trkpt lat="48.86463" lon="2.35535">
        <ele>93.9</ele>
        <time>2015-05-05T19:40:55.086Z</time>
      </trkpt>
      <trkpt lat="48.86457" lon="2.35533">
        <ele>93.9</ele>
        <time>2015-05-05T19:40:56.055Z</time>
      </trkpt>
      <trkpt lat="48.86452" lon="2.3553">
        <ele>93.9</ele>
        <time>2015-05-05T19:40:57.034Z</time>
      </trkpt>
      <trkpt lat="48.86447" lon="2.35527">
        <ele>93.9</ele>
        <time>2015-05-05T19:40:58.068Z</time>
      </trkpt>
      <trkpt lat="48.86441" lon="2.35524">
        <ele>93.9</ele>
        <time>2015-05-05T19:40:59.068Z</time>
      </trkpt>
      <trkpt lat="48.86436" lon="2.35521">
        <ele>93.9</ele>
        <time>2015-05-05T19:41:00.080Z</time>
      </trkpt>
      <trkpt lat="48.86431" lon="2.35518">
        <ele>94</ele>
        <time>2015-05-05T19:41:01.086Z</time>
      </trkpt>
      <trkpt lat="48.86426" lon="2.35516">
        <ele>93.9</ele>
        <time>2015-05-05T19:41:02.107Z</time>
      </trkpt>
      <trkpt lat="48.86421" lon="2.35513">
        <ele>94</ele>
        <time>2015-05-05T19:41:03.039Z</time>
      </trkpt>
      <trkpt lat="48.86416" lon="2.3551">
        <ele>93.9</ele>
        <time>2015-05-05T19:41:04.105Z</time>
      </trkpt>
      <trkpt lat="48.86411" lon="2.35506">
        <ele>93.9</ele>
        <time>2015-05-05T19:41:05.130Z</time>
      </trkpt>
      <trkpt lat="48.86406" lon="2.35503">
        <ele>93.9</ele>
        <time>2015-05-05T19:41:06.034Z</time>
      </trkpt>
      <trkpt lat="48.86401" lon="2.35501">
        <ele>94</ele>
        <time>2015-05-05T19:41:07.047Z</time>
      </trkpt>
      <trkpt lat="48.86396" lon="2.35498">
        <ele>94</ele>
        <time>2015-05-05T19:41:08.059Z</time>
      </trkpt>
      <trkpt lat="48.86391" lon="2.35495">
        <ele>94.1</ele>
        <time>2015-05-05T19:41:09.070Z</time>
      </trkpt>
      <trkpt lat="48.86385" lon="2.35493">
        <ele>93.9</ele>
        <time>2015-05-05T19:41:10.103Z</time>
      </trkpt>
      <trkpt lat="48.8638" lon="2.3549">
        <ele>93.9</ele>
        <time>2015-05-05T19:41:11.119Z</time>
      </trkpt>
      <trkpt lat="48.86375" lon="2.35486">
        <ele>94.1</ele>
        <time>2015-05-05T19:41:12.030Z</time>
      </trkpt>
      <trkpt lat="48.8637" lon="2.35482">
        <ele>94.2</ele>
        <time>2015-05-05T19:41:13.047Z</time>
      </trkpt>
      <trkpt lat="48.86366" lon="2.35478">
        <ele>94.4</ele>
        <time>2015-05-05T19:41:14.050Z</time>
      </trkpt>
      <trkpt lat="48.86361" lon="2.35474">
        <ele>94.5</ele>
        <time>2015-05-05T19:41:15.111Z</time>
      </trkpt>
      <trkpt lat="48.86355" lon="2.35472">
        <ele>94.7</ele>
        <time>2015-05-05T19:41:16.125Z</time>
      </trkpt>
      <trkpt lat="48.86351" lon="2.35467">
        <ele>94.6</ele>
        <time>2015-05-05T19:41:17.018Z</time>
      </trkpt>
      <trkpt lat="48.86347" lon="2.35463">
        <ele>94.5</ele>
        <time>2015-05-05T19:41:18.029Z</time>
      </trkpt>
      <trkpt lat="48.86343" lon="2.35458">
        <ele>94.2</ele>
        <time>2015-05-05T19:41:19.037Z</time>
      </trkpt>
      <trkpt lat="48.86339" lon="2.35453">
        <ele>94.2</ele>
        <time>2015-05-05T19:41:20.037Z</time>
      </trkpt>
      <trkpt lat="48.86334" lon="2.35448">
        <ele>94.2</ele>
        <time>2015-05-05T19:41:21.043Z</time>
      </trkpt>
      <trkpt lat="48.86329" lon="2.35445">
        <ele>94.2</ele>
        <time>2015-05-05T19:41:22.088Z</time>
      </trkpt>
      <trkpt lat="48.86325" lon="2.35439">
        <ele>94.3</ele>
        <time>2015-05-05T19:41:23.077Z</time>
      </trkpt>
      <trkpt lat="48.86321" lon="2.35434">
        <ele>94.2</ele>
        <time>2015-05-05T19:41:24.087Z</time>
      </trkpt>
      <trkpt lat="48.86317" lon="2.35429">
        <ele>94.1</ele>
        <time>2015-05-05T19:41:25.099Z</time>
      </trkpt>
      <trkpt lat="48.86313" lon="2.35425">
        <ele>94</ele>
        <time>2015-05-05T19:41:26.114Z</time>
      </trkpt>
      <trkpt lat="48.86309" lon="2.35421">
        <ele>94</ele>
        <time>2015-05-05T19:41:27.059Z</time>
      </trkpt>
      <trkpt lat="48.86305" lon="2.35416">
        <ele>94</ele>
        <time>2015-05-05T19:41:28.128Z</time>
      </trkpt>
      <trkpt lat="48.86298" lon="2.35409">
        <ele>93.9</ele>
        <time>2015-05-05T19:41:30.113Z</time>
      </trkpt>
      <trkpt lat="48.86294" lon="2.35406">
        <ele>93.6</ele>
        <time>2015-05-05T19:41:31.063Z</time>
      </trkpt>
      <trkpt lat="48.86287" lon="2.35401">
        <ele>93.1</ele>
        <time>2015-05-05T19:41:33.027Z</time>
      </trkpt>
      <trkpt lat="48.86283" lon="2.35398">
        <ele>92.8</ele>
        <time>2015-05-05T19:41:34.124Z</time>
      </trkpt>
      <trkpt lat="48.86278" lon="2.35398">
        <ele>92.9</ele>
        <time>2015-05-05T19:41:35.057Z</time>
      </trkpt>
      <trkpt lat="48.86271" lon="2.35404">
        <ele>93.7</ele>
        <time>2015-05-05T19:41:36.065Z</time>
      </trkpt>
      <trkpt lat="48.86266" lon="2.35405">
        <ele>94</ele>
        <time>2015-05-05T19:41:37.086Z</time>
      </trkpt>
      <trkpt lat="48.8626" lon="2.35407">
        <ele>94.4</ele>
        <time>2015-05-05T19:41:38.093Z</time>
      </trkpt>
      <trkpt lat="48.86252" lon="2.35403">
        <ele>94.5</ele>
        <time>2015-05-05T19:41:40.134Z</time>
      </trkpt>
      <trkpt lat="48.86248" lon="2.354">
        <ele>94.3</ele>
        <time>2015-05-05T19:41:41.095Z</time>
      </trkpt>
      <trkpt lat="48.8624" lon="2.35395">
        <ele>93.9</ele>
        <time>2015-05-05T19:41:43.096Z</time>
      </trkpt>
      <trkpt lat="48.86236" lon="2.35392">
        <ele>94.2</ele>
        <time>2015-05-05T19:41:44.094Z</time>
      </trkpt>
      <trkpt lat="48.8623" lon="2.35391">
        <ele>94.5</ele>
        <time>2015-05-05T19:41:45.178Z</time>
      </trkpt>
      <trkpt lat="48.86223" lon="2.35393">
        <ele>95.2</ele>
        <time>2015-05-05T19:41:46.099Z</time>
      </trkpt>
      <trkpt lat="48.86216" lon="2.35393">
        <ele>95.8</ele>
        <time>2015-05-05T19:41:47.113Z</time>
      </trkpt>
      <trkpt lat="48.8621" lon="2.35393">
        <ele>95.9</ele>
        <time>2015-05-05T19:41:48.032Z</time>
      </trkpt>
      <trkpt lat="48.86205" lon="2.35391">
        <ele>96.1</ele>
        <time>2015-05-05T19:41:49.034Z</time>
      </trkpt>
      <trkpt lat="48.86199" lon="2.35389">
        <ele>96.3</ele>
        <time>2015-05-05T19:41:50.044Z</time>
      </trkpt>
      <trkpt lat="48.86194" lon="2.35386">
        <ele>96.3</ele>
        <time>2015-05-05T19:41:51.055Z</time>
      </trkpt>
      <trkpt lat="48.8619" lon="2.35382">
        <ele>96.2</ele>
        <time>2015-05-05T19:41:52.065Z</time>
      </trkpt>
      <trkpt lat="48.86185" lon="2.35376">
        <ele>96</ele>
        <time>2015-05-05T19:41:53.076Z</time>
      </trkpt>
      <trkpt lat="48.8618" lon="2.35372">
        <ele>96</ele>
        <time>2015-05-05T19:41:54.084Z</time>
      </trkpt>
      <trkpt lat="48.86175" lon="2.35369">
        <ele>95.8</ele>
        <time>2015-05-05T19:41:55.092Z</time>
      </trkpt>
      <trkpt lat="48.8617" lon="2.35366">
        <ele>96</ele>
        <time>2015-05-05T19:41:56.099Z</time>
      </trkpt>
      <trkpt lat="48.86164" lon="2.35364">
        <ele>96.1</ele>
        <time>2015-05-05T19:41:57.106Z</time>
      </trkpt>
      <trkpt lat="48.86158" lon="2.35362">
        <ele>96.2</ele>
        <time>2015-05-05T19:41:58.114Z</time>
      </trkpt>
      <trkpt lat="48.86152" lon="2.35361">
        <ele>96.4</ele>
        <time>2015-05-05T19:41:59.040Z</time>
      </trkpt>
      <trkpt lat="48.86146" lon="2.35358">
        <ele>97</ele>
        <time>2015-05-05T19:42:00.059Z</time>
      </trkpt>
      <trkpt lat="48.86141" lon="2.35354">
        <ele>97.5</ele>
        <time>2015-05-05T19:42:01.091Z</time>
      </trkpt>
      <trkpt lat="48.86136" lon="2.35349">
        <ele>98.2</ele>
        <time>2015-05-05T19:42:02.097Z</time>
      </trkpt>
      <trkpt lat="48.86131" lon="2.35346">
        <ele>98.9</ele>
        <time>2015-05-05T19:42:03.112Z</time>
      </trkpt>
      <trkpt lat="48.86125" lon="2.35344">
        <ele>99.7</ele>
        <time>2015-05-05T19:42:04.136Z</time>
      </trkpt>
      <trkpt lat="48.8612" lon="2.35342">
        <ele>100.2</ele>
        <time>2015-05-05T19:42:05.044Z</time>
      </trkpt>
      <trkpt lat="48.86115" lon="2.35335">
        <ele>101.3</ele>
        <time>2015-05-05T19:42:06.051Z</time>
      </trkpt>
      <trkpt lat="48.8611" lon="2.35333">
        <ele>101.6</ele>
        <time>2015-05-05T19:42:07.085Z</time>
      </trkpt>
      <trkpt lat="48.86105" lon="2.3533">
        <ele>101.9</ele>
        <time>2015-05-05T19:42:08.107Z</time>
      </trkpt>
      <trkpt lat="48.86099" lon="2.35328">
        <ele>102.1</ele>
        <time>2015-05-05T19:42:09.123Z</time>
      </trkpt>
      <trkpt lat="48.86094" lon="2.35324">
        <ele>102.6</ele>
        <time>2015-05-05T19:42:10.134Z</time>
      </trkpt>
      <trkpt lat="48.86089" lon="2.35321">
        <ele>103.1</ele>
        <time>2015-05-05T19:42:11.056Z</time>
      </trkpt>
      <trkpt lat="48.86083" lon="2.35317">
        <ele>103.6</ele>
        <time>2015-05-05T19:42:12.074Z</time>
      </trkpt>
      <trkpt lat="48.86078" lon="2.35314">
        <ele>103.8</ele>
        <time>2015-05-05T19:42:13.088Z</time>
      </trkpt>
      <trkpt lat="48.86072" lon="2.35311">
        <ele>104</ele>
        <time>2015-05-05T19:42:14.098Z</time>
      </trkpt>
      <trkpt lat="48.86066" lon="2.35308">
        <ele>104.1</ele>
        <time>2015-05-05T19:42:15.115Z</time>
      </trkpt>
      <trkpt lat="48.8606" lon="2.35306">
        <ele>104.3</ele>
        <time>2015-05-05T19:42:16.119Z</time>
      </trkpt>
      <trkpt lat="48.86054" lon="2.35303">
        <ele>104.6</ele>
        <time>2015-05-05T19:42:17.120Z</time>
      </trkpt>
      <trkpt lat="48.86048" lon="2.35302">
        <ele>104.9</ele>
        <time>2015-05-05T19:42:18.130Z</time>
      </trkpt>
      <trkpt lat="48.86042" lon="2.35299">
        <ele>105.2</ele>
        <time>2015-05-05T19:42:19.048Z</time>
      </trkpt>
      <trkpt lat="48.86036" lon="2.35296">
        <ele>105.5</ele>
        <time>2015-05-05T19:42:20.065Z</time>
      </trkpt>
      <trkpt lat="48.8603" lon="2.35294">
        <ele>105.7</ele>
        <time>2015-05-05T19:42:21.114Z</time>
      </trkpt>
      <trkpt lat="48.86024" lon="2.35291">
        <ele>105.8</ele>
        <time>2015-05-05T19:42:22.124Z</time>
      </trkpt>
      <trkpt lat="48.8602" lon="2.35286">
        <ele>105.9</ele>
        <time>2015-05-05T19:42:23.133Z</time>
      </trkpt>
      <trkpt lat="48.86015" lon="2.35281">
        <ele>105.7</ele>
        <time>2015-05-05T19:42:24.055Z</time>
      </trkpt>
      <trkpt lat="48.86011" lon="2.35277">
        <ele>105.6</ele>
        <time>2015-05-05T19:42:25.065Z</time>
      </trkpt>
      <trkpt lat="48.86006" lon="2.35273">
        <ele>105.6</ele>
        <time>2015-05-05T19:42:26.093Z</time>
      </trkpt>
      <trkpt lat="48.86001" lon="2.35271">
        <ele>105.7</ele>
        <time>2015-05-05T19:42:27.092Z</time>
      </trkpt>
      <trkpt lat="48.85995" lon="2.35268">
        <ele>105.8</ele>
        <time>2015-05-05T19:42:28.105Z</time>
      </trkpt>
      <trkpt lat="48.8599" lon="2.35267">
        <ele>105.9</ele>
        <time>2015-05-05T19:42:29.108Z</time>
      </trkpt>
      <trkpt lat="48.85985" lon="2.35265">
        <ele>106</ele>
        <time>2015-05-05T19:42:30.112Z</time>
      </trkpt>
      <trkpt lat="48.8598" lon="2.35263">
        <ele>106</ele>
        <time>2015-05-05T19:42:31.048Z</time>
      </trkpt>
      <trkpt lat="48.85975" lon="2.35262">
        <ele>106.1</ele>
        <time>2015-05-05T19:42:32.049Z</time>
      </trkpt>
      <trkpt lat="48.85967" lon="2.35257">
        <ele>106.1</ele>
        <time>2015-05-05T19:42:34.091Z</time>
      </trkpt>
      <trkpt lat="48.85963" lon="2.35254">
        <ele>105.9</ele>
        <time>2015-05-05T19:42:35.098Z</time>
      </trkpt>
      <trkpt lat="48.85959" lon="2.35252">
        <ele>105.8</ele>
        <time>2015-05-05T19:42:36.131Z</time>
      </trkpt>
      <trkpt lat="48.85954" lon="2.35251">
        <ele>106.2</ele>
        <time>2015-05-05T19:42:37.059Z</time>
      </trkpt>
      <trkpt lat="48.85948" lon="2.35251">
        <ele>106.8</ele>
        <time>2015-05-05T19:42:38.053Z</time>
      </trkpt>
      <trkpt lat="48.85945" lon="2.35246">
        <ele>106.6</ele>
        <time>2015-05-05T19:42:39.059Z</time>
      </trkpt>
      <trkpt lat="48.85937" lon="2.35242">
        <ele>106.3</ele>
        <time>2015-05-05T19:42:41.091Z</time>
      </trkpt>
      <trkpt lat="48.85931" lon="2.35242">
        <ele>106.9</ele>
        <time>2015-05-05T19:42:42.135Z</time>
      </trkpt>
      <trkpt lat="48.85924" lon="2.35243">
        <ele>107.5</ele>
        <time>2015-05-05T19:42:43.057Z</time>
      </trkpt>
      <trkpt lat="48.85918" lon="2.35242">
        <ele>108</ele>
        <time>2015-05-05T19:42:44.052Z</time>
      </trkpt>
      <trkpt lat="48.85912" lon="2.35241">
        <ele>108.5</ele>
        <time>2015-05-05T19:42:45.061Z</time>
      </trkpt>
      <trkpt lat="48.85906" lon="2.35239">
        <ele>108.8</ele>
        <time>2015-05-05T19:42:46.089Z</time>
      </trkpt>
      <trkpt lat="48.85901" lon="2.35237">
        <ele>109</ele>
        <time>2015-05-05T19:42:47.096Z</time>
      </trkpt>
      <trkpt lat="48.85895" lon="2.35235">
        <ele>109.2</ele>
        <time>2015-05-05T19:42:48.109Z</time>
      </trkpt>
      <trkpt lat="48.8589" lon="2.35233">
        <ele>109.5</ele>
        <time>2015-05-05T19:42:49.128Z</time>
      </trkpt>
      <trkpt lat="48.85886" lon="2.35231">
        <ele>109.5</ele>
        <time>2015-05-05T19:42:50.130Z</time>
      </trkpt>
      <trkpt lat="48.85881" lon="2.35228">
        <ele>109.5</ele>
        <time>2015-05-05T19:42:51.046Z</time>
      </trkpt>
      <trkpt lat="48.85877" lon="2.35225">
        <ele>109.6</ele>
        <time>2015-05-05T19:42:52.093Z</time>
      </trkpt>
      <trkpt lat="48.85872" lon="2.35222">
        <ele>109.6</ele>
        <time>2015-05-05T19:42:53.088Z</time>
      </trkpt>
      <trkpt lat="48.85868" lon="2.35219">
        <ele>109.5</ele>
        <time>2015-05-05T19:42:54.108Z</time>
      </trkpt>
      <trkpt lat="48.85863" lon="2.35216">
        <ele>109.6</ele>
        <time>2015-05-05T19:42:55.129Z</time>
      </trkpt>
      <trkpt lat="48.85858" lon="2.35214">
        <ele>109.8</ele>
        <time>2015-05-05T19:42:56.041Z</time>
      </trkpt>
      <trkpt lat="48.85854" lon="2.35212">
        <ele>109.9</ele>
        <time>2015-05-05T19:42:57.043Z</time>
      </trkpt>
      <trkpt lat="48.85849" lon="2.3521">
        <ele>109.9</ele>
        <time>2015-05-05T19:42:58.073Z</time>
      </trkpt>
      <trkpt lat="48.85845" lon="2.35207">
        <ele>110</ele>
        <time>2015-05-05T19:42:59.075Z</time>
      </trkpt>
      <trkpt lat="48.85841" lon="2.35205">
        <ele>110.1</ele>
        <time>2015-05-05T19:43:00.092Z</time>
      </trkpt>
      <trkpt lat="48.85836" lon="2.35202">
        <ele>110.1</ele>
        <time>2015-05-05T19:43:01.098Z</time>
      </trkpt>
      <trkpt lat="48.85831" lon="2.352">
        <ele>110.1</ele>
        <time>2015-05-05T19:43:02.108Z</time>
      </trkpt>
      <trkpt lat="48.85827" lon="2.35197">
        <ele>110.1</ele>
        <time>2015-05-05T19:43:03.046Z</time>
      </trkpt>
      <trkpt lat="48.85823" lon="2.35193">
        <ele>110.1</ele>
        <time>2015-05-05T19:43:04.146Z</time>
      </trkpt>
      <trkpt lat="48.85815" lon="2.35189">
        <ele>109.8</ele>
        <time>2015-05-05T19:43:06.067Z</time>
      </trkpt>
      <trkpt lat="48.85811" lon="2.35186">
        <ele>109.8</ele>
        <time>2015-05-05T19:43:07.089Z</time>
      </trkpt>
      <trkpt lat="48.85804" lon="2.3518">
        <ele>109.7</ele>
        <time>2015-05-05T19:43:09.125Z</time>
      </trkpt>
      <trkpt lat="48.85799" lon="2.35177">
        <ele>109.6</ele>
        <time>2015-05-05T19:43:10.214Z</time>
      </trkpt>
      <trkpt lat="48.85795" lon="2.35174">
        <ele>109.5</ele>
        <time>2015-05-05T19:43:11.089Z</time>
      </trkpt>
      <trkpt lat="48.8579" lon="2.35172">
        <ele>109.4</ele>
        <time>2015-05-05T19:43:12.095Z</time>
      </trkpt>
      <trkpt lat="48.85786" lon="2.35168">
        <ele>109.3</ele>
        <time>2015-05-05T19:43:13.108Z</time>
      </trkpt>
      <trkpt lat="48.85781" lon="2.35165">
        <ele>109.1</ele>
        <time>2015-05-05T19:43:14.109Z</time>
      </trkpt>
      <trkpt lat="48.85776" lon="2.35162">
        <ele>109</ele>
        <time>2015-05-05T19:43:15.123Z</time>
      </trkpt>
      <trkpt lat="48.85771" lon="2.3516">
        <ele>109</ele>
        <time>2015-05-05T19:43:16.133Z</time>
      </trkpt>
      <trkpt lat="48.85766" lon="2.35157">
        <ele>109</ele>
        <time>2015-05-05T19:43:17.041Z</time>
      </trkpt>
      <trkpt lat="48.85762" lon="2.35155">
        <ele>108.9</ele>
        <time>2015-05-05T19:43:18.056Z</time>
      </trkpt>
      <trkpt lat="48.85753" lon="2.35153">
        <ele>108.9</ele>
        <time>2015-05-05T19:43:20.104Z</time>
      </trkpt>
      <trkpt lat="48.85749" lon="2.35151">
        <ele>108.7</ele>
        <time>2015-05-05T19:43:21.051Z</time>
      </trkpt>
      <trkpt lat="48.85743" lon="2.35145">
        <ele>108.4</ele>
        <time>2015-05-05T19:43:23.067Z</time>
      </trkpt>
      <trkpt lat="48.85742" lon="2.35139">
        <ele>108.1</ele>
        <time>2015-05-05T19:43:24.099Z</time>
      </trkpt>
      <trkpt lat="48.85742" lon="2.3513">
        <ele>107.9</ele>
        <time>2015-05-05T19:43:25.130Z</time>
      </trkpt>
      <trkpt lat="48.85743" lon="2.35121">
        <ele>107.6</ele>
        <time>2015-05-05T19:43:26.043Z</time>
      </trkpt>
      <trkpt lat="48.85743" lon="2.35114">
        <ele>107.4</ele>
        <time>2015-05-05T19:43:27.064Z</time>
      </trkpt>
      <trkpt lat="48.85742" lon="2.35107">
        <ele>107.6</ele>
        <time>2015-05-05T19:43:28.144Z</time>
      </trkpt>
      <trkpt lat="48.8574" lon="2.35101">
        <ele>107.6</ele>
        <time>2015-05-05T19:43:29.052Z</time>
      </trkpt>
      <trkpt lat="48.85729" lon="2.35021">
        <ele>106.7</ele>
        <time>2015-05-05T19:43:40.094Z</time>
      </trkpt>
      <trkpt lat="48.8573" lon="2.35011">
        <ele>106.8</ele>
        <time>2015-05-05T19:43:42.126Z</time>
      </trkpt>
      <trkpt lat="48.85729" lon="2.35006">
        <ele>107</ele>
        <time>2015-05-05T19:43:43.039Z</time>
      </trkpt>
      <trkpt lat="48.85731" lon="2.34995">
        <ele>106.6</ele>
        <time>2015-05-05T19:43:45.082Z</time>
      </trkpt>
      <trkpt lat="48.85732" lon="2.34989">
        <ele>106.3</ele>
        <time>2015-05-05T19:43:46.113Z</time>
      </trkpt>
      <trkpt lat="48.85731" lon="2.34977">
        <ele>105.5</ele>
        <time>2015-05-05T19:43:52.067Z</time>
      </trkpt>
      <trkpt lat="48.85729" lon="2.34976">
        <ele>105.5</ele>
        <time>2015-05-05T19:43:53.055Z</time>
      </trkpt>
      <trkpt lat="48.85728" lon="2.34976">
        <ele>105.5</ele>
        <time>2015-05-05T19:43:54.036Z</time>
      </trkpt>
      <trkpt lat="48.85727" lon="2.34976">
        <ele>105.6</ele>
        <time>2015-05-05T19:43:55.044Z</time>
      </trkpt>
      <trkpt lat="48.85719" lon="2.34978">
        <ele>104.8</ele>
        <time>2015-05-05T19:43:59.005Z</time>
      </trkpt>
      <trkpt lat="48.85717" lon="2.34979">
        <ele>104.8</ele>
        <time>2015-05-05T19:44:00.100Z</time>
      </trkpt>
      <trkpt lat="48.85711" lon="2.34985">
        <ele>104.6</ele>
        <time>2015-05-05T19:44:04.168Z</time>
      </trkpt>
      <trkpt lat="48.85709" lon="2.34988">
        <ele>104.7</ele>
        <time>2015-05-05T19:44:05.012Z</time>
      </trkpt>
      <trkpt lat="48.85704" lon="2.34997">
        <ele>104.6</ele>
        <time>2015-05-05T19:44:08.082Z</time>
      </trkpt>
      <trkpt lat="48.85703" lon="2.35">
        <ele>104.6</ele>
        <time>2015-05-05T19:44:09.370Z</time>
      </trkpt>
      <trkpt lat="48.85699" lon="2.35011">
        <ele>104.6</ele>
        <time>2015-05-05T19:44:13.013Z</time>
      </trkpt>
      <trkpt lat="48.85698" lon="2.35015">
        <ele>104.6</ele>
        <time>2015-05-05T19:44:14.034Z</time>
      </trkpt>
      <trkpt lat="48.85691" lon="2.35023">
        <ele>104.2</ele>
        <time>2015-05-05T19:44:17.122Z</time>
      </trkpt>
      <trkpt lat="48.85686" lon="2.35027">
        <ele>103.8</ele>
        <time>2015-05-05T19:44:18.026Z</time>
      </trkpt>
      <trkpt lat="48.8568" lon="2.35034">
        <ele>103.4</ele>
        <time>2015-05-05T19:44:20.078Z</time>
      </trkpt>
      <trkpt lat="48.85677" lon="2.35039">
        <ele>103.2</ele>
        <time>2015-05-05T19:44:21.097Z</time>
      </trkpt>
      <trkpt lat="48.8567" lon="2.35046">
        <ele>102.7</ele>
        <time>2015-05-05T19:44:23.091Z</time>
      </trkpt>
      <trkpt lat="48.85667" lon="2.35051">
        <ele>102.6</ele>
        <time>2015-05-05T19:44:24.102Z</time>
      </trkpt>
      <trkpt lat="48.85665" lon="2.35064">
        <ele>103.1</ele>
        <time>2015-05-05T19:44:26.179Z</time>
      </trkpt>
      <trkpt lat="48.85662" lon="2.3507">
        <ele>102.6</ele>
        <time>2015-05-05T19:44:27.097Z</time>
      </trkpt>
      <trkpt lat="48.85659" lon="2.35081">
        <ele>101.5</ele>
        <time>2015-05-05T19:44:29.062Z</time>
      </trkpt>
      <trkpt lat="48.85659" lon="2.3509">
        <ele>102.3</ele>
        <time>2015-05-05T19:44:30.094Z</time>
      </trkpt>
      <trkpt lat="48.85652" lon="2.35097">
        <ele>102.2</ele>
        <time>2015-05-05T19:44:33.332Z</time>
      </trkpt>
      <trkpt lat="48.85649" lon="2.35097">
        <ele>102.1</ele>
        <time>2015-05-05T19:44:34.119Z</time>
      </trkpt>
      <trkpt lat="48.85643" lon="2.35093">
        <ele>102.2</ele>
        <time>2015-05-05T19:44:38.062Z</time>
      </trkpt>
      <trkpt lat="48.85643" lon="2.35093">
        <ele>102.4</ele>
        <time>2015-05-05T19:44:39.055Z</time>
      </trkpt>
      <trkpt lat="48.85642" lon="2.35093">
        <ele>103</ele>
        <time>2015-05-05T19:44:53.105Z</time>
      </trkpt>
      <trkpt lat="48.85641" lon="2.35098">
        <ele>103.9</ele>
        <time>2015-05-05T19:44:54.116Z</time>
      </trkpt>
      <trkpt lat="48.85639" lon="2.35101">
        <ele>103.8</ele>
        <time>2015-05-05T19:44:56.080Z</time>
      </trkpt>
      <trkpt lat="48.85639" lon="2.35102">
        <ele>103.8</ele>
        <time>2015-05-05T19:44:57.093Z</time>
      </trkpt>
      <trkpt lat="48.8564" lon="2.35102">
        <ele>103.7</ele>
        <time>2015-05-05T19:44:58.115Z</time>
      </trkpt>
      <trkpt lat="48.85639" lon="2.35103">
        <ele>103.6</ele>
        <time>2015-05-05T19:45:00.156Z</time>
      </trkpt>
      <trkpt lat="48.85639" lon="2.35103">
        <ele>103.4</ele>
        <time>2015-05-05T19:45:01.044Z</time>
      </trkpt>
      <trkpt lat="48.85638" lon="2.35103">
        <ele>103.3</ele>
        <time>2015-05-05T19:46:00.046Z</time>
      </trkpt>
      <trkpt lat="48.85635" lon="2.35103">
        <ele>105.4</ele>
        <time>2015-05-05T19:46:01.182Z</time>
      </trkpt>
      <trkpt lat="48.85635" lon="2.35102">
        <ele>105.5</ele>
        <time>2015-05-05T19:46:02.071Z</time>
      </trkpt>
      <trkpt lat="48.85635" lon="2.35102">
        <ele>105.6</ele>
        <time>2015-05-05T19:46:03.105Z</time>
      </trkpt>
      <trkpt lat="48.85643" lon="2.35104">
        <ele>104.7</ele>
        <time>2015-05-05T19:46:18.060Z</time>
      </trkpt>
      <trkpt lat="48.85645" lon="2.35105">
        <ele>104.7</ele>
        <time>2015-05-05T19:46:19.193Z</time>
      </trkpt>
      <trkpt lat="48.85654" lon="2.35104">
        <ele>103.8</ele>
        <time>2015-05-05T19:46:22.136Z</time>
      </trkpt>
      <trkpt lat="48.85657" lon="2.35102">
        <ele>103.5</ele>
        <time>2015-05-05T19:46:23.048Z</time>
      </trkpt>
      <trkpt lat="48.85664" lon="2.35097">
        <ele>103.1</ele>
        <time>2015-05-05T19:46:26.104Z</time>
      </trkpt>
      <trkpt lat="48.85666" lon="2.35095">
        <ele>102.9</ele>
        <time>2015-05-05T19:46:27.163Z</time>
      </trkpt>
      <trkpt lat="48.85671" lon="2.3509">
        <ele>102.6</ele>
        <time>2015-05-05T19:46:29.043Z</time>
      </trkpt>
      <trkpt lat="48.85673" lon="2.35085">
        <ele>102.3</ele>
        <time>2015-05-05T19:46:30.159Z</time>
      </trkpt>
      <trkpt lat="48.85679" lon="2.35075">
        <ele>101.8</ele>
        <time>2015-05-05T19:46:32.064Z</time>
      </trkpt>
      <trkpt lat="48.85681" lon="2.3507">
        <ele>101.7</ele>
        <time>2015-05-05T19:46:33.162Z</time>
      </trkpt>
      <trkpt lat="48.85686" lon="2.35059">
        <ele>101.1</ele>
        <time>2015-05-05T19:46:35.037Z</time>
      </trkpt>
      <trkpt lat="48.85689" lon="2.35054">
        <ele>100.7</ele>
        <time>2015-05-05T19:46:36.107Z</time>
      </trkpt>
      <trkpt lat="48.85693" lon="2.35043">
        <ele>100.2</ele>
        <time>2015-05-05T19:46:38.037Z</time>
      </trkpt>
      <trkpt lat="48.85696" lon="2.35039">
        <ele>99.8</ele>
        <time>2015-05-05T19:46:39.080Z</time>
      </trkpt>
      <trkpt lat="48.857" lon="2.35027">
        <ele>99.3</ele>
        <time>2015-05-05T19:46:41.029Z</time>
      </trkpt>
      <trkpt lat="48.85703" lon="2.35021">
        <ele>98.7</ele>
        <time>2015-05-05T19:46:42.071Z</time>
      </trkpt>
      <trkpt lat="48.85707" lon="2.3501">
        <ele>98.3</ele>
        <time>2015-05-05T19:46:44.044Z</time>
      </trkpt>
      <trkpt lat="48.85708" lon="2.35004">
        <ele>98</ele>
        <time>2015-05-05T19:46:45.105Z</time>
      </trkpt>
      <trkpt lat="48.85712" lon="2.34993">
        <ele>97.9</ele>
        <time>2015-05-05T19:46:47.016Z</time>
      </trkpt>
      <trkpt lat="48.85712" lon="2.34986">
        <ele>97.8</ele>
        <time>2015-05-05T19:46:48.055Z</time>
      </trkpt>
      <trkpt lat="48.85713" lon="2.34979">
        <ele>97.8</ele>
        <time>2015-05-05T19:46:49.138Z</time>
      </trkpt>
      <trkpt lat="48.85714" lon="2.34971">
        <ele>97.9</ele>
        <time>2015-05-05T19:46:50.114Z</time>
      </trkpt>
      <trkpt lat="48.85717" lon="2.3496">
        <ele>97.8</ele>
        <time>2015-05-05T19:46:52.103Z</time>
      </trkpt>
      <trkpt lat="48.85719" lon="2.34954">
        <ele>97.9</ele>
        <time>2015-05-05T19:46:53.089Z</time>
      </trkpt>
      <trkpt lat="48.8572" lon="2.34944">
        <ele>97.9</ele>
        <time>2015-05-05T19:46:55.205Z</time>
      </trkpt>
      <trkpt lat="48.85719" lon="2.34939">
        <ele>98</ele>
        <time>2015-05-05T19:46:56.022Z</time>
      </trkpt>
      <trkpt lat="48.85716" lon="2.34933">
        <ele>97.7</ele>
        <time>2015-05-05T19:46:57.060Z</time>
      </trkpt>
      <trkpt lat="48.8571" lon="2.34927">
        <ele>97.4</ele>
        <time>2015-05-05T19:46:58.155Z</time>
      </trkpt>
      <trkpt lat="48.85705" lon="2.34921">
        <ele>97.3</ele>
        <time>2015-05-05T19:46:59.050Z</time>
      </trkpt>
      <trkpt lat="48.857" lon="2.34918">
        <ele>97.2</ele>
        <time>2015-05-05T19:47:00.047Z</time>
      </trkpt>
      <trkpt lat="48.85696" lon="2.34915">
        <ele>97.2</ele>
        <time>2015-05-05T19:47:01.062Z</time>
      </trkpt>
      <trkpt lat="48.85692" lon="2.34912">
        <ele>97.2</ele>
        <time>2015-05-05T19:47:02.079Z</time>
      </trkpt>
      <trkpt lat="48.85684" lon="2.34908">
        <ele>97.3</ele>
        <time>2015-05-05T19:47:04.108Z</time>
      </trkpt>
      <trkpt lat="48.85681" lon="2.34907">
        <ele>97.3</ele>
        <time>2015-05-05T19:47:05.045Z</time>
      </trkpt>
      <trkpt lat="48.85674" lon="2.34905">
        <ele>96.6</ele>
        <time>2015-05-05T19:47:11.185Z</time>
      </trkpt>
      <trkpt lat="48.85674" lon="2.34904">
        <ele>96.5</ele>
        <time>2015-05-05T19:47:12.081Z</time>
      </trkpt>
      <trkpt lat="48.85675" lon="2.34904">
        <ele>96.3</ele>
        <time>2015-05-05T19:47:30.812Z</time>
      </trkpt>
      <trkpt lat="48.85676" lon="2.34895">
        <ele>97</ele>
        <time>2015-05-05T19:47:31.075Z</time>
      </trkpt>
      <trkpt lat="48.85678" lon="2.34896">
        <ele>96.7</ele>
        <time>2015-05-05T19:47:33.115Z</time>
      </trkpt>
      <trkpt lat="48.85678" lon="2.34895">
        <ele>96.5</ele>
        <time>2015-05-05T19:47:34.107Z</time>
      </trkpt>
      <trkpt lat="48.85678" lon="2.34894">
        <ele>96.5</ele>
        <time>2015-05-05T19:47:38.147Z</time>
      </trkpt>
      <trkpt lat="48.85678" lon="2.34893">
        <ele>96.4</ele>
        <time>2015-05-05T19:47:39.084Z</time>
      </trkpt>
      <trkpt lat="48.85671" lon="2.3489">
        <ele>96.2</ele>
        <time>2015-05-05T19:47:43.155Z</time>
      </trkpt>
      <trkpt lat="48.85668" lon="2.3489">
        <ele>96</ele>
        <time>2015-05-05T19:47:44.069Z</time>
      </trkpt>
      <trkpt lat="48.8566" lon="2.34887">
        <ele>96</ele>
        <time>2015-05-05T19:47:46.144Z</time>
      </trkpt>
      <trkpt lat="48.85655" lon="2.34885">
        <ele>96</ele>
        <time>2015-05-05T19:47:47.041Z</time>
      </trkpt>
      <trkpt lat="48.85648" lon="2.34881">
        <ele>95.7</ele>
        <time>2015-05-05T19:47:49.054Z</time>
      </trkpt>
      <trkpt lat="48.85645" lon="2.34879">
        <ele>95.7</ele>
        <time>2015-05-05T19:47:50.064Z</time>
      </trkpt>
      <trkpt lat="48.85637" lon="2.34875">
        <ele>95.9</ele>
        <time>2015-05-05T19:47:52.111Z</time>
      </trkpt>
      <trkpt lat="48.85634" lon="2.34873">
        <ele>95.9</ele>
        <time>2015-05-05T19:47:53.110Z</time>
      </trkpt>
      <trkpt lat="48.85625" lon="2.34867">
        <ele>96.3</ele>
        <time>2015-05-05T19:47:55.063Z</time>
      </trkpt>
      <trkpt lat="48.85622" lon="2.34865">
        <ele>96.3</ele>
        <time>2015-05-05T19:47:56.103Z</time>
      </trkpt>
      <trkpt lat="48.85614" lon="2.34861">
        <ele>96.6</ele>
        <time>2015-05-05T19:47:58.756Z</time>
      </trkpt>
      <trkpt lat="48.8561" lon="2.34859">
        <ele>96.5</ele>
        <time>2015-05-05T19:47:59.110Z</time>
      </trkpt>
      <trkpt lat="48.85601" lon="2.34855">
        <ele>96</ele>
        <time>2015-05-05T19:48:01.153Z</time>
      </trkpt>
      <trkpt lat="48.85597" lon="2.34852">
        <ele>95.8</ele>
        <time>2015-05-05T19:48:02.162Z</time>
      </trkpt>
      <trkpt lat="48.85592" lon="2.34849">
        <ele>95.8</ele>
        <time>2015-05-05T19:48:03.803Z</time>
      </trkpt>
      <trkpt lat="48.85587" lon="2.34846">
        <ele>95.8</ele>
        <time>2015-05-05T19:48:04.177Z</time>
      </trkpt>
      <trkpt lat="48.85583" lon="2.34843">
        <ele>95.5</ele>
        <time>2015-05-05T19:48:05.090Z</time>
      </trkpt>
      <trkpt lat="48.85578" lon="2.34841">
        <ele>95.1</ele>
        <time>2015-05-05T19:48:06.126Z</time>
      </trkpt>
      <trkpt lat="48.85573" lon="2.34838">
        <ele>94.8</ele>
        <time>2015-05-05T19:48:07.147Z</time>
      </trkpt>
      <trkpt lat="48.85568" lon="2.34835">
        <ele>94.5</ele>
        <time>2015-05-05T19:48:08.067Z</time>
      </trkpt>
      <trkpt lat="48.85564" lon="2.34832">
        <ele>94</ele>
        <time>2015-05-05T19:48:09.043Z</time>
      </trkpt>
      <trkpt lat="48.85559" lon="2.3483">
        <ele>93.6</ele>
        <time>2015-05-05T19:48:10.136Z</time>
      </trkpt>
      <trkpt lat="48.85553" lon="2.34827">
        <ele>93.6</ele>
        <time>2015-05-05T19:48:11.055Z</time>
      </trkpt>
      <trkpt lat="48.85548" lon="2.34823">
        <ele>93.3</ele>
        <time>2015-05-05T19:48:12.071Z</time>
      </trkpt>
      <trkpt lat="48.85543" lon="2.3482">
        <ele>93.4</ele>
        <time>2015-05-05T19:48:13.092Z</time>
      </trkpt>
      <trkpt lat="48.85539" lon="2.34817">
        <ele>93.3</ele>
        <time>2015-05-05T19:48:14.104Z</time>
      </trkpt>
      <trkpt lat="48.85533" lon="2.34813">
        <ele>93.1</ele>
        <time>2015-05-05T19:48:15.025Z</time>
      </trkpt>
      <trkpt lat="48.85528" lon="2.3481">
        <ele>93.3</ele>
        <time>2015-05-05T19:48:16.099Z</time>
      </trkpt>
      <trkpt lat="48.85523" lon="2.34807">
        <ele>93.5</ele>
        <time>2015-05-05T19:48:17.116Z</time>
      </trkpt>
      <trkpt lat="48.85517" lon="2.34804">
        <ele>93.5</ele>
        <time>2015-05-05T19:48:18.139Z</time>
      </trkpt>
      <trkpt lat="48.85512" lon="2.34801">
        <ele>93.4</ele>
        <time>2015-05-05T19:48:19.069Z</time>
      </trkpt>
      <trkpt lat="48.85507" lon="2.34798">
        <ele>93.3</ele>
        <time>2015-05-05T19:48:20.077Z</time>
      </trkpt>
      <trkpt lat="48.85502" lon="2.34795">
        <ele>93.3</ele>
        <time>2015-05-05T19:48:21.100Z</time>
      </trkpt>
      <trkpt lat="48.85496" lon="2.34792">
        <ele>93.3</ele>
        <time>2015-05-05T19:48:22.114Z</time>
      </trkpt>
      <trkpt lat="48.85491" lon="2.34789">
        <ele>93.5</ele>
        <time>2015-05-05T19:48:23.016Z</time>
      </trkpt>
      <trkpt lat="48.85485" lon="2.34786">
        <ele>93.6</ele>
        <time>2015-05-05T19:48:24.043Z</time>
      </trkpt>
      <trkpt lat="48.8548" lon="2.34782">
        <ele>93.6</ele>
        <time>2015-05-05T19:48:25.063Z</time>
      </trkpt>
      <trkpt lat="48.85474" lon="2.3478">
        <ele>93.7</ele>
        <time>2015-05-05T19:48:26.078Z</time>
      </trkpt>
      <trkpt lat="48.85469" lon="2.34776">
        <ele>93.6</ele>
        <time>2015-05-05T19:48:27.107Z</time>
      </trkpt>
      <trkpt lat="48.85464" lon="2.34772">
        <ele>93.5</ele>
        <time>2015-05-05T19:48:28.147Z</time>
      </trkpt>
      <trkpt lat="48.85459" lon="2.34768">
        <ele>93.3</ele>
        <time>2015-05-05T19:48:29.052Z</time>
      </trkpt>
      <trkpt lat="48.85454" lon="2.34765">
        <ele>93.2</ele>
        <time>2015-05-05T19:48:30.063Z</time>
      </trkpt>
      <trkpt lat="48.85449" lon="2.34761">
        <ele>93.2</ele>
        <time>2015-05-05T19:48:31.083Z</time>
      </trkpt>
      <trkpt lat="48.85444" lon="2.34757">
        <ele>93.2</ele>
        <time>2015-05-05T19:48:32.099Z</time>
      </trkpt>
      <trkpt lat="48.85438" lon="2.34753">
        <ele>93.1</ele>
        <time>2015-05-05T19:48:33.043Z</time>
      </trkpt>
      <trkpt lat="48.85433" lon="2.3475">
        <ele>93.1</ele>
        <time>2015-05-05T19:48:34.092Z</time>
      </trkpt>
      <trkpt lat="48.85427" lon="2.34747">
        <ele>93.2</ele>
        <time>2015-05-05T19:48:35.106Z</time>
      </trkpt>
      <trkpt lat="48.85421" lon="2.34745">
        <ele>93.4</ele>
        <time>2015-05-05T19:48:36.140Z</time>
      </trkpt>
      <trkpt lat="48.85416" lon="2.34742">
        <ele>93.4</ele>
        <time>2015-05-05T19:48:37.028Z</time>
      </trkpt>
      <trkpt lat="48.85411" lon="2.34737">
        <ele>93.5</ele>
        <time>2015-05-05T19:48:38.038Z</time>
      </trkpt>
      <trkpt lat="48.85406" lon="2.34733">
        <ele>93.4</ele>
        <time>2015-05-05T19:48:39.051Z</time>
      </trkpt>
      <trkpt lat="48.85401" lon="2.3473">
        <ele>93.3</ele>
        <time>2015-05-05T19:48:40.080Z</time>
      </trkpt>
      <trkpt lat="48.85396" lon="2.34726">
        <ele>93.2</ele>
        <time>2015-05-05T19:48:41.089Z</time>
      </trkpt>
      <trkpt lat="48.8539" lon="2.34723">
        <ele>93.3</ele>
        <time>2015-05-05T19:48:42.115Z</time>
      </trkpt>
      <trkpt lat="48.85385" lon="2.34721">
        <ele>93.3</ele>
        <time>2015-05-05T19:48:43.035Z</time>
      </trkpt>
      <trkpt lat="48.8538" lon="2.34718">
        <ele>93.2</ele>
        <time>2015-05-05T19:48:44.055Z</time>
      </trkpt>
      <trkpt lat="48.85374" lon="2.34716">
        <ele>93.2</ele>
        <time>2015-05-05T19:48:45.067Z</time>
      </trkpt>
      <trkpt lat="48.85368" lon="2.34714">
        <ele>93.3</ele>
        <time>2015-05-05T19:48:46.086Z</time>
      </trkpt>
      <trkpt lat="48.85363" lon="2.34711">
        <ele>93.1</ele>
        <time>2015-05-05T19:48:47.110Z</time>
      </trkpt>
      <trkpt lat="48.85357" lon="2.3471">
        <ele>93.1</ele>
        <time>2015-05-05T19:48:48.119Z</time>
      </trkpt>
      <trkpt lat="48.85353" lon="2.34708">
        <ele>92.8</ele>
        <time>2015-05-05T19:48:49.061Z</time>
      </trkpt>
      <trkpt lat="48.85349" lon="2.34706">
        <ele>92.6</ele>
        <time>2015-05-05T19:48:50.065Z</time>
      </trkpt>
      <trkpt lat="48.85344" lon="2.34703">
        <ele>92.8</ele>
        <time>2015-05-05T19:48:51.056Z</time>
      </trkpt>
      <trkpt lat="48.8534" lon="2.34701">
        <ele>92.6</ele>
        <time>2015-05-05T19:48:52.098Z</time>
      </trkpt>
      <trkpt lat="48.85332" lon="2.34697">
        <ele>92.5</ele>
        <time>2015-05-05T19:48:54.056Z</time>
      </trkpt>
      <trkpt lat="48.85329" lon="2.34694">
        <ele>92.5</ele>
        <time>2015-05-05T19:48:55.073Z</time>
      </trkpt>
      <trkpt lat="48.85321" lon="2.34691">
        <ele>92.4</ele>
        <time>2015-05-05T19:48:58.181Z</time>
      </trkpt>
      <trkpt lat="48.85319" lon="2.3469">
        <ele>92.7</ele>
        <time>2015-05-05T19:48:59.102Z</time>
      </trkpt>
      <trkpt lat="48.85317" lon="2.34689">
        <ele>93.7</ele>
        <time>2015-05-05T19:49:01.053Z</time>
      </trkpt>
      <trkpt lat="48.85317" lon="2.34689">
        <ele>94.1</ele>
        <time>2015-05-05T19:49:02.074Z</time>
      </trkpt>
      <trkpt lat="48.85317" lon="2.34689">
        <ele>94</ele>
        <time>2015-05-05T19:49:11.093Z</time>
      </trkpt>
      <trkpt lat="48.85316" lon="2.3469">
        <ele>95</ele>
        <time>2015-05-05T19:49:12.117Z</time>
      </trkpt>
      <trkpt lat="48.85314" lon="2.3469">
        <ele>95.1</ele>
        <time>2015-05-05T19:49:18.042Z</time>
      </trkpt>
      <trkpt lat="48.85314" lon="2.3469">
        <ele>95.2</ele>
        <time>2015-05-05T19:49:19.076Z</time>
      </trkpt>
      <trkpt lat="48.85313" lon="2.3469">
        <ele>95.2</ele>
        <time>2015-05-05T19:49:27.208Z</time>
      </trkpt>
      <trkpt lat="48.85312" lon="2.34689">
        <ele>95.5</ele>
        <time>2015-05-05T19:49:28.123Z</time>
      </trkpt>
      <trkpt lat="48.85304" lon="2.34685">
        <ele>95.7</ele>
        <time>2015-05-05T19:49:31.145Z</time>
      </trkpt>
      <trkpt lat="48.85301" lon="2.34683">
        <ele>95.3</ele>
        <time>2015-05-05T19:49:32.126Z</time>
      </trkpt>
      <trkpt lat="48.85293" lon="2.34679">
        <ele>95.2</ele>
        <time>2015-05-05T19:49:34.156Z</time>
      </trkpt>
      <trkpt lat="48.85289" lon="2.34677">
        <ele>95.1</ele>
        <time>2015-05-05T19:49:35.040Z</time>
      </trkpt>
      <trkpt lat="48.85285" lon="2.34674">
        <ele>94.9</ele>
        <time>2015-05-05T19:49:36.042Z</time>
      </trkpt>
      <trkpt lat="48.8528" lon="2.34671">
        <ele>94.7</ele>
        <time>2015-05-05T19:49:37.050Z</time>
      </trkpt>
      <trkpt lat="48.85273" lon="2.34666">
        <ele>94.9</ele>
        <time>2015-05-05T19:49:39.063Z</time>
      </trkpt>
      <trkpt lat="48.85269" lon="2.34663">
        <ele>95</ele>
        <time>2015-05-05T19:49:40.126Z</time>
      </trkpt>
      <trkpt lat="48.85261" lon="2.34658">
        <ele>95.6</ele>
        <time>2015-05-05T19:49:42.039Z</time>
      </trkpt>
      <trkpt lat="48.85256" lon="2.34656">
        <ele>95.7</ele>
        <time>2015-05-05T19:49:43.196Z</time>
      </trkpt>
      <trkpt lat="48.85252" lon="2.34653">
        <ele>95.6</ele>
        <time>2015-05-05T19:49:44.067Z</time>
      </trkpt>
      <trkpt lat="48.85246" lon="2.34649">
        <ele>96.1</ele>
        <time>2015-05-05T19:49:45.263Z</time>
      </trkpt>
      <trkpt lat="48.85241" lon="2.34646">
        <ele>96.4</ele>
        <time>2015-05-05T19:49:46.091Z</time>
      </trkpt>
      <trkpt lat="48.85237" lon="2.34643">
        <ele>96.7</ele>
        <time>2015-05-05T19:49:47.093Z</time>
      </trkpt>
      <trkpt lat="48.85231" lon="2.34639">
        <ele>96.9</ele>
        <time>2015-05-05T19:49:48.101Z</time>
      </trkpt>
      <trkpt lat="48.85225" lon="2.34634">
        <ele>97.1</ele>
        <time>2015-05-05T19:49:49.016Z</time>
      </trkpt>
      <trkpt lat="48.8522" lon="2.3463">
        <ele>97.3</ele>
        <time>2015-05-05T19:49:50.026Z</time>
      </trkpt>
      <trkpt lat="48.85213" lon="2.34625">
        <ele>97.3</ele>
        <time>2015-05-05T19:49:51.040Z</time>
      </trkpt>
      <trkpt lat="48.85207" lon="2.3462">
        <ele>97.3</ele>
        <time>2015-05-05T19:49:52.048Z</time>
      </trkpt>
      <trkpt lat="48.85202" lon="2.34616">
        <ele>97.5</ele>
        <time>2015-05-05T19:49:53.060Z</time>
      </trkpt>
      <trkpt lat="48.85196" lon="2.34613">
        <ele>97.7</ele>
        <time>2015-05-05T19:49:54.072Z</time>
      </trkpt>
      <trkpt lat="48.85191" lon="2.3461">
        <ele>97.5</ele>
        <time>2015-05-05T19:49:55.085Z</time>
      </trkpt>
      <trkpt lat="48.85186" lon="2.34607">
        <ele>97.5</ele>
        <time>2015-05-05T19:49:56.104Z</time>
      </trkpt>
      <trkpt lat="48.85182" lon="2.34605">
        <ele>97.5</ele>
        <time>2015-05-05T19:49:57.109Z</time>
      </trkpt>
      <trkpt lat="48.85177" lon="2.34602">
        <ele>97.5</ele>
        <time>2015-05-05T19:49:58.115Z</time>
      </trkpt>
      <trkpt lat="48.85173" lon="2.346">
        <ele>97.4</ele>
        <time>2015-05-05T19:49:59.046Z</time>
      </trkpt>
      <trkpt lat="48.85164" lon="2.34597">
        <ele>97.7</ele>
        <time>2015-05-05T19:50:01.063Z</time>
      </trkpt>
      <trkpt lat="48.8516" lon="2.34596">
        <ele>97.7</ele>
        <time>2015-05-05T19:50:02.066Z</time>
      </trkpt>
      <trkpt lat="48.85155" lon="2.34595">
        <ele>97.7</ele>
        <time>2015-05-05T19:50:03.117Z</time>
      </trkpt>
      <trkpt lat="48.8515" lon="2.34593">
        <ele>97.8</ele>
        <time>2015-05-05T19:50:04.122Z</time>
      </trkpt>
      <trkpt lat="48.85146" lon="2.34592">
        <ele>98</ele>
        <time>2015-05-05T19:50:05.014Z</time>
      </trkpt>
      <trkpt lat="48.85141" lon="2.3459">
        <ele>98.2</ele>
        <time>2015-05-05T19:50:06.035Z</time>
      </trkpt>
      <trkpt lat="48.85136" lon="2.34587">
        <ele>98.2</ele>
        <time>2015-05-05T19:50:07.106Z</time>
      </trkpt>
      <trkpt lat="48.85131" lon="2.34585">
        <ele>98.3</ele>
        <time>2015-05-05T19:50:08.063Z</time>
      </trkpt>
      <trkpt lat="48.85125" lon="2.34584">
        <ele>98.6</ele>
        <time>2015-05-05T19:50:09.090Z</time>
      </trkpt>
      <trkpt lat="48.8512" lon="2.34582">
        <ele>98.6</ele>
        <time>2015-05-05T19:50:10.095Z</time>
      </trkpt>
      <trkpt lat="48.85112" lon="2.34578">
        <ele>98.6</ele>
        <time>2015-05-05T19:50:12.029Z</time>
      </trkpt>
      <trkpt lat="48.85108" lon="2.34577">
        <ele>98.5</ele>
        <time>2015-05-05T19:50:13.065Z</time>
      </trkpt>
      <trkpt lat="48.851" lon="2.34574">
        <ele>98.3</ele>
        <time>2015-05-05T19:50:15.123Z</time>
      </trkpt>
      <trkpt lat="48.85097" lon="2.34573">
        <ele>98.3</ele>
        <time>2015-05-05T19:50:16.148Z</time>
      </trkpt>
      <trkpt lat="48.8509" lon="2.34565">
        <ele>99.4</ele>
        <time>2015-05-05T19:50:20.021Z</time>
      </trkpt>
      <trkpt lat="48.85088" lon="2.34566">
        <ele>99.3</ele>
        <time>2015-05-05T19:50:21.025Z</time>
      </trkpt>
      <trkpt lat="48.85082" lon="2.3456">
        <ele>99.6</ele>
        <time>2015-05-05T19:50:39.092Z</time>
      </trkpt>
      <trkpt lat="48.85081" lon="2.34555">
        <ele>99.4</ele>
        <time>2015-05-05T19:50:40.124Z</time>
      </trkpt>
      <trkpt lat="48.85074" lon="2.34551">
        <ele>99.9</ele>
        <time>2015-05-05T19:50:46.143Z</time>
      </trkpt>
      <trkpt lat="48.85071" lon="2.3455">
        <ele>100.1</ele>
        <time>2015-05-05T19:50:47.039Z</time>
      </trkpt>
      <trkpt lat="48.85064" lon="2.34547">
        <ele>100.1</ele>
        <time>2015-05-05T19:50:49.045Z</time>
      </trkpt>
      <trkpt lat="48.85061" lon="2.34545">
        <ele>100.2</ele>
        <time>2015-05-05T19:50:50.066Z</time>
      </trkpt>
      <trkpt lat="48.85055" lon="2.34541">
        <ele>100.5</ele>
        <time>2015-05-05T19:50:52.143Z</time>
      </trkpt>
      <trkpt lat="48.85051" lon="2.3454">
        <ele>100.5</ele>
        <time>2015-05-05T19:50:53.037Z</time>
      </trkpt>
      <trkpt lat="48.85043" lon="2.34537">
        <ele>100.1</ele>
        <time>2015-05-05T19:50:55.158Z</time>
      </trkpt>
      <trkpt lat="48.85039" lon="2.34536">
        <ele>100.3</ele>
        <time>2015-05-05T19:50:56.054Z</time>
      </trkpt>
      <trkpt lat="48.85033" lon="2.34535">
        <ele>100.4</ele>
        <time>2015-05-05T19:50:58.236Z</time>
      </trkpt>
      <trkpt lat="48.85029" lon="2.34534">
        <ele>100.5</ele>
        <time>2015-05-05T19:50:59.018Z</time>
      </trkpt>
      <trkpt lat="48.85022" lon="2.3453">
        <ele>100.9</ele>
        <time>2015-05-05T19:51:01.106Z</time>
      </trkpt>
      <trkpt lat="48.85018" lon="2.34528">
        <ele>100.7</ele>
        <time>2015-05-05T19:51:02.121Z</time>
      </trkpt>
      <trkpt lat="48.8501" lon="2.34524">
        <ele>100.7</ele>
        <time>2015-05-05T19:51:04.123Z</time>
      </trkpt>
      <trkpt lat="48.85006" lon="2.34522">
        <ele>100.8</ele>
        <time>2015-05-05T19:51:05.031Z</time>
      </trkpt>
      <trkpt lat="48.85001" lon="2.34519">
        <ele>100.9</ele>
        <time>2015-05-05T19:51:06.051Z</time>
      </trkpt>
      <trkpt lat="48.84997" lon="2.34517">
        <ele>101.3</ele>
        <time>2015-05-05T19:51:07.064Z</time>
      </trkpt>
      <trkpt lat="48.84989" lon="2.34512">
        <ele>101.8</ele>
        <time>2015-05-05T19:51:09.296Z</time>
      </trkpt>
      <trkpt lat="48.84985" lon="2.34508">
        <ele>101.9</ele>
        <time>2015-05-05T19:51:10.183Z</time>
      </trkpt>
      <trkpt lat="48.84981" lon="2.34505">
        <ele>102</ele>
        <time>2015-05-05T19:51:11.033Z</time>
      </trkpt>
      <trkpt lat="48.84976" lon="2.34502">
        <ele>101.9</ele>
        <time>2015-05-05T19:51:12.056Z</time>
      </trkpt>
      <trkpt lat="48.84972" lon="2.345">
        <ele>101.9</ele>
        <time>2015-05-05T19:51:13.458Z</time>
      </trkpt>
      <trkpt lat="48.84967" lon="2.34499">
        <ele>102</ele>
        <time>2015-05-05T19:51:14.069Z</time>
      </trkpt>
      <trkpt lat="48.84963" lon="2.34496">
        <ele>101.8</ele>
        <time>2015-05-05T19:51:15.092Z</time>
      </trkpt>
      <trkpt lat="48.84958" lon="2.34494">
        <ele>101.5</ele>
        <time>2015-05-05T19:51:16.120Z</time>
      </trkpt>
      <trkpt lat="48.84951" lon="2.34489">
        <ele>101.1</ele>
        <time>2015-05-05T19:51:18.554Z</time>
      </trkpt>
      <trkpt lat="48.84946" lon="2.34486">
        <ele>101</ele>
        <time>2015-05-05T19:51:19.050Z</time>
      </trkpt>
      <trkpt lat="48.84941" lon="2.34482">
        <ele>101</ele>
        <time>2015-05-05T19:51:20.064Z</time>
      </trkpt>
      <trkpt lat="48.84937" lon="2.34479">
        <ele>101</ele>
        <time>2015-05-05T19:51:21.001Z</time>
      </trkpt>
      <trkpt lat="48.84932" lon="2.34476">
        <ele>101.1</ele>
        <time>2015-05-05T19:51:22.064Z</time>
      </trkpt>
      <trkpt lat="48.84927" lon="2.34474">
        <ele>101.2</ele>
        <time>2015-05-05T19:51:23.104Z</time>
      </trkpt>
      <trkpt lat="48.84919" lon="2.3447">
        <ele>101.3</ele>
        <time>2015-05-05T19:51:25.026Z</time>
      </trkpt>
      <trkpt lat="48.84916" lon="2.34468">
        <ele>101.3</ele>
        <time>2015-05-05T19:51:26.014Z</time>
      </trkpt>
      <trkpt lat="48.84909" lon="2.34464">
        <ele>101.3</ele>
        <time>2015-05-05T19:51:28.127Z</time>
      </trkpt>
      <trkpt lat="48.84905" lon="2.34462">
        <ele>101.2</ele>
        <time>2015-05-05T19:51:29.026Z</time>
      </trkpt>
      <trkpt lat="48.84898" lon="2.34459">
        <ele>101.4</ele>
        <time>2015-05-05T19:51:31.058Z</time>
      </trkpt>
      <trkpt lat="48.84895" lon="2.34457">
        <ele>101.5</ele>
        <time>2015-05-05T19:51:32.086Z</time>
      </trkpt>
      <trkpt lat="48.84889" lon="2.34453">
        <ele>101.7</ele>
        <time>2015-05-05T19:51:34.061Z</time>
      </trkpt>
      <trkpt lat="48.84886" lon="2.34451">
        <ele>101.9</ele>
        <time>2015-05-05T19:51:35.083Z</time>
      </trkpt>
      <trkpt lat="48.84879" lon="2.34449">
        <ele>102.3</ele>
        <time>2015-05-05T19:51:37.033Z</time>
      </trkpt>
      <trkpt lat="48.84875" lon="2.34449">
        <ele>102.6</ele>
        <time>2015-05-05T19:51:38.059Z</time>
      </trkpt>
      <trkpt lat="48.84869" lon="2.34447">
        <ele>103.4</ele>
        <time>2015-05-05T19:51:40.072Z</time>
      </trkpt>
      <trkpt lat="48.84866" lon="2.34447">
        <ele>103.5</ele>
        <time>2015-05-05T19:51:41.079Z</time>
      </trkpt>
      <trkpt lat="48.84859" lon="2.34444">
        <ele>103.8</ele>
        <time>2015-05-05T19:51:43.250Z</time>
      </trkpt>
      <trkpt lat="48.84856" lon="2.34441">
        <ele>103.8</ele>
        <time>2015-05-05T19:51:44.098Z</time>
      </trkpt>
      <trkpt lat="48.8485" lon="2.34437">
        <ele>104.1</ele>
        <time>2015-05-05T19:51:46.067Z</time>
      </trkpt>
      <trkpt lat="48.84846" lon="2.34435">
        <ele>104.3</ele>
        <time>2015-05-05T19:51:47.037Z</time>
      </trkpt>
      <trkpt lat="48.8484" lon="2.34432">
        <ele>104.7</ele>
        <time>2015-05-05T19:51:49.096Z</time>
      </trkpt>
      <trkpt lat="48.84837" lon="2.34431">
        <ele>104.5</ele>
        <time>2015-05-05T19:51:50.111Z</time>
      </trkpt>
      <trkpt lat="48.84831" lon="2.34428">
        <ele>104.6</ele>
        <time>2015-05-05T19:51:52.056Z</time>
      </trkpt>
      <trkpt lat="48.84828" lon="2.34427">
        <ele>104.8</ele>
        <time>2015-05-05T19:51:53.113Z</time>
      </trkpt>
      <trkpt lat="48.84822" lon="2.34425">
        <ele>105.5</ele>
        <time>2015-05-05T19:51:55.039Z</time>
      </trkpt>
      <trkpt lat="48.84819" lon="2.34424">
        <ele>105.6</ele>
        <time>2015-05-05T19:51:56.042Z</time>
      </trkpt>
      <trkpt lat="48.84811" lon="2.3442">
        <ele>106.1</ele>
        <time>2015-05-05T19:51:59.049Z</time>
      </trkpt>
      <trkpt lat="48.84808" lon="2.34419">
        <ele>106.3</ele>
        <time>2015-05-05T19:52:00.074Z</time>
      </trkpt>
      <trkpt lat="48.84802" lon="2.34416">
        <ele>106.6</ele>
        <time>2015-05-05T19:52:02.057Z</time>
      </trkpt>
      <trkpt lat="48.84798" lon="2.34414">
        <ele>106.6</ele>
        <time>2015-05-05T19:52:03.063Z</time>
      </trkpt>
      <trkpt lat="48.84791" lon="2.34412">
        <ele>106.6</ele>
        <time>2015-05-05T19:52:05.076Z</time>
      </trkpt>
      <trkpt lat="48.84788" lon="2.3441">
        <ele>106.9</ele>
        <time>2015-05-05T19:52:06.081Z</time>
      </trkpt>
      <trkpt lat="48.84782" lon="2.34406">
        <ele>107.3</ele>
        <time>2015-05-05T19:52:08.608Z</time>
      </trkpt>
      <trkpt lat="48.84779" lon="2.34404">
        <ele>107.5</ele>
        <time>2015-05-05T19:52:09.035Z</time>
      </trkpt>
      <trkpt lat="48.84773" lon="2.344">
        <ele>108.1</ele>
        <time>2015-05-05T19:52:11.067Z</time>
      </trkpt>
      <trkpt lat="48.8477" lon="2.34399">
        <ele>108.4</ele>
        <time>2015-05-05T19:52:12.073Z</time>
      </trkpt>
      <trkpt lat="48.84763" lon="2.34395">
        <ele>109</ele>
        <time>2015-05-05T19:52:15.032Z</time>
      </trkpt>
      <trkpt lat="48.8476" lon="2.34393">
        <ele>109.2</ele>
        <time>2015-05-05T19:52:16.090Z</time>
      </trkpt>
      <trkpt lat="48.84752" lon="2.34388">
        <ele>109.8</ele>
        <time>2015-05-05T19:52:19.049Z</time>
      </trkpt>
      <trkpt lat="48.8475" lon="2.34387">
        <ele>110</ele>
        <time>2015-05-05T19:52:20.031Z</time>
      </trkpt>
      <trkpt lat="48.84744" lon="2.34385">
        <ele>110.4</ele>
        <time>2015-05-05T19:52:22.126Z</time>
      </trkpt>
      <trkpt lat="48.84741" lon="2.34384">
        <ele>110.5</ele>
        <time>2015-05-05T19:52:23.033Z</time>
      </trkpt>
      <trkpt lat="48.84735" lon="2.3438">
        <ele>110.8</ele>
        <time>2015-05-05T19:52:25.052Z</time>
      </trkpt>
      <trkpt lat="48.84732" lon="2.34379">
        <ele>110.7</ele>
        <time>2015-05-05T19:52:26.076Z</time>
      </trkpt>
      <trkpt lat="48.84727" lon="2.34374">
        <ele>110.7</ele>
        <time>2015-05-05T19:52:28.133Z</time>
      </trkpt>
      <trkpt lat="48.84724" lon="2.34372">
        <ele>110.8</ele>
        <time>2015-05-05T19:52:29.037Z</time>
      </trkpt>
      <trkpt lat="48.84717" lon="2.34367">
        <ele>111.7</ele>
        <time>2015-05-05T19:52:32.093Z</time>
      </trkpt>
      <trkpt lat="48.84714" lon="2.34365">
        <ele>111.9</ele>
        <time>2015-05-05T19:52:33.142Z</time>
      </trkpt>
      <trkpt lat="48.84708" lon="2.34361">
        <ele>112.8</ele>
        <time>2015-05-05T19:52:35.153Z</time>
      </trkpt>
      <trkpt lat="48.84705" lon="2.34359">
        <ele>113.1</ele>
        <time>2015-05-05T19:52:36.032Z</time>
      </trkpt>
      <trkpt lat="48.84697" lon="2.34356">
        <ele>114.1</ele>
        <time>2015-05-05T19:52:39.044Z</time>
      </trkpt>
      <trkpt lat="48.84695" lon="2.34356">
        <ele>114.2</ele>
        <time>2015-05-05T19:52:40.102Z</time>
      </trkpt>
      <trkpt lat="48.8469" lon="2.34345">
        <ele>115.3</ele>
        <time>2015-05-05T19:52:45.131Z</time>
      </trkpt>
      <trkpt lat="48.84691" lon="2.34343">
        <ele>115.1</ele>
        <time>2015-05-05T19:52:46.148Z</time>
      </trkpt>
      <trkpt lat="48.84686" lon="2.34334">
        <ele>114.3</ele>
        <time>2015-05-05T19:53:00.068Z</time>
      </trkpt>
      <trkpt lat="48.84686" lon="2.34333">
        <ele>114.3</ele>
        <time>2015-05-05T19:53:01.050Z</time>
      </trkpt>
      <trkpt lat="48.84685" lon="2.34333">
        <ele>114.3</ele>
        <time>2015-05-05T19:53:02.055Z</time>
      </trkpt>
      <trkpt lat="48.84685" lon="2.34333">
        <ele>114</ele>
        <time>2015-05-05T19:53:03.459Z</time>
      </trkpt>
      <trkpt lat="48.84684" lon="2.34333">
        <ele>113.9</ele>
        <time>2015-05-05T19:53:04.100Z</time>
      </trkpt>
      <trkpt lat="48.84684" lon="2.34333">
        <ele>113.9</ele>
        <time>2015-05-05T19:53:05.111Z</time>
      </trkpt>
      <trkpt lat="48.84683" lon="2.34332">
        <ele>113.9</ele>
        <time>2015-05-05T19:53:07.037Z</time>
      </trkpt>
      <trkpt lat="48.84683" lon="2.34332">
        <ele>114.2</ele>
        <time>2015-05-05T19:53:08.070Z</time>
      </trkpt>
      <trkpt lat="48.84685" lon="2.34334">
        <ele>114.6</ele>
        <time>2015-05-05T19:53:20.131Z</time>
      </trkpt>
      <trkpt lat="48.84685" lon="2.34337">
        <ele>114.3</ele>
        <time>2015-05-05T19:53:21.157Z</time>
      </trkpt>
      <trkpt lat="48.84683" lon="2.34326">
        <ele>114.4</ele>
        <time>2015-05-05T19:53:30.052Z</time>
      </trkpt>
      <trkpt lat="48.84684" lon="2.34323">
        <ele>113.8</ele>
        <time>2015-05-05T19:53:31.100Z</time>
      </trkpt>
      <trkpt lat="48.84689" lon="2.34312">
        <ele>112.9</ele>
        <time>2015-05-05T19:53:34.111Z</time>
      </trkpt>
      <trkpt lat="48.84691" lon="2.34307">
        <ele>112.6</ele>
        <time>2015-05-05T19:53:35.038Z</time>
      </trkpt>
      <trkpt lat="48.84694" lon="2.34296">
        <ele>112.4</ele>
        <time>2015-05-05T19:53:37.077Z</time>
      </trkpt>
      <trkpt lat="48.84695" lon="2.34289">
        <ele>112.4</ele>
        <time>2015-05-05T19:53:38.100Z</time>
      </trkpt>
      <trkpt lat="48.84699" lon="2.34277">
        <ele>112</ele>
        <time>2015-05-05T19:53:40.076Z</time>
      </trkpt>
      <trkpt lat="48.84701" lon="2.34271">
        <ele>111.8</ele>
        <time>2015-05-05T19:53:41.007Z</time>
      </trkpt>
      <trkpt lat="48.84704" lon="2.34265">
        <ele>111.6</ele>
        <time>2015-05-05T19:53:42.046Z</time>
      </trkpt>
      <trkpt lat="48.84706" lon="2.34259">
        <ele>111.3</ele>
        <time>2015-05-05T19:53:43.050Z</time>
      </trkpt>
      <trkpt lat="48.84708" lon="2.34251">
        <ele>111</ele>
        <time>2015-05-05T19:53:44.048Z</time>
      </trkpt>
      <trkpt lat="48.8471" lon="2.34244">
        <ele>111</ele>
        <time>2015-05-05T19:53:45.066Z</time>
      </trkpt>
      <trkpt lat="48.84712" lon="2.34237">
        <ele>111</ele>
        <time>2015-05-05T19:53:46.063Z</time>
      </trkpt>
      <trkpt lat="48.84714" lon="2.34229">
        <ele>110.7</ele>
        <time>2015-05-05T19:53:47.052Z</time>
      </trkpt>
      <trkpt lat="48.84716" lon="2.34221">
        <ele>110.4</ele>
        <time>2015-05-05T19:53:48.661Z</time>
      </trkpt>
      <trkpt lat="48.84718" lon="2.34214">
        <ele>110.5</ele>
        <time>2015-05-05T19:53:49.071Z</time>
      </trkpt>
      <trkpt lat="48.84721" lon="2.34202">
        <ele>110.4</ele>
        <time>2015-05-05T19:53:51.101Z</time>
      </trkpt>
      <trkpt lat="48.84722" lon="2.34197">
        <ele>110.2</ele>
        <time>2015-05-05T19:53:52.140Z</time>
      </trkpt>
      <trkpt lat="48.84726" lon="2.34191">
        <ele>110.1</ele>
        <time>2015-05-05T19:53:53.026Z</time>
      </trkpt>
      <trkpt lat="48.84728" lon="2.34184">
        <ele>109.9</ele>
        <time>2015-05-05T19:53:54.024Z</time>
      </trkpt>
      <trkpt lat="48.84729" lon="2.34178">
        <ele>109.8</ele>
        <time>2015-05-05T19:53:55.025Z</time>
      </trkpt>
      <trkpt lat="48.8473" lon="2.3417">
        <ele>109.6</ele>
        <time>2015-05-05T19:53:56.032Z</time>
      </trkpt>
      <trkpt lat="48.84731" lon="2.34161">
        <ele>109.3</ele>
        <time>2015-05-05T19:53:57.042Z</time>
      </trkpt>
      <trkpt lat="48.84733" lon="2.34154">
        <ele>109.1</ele>
        <time>2015-05-05T19:53:58.055Z</time>
      </trkpt>
      <trkpt lat="48.84736" lon="2.34148">
        <ele>109</ele>
        <time>2015-05-05T19:53:59.059Z</time>
      </trkpt>
      <trkpt lat="48.84739" lon="2.34143">
        <ele>108.8</ele>
        <time>2015-05-05T19:54:00.078Z</time>
      </trkpt>
      <trkpt lat="48.84742" lon="2.34132">
        <ele>108.7</ele>
        <time>2015-05-05T19:54:02.018Z</time>
      </trkpt>
      <trkpt lat="48.84743" lon="2.34126">
        <ele>108.6</ele>
        <time>2015-05-05T19:54:03.047Z</time>
      </trkpt>
      <trkpt lat="48.84746" lon="2.34114">
        <ele>108.5</ele>
        <time>2015-05-05T19:54:05.083Z</time>
      </trkpt>
      <trkpt lat="48.8475" lon="2.34109">
        <ele>108.4</ele>
        <time>2015-05-05T19:54:06.063Z</time>
      </trkpt>
      <trkpt lat="48.84754" lon="2.34098">
        <ele>108.2</ele>
        <time>2015-05-05T19:54:08.024Z</time>
      </trkpt>
      <trkpt lat="48.84756" lon="2.34092">
        <ele>107.9</ele>
        <time>2015-05-05T19:54:09.091Z</time>
      </trkpt>
      <trkpt lat="48.84757" lon="2.34085">
        <ele>107.7</ele>
        <time>2015-05-05T19:54:10.119Z</time>
      </trkpt>
      <trkpt lat="48.84756" lon="2.34077">
        <ele>107.5</ele>
        <time>2015-05-05T19:54:11.011Z</time>
      </trkpt>
      <trkpt lat="48.84756" lon="2.34069">
        <ele>107.5</ele>
        <time>2015-05-05T19:54:12.028Z</time>
      </trkpt>
      <trkpt lat="48.84755" lon="2.3406">
        <ele>108.2</ele>
        <time>2015-05-05T19:54:13.062Z</time>
      </trkpt>
      <trkpt lat="48.8475" lon="2.34054">
        <ele>108.3</ele>
        <time>2015-05-05T19:54:14.074Z</time>
      </trkpt>
      <trkpt lat="48.84744" lon="2.3405">
        <ele>107.9</ele>
        <time>2015-05-05T19:54:15.080Z</time>
      </trkpt>
      <trkpt lat="48.84738" lon="2.3405">
        <ele>107.7</ele>
        <time>2015-05-05T19:54:16.133Z</time>
      </trkpt>
      <trkpt lat="48.8473" lon="2.3405">
        <ele>107.7</ele>
        <time>2015-05-05T19:54:17.049Z</time>
      </trkpt>
      <trkpt lat="48.84723" lon="2.3405">
        <ele>107.5</ele>
        <time>2015-05-05T19:54:18.071Z</time>
      </trkpt>
      <trkpt lat="48.84718" lon="2.34052">
        <ele>107.2</ele>
        <time>2015-05-05T19:54:19.082Z</time>
      </trkpt>
      <trkpt lat="48.84712" lon="2.34052">
        <ele>107.2</ele>
        <time>2015-05-05T19:54:20.096Z</time>
      </trkpt>
      <trkpt lat="48.84707" lon="2.34051">
        <ele>107.2</ele>
        <time>2015-05-05T19:54:21.105Z</time>
      </trkpt>
      <trkpt lat="48.84703" lon="2.3405">
        <ele>107.3</ele>
        <time>2015-05-05T19:54:22.112Z</time>
      </trkpt>
      <trkpt lat="48.84697" lon="2.3405">
        <ele>107.6</ele>
        <time>2015-05-05T19:54:23.126Z</time>
      </trkpt>
      <trkpt lat="48.84693" lon="2.3405">
        <ele>107.7</ele>
        <time>2015-05-05T19:54:24.047Z</time>
      </trkpt>
      <trkpt lat="48.84688" lon="2.34048">
        <ele>107.8</ele>
        <time>2015-05-05T19:54:25.050Z</time>
      </trkpt>
      <trkpt lat="48.84683" lon="2.34047">
        <ele>108.2</ele>
        <time>2015-05-05T19:54:26.056Z</time>
      </trkpt>
      <trkpt lat="48.84679" lon="2.34045">
        <ele>108.4</ele>
        <time>2015-05-05T19:54:27.066Z</time>
      </trkpt>
      <trkpt lat="48.8467" lon="2.34042">
        <ele>108.7</ele>
        <time>2015-05-05T19:54:29.039Z</time>
      </trkpt>
      <trkpt lat="48.84665" lon="2.34039">
        <ele>108.4</ele>
        <time>2015-05-05T19:54:30.063Z</time>
      </trkpt>
      <trkpt lat="48.8466" lon="2.34037">
        <ele>108.1</ele>
        <time>2015-05-05T19:54:31.031Z</time>
      </trkpt>
      <trkpt lat="48.84657" lon="2.34034">
        <ele>108.1</ele>
        <time>2015-05-05T19:54:32.028Z</time>
      </trkpt>
      <trkpt lat="48.8465" lon="2.34027">
        <ele>108.2</ele>
        <time>2015-05-05T19:54:34.063Z</time>
      </trkpt>
      <trkpt lat="48.84647" lon="2.34023">
        <ele>108.4</ele>
        <time>2015-05-05T19:54:35.078Z</time>
      </trkpt>
      <trkpt lat="48.84639" lon="2.34019">
        <ele>108.6</ele>
        <time>2015-05-05T19:54:37.033Z</time>
      </trkpt>
      <trkpt lat="48.84635" lon="2.34016">
        <ele>108.8</ele>
        <time>2015-05-05T19:54:38.045Z</time>
      </trkpt>
      <trkpt lat="48.84628" lon="2.3401">
        <ele>109.1</ele>
        <time>2015-05-05T19:54:40.115Z</time>
      </trkpt>
      <trkpt lat="48.84625" lon="2.34006">
        <ele>108.8</ele>
        <time>2015-05-05T19:54:41.062Z</time>
      </trkpt>
      <trkpt lat="48.8462" lon="2.34">
        <ele>108.4</ele>
        <time>2015-05-05T19:54:42.037Z</time>
      </trkpt>
      <trkpt lat="48.84614" lon="2.33996">
        <ele>108</ele>
        <time>2015-05-05T19:54:43.036Z</time>
      </trkpt>
      <trkpt lat="48.84609" lon="2.33994">
        <ele>107.8</ele>
        <time>2015-05-05T19:54:44.057Z</time>
      </trkpt>
      <trkpt lat="48.84604" lon="2.33991">
        <ele>107.3</ele>
        <time>2015-05-05T19:54:45.066Z</time>
      </trkpt>
      <trkpt lat="48.84599" lon="2.33988">
        <ele>107.3</ele>
        <time>2015-05-05T19:54:46.078Z</time>
      </trkpt>
      <trkpt lat="48.84593" lon="2.33986">
        <ele>107.4</ele>
        <time>2015-05-05T19:54:47.080Z</time>
      </trkpt>
      <trkpt lat="48.84587" lon="2.33984">
        <ele>107.6</ele>
        <time>2015-05-05T19:54:48.098Z</time>
      </trkpt>
      <trkpt lat="48.84582" lon="2.33982">
        <ele>107.6</ele>
        <time>2015-05-05T19:54:49.103Z</time>
      </trkpt>
      <trkpt lat="48.84576" lon="2.3398">
        <ele>107.7</ele>
        <time>2015-05-05T19:54:50.111Z</time>
      </trkpt>
      <trkpt lat="48.8457" lon="2.33978">
        <ele>107.6</ele>
        <time>2015-05-05T19:54:51.124Z</time>
      </trkpt>
      <trkpt lat="48.84564" lon="2.33975">
        <ele>107.6</ele>
        <time>2015-05-05T19:54:52.140Z</time>
      </trkpt>
      <trkpt lat="48.84559" lon="2.33972">
        <ele>107.8</ele>
        <time>2015-05-05T19:54:53.036Z</time>
      </trkpt>
      <trkpt lat="48.84554" lon="2.33969">
        <ele>107.9</ele>
        <time>2015-05-05T19:54:54.035Z</time>
      </trkpt>
      <trkpt lat="48.84549" lon="2.33966">
        <ele>108</ele>
        <time>2015-05-05T19:54:55.052Z</time>
      </trkpt>
      <trkpt lat="48.84544" lon="2.33963">
        <ele>107.9</ele>
        <time>2015-05-05T19:54:56.074Z</time>
      </trkpt>
      <trkpt lat="48.84539" lon="2.33959">
        <ele>108</ele>
        <time>2015-05-05T19:54:57.132Z</time>
      </trkpt>
      <trkpt lat="48.84535" lon="2.33956">
        <ele>108.3</ele>
        <time>2015-05-05T19:54:58.160Z</time>
      </trkpt>
      <trkpt lat="48.8453" lon="2.33953">
        <ele>108.4</ele>
        <time>2015-05-05T19:54:59.029Z</time>
      </trkpt>
      <trkpt lat="48.84525" lon="2.33951">
        <ele>108.6</ele>
        <time>2015-05-05T19:55:00.037Z</time>
      </trkpt>
      <trkpt lat="48.84521" lon="2.33948">
        <ele>108.6</ele>
        <time>2015-05-05T19:55:01.057Z</time>
      </trkpt>
      <trkpt lat="48.84516" lon="2.33945">
        <ele>108.6</ele>
        <time>2015-05-05T19:55:02.081Z</time>
      </trkpt>
      <trkpt lat="48.84512" lon="2.33943">
        <ele>108.4</ele>
        <time>2015-05-05T19:55:03.098Z</time>
      </trkpt>
      <trkpt lat="48.84507" lon="2.33941">
        <ele>108.5</ele>
        <time>2015-05-05T19:55:04.128Z</time>
      </trkpt>
      <trkpt lat="48.84503" lon="2.33938">
        <ele>108.7</ele>
        <time>2015-05-05T19:55:05.035Z</time>
      </trkpt>
      <trkpt lat="48.84498" lon="2.33937">
        <ele>108.9</ele>
        <time>2015-05-05T19:55:06.063Z</time>
      </trkpt>
      <trkpt lat="48.84492" lon="2.3394">
        <ele>109.6</ele>
        <time>2015-05-05T19:55:07.069Z</time>
      </trkpt>
      <trkpt lat="48.84486" lon="2.33942">
        <ele>109.9</ele>
        <time>2015-05-05T19:55:08.129Z</time>
      </trkpt>
      <trkpt lat="48.84481" lon="2.3394">
        <ele>109.9</ele>
        <time>2015-05-05T19:55:09.130Z</time>
      </trkpt>
      <trkpt lat="48.84473" lon="2.33937">
        <ele>109.9</ele>
        <time>2015-05-05T19:55:11.034Z</time>
      </trkpt>
      <trkpt lat="48.84468" lon="2.33937">
        <ele>110</ele>
        <time>2015-05-05T19:55:12.058Z</time>
      </trkpt>
      <trkpt lat="48.84463" lon="2.33936">
        <ele>110</ele>
        <time>2015-05-05T19:55:13.095Z</time>
      </trkpt>
      <trkpt lat="48.84458" lon="2.33934">
        <ele>110.1</ele>
        <time>2015-05-05T19:55:14.104Z</time>
      </trkpt>
      <trkpt lat="48.84454" lon="2.33931">
        <ele>110.2</ele>
        <time>2015-05-05T19:55:15.120Z</time>
      </trkpt>
      <trkpt lat="48.8445" lon="2.33927">
        <ele>110.5</ele>
        <time>2015-05-05T19:55:16.129Z</time>
      </trkpt>
      <trkpt lat="48.84442" lon="2.33922">
        <ele>110.2</ele>
        <time>2015-05-05T19:55:18.061Z</time>
      </trkpt>
      <trkpt lat="48.84438" lon="2.3392">
        <ele>110.4</ele>
        <time>2015-05-05T19:55:19.077Z</time>
      </trkpt>
      <trkpt lat="48.84431" lon="2.33914">
        <ele>110.4</ele>
        <time>2015-05-05T19:55:21.061Z</time>
      </trkpt>
      <trkpt lat="48.84427" lon="2.33911">
        <ele>110.3</ele>
        <time>2015-05-05T19:55:22.078Z</time>
      </trkpt>
      <trkpt lat="48.8442" lon="2.33904">
        <ele>110.4</ele>
        <time>2015-05-05T19:55:24.098Z</time>
      </trkpt>
      <trkpt lat="48.84416" lon="2.33901">
        <ele>110.6</ele>
        <time>2015-05-05T19:55:25.112Z</time>
      </trkpt>
      <trkpt lat="48.84412" lon="2.33898">
        <ele>110.7</ele>
        <time>2015-05-05T19:55:24.876Z</time>
      </trkpt>
      <trkpt lat="48.84408" lon="2.33895">
        <ele>110.7</ele>
        <time>2015-05-05T19:55:27.046Z</time>
      </trkpt>
      <trkpt lat="48.84403" lon="2.33891">
        <ele>110.5</ele>
        <time>2015-05-05T19:55:28.294Z</time>
      </trkpt>
      <trkpt lat="48.84399" lon="2.33888">
        <ele>110.4</ele>
        <time>2015-05-05T19:55:29.173Z</time>
      </trkpt>
      <trkpt lat="48.84394" lon="2.33884">
        <ele>110.2</ele>
        <time>2015-05-05T19:55:30.066Z</time>
      </trkpt>
      <trkpt lat="48.84389" lon="2.33881">
        <ele>110.1</ele>
        <time>2015-05-05T19:55:31.081Z</time>
      </trkpt>
      <trkpt lat="48.84384" lon="2.33878">
        <ele>110</ele>
        <time>2015-05-05T19:55:32.086Z</time>
      </trkpt>
      <trkpt lat="48.84379" lon="2.33875">
        <ele>110</ele>
        <time>2015-05-05T19:55:33.102Z</time>
      </trkpt>
      <trkpt lat="48.84372" lon="2.33869">
        <ele>110</ele>
        <time>2015-05-05T19:55:35.101Z</time>
      </trkpt>
      <trkpt lat="48.84368" lon="2.33866">
        <ele>110.2</ele>
        <time>2015-05-05T19:55:36.113Z</time>
      </trkpt>
      <trkpt lat="48.84361" lon="2.33861">
        <ele>110.3</ele>
        <time>2015-05-05T19:55:38.057Z</time>
      </trkpt>
      <trkpt lat="48.84357" lon="2.33858">
        <ele>110.4</ele>
        <time>2015-05-05T19:55:39.081Z</time>
      </trkpt>
      <trkpt lat="48.84352" lon="2.33855">
        <ele>110.4</ele>
        <time>2015-05-05T19:55:40.108Z</time>
      </trkpt>
      <trkpt lat="48.84347" lon="2.33851">
        <ele>110.2</ele>
        <time>2015-05-05T19:55:41.115Z</time>
      </trkpt>
      <trkpt lat="48.8434" lon="2.3385">
        <ele>110.2</ele>
        <time>2015-05-05T19:55:42.032Z</time>
      </trkpt>
      <trkpt lat="48.84334" lon="2.33851">
        <ele>110.3</ele>
        <time>2015-05-05T19:55:43.070Z</time>
      </trkpt>
      <trkpt lat="48.84328" lon="2.3385">
        <ele>110.3</ele>
        <time>2015-05-05T19:55:44.079Z</time>
      </trkpt>
      <trkpt lat="48.84324" lon="2.33848">
        <ele>110.2</ele>
        <time>2015-05-05T19:55:45.090Z</time>
      </trkpt>
      <trkpt lat="48.84319" lon="2.33847">
        <ele>110.3</ele>
        <time>2015-05-05T19:55:46.113Z</time>
      </trkpt>
      <trkpt lat="48.84314" lon="2.33843">
        <ele>110.2</ele>
        <time>2015-05-05T19:55:47.122Z</time>
      </trkpt>
      <trkpt lat="48.8431" lon="2.33838">
        <ele>110.2</ele>
        <time>2015-05-05T19:55:48.042Z</time>
      </trkpt>
      <trkpt lat="48.84305" lon="2.33834">
        <ele>110.3</ele>
        <time>2015-05-05T19:55:49.006Z</time>
      </trkpt>
      <trkpt lat="48.843" lon="2.3383">
        <ele>110.2</ele>
        <time>2015-05-05T19:55:48.957Z</time>
      </trkpt>
      <trkpt lat="48.84295" lon="2.33826">
        <ele>110.4</ele>
        <time>2015-05-05T19:55:51.068Z</time>
      </trkpt>
      <trkpt lat="48.84291" lon="2.33823">
        <ele>110.3</ele>
        <time>2015-05-05T19:55:52.096Z</time>
      </trkpt>
      <trkpt lat="48.84286" lon="2.33819">
        <ele>110.3</ele>
        <time>2015-05-05T19:55:53.013Z</time>
      </trkpt>
      <trkpt lat="48.8428" lon="2.33815">
        <ele>110.5</ele>
        <time>2015-05-05T19:55:54.068Z</time>
      </trkpt>
      <trkpt lat="48.84275" lon="2.33812">
        <ele>110.4</ele>
        <time>2015-05-05T19:55:55.092Z</time>
      </trkpt>
      <trkpt lat="48.84271" lon="2.33808">
        <ele>110.3</ele>
        <time>2015-05-05T19:55:56.111Z</time>
      </trkpt>
      <trkpt lat="48.84267" lon="2.33803">
        <ele>110.1</ele>
        <time>2015-05-05T19:55:57.126Z</time>
      </trkpt>
      <trkpt lat="48.84263" lon="2.33797">
        <ele>110.2</ele>
        <time>2015-05-05T19:55:58.154Z</time>
      </trkpt>
      <trkpt lat="48.84258" lon="2.33794">
        <ele>110.4</ele>
        <time>2015-05-05T19:55:59.033Z</time>
      </trkpt>
      <trkpt lat="48.84253" lon="2.33792">
        <ele>110.7</ele>
        <time>2015-05-05T19:56:00.064Z</time>
      </trkpt>
      <trkpt lat="48.84249" lon="2.3379">
        <ele>110.7</ele>
        <time>2015-05-05T19:56:01.075Z</time>
      </trkpt>
      <trkpt lat="48.84244" lon="2.33789">
        <ele>110.9</ele>
        <time>2015-05-05T19:56:02.128Z</time>
      </trkpt>
      <trkpt lat="48.8424" lon="2.33785">
        <ele>111.1</ele>
        <time>2015-05-05T19:56:03.039Z</time>
      </trkpt>
      <trkpt lat="48.84236" lon="2.33782">
        <ele>111.2</ele>
        <time>2015-05-05T19:56:04.076Z</time>
      </trkpt>
      <trkpt lat="48.84232" lon="2.33778">
        <ele>111.2</ele>
        <time>2015-05-05T19:56:05.094Z</time>
      </trkpt>
      <trkpt lat="48.84225" lon="2.33773">
        <ele>111.2</ele>
        <time>2015-05-05T19:56:07.043Z</time>
      </trkpt>
      <trkpt lat="48.84221" lon="2.3377">
        <ele>111</ele>
        <time>2015-05-05T19:56:08.063Z</time>
      </trkpt>
      <trkpt lat="48.84213" lon="2.33766">
        <ele>111</ele>
        <time>2015-05-05T19:56:10.083Z</time>
      </trkpt>
      <trkpt lat="48.84209" lon="2.33763">
        <ele>110.9</ele>
        <time>2015-05-05T19:56:11.107Z</time>
      </trkpt>
      <trkpt lat="48.84205" lon="2.3376">
        <ele>110.9</ele>
        <time>2015-05-05T19:56:12.026Z</time>
      </trkpt>
      <trkpt lat="48.84201" lon="2.33757">
        <ele>110.7</ele>
        <time>2015-05-05T19:56:13.051Z</time>
      </trkpt>
      <trkpt lat="48.84195" lon="2.33756">
        <ele>110.6</ele>
        <time>2015-05-05T19:56:14.050Z</time>
      </trkpt>
      <trkpt lat="48.8419" lon="2.33754">
        <ele>110.9</ele>
        <time>2015-05-05T19:56:15.050Z</time>
      </trkpt>
      <trkpt lat="48.84185" lon="2.3375">
        <ele>111</ele>
        <time>2015-05-05T19:56:16.083Z</time>
      </trkpt>
      <trkpt lat="48.8418" lon="2.33747">
        <ele>110.8</ele>
        <time>2015-05-05T19:56:17.089Z</time>
      </trkpt>
      <trkpt lat="48.84174" lon="2.33744">
        <ele>111</ele>
        <time>2015-05-05T19:56:18.039Z</time>
      </trkpt>
      <trkpt lat="48.84168" lon="2.33742">
        <ele>111.2</ele>
        <time>2015-05-05T19:56:19.031Z</time>
      </trkpt>
      <trkpt lat="48.84161" lon="2.3374">
        <ele>111.3</ele>
        <time>2015-05-05T19:56:20.041Z</time>
      </trkpt>
      <trkpt lat="48.84154" lon="2.33738">
        <ele>111.6</ele>
        <time>2015-05-05T19:56:21.053Z</time>
      </trkpt>
      <trkpt lat="48.84147" lon="2.33737">
        <ele>111.8</ele>
        <time>2015-05-05T19:56:22.097Z</time>
      </trkpt>
      <trkpt lat="48.8414" lon="2.33737">
        <ele>112.1</ele>
        <time>2015-05-05T19:56:23.101Z</time>
      </trkpt>
      <trkpt lat="48.84133" lon="2.33736">
        <ele>112.4</ele>
        <time>2015-05-05T19:56:24.044Z</time>
      </trkpt>
      <trkpt lat="48.84127" lon="2.33734">
        <ele>112.7</ele>
        <time>2015-05-05T19:56:25.029Z</time>
      </trkpt>
      <trkpt lat="48.84121" lon="2.33732">
        <ele>113</ele>
        <time>2015-05-05T19:56:26.057Z</time>
      </trkpt>
      <trkpt lat="48.84114" lon="2.33731">
        <ele>113.5</ele>
        <time>2015-05-05T19:56:27.141Z</time>
      </trkpt>
      <trkpt lat="48.84108" lon="2.33729">
        <ele>114.1</ele>
        <time>2015-05-05T19:56:28.078Z</time>
      </trkpt>
      <trkpt lat="48.84101" lon="2.33727">
        <ele>114.4</ele>
        <time>2015-05-05T19:56:29.082Z</time>
      </trkpt>
      <trkpt lat="48.84096" lon="2.33725">
        <ele>114.6</ele>
        <time>2015-05-05T19:56:30.091Z</time>
      </trkpt>
      <trkpt lat="48.8409" lon="2.33721">
        <ele>114.8</ele>
        <time>2015-05-05T19:56:31.102Z</time>
      </trkpt>
      <trkpt lat="48.84086" lon="2.33716">
        <ele>115.2</ele>
        <time>2015-05-05T19:56:32.109Z</time>
      </trkpt>
      <trkpt lat="48.8408" lon="2.33712">
        <ele>115.3</ele>
        <time>2015-05-05T19:56:33.035Z</time>
      </trkpt>
      <trkpt lat="48.84075" lon="2.33707">
        <ele>115.3</ele>
        <time>2015-05-05T19:56:34.144Z</time>
      </trkpt>
      <trkpt lat="48.8407" lon="2.33703">
        <ele>115.6</ele>
        <time>2015-05-05T19:56:35.044Z</time>
      </trkpt>
      <trkpt lat="48.84066" lon="2.33697">
        <ele>115.6</ele>
        <time>2015-05-05T19:56:36.058Z</time>
      </trkpt>
      <trkpt lat="48.84061" lon="2.33692">
        <ele>115.6</ele>
        <time>2015-05-05T19:56:37.066Z</time>
      </trkpt>
      <trkpt lat="48.84057" lon="2.33688">
        <ele>115.7</ele>
        <time>2015-05-05T19:56:38.080Z</time>
      </trkpt>
      <trkpt lat="48.84053" lon="2.33683">
        <ele>115.7</ele>
        <time>2015-05-05T19:56:39.097Z</time>
      </trkpt>
      <trkpt lat="48.84048" lon="2.33679">
        <ele>115.7</ele>
        <time>2015-05-05T19:56:40.101Z</time>
      </trkpt>
      <trkpt lat="48.84044" lon="2.33675">
        <ele>115.9</ele>
        <time>2015-05-05T19:56:41.112Z</time>
      </trkpt>
      <trkpt lat="48.8404" lon="2.33671">
        <ele>115.8</ele>
        <time>2015-05-05T19:56:42.112Z</time>
      </trkpt>
      <trkpt lat="48.84035" lon="2.33668">
        <ele>116</ele>
        <time>2015-05-05T19:56:43.136Z</time>
      </trkpt>
      <trkpt lat="48.84027" lon="2.33665">
        <ele>115.9</ele>
        <time>2015-05-05T19:56:45.073Z</time>
      </trkpt>
      <trkpt lat="48.84023" lon="2.33663">
        <ele>115.7</ele>
        <time>2015-05-05T19:56:46.144Z</time>
      </trkpt>
      <trkpt lat="48.84018" lon="2.33661">
        <ele>115.8</ele>
        <time>2015-05-05T19:56:47.115Z</time>
      </trkpt>
      <trkpt lat="48.84014" lon="2.33659">
        <ele>115.8</ele>
        <time>2015-05-05T19:56:48.124Z</time>
      </trkpt>
      <trkpt lat="48.84005" lon="2.33658">
        <ele>115.7</ele>
        <time>2015-05-05T19:56:50.105Z</time>
      </trkpt>
      <trkpt lat="48.84001" lon="2.33659">
        <ele>115.2</ele>
        <time>2015-05-05T19:56:51.147Z</time>
      </trkpt>
      <trkpt lat="48.83994" lon="2.33658">
        <ele>115.5</ele>
        <time>2015-05-05T19:56:53.045Z</time>
      </trkpt>
      <trkpt lat="48.83991" lon="2.33655">
        <ele>115.7</ele>
        <time>2015-05-05T19:56:54.136Z</time>
      </trkpt>
      <trkpt lat="48.83986" lon="2.33648">
        <ele>116</ele>
        <time>2015-05-05T19:56:56.058Z</time>
      </trkpt>
      <trkpt lat="48.83984" lon="2.33643">
        <ele>115.8</ele>
        <time>2015-05-05T19:56:57.080Z</time>
      </trkpt>
      <trkpt lat="48.83982" lon="2.33632">
        <ele>115.2</ele>
        <time>2015-05-05T19:56:59.110Z</time>
      </trkpt>
      <trkpt lat="48.83982" lon="2.33628">
        <ele>115.1</ele>
        <time>2015-05-05T19:57:00.059Z</time>
      </trkpt>
      <trkpt lat="48.83982" lon="2.33619">
        <ele>114.9</ele>
        <time>2015-05-05T19:57:02.093Z</time>
      </trkpt>
      <trkpt lat="48.83982" lon="2.33614">
        <ele>114.9</ele>
        <time>2015-05-05T19:57:03.109Z</time>
      </trkpt>
      <trkpt lat="48.83984" lon="2.33604">
        <ele>114.7</ele>
        <time>2015-05-05T19:57:05.076Z</time>
      </trkpt>
      <trkpt lat="48.83984" lon="2.33599">
        <ele>114.5</ele>
        <time>2015-05-05T19:57:06.071Z</time>
      </trkpt>
      <trkpt lat="48.83988" lon="2.33587">
        <ele>113.9</ele>
        <time>2015-05-05T19:57:09.108Z</time>
      </trkpt>
      <trkpt lat="48.83989" lon="2.33583">
        <ele>113.6</ele>
        <time>2015-05-05T19:57:10.120Z</time>
      </trkpt>
      <trkpt lat="48.83992" lon="2.33575">
        <ele>113.2</ele>
        <time>2015-05-05T19:57:12.058Z</time>
      </trkpt>
      <trkpt lat="48.83992" lon="2.3357">
        <ele>113</ele>
        <time>2015-05-05T19:57:13.064Z</time>
      </trkpt>
      <trkpt lat="48.83997" lon="2.33561">
        <ele>112.9</ele>
        <time>2015-05-05T19:57:15.127Z</time>
      </trkpt>
      <trkpt lat="48.84" lon="2.33556">
        <ele>112.7</ele>
        <time>2015-05-05T19:57:16.163Z</time>
      </trkpt>
      <trkpt lat="48.84004" lon="2.33545">
        <ele>112.5</ele>
        <time>2015-05-05T19:57:18.038Z</time>
      </trkpt>
      <trkpt lat="48.84006" lon="2.3354">
        <ele>112.5</ele>
        <time>2015-05-05T19:57:19.080Z</time>
      </trkpt>
      <trkpt lat="48.84008" lon="2.33527">
        <ele>112.4</ele>
        <time>2015-05-05T19:57:21.090Z</time>
      </trkpt>
      <trkpt lat="48.84009" lon="2.33521">
        <ele>112.3</ele>
        <time>2015-05-05T19:57:22.162Z</time>
      </trkpt>
      <trkpt lat="48.8401" lon="2.33508">
        <ele>112.1</ele>
        <time>2015-05-05T19:57:24.088Z</time>
      </trkpt>
      <trkpt lat="48.8401" lon="2.33501">
        <ele>111.9</ele>
        <time>2015-05-05T19:57:25.156Z</time>
      </trkpt>
      <trkpt lat="48.84011" lon="2.33488">
        <ele>111.8</ele>
        <time>2015-05-05T19:57:27.047Z</time>
      </trkpt>
      <trkpt lat="48.84014" lon="2.33484">
        <ele>111.5</ele>
        <time>2015-05-05T19:57:28.161Z</time>
      </trkpt>
      <trkpt lat="48.84018" lon="2.33473">
        <ele>111.3</ele>
        <time>2015-05-05T19:57:30.037Z</time>
      </trkpt>
      <trkpt lat="48.84021" lon="2.33468">
        <ele>111.1</ele>
        <time>2015-05-05T19:57:31.100Z</time>
      </trkpt>
      <trkpt lat="48.84022" lon="2.33462">
        <ele>110.9</ele>
        <time>2015-05-05T19:57:32.121Z</time>
      </trkpt>
      <trkpt lat="48.84024" lon="2.33455">
        <ele>110.9</ele>
        <time>2015-05-05T19:57:33.139Z</time>
      </trkpt>
      <trkpt lat="48.84029" lon="2.33444">
        <ele>110.5</ele>
        <time>2015-05-05T19:57:35.041Z</time>
      </trkpt>
      <trkpt lat="48.8403" lon="2.33438">
        <ele>110.3</ele>
        <time>2015-05-05T19:57:36.079Z</time>
      </trkpt>
      <trkpt lat="48.84036" lon="2.33429">
        <ele>109.9</ele>
        <time>2015-05-05T19:57:38.052Z</time>
      </trkpt>
      <trkpt lat="48.84038" lon="2.33424">
        <ele>109.7</ele>
        <time>2015-05-05T19:57:39.142Z</time>
      </trkpt>
      <trkpt lat="48.84044" lon="2.33415">
        <ele>109.4</ele>
        <time>2015-05-05T19:57:41.059Z</time>
      </trkpt>
      <trkpt lat="48.84047" lon="2.3341">
        <ele>109.4</ele>
        <time>2015-05-05T19:57:42.076Z</time>
      </trkpt>
      <trkpt lat="48.84053" lon="2.33401">
        <ele>109.3</ele>
        <time>2015-05-05T19:57:44.056Z</time>
      </trkpt>
      <trkpt lat="48.84057" lon="2.33397">
        <ele>109.2</ele>
        <time>2015-05-05T19:57:45.111Z</time>
      </trkpt>
      <trkpt lat="48.8406" lon="2.33392">
        <ele>109</ele>
        <time>2015-05-05T19:57:46.092Z</time>
      </trkpt>
      <trkpt lat="48.84064" lon="2.33387">
        <ele>109</ele>
        <time>2015-05-05T19:57:47.091Z</time>
      </trkpt>
      <trkpt lat="48.84067" lon="2.33382">
        <ele>109</ele>
        <time>2015-05-05T19:57:48.108Z</time>
      </trkpt>
      <trkpt lat="48.84071" lon="2.33378">
        <ele>108.9</ele>
        <time>2015-05-05T19:57:49.027Z</time>
      </trkpt>
      <trkpt lat="48.84075" lon="2.33372">
        <ele>108.6</ele>
        <time>2015-05-05T19:57:50.044Z</time>
      </trkpt>
      <trkpt lat="48.84079" lon="2.33366">
        <ele>108.6</ele>
        <time>2015-05-05T19:57:51.070Z</time>
      </trkpt>
      <trkpt lat="48.84084" lon="2.33361">
        <ele>108.4</ele>
        <time>2015-05-05T19:57:52.101Z</time>
      </trkpt>
      <trkpt lat="48.84089" lon="2.33356">
        <ele>108.2</ele>
        <time>2015-05-05T19:57:53.115Z</time>
      </trkpt>
      <trkpt lat="48.84093" lon="2.3335">
        <ele>108</ele>
        <time>2015-05-05T19:57:54.127Z</time>
      </trkpt>
      <trkpt lat="48.84097" lon="2.33345">
        <ele>107.9</ele>
        <time>2015-05-05T19:57:54.998Z</time>
      </trkpt>
      <trkpt lat="48.841" lon="2.33339">
        <ele>107.7</ele>
        <time>2015-05-05T19:57:56.043Z</time>
      </trkpt>
      <trkpt lat="48.84103" lon="2.33332">
        <ele>107.6</ele>
        <time>2015-05-05T19:57:57.079Z</time>
      </trkpt>
      <trkpt lat="48.84107" lon="2.33324">
        <ele>107.4</ele>
        <time>2015-05-05T19:57:58.042Z</time>
      </trkpt>
      <trkpt lat="48.84109" lon="2.33317">
        <ele>107.2</ele>
        <time>2015-05-05T19:57:59.061Z</time>
      </trkpt>
      <trkpt lat="48.84113" lon="2.33309">
        <ele>107.1</ele>
        <time>2015-05-05T19:58:00.082Z</time>
      </trkpt>
      <trkpt lat="48.84118" lon="2.33301">
        <ele>107</ele>
        <time>2015-05-05T19:58:01.074Z</time>
      </trkpt>
      <trkpt lat="48.84122" lon="2.33293">
        <ele>106.9</ele>
        <time>2015-05-05T19:58:02.086Z</time>
      </trkpt>
      <trkpt lat="48.84126" lon="2.33284">
        <ele>107.4</ele>
        <time>2015-05-05T19:58:03.019Z</time>
      </trkpt>
      <trkpt lat="48.84129" lon="2.33273">
        <ele>107.8</ele>
        <time>2015-05-05T19:58:04.108Z</time>
      </trkpt>
      <trkpt lat="48.84132" lon="2.33262">
        <ele>108.1</ele>
        <time>2015-05-05T19:58:05.050Z</time>
      </trkpt>
      <trkpt lat="48.84136" lon="2.33252">
        <ele>108.1</ele>
        <time>2015-05-05T19:58:06.081Z</time>
      </trkpt>
      <trkpt lat="48.84139" lon="2.3324">
        <ele>108.7</ele>
        <time>2015-05-05T19:58:07.135Z</time>
      </trkpt>
      <trkpt lat="48.84144" lon="2.3323">
        <ele>109</ele>
        <time>2015-05-05T19:58:08.003Z</time>
      </trkpt>
      <trkpt lat="48.84148" lon="2.33219">
        <ele>108.9</ele>
        <time>2015-05-05T19:58:09.063Z</time>
      </trkpt>
      <trkpt lat="48.84152" lon="2.33209">
        <ele>109</ele>
        <time>2015-05-05T19:58:10.216Z</time>
      </trkpt>
      <trkpt lat="48.84156" lon="2.33195">
        <ele>108.8</ele>
        <time>2015-05-05T19:58:11.033Z</time>
      </trkpt>
      <trkpt lat="48.84159" lon="2.33184">
        <ele>108.5</ele>
        <time>2015-05-05T19:58:12.039Z</time>
      </trkpt>
      <trkpt lat="48.84161" lon="2.3317">
        <ele>108.8</ele>
        <time>2015-05-05T19:58:13.053Z</time>
      </trkpt>
      <trkpt lat="48.84161" lon="2.33157">
        <ele>109.3</ele>
        <time>2015-05-05T19:58:14.033Z</time>
      </trkpt>
      <trkpt lat="48.84161" lon="2.33143">
        <ele>109.4</ele>
        <time>2015-05-05T19:58:15.019Z</time>
      </trkpt>
      <trkpt lat="48.84164" lon="2.33131">
        <ele>109.1</ele>
        <time>2015-05-05T19:58:16.062Z</time>
      </trkpt>
      <trkpt lat="48.84166" lon="2.33118">
        <ele>109.1</ele>
        <time>2015-05-05T19:58:17.068Z</time>
      </trkpt>
      <trkpt lat="48.84168" lon="2.33106">
        <ele>109</ele>
        <time>2015-05-05T19:58:18.080Z</time>
      </trkpt>
      <trkpt lat="48.8417" lon="2.33093">
        <ele>109</ele>
        <time>2015-05-05T19:58:19.091Z</time>
      </trkpt>
      <trkpt lat="48.84171" lon="2.33082">
        <ele>108.9</ele>
        <time>2015-05-05T19:58:20.100Z</time>
      </trkpt>
      <trkpt lat="48.8417" lon="2.33069">
        <ele>108.9</ele>
        <time>2015-05-05T19:58:21.097Z</time>
      </trkpt>
      <trkpt lat="48.84172" lon="2.33059">
        <ele>108.3</ele>
        <time>2015-05-05T19:58:22.126Z</time>
      </trkpt>
      <trkpt lat="48.84173" lon="2.33048">
        <ele>107.8</ele>
        <time>2015-05-05T19:58:23.011Z</time>
      </trkpt>
      <trkpt lat="48.84175" lon="2.33038">
        <ele>107.1</ele>
        <time>2015-05-05T19:58:24.042Z</time>
      </trkpt>
      <trkpt lat="48.84173" lon="2.33028">
        <ele>107.1</ele>
        <time>2015-05-05T19:58:25.067Z</time>
      </trkpt>
      <trkpt lat="48.84173" lon="2.33018">
        <ele>106.5</ele>
        <time>2015-05-05T19:58:26.100Z</time>
      </trkpt>
      <trkpt lat="48.84173" lon="2.33009">
        <ele>106.5</ele>
        <time>2015-05-05T19:58:27.014Z</time>
      </trkpt>
      <trkpt lat="48.84172" lon="2.33">
        <ele>106</ele>
        <time>2015-05-05T19:58:28.120Z</time>
      </trkpt>
      <trkpt lat="48.84173" lon="2.32994">
        <ele>106.4</ele>
        <time>2015-05-05T19:58:29.020Z</time>
      </trkpt>
      <trkpt lat="48.84173" lon="2.32983">
        <ele>104.4</ele>
        <time>2015-05-05T19:58:31.033Z</time>
      </trkpt>
      <trkpt lat="48.84174" lon="2.32979">
        <ele>104</ele>
        <time>2015-05-05T19:58:32.067Z</time>
      </trkpt>
      <trkpt lat="48.84181" lon="2.3298">
        <ele>105.8</ele>
        <time>2015-05-05T19:58:35.047Z</time>
      </trkpt>
      <trkpt lat="48.84184" lon="2.32983">
        <ele>106</ele>
        <time>2015-05-05T19:58:36.043Z</time>
      </trkpt>
      <trkpt lat="48.84188" lon="2.32973">
        <ele>107</ele>
        <time>2015-05-05T19:58:41.252Z</time>
      </trkpt>
      <trkpt lat="48.8419" lon="2.32969">
        <ele>107.1</ele>
        <time>2015-05-05T19:58:42.089Z</time>
      </trkpt>
      <trkpt lat="48.84195" lon="2.32961">
        <ele>106.7</ele>
        <time>2015-05-05T19:58:44.106Z</time>
      </trkpt>
      <trkpt lat="48.84197" lon="2.32958">
        <ele>106.2</ele>
        <time>2015-05-05T19:58:45.044Z</time>
      </trkpt>
      <trkpt lat="48.84199" lon="2.32948">
        <ele>106.6</ele>
        <time>2015-05-05T19:58:47.022Z</time>
      </trkpt>
      <trkpt lat="48.842" lon="2.32942">
        <ele>107.1</ele>
        <time>2015-05-05T19:58:48.033Z</time>
      </trkpt>
      <trkpt lat="48.84204" lon="2.32931">
        <ele>106.8</ele>
        <time>2015-05-05T19:58:50.074Z</time>
      </trkpt>
      <trkpt lat="48.84207" lon="2.32926">
        <ele>106.7</ele>
        <time>2015-05-05T19:58:51.086Z</time>
      </trkpt>
      <trkpt lat="48.84209" lon="2.32921">
        <ele>106.6</ele>
        <time>2015-05-05T19:58:52.107Z</time>
      </trkpt>
      <trkpt lat="48.84212" lon="2.32914">
        <ele>106.9</ele>
        <time>2015-05-05T19:58:53.139Z</time>
      </trkpt>
      <trkpt lat="48.84214" lon="2.32908">
        <ele>107.3</ele>
        <time>2015-05-05T19:58:54.047Z</time>
      </trkpt>
      <trkpt lat="48.84216" lon="2.32901">
        <ele>107.8</ele>
        <time>2015-05-05T19:58:55.171Z</time>
      </trkpt>
      <trkpt lat="48.84218" lon="2.32894">
        <ele>107.7</ele>
        <time>2015-05-05T19:58:56.080Z</time>
      </trkpt>
      <trkpt lat="48.8422" lon="2.32888">
        <ele>107.7</ele>
        <time>2015-05-05T19:58:57.091Z</time>
      </trkpt>
      <trkpt lat="48.84219" lon="2.3288">
        <ele>107.6</ele>
        <time>2015-05-05T19:58:58.113Z</time>
      </trkpt>
      <trkpt lat="48.8422" lon="2.32872">
        <ele>107.4</ele>
        <time>2015-05-05T19:58:59.029Z</time>
      </trkpt>
      <trkpt lat="48.84218" lon="2.32863">
        <ele>107.5</ele>
        <time>2015-05-05T19:59:00.046Z</time>
      </trkpt>
      <trkpt lat="48.8422" lon="2.32857">
        <ele>107.3</ele>
        <time>2015-05-05T19:59:01.060Z</time>
      </trkpt>
      <trkpt lat="48.84222" lon="2.3285">
        <ele>107.3</ele>
        <time>2015-05-05T19:59:02.083Z</time>
      </trkpt>
      <trkpt lat="48.84224" lon="2.32843">
        <ele>107.1</ele>
        <time>2015-05-05T19:59:03.097Z</time>
      </trkpt>
      <trkpt lat="48.84227" lon="2.32835">
        <ele>106.9</ele>
        <time>2015-05-05T19:59:04.126Z</time>
      </trkpt>
      <trkpt lat="48.8423" lon="2.32828">
        <ele>106.5</ele>
        <time>2015-05-05T19:59:05.049Z</time>
      </trkpt>
      <trkpt lat="48.84233" lon="2.3282">
        <ele>106.3</ele>
        <time>2015-05-05T19:59:06.077Z</time>
      </trkpt>
      <trkpt lat="48.84237" lon="2.32813">
        <ele>106.4</ele>
        <time>2015-05-05T19:59:07.100Z</time>
      </trkpt>
      <trkpt lat="48.84242" lon="2.32806">
        <ele>105.8</ele>
        <time>2015-05-05T19:59:08.022Z</time>
      </trkpt>
      <trkpt lat="48.84246" lon="2.32798">
        <ele>105.8</ele>
        <time>2015-05-05T19:59:09.021Z</time>
      </trkpt>
      <trkpt lat="48.8425" lon="2.32792">
        <ele>105.6</ele>
        <time>2015-05-05T19:59:10.073Z</time>
      </trkpt>
      <trkpt lat="48.84254" lon="2.32786">
        <ele>105.4</ele>
        <time>2015-05-05T19:59:11.069Z</time>
      </trkpt>
      <trkpt lat="48.84258" lon="2.32779">
        <ele>105.1</ele>
        <time>2015-05-05T19:59:12.076Z</time>
      </trkpt>
      <trkpt lat="48.84262" lon="2.32772">
        <ele>104.8</ele>
        <time>2015-05-05T19:59:13.095Z</time>
      </trkpt>
      <trkpt lat="48.84265" lon="2.32765">
        <ele>104.6</ele>
        <time>2015-05-05T19:59:14.013Z</time>
      </trkpt>
      <trkpt lat="48.84268" lon="2.32757">
        <ele>104.7</ele>
        <time>2015-05-05T19:59:15.024Z</time>
      </trkpt>
      <trkpt lat="48.84271" lon="2.32749">
        <ele>104.5</ele>
        <time>2015-05-05T19:59:16.036Z</time>
      </trkpt>
      <trkpt lat="48.84274" lon="2.3274">
        <ele>104</ele>
        <time>2015-05-05T19:59:17.053Z</time>
      </trkpt>
      <trkpt lat="48.84278" lon="2.32733">
        <ele>103.8</ele>
        <time>2015-05-05T19:59:18.076Z</time>
      </trkpt>
      <trkpt lat="48.84282" lon="2.32726">
        <ele>103.7</ele>
        <time>2015-05-05T19:59:19.079Z</time>
      </trkpt>
      <trkpt lat="48.84284" lon="2.32718">
        <ele>103.6</ele>
        <time>2015-05-05T19:59:20.013Z</time>
      </trkpt>
      <trkpt lat="48.84286" lon="2.3271">
        <ele>103.6</ele>
        <time>2015-05-05T19:59:21.012Z</time>
      </trkpt>
      <trkpt lat="48.84287" lon="2.32701">
        <ele>103.5</ele>
        <time>2015-05-05T19:59:22.066Z</time>
      </trkpt>
      <trkpt lat="48.84289" lon="2.32693">
        <ele>103.4</ele>
        <time>2015-05-05T19:59:23.067Z</time>
      </trkpt>
      <trkpt lat="48.84291" lon="2.32686">
        <ele>103</ele>
        <time>2015-05-05T19:59:24.079Z</time>
      </trkpt>
      <trkpt lat="48.84293" lon="2.32678">
        <ele>103</ele>
        <time>2015-05-05T19:59:25.089Z</time>
      </trkpt>
      <trkpt lat="48.84297" lon="2.32671">
        <ele>102.9</ele>
        <time>2015-05-05T19:59:26.109Z</time>
      </trkpt>
      <trkpt lat="48.843" lon="2.32665">
        <ele>102.8</ele>
        <time>2015-05-05T19:59:27.116Z</time>
      </trkpt>
      <trkpt lat="48.84304" lon="2.32659">
        <ele>102.7</ele>
        <time>2015-05-05T19:59:28.139Z</time>
      </trkpt>
      <trkpt lat="48.84309" lon="2.32654">
        <ele>102.3</ele>
        <time>2015-05-05T19:59:29.019Z</time>
      </trkpt>
      <trkpt lat="48.84313" lon="2.32648">
        <ele>101.9</ele>
        <time>2015-05-05T19:59:30.023Z</time>
      </trkpt>
      <trkpt lat="48.84315" lon="2.32641">
        <ele>101.7</ele>
        <time>2015-05-05T19:59:31.033Z</time>
      </trkpt>
      <trkpt lat="48.84318" lon="2.32633">
        <ele>101.7</ele>
        <time>2015-05-05T19:59:32.043Z</time>
      </trkpt>
      <trkpt lat="48.8432" lon="2.32625">
        <ele>101.6</ele>
        <time>2015-05-05T19:59:33.051Z</time>
      </trkpt>
      <trkpt lat="48.84321" lon="2.32616">
        <ele>101.5</ele>
        <time>2015-05-05T19:59:34.085Z</time>
      </trkpt>
      <trkpt lat="48.84323" lon="2.32607">
        <ele>101.5</ele>
        <time>2015-05-05T19:59:35.107Z</time>
      </trkpt>
      <trkpt lat="48.84326" lon="2.32598">
        <ele>101.2</ele>
        <time>2015-05-05T19:59:36.029Z</time>
      </trkpt>
      <trkpt lat="48.84329" lon="2.3259">
        <ele>101.2</ele>
        <time>2015-05-05T19:59:37.006Z</time>
      </trkpt>
      <trkpt lat="48.84332" lon="2.32582">
        <ele>101.2</ele>
        <time>2015-05-05T19:59:38.020Z</time>
      </trkpt>
      <trkpt lat="48.84335" lon="2.32575">
        <ele>101.1</ele>
        <time>2015-05-05T19:59:39.036Z</time>
      </trkpt>
      <trkpt lat="48.84338" lon="2.32567">
        <ele>100.8</ele>
        <time>2015-05-05T19:59:40.053Z</time>
      </trkpt>
      <trkpt lat="48.84342" lon="2.3256">
        <ele>100.7</ele>
        <time>2015-05-05T19:59:41.079Z</time>
      </trkpt>
      <trkpt lat="48.84346" lon="2.32553">
        <ele>100.7</ele>
        <time>2015-05-05T19:59:42.085Z</time>
      </trkpt>
      <trkpt lat="48.84349" lon="2.32546">
        <ele>100.8</ele>
        <time>2015-05-05T19:59:43.029Z</time>
      </trkpt>
      <trkpt lat="48.84351" lon="2.32538">
        <ele>101.1</ele>
        <time>2015-05-05T19:59:44.020Z</time>
      </trkpt>
      <trkpt lat="48.84354" lon="2.32529">
        <ele>101.1</ele>
        <time>2015-05-05T19:59:45.026Z</time>
      </trkpt>
      <trkpt lat="48.84356" lon="2.32521">
        <ele>100.8</ele>
        <time>2015-05-05T19:59:46.083Z</time>
      </trkpt>
      <trkpt lat="48.84356" lon="2.32512">
        <ele>100.8</ele>
        <time>2015-05-05T19:59:47.093Z</time>
      </trkpt>
      <trkpt lat="48.84357" lon="2.32502">
        <ele>100.7</ele>
        <time>2015-05-05T19:59:48.111Z</time>
      </trkpt>
      <trkpt lat="48.84359" lon="2.32494">
        <ele>100.6</ele>
        <time>2015-05-05T19:59:49.123Z</time>
      </trkpt>
      <trkpt lat="48.8436" lon="2.32487">
        <ele>101</ele>
        <time>2015-05-05T19:59:50.045Z</time>
      </trkpt>
      <trkpt lat="48.84362" lon="2.32479">
        <ele>101</ele>
        <time>2015-05-05T19:59:51.061Z</time>
      </trkpt>
      <trkpt lat="48.84364" lon="2.32471">
        <ele>101.2</ele>
        <time>2015-05-05T19:59:52.085Z</time>
      </trkpt>
      <trkpt lat="48.84366" lon="2.32464">
        <ele>101.2</ele>
        <time>2015-05-05T19:59:53.109Z</time>
      </trkpt>
      <trkpt lat="48.84368" lon="2.32456">
        <ele>101.3</ele>
        <time>2015-05-05T19:59:54.073Z</time>
      </trkpt>
      <trkpt lat="48.84371" lon="2.32448">
        <ele>101.4</ele>
        <time>2015-05-05T19:59:55.044Z</time>
      </trkpt>
      <trkpt lat="48.84373" lon="2.32441">
        <ele>101.5</ele>
        <time>2015-05-05T19:59:56.048Z</time>
      </trkpt>
      <trkpt lat="48.84376" lon="2.32433">
        <ele>101.5</ele>
        <time>2015-05-05T19:59:57.056Z</time>
      </trkpt>
      <trkpt lat="48.84379" lon="2.32426">
        <ele>101.7</ele>
        <time>2015-05-05T19:59:58.135Z</time>
      </trkpt>
      <trkpt lat="48.84381" lon="2.32418">
        <ele>101.9</ele>
        <time>2015-05-05T19:59:59.042Z</time>
      </trkpt>
      <trkpt lat="48.84383" lon="2.3241">
        <ele>102</ele>
        <time>2015-05-05T20:00:00.062Z</time>
      </trkpt>
      <trkpt lat="48.84386" lon="2.32402">
        <ele>102.1</ele>
        <time>2015-05-05T20:00:01.066Z</time>
      </trkpt>
      <trkpt lat="48.84388" lon="2.32393">
        <ele>102.1</ele>
        <time>2015-05-05T20:00:02.088Z</time>
      </trkpt>
      <trkpt lat="48.84391" lon="2.32381">
        <ele>103.9</ele>
        <time>2015-05-05T20:00:03.087Z</time>
      </trkpt>
      <trkpt lat="48.84393" lon="2.32372">
        <ele>104.5</ele>
        <time>2015-05-05T20:00:04.107Z</time>
      </trkpt>
      <trkpt lat="48.84395" lon="2.32362">
        <ele>105.2</ele>
        <time>2015-05-05T20:00:05.113Z</time>
      </trkpt>
      <trkpt lat="48.84396" lon="2.32353">
        <ele>105.5</ele>
        <time>2015-05-05T20:00:06.126Z</time>
      </trkpt>
      <trkpt lat="48.84397" lon="2.32345">
        <ele>105.2</ele>
        <time>2015-05-05T20:00:07.145Z</time>
      </trkpt>
      <trkpt lat="48.84398" lon="2.32335">
        <ele>105.2</ele>
        <time>2015-05-05T20:00:08.040Z</time>
      </trkpt>
      <trkpt lat="48.84398" lon="2.32326">
        <ele>105.1</ele>
        <time>2015-05-05T20:00:09.053Z</time>
      </trkpt>
      <trkpt lat="48.84401" lon="2.32317">
        <ele>105.1</ele>
        <time>2015-05-05T20:00:10.087Z</time>
      </trkpt>
      <trkpt lat="48.84403" lon="2.32309">
        <ele>105.2</ele>
        <time>2015-05-05T20:00:11.083Z</time>
      </trkpt>
      <trkpt lat="48.84405" lon="2.32301">
        <ele>105.1</ele>
        <time>2015-05-05T20:00:12.088Z</time>
      </trkpt>
      <trkpt lat="48.84406" lon="2.32291">
        <ele>105.4</ele>
        <time>2015-05-05T20:00:13.096Z</time>
      </trkpt>
      <trkpt lat="48.84407" lon="2.32281">
        <ele>105.4</ele>
        <time>2015-05-05T20:00:14.114Z</time>
      </trkpt>
      <trkpt lat="48.84409" lon="2.32273">
        <ele>105.5</ele>
        <time>2015-05-05T20:00:15.126Z</time>
      </trkpt>
      <trkpt lat="48.84409" lon="2.32264">
        <ele>105.8</ele>
        <time>2015-05-05T20:00:16.138Z</time>
      </trkpt>
      <trkpt lat="48.8441" lon="2.32256">
        <ele>105.9</ele>
        <time>2015-05-05T20:00:17.036Z</time>
      </trkpt>
      <trkpt lat="48.84413" lon="2.32248">
        <ele>106.2</ele>
        <time>2015-05-05T20:00:18.044Z</time>
      </trkpt>
      <trkpt lat="48.84417" lon="2.32241">
        <ele>106.2</ele>
        <time>2015-05-05T20:00:19.052Z</time>
      </trkpt>
      <trkpt lat="48.84421" lon="2.32234">
        <ele>106</ele>
        <time>2015-05-05T20:00:20.064Z</time>
      </trkpt>
      <trkpt lat="48.84424" lon="2.32227">
        <ele>106</ele>
        <time>2015-05-05T20:00:21.083Z</time>
      </trkpt>
      <trkpt lat="48.84427" lon="2.3222">
        <ele>105.9</ele>
        <time>2015-05-05T20:00:22.096Z</time>
      </trkpt>
      <trkpt lat="48.84428" lon="2.32212">
        <ele>105.8</ele>
        <time>2015-05-05T20:00:23.013Z</time>
      </trkpt>
      <trkpt lat="48.84431" lon="2.32205">
        <ele>105.8</ele>
        <time>2015-05-05T20:00:24.029Z</time>
      </trkpt>
      <trkpt lat="48.84433" lon="2.32197">
        <ele>105.7</ele>
        <time>2015-05-05T20:00:25.042Z</time>
      </trkpt>
      <trkpt lat="48.84435" lon="2.32191">
        <ele>105.5</ele>
        <time>2015-05-05T20:00:26.068Z</time>
      </trkpt>
      <trkpt lat="48.84438" lon="2.32185">
        <ele>105.1</ele>
        <time>2015-05-05T20:00:27.081Z</time>
      </trkpt>
      <trkpt lat="48.8444" lon="2.32178">
        <ele>105</ele>
        <time>2015-05-05T20:00:28.083Z</time>
      </trkpt>
      <trkpt lat="48.84443" lon="2.32172">
        <ele>105</ele>
        <time>2015-05-05T20:00:29.288Z</time>
      </trkpt>
      <trkpt lat="48.84446" lon="2.32167">
        <ele>104.8</ele>
        <time>2015-05-05T20:00:30.002Z</time>
      </trkpt>
      <trkpt lat="48.84446" lon="2.32159">
        <ele>104.5</ele>
        <time>2015-05-05T20:00:31.033Z</time>
      </trkpt>
      <trkpt lat="48.84448" lon="2.32152">
        <ele>104.5</ele>
        <time>2015-05-05T20:00:32.039Z</time>
      </trkpt>
      <trkpt lat="48.84451" lon="2.32145">
        <ele>104.2</ele>
        <time>2015-05-05T20:00:33.123Z</time>
      </trkpt>
      <trkpt lat="48.84453" lon="2.32138">
        <ele>104</ele>
        <time>2015-05-05T20:00:34.148Z</time>
      </trkpt>
      <trkpt lat="48.84458" lon="2.32134">
        <ele>104.2</ele>
        <time>2015-05-05T20:00:35.029Z</time>
      </trkpt>
      <trkpt lat="48.84464" lon="2.3213">
        <ele>104.3</ele>
        <time>2015-05-05T20:00:36.029Z</time>
      </trkpt>
      <trkpt lat="48.84469" lon="2.32125">
        <ele>104.1</ele>
        <time>2015-05-05T20:00:37.043Z</time>
      </trkpt>
      <trkpt lat="48.84473" lon="2.32119">
        <ele>104.2</ele>
        <time>2015-05-05T20:00:38.060Z</time>
      </trkpt>
      <trkpt lat="48.84475" lon="2.32111">
        <ele>104.1</ele>
        <time>2015-05-05T20:00:39.075Z</time>
      </trkpt>
      <trkpt lat="48.84477" lon="2.32102">
        <ele>104</ele>
        <time>2015-05-05T20:00:40.097Z</time>
      </trkpt>
      <trkpt lat="48.84479" lon="2.32093">
        <ele>103.9</ele>
        <time>2015-05-05T20:00:41.108Z</time>
      </trkpt>
      <trkpt lat="48.8448" lon="2.32084">
        <ele>103.7</ele>
        <time>2015-05-05T20:00:42.118Z</time>
      </trkpt>
      <trkpt lat="48.84484" lon="2.32076">
        <ele>103.5</ele>
        <time>2015-05-05T20:00:43.033Z</time>
      </trkpt>
      <trkpt lat="48.84487" lon="2.32068">
        <ele>103</ele>
        <time>2015-05-05T20:00:44.033Z</time>
      </trkpt>
      <trkpt lat="48.84489" lon="2.3206">
        <ele>102.5</ele>
        <time>2015-05-05T20:00:45.040Z</time>
      </trkpt>
      <trkpt lat="48.84493" lon="2.32052">
        <ele>103.2</ele>
        <time>2015-05-05T20:00:46.075Z</time>
      </trkpt>
      <trkpt lat="48.84496" lon="2.32044">
        <ele>103.2</ele>
        <time>2015-05-05T20:00:47.082Z</time>
      </trkpt>
      <trkpt lat="48.845" lon="2.32036">
        <ele>103.4</ele>
        <time>2015-05-05T20:00:48.109Z</time>
      </trkpt>
      <trkpt lat="48.84502" lon="2.32029">
        <ele>102.6</ele>
        <time>2015-05-05T20:00:49.033Z</time>
      </trkpt>
      <trkpt lat="48.84502" lon="2.3202">
        <ele>102.4</ele>
        <time>2015-05-05T20:00:50.030Z</time>
      </trkpt>
      <trkpt lat="48.84503" lon="2.32013">
        <ele>101.9</ele>
        <time>2015-05-05T20:00:51.036Z</time>
      </trkpt>
      <trkpt lat="48.84506" lon="2.32005">
        <ele>101</ele>
        <time>2015-05-05T20:00:52.062Z</time>
      </trkpt>
      <trkpt lat="48.84509" lon="2.31998">
        <ele>100.5</ele>
        <time>2015-05-05T20:00:53.065Z</time>
      </trkpt>
      <trkpt lat="48.84513" lon="2.31992">
        <ele>100.2</ele>
        <time>2015-05-05T20:00:54.076Z</time>
      </trkpt>
      <trkpt lat="48.84517" lon="2.31985">
        <ele>99.8</ele>
        <time>2015-05-05T20:00:55.181Z</time>
      </trkpt>
      <trkpt lat="48.84518" lon="2.31975">
        <ele>99.7</ele>
        <time>2015-05-05T20:00:56.029Z</time>
      </trkpt>
      <trkpt lat="48.8452" lon="2.31965">
        <ele>99</ele>
        <time>2015-05-05T20:00:57.030Z</time>
      </trkpt>
      <trkpt lat="48.8452" lon="2.31954">
        <ele>99.2</ele>
        <time>2015-05-05T20:00:58.059Z</time>
      </trkpt>
      <trkpt lat="48.84522" lon="2.31945">
        <ele>99.2</ele>
        <time>2015-05-05T20:00:59.062Z</time>
      </trkpt>
      <trkpt lat="48.84524" lon="2.31936">
        <ele>98.8</ele>
        <time>2015-05-05T20:01:00.081Z</time>
      </trkpt>
      <trkpt lat="48.84527" lon="2.31927">
        <ele>98.9</ele>
        <time>2015-05-05T20:01:01.086Z</time>
      </trkpt>
      <trkpt lat="48.84529" lon="2.31916">
        <ele>99</ele>
        <time>2015-05-05T20:01:02.110Z</time>
      </trkpt>
      <trkpt lat="48.84534" lon="2.31909">
        <ele>99.2</ele>
        <time>2015-05-05T20:01:03.120Z</time>
      </trkpt>
      <trkpt lat="48.8454" lon="2.31904">
        <ele>99.5</ele>
        <time>2015-05-05T20:01:04.131Z</time>
      </trkpt>
      <trkpt lat="48.84543" lon="2.31895">
        <ele>99.3</ele>
        <time>2015-05-05T20:01:05.026Z</time>
      </trkpt>
      <trkpt lat="48.8455" lon="2.31891">
        <ele>99.3</ele>
        <time>2015-05-05T20:01:06.034Z</time>
      </trkpt>
      <trkpt lat="48.84552" lon="2.31881">
        <ele>99.5</ele>
        <time>2015-05-05T20:01:07.039Z</time>
      </trkpt>
      <trkpt lat="48.84556" lon="2.31874">
        <ele>99.6</ele>
        <time>2015-05-05T20:01:08.050Z</time>
      </trkpt>
      <trkpt lat="48.84584" lon="2.31827">
        <ele>98.6</ele>
        <time>2015-05-05T20:01:14.057Z</time>
      </trkpt>
      <trkpt lat="48.8459" lon="2.31811">
        <ele>98.3</ele>
        <time>2015-05-05T20:01:16.128Z</time>
      </trkpt>
      <trkpt lat="48.84594" lon="2.31803">
        <ele>98.1</ele>
        <time>2015-05-05T20:01:17.001Z</time>
      </trkpt>
      <trkpt lat="48.84598" lon="2.31795">
        <ele>98.3</ele>
        <time>2015-05-05T20:01:18.023Z</time>
      </trkpt>
      <trkpt lat="48.84604" lon="2.31789">
        <ele>98.2</ele>
        <time>2015-05-05T20:01:19.038Z</time>
      </trkpt>
      <trkpt lat="48.84611" lon="2.31784">
        <ele>97.9</ele>
        <time>2015-05-05T20:01:20.048Z</time>
      </trkpt>
      <trkpt lat="48.84617" lon="2.31779">
        <ele>98</ele>
        <time>2015-05-05T20:01:21.056Z</time>
      </trkpt>
      <trkpt lat="48.84623" lon="2.31773">
        <ele>98</ele>
        <time>2015-05-05T20:01:22.102Z</time>
      </trkpt>
      <trkpt lat="48.84629" lon="2.31768">
        <ele>97.8</ele>
        <time>2015-05-05T20:01:23.075Z</time>
      </trkpt>
      <trkpt lat="48.84635" lon="2.31762">
        <ele>98</ele>
        <time>2015-05-05T20:01:24.084Z</time>
      </trkpt>
      <trkpt lat="48.84637" lon="2.31754">
        <ele>98.2</ele>
        <time>2015-05-05T20:01:25.092Z</time>
      </trkpt>
      <trkpt lat="48.84639" lon="2.31747">
        <ele>98.3</ele>
        <time>2015-05-05T20:01:26.019Z</time>
      </trkpt>
      <trkpt lat="48.84638" lon="2.31735">
        <ele>98.4</ele>
        <time>2015-05-05T20:01:27.022Z</time>
      </trkpt>
      <trkpt lat="48.8464" lon="2.31727">
        <ele>98.4</ele>
        <time>2015-05-05T20:01:28.061Z</time>
      </trkpt>
      <trkpt lat="48.84641" lon="2.31719">
        <ele>98.1</ele>
        <time>2015-05-05T20:01:29.069Z</time>
      </trkpt>
      <trkpt lat="48.84644" lon="2.31712">
        <ele>98</ele>
        <time>2015-05-05T20:01:30.103Z</time>
      </trkpt>
      <trkpt lat="48.84648" lon="2.31707">
        <ele>97.8</ele>
        <time>2015-05-05T20:01:31.017Z</time>
      </trkpt>
      <trkpt lat="48.84652" lon="2.31703">
        <ele>97.9</ele>
        <time>2015-05-05T20:01:32.016Z</time>
      </trkpt>
      <trkpt lat="48.84656" lon="2.31699">
        <ele>98.2</ele>
        <time>2015-05-05T20:01:33.030Z</time>
      </trkpt>
      <trkpt lat="48.84663" lon="2.31697">
        <ele>98.5</ele>
        <time>2015-05-05T20:01:34.084Z</time>
      </trkpt>
      <trkpt lat="48.84667" lon="2.31694">
        <ele>98.5</ele>
        <time>2015-05-05T20:01:35.078Z</time>
      </trkpt>
      <trkpt lat="48.84672" lon="2.3169">
        <ele>98.3</ele>
        <time>2015-05-05T20:01:36.100Z</time>
      </trkpt>
      <trkpt lat="48.84676" lon="2.31685">
        <ele>97.7</ele>
        <time>2015-05-05T20:01:37.015Z</time>
      </trkpt>
      <trkpt lat="48.8468" lon="2.31681">
        <ele>97.4</ele>
        <time>2015-05-05T20:01:38.018Z</time>
      </trkpt>
      <trkpt lat="48.84683" lon="2.3167">
        <ele>97</ele>
        <time>2015-05-05T20:01:40.055Z</time>
      </trkpt>
      <trkpt lat="48.84682" lon="2.31663">
        <ele>97.1</ele>
        <time>2015-05-05T20:01:40.989Z</time>
      </trkpt>
      <trkpt lat="48.8468" lon="2.31654">
        <ele>96.9</ele>
        <time>2015-05-05T20:01:42.043Z</time>
      </trkpt>
      <trkpt lat="48.84678" lon="2.31647">
        <ele>96.8</ele>
        <time>2015-05-05T20:01:43.036Z</time>
      </trkpt>
      <trkpt lat="48.84676" lon="2.31637">
        <ele>96.5</ele>
        <time>2015-05-05T20:01:45.108Z</time>
      </trkpt>
      <trkpt lat="48.84675" lon="2.31633">
        <ele>96.3</ele>
        <time>2015-05-05T20:01:46.030Z</time>
      </trkpt>
      <trkpt lat="48.84674" lon="2.31626">
        <ele>96.3</ele>
        <time>2015-05-05T20:01:47.030Z</time>
      </trkpt>
      <trkpt lat="48.84671" lon="2.31619">
        <ele>96.1</ele>
        <time>2015-05-05T20:01:48.183Z</time>
      </trkpt>
      <trkpt lat="48.84668" lon="2.31612">
        <ele>96.4</ele>
        <time>2015-05-05T20:01:49.023Z</time>
      </trkpt>
      <trkpt lat="48.84665" lon="2.31604">
        <ele>96.9</ele>
        <time>2015-05-05T20:01:50.017Z</time>
      </trkpt>
      <trkpt lat="48.84663" lon="2.31597">
        <ele>96.7</ele>
        <time>2015-05-05T20:01:51.037Z</time>
      </trkpt>
      <trkpt lat="48.84662" lon="2.31588">
        <ele>97</ele>
        <time>2015-05-05T20:01:52.060Z</time>
      </trkpt>
      <trkpt lat="48.84635" lon="2.31504">
        <ele>94.5</ele>
        <time>2015-05-05T20:02:03.047Z</time>
      </trkpt>
      <trkpt lat="48.84631" lon="2.31496">
        <ele>94.9</ele>
        <time>2015-05-05T20:02:04.095Z</time>
      </trkpt>
      <trkpt lat="48.84629" lon="2.31489">
        <ele>95.2</ele>
        <time>2015-05-05T20:02:05.107Z</time>
      </trkpt>
      <trkpt lat="48.84625" lon="2.31482">
        <ele>95.1</ele>
        <time>2015-05-05T20:02:06.077Z</time>
      </trkpt>
      <trkpt lat="48.84622" lon="2.31475">
        <ele>95.2</ele>
        <time>2015-05-05T20:02:07.029Z</time>
      </trkpt>
      <trkpt lat="48.84618" lon="2.31467">
        <ele>95.3</ele>
        <time>2015-05-05T20:02:08.294Z</time>
      </trkpt>
      <trkpt lat="48.84615" lon="2.31458">
        <ele>95.4</ele>
        <time>2015-05-05T20:02:09.049Z</time>
      </trkpt>
      <trkpt lat="48.84612" lon="2.31447">
        <ele>95</ele>
        <time>2015-05-05T20:02:10.106Z</time>
      </trkpt>
      <trkpt lat="48.84609" lon="2.31439">
        <ele>94.9</ele>
        <time>2015-05-05T20:02:11.111Z</time>
      </trkpt>
      <trkpt lat="48.84607" lon="2.3143">
        <ele>94.9</ele>
        <time>2015-05-05T20:02:12.023Z</time>
      </trkpt>
      <trkpt lat="48.84602" lon="2.31412">
        <ele>94.7</ele>
        <time>2015-05-05T20:02:14.090Z</time>
      </trkpt>
      <trkpt lat="48.84601" lon="2.31402">
        <ele>94.5</ele>
        <time>2015-05-05T20:02:15.115Z</time>
      </trkpt>
      <trkpt lat="48.846" lon="2.31393">
        <ele>94.6</ele>
        <time>2015-05-05T20:02:16.122Z</time>
      </trkpt>
      <trkpt lat="48.84598" lon="2.31383">
        <ele>94.6</ele>
        <time>2015-05-05T20:02:17.022Z</time>
      </trkpt>
      <trkpt lat="48.84597" lon="2.31374">
        <ele>95</ele>
        <time>2015-05-05T20:02:18.030Z</time>
      </trkpt>
      <trkpt lat="48.84597" lon="2.31366">
        <ele>95.1</ele>
        <time>2015-05-05T20:02:19.053Z</time>
      </trkpt>
      <trkpt lat="48.84596" lon="2.31359">
        <ele>95.2</ele>
        <time>2015-05-05T20:02:20.067Z</time>
      </trkpt>
      <trkpt lat="48.84594" lon="2.31352">
        <ele>95.6</ele>
        <time>2015-05-05T20:02:21.048Z</time>
      </trkpt>
      <trkpt lat="48.84592" lon="2.31344">
        <ele>95.6</ele>
        <time>2015-05-05T20:02:22.067Z</time>
      </trkpt>
      <trkpt lat="48.84589" lon="2.31336">
        <ele>95.7</ele>
        <time>2015-05-05T20:02:23.077Z</time>
      </trkpt>
      <trkpt lat="48.84586" lon="2.31327">
        <ele>95.9</ele>
        <time>2015-05-05T20:02:24.089Z</time>
      </trkpt>
      <trkpt lat="48.84583" lon="2.31317">
        <ele>96.1</ele>
        <time>2015-05-05T20:02:25.027Z</time>
      </trkpt>
      <trkpt lat="48.84579" lon="2.31308">
        <ele>96.3</ele>
        <time>2015-05-05T20:02:26.037Z</time>
      </trkpt>
      <trkpt lat="48.84576" lon="2.313">
        <ele>96.7</ele>
        <time>2015-05-05T20:02:27.051Z</time>
      </trkpt>
      <trkpt lat="48.84574" lon="2.31291">
        <ele>97.2</ele>
        <time>2015-05-05T20:02:28.062Z</time>
      </trkpt>
      <trkpt lat="48.84571" lon="2.31282">
        <ele>97.7</ele>
        <time>2015-05-05T20:02:29.069Z</time>
      </trkpt>
      <trkpt lat="48.84568" lon="2.31272">
        <ele>98.5</ele>
        <time>2015-05-05T20:02:30.075Z</time>
      </trkpt>
      <trkpt lat="48.84566" lon="2.31264">
        <ele>98.8</ele>
        <time>2015-05-05T20:02:31.090Z</time>
      </trkpt>
      <trkpt lat="48.84564" lon="2.31258">
        <ele>100.1</ele>
        <time>2015-05-05T20:02:32.019Z</time>
      </trkpt>
      <trkpt lat="48.84559" lon="2.31245">
        <ele>100.7</ele>
        <time>2015-05-05T20:02:34.083Z</time>
      </trkpt>
      <trkpt lat="48.84555" lon="2.31238">
        <ele>101.2</ele>
        <time>2015-05-05T20:02:35.095Z</time>
      </trkpt>
      <trkpt lat="48.84552" lon="2.31231">
        <ele>101.6</ele>
        <time>2015-05-05T20:02:36.014Z</time>
      </trkpt>
      <trkpt lat="48.84549" lon="2.31222">
        <ele>101.5</ele>
        <time>2015-05-05T20:02:37.017Z</time>
      </trkpt>
      <trkpt lat="48.84547" lon="2.31214">
        <ele>101.1</ele>
        <time>2015-05-05T20:02:38.027Z</time>
      </trkpt>
      <trkpt lat="48.84545" lon="2.31206">
        <ele>100.1</ele>
        <time>2015-05-05T20:02:39.027Z</time>
      </trkpt>
      <trkpt lat="48.84543" lon="2.31198">
        <ele>99.4</ele>
        <time>2015-05-05T20:02:40.061Z</time>
      </trkpt>
      <trkpt lat="48.84542" lon="2.3119">
        <ele>98.9</ele>
        <time>2015-05-05T20:02:41.082Z</time>
      </trkpt>
      <trkpt lat="48.8454" lon="2.31183">
        <ele>98.5</ele>
        <time>2015-05-05T20:02:42.095Z</time>
      </trkpt>
      <trkpt lat="48.84538" lon="2.31171">
        <ele>99</ele>
        <time>2015-05-05T20:02:44.013Z</time>
      </trkpt>
      <trkpt lat="48.84537" lon="2.31166">
        <ele>99</ele>
        <time>2015-05-05T20:02:45.001Z</time>
      </trkpt>
      <trkpt lat="48.84534" lon="2.31154">
        <ele>98.8</ele>
        <time>2015-05-05T20:02:47.062Z</time>
      </trkpt>
      <trkpt lat="48.84532" lon="2.31148">
        <ele>98.8</ele>
        <time>2015-05-05T20:02:48.079Z</time>
      </trkpt>
      <trkpt lat="48.84529" lon="2.31138">
        <ele>98.9</ele>
        <time>2015-05-05T20:02:50.036Z</time>
      </trkpt>
      <trkpt lat="48.84529" lon="2.31133">
        <ele>98.3</ele>
        <time>2015-05-05T20:02:51.068Z</time>
      </trkpt>
      <trkpt lat="48.84525" lon="2.31121">
        <ele>97.2</ele>
        <time>2015-05-05T20:02:54.049Z</time>
      </trkpt>
      <trkpt lat="48.84524" lon="2.31118">
        <ele>97.1</ele>
        <time>2015-05-05T20:02:55.051Z</time>
      </trkpt>
      <trkpt lat="48.84519" lon="2.31108">
        <ele>96.6</ele>
        <time>2015-05-05T20:02:57.060Z</time>
      </trkpt>
      <trkpt lat="48.84518" lon="2.31105">
        <ele>96.2</ele>
        <time>2015-05-05T20:02:58.098Z</time>
      </trkpt>
      <trkpt lat="48.84512" lon="2.31095">
        <ele>96.5</ele>
        <time>2015-05-05T20:03:01.051Z</time>
      </trkpt>
      <trkpt lat="48.8451" lon="2.31091">
        <ele>96.8</ele>
        <time>2015-05-05T20:03:02.058Z</time>
      </trkpt>
      <trkpt lat="48.84506" lon="2.31083">
        <ele>96.3</ele>
        <time>2015-05-05T20:03:04.085Z</time>
      </trkpt>
      <trkpt lat="48.84504" lon="2.3108">
        <ele>96.2</ele>
        <time>2015-05-05T20:03:05.121Z</time>
      </trkpt>
      <trkpt lat="48.84504" lon="2.3108">
        <ele>96.2</ele>
        <time>2015-05-05T20:03:08.098Z</time>
      </trkpt>
      <trkpt lat="48.84498" lon="2.31068">
        <ele>97.7</ele>
        <time>2015-05-05T20:03:09.131Z</time>
      </trkpt>
      <trkpt lat="48.84494" lon="2.31063">
        <ele>97.8</ele>
        <time>2015-05-05T20:03:10.147Z</time>
      </trkpt>
      <trkpt lat="48.84492" lon="2.31056">
        <ele>98</ele>
        <time>2015-05-05T20:03:11.046Z</time>
      </trkpt>
      <trkpt lat="48.84489" lon="2.31046">
        <ele>98.5</ele>
        <time>2015-05-05T20:03:13.094Z</time>
      </trkpt>
      <trkpt lat="48.84487" lon="2.31041">
        <ele>98.7</ele>
        <time>2015-05-05T20:03:14.108Z</time>
      </trkpt>
      <trkpt lat="48.84482" lon="2.3103">
        <ele>98.6</ele>
        <time>2015-05-05T20:03:16.131Z</time>
      </trkpt>
      <trkpt lat="48.84479" lon="2.31027">
        <ele>98.9</ele>
        <time>2015-05-05T20:03:17.021Z</time>
      </trkpt>
      <trkpt lat="48.84476" lon="2.31015">
        <ele>99.1</ele>
        <time>2015-05-05T20:03:19.043Z</time>
      </trkpt>
      <trkpt lat="48.84474" lon="2.31009">
        <ele>99.4</ele>
        <time>2015-05-05T20:03:20.056Z</time>
      </trkpt>
      <trkpt lat="48.84472" lon="2.31002">
        <ele>99.6</ele>
        <time>2015-05-05T20:03:21.069Z</time>
      </trkpt>
      <trkpt lat="48.8447" lon="2.30995">
        <ele>99.8</ele>
        <time>2015-05-05T20:03:22.081Z</time>
      </trkpt>
      <trkpt lat="48.84468" lon="2.30989">
        <ele>100.2</ele>
        <time>2015-05-05T20:03:23.053Z</time>
      </trkpt>
      <trkpt lat="48.84465" lon="2.30983">
        <ele>100.4</ele>
        <time>2015-05-05T20:03:24.009Z</time>
      </trkpt>
      <trkpt lat="48.84463" lon="2.30975">
        <ele>100.7</ele>
        <time>2015-05-05T20:03:25.130Z</time>
      </trkpt>
      <trkpt lat="48.84461" lon="2.30968">
        <ele>100.9</ele>
        <time>2015-05-05T20:03:26.042Z</time>
      </trkpt>
      <trkpt lat="48.84458" lon="2.30961">
        <ele>100.9</ele>
        <time>2015-05-05T20:03:27.040Z</time>
      </trkpt>
      <trkpt lat="48.84457" lon="2.30952">
        <ele>101.7</ele>
        <time>2015-05-05T20:03:28.080Z</time>
      </trkpt>
      <trkpt lat="48.84455" lon="2.30944">
        <ele>101.8</ele>
        <time>2015-05-05T20:03:29.583Z</time>
      </trkpt>
      <trkpt lat="48.84453" lon="2.30936">
        <ele>102.4</ele>
        <time>2015-05-05T20:03:30.070Z</time>
      </trkpt>
      <trkpt lat="48.84452" lon="2.30927">
        <ele>102.6</ele>
        <time>2015-05-05T20:03:31.062Z</time>
      </trkpt>
      <trkpt lat="48.8445" lon="2.30918">
        <ele>102.6</ele>
        <time>2015-05-05T20:03:32.074Z</time>
      </trkpt>
      <trkpt lat="48.84447" lon="2.30911">
        <ele>102.9</ele>
        <time>2015-05-05T20:03:33.122Z</time>
      </trkpt>
      <trkpt lat="48.84443" lon="2.30904">
        <ele>103</ele>
        <time>2015-05-05T20:03:34.093Z</time>
      </trkpt>
      <trkpt lat="48.84439" lon="2.30895">
        <ele>102.8</ele>
        <time>2015-05-05T20:03:35.011Z</time>
      </trkpt>
      <trkpt lat="48.84437" lon="2.30887">
        <ele>102.6</ele>
        <time>2015-05-05T20:03:36.026Z</time>
      </trkpt>
      <trkpt lat="48.84436" lon="2.30878">
        <ele>102.5</ele>
        <time>2015-05-05T20:03:37.027Z</time>
      </trkpt>
      <trkpt lat="48.84436" lon="2.30871">
        <ele>102.6</ele>
        <time>2015-05-05T20:03:38.028Z</time>
      </trkpt>
      <trkpt lat="48.84434" lon="2.30865">
        <ele>102.7</ele>
        <time>2015-05-05T20:03:39.036Z</time>
      </trkpt>
      <trkpt lat="48.84433" lon="2.30857">
        <ele>102.6</ele>
        <time>2015-05-05T20:03:40.053Z</time>
      </trkpt>
      <trkpt lat="48.84432" lon="2.30848">
        <ele>102.1</ele>
        <time>2015-05-05T20:03:41.081Z</time>
      </trkpt>
      <trkpt lat="48.84431" lon="2.3084">
        <ele>102.1</ele>
        <time>2015-05-05T20:03:42.091Z</time>
      </trkpt>
      <trkpt lat="48.84428" lon="2.30833">
        <ele>102.4</ele>
        <time>2015-05-05T20:03:43.012Z</time>
      </trkpt>
      <trkpt lat="48.84424" lon="2.30825">
        <ele>102.5</ele>
        <time>2015-05-05T20:03:44.047Z</time>
      </trkpt>
      <trkpt lat="48.84421" lon="2.30816">
        <ele>102.7</ele>
        <time>2015-05-05T20:03:45.063Z</time>
      </trkpt>
      <trkpt lat="48.84418" lon="2.30805">
        <ele>102.6</ele>
        <time>2015-05-05T20:03:46.126Z</time>
      </trkpt>
      <trkpt lat="48.84415" lon="2.30796">
        <ele>102.8</ele>
        <time>2015-05-05T20:03:47.020Z</time>
      </trkpt>
      <trkpt lat="48.84413" lon="2.30788">
        <ele>103.1</ele>
        <time>2015-05-05T20:03:48.027Z</time>
      </trkpt>
      <trkpt lat="48.84411" lon="2.3078">
        <ele>103.1</ele>
        <time>2015-05-05T20:03:49.039Z</time>
      </trkpt>
      <trkpt lat="48.84409" lon="2.30771">
        <ele>103</ele>
        <time>2015-05-05T20:03:50.055Z</time>
      </trkpt>
      <trkpt lat="48.84408" lon="2.30765">
        <ele>102.7</ele>
        <time>2015-05-05T20:03:51.072Z</time>
      </trkpt>
      <trkpt lat="48.84407" lon="2.30758">
        <ele>103</ele>
        <time>2015-05-05T20:03:52.079Z</time>
      </trkpt>
      <trkpt lat="48.84405" lon="2.30751">
        <ele>103.3</ele>
        <time>2015-05-05T20:03:53.090Z</time>
      </trkpt>
      <trkpt lat="48.84403" lon="2.30743">
        <ele>103.7</ele>
        <time>2015-05-05T20:03:54.101Z</time>
      </trkpt>
      <trkpt lat="48.84401" lon="2.30735">
        <ele>103.9</ele>
        <time>2015-05-05T20:03:55.113Z</time>
      </trkpt>
      <trkpt lat="48.84398" lon="2.30726">
        <ele>104.5</ele>
        <time>2015-05-05T20:03:56.021Z</time>
      </trkpt>
      <trkpt lat="48.84394" lon="2.30718">
        <ele>104.8</ele>
        <time>2015-05-05T20:03:57.049Z</time>
      </trkpt>
      <trkpt lat="48.84391" lon="2.30709">
        <ele>104.8</ele>
        <time>2015-05-05T20:03:58.080Z</time>
      </trkpt>
      <trkpt lat="48.8439" lon="2.30701">
        <ele>104.5</ele>
        <time>2015-05-05T20:03:58.994Z</time>
      </trkpt>
      <trkpt lat="48.84387" lon="2.30693">
        <ele>104.8</ele>
        <time>2015-05-05T20:04:00.022Z</time>
      </trkpt>
      <trkpt lat="48.84386" lon="2.30685">
        <ele>105.2</ele>
        <time>2015-05-05T20:04:01.031Z</time>
      </trkpt>
      <trkpt lat="48.84384" lon="2.30679">
        <ele>105.8</ele>
        <time>2015-05-05T20:04:02.041Z</time>
      </trkpt>
      <trkpt lat="48.84381" lon="2.30672">
        <ele>105.9</ele>
        <time>2015-05-05T20:04:03.061Z</time>
      </trkpt>
      <trkpt lat="48.84378" lon="2.30666">
        <ele>106</ele>
        <time>2015-05-05T20:04:04.110Z</time>
      </trkpt>
      <trkpt lat="48.84375" lon="2.3066">
        <ele>106.8</ele>
        <time>2015-05-05T20:04:05.018Z</time>
      </trkpt>
      <trkpt lat="48.84374" lon="2.30654">
        <ele>106.9</ele>
        <time>2015-05-05T20:04:06.013Z</time>
      </trkpt>
      <trkpt lat="48.84372" lon="2.30647">
        <ele>106.9</ele>
        <time>2015-05-05T20:04:07.067Z</time>
      </trkpt>
      <trkpt lat="48.84371" lon="2.30639">
        <ele>106.8</ele>
        <time>2015-05-05T20:04:08.082Z</time>
      </trkpt>
      <trkpt lat="48.84369" lon="2.30632">
        <ele>107</ele>
        <time>2015-05-05T20:04:09.095Z</time>
      </trkpt>
      <trkpt lat="48.84366" lon="2.30624">
        <ele>107.2</ele>
        <time>2015-05-05T20:04:10.105Z</time>
      </trkpt>
      <trkpt lat="48.84363" lon="2.30616">
        <ele>107.6</ele>
        <time>2015-05-05T20:04:11.009Z</time>
      </trkpt>
      <trkpt lat="48.84361" lon="2.30608">
        <ele>107.7</ele>
        <time>2015-05-05T20:04:12.003Z</time>
      </trkpt>
      <trkpt lat="48.84358" lon="2.306">
        <ele>107.7</ele>
        <time>2015-05-05T20:04:13.031Z</time>
      </trkpt>
      <trkpt lat="48.84356" lon="2.30591">
        <ele>107.8</ele>
        <time>2015-05-05T20:04:14.040Z</time>
      </trkpt>
      <trkpt lat="48.84354" lon="2.30581">
        <ele>107.8</ele>
        <time>2015-05-05T20:04:15.056Z</time>
      </trkpt>
      <trkpt lat="48.84352" lon="2.30571">
        <ele>107.6</ele>
        <time>2015-05-05T20:04:16.065Z</time>
      </trkpt>
      <trkpt lat="48.84349" lon="2.30562">
        <ele>107.7</ele>
        <time>2015-05-05T20:04:17.105Z</time>
      </trkpt>
      <trkpt lat="48.84347" lon="2.30554">
        <ele>108.2</ele>
        <time>2015-05-05T20:04:18.040Z</time>
      </trkpt>
      <trkpt lat="48.84345" lon="2.30545">
        <ele>108.3</ele>
        <time>2015-05-05T20:04:19.029Z</time>
      </trkpt>
      <trkpt lat="48.84342" lon="2.30536">
        <ele>108.7</ele>
        <time>2015-05-05T20:04:20.037Z</time>
      </trkpt>
      <trkpt lat="48.8434" lon="2.30527">
        <ele>108.9</ele>
        <time>2015-05-05T20:04:21.043Z</time>
      </trkpt>
      <trkpt lat="48.84337" lon="2.30517">
        <ele>109.2</ele>
        <time>2015-05-05T20:04:22.057Z</time>
      </trkpt>
      <trkpt lat="48.84335" lon="2.30508">
        <ele>109.3</ele>
        <time>2015-05-05T20:04:23.074Z</time>
      </trkpt>
      <trkpt lat="48.84335" lon="2.30499">
        <ele>109.7</ele>
        <time>2015-05-05T20:04:24.093Z</time>
      </trkpt>
      <trkpt lat="48.84333" lon="2.3049">
        <ele>109.6</ele>
        <time>2015-05-05T20:04:25.106Z</time>
      </trkpt>
      <trkpt lat="48.8433" lon="2.30481">
        <ele>109.5</ele>
        <time>2015-05-05T20:04:26.029Z</time>
      </trkpt>
      <trkpt lat="48.84328" lon="2.30473">
        <ele>110</ele>
        <time>2015-05-05T20:04:27.045Z</time>
      </trkpt>
      <trkpt lat="48.84325" lon="2.30464">
        <ele>110.6</ele>
        <time>2015-05-05T20:04:28.158Z</time>
      </trkpt>
      <trkpt lat="48.84322" lon="2.30454">
        <ele>110.9</ele>
        <time>2015-05-05T20:04:29.028Z</time>
      </trkpt>
      <trkpt lat="48.84319" lon="2.30445">
        <ele>111.3</ele>
        <time>2015-05-05T20:04:30.031Z</time>
      </trkpt>
      <trkpt lat="48.84316" lon="2.30437">
        <ele>111.1</ele>
        <time>2015-05-05T20:04:31.051Z</time>
      </trkpt>
      <trkpt lat="48.84313" lon="2.30429">
        <ele>111.2</ele>
        <time>2015-05-05T20:04:32.061Z</time>
      </trkpt>
      <trkpt lat="48.8431" lon="2.3042">
        <ele>111.4</ele>
        <time>2015-05-05T20:04:33.125Z</time>
      </trkpt>
      <trkpt lat="48.84307" lon="2.30412">
        <ele>111.6</ele>
        <time>2015-05-05T20:04:34.100Z</time>
      </trkpt>
      <trkpt lat="48.84306" lon="2.30405">
        <ele>112.1</ele>
        <time>2015-05-05T20:04:35.025Z</time>
      </trkpt>
      <trkpt lat="48.84305" lon="2.30397">
        <ele>112.4</ele>
        <time>2015-05-05T20:04:36.023Z</time>
      </trkpt>
      <trkpt lat="48.84303" lon="2.30389">
        <ele>113</ele>
        <time>2015-05-05T20:04:37.038Z</time>
      </trkpt>
      <trkpt lat="48.843" lon="2.30381">
        <ele>113.5</ele>
        <time>2015-05-05T20:04:38.049Z</time>
      </trkpt>
      <trkpt lat="48.84298" lon="2.30373">
        <ele>113.6</ele>
        <time>2015-05-05T20:04:39.130Z</time>
      </trkpt>
      <trkpt lat="48.84296" lon="2.30365">
        <ele>113.6</ele>
        <time>2015-05-05T20:04:40.140Z</time>
      </trkpt>
      <trkpt lat="48.84294" lon="2.30357">
        <ele>114.2</ele>
        <time>2015-05-05T20:04:41.017Z</time>
      </trkpt>
      <trkpt lat="48.84291" lon="2.3035">
        <ele>114.7</ele>
        <time>2015-05-05T20:04:42.031Z</time>
      </trkpt>
      <trkpt lat="48.84288" lon="2.30344">
        <ele>114.7</ele>
        <time>2015-05-05T20:04:43.058Z</time>
      </trkpt>
      <trkpt lat="48.84286" lon="2.30338">
        <ele>114.9</ele>
        <time>2015-05-05T20:04:44.064Z</time>
      </trkpt>
      <trkpt lat="48.84282" lon="2.30327">
        <ele>115</ele>
        <time>2015-05-05T20:04:46.117Z</time>
      </trkpt>
      <trkpt lat="48.84279" lon="2.30322">
        <ele>115.4</ele>
        <time>2015-05-05T20:04:47.086Z</time>
      </trkpt>
      <trkpt lat="48.84276" lon="2.30316">
        <ele>115.8</ele>
        <time>2015-05-05T20:04:48.012Z</time>
      </trkpt>
      <trkpt lat="48.84274" lon="2.30311">
        <ele>115.6</ele>
        <time>2015-05-05T20:04:49.019Z</time>
      </trkpt>
      <trkpt lat="48.84272" lon="2.30304">
        <ele>115.3</ele>
        <time>2015-05-05T20:04:50.049Z</time>
      </trkpt>
      <trkpt lat="48.84271" lon="2.30295">
        <ele>114.8</ele>
        <time>2015-05-05T20:04:51.063Z</time>
      </trkpt>
      <trkpt lat="48.84267" lon="2.30283">
        <ele>114.5</ele>
        <time>2015-05-05T20:04:53.095Z</time>
      </trkpt>
      <trkpt lat="48.84263" lon="2.30271">
        <ele>114.3</ele>
        <time>2015-05-05T20:04:55.066Z</time>
      </trkpt>
      <trkpt lat="48.8426" lon="2.30262">
        <ele>114.4</ele>
        <time>2015-05-05T20:04:56.036Z</time>
      </trkpt>
      <trkpt lat="48.84258" lon="2.30252">
        <ele>114.9</ele>
        <time>2015-05-05T20:04:57.057Z</time>
      </trkpt>
      <trkpt lat="48.84255" lon="2.30245">
        <ele>115.2</ele>
        <time>2015-05-05T20:04:58.050Z</time>
      </trkpt>
      <trkpt lat="48.84252" lon="2.30239">
        <ele>116</ele>
        <time>2015-05-05T20:04:59.069Z</time>
      </trkpt>
      <trkpt lat="48.84249" lon="2.30233">
        <ele>116.7</ele>
        <time>2015-05-05T20:05:00.237Z</time>
      </trkpt>
      <trkpt lat="48.84246" lon="2.30226">
        <ele>116.5</ele>
        <time>2015-05-05T20:05:01.102Z</time>
      </trkpt>
      <trkpt lat="48.84243" lon="2.30219">
        <ele>116.5</ele>
        <time>2015-05-05T20:05:02.008Z</time>
      </trkpt>
      <trkpt lat="48.8424" lon="2.30211">
        <ele>116.4</ele>
        <time>2015-05-05T20:05:03.022Z</time>
      </trkpt>
      <trkpt lat="48.84238" lon="2.30204">
        <ele>116.7</ele>
        <time>2015-05-05T20:05:04.039Z</time>
      </trkpt>
      <trkpt lat="48.8423" lon="2.30183">
        <ele>116.6</ele>
        <time>2015-05-05T20:05:06.978Z</time>
      </trkpt>
      <trkpt lat="48.84228" lon="2.30174">
        <ele>117.6</ele>
        <time>2015-05-05T20:05:08.012Z</time>
      </trkpt>
      <trkpt lat="48.84225" lon="2.30165">
        <ele>117.8</ele>
        <time>2015-05-05T20:05:09.024Z</time>
      </trkpt>
      <trkpt lat="48.84223" lon="2.30157">
        <ele>117.9</ele>
        <time>2015-05-05T20:05:10.057Z</time>
      </trkpt>
      <trkpt lat="48.84221" lon="2.30149">
        <ele>117.8</ele>
        <time>2015-05-05T20:05:11.083Z</time>
      </trkpt>
      <trkpt lat="48.84219" lon="2.30142">
        <ele>117.5</ele>
        <time>2015-05-05T20:05:12.006Z</time>
      </trkpt>
      <trkpt lat="48.84218" lon="2.30134">
        <ele>117.4</ele>
        <time>2015-05-05T20:05:13.005Z</time>
      </trkpt>
      <trkpt lat="48.84216" lon="2.30126">
        <ele>116.8</ele>
        <time>2015-05-05T20:05:14.019Z</time>
      </trkpt>
      <trkpt lat="48.84214" lon="2.30117">
        <ele>116.3</ele>
        <time>2015-05-05T20:05:15.025Z</time>
      </trkpt>
      <trkpt lat="48.84211" lon="2.30111">
        <ele>116.3</ele>
        <time>2015-05-05T20:05:16.045Z</time>
      </trkpt>
      <trkpt lat="48.84208" lon="2.30103">
        <ele>115.9</ele>
        <time>2015-05-05T20:05:17.062Z</time>
      </trkpt>
      <trkpt lat="48.84206" lon="2.30093">
        <ele>115.7</ele>
        <time>2015-05-05T20:05:18.077Z</time>
      </trkpt>
      <trkpt lat="48.84203" lon="2.30084">
        <ele>115.7</ele>
        <time>2015-05-05T20:05:19.102Z</time>
      </trkpt>
      <trkpt lat="48.84201" lon="2.30074">
        <ele>115.8</ele>
        <time>2015-05-05T20:05:20.101Z</time>
      </trkpt>
      <trkpt lat="48.84198" lon="2.30064">
        <ele>116.1</ele>
        <time>2015-05-05T20:05:20.983Z</time>
      </trkpt>
      <trkpt lat="48.84196" lon="2.30055">
        <ele>116</ele>
        <time>2015-05-05T20:05:22.043Z</time>
      </trkpt>
      <trkpt lat="48.8419" lon="2.30037">
        <ele>115.6</ele>
        <time>2015-05-05T20:05:24.048Z</time>
      </trkpt>
      <trkpt lat="48.84187" lon="2.3003">
        <ele>115.9</ele>
        <time>2015-05-05T20:05:25.075Z</time>
      </trkpt>
      <trkpt lat="48.84185" lon="2.3002">
        <ele>116.4</ele>
        <time>2015-05-05T20:05:26.079Z</time>
      </trkpt>
      <trkpt lat="48.84182" lon="2.30012">
        <ele>116.7</ele>
        <time>2015-05-05T20:05:27.094Z</time>
      </trkpt>
      <trkpt lat="48.84179" lon="2.30003">
        <ele>116.5</ele>
        <time>2015-05-05T20:05:28.105Z</time>
      </trkpt>
      <trkpt lat="48.84179" lon="2.29993">
        <ele>116.1</ele>
        <time>2015-05-05T20:05:29.008Z</time>
      </trkpt>
      <trkpt lat="48.84178" lon="2.29985">
        <ele>115.9</ele>
        <time>2015-05-05T20:05:30.017Z</time>
      </trkpt>
      <trkpt lat="48.84176" lon="2.29976">
        <ele>115.6</ele>
        <time>2015-05-05T20:05:31.025Z</time>
      </trkpt>
      <trkpt lat="48.84173" lon="2.29969">
        <ele>115.3</ele>
        <time>2015-05-05T20:05:32.036Z</time>
      </trkpt>
      <trkpt lat="48.84171" lon="2.29961">
        <ele>115.1</ele>
        <time>2015-05-05T20:05:33.058Z</time>
      </trkpt>
      <trkpt lat="48.8417" lon="2.29955">
        <ele>114.8</ele>
        <time>2015-05-05T20:05:34.072Z</time>
      </trkpt>
      <trkpt lat="48.8417" lon="2.29947">
        <ele>115</ele>
        <time>2015-05-05T20:05:35.104Z</time>
      </trkpt>
      <trkpt lat="48.8417" lon="2.29938">
        <ele>114.7</ele>
        <time>2015-05-05T20:05:36.108Z</time>
      </trkpt>
      <trkpt lat="48.84168" lon="2.29928">
        <ele>114.8</ele>
        <time>2015-05-05T20:05:37.120Z</time>
      </trkpt>
      <trkpt lat="48.84165" lon="2.2992">
        <ele>115.1</ele>
        <time>2015-05-05T20:05:38.021Z</time>
      </trkpt>
      <trkpt lat="48.84163" lon="2.29912">
        <ele>115</ele>
        <time>2015-05-05T20:05:39.015Z</time>
      </trkpt>
      <trkpt lat="48.84147" lon="2.29872">
        <ele>115.1</ele>
        <time>2015-05-05T20:05:44.123Z</time>
      </trkpt>
      <trkpt lat="48.84144" lon="2.29864">
        <ele>115</ele>
        <time>2015-05-05T20:05:45.015Z</time>
      </trkpt>
      <trkpt lat="48.8414" lon="2.29855">
        <ele>115.3</ele>
        <time>2015-05-05T20:05:46.050Z</time>
      </trkpt>
      <trkpt lat="48.84136" lon="2.29847">
        <ele>115.9</ele>
        <time>2015-05-05T20:05:47.061Z</time>
      </trkpt>
      <trkpt lat="48.84133" lon="2.29838">
        <ele>116.1</ele>
        <time>2015-05-05T20:05:48.066Z</time>
      </trkpt>
      <trkpt lat="48.8413" lon="2.29827">
        <ele>116.6</ele>
        <time>2015-05-05T20:05:49.088Z</time>
      </trkpt>
      <trkpt lat="48.84127" lon="2.29817">
        <ele>116.8</ele>
        <time>2015-05-05T20:05:50.096Z</time>
      </trkpt>
      <trkpt lat="48.84125" lon="2.29807">
        <ele>116.6</ele>
        <time>2015-05-05T20:05:51.007Z</time>
      </trkpt>
      <trkpt lat="48.84123" lon="2.29798">
        <ele>116.8</ele>
        <time>2015-05-05T20:05:52.060Z</time>
      </trkpt>
      <trkpt lat="48.84121" lon="2.29789">
        <ele>117.2</ele>
        <time>2015-05-05T20:05:53.055Z</time>
      </trkpt>
      <trkpt lat="48.8412" lon="2.29782">
        <ele>117.5</ele>
        <time>2015-05-05T20:05:54.089Z</time>
      </trkpt>
      <trkpt lat="48.84118" lon="2.29776">
        <ele>117.5</ele>
        <time>2015-05-05T20:05:54.996Z</time>
      </trkpt>
      <trkpt lat="48.84115" lon="2.29768">
        <ele>117.5</ele>
        <time>2015-05-05T20:05:56.007Z</time>
      </trkpt>
      <trkpt lat="48.84113" lon="2.2976">
        <ele>117.5</ele>
        <time>2015-05-05T20:05:57.029Z</time>
      </trkpt>
      <trkpt lat="48.8411" lon="2.2975">
        <ele>117.2</ele>
        <time>2015-05-05T20:05:58.041Z</time>
      </trkpt>
      <trkpt lat="48.84106" lon="2.2974">
        <ele>117.1</ele>
        <time>2015-05-05T20:05:59.044Z</time>
      </trkpt>
      <trkpt lat="48.84103" lon="2.2973">
        <ele>117.2</ele>
        <time>2015-05-05T20:06:00.060Z</time>
      </trkpt>
      <trkpt lat="48.841" lon="2.29721">
        <ele>117.2</ele>
        <time>2015-05-05T20:06:01.078Z</time>
      </trkpt>
      <trkpt lat="48.84097" lon="2.29712">
        <ele>117.7</ele>
        <time>2015-05-05T20:06:02.092Z</time>
      </trkpt>
      <trkpt lat="48.84095" lon="2.29703">
        <ele>117.8</ele>
        <time>2015-05-05T20:06:03.099Z</time>
      </trkpt>
      <trkpt lat="48.84092" lon="2.29695">
        <ele>118</ele>
        <time>2015-05-05T20:06:04.108Z</time>
      </trkpt>
      <trkpt lat="48.8409" lon="2.29684">
        <ele>118.2</ele>
        <time>2015-05-05T20:06:06.032Z</time>
      </trkpt>
      <trkpt lat="48.84089" lon="2.29678">
        <ele>117.6</ele>
        <time>2015-05-05T20:06:07.043Z</time>
      </trkpt>
      <trkpt lat="48.84086" lon="2.29671">
        <ele>117.4</ele>
        <time>2015-05-05T20:06:08.051Z</time>
      </trkpt>
      <trkpt lat="48.84083" lon="2.29662">
        <ele>117.5</ele>
        <time>2015-05-05T20:06:09.062Z</time>
      </trkpt>
      <trkpt lat="48.84081" lon="2.29654">
        <ele>117.6</ele>
        <time>2015-05-05T20:06:10.058Z</time>
      </trkpt>
      <trkpt lat="48.84076" lon="2.29645">
        <ele>117.6</ele>
        <time>2015-05-05T20:06:11.010Z</time>
      </trkpt>
      <trkpt lat="48.84072" lon="2.29638">
        <ele>117.6</ele>
        <time>2015-05-05T20:06:12.022Z</time>
      </trkpt>
      <trkpt lat="48.84069" lon="2.29632">
        <ele>117.5</ele>
        <time>2015-05-05T20:06:13.041Z</time>
      </trkpt>
      <trkpt lat="48.84068" lon="2.29625">
        <ele>117.3</ele>
        <time>2015-05-05T20:06:14.059Z</time>
      </trkpt>
      <trkpt lat="48.84067" lon="2.29618">
        <ele>117</ele>
        <time>2015-05-05T20:06:15.060Z</time>
      </trkpt>
      <trkpt lat="48.84064" lon="2.29608">
        <ele>117.3</ele>
        <time>2015-05-05T20:06:17.001Z</time>
      </trkpt>
      <trkpt lat="48.84062" lon="2.296">
        <ele>117.9</ele>
        <time>2015-05-05T20:06:18.025Z</time>
      </trkpt>
      <trkpt lat="48.84059" lon="2.29593">
        <ele>118.7</ele>
        <time>2015-05-05T20:06:19.085Z</time>
      </trkpt>
      <trkpt lat="48.84058" lon="2.29588">
        <ele>119.1</ele>
        <time>2015-05-05T20:06:20.002Z</time>
      </trkpt>
      <trkpt lat="48.84054" lon="2.29575">
        <ele>119.4</ele>
        <time>2015-05-05T20:06:23.049Z</time>
      </trkpt>
      <trkpt lat="48.84052" lon="2.2957">
        <ele>119.4</ele>
        <time>2015-05-05T20:06:24.066Z</time>
      </trkpt>
      <trkpt lat="48.84049" lon="2.29564">
        <ele>119.3</ele>
        <time>2015-05-05T20:06:25.260Z</time>
      </trkpt>
      <trkpt lat="48.84046" lon="2.29557">
        <ele>119.1</ele>
        <time>2015-05-05T20:06:25.991Z</time>
      </trkpt>
      <trkpt lat="48.84043" lon="2.29551">
        <ele>119</ele>
        <time>2015-05-05T20:06:27.011Z</time>
      </trkpt>
      <trkpt lat="48.84042" lon="2.29545">
        <ele>118.5</ele>
        <time>2015-05-05T20:06:28.024Z</time>
      </trkpt>
      <trkpt lat="48.84039" lon="2.29533">
        <ele>118</ele>
        <time>2015-05-05T20:06:30.075Z</time>
      </trkpt>
      <trkpt lat="48.84036" lon="2.29528">
        <ele>117.8</ele>
        <time>2015-05-05T20:06:31.083Z</time>
      </trkpt>
      <trkpt lat="48.84034" lon="2.29521">
        <ele>117.7</ele>
        <time>2015-05-05T20:06:31.995Z</time>
      </trkpt>
      <trkpt lat="48.84031" lon="2.29512">
        <ele>117.6</ele>
        <time>2015-05-05T20:06:33.007Z</time>
      </trkpt>
      <trkpt lat="48.84028" lon="2.29504">
        <ele>117.4</ele>
        <time>2015-05-05T20:06:34.063Z</time>
      </trkpt>
      <trkpt lat="48.84025" lon="2.29496">
        <ele>117.5</ele>
        <time>2015-05-05T20:06:35.049Z</time>
      </trkpt>
      <trkpt lat="48.84022" lon="2.29487">
        <ele>117.3</ele>
        <time>2015-05-05T20:06:36.061Z</time>
      </trkpt>
      <trkpt lat="48.84019" lon="2.29478">
        <ele>117.2</ele>
        <time>2015-05-05T20:06:37.070Z</time>
      </trkpt>
      <trkpt lat="48.84018" lon="2.29469">
        <ele>116.8</ele>
        <time>2015-05-05T20:06:37.993Z</time>
      </trkpt>
      <trkpt lat="48.84015" lon="2.29461">
        <ele>116.7</ele>
        <time>2015-05-05T20:06:38.998Z</time>
      </trkpt>
      <trkpt lat="48.84012" lon="2.29453">
        <ele>116.4</ele>
        <time>2015-05-05T20:06:40.021Z</time>
      </trkpt>
      <trkpt lat="48.84009" lon="2.29446">
        <ele>116.2</ele>
        <time>2015-05-05T20:06:41.035Z</time>
      </trkpt>
      <trkpt lat="48.84004" lon="2.29434">
        <ele>115.5</ele>
        <time>2015-05-05T20:06:42.047Z</time>
      </trkpt>
      <trkpt lat="48.83996" lon="2.29413">
        <ele>114.5</ele>
        <time>2015-05-05T20:06:44.022Z</time>
      </trkpt>
      <trkpt lat="48.83986" lon="2.29378">
        <ele>113.6</ele>
        <time>2015-05-05T20:06:48.022Z</time>
      </trkpt>
      <trkpt lat="48.83985" lon="2.29369">
        <ele>113.6</ele>
        <time>2015-05-05T20:06:49.036Z</time>
      </trkpt>
      <trkpt lat="48.83983" lon="2.29362">
        <ele>113.6</ele>
        <time>2015-05-05T20:06:50.055Z</time>
      </trkpt>
      <trkpt lat="48.83979" lon="2.29355">
        <ele>113.6</ele>
        <time>2015-05-05T20:06:51.002Z</time>
      </trkpt>
      <trkpt lat="48.83976" lon="2.29348">
        <ele>113.4</ele>
        <time>2015-05-05T20:06:52.288Z</time>
      </trkpt>
      <trkpt lat="48.83974" lon="2.2934">
        <ele>112.9</ele>
        <time>2015-05-05T20:06:53.091Z</time>
      </trkpt>
      <trkpt lat="48.83972" lon="2.29333">
        <ele>112.5</ele>
        <time>2015-05-05T20:06:54.002Z</time>
      </trkpt>
      <trkpt lat="48.83969" lon="2.29327">
        <ele>112.3</ele>
        <time>2015-05-05T20:06:55.026Z</time>
      </trkpt>
      <trkpt lat="48.83967" lon="2.2932">
        <ele>112.3</ele>
        <time>2015-05-05T20:06:56.025Z</time>
      </trkpt>
      <trkpt lat="48.83965" lon="2.29314">
        <ele>112.6</ele>
        <time>2015-05-05T20:06:57.046Z</time>
      </trkpt>
      <trkpt lat="48.83964" lon="2.29305">
        <ele>113.8</ele>
        <time>2015-05-05T20:06:58.052Z</time>
      </trkpt>
      <trkpt lat="48.83961" lon="2.29299">
        <ele>114.3</ele>
        <time>2015-05-05T20:06:59.004Z</time>
      </trkpt>
      <trkpt lat="48.83959" lon="2.29291">
        <ele>113.9</ele>
        <time>2015-05-05T20:07:00.037Z</time>
      </trkpt>
      <trkpt lat="48.83957" lon="2.29284">
        <ele>113.8</ele>
        <time>2015-05-05T20:07:01.048Z</time>
      </trkpt>
      <trkpt lat="48.83954" lon="2.29277">
        <ele>113</ele>
        <time>2015-05-05T20:07:02.098Z</time>
      </trkpt>
      <trkpt lat="48.83949" lon="2.29265">
        <ele>112</ele>
        <time>2015-05-05T20:07:04.042Z</time>
      </trkpt>
      <trkpt lat="48.83946" lon="2.2926">
        <ele>111.9</ele>
        <time>2015-05-05T20:07:05.267Z</time>
      </trkpt>
      <trkpt lat="48.83941" lon="2.2925">
        <ele>111.8</ele>
        <time>2015-05-05T20:07:07.065Z</time>
      </trkpt>
      <trkpt lat="48.83939" lon="2.29245">
        <ele>111.9</ele>
        <time>2015-05-05T20:07:08.080Z</time>
      </trkpt>
      <trkpt lat="48.83934" lon="2.29234">
        <ele>111.8</ele>
        <time>2015-05-05T20:07:10.134Z</time>
      </trkpt>
      <trkpt lat="48.83933" lon="2.29229">
        <ele>112.1</ele>
        <time>2015-05-05T20:07:11.117Z</time>
      </trkpt>
      <trkpt lat="48.83929" lon="2.29218">
        <ele>112</ele>
        <time>2015-05-05T20:07:14.037Z</time>
      </trkpt>
      <trkpt lat="48.83929" lon="2.29216">
        <ele>111.5</ele>
        <time>2015-05-05T20:07:15.028Z</time>
      </trkpt>
      <trkpt lat="48.8393" lon="2.29209">
        <ele>101.8</ele>
        <time>2015-05-05T20:08:48.115Z</time>
      </trkpt>
      <trkpt lat="48.83925" lon="2.29188">
        <ele>97.9</ele>
        <time>2015-05-05T20:09:20.088Z</time>
      </trkpt>
      <trkpt lat="48.83922" lon="2.29175">
        <ele>97.4</ele>
        <time>2015-05-05T20:09:24.097Z</time>
      </trkpt>
      <trkpt lat="48.8392" lon="2.2917">
        <ele>97.3</ele>
        <time>2015-05-05T20:09:24.999Z</time>
      </trkpt>
      <trkpt lat="48.83917" lon="2.29158">
        <ele>97.5</ele>
        <time>2015-05-05T20:09:27.168Z</time>
      </trkpt>
      <trkpt lat="48.83917" lon="2.2915">
        <ele>97.8</ele>
        <time>2015-05-05T20:09:28.059Z</time>
      </trkpt>
      <trkpt lat="48.83915" lon="2.29138">
        <ele>97.6</ele>
        <time>2015-05-05T20:09:30.023Z</time>
      </trkpt>
      <trkpt lat="48.83915" lon="2.29132">
        <ele>97.5</ele>
        <time>2015-05-05T20:09:31.062Z</time>
      </trkpt>
      <trkpt lat="48.83911" lon="2.2912">
        <ele>97.2</ele>
        <time>2015-05-05T20:09:33.036Z</time>
      </trkpt>
      <trkpt lat="48.83908" lon="2.29114">
        <ele>97.2</ele>
        <time>2015-05-05T20:09:34.098Z</time>
      </trkpt>
      <trkpt lat="48.83906" lon="2.29108">
        <ele>97.1</ele>
        <time>2015-05-05T20:09:35.122Z</time>
      </trkpt>
      <trkpt lat="48.83905" lon="2.29101">
        <ele>97.2</ele>
        <time>2015-05-05T20:09:35.995Z</time>
      </trkpt>
      <trkpt lat="48.83903" lon="2.29094">
        <ele>97.2</ele>
        <time>2015-05-05T20:09:37.009Z</time>
      </trkpt>
      <trkpt lat="48.839" lon="2.29088">
        <ele>97</ele>
        <time>2015-05-05T20:09:38.039Z</time>
      </trkpt>
      <trkpt lat="48.83897" lon="2.29082">
        <ele>96.8</ele>
        <time>2015-05-05T20:09:39.072Z</time>
      </trkpt>
      <trkpt lat="48.83895" lon="2.29075">
        <ele>96.4</ele>
        <time>2015-05-05T20:09:40.088Z</time>
      </trkpt>
      <trkpt lat="48.83893" lon="2.29068">
        <ele>96.2</ele>
        <time>2015-05-05T20:09:41.140Z</time>
      </trkpt>
      <trkpt lat="48.83892" lon="2.2906">
        <ele>95.9</ele>
        <time>2015-05-05T20:09:42.022Z</time>
      </trkpt>
      <trkpt lat="48.8389" lon="2.29053">
        <ele>95.8</ele>
        <time>2015-05-05T20:09:43.074Z</time>
      </trkpt>
      <trkpt lat="48.83888" lon="2.29045">
        <ele>95.6</ele>
        <time>2015-05-05T20:09:44.055Z</time>
      </trkpt>
      <trkpt lat="48.83887" lon="2.29037">
        <ele>95.6</ele>
        <time>2015-05-05T20:09:44.956Z</time>
      </trkpt>
      <trkpt lat="48.83886" lon="2.29027">
        <ele>95.7</ele>
        <time>2015-05-05T20:09:46.046Z</time>
      </trkpt>
      <trkpt lat="48.83869" lon="2.28976">
        <ele>95.8</ele>
        <time>2015-05-05T20:09:54.046Z</time>
      </trkpt>
      <trkpt lat="48.83863" lon="2.28968">
        <ele>96.9</ele>
        <time>2015-05-05T20:09:55.980Z</time>
      </trkpt>
      <trkpt lat="48.8386" lon="2.28963">
        <ele>97.2</ele>
        <time>2015-05-05T20:09:57.028Z</time>
      </trkpt>
      <trkpt lat="48.83855" lon="2.28954">
        <ele>97.7</ele>
        <time>2015-05-05T20:09:59.078Z</time>
      </trkpt>
      <trkpt lat="48.83853" lon="2.28951">
        <ele>98.1</ele>
        <time>2015-05-05T20:09:59.986Z</time>
      </trkpt>
      <trkpt lat="48.83851" lon="2.28945">
        <ele>98.8</ele>
        <time>2015-05-05T20:10:02.059Z</time>
      </trkpt>
      <trkpt lat="48.83853" lon="2.28934">
        <ele>98.7</ele>
        <time>2015-05-05T20:10:03.068Z</time>
      </trkpt>
      <trkpt lat="48.83852" lon="2.28925">
        <ele>99.2</ele>
        <time>2015-05-05T20:10:04.097Z</time>
      </trkpt>
      <trkpt lat="48.83851" lon="2.28916">
        <ele>99.8</ele>
        <time>2015-05-05T20:10:05Z</time>
      </trkpt>
      <trkpt lat="48.83843" lon="2.28893">
        <ele>99.9</ele>
        <time>2015-05-05T20:10:08.081Z</time>
      </trkpt>
      <trkpt lat="48.83842" lon="2.28885">
        <ele>100</ele>
        <time>2015-05-05T20:10:09.084Z</time>
      </trkpt>
      <trkpt lat="48.83839" lon="2.28877">
        <ele>100.2</ele>
        <time>2015-05-05T20:10:10.096Z</time>
      </trkpt>
      <trkpt lat="48.83811" lon="2.28753">
        <ele>101</ele>
        <time>2015-05-05T20:10:27.076Z</time>
      </trkpt>
      <trkpt lat="48.8381" lon="2.28746">
        <ele>101.5</ele>
        <time>2015-05-05T20:10:28.915Z</time>
      </trkpt>
      <trkpt lat="48.83809" lon="2.28738">
        <ele>102.1</ele>
        <time>2015-05-05T20:10:28.985Z</time>
      </trkpt>
      <trkpt lat="48.83809" lon="2.2873">
        <ele>102.5</ele>
        <time>2015-05-05T20:10:30.001Z</time>
      </trkpt>
      <trkpt lat="48.83807" lon="2.28724">
        <ele>102.8</ele>
        <time>2015-05-05T20:10:31.044Z</time>
      </trkpt>
      <trkpt lat="48.83806" lon="2.28717">
        <ele>103.2</ele>
        <time>2015-05-05T20:10:32.061Z</time>
      </trkpt>
      <trkpt lat="48.83804" lon="2.2871">
        <ele>103.5</ele>
        <time>2015-05-05T20:10:33.077Z</time>
      </trkpt>
      <trkpt lat="48.83803" lon="2.28703">
        <ele>103.7</ele>
        <time>2015-05-05T20:10:34.083Z</time>
      </trkpt>
      <trkpt lat="48.838" lon="2.28695">
        <ele>104.1</ele>
        <time>2015-05-05T20:10:35.092Z</time>
      </trkpt>
      <trkpt lat="48.83796" lon="2.28686">
        <ele>104.4</ele>
        <time>2015-05-05T20:10:36.031Z</time>
      </trkpt>
      <trkpt lat="48.83793" lon="2.28676">
        <ele>104.7</ele>
        <time>2015-05-05T20:10:37.045Z</time>
      </trkpt>
      <trkpt lat="48.8379" lon="2.28665">
        <ele>105.8</ele>
        <time>2015-05-05T20:10:38.115Z</time>
      </trkpt>
      <trkpt lat="48.83788" lon="2.28655">
        <ele>106.7</ele>
        <time>2015-05-05T20:10:39.075Z</time>
      </trkpt>
      <trkpt lat="48.83785" lon="2.28644">
        <ele>106.7</ele>
        <time>2015-05-05T20:10:40.103Z</time>
      </trkpt>
      <trkpt lat="48.83782" lon="2.28635">
        <ele>106.1</ele>
        <time>2015-05-05T20:10:41.106Z</time>
      </trkpt>
      <trkpt lat="48.83781" lon="2.28625">
        <ele>106.1</ele>
        <time>2015-05-05T20:10:42.027Z</time>
      </trkpt>
      <trkpt lat="48.83761" lon="2.28558">
        <ele>102.6</ele>
        <time>2015-05-05T20:10:51.053Z</time>
      </trkpt>
      <trkpt lat="48.83757" lon="2.28552">
        <ele>102.4</ele>
        <time>2015-05-05T20:10:52.086Z</time>
      </trkpt>
      <trkpt lat="48.83754" lon="2.28544">
        <ele>102.5</ele>
        <time>2015-05-05T20:10:53.089Z</time>
      </trkpt>
      <trkpt lat="48.83752" lon="2.28535">
        <ele>103.1</ele>
        <time>2015-05-05T20:10:54.003Z</time>
      </trkpt>
      <trkpt lat="48.83749" lon="2.28528">
        <ele>103.1</ele>
        <time>2015-05-05T20:10:55.016Z</time>
      </trkpt>
      <trkpt lat="48.83746" lon="2.28521">
        <ele>102.9</ele>
        <time>2015-05-05T20:10:56.022Z</time>
      </trkpt>
      <trkpt lat="48.83744" lon="2.28515">
        <ele>103.1</ele>
        <time>2015-05-05T20:10:57.037Z</time>
      </trkpt>
      <trkpt lat="48.83741" lon="2.28502">
        <ele>103.9</ele>
        <time>2015-05-05T20:10:59.066Z</time>
      </trkpt>
      <trkpt lat="48.83739" lon="2.28495">
        <ele>104</ele>
        <time>2015-05-05T20:11:00.080Z</time>
      </trkpt>
      <trkpt lat="48.83735" lon="2.28484">
        <ele>104.2</ele>
        <time>2015-05-05T20:11:02.045Z</time>
      </trkpt>
      <trkpt lat="48.83733" lon="2.28477">
        <ele>104.5</ele>
        <time>2015-05-05T20:11:03.138Z</time>
      </trkpt>
      <trkpt lat="48.8373" lon="2.28468">
        <ele>104.6</ele>
        <time>2015-05-05T20:11:04.052Z</time>
      </trkpt>
      <trkpt lat="48.83727" lon="2.28461">
        <ele>104.7</ele>
        <time>2015-05-05T20:11:05.049Z</time>
      </trkpt>
      <trkpt lat="48.83723" lon="2.28453">
        <ele>104.9</ele>
        <time>2015-05-05T20:11:06.071Z</time>
      </trkpt>
      <trkpt lat="48.8372" lon="2.28445">
        <ele>105.4</ele>
        <time>2015-05-05T20:11:07.078Z</time>
      </trkpt>
      <trkpt lat="48.83717" lon="2.28438">
        <ele>105.8</ele>
        <time>2015-05-05T20:11:08.099Z</time>
      </trkpt>
      <trkpt lat="48.83714" lon="2.28432">
        <ele>106.7</ele>
        <time>2015-05-05T20:11:09.105Z</time>
      </trkpt>
      <trkpt lat="48.83711" lon="2.28424">
        <ele>107.2</ele>
        <time>2015-05-05T20:11:10.111Z</time>
      </trkpt>
      <trkpt lat="48.83707" lon="2.28416">
        <ele>107.5</ele>
        <time>2015-05-05T20:11:10.989Z</time>
      </trkpt>
      <trkpt lat="48.83703" lon="2.28408">
        <ele>107.8</ele>
        <time>2015-05-05T20:11:12.019Z</time>
      </trkpt>
      <trkpt lat="48.83698" lon="2.284">
        <ele>108.1</ele>
        <time>2015-05-05T20:11:13.027Z</time>
      </trkpt>
      <trkpt lat="48.83695" lon="2.28393">
        <ele>108.2</ele>
        <time>2015-05-05T20:11:14.036Z</time>
      </trkpt>
      <trkpt lat="48.83691" lon="2.28384">
        <ele>108</ele>
        <time>2015-05-05T20:11:15.049Z</time>
      </trkpt>
      <trkpt lat="48.83687" lon="2.28377">
        <ele>108.1</ele>
        <time>2015-05-05T20:11:16.055Z</time>
      </trkpt>
      <trkpt lat="48.83685" lon="2.28372">
        <ele>108.2</ele>
        <time>2015-05-05T20:11:17.060Z</time>
      </trkpt>
      <trkpt lat="48.83682" lon="2.28364">
        <ele>108.5</ele>
        <time>2015-05-05T20:11:19.079Z</time>
      </trkpt>
      <trkpt lat="48.83679" lon="2.2836">
        <ele>108.3</ele>
        <time>2015-05-05T20:11:20.039Z</time>
      </trkpt>
      <trkpt lat="48.83675" lon="2.28351">
        <ele>107.1</ele>
        <time>2015-05-05T20:11:22.064Z</time>
      </trkpt>
      <trkpt lat="48.83672" lon="2.28343">
        <ele>106.5</ele>
        <time>2015-05-05T20:11:23.078Z</time>
      </trkpt>
      <trkpt lat="48.8367" lon="2.28334">
        <ele>106</ele>
        <time>2015-05-05T20:11:24.086Z</time>
      </trkpt>
      <trkpt lat="48.83669" lon="2.28324">
        <ele>105.5</ele>
        <time>2015-05-05T20:11:25.126Z</time>
      </trkpt>
      <trkpt lat="48.83668" lon="2.28317">
        <ele>104.7</ele>
        <time>2015-05-05T20:11:26.014Z</time>
      </trkpt>
      <trkpt lat="48.83666" lon="2.28309">
        <ele>104.9</ele>
        <time>2015-05-05T20:11:27.031Z</time>
      </trkpt>
      <trkpt lat="48.83663" lon="2.283">
        <ele>105.1</ele>
        <time>2015-05-05T20:11:28.075Z</time>
      </trkpt>
      <trkpt lat="48.8366" lon="2.28292">
        <ele>105.1</ele>
        <time>2015-05-05T20:11:29.072Z</time>
      </trkpt>
      <trkpt lat="48.83658" lon="2.28286">
        <ele>105.1</ele>
        <time>2015-05-05T20:11:30.046Z</time>
      </trkpt>
      <trkpt lat="48.83653" lon="2.28276">
        <ele>105.2</ele>
        <time>2015-05-05T20:11:31.019Z</time>
      </trkpt>
      <trkpt lat="48.83646" lon="2.28255">
        <ele>104.6</ele>
        <time>2015-05-05T20:11:34.073Z</time>
      </trkpt>
      <trkpt lat="48.83642" lon="2.28247">
        <ele>104.6</ele>
        <time>2015-05-05T20:11:35.015Z</time>
      </trkpt>
      <trkpt lat="48.83639" lon="2.2824">
        <ele>104.4</ele>
        <time>2015-05-05T20:11:36.022Z</time>
      </trkpt>
      <trkpt lat="48.83637" lon="2.28233">
        <ele>104.4</ele>
        <time>2015-05-05T20:11:37.055Z</time>
      </trkpt>
      <trkpt lat="48.83635" lon="2.28227">
        <ele>104.1</ele>
        <time>2015-05-05T20:11:38.093Z</time>
      </trkpt>
      <trkpt lat="48.83632" lon="2.28219">
        <ele>103.8</ele>
        <time>2015-05-05T20:11:38.995Z</time>
      </trkpt>
      <trkpt lat="48.8363" lon="2.28212">
        <ele>103.9</ele>
        <time>2015-05-05T20:11:40.025Z</time>
      </trkpt>
      <trkpt lat="48.83627" lon="2.28206">
        <ele>103.9</ele>
        <time>2015-05-05T20:11:41.050Z</time>
      </trkpt>
      <trkpt lat="48.83624" lon="2.282">
        <ele>103.7</ele>
        <time>2015-05-05T20:11:42.018Z</time>
      </trkpt>
      <trkpt lat="48.83622" lon="2.28194">
        <ele>103.5</ele>
        <time>2015-05-05T20:11:43.006Z</time>
      </trkpt>
      <trkpt lat="48.8362" lon="2.28188">
        <ele>103.7</ele>
        <time>2015-05-05T20:11:44.018Z</time>
      </trkpt>
      <trkpt lat="48.83619" lon="2.28181">
        <ele>103.6</ele>
        <time>2015-05-05T20:11:45.098Z</time>
      </trkpt>
      <trkpt lat="48.83617" lon="2.28175">
        <ele>103.4</ele>
        <time>2015-05-05T20:11:46.105Z</time>
      </trkpt>
      <trkpt lat="48.83614" lon="2.28168">
        <ele>103.5</ele>
        <time>2015-05-05T20:11:47.008Z</time>
      </trkpt>
      <trkpt lat="48.83611" lon="2.28162">
        <ele>103.5</ele>
        <time>2015-05-05T20:11:48.018Z</time>
      </trkpt>
      <trkpt lat="48.83608" lon="2.28156">
        <ele>103.4</ele>
        <time>2015-05-05T20:11:49.036Z</time>
      </trkpt>
      <trkpt lat="48.83605" lon="2.2815">
        <ele>103.3</ele>
        <time>2015-05-05T20:11:50.042Z</time>
      </trkpt>
      <trkpt lat="48.83603" lon="2.28146">
        <ele>102.6</ele>
        <time>2015-05-05T20:11:51.054Z</time>
      </trkpt>
      <trkpt lat="48.83597" lon="2.28137">
        <ele>102</ele>
        <time>2015-05-05T20:11:53.104Z</time>
      </trkpt>
      <trkpt lat="48.83595" lon="2.28133">
        <ele>101.5</ele>
        <time>2015-05-05T20:11:54.072Z</time>
      </trkpt>
      <trkpt lat="48.8359" lon="2.28124">
        <ele>102.1</ele>
        <time>2015-05-05T20:11:57.034Z</time>
      </trkpt>
      <trkpt lat="48.83583" lon="2.2812">
        <ele>101.9</ele>
        <time>2015-05-05T20:12:00.031Z</time>
      </trkpt>
      <trkpt lat="48.8358" lon="2.28119">
        <ele>102.2</ele>
        <time>2015-05-05T20:12:01.019Z</time>
      </trkpt>
      <trkpt lat="48.83572" lon="2.28117">
        <ele>102.2</ele>
        <time>2015-05-05T20:12:03.033Z</time>
      </trkpt>
      <trkpt lat="48.83566" lon="2.28114">
        <ele>102.2</ele>
        <time>2015-05-05T20:12:04.087Z</time>
      </trkpt>
      <trkpt lat="48.83558" lon="2.28112">
        <ele>101.3</ele>
        <time>2015-05-05T20:12:06.081Z</time>
      </trkpt>
      <trkpt lat="48.83555" lon="2.28112">
        <ele>101.1</ele>
        <time>2015-05-05T20:12:07.093Z</time>
      </trkpt>
      <trkpt lat="48.83549" lon="2.28111">
        <ele>101.5</ele>
        <time>2015-05-05T20:12:09.013Z</time>
      </trkpt>
      <trkpt lat="48.83546" lon="2.2811">
        <ele>101.3</ele>
        <time>2015-05-05T20:12:10.051Z</time>
      </trkpt>
      <trkpt lat="48.8354" lon="2.28109">
        <ele>100.9</ele>
        <time>2015-05-05T20:12:12.092Z</time>
      </trkpt>
      <trkpt lat="48.83536" lon="2.28109">
        <ele>100.9</ele>
        <time>2015-05-05T20:12:13.010Z</time>
      </trkpt>
      <trkpt lat="48.8353" lon="2.28113">
        <ele>100.4</ele>
        <time>2015-05-05T20:12:15.063Z</time>
      </trkpt>
      <trkpt lat="48.83527" lon="2.28114">
        <ele>100.2</ele>
        <time>2015-05-05T20:12:16.081Z</time>
      </trkpt>
      <trkpt lat="48.83523" lon="2.28122">
        <ele>99.7</ele>
        <time>2015-05-05T20:12:18.024Z</time>
      </trkpt>
      <trkpt lat="48.83521" lon="2.28127">
        <ele>99.6</ele>
        <time>2015-05-05T20:12:19.042Z</time>
      </trkpt>
      <trkpt lat="48.83516" lon="2.28138">
        <ele>99</ele>
        <time>2015-05-05T20:12:21.023Z</time>
      </trkpt>
      <trkpt lat="48.83515" lon="2.28145">
        <ele>98.8</ele>
        <time>2015-05-05T20:12:22.111Z</time>
      </trkpt>
      <trkpt lat="48.83513" lon="2.28153">
        <ele>98.6</ele>
        <time>2015-05-05T20:12:23.033Z</time>
      </trkpt>
      <trkpt lat="48.83511" lon="2.28159">
        <ele>98.8</ele>
        <time>2015-05-05T20:12:24.024Z</time>
      </trkpt>
      <trkpt lat="48.83509" lon="2.28166">
        <ele>99</ele>
        <time>2015-05-05T20:12:25.046Z</time>
      </trkpt>
      <trkpt lat="48.83507" lon="2.28172">
        <ele>98.8</ele>
        <time>2015-05-05T20:12:26.072Z</time>
      </trkpt>
      <trkpt lat="48.83504" lon="2.28181">
        <ele>98.7</ele>
        <time>2015-05-05T20:12:26.583Z</time>
      </trkpt>
      <trkpt lat="48.83503" lon="2.28187">
        <ele>98.8</ele>
        <time>2015-05-05T20:12:28.993Z</time>
      </trkpt>
      <trkpt lat="48.835" lon="2.28198">
        <ele>98.8</ele>
        <time>2015-05-05T20:12:31.725Z</time>
      </trkpt>
      <trkpt lat="48.83499" lon="2.28205">
        <ele>99</ele>
        <time>2015-05-05T20:12:32.067Z</time>
      </trkpt>
      <trkpt lat="48.83495" lon="2.28215">
        <ele>99.2</ele>
        <time>2015-05-05T20:12:34.052Z</time>
      </trkpt>
      <trkpt lat="48.83493" lon="2.2822">
        <ele>99.1</ele>
        <time>2015-05-05T20:12:35.031Z</time>
      </trkpt>
      <trkpt lat="48.83489" lon="2.28229">
        <ele>99.2</ele>
        <time>2015-05-05T20:12:37.054Z</time>
      </trkpt>
      <trkpt lat="48.83487" lon="2.28235">
        <ele>99.3</ele>
        <time>2015-05-05T20:12:38.092Z</time>
      </trkpt>
      <trkpt lat="48.83484" lon="2.28245">
        <ele>99.4</ele>
        <time>2015-05-05T20:12:40.115Z</time>
      </trkpt>
      <trkpt lat="48.83481" lon="2.28251">
        <ele>99.2</ele>
        <time>2015-05-05T20:12:41.063Z</time>
      </trkpt>
      <trkpt lat="48.83477" lon="2.28263">
        <ele>98.9</ele>
        <time>2015-05-05T20:12:43.385Z</time>
      </trkpt>
      <trkpt lat="48.83474" lon="2.28268">
        <ele>98.8</ele>
        <time>2015-05-05T20:12:44.082Z</time>
      </trkpt>
      <trkpt lat="48.8347" lon="2.28279">
        <ele>99</ele>
        <time>2015-05-05T20:12:46.066Z</time>
      </trkpt>
      <trkpt lat="48.83468" lon="2.28284">
        <ele>99</ele>
        <time>2015-05-05T20:12:47.026Z</time>
      </trkpt>
      <trkpt lat="48.83463" lon="2.28295">
        <ele>98.9</ele>
        <time>2015-05-05T20:12:49.093Z</time>
      </trkpt>
      <trkpt lat="48.83461" lon="2.28301">
        <ele>98.7</ele>
        <time>2015-05-05T20:12:50.022Z</time>
      </trkpt>
      <trkpt lat="48.83457" lon="2.28312">
        <ele>98.7</ele>
        <time>2015-05-05T20:12:52.068Z</time>
      </trkpt>
      <trkpt lat="48.83455" lon="2.28317">
        <ele>98.5</ele>
        <time>2015-05-05T20:12:53.079Z</time>
      </trkpt>
      <trkpt lat="48.83451" lon="2.28327">
        <ele>98.4</ele>
        <time>2015-05-05T20:12:55.021Z</time>
      </trkpt>
      <trkpt lat="48.83448" lon="2.28332">
        <ele>98.2</ele>
        <time>2015-05-05T20:12:56.028Z</time>
      </trkpt>
      <trkpt lat="48.83444" lon="2.28341">
        <ele>97.7</ele>
        <time>2015-05-05T20:12:58.612Z</time>
      </trkpt>
      <trkpt lat="48.83442" lon="2.28346">
        <ele>98</ele>
        <time>2015-05-05T20:12:58.985Z</time>
      </trkpt>
      <trkpt lat="48.8344" lon="2.28353">
        <ele>98.4</ele>
        <time>2015-05-05T20:13:00.037Z</time>
      </trkpt>
      <trkpt lat="48.83439" lon="2.2836">
        <ele>98.6</ele>
        <time>2015-05-05T20:13:01.043Z</time>
      </trkpt>
      <trkpt lat="48.83435" lon="2.28371">
        <ele>98.3</ele>
        <time>2015-05-05T20:13:03.659Z</time>
      </trkpt>
      <trkpt lat="48.83433" lon="2.28376">
        <ele>98.1</ele>
        <time>2015-05-05T20:13:04.135Z</time>
      </trkpt>
      <trkpt lat="48.83432" lon="2.2838">
        <ele>98</ele>
        <time>2015-05-05T20:13:05.027Z</time>
      </trkpt>
      <trkpt lat="48.83428" lon="2.28387">
        <ele>98.8</ele>
        <time>2015-05-05T20:13:07.036Z</time>
      </trkpt>
      <trkpt lat="48.83422" lon="2.28393">
        <ele>99.4</ele>
        <time>2015-05-05T20:13:09.054Z</time>
      </trkpt>
      <trkpt lat="48.8342" lon="2.28395">
        <ele>99.3</ele>
        <time>2015-05-05T20:13:10.075Z</time>
      </trkpt>
      <trkpt lat="48.83413" lon="2.28399">
        <ele>99.4</ele>
        <time>2015-05-05T20:13:15.029Z</time>
      </trkpt>
      <trkpt lat="48.83411" lon="2.28398">
        <ele>99.3</ele>
        <time>2015-05-05T20:13:16.138Z</time>
      </trkpt>
      <trkpt lat="48.83403" lon="2.28396">
        <ele>99.6</ele>
        <time>2015-05-05T20:13:20.081Z</time>
      </trkpt>
      <trkpt lat="48.83401" lon="2.28393">
        <ele>100</ele>
        <time>2015-05-05T20:13:21.097Z</time>
      </trkpt>
      <trkpt lat="48.83396" lon="2.28385">
        <ele>100.2</ele>
        <time>2015-05-05T20:13:25.022Z</time>
      </trkpt>
      <trkpt lat="48.83394" lon="2.28381">
        <ele>99.7</ele>
        <time>2015-05-05T20:13:26.019Z</time>
      </trkpt>
      <trkpt lat="48.8339" lon="2.28372">
        <ele>99.5</ele>
        <time>2015-05-05T20:13:28.085Z</time>
      </trkpt>
      <trkpt lat="48.83387" lon="2.28367">
        <ele>99.5</ele>
        <time>2015-05-05T20:13:29.013Z</time>
      </trkpt>
      <trkpt lat="48.83384" lon="2.28362">
        <ele>99.6</ele>
        <time>2015-05-05T20:13:29.989Z</time>
      </trkpt>
      <trkpt lat="48.8338" lon="2.28357">
        <ele>99.7</ele>
        <time>2015-05-05T20:13:31Z</time>
      </trkpt>
      <trkpt lat="48.83378" lon="2.28352">
        <ele>99.9</ele>
        <time>2015-05-05T20:13:32.007Z</time>
      </trkpt>
      <trkpt lat="48.83373" lon="2.28346">
        <ele>99.9</ele>
        <time>2015-05-05T20:13:33.050Z</time>
      </trkpt>
      <trkpt lat="48.83368" lon="2.28337">
        <ele>100.2</ele>
        <time>2015-05-05T20:13:34.984Z</time>
      </trkpt>
      <trkpt lat="48.83365" lon="2.28334">
        <ele>100.1</ele>
        <time>2015-05-05T20:13:36.018Z</time>
      </trkpt>
      <trkpt lat="48.83362" lon="2.28328">
        <ele>99.4</ele>
        <time>2015-05-05T20:13:38.235Z</time>
      </trkpt>
      <trkpt lat="48.83359" lon="2.28322">
        <ele>98.8</ele>
        <time>2015-05-05T20:13:39.074Z</time>
      </trkpt>
      <trkpt lat="48.83354" lon="2.28316">
        <ele>98.6</ele>
        <time>2015-05-05T20:13:40.093Z</time>
      </trkpt>
      <trkpt lat="48.83352" lon="2.28311">
        <ele>97.9</ele>
        <time>2015-05-05T20:13:41.099Z</time>
      </trkpt>
      <trkpt lat="48.83347" lon="2.28301">
        <ele>96.7</ele>
        <time>2015-05-05T20:13:44.096Z</time>
      </trkpt>
      <trkpt lat="48.83344" lon="2.28298">
        <ele>96.9</ele>
        <time>2015-05-05T20:13:45.031Z</time>
      </trkpt>
      <trkpt lat="48.83341" lon="2.28293">
        <ele>96.7</ele>
        <time>2015-05-05T20:13:46.071Z</time>
      </trkpt>
      <trkpt lat="48.83338" lon="2.28287">
        <ele>96.8</ele>
        <time>2015-05-05T20:13:47.095Z</time>
      </trkpt>
      <trkpt lat="48.83334" lon="2.28276">
        <ele>96.3</ele>
        <time>2015-05-05T20:13:49.087Z</time>
      </trkpt>
      <trkpt lat="48.83331" lon="2.28271">
        <ele>96.5</ele>
        <time>2015-05-05T20:13:49.999Z</time>
      </trkpt>
      <trkpt lat="48.83326" lon="2.28264">
        <ele>96.3</ele>
        <time>2015-05-05T20:13:52.126Z</time>
      </trkpt>
      <trkpt lat="48.83325" lon="2.2826">
        <ele>96</ele>
        <time>2015-05-05T20:13:53.022Z</time>
      </trkpt>
      <trkpt lat="48.8332" lon="2.28253">
        <ele>95.6</ele>
        <time>2015-05-05T20:13:55.048Z</time>
      </trkpt>
      <trkpt lat="48.83317" lon="2.28249">
        <ele>95.6</ele>
        <time>2015-05-05T20:13:56.076Z</time>
      </trkpt>
      <trkpt lat="48.83314" lon="2.28245">
        <ele>95.9</ele>
        <time>2015-05-05T20:14:02.068Z</time>
      </trkpt>
      <trkpt lat="48.833" lon="2.28228">
        <ele>95.2</ele>
        <time>2015-05-05T20:14:03.083Z</time>
      </trkpt>
      <trkpt lat="48.83297" lon="2.28223">
        <ele>94.7</ele>
        <time>2015-05-05T20:14:04.124Z</time>
      </trkpt>
      <trkpt lat="48.83293" lon="2.28216">
        <ele>94.6</ele>
        <time>2015-05-05T20:14:05.011Z</time>
      </trkpt>
      <trkpt lat="48.83289" lon="2.2821">
        <ele>94.9</ele>
        <time>2015-05-05T20:14:06.037Z</time>
      </trkpt>
      <trkpt lat="48.83285" lon="2.28206">
        <ele>95</ele>
        <time>2015-05-05T20:14:07.040Z</time>
      </trkpt>
      <trkpt lat="48.8328" lon="2.282">
        <ele>95</ele>
        <time>2015-05-05T20:14:09.065Z</time>
      </trkpt>
      <trkpt lat="48.83277" lon="2.28199">
        <ele>95.2</ele>
        <time>2015-05-05T20:14:10.078Z</time>
      </trkpt>
      <trkpt lat="48.83271" lon="2.28194">
        <ele>95.8</ele>
        <time>2015-05-05T20:14:12.051Z</time>
      </trkpt>
      <trkpt lat="48.83267" lon="2.2819">
        <ele>96</ele>
        <time>2015-05-05T20:14:13.079Z</time>
      </trkpt>
      <trkpt lat="48.83262" lon="2.28184">
        <ele>96.2</ele>
        <time>2015-05-05T20:14:15.044Z</time>
      </trkpt>
      <trkpt lat="48.83255" lon="2.28176">
        <ele>95.6</ele>
        <time>2015-05-05T20:14:16.070Z</time>
      </trkpt>
      <trkpt lat="48.83248" lon="2.28168">
        <ele>95.4</ele>
        <time>2015-05-05T20:14:18.664Z</time>
      </trkpt>
      <trkpt lat="48.83244" lon="2.28165">
        <ele>95.5</ele>
        <time>2015-05-05T20:14:19.083Z</time>
      </trkpt>
      <trkpt lat="48.83239" lon="2.28158">
        <ele>95.8</ele>
        <time>2015-05-05T20:14:19.991Z</time>
      </trkpt>
      <trkpt lat="48.83235" lon="2.28154">
        <ele>95.5</ele>
        <time>2015-05-05T20:14:21.026Z</time>
      </trkpt>
      <trkpt lat="48.83231" lon="2.28148">
        <ele>95.5</ele>
        <time>2015-05-05T20:14:22.049Z</time>
      </trkpt>
      <trkpt lat="48.83227" lon="2.28143">
        <ele>95.5</ele>
        <time>2015-05-05T20:14:23.083Z</time>
      </trkpt>
      <trkpt lat="48.83227" lon="2.28143">
        <ele>95.5</ele>
        <time>2015-05-05T20:14:23.680Z</time>
      </trkpt>
      <trkpt lat="48.83222" lon="2.28131">
        <ele>95.2</ele>
        <time>2015-05-05T20:14:26.034Z</time>
      </trkpt>
      <trkpt lat="48.83212" lon="2.28103">
        <ele>94.9</ele>
        <time>2015-05-05T20:14:31.037Z</time>
      </trkpt>
      <trkpt lat="48.83206" lon="2.28099">
        <ele>94.7</ele>
        <time>2015-05-05T20:14:32.044Z</time>
      </trkpt>
      <trkpt lat="48.83201" lon="2.28097">
        <ele>94.4</ele>
        <time>2015-05-05T20:14:33.052Z</time>
      </trkpt>
      <trkpt lat="48.83193" lon="2.28095">
        <ele>94.8</ele>
        <time>2015-05-05T20:14:35.098Z</time>
      </trkpt>
      <trkpt lat="48.8319" lon="2.28095">
        <ele>95.4</ele>
        <time>2015-05-05T20:14:36.024Z</time>
      </trkpt>
      <trkpt lat="48.83182" lon="2.28095">
        <ele>93.4</ele>
        <time>2015-05-05T20:14:43.526Z</time>
      </trkpt>
      <trkpt lat="48.83181" lon="2.281">
        <ele>93.4</ele>
        <time>2015-05-05T20:14:44.023Z</time>
      </trkpt>
      <trkpt lat="48.83178" lon="2.28109">
        <ele>93.1</ele>
        <time>2015-05-05T20:14:46.137Z</time>
      </trkpt>
      <trkpt lat="48.83176" lon="2.28115">
        <ele>92.8</ele>
        <time>2015-05-05T20:14:47.028Z</time>
      </trkpt>
      <trkpt lat="48.83172" lon="2.28125">
        <ele>92.1</ele>
        <time>2015-05-05T20:14:49.001Z</time>
      </trkpt>
      <trkpt lat="48.8317" lon="2.2813">
        <ele>91.9</ele>
        <time>2015-05-05T20:14:50.030Z</time>
      </trkpt>
      <trkpt lat="48.83165" lon="2.28142">
        <ele>91.3</ele>
        <time>2015-05-05T20:14:52.073Z</time>
      </trkpt>
      <trkpt lat="48.83163" lon="2.28149">
        <ele>91.3</ele>
        <time>2015-05-05T20:14:53.070Z</time>
      </trkpt>
      <trkpt lat="48.8316" lon="2.28156">
        <ele>91.1</ele>
        <time>2015-05-05T20:14:54.136Z</time>
      </trkpt>
      <trkpt lat="48.83157" lon="2.28163">
        <ele>91</ele>
        <time>2015-05-05T20:14:55.034Z</time>
      </trkpt>
      <trkpt lat="48.83154" lon="2.2817">
        <ele>91</ele>
        <time>2015-05-05T20:14:56.028Z</time>
      </trkpt>
      <trkpt lat="48.83152" lon="2.28176">
        <ele>91</ele>
        <time>2015-05-05T20:14:57.055Z</time>
      </trkpt>
      <trkpt lat="48.8315" lon="2.28182">
        <ele>91</ele>
        <time>2015-05-05T20:14:58.070Z</time>
      </trkpt>
      <trkpt lat="48.83147" lon="2.28188">
        <ele>90.9</ele>
        <time>2015-05-05T20:14:59.086Z</time>
      </trkpt>
      <trkpt lat="48.83144" lon="2.28194">
        <ele>90.8</ele>
        <time>2015-05-05T20:15:00.010Z</time>
      </trkpt>
      <trkpt lat="48.83141" lon="2.28201">
        <ele>90.7</ele>
        <time>2015-05-05T20:15:01.045Z</time>
      </trkpt>
      <trkpt lat="48.83138" lon="2.28209">
        <ele>90.6</ele>
        <time>2015-05-05T20:15:02.097Z</time>
      </trkpt>
      <trkpt lat="48.83135" lon="2.28216">
        <ele>90.4</ele>
        <time>2015-05-05T20:15:03.001Z</time>
      </trkpt>
      <trkpt lat="48.83132" lon="2.28223">
        <ele>90.5</ele>
        <time>2015-05-05T20:15:04.045Z</time>
      </trkpt>
      <trkpt lat="48.8313" lon="2.2823">
        <ele>90.4</ele>
        <time>2015-05-05T20:15:05.041Z</time>
      </trkpt>
      <trkpt lat="48.83127" lon="2.28237">
        <ele>90.5</ele>
        <time>2015-05-05T20:15:06.057Z</time>
      </trkpt>
      <trkpt lat="48.83125" lon="2.28243">
        <ele>90.5</ele>
        <time>2015-05-05T20:15:07.065Z</time>
      </trkpt>
      <trkpt lat="48.83122" lon="2.28249">
        <ele>90.5</ele>
        <time>2015-05-05T20:15:08.071Z</time>
      </trkpt>
      <trkpt lat="48.8312" lon="2.28256">
        <ele>90.4</ele>
        <time>2015-05-05T20:15:09.097Z</time>
      </trkpt>
      <trkpt lat="48.83118" lon="2.28263">
        <ele>90.4</ele>
        <time>2015-05-05T20:15:10.103Z</time>
      </trkpt>
      <trkpt lat="48.83115" lon="2.28272">
        <ele>90.1</ele>
        <time>2015-05-05T20:15:10.984Z</time>
      </trkpt>
      <trkpt lat="48.83113" lon="2.2828">
        <ele>89.9</ele>
        <time>2015-05-05T20:15:12Z</time>
      </trkpt>
      <trkpt lat="48.83111" lon="2.28289">
        <ele>89.8</ele>
        <time>2015-05-05T20:15:13.010Z</time>
      </trkpt>
      <trkpt lat="48.83109" lon="2.28296">
        <ele>89.8</ele>
        <time>2015-05-05T20:15:14.020Z</time>
      </trkpt>
      <trkpt lat="48.83106" lon="2.28302">
        <ele>90</ele>
        <time>2015-05-05T20:15:15.032Z</time>
      </trkpt>
      <trkpt lat="48.83104" lon="2.2831">
        <ele>89.9</ele>
        <time>2015-05-05T20:15:16.046Z</time>
      </trkpt>
      <trkpt lat="48.83103" lon="2.28318">
        <ele>89.6</ele>
        <time>2015-05-05T20:15:17.062Z</time>
      </trkpt>
      <trkpt lat="48.831" lon="2.28324">
        <ele>89.5</ele>
        <time>2015-05-05T20:15:18.073Z</time>
      </trkpt>
      <trkpt lat="48.83098" lon="2.28331">
        <ele>89.4</ele>
        <time>2015-05-05T20:15:19.084Z</time>
      </trkpt>
      <trkpt lat="48.83092" lon="2.28341">
        <ele>89.6</ele>
        <time>2015-05-05T20:15:21.029Z</time>
      </trkpt>
      <trkpt lat="48.8309" lon="2.28348">
        <ele>89.5</ele>
        <time>2015-05-05T20:15:22.076Z</time>
      </trkpt>
      <trkpt lat="48.83087" lon="2.28353">
        <ele>88.9</ele>
        <time>2015-05-05T20:15:23.011Z</time>
      </trkpt>
      <trkpt lat="48.83085" lon="2.28359">
        <ele>88.7</ele>
        <time>2015-05-05T20:15:24.017Z</time>
      </trkpt>
      <trkpt lat="48.83082" lon="2.28365">
        <ele>88.3</ele>
        <time>2015-05-05T20:15:25.041Z</time>
      </trkpt>
      <trkpt lat="48.8308" lon="2.28371">
        <ele>88.3</ele>
        <time>2015-05-05T20:15:26.052Z</time>
      </trkpt>
      <trkpt lat="48.83077" lon="2.28376">
        <ele>88.3</ele>
        <time>2015-05-05T20:15:27.062Z</time>
      </trkpt>
      <trkpt lat="48.83074" lon="2.28383">
        <ele>88.2</ele>
        <time>2015-05-05T20:15:28.082Z</time>
      </trkpt>
      <trkpt lat="48.83072" lon="2.28389">
        <ele>88.2</ele>
        <time>2015-05-05T20:15:28.998Z</time>
      </trkpt>
      <trkpt lat="48.83069" lon="2.28395">
        <ele>88.3</ele>
        <time>2015-05-05T20:15:30.028Z</time>
      </trkpt>
      <trkpt lat="48.83067" lon="2.28402">
        <ele>88.2</ele>
        <time>2015-05-05T20:15:31.041Z</time>
      </trkpt>
      <trkpt lat="48.83065" lon="2.28408">
        <ele>88.3</ele>
        <time>2015-05-05T20:15:32.058Z</time>
      </trkpt>
      <trkpt lat="48.83062" lon="2.28414">
        <ele>88.6</ele>
        <time>2015-05-05T20:15:33.065Z</time>
      </trkpt>
      <trkpt lat="48.83059" lon="2.2842">
        <ele>88.8</ele>
        <time>2015-05-05T20:15:34.075Z</time>
      </trkpt>
      <trkpt lat="48.83056" lon="2.28431">
        <ele>88.9</ele>
        <time>2015-05-05T20:15:36.108Z</time>
      </trkpt>
      <trkpt lat="48.83054" lon="2.28436">
        <ele>88.6</ele>
        <time>2015-05-05T20:15:37.297Z</time>
      </trkpt>
      <trkpt lat="48.8305" lon="2.28447">
        <ele>88.5</ele>
        <time>2015-05-05T20:15:39.038Z</time>
      </trkpt>
      <trkpt lat="48.83048" lon="2.28451">
        <ele>88.4</ele>
        <time>2015-05-05T20:15:40.077Z</time>
      </trkpt>
      <trkpt lat="48.83043" lon="2.2846">
        <ele>88.7</ele>
        <time>2015-05-05T20:15:42.027Z</time>
      </trkpt>
      <trkpt lat="48.8304" lon="2.28464">
        <ele>89</ele>
        <time>2015-05-05T20:15:43.049Z</time>
      </trkpt>
      <trkpt lat="48.83034" lon="2.28468">
        <ele>89</ele>
        <time>2015-05-05T20:15:45.084Z</time>
      </trkpt>
      <trkpt lat="48.83031" lon="2.28467">
        <ele>89.6</ele>
        <time>2015-05-05T20:15:46.111Z</time>
      </trkpt>
      <trkpt lat="48.83024" lon="2.28464">
        <ele>90.3</ele>
        <time>2015-05-05T20:15:48.032Z</time>
      </trkpt>
      <trkpt lat="48.83022" lon="2.28462">
        <ele>90.4</ele>
        <time>2015-05-05T20:15:49.051Z</time>
      </trkpt>
      <trkpt lat="48.83019" lon="2.28459">
        <ele>90.5</ele>
        <time>2015-05-05T20:15:50.063Z</time>
      </trkpt>
      <trkpt lat="48.83012" lon="2.28454">
        <ele>90.8</ele>
        <time>2015-05-05T20:15:52.076Z</time>
      </trkpt>
      <trkpt lat="48.83006" lon="2.28455">
        <ele>90.8</ele>
        <time>2015-05-05T20:15:54.002Z</time>
      </trkpt>
      <trkpt lat="48.83003" lon="2.28458">
        <ele>90.8</ele>
        <time>2015-05-05T20:15:55.036Z</time>
      </trkpt>
      <trkpt lat="48.82996" lon="2.28465">
        <ele>91</ele>
        <time>2015-05-05T20:15:57.059Z</time>
      </trkpt>
      <trkpt lat="48.82993" lon="2.28469">
        <ele>91.4</ele>
        <time>2015-05-05T20:15:58.085Z</time>
      </trkpt>
      <trkpt lat="48.82986" lon="2.28478">
        <ele>92</ele>
        <time>2015-05-05T20:16:00.024Z</time>
      </trkpt>
      <trkpt lat="48.82983" lon="2.28483">
        <ele>92.2</ele>
        <time>2015-05-05T20:16:01.066Z</time>
      </trkpt>
      <trkpt lat="48.82977" lon="2.2849">
        <ele>92.7</ele>
        <time>2015-05-05T20:16:03.056Z</time>
      </trkpt>
      <trkpt lat="48.82973" lon="2.28494">
        <ele>93</ele>
        <time>2015-05-05T20:16:04.072Z</time>
      </trkpt>
      <trkpt lat="48.82967" lon="2.28501">
        <ele>93.2</ele>
        <time>2015-05-05T20:16:06.035Z</time>
      </trkpt>
      <trkpt lat="48.82964" lon="2.28505">
        <ele>93.3</ele>
        <time>2015-05-05T20:16:07.040Z</time>
      </trkpt>
      <trkpt lat="48.82958" lon="2.28513">
        <ele>93.2</ele>
        <time>2015-05-05T20:16:09.099Z</time>
      </trkpt>
      <trkpt lat="48.82955" lon="2.28517">
        <ele>93.5</ele>
        <time>2015-05-05T20:16:10.048Z</time>
      </trkpt>
      <trkpt lat="48.82948" lon="2.28526">
        <ele>93.7</ele>
        <time>2015-05-05T20:16:12.023Z</time>
      </trkpt>
      <trkpt lat="48.82945" lon="2.2853">
        <ele>93.8</ele>
        <time>2015-05-05T20:16:13.041Z</time>
      </trkpt>
      <trkpt lat="48.82939" lon="2.28538">
        <ele>93.6</ele>
        <time>2015-05-05T20:16:13.801Z</time>
      </trkpt>
      <trkpt lat="48.82937" lon="2.28542">
        <ele>93.6</ele>
        <time>2015-05-05T20:16:16.081Z</time>
      </trkpt>
      <trkpt lat="48.82932" lon="2.28551">
        <ele>94.1</ele>
        <time>2015-05-05T20:16:18.863Z</time>
      </trkpt>
      <trkpt lat="48.82928" lon="2.28553">
        <ele>94.5</ele>
        <time>2015-05-05T20:16:18.982Z</time>
      </trkpt>
      <trkpt lat="48.82923" lon="2.28554">
        <ele>94.8</ele>
        <time>2015-05-05T20:16:20.069Z</time>
      </trkpt>
      <trkpt lat="48.82918" lon="2.28555">
        <ele>95.3</ele>
        <time>2015-05-05T20:16:21.029Z</time>
      </trkpt>
      <trkpt lat="48.82911" lon="2.28558">
        <ele>96.3</ele>
        <time>2015-05-05T20:16:23.927Z</time>
      </trkpt>
      <trkpt lat="48.82907" lon="2.2856">
        <ele>96.4</ele>
        <time>2015-05-05T20:16:24.055Z</time>
      </trkpt>
      <trkpt lat="48.82901" lon="2.28563">
        <ele>97.1</ele>
        <time>2015-05-05T20:16:26.057Z</time>
      </trkpt>
      <trkpt lat="48.82897" lon="2.28564">
        <ele>97.4</ele>
        <time>2015-05-05T20:16:27.074Z</time>
      </trkpt>
      <trkpt lat="48.82888" lon="2.28565">
        <ele>98.1</ele>
        <time>2015-05-05T20:16:28.969Z</time>
      </trkpt>
      <trkpt lat="48.82885" lon="2.28565">
        <ele>98.6</ele>
        <time>2015-05-05T20:16:30.034Z</time>
      </trkpt>
      <trkpt lat="48.82877" lon="2.28567">
        <ele>99.2</ele>
        <time>2015-05-05T20:16:32.124Z</time>
      </trkpt>
      <trkpt lat="48.82874" lon="2.28568">
        <ele>99.4</ele>
        <time>2015-05-05T20:16:33.053Z</time>
      </trkpt>
      <trkpt lat="48.82867" lon="2.2857">
        <ele>99.6</ele>
        <time>2015-05-05T20:16:34.996Z</time>
      </trkpt>
      <trkpt lat="48.82862" lon="2.28572">
        <ele>100.3</ele>
        <time>2015-05-05T20:16:36.028Z</time>
      </trkpt>
      <trkpt lat="48.82853" lon="2.28574">
        <ele>100.5</ele>
        <time>2015-05-05T20:16:38.356Z</time>
      </trkpt>
      <trkpt lat="48.82849" lon="2.28575">
        <ele>100.8</ele>
        <time>2015-05-05T20:16:39.067Z</time>
      </trkpt>
      <trkpt lat="48.82841" lon="2.28576">
        <ele>100.7</ele>
        <time>2015-05-05T20:16:41.107Z</time>
      </trkpt>
      <trkpt lat="48.82837" lon="2.28575">
        <ele>100.7</ele>
        <time>2015-05-05T20:16:42Z</time>
      </trkpt>
      <trkpt lat="48.82829" lon="2.28575">
        <ele>100.9</ele>
        <time>2015-05-05T20:16:44.033Z</time>
      </trkpt>
      <trkpt lat="48.82824" lon="2.28576">
        <ele>101.1</ele>
        <time>2015-05-05T20:16:45.097Z</time>
      </trkpt>
      <trkpt lat="48.82816" lon="2.28579">
        <ele>101.5</ele>
        <time>2015-05-05T20:16:47.007Z</time>
      </trkpt>
      <trkpt lat="48.82795" lon="2.28582">
        <ele>100.9</ele>
        <time>2015-05-05T20:16:53.004Z</time>
      </trkpt>
      <trkpt lat="48.82787" lon="2.28587">
        <ele>101.6</ele>
        <time>2015-05-05T20:16:55.014Z</time>
      </trkpt>
      <trkpt lat="48.82782" lon="2.28589">
        <ele>101.9</ele>
        <time>2015-05-05T20:16:56.033Z</time>
      </trkpt>
      <trkpt lat="48.82773" lon="2.2859">
        <ele>102.6</ele>
        <time>2015-05-05T20:16:58.768Z</time>
      </trkpt>
      <trkpt lat="48.82769" lon="2.28592">
        <ele>103.1</ele>
        <time>2015-05-05T20:16:59.006Z</time>
      </trkpt>
      <trkpt lat="48.82761" lon="2.2859">
        <ele>103</ele>
        <time>2015-05-05T20:17:01.019Z</time>
      </trkpt>
      <trkpt lat="48.82758" lon="2.28591">
        <ele>103.3</ele>
        <time>2015-05-05T20:17:02.055Z</time>
      </trkpt>
      <trkpt lat="48.82752" lon="2.28594">
        <ele>103</ele>
        <time>2015-05-05T20:17:04.066Z</time>
      </trkpt>
      <trkpt lat="48.82749" lon="2.28596">
        <ele>102.9</ele>
        <time>2015-05-05T20:17:05.077Z</time>
      </trkpt>
      <trkpt lat="48.82742" lon="2.286">
        <ele>102.7</ele>
        <time>2015-05-05T20:17:07.118Z</time>
      </trkpt>
      <trkpt lat="48.82738" lon="2.28603">
        <ele>103</ele>
        <time>2015-05-05T20:17:08.028Z</time>
      </trkpt>
      <trkpt lat="48.8273" lon="2.28606">
        <ele>103.4</ele>
        <time>2015-05-05T20:17:08.925Z</time>
      </trkpt>
      <trkpt lat="48.82725" lon="2.28606">
        <ele>103.4</ele>
        <time>2015-05-05T20:17:11.092Z</time>
      </trkpt>
      <trkpt lat="48.8272" lon="2.28607">
        <ele>103.4</ele>
        <time>2015-05-05T20:17:12.104Z</time>
      </trkpt>
      <trkpt lat="48.82716" lon="2.28608">
        <ele>103.1</ele>
        <time>2015-05-05T20:17:13.054Z</time>
      </trkpt>
      <trkpt lat="48.8271" lon="2.28612">
        <ele>103.2</ele>
        <time>2015-05-05T20:17:15.008Z</time>
      </trkpt>
      <trkpt lat="48.82707" lon="2.28613">
        <ele>103</ele>
        <time>2015-05-05T20:17:16.029Z</time>
      </trkpt>
      <trkpt lat="48.82699" lon="2.28615">
        <ele>103</ele>
        <time>2015-05-05T20:17:19.027Z</time>
      </trkpt>
      <trkpt lat="48.82695" lon="2.28615">
        <ele>103.1</ele>
        <time>2015-05-05T20:17:19.069Z</time>
      </trkpt>
      <trkpt lat="48.82687" lon="2.28618">
        <ele>103.1</ele>
        <time>2015-05-05T20:17:21.225Z</time>
      </trkpt>
      <trkpt lat="48.82683" lon="2.2862">
        <ele>103.3</ele>
        <time>2015-05-05T20:17:22.064Z</time>
      </trkpt>
      <trkpt lat="48.82676" lon="2.28622">
        <ele>103.6</ele>
        <time>2015-05-05T20:17:24.081Z</time>
      </trkpt>
      <trkpt lat="48.82672" lon="2.28623">
        <ele>104.1</ele>
        <time>2015-05-05T20:17:25.075Z</time>
      </trkpt>
      <trkpt lat="48.82664" lon="2.28627">
        <ele>104.8</ele>
        <time>2015-05-05T20:17:28.060Z</time>
      </trkpt>
      <trkpt lat="48.8266" lon="2.28628">
        <ele>105.1</ele>
        <time>2015-05-05T20:17:29.076Z</time>
      </trkpt>
      <trkpt lat="48.82654" lon="2.28628">
        <ele>105.5</ele>
        <time>2015-05-05T20:17:31.023Z</time>
      </trkpt>
      <trkpt lat="48.82651" lon="2.28628">
        <ele>105.7</ele>
        <time>2015-05-05T20:17:32.034Z</time>
      </trkpt>
      <trkpt lat="48.82643" lon="2.28627">
        <ele>106.4</ele>
        <time>2015-05-05T20:17:35.069Z</time>
      </trkpt>
      <trkpt lat="48.82641" lon="2.28626">
        <ele>106.5</ele>
        <time>2015-05-05T20:17:36.088Z</time>
      </trkpt>
      <trkpt lat="48.82638" lon="2.28626">
        <ele>106.8</ele>
        <time>2015-05-05T20:17:42.075Z</time>
      </trkpt>
      <trkpt lat="48.82617" lon="2.28637">
        <ele>108.8</ele>
        <time>2015-05-05T20:17:53.025Z</time>
      </trkpt>
      <trkpt lat="48.8261" lon="2.28644">
        <ele>109.1</ele>
        <time>2015-05-05T20:17:56.077Z</time>
      </trkpt>
      <trkpt lat="48.82607" lon="2.28646">
        <ele>109.3</ele>
        <time>2015-05-05T20:17:57.013Z</time>
      </trkpt>
      <trkpt lat="48.82601" lon="2.28649">
        <ele>109.7</ele>
        <time>2015-05-05T20:17:59.069Z</time>
      </trkpt>
      <trkpt lat="48.82597" lon="2.28652">
        <ele>109.8</ele>
        <time>2015-05-05T20:18:00.022Z</time>
      </trkpt>
      <trkpt lat="48.82591" lon="2.28655">
        <ele>109.9</ele>
        <time>2015-05-05T20:18:02.066Z</time>
      </trkpt>
      <trkpt lat="48.82586" lon="2.28657">
        <ele>109.9</ele>
        <time>2015-05-05T20:18:03.073Z</time>
      </trkpt>
      <trkpt lat="48.82582" lon="2.2866">
        <ele>109.9</ele>
        <time>2015-05-05T20:18:04.089Z</time>
      </trkpt>
      <trkpt lat="48.82578" lon="2.28664">
        <ele>110</ele>
        <time>2015-05-05T20:18:04.992Z</time>
      </trkpt>
      <trkpt lat="48.82574" lon="2.28667">
        <ele>110.4</ele>
        <time>2015-05-05T20:18:06Z</time>
      </trkpt>
      <trkpt lat="48.8257" lon="2.28669">
        <ele>110.5</ele>
        <time>2015-05-05T20:18:07.057Z</time>
      </trkpt>
      <trkpt lat="48.82565" lon="2.28671">
        <ele>110.8</ele>
        <time>2015-05-05T20:18:08.662Z</time>
      </trkpt>
      <trkpt lat="48.82561" lon="2.28672">
        <ele>110.9</ele>
        <time>2015-05-05T20:18:08.990Z</time>
      </trkpt>
      <trkpt lat="48.82554" lon="2.28675">
        <ele>111.8</ele>
        <time>2015-05-05T20:18:11.081Z</time>
      </trkpt>
      <trkpt lat="48.8255" lon="2.28677">
        <ele>111.9</ele>
        <time>2015-05-05T20:18:12.098Z</time>
      </trkpt>
      <trkpt lat="48.82546" lon="2.28679">
        <ele>111.5</ele>
        <time>2015-05-05T20:18:13.026Z</time>
      </trkpt>
      <trkpt lat="48.82542" lon="2.28681">
        <ele>111.5</ele>
        <time>2015-05-05T20:18:14.033Z</time>
      </trkpt>
      <trkpt lat="48.82535" lon="2.28685">
        <ele>111.9</ele>
        <time>2015-05-05T20:18:16.059Z</time>
      </trkpt>
      <trkpt lat="48.82533" lon="2.28688">
        <ele>112.3</ele>
        <time>2015-05-05T20:18:17.080Z</time>
      </trkpt>
      <trkpt lat="48.82527" lon="2.28692">
        <ele>113.1</ele>
        <time>2015-05-05T20:18:19.047Z</time>
      </trkpt>
      <trkpt lat="48.82524" lon="2.28695">
        <ele>113.5</ele>
        <time>2015-05-05T20:18:20.079Z</time>
      </trkpt>
      <trkpt lat="48.82518" lon="2.28699">
        <ele>114.5</ele>
        <time>2015-05-05T20:18:23.898Z</time>
      </trkpt>
      <trkpt lat="48.82516" lon="2.28699">
        <ele>114.8</ele>
        <time>2015-05-05T20:18:25.034Z</time>
      </trkpt>
      <trkpt lat="48.82513" lon="2.28702">
        <ele>115.5</ele>
        <time>2015-05-05T20:18:51.037Z</time>
      </trkpt>
      <trkpt lat="48.82479" lon="2.28687">
        <ele>127</ele>
        <time>2015-05-05T20:19:37.065Z</time>
      </trkpt>
      <trkpt lat="48.82479" lon="2.28687">
        <ele>127</ele>
        <time>2015-05-05T20:19:49.039Z</time>
      </trkpt>
      <trkpt lat="48.82519" lon="2.28721">
        <ele>135.8</ele>
        <time>2015-05-05T20:19:58.961Z</time>
      </trkpt>
      <trkpt lat="48.82515" lon="2.28722">
        <ele>139.6</ele>
        <time>2015-05-05T20:21:09.043Z</time>
      </trkpt>
      <trkpt lat="48.82508" lon="2.28718">
        <ele>139.8</ele>
        <time>2015-05-05T20:21:10.073Z</time>
      </trkpt>
      <trkpt lat="48.825" lon="2.2872">
        <ele>138.6</ele>
        <time>2015-05-05T20:21:12.105Z</time>
      </trkpt>
      <trkpt lat="48.82496" lon="2.28723">
        <ele>137.6</ele>
        <time>2015-05-05T20:21:13Z</time>
      </trkpt>
      <trkpt lat="48.82492" lon="2.28726">
        <ele>136.8</ele>
        <time>2015-05-05T20:21:14.065Z</time>
      </trkpt>
      <trkpt lat="48.82487" lon="2.2873">
        <ele>135.8</ele>
        <time>2015-05-05T20:21:15.079Z</time>
      </trkpt>
      <trkpt lat="48.82482" lon="2.28733">
        <ele>135.7</ele>
        <time>2015-05-05T20:21:16.086Z</time>
      </trkpt>
      <trkpt lat="48.82476" lon="2.28734">
        <ele>135.5</ele>
        <time>2015-05-05T20:21:17.045Z</time>
      </trkpt>
      <trkpt lat="48.8247" lon="2.28736">
        <ele>135.2</ele>
        <time>2015-05-05T20:21:18.033Z</time>
      </trkpt>
      <trkpt lat="48.82465" lon="2.28737">
        <ele>134.9</ele>
        <time>2015-05-05T20:21:19.031Z</time>
      </trkpt>
      <trkpt lat="48.82458" lon="2.28741">
        <ele>134.8</ele>
        <time>2015-05-05T20:21:21.054Z</time>
      </trkpt>
      <trkpt lat="48.82455" lon="2.28742">
        <ele>134.9</ele>
        <time>2015-05-05T20:21:22.068Z</time>
      </trkpt>
      <trkpt lat="48.82446" lon="2.28745">
        <ele>134.8</ele>
        <time>2015-05-05T20:21:24.026Z</time>
      </trkpt>
      <trkpt lat="48.82442" lon="2.28748">
        <ele>134.9</ele>
        <time>2015-05-05T20:21:25.115Z</time>
      </trkpt>
      <trkpt lat="48.82438" lon="2.28749">
        <ele>134.9</ele>
        <time>2015-05-05T20:21:26.019Z</time>
      </trkpt>
      <trkpt lat="48.82433" lon="2.28753">
        <ele>134.7</ele>
        <time>2015-05-05T20:21:27.034Z</time>
      </trkpt>
      <trkpt lat="48.82427" lon="2.28758">
        <ele>134.4</ele>
        <time>2015-05-05T20:21:29.085Z</time>
      </trkpt>
      <trkpt lat="48.82424" lon="2.28758">
        <ele>134.2</ele>
        <time>2015-05-05T20:21:30.019Z</time>
      </trkpt>
      <trkpt lat="48.82416" lon="2.28762">
        <ele>133.9</ele>
        <time>2015-05-05T20:21:33.034Z</time>
      </trkpt>
      <trkpt lat="48.82408" lon="2.28764">
        <ele>131.7</ele>
        <time>2015-05-05T20:21:34.033Z</time>
      </trkpt>
      <trkpt lat="48.82403" lon="2.28766">
        <ele>131</ele>
        <time>2015-05-05T20:21:35.088Z</time>
      </trkpt>
      <trkpt lat="48.82397" lon="2.28769">
        <ele>130.3</ele>
        <time>2015-05-05T20:21:36.094Z</time>
      </trkpt>
      <trkpt lat="48.82392" lon="2.28772">
        <ele>130.2</ele>
        <time>2015-05-05T20:21:36.978Z</time>
      </trkpt>
      <trkpt lat="48.82388" lon="2.28776">
        <ele>130.1</ele>
        <time>2015-05-05T20:21:38.028Z</time>
      </trkpt>
      <trkpt lat="48.82383" lon="2.28779">
        <ele>129.6</ele>
        <time>2015-05-05T20:21:39.695Z</time>
      </trkpt>
      <trkpt lat="48.82377" lon="2.28782">
        <ele>128.9</ele>
        <time>2015-05-05T20:21:40.051Z</time>
      </trkpt>
      <trkpt lat="48.82373" lon="2.28785">
        <ele>128.3</ele>
        <time>2015-05-05T20:21:41.060Z</time>
      </trkpt>
      <trkpt lat="48.82369" lon="2.28788">
        <ele>128.4</ele>
        <time>2015-05-05T20:21:42.072Z</time>
      </trkpt>
      <trkpt lat="48.82364" lon="2.28792">
        <ele>128.2</ele>
        <time>2015-05-05T20:21:42.984Z</time>
      </trkpt>
      <trkpt lat="48.8236" lon="2.28795">
        <ele>128</ele>
        <time>2015-05-05T20:21:43.988Z</time>
      </trkpt>
      <trkpt lat="48.82356" lon="2.28799">
        <ele>128</ele>
        <time>2015-05-05T20:21:45.023Z</time>
      </trkpt>
      <trkpt lat="48.82351" lon="2.28802">
        <ele>128</ele>
        <time>2015-05-05T20:21:46.028Z</time>
      </trkpt>
      <trkpt lat="48.82347" lon="2.28805">
        <ele>128</ele>
        <time>2015-05-05T20:21:47.038Z</time>
      </trkpt>
      <trkpt lat="48.82342" lon="2.28809">
        <ele>128.1</ele>
        <time>2015-05-05T20:21:48.042Z</time>
      </trkpt>
      <trkpt lat="48.82338" lon="2.28812">
        <ele>128.2</ele>
        <time>2015-05-05T20:21:49.763Z</time>
      </trkpt>
      <trkpt lat="48.82333" lon="2.28816">
        <ele>128.4</ele>
        <time>2015-05-05T20:21:50.059Z</time>
      </trkpt>
      <trkpt lat="48.82329" lon="2.28819">
        <ele>128.5</ele>
        <time>2015-05-05T20:21:51.073Z</time>
      </trkpt>
      <trkpt lat="48.82324" lon="2.28824">
        <ele>128.8</ele>
        <time>2015-05-05T20:21:52.094Z</time>
      </trkpt>
      <trkpt lat="48.8232" lon="2.28827">
        <ele>129.1</ele>
        <time>2015-05-05T20:21:53.015Z</time>
      </trkpt>
      <trkpt lat="48.82315" lon="2.28832">
        <ele>129.4</ele>
        <time>2015-05-05T20:21:54.025Z</time>
      </trkpt>
      <trkpt lat="48.82311" lon="2.28836">
        <ele>129.5</ele>
        <time>2015-05-05T20:21:55.044Z</time>
      </trkpt>
      <trkpt lat="48.82306" lon="2.2884">
        <ele>129.6</ele>
        <time>2015-05-05T20:21:56.102Z</time>
      </trkpt>
      <trkpt lat="48.82298" lon="2.28845">
        <ele>129.8</ele>
        <time>2015-05-05T20:21:58.049Z</time>
      </trkpt>
      <trkpt lat="48.82294" lon="2.28847">
        <ele>129.3</ele>
        <time>2015-05-05T20:21:59.058Z</time>
      </trkpt>
      <trkpt lat="48.82287" lon="2.28853">
        <ele>129</ele>
        <time>2015-05-05T20:22:01.083Z</time>
      </trkpt>
      <trkpt lat="48.82282" lon="2.28854">
        <ele>129.2</ele>
        <time>2015-05-05T20:22:02.011Z</time>
      </trkpt>
      <trkpt lat="48.82278" lon="2.28857">
        <ele>129.3</ele>
        <time>2015-05-05T20:22:03.006Z</time>
      </trkpt>
      <trkpt lat="48.82273" lon="2.28859">
        <ele>129.5</ele>
        <time>2015-05-05T20:22:04.050Z</time>
      </trkpt>
      <trkpt lat="48.82269" lon="2.28861">
        <ele>129.6</ele>
        <time>2015-05-05T20:22:05.054Z</time>
      </trkpt>
      <trkpt lat="48.82264" lon="2.28862">
        <ele>129.4</ele>
        <time>2015-05-05T20:22:06.062Z</time>
      </trkpt>
      <trkpt lat="48.82256" lon="2.28869">
        <ele>128.9</ele>
        <time>2015-05-05T20:22:08.003Z</time>
      </trkpt>
      <trkpt lat="48.82252" lon="2.28873">
        <ele>128.6</ele>
        <time>2015-05-05T20:22:09.009Z</time>
      </trkpt>
      <trkpt lat="48.82248" lon="2.28878">
        <ele>128.6</ele>
        <time>2015-05-05T20:22:10.053Z</time>
      </trkpt>
      <trkpt lat="48.82244" lon="2.28882">
        <ele>128.5</ele>
        <time>2015-05-05T20:22:11.069Z</time>
      </trkpt>
      <trkpt lat="48.8224" lon="2.28886">
        <ele>128.3</ele>
        <time>2015-05-05T20:22:12.090Z</time>
      </trkpt>
      <trkpt lat="48.82236" lon="2.28889">
        <ele>128.4</ele>
        <time>2015-05-05T20:22:13.095Z</time>
      </trkpt>
      <trkpt lat="48.82228" lon="2.28895">
        <ele>128.4</ele>
        <time>2015-05-05T20:22:15.007Z</time>
      </trkpt>
      <trkpt lat="48.82224" lon="2.28899">
        <ele>128.7</ele>
        <time>2015-05-05T20:22:16.078Z</time>
      </trkpt>
      <trkpt lat="48.8222" lon="2.28903">
        <ele>128.8</ele>
        <time>2015-05-05T20:22:17.011Z</time>
      </trkpt>
      <trkpt lat="48.82215" lon="2.28907">
        <ele>129.2</ele>
        <time>2015-05-05T20:22:18.018Z</time>
      </trkpt>
      <trkpt lat="48.82211" lon="2.28912">
        <ele>129.5</ele>
        <time>2015-05-05T20:22:19.032Z</time>
      </trkpt>
      <trkpt lat="48.82206" lon="2.28915">
        <ele>129.7</ele>
        <time>2015-05-05T20:22:20.043Z</time>
      </trkpt>
      <trkpt lat="48.82201" lon="2.28919">
        <ele>129.9</ele>
        <time>2015-05-05T20:22:21.043Z</time>
      </trkpt>
      <trkpt lat="48.82196" lon="2.28922">
        <ele>130.4</ele>
        <time>2015-05-05T20:22:22.054Z</time>
      </trkpt>
      <trkpt lat="48.82192" lon="2.28926">
        <ele>130.8</ele>
        <time>2015-05-05T20:22:23.081Z</time>
      </trkpt>
      <trkpt lat="48.82189" lon="2.28932">
        <ele>130.7</ele>
        <time>2015-05-05T20:22:24.088Z</time>
      </trkpt>
      <trkpt lat="48.82186" lon="2.28938">
        <ele>130.8</ele>
        <time>2015-05-05T20:22:25.015Z</time>
      </trkpt>
      <trkpt lat="48.82182" lon="2.28942">
        <ele>130.9</ele>
        <time>2015-05-05T20:22:26.042Z</time>
      </trkpt>
      <trkpt lat="48.82174" lon="2.28949">
        <ele>130.9</ele>
        <time>2015-05-05T20:22:28.062Z</time>
      </trkpt>
      <trkpt lat="48.8217" lon="2.28953">
        <ele>130.8</ele>
        <time>2015-05-05T20:22:29.075Z</time>
      </trkpt>
      <trkpt lat="48.82165" lon="2.28955">
        <ele>131</ele>
        <time>2015-05-05T20:22:30.007Z</time>
      </trkpt>
      <trkpt lat="48.82161" lon="2.28959">
        <ele>130.7</ele>
        <time>2015-05-05T20:22:31.008Z</time>
      </trkpt>
      <trkpt lat="48.82156" lon="2.28961">
        <ele>130.5</ele>
        <time>2015-05-05T20:22:32.008Z</time>
      </trkpt>
      <trkpt lat="48.82152" lon="2.28964">
        <ele>130.5</ele>
        <time>2015-05-05T20:22:33.044Z</time>
      </trkpt>
      <trkpt lat="48.82145" lon="2.28968">
        <ele>130.6</ele>
        <time>2015-05-05T20:22:34.973Z</time>
      </trkpt>
      <trkpt lat="48.82142" lon="2.28971">
        <ele>130.6</ele>
        <time>2015-05-05T20:22:36.004Z</time>
      </trkpt>
      <trkpt lat="48.82135" lon="2.2898">
        <ele>130</ele>
        <time>2015-05-05T20:22:39.011Z</time>
      </trkpt>
      <trkpt lat="48.82133" lon="2.28984">
        <ele>129.7</ele>
        <time>2015-05-05T20:22:40.039Z</time>
      </trkpt>
      <trkpt lat="48.82128" lon="2.28991">
        <ele>129.4</ele>
        <time>2015-05-05T20:22:41.997Z</time>
      </trkpt>
      <trkpt lat="48.82125" lon="2.28994">
        <ele>129.3</ele>
        <time>2015-05-05T20:22:43.061Z</time>
      </trkpt>
      <trkpt lat="48.82117" lon="2.28999">
        <ele>128.8</ele>
        <time>2015-05-05T20:22:44.987Z</time>
      </trkpt>
      <trkpt lat="48.82113" lon="2.29001">
        <ele>128.4</ele>
        <time>2015-05-05T20:22:46.024Z</time>
      </trkpt>
      <trkpt lat="48.82105" lon="2.29005">
        <ele>128.2</ele>
        <time>2015-05-05T20:22:48.590Z</time>
      </trkpt>
      <trkpt lat="48.82102" lon="2.29008">
        <ele>128.1</ele>
        <time>2015-05-05T20:22:49.100Z</time>
      </trkpt>
      <trkpt lat="48.82094" lon="2.29012">
        <ele>127.7</ele>
        <time>2015-05-05T20:22:51.021Z</time>
      </trkpt>
      <trkpt lat="48.82091" lon="2.29013">
        <ele>127.4</ele>
        <time>2015-05-05T20:22:52.059Z</time>
      </trkpt>
      <trkpt lat="48.82084" lon="2.29016">
        <ele>126.8</ele>
        <time>2015-05-05T20:22:54.022Z</time>
      </trkpt>
      <trkpt lat="48.82081" lon="2.29018">
        <ele>126.5</ele>
        <time>2015-05-05T20:22:55.017Z</time>
      </trkpt>
      <trkpt lat="48.82074" lon="2.29025">
        <ele>126.4</ele>
        <time>2015-05-05T20:22:57.033Z</time>
      </trkpt>
      <trkpt lat="48.82071" lon="2.29028">
        <ele>126.3</ele>
        <time>2015-05-05T20:22:58.097Z</time>
      </trkpt>
      <trkpt lat="48.82064" lon="2.29035">
        <ele>126.3</ele>
        <time>2015-05-05T20:23:00.101Z</time>
      </trkpt>
      <trkpt lat="48.82062" lon="2.29038">
        <ele>126.3</ele>
        <time>2015-05-05T20:23:01.008Z</time>
      </trkpt>
      <trkpt lat="48.82058" lon="2.29038">
        <ele>126.6</ele>
        <time>2015-05-05T20:23:02.034Z</time>
      </trkpt>
      <trkpt lat="48.82053" lon="2.29039">
        <ele>126.7</ele>
        <time>2015-05-05T20:23:03.035Z</time>
      </trkpt>
      <trkpt lat="48.82045" lon="2.29043">
        <ele>126</ele>
        <time>2015-05-05T20:23:05.278Z</time>
      </trkpt>
      <trkpt lat="48.82041" lon="2.29044">
        <ele>125.8</ele>
        <time>2015-05-05T20:23:06.057Z</time>
      </trkpt>
      <trkpt lat="48.82035" lon="2.29047">
        <ele>126</ele>
        <time>2015-05-05T20:23:08.733Z</time>
      </trkpt>
      <trkpt lat="48.82032" lon="2.29049">
        <ele>126</ele>
        <time>2015-05-05T20:23:09.009Z</time>
      </trkpt>
      <trkpt lat="48.82027" lon="2.29056">
        <ele>126.6</ele>
        <time>2015-05-05T20:23:12.062Z</time>
      </trkpt>
      <trkpt lat="48.82025" lon="2.29059">
        <ele>126.8</ele>
        <time>2015-05-05T20:23:13.080Z</time>
      </trkpt>
      <trkpt lat="48.82022" lon="2.29068">
        <ele>127.8</ele>
        <time>2015-05-05T20:23:16.133Z</time>
      </trkpt>
      <trkpt lat="48.82021" lon="2.29073">
        <ele>127.9</ele>
        <time>2015-05-05T20:23:17.030Z</time>
      </trkpt>
      <trkpt lat="48.82018" lon="2.29083">
        <ele>128.1</ele>
        <time>2015-05-05T20:23:19.058Z</time>
      </trkpt>
      <trkpt lat="48.82018" lon="2.29087">
        <ele>128.3</ele>
        <time>2015-05-05T20:23:20.111Z</time>
      </trkpt>
      <trkpt lat="48.82018" lon="2.29099">
        <ele>128.7</ele>
        <time>2015-05-05T20:23:22.115Z</time>
      </trkpt>
      <trkpt lat="48.82018" lon="2.29104">
        <ele>128.6</ele>
        <time>2015-05-05T20:23:23.055Z</time>
      </trkpt>
      <trkpt lat="48.82018" lon="2.29115">
        <ele>129.1</ele>
        <time>2015-05-05T20:23:25.049Z</time>
      </trkpt>
      <trkpt lat="48.82018" lon="2.2912">
        <ele>129.3</ele>
        <time>2015-05-05T20:23:26.055Z</time>
      </trkpt>
      <trkpt lat="48.82015" lon="2.2913">
        <ele>129.1</ele>
        <time>2015-05-05T20:23:28.139Z</time>
      </trkpt>
      <trkpt lat="48.82014" lon="2.29135">
        <ele>129.2</ele>
        <time>2015-05-05T20:23:29.026Z</time>
      </trkpt>
      <trkpt lat="48.82011" lon="2.29145">
        <ele>129</ele>
        <time>2015-05-05T20:23:31.260Z</time>
      </trkpt>
      <trkpt lat="48.82009" lon="2.2915">
        <ele>129</ele>
        <time>2015-05-05T20:23:32.013Z</time>
      </trkpt>
      <trkpt lat="48.82006" lon="2.29162">
        <ele>128.8</ele>
        <time>2015-05-05T20:23:34.039Z</time>
      </trkpt>
      <trkpt lat="48.82004" lon="2.29169">
        <ele>128.9</ele>
        <time>2015-05-05T20:23:35.058Z</time>
      </trkpt>
      <trkpt lat="48.82003" lon="2.29177">
        <ele>128.9</ele>
        <time>2015-05-05T20:23:35.977Z</time>
      </trkpt>
      <trkpt lat="48.82001" lon="2.29184">
        <ele>128.8</ele>
        <time>2015-05-05T20:23:37.095Z</time>
      </trkpt>
      <trkpt lat="48.81999" lon="2.29192">
        <ele>128.7</ele>
        <time>2015-05-05T20:23:38.223Z</time>
      </trkpt>
      <trkpt lat="48.81996" lon="2.29201">
        <ele>128.6</ele>
        <time>2015-05-05T20:23:38.998Z</time>
      </trkpt>
      <trkpt lat="48.81994" lon="2.29208">
        <ele>128.5</ele>
        <time>2015-05-05T20:23:40.056Z</time>
      </trkpt>
      <trkpt lat="48.81991" lon="2.29216">
        <ele>128.5</ele>
        <time>2015-05-05T20:23:41.063Z</time>
      </trkpt>
      <trkpt lat="48.81991" lon="2.29226">
        <ele>128.4</ele>
        <time>2015-05-05T20:23:41.969Z</time>
      </trkpt>
      <trkpt lat="48.81989" lon="2.29234">
        <ele>128.4</ele>
        <time>2015-05-05T20:23:43.014Z</time>
      </trkpt>
      <trkpt lat="48.81988" lon="2.29242">
        <ele>128.4</ele>
        <time>2015-05-05T20:23:44.047Z</time>
      </trkpt>
      <trkpt lat="48.81986" lon="2.29248">
        <ele>128.5</ele>
        <time>2015-05-05T20:23:45.059Z</time>
      </trkpt>
      <trkpt lat="48.81984" lon="2.29255">
        <ele>128.7</ele>
        <time>2015-05-05T20:23:46.028Z</time>
      </trkpt>
      <trkpt lat="48.81983" lon="2.29261">
        <ele>128.9</ele>
        <time>2015-05-05T20:23:46.992Z</time>
      </trkpt>
      <trkpt lat="48.81981" lon="2.29268">
        <ele>129</ele>
        <time>2015-05-05T20:23:48.017Z</time>
      </trkpt>
      <trkpt lat="48.8198" lon="2.29275">
        <ele>128.9</ele>
        <time>2015-05-05T20:23:49.015Z</time>
      </trkpt>
      <trkpt lat="48.81978" lon="2.29282">
        <ele>128.9</ele>
        <time>2015-05-05T20:23:50.035Z</time>
      </trkpt>
      <trkpt lat="48.81976" lon="2.29289">
        <ele>129.1</ele>
        <time>2015-05-05T20:23:50.995Z</time>
      </trkpt>
      <trkpt lat="48.81974" lon="2.29297">
        <ele>129.1</ele>
        <time>2015-05-05T20:23:52.119Z</time>
      </trkpt>
      <trkpt lat="48.81972" lon="2.29304">
        <ele>129.1</ele>
        <time>2015-05-05T20:23:53.021Z</time>
      </trkpt>
      <trkpt lat="48.8197" lon="2.29312">
        <ele>130.2</ele>
        <time>2015-05-05T20:23:54.042Z</time>
      </trkpt>
      <trkpt lat="48.81968" lon="2.29319">
        <ele>130.5</ele>
        <time>2015-05-05T20:23:55.054Z</time>
      </trkpt>
      <trkpt lat="48.81966" lon="2.29325">
        <ele>130.3</ele>
        <time>2015-05-05T20:23:56.071Z</time>
      </trkpt>
      <trkpt lat="48.81964" lon="2.29333">
        <ele>130.4</ele>
        <time>2015-05-05T20:23:56.989Z</time>
      </trkpt>
      <trkpt lat="48.81961" lon="2.29339">
        <ele>130.2</ele>
        <time>2015-05-05T20:23:58.099Z</time>
      </trkpt>
      <trkpt lat="48.81958" lon="2.29345">
        <ele>130.1</ele>
        <time>2015-05-05T20:23:58.990Z</time>
      </trkpt>
      <trkpt lat="48.81954" lon="2.29358">
        <ele>130.1</ele>
        <time>2015-05-05T20:24:01.027Z</time>
      </trkpt>
      <trkpt lat="48.81954" lon="2.29362">
        <ele>130.1</ele>
        <time>2015-05-05T20:24:02.085Z</time>
      </trkpt>
      <trkpt lat="48.81952" lon="2.29369">
        <ele>130.3</ele>
        <time>2015-05-05T20:24:04.045Z</time>
      </trkpt>
      <trkpt lat="48.81949" lon="2.29378">
        <ele>130.2</ele>
        <time>2015-05-05T20:24:06.044Z</time>
      </trkpt>
      <trkpt lat="48.81948" lon="2.29387">
        <ele>130.3</ele>
        <time>2015-05-05T20:24:06.968Z</time>
      </trkpt>
      <trkpt lat="48.81948" lon="2.29396">
        <ele>130</ele>
        <time>2015-05-05T20:24:07.971Z</time>
      </trkpt>
      <trkpt lat="48.81946" lon="2.29405">
        <ele>129.8</ele>
        <time>2015-05-05T20:24:08.989Z</time>
      </trkpt>
      <trkpt lat="48.81945" lon="2.29411">
        <ele>129.9</ele>
        <time>2015-05-05T20:24:10.029Z</time>
      </trkpt>
      <trkpt lat="48.81943" lon="2.29418">
        <ele>129.9</ele>
        <time>2015-05-05T20:24:11.049Z</time>
      </trkpt>
      <trkpt lat="48.81942" lon="2.29425">
        <ele>129.8</ele>
        <time>2015-05-05T20:24:12.051Z</time>
      </trkpt>
      <trkpt lat="48.81941" lon="2.29437">
        <ele>129.6</ele>
        <time>2015-05-05T20:24:14.266Z</time>
      </trkpt>
      <trkpt lat="48.81939" lon="2.29446">
        <ele>129.5</ele>
        <time>2015-05-05T20:24:15.001Z</time>
      </trkpt>
      <trkpt lat="48.81937" lon="2.29455">
        <ele>128.8</ele>
        <time>2015-05-05T20:24:16.013Z</time>
      </trkpt>
      <trkpt lat="48.81934" lon="2.29463">
        <ele>127.5</ele>
        <time>2015-05-05T20:24:17.047Z</time>
      </trkpt>
      <trkpt lat="48.81932" lon="2.29471">
        <ele>126.8</ele>
        <time>2015-05-05T20:24:17.983Z</time>
      </trkpt>
      <trkpt lat="48.81931" lon="2.29477">
        <ele>126.3</ele>
        <time>2015-05-05T20:24:18.991Z</time>
      </trkpt>
      <trkpt lat="48.81931" lon="2.2949">
        <ele>126.7</ele>
        <time>2015-05-05T20:24:22.035Z</time>
      </trkpt>
      <trkpt lat="48.81932" lon="2.29495">
        <ele>126.7</ele>
        <time>2015-05-05T20:24:23.076Z</time>
      </trkpt>
      <trkpt lat="48.81934" lon="2.29505">
        <ele>126.8</ele>
        <time>2015-05-05T20:24:24.997Z</time>
      </trkpt>
      <trkpt lat="48.81935" lon="2.29517">
        <ele>127</ele>
        <time>2015-05-05T20:24:27.005Z</time>
      </trkpt>
      <trkpt lat="48.81937" lon="2.29528">
        <ele>127.1</ele>
        <time>2015-05-05T20:24:28.998Z</time>
      </trkpt>
      <trkpt lat="48.81938" lon="2.29532">
        <ele>127.2</ele>
        <time>2015-05-05T20:24:31.071Z</time>
      </trkpt>
      <trkpt lat="48.81937" lon="2.29545">
        <ele>127.6</ele>
        <time>2015-05-05T20:24:35.057Z</time>
      </trkpt>
      <trkpt lat="48.81937" lon="2.2955">
        <ele>127.6</ele>
        <time>2015-05-05T20:24:36.065Z</time>
      </trkpt>
      <trkpt lat="48.81933" lon="2.29558">
        <ele>128.5</ele>
        <time>2015-05-05T20:24:38.058Z</time>
      </trkpt>
      <trkpt lat="48.81931" lon="2.29562">
        <ele>129</ele>
        <time>2015-05-05T20:24:39.073Z</time>
      </trkpt>
      <trkpt lat="48.81927" lon="2.29572">
        <ele>129.2</ele>
        <time>2015-05-05T20:24:41.740Z</time>
      </trkpt>
      <trkpt lat="48.81926" lon="2.29576">
        <ele>129.3</ele>
        <time>2015-05-05T20:24:41.992Z</time>
      </trkpt>
      <trkpt lat="48.81922" lon="2.29586">
        <ele>131.3</ele>
        <time>2015-05-05T20:24:45.045Z</time>
      </trkpt>
      <trkpt lat="48.81921" lon="2.29589">
        <ele>131.5</ele>
        <time>2015-05-05T20:24:46.055Z</time>
      </trkpt>
      <trkpt lat="48.8192" lon="2.29599">
        <ele>130.8</ele>
        <time>2015-05-05T20:24:48.003Z</time>
      </trkpt>
      <trkpt lat="48.8192" lon="2.29604">
        <ele>130.6</ele>
        <time>2015-05-05T20:24:49.017Z</time>
      </trkpt>
      <trkpt lat="48.8192" lon="2.29616">
        <ele>130.2</ele>
        <time>2015-05-05T20:24:51.902Z</time>
      </trkpt>
      <trkpt lat="48.81921" lon="2.29622">
        <ele>130.7</ele>
        <time>2015-05-05T20:24:52.073Z</time>
      </trkpt>
      <trkpt lat="48.81923" lon="2.29633">
        <ele>131.6</ele>
        <time>2015-05-05T20:24:54.025Z</time>
      </trkpt>
      <trkpt lat="48.81924" lon="2.29639">
        <ele>131.3</ele>
        <time>2015-05-05T20:24:55.023Z</time>
      </trkpt>
      <trkpt lat="48.81924" lon="2.29651">
        <ele>131</ele>
        <time>2015-05-05T20:24:57.057Z</time>
      </trkpt>
      <trkpt lat="48.81923" lon="2.29658">
        <ele>131.1</ele>
        <time>2015-05-05T20:24:58.075Z</time>
      </trkpt>
      <trkpt lat="48.81923" lon="2.29665">
        <ele>131.5</ele>
        <time>2015-05-05T20:24:59.016Z</time>
      </trkpt>
      <trkpt lat="48.81922" lon="2.29672">
        <ele>131.6</ele>
        <time>2015-05-05T20:25:00.068Z</time>
      </trkpt>
      <trkpt lat="48.81922" lon="2.29686">
        <ele>131.4</ele>
        <time>2015-05-05T20:25:02.072Z</time>
      </trkpt>
      <trkpt lat="48.81922" lon="2.29693">
        <ele>131.4</ele>
        <time>2015-05-05T20:25:03.010Z</time>
      </trkpt>
      <trkpt lat="48.81921" lon="2.297">
        <ele>131.3</ele>
        <time>2015-05-05T20:25:04.055Z</time>
      </trkpt>
      <trkpt lat="48.81921" lon="2.29707">
        <ele>131.3</ele>
        <time>2015-05-05T20:25:05.037Z</time>
      </trkpt>
      <trkpt lat="48.81921" lon="2.29714">
        <ele>131.3</ele>
        <time>2015-05-05T20:25:06.068Z</time>
      </trkpt>
      <trkpt lat="48.8192" lon="2.29722">
        <ele>131.2</ele>
        <time>2015-05-05T20:25:07.062Z</time>
      </trkpt>
      <trkpt lat="48.81921" lon="2.2973">
        <ele>131.3</ele>
        <time>2015-05-05T20:25:08.082Z</time>
      </trkpt>
      <trkpt lat="48.81921" lon="2.29738">
        <ele>131.3</ele>
        <time>2015-05-05T20:25:09.042Z</time>
      </trkpt>
      <trkpt lat="48.81921" lon="2.29746">
        <ele>131.4</ele>
        <time>2015-05-05T20:25:10.044Z</time>
      </trkpt>
      <trkpt lat="48.81922" lon="2.29755">
        <ele>131.7</ele>
        <time>2015-05-05T20:25:10.979Z</time>
      </trkpt>
      <trkpt lat="48.81922" lon="2.29763">
        <ele>131.7</ele>
        <time>2015-05-05T20:25:12.002Z</time>
      </trkpt>
      <trkpt lat="48.81922" lon="2.29771">
        <ele>131.8</ele>
        <time>2015-05-05T20:25:13.004Z</time>
      </trkpt>
      <trkpt lat="48.81923" lon="2.29778">
        <ele>131.8</ele>
        <time>2015-05-05T20:25:14.010Z</time>
      </trkpt>
      <trkpt lat="48.81924" lon="2.29785">
        <ele>131.7</ele>
        <time>2015-05-05T20:25:15.023Z</time>
      </trkpt>
      <trkpt lat="48.81925" lon="2.29796">
        <ele>131.9</ele>
        <time>2015-05-05T20:25:17.040Z</time>
      </trkpt>
      <trkpt lat="48.81926" lon="2.29801">
        <ele>132.4</ele>
        <time>2015-05-05T20:25:18.071Z</time>
      </trkpt>
      <trkpt lat="48.81928" lon="2.29811">
        <ele>132.8</ele>
        <time>2015-05-05T20:25:20.005Z</time>
      </trkpt>
      <trkpt lat="48.81929" lon="2.29818">
        <ele>132.7</ele>
        <time>2015-05-05T20:25:21.036Z</time>
      </trkpt>
      <trkpt lat="48.81929" lon="2.29832">
        <ele>132.8</ele>
        <time>2015-05-05T20:25:23.010Z</time>
      </trkpt>
      <trkpt lat="48.81929" lon="2.29839">
        <ele>132.6</ele>
        <time>2015-05-05T20:25:24.039Z</time>
      </trkpt>
      <trkpt lat="48.81927" lon="2.29846">
        <ele>132.6</ele>
        <time>2015-05-05T20:25:25.056Z</time>
      </trkpt>
      <trkpt lat="48.81925" lon="2.29853">
        <ele>132.6</ele>
        <time>2015-05-05T20:25:26.065Z</time>
      </trkpt>
      <trkpt lat="48.81924" lon="2.2986">
        <ele>132.3</ele>
        <time>2015-05-05T20:25:27.005Z</time>
      </trkpt>
      <trkpt lat="48.81923" lon="2.29867">
        <ele>132</ele>
        <time>2015-05-05T20:25:28.122Z</time>
      </trkpt>
      <trkpt lat="48.81921" lon="2.29874">
        <ele>131.8</ele>
        <time>2015-05-05T20:25:29.004Z</time>
      </trkpt>
      <trkpt lat="48.81921" lon="2.29881">
        <ele>131.4</ele>
        <time>2015-05-05T20:25:30.004Z</time>
      </trkpt>
      <trkpt lat="48.81921" lon="2.29894">
        <ele>131.3</ele>
        <time>2015-05-05T20:25:32.042Z</time>
      </trkpt>
      <trkpt lat="48.81922" lon="2.299">
        <ele>131.2</ele>
        <time>2015-05-05T20:25:32.979Z</time>
      </trkpt>
      <trkpt lat="48.8192" lon="2.29913">
        <ele>131.4</ele>
        <time>2015-05-05T20:25:35.053Z</time>
      </trkpt>
      <trkpt lat="48.8192" lon="2.29919">
        <ele>131.4</ele>
        <time>2015-05-05T20:25:36.065Z</time>
      </trkpt>
      <trkpt lat="48.81919" lon="2.29931">
        <ele>131.9</ele>
        <time>2015-05-05T20:25:38.240Z</time>
      </trkpt>
      <trkpt lat="48.81919" lon="2.29937">
        <ele>132</ele>
        <time>2015-05-05T20:25:39.009Z</time>
      </trkpt>
      <trkpt lat="48.81918" lon="2.29945">
        <ele>131.7</ele>
        <time>2015-05-05T20:25:40.036Z</time>
      </trkpt>
      <trkpt lat="48.81918" lon="2.29952">
        <ele>131.4</ele>
        <time>2015-05-05T20:25:41.041Z</time>
      </trkpt>
      <trkpt lat="48.81919" lon="2.29959">
        <ele>130.9</ele>
        <time>2015-05-05T20:25:42.058Z</time>
      </trkpt>
      <trkpt lat="48.81919" lon="2.29969">
        <ele>131.5</ele>
        <time>2015-05-05T20:25:42.985Z</time>
      </trkpt>
      <trkpt lat="48.8192" lon="2.29976">
        <ele>131.8</ele>
        <time>2015-05-05T20:25:44.008Z</time>
      </trkpt>
      <trkpt lat="48.8192" lon="2.29983">
        <ele>131.3</ele>
        <time>2015-05-05T20:25:45.029Z</time>
      </trkpt>
      <trkpt lat="48.8192" lon="2.29991">
        <ele>131.1</ele>
        <time>2015-05-05T20:25:46.058Z</time>
      </trkpt>
      <trkpt lat="48.81921" lon="2.29998">
        <ele>131.1</ele>
        <time>2015-05-05T20:25:47.062Z</time>
      </trkpt>
      <trkpt lat="48.81924" lon="2.30011">
        <ele>131.5</ele>
        <time>2015-05-05T20:25:48.980Z</time>
      </trkpt>
      <trkpt lat="48.81927" lon="2.30016">
        <ele>132.3</ele>
        <time>2015-05-05T20:25:50.029Z</time>
      </trkpt>
      <trkpt lat="48.81926" lon="2.30029">
        <ele>131.3</ele>
        <time>2015-05-05T20:25:52.069Z</time>
      </trkpt>
      <trkpt lat="48.81925" lon="2.30036">
        <ele>131.3</ele>
        <time>2015-05-05T20:25:52.984Z</time>
      </trkpt>
      <trkpt lat="48.81925" lon="2.30043">
        <ele>131.2</ele>
        <time>2015-05-05T20:25:54.013Z</time>
      </trkpt>
      <trkpt lat="48.81923" lon="2.3005">
        <ele>130.7</ele>
        <time>2015-05-05T20:25:55.028Z</time>
      </trkpt>
      <trkpt lat="48.81923" lon="2.30058">
        <ele>130.5</ele>
        <time>2015-05-05T20:25:56.005Z</time>
      </trkpt>
      <trkpt lat="48.81924" lon="2.30065">
        <ele>130.2</ele>
        <time>2015-05-05T20:25:57.021Z</time>
      </trkpt>
      <trkpt lat="48.81924" lon="2.30072">
        <ele>130</ele>
        <time>2015-05-05T20:25:58.116Z</time>
      </trkpt>
      <trkpt lat="48.81925" lon="2.30078">
        <ele>129.8</ele>
        <time>2015-05-05T20:25:59.015Z</time>
      </trkpt>
      <trkpt lat="48.81924" lon="2.30089">
        <ele>129.8</ele>
        <time>2015-05-05T20:26:01.007Z</time>
      </trkpt>
      <trkpt lat="48.81924" lon="2.30095">
        <ele>129.7</ele>
        <time>2015-05-05T20:26:02.012Z</time>
      </trkpt>
      <trkpt lat="48.81923" lon="2.30107">
        <ele>129.3</ele>
        <time>2015-05-05T20:26:04.054Z</time>
      </trkpt>
      <trkpt lat="48.81924" lon="2.30113">
        <ele>129.2</ele>
        <time>2015-05-05T20:26:05.064Z</time>
      </trkpt>
      <trkpt lat="48.81924" lon="2.3012">
        <ele>129</ele>
        <time>2015-05-05T20:26:05.976Z</time>
      </trkpt>
      <trkpt lat="48.81925" lon="2.30127">
        <ele>129.1</ele>
        <time>2015-05-05T20:26:06.990Z</time>
      </trkpt>
      <trkpt lat="48.81925" lon="2.30134">
        <ele>129.3</ele>
        <time>2015-05-05T20:26:08Z</time>
      </trkpt>
      <trkpt lat="48.81925" lon="2.30142">
        <ele>129</ele>
        <time>2015-05-05T20:26:09.008Z</time>
      </trkpt>
      <trkpt lat="48.81925" lon="2.30151">
        <ele>128.6</ele>
        <time>2015-05-05T20:26:10.873Z</time>
      </trkpt>
      <trkpt lat="48.81925" lon="2.30161">
        <ele>128.4</ele>
        <time>2015-05-05T20:26:11.034Z</time>
      </trkpt>
      <trkpt lat="48.81925" lon="2.3017">
        <ele>128.2</ele>
        <time>2015-05-05T20:26:12.054Z</time>
      </trkpt>
      <trkpt lat="48.81925" lon="2.30179">
        <ele>128</ele>
        <time>2015-05-05T20:26:13.069Z</time>
      </trkpt>
      <trkpt lat="48.81925" lon="2.30189">
        <ele>128</ele>
        <time>2015-05-05T20:26:13.981Z</time>
      </trkpt>
      <trkpt lat="48.81925" lon="2.30198">
        <ele>128.4</ele>
        <time>2015-05-05T20:26:14.991Z</time>
      </trkpt>
      <trkpt lat="48.81926" lon="2.30208">
        <ele>129.1</ele>
        <time>2015-05-05T20:26:15.939Z</time>
      </trkpt>
      <trkpt lat="48.81926" lon="2.30217">
        <ele>129.6</ele>
        <time>2015-05-05T20:26:17.013Z</time>
      </trkpt>
      <trkpt lat="48.81926" lon="2.30227">
        <ele>130</ele>
        <time>2015-05-05T20:26:18.025Z</time>
      </trkpt>
      <trkpt lat="48.81925" lon="2.30238">
        <ele>130.3</ele>
        <time>2015-05-05T20:26:19.043Z</time>
      </trkpt>
      <trkpt lat="48.81924" lon="2.30248">
        <ele>130.9</ele>
        <time>2015-05-05T20:26:20.065Z</time>
      </trkpt>
      <trkpt lat="48.81924" lon="2.30258">
        <ele>131.7</ele>
        <time>2015-05-05T20:26:20.978Z</time>
      </trkpt>
      <trkpt lat="48.81924" lon="2.30269">
        <ele>132.9</ele>
        <time>2015-05-05T20:26:22.027Z</time>
      </trkpt>
      <trkpt lat="48.81923" lon="2.30279">
        <ele>133.8</ele>
        <time>2015-05-05T20:26:23.040Z</time>
      </trkpt>
      <trkpt lat="48.81923" lon="2.30287">
        <ele>133.7</ele>
        <time>2015-05-05T20:26:24.046Z</time>
      </trkpt>
      <trkpt lat="48.81923" lon="2.30294">
        <ele>133.9</ele>
        <time>2015-05-05T20:26:25.052Z</time>
      </trkpt>
      <trkpt lat="48.81923" lon="2.30303">
        <ele>134.1</ele>
        <time>2015-05-05T20:26:26.055Z</time>
      </trkpt>
      <trkpt lat="48.81923" lon="2.3031">
        <ele>134.2</ele>
        <time>2015-05-05T20:26:27.080Z</time>
      </trkpt>
      <trkpt lat="48.81922" lon="2.30318">
        <ele>134.2</ele>
        <time>2015-05-05T20:26:28.144Z</time>
      </trkpt>
      <trkpt lat="48.81921" lon="2.30326">
        <ele>134.4</ele>
        <time>2015-05-05T20:26:29.037Z</time>
      </trkpt>
      <trkpt lat="48.81922" lon="2.30335">
        <ele>135.1</ele>
        <time>2015-05-05T20:26:30.053Z</time>
      </trkpt>
      <trkpt lat="48.81925" lon="2.30343">
        <ele>135.2</ele>
        <time>2015-05-05T20:26:31.026Z</time>
      </trkpt>
      <trkpt lat="48.81928" lon="2.30352">
        <ele>135.3</ele>
        <time>2015-05-05T20:26:31.992Z</time>
      </trkpt>
      <trkpt lat="48.81931" lon="2.30361">
        <ele>135.5</ele>
        <time>2015-05-05T20:26:33.004Z</time>
      </trkpt>
      <trkpt lat="48.81934" lon="2.3037">
        <ele>136.1</ele>
        <time>2015-05-05T20:26:34.052Z</time>
      </trkpt>
      <trkpt lat="48.81936" lon="2.30379">
        <ele>136.7</ele>
        <time>2015-05-05T20:26:35.049Z</time>
      </trkpt>
      <trkpt lat="48.81938" lon="2.3039">
        <ele>138.2</ele>
        <time>2015-05-05T20:26:36.065Z</time>
      </trkpt>
      <trkpt lat="48.81938" lon="2.304">
        <ele>138.9</ele>
        <time>2015-05-05T20:26:36.986Z</time>
      </trkpt>
      <trkpt lat="48.81938" lon="2.3041">
        <ele>139.4</ele>
        <time>2015-05-05T20:26:37.985Z</time>
      </trkpt>
      <trkpt lat="48.81938" lon="2.30418">
        <ele>139.2</ele>
        <time>2015-05-05T20:26:39.008Z</time>
      </trkpt>
      <trkpt lat="48.81937" lon="2.30427">
        <ele>138.9</ele>
        <time>2015-05-05T20:26:40.048Z</time>
      </trkpt>
      <trkpt lat="48.81937" lon="2.30439">
        <ele>139.6</ele>
        <time>2015-05-05T20:26:41.059Z</time>
      </trkpt>
      <trkpt lat="48.81937" lon="2.30449">
        <ele>139.9</ele>
        <time>2015-05-05T20:26:42.069Z</time>
      </trkpt>
      <trkpt lat="48.81937" lon="2.30459">
        <ele>140</ele>
        <time>2015-05-05T20:26:42.986Z</time>
      </trkpt>
      <trkpt lat="48.81938" lon="2.30469">
        <ele>140.2</ele>
        <time>2015-05-05T20:26:43.985Z</time>
      </trkpt>
      <trkpt lat="48.81939" lon="2.30484">
        <ele>141.2</ele>
        <time>2015-05-05T20:26:45.011Z</time>
      </trkpt>
      <trkpt lat="48.8194" lon="2.30498">
        <ele>143.1</ele>
        <time>2015-05-05T20:26:46.025Z</time>
      </trkpt>
      <trkpt lat="48.81942" lon="2.30509">
        <ele>143.6</ele>
        <time>2015-05-05T20:26:47.031Z</time>
      </trkpt>
      <trkpt lat="48.81944" lon="2.30518">
        <ele>143.9</ele>
        <time>2015-05-05T20:26:48.048Z</time>
      </trkpt>
      <trkpt lat="48.81945" lon="2.30528">
        <ele>143.9</ele>
        <time>2015-05-05T20:26:48.991Z</time>
      </trkpt>
      <trkpt lat="48.81946" lon="2.30538">
        <ele>144.3</ele>
        <time>2015-05-05T20:26:49.992Z</time>
      </trkpt>
      <trkpt lat="48.81948" lon="2.30548">
        <ele>145</ele>
        <time>2015-05-05T20:26:51Z</time>
      </trkpt>
      <trkpt lat="48.81948" lon="2.30558">
        <ele>145.1</ele>
        <time>2015-05-05T20:26:52.028Z</time>
      </trkpt>
      <trkpt lat="48.8195" lon="2.30567">
        <ele>144.8</ele>
        <time>2015-05-05T20:26:53.066Z</time>
      </trkpt>
      <trkpt lat="48.81951" lon="2.30576">
        <ele>144.7</ele>
        <time>2015-05-05T20:26:53.988Z</time>
      </trkpt>
      <trkpt lat="48.8195" lon="2.30585">
        <ele>144.6</ele>
        <time>2015-05-05T20:26:55.001Z</time>
      </trkpt>
      <trkpt lat="48.81951" lon="2.30594">
        <ele>144.7</ele>
        <time>2015-05-05T20:26:56.011Z</time>
      </trkpt>
      <trkpt lat="48.81952" lon="2.30602">
        <ele>144.9</ele>
        <time>2015-05-05T20:26:57.023Z</time>
      </trkpt>
      <trkpt lat="48.81953" lon="2.3061">
        <ele>144.9</ele>
        <time>2015-05-05T20:26:58.029Z</time>
      </trkpt>
      <trkpt lat="48.81954" lon="2.30618">
        <ele>145.1</ele>
        <time>2015-05-05T20:26:59.048Z</time>
      </trkpt>
      <trkpt lat="48.81955" lon="2.30626">
        <ele>145.2</ele>
        <time>2015-05-05T20:27:00.033Z</time>
      </trkpt>
      <trkpt lat="48.81957" lon="2.30634">
        <ele>145.2</ele>
        <time>2015-05-05T20:27:00.997Z</time>
      </trkpt>
      <trkpt lat="48.81959" lon="2.30642">
        <ele>145.3</ele>
        <time>2015-05-05T20:27:02.024Z</time>
      </trkpt>
      <trkpt lat="48.81962" lon="2.3065">
        <ele>145.5</ele>
        <time>2015-05-05T20:27:03.039Z</time>
      </trkpt>
      <trkpt lat="48.81964" lon="2.30657">
        <ele>146</ele>
        <time>2015-05-05T20:27:04.043Z</time>
      </trkpt>
      <trkpt lat="48.81965" lon="2.30665">
        <ele>146</ele>
        <time>2015-05-05T20:27:05.091Z</time>
      </trkpt>
      <trkpt lat="48.81966" lon="2.30672">
        <ele>145.8</ele>
        <time>2015-05-05T20:27:06Z</time>
      </trkpt>
      <trkpt lat="48.81968" lon="2.30684">
        <ele>145.4</ele>
        <time>2015-05-05T20:27:08.015Z</time>
      </trkpt>
      <trkpt lat="48.8197" lon="2.3069">
        <ele>144.8</ele>
        <time>2015-05-05T20:27:09.030Z</time>
      </trkpt>
      <trkpt lat="48.81972" lon="2.30696">
        <ele>144.4</ele>
        <time>2015-05-05T20:27:10.102Z</time>
      </trkpt>
      <trkpt lat="48.81972" lon="2.30704">
        <ele>144</ele>
        <time>2015-05-05T20:27:10.977Z</time>
      </trkpt>
      <trkpt lat="48.81973" lon="2.30712">
        <ele>143.5</ele>
        <time>2015-05-05T20:27:11.992Z</time>
      </trkpt>
      <trkpt lat="48.81973" lon="2.3072">
        <ele>143</ele>
        <time>2015-05-05T20:27:13.002Z</time>
      </trkpt>
      <trkpt lat="48.81975" lon="2.30727">
        <ele>142.6</ele>
        <time>2015-05-05T20:27:14.016Z</time>
      </trkpt>
      <trkpt lat="48.81977" lon="2.30734">
        <ele>142.4</ele>
        <time>2015-05-05T20:27:15.027Z</time>
      </trkpt>
      <trkpt lat="48.81979" lon="2.30741">
        <ele>142.2</ele>
        <time>2015-05-05T20:27:16.035Z</time>
      </trkpt>
      <trkpt lat="48.8198" lon="2.30748">
        <ele>142</ele>
        <time>2015-05-05T20:27:17.048Z</time>
      </trkpt>
      <trkpt lat="48.81982" lon="2.30755">
        <ele>142</ele>
        <time>2015-05-05T20:27:18.062Z</time>
      </trkpt>
      <trkpt lat="48.81984" lon="2.30762">
        <ele>141.9</ele>
        <time>2015-05-05T20:27:18.981Z</time>
      </trkpt>
      <trkpt lat="48.81985" lon="2.3077">
        <ele>141.5</ele>
        <time>2015-05-05T20:27:19.998Z</time>
      </trkpt>
      <trkpt lat="48.81987" lon="2.30777">
        <ele>141.4</ele>
        <time>2015-05-05T20:27:20.993Z</time>
      </trkpt>
      <trkpt lat="48.8199" lon="2.3079">
        <ele>141.3</ele>
        <time>2015-05-05T20:27:23.023Z</time>
      </trkpt>
      <trkpt lat="48.81991" lon="2.30795">
        <ele>141.5</ele>
        <time>2015-05-05T20:27:24.036Z</time>
      </trkpt>
      <trkpt lat="48.81994" lon="2.30805">
        <ele>141.4</ele>
        <time>2015-05-05T20:27:26.068Z</time>
      </trkpt>
      <trkpt lat="48.81995" lon="2.30813">
        <ele>141.4</ele>
        <time>2015-05-05T20:27:27.007Z</time>
      </trkpt>
      <trkpt lat="48.81996" lon="2.30819">
        <ele>141.2</ele>
        <time>2015-05-05T20:27:28.014Z</time>
      </trkpt>
      <trkpt lat="48.81998" lon="2.30827">
        <ele>141.3</ele>
        <time>2015-05-05T20:27:29.022Z</time>
      </trkpt>
      <trkpt lat="48.82" lon="2.30834">
        <ele>141.7</ele>
        <time>2015-05-05T20:27:30.030Z</time>
      </trkpt>
      <trkpt lat="48.82002" lon="2.30841">
        <ele>141.8</ele>
        <time>2015-05-05T20:27:31.047Z</time>
      </trkpt>
      <trkpt lat="48.82004" lon="2.30849">
        <ele>142.1</ele>
        <time>2015-05-05T20:27:32.059Z</time>
      </trkpt>
      <trkpt lat="48.82005" lon="2.30856">
        <ele>142.1</ele>
        <time>2015-05-05T20:27:33.070Z</time>
      </trkpt>
      <trkpt lat="48.82006" lon="2.30864">
        <ele>142.2</ele>
        <time>2015-05-05T20:27:34.077Z</time>
      </trkpt>
      <trkpt lat="48.82006" lon="2.30871">
        <ele>142.4</ele>
        <time>2015-05-05T20:27:34.963Z</time>
      </trkpt>
      <trkpt lat="48.82004" lon="2.30877">
        <ele>142.5</ele>
        <time>2015-05-05T20:27:35.987Z</time>
      </trkpt>
      <trkpt lat="48.82002" lon="2.30885">
        <ele>142.8</ele>
        <time>2015-05-05T20:27:36.995Z</time>
      </trkpt>
      <trkpt lat="48.82" lon="2.30891">
        <ele>143.2</ele>
        <time>2015-05-05T20:27:37.999Z</time>
      </trkpt>
      <trkpt lat="48.81999" lon="2.30899">
        <ele>143.3</ele>
        <time>2015-05-05T20:27:39.006Z</time>
      </trkpt>
      <trkpt lat="48.81998" lon="2.30907">
        <ele>143.1</ele>
        <time>2015-05-05T20:27:40.031Z</time>
      </trkpt>
      <trkpt lat="48.81999" lon="2.30914">
        <ele>142.9</ele>
        <time>2015-05-05T20:27:41.032Z</time>
      </trkpt>
      <trkpt lat="48.81999" lon="2.30921">
        <ele>142.7</ele>
        <time>2015-05-05T20:27:42.214Z</time>
      </trkpt>
      <trkpt lat="48.81998" lon="2.30927">
        <ele>142.4</ele>
        <time>2015-05-05T20:27:43.058Z</time>
      </trkpt>
      <trkpt lat="48.81997" lon="2.30934">
        <ele>142.1</ele>
        <time>2015-05-05T20:27:44.086Z</time>
      </trkpt>
      <trkpt lat="48.81995" lon="2.3094">
        <ele>141.9</ele>
        <time>2015-05-05T20:27:44.984Z</time>
      </trkpt>
      <trkpt lat="48.81994" lon="2.30954">
        <ele>141.9</ele>
        <time>2015-05-05T20:27:46.991Z</time>
      </trkpt>
      <trkpt lat="48.81994" lon="2.30961">
        <ele>141.6</ele>
        <time>2015-05-05T20:27:48.027Z</time>
      </trkpt>
      <trkpt lat="48.81994" lon="2.30968">
        <ele>141.3</ele>
        <time>2015-05-05T20:27:49.042Z</time>
      </trkpt>
      <trkpt lat="48.81993" lon="2.30975">
        <ele>141.1</ele>
        <time>2015-05-05T20:27:50.065Z</time>
      </trkpt>
      <trkpt lat="48.81992" lon="2.30987">
        <ele>140.6</ele>
        <time>2015-05-05T20:27:52.022Z</time>
      </trkpt>
      <trkpt lat="48.81992" lon="2.30992">
        <ele>140.4</ele>
        <time>2015-05-05T20:27:53.072Z</time>
      </trkpt>
      <trkpt lat="48.81991" lon="2.31004">
        <ele>140.2</ele>
        <time>2015-05-05T20:27:55.004Z</time>
      </trkpt>
      <trkpt lat="48.81991" lon="2.31012">
        <ele>140.3</ele>
        <time>2015-05-05T20:27:56.027Z</time>
      </trkpt>
      <trkpt lat="48.81991" lon="2.31022">
        <ele>139.6</ele>
        <time>2015-05-05T20:27:58.052Z</time>
      </trkpt>
      <trkpt lat="48.81991" lon="2.31029">
        <ele>138.7</ele>
        <time>2015-05-05T20:27:59.081Z</time>
      </trkpt>
      <trkpt lat="48.81989" lon="2.3104">
        <ele>137.7</ele>
        <time>2015-05-05T20:28:01.011Z</time>
      </trkpt>
      <trkpt lat="48.81989" lon="2.31043">
        <ele>136.8</ele>
        <time>2015-05-05T20:28:02.018Z</time>
      </trkpt>
      <trkpt lat="48.81987" lon="2.31054">
        <ele>135.7</ele>
        <time>2015-05-05T20:28:04.080Z</time>
      </trkpt>
      <trkpt lat="48.81986" lon="2.31062">
        <ele>136.4</ele>
        <time>2015-05-05T20:28:05.012Z</time>
      </trkpt>
      <trkpt lat="48.81987" lon="2.3107">
        <ele>137.1</ele>
        <time>2015-05-05T20:28:06.034Z</time>
      </trkpt>
      <trkpt lat="48.81987" lon="2.31079">
        <ele>138.3</ele>
        <time>2015-05-05T20:28:07.043Z</time>
      </trkpt>
      <trkpt lat="48.81989" lon="2.31086">
        <ele>138.7</ele>
        <time>2015-05-05T20:28:08.059Z</time>
      </trkpt>
      <trkpt lat="48.81991" lon="2.31092">
        <ele>139.1</ele>
        <time>2015-05-05T20:28:08.986Z</time>
      </trkpt>
      <trkpt lat="48.81994" lon="2.31097">
        <ele>139.3</ele>
        <time>2015-05-05T20:28:10.052Z</time>
      </trkpt>
      <trkpt lat="48.81998" lon="2.31102">
        <ele>139.8</ele>
        <time>2015-05-05T20:28:10.990Z</time>
      </trkpt>
      <trkpt lat="48.82003" lon="2.3111">
        <ele>140.7</ele>
        <time>2015-05-05T20:28:13.007Z</time>
      </trkpt>
      <trkpt lat="48.82005" lon="2.31113">
        <ele>141</ele>
        <time>2015-05-05T20:28:14.006Z</time>
      </trkpt>
      <trkpt lat="48.82009" lon="2.3112">
        <ele>141.7</ele>
        <time>2015-05-05T20:28:16.041Z</time>
      </trkpt>
      <trkpt lat="48.82013" lon="2.31123">
        <ele>141.7</ele>
        <time>2015-05-05T20:28:16.972Z</time>
      </trkpt>
      <trkpt lat="48.82017" lon="2.31128">
        <ele>141.7</ele>
        <time>2015-05-05T20:28:18.019Z</time>
      </trkpt>
      <trkpt lat="48.82021" lon="2.31133">
        <ele>141.7</ele>
        <time>2015-05-05T20:28:19.033Z</time>
      </trkpt>
      <trkpt lat="48.82026" lon="2.31137">
        <ele>142.5</ele>
        <time>2015-05-05T20:28:20.045Z</time>
      </trkpt>
      <trkpt lat="48.82032" lon="2.31145">
        <ele>142.5</ele>
        <time>2015-05-05T20:28:21.054Z</time>
      </trkpt>
      <trkpt lat="48.82037" lon="2.3115">
        <ele>142.1</ele>
        <time>2015-05-05T20:28:22.085Z</time>
      </trkpt>
      <trkpt lat="48.82043" lon="2.31153">
        <ele>141.9</ele>
        <time>2015-05-05T20:28:22.989Z</time>
      </trkpt>
      <trkpt lat="48.82048" lon="2.31156">
        <ele>142.2</ele>
        <time>2015-05-05T20:28:24.015Z</time>
      </trkpt>
      <trkpt lat="48.82053" lon="2.3116">
        <ele>142.4</ele>
        <time>2015-05-05T20:28:25.051Z</time>
      </trkpt>
      <trkpt lat="48.82058" lon="2.31165">
        <ele>142.4</ele>
        <time>2015-05-05T20:28:26.086Z</time>
      </trkpt>
      <trkpt lat="48.82062" lon="2.31169">
        <ele>142.6</ele>
        <time>2015-05-05T20:28:26.994Z</time>
      </trkpt>
      <trkpt lat="48.82067" lon="2.31176">
        <ele>142.9</ele>
        <time>2015-05-05T20:28:29.045Z</time>
      </trkpt>
      <trkpt lat="48.82071" lon="2.3118">
        <ele>142.9</ele>
        <time>2015-05-05T20:28:30.188Z</time>
      </trkpt>
      <trkpt lat="48.82076" lon="2.31189">
        <ele>142.8</ele>
        <time>2015-05-05T20:28:32.086Z</time>
      </trkpt>
      <trkpt lat="48.82079" lon="2.31193">
        <ele>142.8</ele>
        <time>2015-05-05T20:28:33.010Z</time>
      </trkpt>
      <trkpt lat="48.82083" lon="2.31197">
        <ele>142.8</ele>
        <time>2015-05-05T20:28:34.030Z</time>
      </trkpt>
      <trkpt lat="48.82089" lon="2.31201">
        <ele>143</ele>
        <time>2015-05-05T20:28:35.047Z</time>
      </trkpt>
      <trkpt lat="48.82094" lon="2.31206">
        <ele>143.2</ele>
        <time>2015-05-05T20:28:36.054Z</time>
      </trkpt>
      <trkpt lat="48.82098" lon="2.31211">
        <ele>143.4</ele>
        <time>2015-05-05T20:28:37.065Z</time>
      </trkpt>
      <trkpt lat="48.82102" lon="2.31217">
        <ele>143.7</ele>
        <time>2015-05-05T20:28:38.345Z</time>
      </trkpt>
      <trkpt lat="48.82106" lon="2.31224">
        <ele>143.8</ele>
        <time>2015-05-05T20:28:38.990Z</time>
      </trkpt>
      <trkpt lat="48.8211" lon="2.31235">
        <ele>143.5</ele>
        <time>2015-05-05T20:28:41.039Z</time>
      </trkpt>
      <trkpt lat="48.82112" lon="2.31241">
        <ele>143.6</ele>
        <time>2015-05-05T20:28:41.960Z</time>
      </trkpt>
      <trkpt lat="48.82114" lon="2.31252">
        <ele>143.4</ele>
        <time>2015-05-05T20:28:44.049Z</time>
      </trkpt>
      <trkpt lat="48.82117" lon="2.31258">
        <ele>143.8</ele>
        <time>2015-05-05T20:28:45.065Z</time>
      </trkpt>
      <trkpt lat="48.82119" lon="2.31263">
        <ele>143.5</ele>
        <time>2015-05-05T20:28:46.684Z</time>
      </trkpt>
      <trkpt lat="48.82122" lon="2.31272">
        <ele>143.3</ele>
        <time>2015-05-05T20:28:46.963Z</time>
      </trkpt>
      <trkpt lat="48.82126" lon="2.3128">
        <ele>143.1</ele>
        <time>2015-05-05T20:28:48.054Z</time>
      </trkpt>
      <trkpt lat="48.82129" lon="2.31289">
        <ele>142.7</ele>
        <time>2015-05-05T20:28:49.084Z</time>
      </trkpt>
      <trkpt lat="48.82132" lon="2.31297">
        <ele>142.3</ele>
        <time>2015-05-05T20:28:49.998Z</time>
      </trkpt>
      <trkpt lat="48.82134" lon="2.31305">
        <ele>142</ele>
        <time>2015-05-05T20:28:51.028Z</time>
      </trkpt>
      <trkpt lat="48.82138" lon="2.3131">
        <ele>142.3</ele>
        <time>2015-05-05T20:28:52.036Z</time>
      </trkpt>
      <trkpt lat="48.82141" lon="2.31316">
        <ele>142.3</ele>
        <time>2015-05-05T20:28:53.047Z</time>
      </trkpt>
      <trkpt lat="48.82144" lon="2.31321">
        <ele>142.5</ele>
        <time>2015-05-05T20:28:53.986Z</time>
      </trkpt>
      <trkpt lat="48.82147" lon="2.3133">
        <ele>142.2</ele>
        <time>2015-05-05T20:28:54.988Z</time>
      </trkpt>
      <trkpt lat="48.82151" lon="2.31337">
        <ele>142.2</ele>
        <time>2015-05-05T20:28:56.902Z</time>
      </trkpt>
      <trkpt lat="48.82156" lon="2.31345">
        <ele>142</ele>
        <time>2015-05-05T20:28:57.042Z</time>
      </trkpt>
      <trkpt lat="48.82159" lon="2.31352">
        <ele>142</ele>
        <time>2015-05-05T20:28:58.046Z</time>
      </trkpt>
      <trkpt lat="48.82164" lon="2.31358">
        <ele>142.3</ele>
        <time>2015-05-05T20:28:59.053Z</time>
      </trkpt>
      <trkpt lat="48.82172" lon="2.31361">
        <ele>142.7</ele>
        <time>2015-05-05T20:29:00.128Z</time>
      </trkpt>
      <trkpt lat="48.82181" lon="2.31364">
        <ele>143.5</ele>
        <time>2015-05-05T20:29:00.991Z</time>
      </trkpt>
      <trkpt lat="48.82189" lon="2.31367">
        <ele>144.1</ele>
        <time>2015-05-05T20:29:01.997Z</time>
      </trkpt>
      <trkpt lat="48.82195" lon="2.31372">
        <ele>144.6</ele>
        <time>2015-05-05T20:29:03.005Z</time>
      </trkpt>
      <trkpt lat="48.82201" lon="2.3138">
        <ele>144.7</ele>
        <time>2015-05-05T20:29:04.130Z</time>
      </trkpt>
      <trkpt lat="48.82208" lon="2.31392">
        <ele>144.5</ele>
        <time>2015-05-05T20:29:05.088Z</time>
      </trkpt>
      <trkpt lat="48.82213" lon="2.31402">
        <ele>144.5</ele>
        <time>2015-05-05T20:29:05.984Z</time>
      </trkpt>
      <trkpt lat="48.82218" lon="2.31413">
        <ele>144.4</ele>
        <time>2015-05-05T20:29:06.989Z</time>
      </trkpt>
      <trkpt lat="48.82223" lon="2.31422">
        <ele>144.4</ele>
        <time>2015-05-05T20:29:08.003Z</time>
      </trkpt>
      <trkpt lat="48.82229" lon="2.31429">
        <ele>144.4</ele>
        <time>2015-05-05T20:29:09.010Z</time>
      </trkpt>
      <trkpt lat="48.82235" lon="2.31435">
        <ele>144.1</ele>
        <time>2015-05-05T20:29:10.028Z</time>
      </trkpt>
      <trkpt lat="48.82239" lon="2.31442">
        <ele>143.7</ele>
        <time>2015-05-05T20:29:11.037Z</time>
      </trkpt>
      <trkpt lat="48.82241" lon="2.31449">
        <ele>143.5</ele>
        <time>2015-05-05T20:29:12.046Z</time>
      </trkpt>
      <trkpt lat="48.82244" lon="2.31455">
        <ele>143.2</ele>
        <time>2015-05-05T20:29:13.051Z</time>
      </trkpt>
      <trkpt lat="48.82248" lon="2.31461">
        <ele>142.9</ele>
        <time>2015-05-05T20:29:13.976Z</time>
      </trkpt>
      <trkpt lat="48.82251" lon="2.31467">
        <ele>142.4</ele>
        <time>2015-05-05T20:29:14.977Z</time>
      </trkpt>
      <trkpt lat="48.82256" lon="2.31476">
        <ele>141.4</ele>
        <time>2015-05-05T20:29:17.023Z</time>
      </trkpt>
      <trkpt lat="48.8226" lon="2.3148">
        <ele>141.2</ele>
        <time>2015-05-05T20:29:18.031Z</time>
      </trkpt>
      <trkpt lat="48.82261" lon="2.31491">
        <ele>138.4</ele>
        <time>2015-05-05T20:29:28.076Z</time>
      </trkpt>
      <trkpt lat="48.82261" lon="2.31499">
        <ele>135.5</ele>
        <time>2015-05-05T20:29:29.031Z</time>
      </trkpt>
      <trkpt lat="48.82265" lon="2.31507">
        <ele>134.7</ele>
        <time>2015-05-05T20:29:33.020Z</time>
      </trkpt>
      <trkpt lat="48.82267" lon="2.31509">
        <ele>134.4</ele>
        <time>2015-05-05T20:29:34.070Z</time>
      </trkpt>
      <trkpt lat="48.82273" lon="2.31515">
        <ele>133.8</ele>
        <time>2015-05-05T20:29:36.038Z</time>
      </trkpt>
      <trkpt lat="48.82276" lon="2.31519">
        <ele>133.6</ele>
        <time>2015-05-05T20:29:37.018Z</time>
      </trkpt>
      <trkpt lat="48.82278" lon="2.31527">
        <ele>133</ele>
        <time>2015-05-05T20:29:39.001Z</time>
      </trkpt>
      <trkpt lat="48.8228" lon="2.31532">
        <ele>132.7</ele>
        <time>2015-05-05T20:29:40.055Z</time>
      </trkpt>
      <trkpt lat="48.82283" lon="2.31538">
        <ele>132.4</ele>
        <time>2015-05-05T20:29:41.084Z</time>
      </trkpt>
      <trkpt lat="48.82286" lon="2.31543">
        <ele>132.1</ele>
        <time>2015-05-05T20:29:41.997Z</time>
      </trkpt>
      <trkpt lat="48.82289" lon="2.31549">
        <ele>132.6</ele>
        <time>2015-05-05T20:29:43.001Z</time>
      </trkpt>
      <trkpt lat="48.82291" lon="2.31556">
        <ele>132.5</ele>
        <time>2015-05-05T20:29:44.016Z</time>
      </trkpt>
      <trkpt lat="48.82293" lon="2.31562">
        <ele>132.4</ele>
        <time>2015-05-05T20:29:45.029Z</time>
      </trkpt>
      <trkpt lat="48.82296" lon="2.31567">
        <ele>132.1</ele>
        <time>2015-05-05T20:29:46.042Z</time>
      </trkpt>
      <trkpt lat="48.82298" lon="2.31573">
        <ele>132</ele>
        <time>2015-05-05T20:29:47.048Z</time>
      </trkpt>
      <trkpt lat="48.82301" lon="2.31578">
        <ele>132.1</ele>
        <time>2015-05-05T20:29:48.066Z</time>
      </trkpt>
      <trkpt lat="48.82306" lon="2.31588">
        <ele>131.7</ele>
        <time>2015-05-05T20:29:50.006Z</time>
      </trkpt>
      <trkpt lat="48.82307" lon="2.31593">
        <ele>131.2</ele>
        <time>2015-05-05T20:29:51.030Z</time>
      </trkpt>
      <trkpt lat="48.82308" lon="2.31603">
        <ele>131.2</ele>
        <time>2015-05-05T20:29:53.183Z</time>
      </trkpt>
      <trkpt lat="48.82309" lon="2.31607">
        <ele>130.9</ele>
        <time>2015-05-05T20:29:54.069Z</time>
      </trkpt>
      <trkpt lat="48.82313" lon="2.31617">
        <ele>130.9</ele>
        <time>2015-05-05T20:29:55.995Z</time>
      </trkpt>
      <trkpt lat="48.82316" lon="2.31624">
        <ele>130.7</ele>
        <time>2015-05-05T20:29:57.043Z</time>
      </trkpt>
      <trkpt lat="48.82319" lon="2.3163">
        <ele>130.6</ele>
        <time>2015-05-05T20:29:58.051Z</time>
      </trkpt>
      <trkpt lat="48.82321" lon="2.31637">
        <ele>130.7</ele>
        <time>2015-05-05T20:29:59.147Z</time>
      </trkpt>
      <trkpt lat="48.82326" lon="2.31644">
        <ele>130.4</ele>
        <time>2015-05-05T20:30:00.064Z</time>
      </trkpt>
      <trkpt lat="48.8233" lon="2.3165">
        <ele>129.8</ele>
        <time>2015-05-05T20:30:01.080Z</time>
      </trkpt>
      <trkpt lat="48.82333" lon="2.31658">
        <ele>129.9</ele>
        <time>2015-05-05T20:30:02Z</time>
      </trkpt>
      <trkpt lat="48.82336" lon="2.31667">
        <ele>129.5</ele>
        <time>2015-05-05T20:30:03.014Z</time>
      </trkpt>
      <trkpt lat="48.82338" lon="2.31674">
        <ele>129.2</ele>
        <time>2015-05-05T20:30:04.057Z</time>
      </trkpt>
      <trkpt lat="48.82341" lon="2.31681">
        <ele>128.9</ele>
        <time>2015-05-05T20:30:05.074Z</time>
      </trkpt>
      <trkpt lat="48.82345" lon="2.31689">
        <ele>128.7</ele>
        <time>2015-05-05T20:30:06.084Z</time>
      </trkpt>
      <trkpt lat="48.82348" lon="2.31697">
        <ele>128.6</ele>
        <time>2015-05-05T20:30:06.988Z</time>
      </trkpt>
      <trkpt lat="48.82352" lon="2.31704">
        <ele>128.5</ele>
        <time>2015-05-05T20:30:08.055Z</time>
      </trkpt>
      <trkpt lat="48.82357" lon="2.31711">
        <ele>128.5</ele>
        <time>2015-05-05T20:30:09.069Z</time>
      </trkpt>
      <trkpt lat="48.82362" lon="2.31718">
        <ele>128.4</ele>
        <time>2015-05-05T20:30:10.104Z</time>
      </trkpt>
      <trkpt lat="48.82366" lon="2.31726">
        <ele>128</ele>
        <time>2015-05-05T20:30:10.995Z</time>
      </trkpt>
      <trkpt lat="48.82369" lon="2.31733">
        <ele>128.1</ele>
        <time>2015-05-05T20:30:12.010Z</time>
      </trkpt>
      <trkpt lat="48.82371" lon="2.3174">
        <ele>128</ele>
        <time>2015-05-05T20:30:13.017Z</time>
      </trkpt>
      <trkpt lat="48.82374" lon="2.31747">
        <ele>127.8</ele>
        <time>2015-05-05T20:30:14.023Z</time>
      </trkpt>
      <trkpt lat="48.82378" lon="2.31755">
        <ele>127.1</ele>
        <time>2015-05-05T20:30:15.034Z</time>
      </trkpt>
      <trkpt lat="48.82381" lon="2.31762">
        <ele>126.5</ele>
        <time>2015-05-05T20:30:16.048Z</time>
      </trkpt>
      <trkpt lat="48.82385" lon="2.31769">
        <ele>126.1</ele>
        <time>2015-05-05T20:30:17.062Z</time>
      </trkpt>
      <trkpt lat="48.82389" lon="2.31777">
        <ele>126.1</ele>
        <time>2015-05-05T20:30:17.987Z</time>
      </trkpt>
      <trkpt lat="48.82402" lon="2.31814">
        <ele>126</ele>
        <time>2015-05-05T20:30:23.050Z</time>
      </trkpt>
      <trkpt lat="48.82405" lon="2.31822">
        <ele>125.7</ele>
        <time>2015-05-05T20:30:23.968Z</time>
      </trkpt>
      <trkpt lat="48.82411" lon="2.31829">
        <ele>125.6</ele>
        <time>2015-05-05T20:30:24.972Z</time>
      </trkpt>
      <trkpt lat="48.82416" lon="2.31836">
        <ele>125.5</ele>
        <time>2015-05-05T20:30:26.002Z</time>
      </trkpt>
      <trkpt lat="48.82419" lon="2.31844">
        <ele>125.4</ele>
        <time>2015-05-05T20:30:27.012Z</time>
      </trkpt>
      <trkpt lat="48.82423" lon="2.3185">
        <ele>125.2</ele>
        <time>2015-05-05T20:30:28.025Z</time>
      </trkpt>
      <trkpt lat="48.82426" lon="2.31857">
        <ele>124.6</ele>
        <time>2015-05-05T20:30:29.043Z</time>
      </trkpt>
      <trkpt lat="48.82428" lon="2.31864">
        <ele>123.7</ele>
        <time>2015-05-05T20:30:30.052Z</time>
      </trkpt>
      <trkpt lat="48.8243" lon="2.3187">
        <ele>123.2</ele>
        <time>2015-05-05T20:30:31.061Z</time>
      </trkpt>
      <trkpt lat="48.8243" lon="2.31877">
        <ele>122.8</ele>
        <time>2015-05-05T20:30:32.066Z</time>
      </trkpt>
      <trkpt lat="48.82429" lon="2.31885">
        <ele>123.8</ele>
        <time>2015-05-05T20:30:32.986Z</time>
      </trkpt>
      <trkpt lat="48.82426" lon="2.31892">
        <ele>124.4</ele>
        <time>2015-05-05T20:30:34.095Z</time>
      </trkpt>
      <trkpt lat="48.82424" lon="2.31899">
        <ele>125.6</ele>
        <time>2015-05-05T20:30:34.969Z</time>
      </trkpt>
      <trkpt lat="48.82423" lon="2.31905">
        <ele>127.5</ele>
        <time>2015-05-05T20:30:36.013Z</time>
      </trkpt>
      <trkpt lat="48.82422" lon="2.31912">
        <ele>129.2</ele>
        <time>2015-05-05T20:30:37.013Z</time>
      </trkpt>
      <trkpt lat="48.82423" lon="2.31925">
        <ele>131.1</ele>
        <time>2015-05-05T20:30:39.011Z</time>
      </trkpt>
      <trkpt lat="48.82425" lon="2.31931">
        <ele>132.9</ele>
        <time>2015-05-05T20:30:40.022Z</time>
      </trkpt>
      <trkpt lat="48.8243" lon="2.31942">
        <ele>133.7</ele>
        <time>2015-05-05T20:30:42.113Z</time>
      </trkpt>
      <trkpt lat="48.82432" lon="2.31948">
        <ele>134.7</ele>
        <time>2015-05-05T20:30:42.990Z</time>
      </trkpt>
      <trkpt lat="48.82436" lon="2.31956">
        <ele>131</ele>
        <time>2015-05-05T20:30:45.038Z</time>
      </trkpt>
      <trkpt lat="48.82438" lon="2.31961">
        <ele>129.5</ele>
        <time>2015-05-05T20:30:46.082Z</time>
      </trkpt>
      <trkpt lat="48.82441" lon="2.31965">
        <ele>131</ele>
        <time>2015-05-05T20:30:47.033Z</time>
      </trkpt>
      <trkpt lat="48.82444" lon="2.3197">
        <ele>130.2</ele>
        <time>2015-05-05T20:30:47.999Z</time>
      </trkpt>
      <trkpt lat="48.82445" lon="2.31984">
        <ele>131.4</ele>
        <time>2015-05-05T20:30:50.025Z</time>
      </trkpt>
      <trkpt lat="48.82445" lon="2.31992">
        <ele>133.3</ele>
        <time>2015-05-05T20:30:51.044Z</time>
      </trkpt>
      <trkpt lat="48.82446" lon="2.31999">
        <ele>131.8</ele>
        <time>2015-05-05T20:30:52.063Z</time>
      </trkpt>
      <trkpt lat="48.82444" lon="2.32006">
        <ele>131.8</ele>
        <time>2015-05-05T20:30:52.985Z</time>
      </trkpt>
      <trkpt lat="48.82442" lon="2.32013">
        <ele>130.7</ele>
        <time>2015-05-05T20:30:54.001Z</time>
      </trkpt>
      <trkpt lat="48.8244" lon="2.3202">
        <ele>129.2</ele>
        <time>2015-05-05T20:30:55.010Z</time>
      </trkpt>
      <trkpt lat="48.82437" lon="2.32027">
        <ele>127.2</ele>
        <time>2015-05-05T20:30:56.028Z</time>
      </trkpt>
      <trkpt lat="48.82436" lon="2.32033">
        <ele>126.6</ele>
        <time>2015-05-05T20:30:57.038Z</time>
      </trkpt>
      <trkpt lat="48.82435" lon="2.32046">
        <ele>127.2</ele>
        <time>2015-05-05T20:30:59.054Z</time>
      </trkpt>
      <trkpt lat="48.82433" lon="2.32055">
        <ele>126.5</ele>
        <time>2015-05-05T20:31:00.049Z</time>
      </trkpt>
      <trkpt lat="48.82431" lon="2.32064">
        <ele>126.4</ele>
        <time>2015-05-05T20:31:01.014Z</time>
      </trkpt>
      <trkpt lat="48.8243" lon="2.32072">
        <ele>126.5</ele>
        <time>2015-05-05T20:31:02.046Z</time>
      </trkpt>
      <trkpt lat="48.82428" lon="2.32081">
        <ele>126.2</ele>
        <time>2015-05-05T20:31:03.181Z</time>
      </trkpt>
      <trkpt lat="48.82426" lon="2.3209">
        <ele>126.2</ele>
        <time>2015-05-05T20:31:04.020Z</time>
      </trkpt>
      <trkpt lat="48.82424" lon="2.32099">
        <ele>126.1</ele>
        <time>2015-05-05T20:31:05.033Z</time>
      </trkpt>
      <trkpt lat="48.82422" lon="2.32108">
        <ele>126</ele>
        <time>2015-05-05T20:31:06.067Z</time>
      </trkpt>
      <trkpt lat="48.82418" lon="2.32116">
        <ele>125</ele>
        <time>2015-05-05T20:31:06.984Z</time>
      </trkpt>
      <trkpt lat="48.82415" lon="2.32125">
        <ele>123.2</ele>
        <time>2015-05-05T20:31:07.980Z</time>
      </trkpt>
      <trkpt lat="48.82412" lon="2.32135">
        <ele>123.3</ele>
        <time>2015-05-05T20:31:09.026Z</time>
      </trkpt>
      <trkpt lat="48.8241" lon="2.32146">
        <ele>123.2</ele>
        <time>2015-05-05T20:31:09.996Z</time>
      </trkpt>
      <trkpt lat="48.82407" lon="2.32156">
        <ele>123.4</ele>
        <time>2015-05-05T20:31:10.960Z</time>
      </trkpt>
      <trkpt lat="48.82405" lon="2.32166">
        <ele>123.2</ele>
        <time>2015-05-05T20:31:11.982Z</time>
      </trkpt>
      <trkpt lat="48.82403" lon="2.32176">
        <ele>123.3</ele>
        <time>2015-05-05T20:31:13.006Z</time>
      </trkpt>
      <trkpt lat="48.82401" lon="2.32185">
        <ele>123.3</ele>
        <time>2015-05-05T20:31:14.042Z</time>
      </trkpt>
      <trkpt lat="48.82399" lon="2.32192">
        <ele>123.1</ele>
        <time>2015-05-05T20:31:14.959Z</time>
      </trkpt>
      <trkpt lat="48.82398" lon="2.322">
        <ele>123.2</ele>
        <time>2015-05-05T20:31:15.995Z</time>
      </trkpt>
      <trkpt lat="48.82396" lon="2.32209">
        <ele>122.9</ele>
        <time>2015-05-05T20:31:17.038Z</time>
      </trkpt>
      <trkpt lat="48.82394" lon="2.32216">
        <ele>122.6</ele>
        <time>2015-05-05T20:31:18.010Z</time>
      </trkpt>
      <trkpt lat="48.82393" lon="2.32225">
        <ele>122.2</ele>
        <time>2015-05-05T20:31:19.022Z</time>
      </trkpt>
      <trkpt lat="48.82391" lon="2.32234">
        <ele>122.2</ele>
        <time>2015-05-05T20:31:20.035Z</time>
      </trkpt>
      <trkpt lat="48.8239" lon="2.32242">
        <ele>122</ele>
        <time>2015-05-05T20:31:21.041Z</time>
      </trkpt>
      <trkpt lat="48.82389" lon="2.3225">
        <ele>121.7</ele>
        <time>2015-05-05T20:31:22.048Z</time>
      </trkpt>
      <trkpt lat="48.82387" lon="2.32258">
        <ele>121.6</ele>
        <time>2015-05-05T20:31:22.961Z</time>
      </trkpt>
      <trkpt lat="48.82385" lon="2.32266">
        <ele>121.7</ele>
        <time>2015-05-05T20:31:23.986Z</time>
      </trkpt>
      <trkpt lat="48.82384" lon="2.32274">
        <ele>121.7</ele>
        <time>2015-05-05T20:31:24.993Z</time>
      </trkpt>
      <trkpt lat="48.82383" lon="2.32281">
        <ele>121.6</ele>
        <time>2015-05-05T20:31:26.010Z</time>
      </trkpt>
      <trkpt lat="48.82381" lon="2.32287">
        <ele>120.5</ele>
        <time>2015-05-05T20:31:27.017Z</time>
      </trkpt>
      <trkpt lat="48.8238" lon="2.32294">
        <ele>120.2</ele>
        <time>2015-05-05T20:31:28.040Z</time>
      </trkpt>
      <trkpt lat="48.82379" lon="2.32301">
        <ele>121</ele>
        <time>2015-05-05T20:31:29.050Z</time>
      </trkpt>
      <trkpt lat="48.82378" lon="2.32308">
        <ele>122.8</ele>
        <time>2015-05-05T20:31:30.055Z</time>
      </trkpt>
      <trkpt lat="48.82377" lon="2.32314">
        <ele>123</ele>
        <time>2015-05-05T20:31:30.983Z</time>
      </trkpt>
      <trkpt lat="48.82377" lon="2.32321">
        <ele>123.9</ele>
        <time>2015-05-05T20:31:31.982Z</time>
      </trkpt>
      <trkpt lat="48.82382" lon="2.32331">
        <ele>123.4</ele>
        <time>2015-05-05T20:31:35.978Z</time>
      </trkpt>
      <trkpt lat="48.82385" lon="2.32331">
        <ele>124.3</ele>
        <time>2015-05-05T20:31:37.002Z</time>
      </trkpt>
      <trkpt lat="48.8239" lon="2.32328">
        <ele>125.5</ele>
        <time>2015-05-05T20:31:38.047Z</time>
      </trkpt>
      <trkpt lat="48.82394" lon="2.32326">
        <ele>125.7</ele>
        <time>2015-05-05T20:31:39.058Z</time>
      </trkpt>
      <trkpt lat="48.82401" lon="2.3233">
        <ele>128</ele>
        <time>2015-05-05T20:31:43.034Z</time>
      </trkpt>
      <trkpt lat="48.82403" lon="2.32331">
        <ele>128.4</ele>
        <time>2015-05-05T20:31:43.995Z</time>
      </trkpt>
      <trkpt lat="48.82407" lon="2.32335">
        <ele>128.3</ele>
        <time>2015-05-05T20:31:44.982Z</time>
      </trkpt>
      <trkpt lat="48.82411" lon="2.32339">
        <ele>128.3</ele>
        <time>2015-05-05T20:31:46.008Z</time>
      </trkpt>
      <trkpt lat="48.82417" lon="2.32346">
        <ele>128.4</ele>
        <time>2015-05-05T20:31:48.030Z</time>
      </trkpt>
      <trkpt lat="48.82421" lon="2.32348">
        <ele>128.3</ele>
        <time>2015-05-05T20:31:49.064Z</time>
      </trkpt>
      <trkpt lat="48.8243" lon="2.32349">
        <ele>128.5</ele>
        <time>2015-05-05T20:31:49.982Z</time>
      </trkpt>
      <trkpt lat="48.82434" lon="2.32351">
        <ele>127.9</ele>
        <time>2015-05-05T20:31:51.031Z</time>
      </trkpt>
      <trkpt lat="48.82441" lon="2.32359">
        <ele>127.1</ele>
        <time>2015-05-05T20:31:52.947Z</time>
      </trkpt>
      <trkpt lat="48.82443" lon="2.32363">
        <ele>127.1</ele>
        <time>2015-05-05T20:31:54.300Z</time>
      </trkpt>
      <trkpt lat="48.8245" lon="2.32372">
        <ele>127.2</ele>
        <time>2015-05-05T20:31:56.965Z</time>
      </trkpt>
      <trkpt lat="48.82454" lon="2.32373">
        <ele>127.1</ele>
        <time>2015-05-05T20:31:58.095Z</time>
      </trkpt>
      <trkpt lat="48.82462" lon="2.32375">
        <ele>127.2</ele>
        <time>2015-05-05T20:31:59.983Z</time>
      </trkpt>
      <trkpt lat="48.82468" lon="2.32377">
        <ele>127.2</ele>
        <time>2015-05-05T20:32:01.002Z</time>
      </trkpt>
      <trkpt lat="48.82474" lon="2.32381">
        <ele>127.2</ele>
        <time>2015-05-05T20:32:01.953Z</time>
      </trkpt>
      <trkpt lat="48.8248" lon="2.32384">
        <ele>126.9</ele>
        <time>2015-05-05T20:32:02.962Z</time>
      </trkpt>
      <trkpt lat="48.82487" lon="2.32384">
        <ele>126.7</ele>
        <time>2015-05-05T20:32:04.003Z</time>
      </trkpt>
      <trkpt lat="48.82492" lon="2.32388">
        <ele>127.3</ele>
        <time>2015-05-05T20:32:05Z</time>
      </trkpt>
      <trkpt lat="48.82498" lon="2.32391">
        <ele>127.6</ele>
        <time>2015-05-05T20:32:06.027Z</time>
      </trkpt>
      <trkpt lat="48.82505" lon="2.32394">
        <ele>127.5</ele>
        <time>2015-05-05T20:32:07.076Z</time>
      </trkpt>
      <trkpt lat="48.82513" lon="2.32396">
        <ele>128.3</ele>
        <time>2015-05-05T20:32:07.965Z</time>
      </trkpt>
      <trkpt lat="48.82518" lon="2.32399">
        <ele>128.6</ele>
        <time>2015-05-05T20:32:08.982Z</time>
      </trkpt>
      <trkpt lat="48.82526" lon="2.32406">
        <ele>128.7</ele>
        <time>2015-05-05T20:32:11.020Z</time>
      </trkpt>
      <trkpt lat="48.8253" lon="2.3241">
        <ele>128.7</ele>
        <time>2015-05-05T20:32:11.964Z</time>
      </trkpt>
      <trkpt lat="48.82535" lon="2.32414">
        <ele>128.7</ele>
        <time>2015-05-05T20:32:12.966Z</time>
      </trkpt>
      <trkpt lat="48.8254" lon="2.32418">
        <ele>128.7</ele>
        <time>2015-05-05T20:32:13.991Z</time>
      </trkpt>
      <trkpt lat="48.82545" lon="2.32422">
        <ele>128.8</ele>
        <time>2015-05-05T20:32:15.021Z</time>
      </trkpt>
      <trkpt lat="48.82551" lon="2.32424">
        <ele>128.7</ele>
        <time>2015-05-05T20:32:16.033Z</time>
      </trkpt>
      <trkpt lat="48.82557" lon="2.32426">
        <ele>128.8</ele>
        <time>2015-05-05T20:32:17.041Z</time>
      </trkpt>
      <trkpt lat="48.82561" lon="2.32429">
        <ele>128.9</ele>
        <time>2015-05-05T20:32:17.947Z</time>
      </trkpt>
      <trkpt lat="48.82565" lon="2.32432">
        <ele>129</ele>
        <time>2015-05-05T20:32:18.975Z</time>
      </trkpt>
      <trkpt lat="48.82571" lon="2.32432">
        <ele>129.2</ele>
        <time>2015-05-05T20:32:19.975Z</time>
      </trkpt>
      <trkpt lat="48.82577" lon="2.3244">
        <ele>129.2</ele>
        <time>2015-05-05T20:32:21.997Z</time>
      </trkpt>
      <trkpt lat="48.82582" lon="2.32444">
        <ele>129.3</ele>
        <time>2015-05-05T20:32:23.010Z</time>
      </trkpt>
      <trkpt lat="48.8259" lon="2.32449">
        <ele>129</ele>
        <time>2015-05-05T20:32:25.044Z</time>
      </trkpt>
      <trkpt lat="48.82593" lon="2.32453">
        <ele>128.9</ele>
        <time>2015-05-05T20:32:25.953Z</time>
      </trkpt>
      <trkpt lat="48.82601" lon="2.32457">
        <ele>128.6</ele>
        <time>2015-05-05T20:32:27.994Z</time>
      </trkpt>
      <trkpt lat="48.82605" lon="2.3246">
        <ele>128.6</ele>
        <time>2015-05-05T20:32:29.007Z</time>
      </trkpt>
      <trkpt lat="48.82609" lon="2.32464">
        <ele>128.6</ele>
        <time>2015-05-05T20:32:30.018Z</time>
      </trkpt>
      <trkpt lat="48.82614" lon="2.3247">
        <ele>128.7</ele>
        <time>2015-05-05T20:32:31.022Z</time>
      </trkpt>
      <trkpt lat="48.8262" lon="2.32474">
        <ele>128.7</ele>
        <time>2015-05-05T20:32:32.040Z</time>
      </trkpt>
      <trkpt lat="48.82626" lon="2.32477">
        <ele>128.7</ele>
        <time>2015-05-05T20:32:32.954Z</time>
      </trkpt>
      <trkpt lat="48.82632" lon="2.3248">
        <ele>128.8</ele>
        <time>2015-05-05T20:32:34.062Z</time>
      </trkpt>
      <trkpt lat="48.82639" lon="2.32484">
        <ele>128.9</ele>
        <time>2015-05-05T20:32:34.985Z</time>
      </trkpt>
      <trkpt lat="48.82645" lon="2.32488">
        <ele>128.8</ele>
        <time>2015-05-05T20:32:35.966Z</time>
      </trkpt>
      <trkpt lat="48.82649" lon="2.32492">
        <ele>128.9</ele>
        <time>2015-05-05T20:32:36.967Z</time>
      </trkpt>
      <trkpt lat="48.82653" lon="2.32496">
        <ele>128.9</ele>
        <time>2015-05-05T20:32:37.996Z</time>
      </trkpt>
      <trkpt lat="48.82658" lon="2.325">
        <ele>129</ele>
        <time>2015-05-05T20:32:39.020Z</time>
      </trkpt>
      <trkpt lat="48.82664" lon="2.32499">
        <ele>129.4</ele>
        <time>2015-05-05T20:32:40.086Z</time>
      </trkpt>
      <trkpt lat="48.8267" lon="2.32497">
        <ele>129.2</ele>
        <time>2015-05-05T20:32:40.970Z</time>
      </trkpt>
      <trkpt lat="48.82678" lon="2.32496">
        <ele>128.9</ele>
        <time>2015-05-05T20:32:41.984Z</time>
      </trkpt>
      <trkpt lat="48.82686" lon="2.32497">
        <ele>129</ele>
        <time>2015-05-05T20:32:42.990Z</time>
      </trkpt>
      <trkpt lat="48.82697" lon="2.32502">
        <ele>128.9</ele>
        <time>2015-05-05T20:32:43.997Z</time>
      </trkpt>
      <trkpt lat="48.82705" lon="2.32508">
        <ele>128.9</ele>
        <time>2015-05-05T20:32:45.016Z</time>
      </trkpt>
      <trkpt lat="48.82712" lon="2.32513">
        <ele>128.9</ele>
        <time>2015-05-05T20:32:46.105Z</time>
      </trkpt>
      <trkpt lat="48.82718" lon="2.32519">
        <ele>128.2</ele>
        <time>2015-05-05T20:32:46.977Z</time>
      </trkpt>
      <trkpt lat="48.82723" lon="2.32525">
        <ele>128.4</ele>
        <time>2015-05-05T20:32:47.978Z</time>
      </trkpt>
      <trkpt lat="48.82728" lon="2.3253">
        <ele>128.5</ele>
        <time>2015-05-05T20:32:49Z</time>
      </trkpt>
      <trkpt lat="48.82733" lon="2.32535">
        <ele>128.6</ele>
        <time>2015-05-05T20:32:50.009Z</time>
      </trkpt>
      <trkpt lat="48.82737" lon="2.32542">
        <ele>128.5</ele>
        <time>2015-05-05T20:32:51.034Z</time>
      </trkpt>
      <trkpt lat="48.82741" lon="2.32547">
        <ele>128.6</ele>
        <time>2015-05-05T20:32:52.041Z</time>
      </trkpt>
      <trkpt lat="48.82744" lon="2.32556">
        <ele>129.1</ele>
        <time>2015-05-05T20:32:53.048Z</time>
      </trkpt>
      <trkpt lat="48.82747" lon="2.32563">
        <ele>129.3</ele>
        <time>2015-05-05T20:32:53.965Z</time>
      </trkpt>
      <trkpt lat="48.82748" lon="2.3257">
        <ele>129.3</ele>
        <time>2015-05-05T20:32:54.948Z</time>
      </trkpt>
      <trkpt lat="48.8275" lon="2.32576">
        <ele>129.4</ele>
        <time>2015-05-05T20:32:55.965Z</time>
      </trkpt>
      <trkpt lat="48.82752" lon="2.32583">
        <ele>129.5</ele>
        <time>2015-05-05T20:32:56.981Z</time>
      </trkpt>
      <trkpt lat="48.82754" lon="2.32589">
        <ele>130</ele>
        <time>2015-05-05T20:32:58.024Z</time>
      </trkpt>
      <trkpt lat="48.82755" lon="2.32596">
        <ele>130.2</ele>
        <time>2015-05-05T20:32:59.036Z</time>
      </trkpt>
      <trkpt lat="48.82756" lon="2.32603">
        <ele>130.4</ele>
        <time>2015-05-05T20:33:00.040Z</time>
      </trkpt>
      <trkpt lat="48.82759" lon="2.32614">
        <ele>131</ele>
        <time>2015-05-05T20:33:01.950Z</time>
      </trkpt>
      <trkpt lat="48.82761" lon="2.32618">
        <ele>131.2</ele>
        <time>2015-05-05T20:33:03.065Z</time>
      </trkpt>
      <trkpt lat="48.82762" lon="2.32628">
        <ele>131.2</ele>
        <time>2015-05-05T20:33:04.956Z</time>
      </trkpt>
      <trkpt lat="48.82763" lon="2.32633">
        <ele>131.7</ele>
        <time>2015-05-05T20:33:05.992Z</time>
      </trkpt>
      <trkpt lat="48.82766" lon="2.3264">
        <ele>133</ele>
        <time>2015-05-05T20:33:08.024Z</time>
      </trkpt>
      <trkpt lat="48.82768" lon="2.32644">
        <ele>133.2</ele>
        <time>2015-05-05T20:33:09.055Z</time>
      </trkpt>
      <trkpt lat="48.82769" lon="2.32657">
        <ele>131.3</ele>
        <time>2015-05-05T20:33:11.977Z</time>
      </trkpt>
      <trkpt lat="48.8277" lon="2.32659">
        <ele>131.1</ele>
        <time>2015-05-05T20:33:12.979Z</time>
      </trkpt>
      <trkpt lat="48.82778" lon="2.32663">
        <ele>133</ele>
        <time>2015-05-05T20:33:18.991Z</time>
      </trkpt>
      <trkpt lat="48.82778" lon="2.32667">
        <ele>133.1</ele>
        <time>2015-05-05T20:33:19.995Z</time>
      </trkpt>
      <trkpt lat="48.82779" lon="2.3268">
        <ele>132.9</ele>
        <time>2015-05-05T20:33:23.030Z</time>
      </trkpt>
      <trkpt lat="48.82779" lon="2.32683">
        <ele>133.2</ele>
        <time>2015-05-05T20:33:24.047Z</time>
      </trkpt>
      <trkpt lat="48.82779" lon="2.32695">
        <ele>133.8</ele>
        <time>2015-05-05T20:33:27.017Z</time>
      </trkpt>
      <trkpt lat="48.8278" lon="2.32698">
        <ele>133.4</ele>
        <time>2015-05-05T20:33:28.059Z</time>
      </trkpt>
      <trkpt lat="48.8278" lon="2.32704">
        <ele>132.6</ele>
        <time>2015-05-05T20:33:55.072Z</time>
      </trkpt>
      <trkpt lat="48.82801" lon="2.32705">
        <ele>130.2</ele>
        <time>2015-05-05T20:33:56.060Z</time>
      </trkpt>
      <trkpt lat="48.82806" lon="2.32715">
        <ele>129.3</ele>
        <time>2015-05-05T20:33:58.055Z</time>
      </trkpt>
      <trkpt lat="48.82808" lon="2.32719">
        <ele>128.9</ele>
        <time>2015-05-05T20:33:59.060Z</time>
      </trkpt>
      <trkpt lat="48.82811" lon="2.32724">
        <ele>128.7</ele>
        <time>2015-05-05T20:33:59.970Z</time>
      </trkpt>
      <trkpt lat="48.82819" lon="2.32727">
        <ele>129</ele>
        <time>2015-05-05T20:34:01.025Z</time>
      </trkpt>
      <trkpt lat="48.82825" lon="2.32732">
        <ele>129.2</ele>
        <time>2015-05-05T20:34:02.101Z</time>
      </trkpt>
      <trkpt lat="48.82831" lon="2.32736">
        <ele>129.5</ele>
        <time>2015-05-05T20:34:03.099Z</time>
      </trkpt>
      <trkpt lat="48.82838" lon="2.32741">
        <ele>130.3</ele>
        <time>2015-05-05T20:34:04.036Z</time>
      </trkpt>
      <trkpt lat="48.82842" lon="2.32745">
        <ele>130.5</ele>
        <time>2015-05-05T20:34:05.030Z</time>
      </trkpt>
      <trkpt lat="48.82846" lon="2.32749">
        <ele>130.8</ele>
        <time>2015-05-05T20:34:06.051Z</time>
      </trkpt>
      <trkpt lat="48.8285" lon="2.32753">
        <ele>131.1</ele>
        <time>2015-05-05T20:34:07.066Z</time>
      </trkpt>
      <trkpt lat="48.82856" lon="2.32759">
        <ele>131</ele>
        <time>2015-05-05T20:34:07.981Z</time>
      </trkpt>
      <trkpt lat="48.82862" lon="2.32763">
        <ele>131.2</ele>
        <time>2015-05-05T20:34:08.976Z</time>
      </trkpt>
      <trkpt lat="48.82867" lon="2.32768">
        <ele>131.2</ele>
        <time>2015-05-05T20:34:10.022Z</time>
      </trkpt>
      <trkpt lat="48.82872" lon="2.32774">
        <ele>131.4</ele>
        <time>2015-05-05T20:34:11.026Z</time>
      </trkpt>
      <trkpt lat="48.82876" lon="2.32782">
        <ele>131.5</ele>
        <time>2015-05-05T20:34:13.041Z</time>
      </trkpt>
      <trkpt lat="48.82879" lon="2.32786">
        <ele>131.7</ele>
        <time>2015-05-05T20:34:14.051Z</time>
      </trkpt>
      <trkpt lat="48.82882" lon="2.3279">
        <ele>131.9</ele>
        <time>2015-05-05T20:34:15.038Z</time>
      </trkpt>
      <trkpt lat="48.82886" lon="2.32795">
        <ele>132</ele>
        <time>2015-05-05T20:34:16.044Z</time>
      </trkpt>
      <trkpt lat="48.82889" lon="2.328">
        <ele>132.1</ele>
        <time>2015-05-05T20:34:17.053Z</time>
      </trkpt>
      <trkpt lat="48.82893" lon="2.32806">
        <ele>131.8</ele>
        <time>2015-05-05T20:34:18.066Z</time>
      </trkpt>
      <trkpt lat="48.829" lon="2.32814">
        <ele>131.3</ele>
        <time>2015-05-05T20:34:19.993Z</time>
      </trkpt>
      <trkpt lat="48.82904" lon="2.32815">
        <ele>131.2</ele>
        <time>2015-05-05T20:34:21.020Z</time>
      </trkpt>
      <trkpt lat="48.8291" lon="2.32817">
        <ele>131.5</ele>
        <time>2015-05-05T20:34:22.043Z</time>
      </trkpt>
      <trkpt lat="48.82917" lon="2.32819">
        <ele>131.7</ele>
        <time>2015-05-05T20:34:23.041Z</time>
      </trkpt>
      <trkpt lat="48.82923" lon="2.3282">
        <ele>131.8</ele>
        <time>2015-05-05T20:34:24.047Z</time>
      </trkpt>
      <trkpt lat="48.82932" lon="2.32826">
        <ele>131.8</ele>
        <time>2015-05-05T20:34:25.057Z</time>
      </trkpt>
      <trkpt lat="48.82938" lon="2.32832">
        <ele>131.9</ele>
        <time>2015-05-05T20:34:25.991Z</time>
      </trkpt>
      <trkpt lat="48.82944" lon="2.32839">
        <ele>131.9</ele>
        <time>2015-05-05T20:34:26.991Z</time>
      </trkpt>
      <trkpt lat="48.82949" lon="2.32845">
        <ele>131.5</ele>
        <time>2015-05-05T20:34:28.037Z</time>
      </trkpt>
      <trkpt lat="48.82954" lon="2.32851">
        <ele>131.6</ele>
        <time>2015-05-05T20:34:29.045Z</time>
      </trkpt>
      <trkpt lat="48.82961" lon="2.32855">
        <ele>131.8</ele>
        <time>2015-05-05T20:34:30.049Z</time>
      </trkpt>
      <trkpt lat="48.82966" lon="2.32861">
        <ele>131.8</ele>
        <time>2015-05-05T20:34:31.056Z</time>
      </trkpt>
      <trkpt lat="48.82971" lon="2.32867">
        <ele>131.9</ele>
        <time>2015-05-05T20:34:32.073Z</time>
      </trkpt>
      <trkpt lat="48.82976" lon="2.32871">
        <ele>132.1</ele>
        <time>2015-05-05T20:34:32.995Z</time>
      </trkpt>
      <trkpt lat="48.82982" lon="2.32875">
        <ele>132.4</ele>
        <time>2015-05-05T20:34:34.111Z</time>
      </trkpt>
      <trkpt lat="48.82988" lon="2.3288">
        <ele>132.6</ele>
        <time>2015-05-05T20:34:34.997Z</time>
      </trkpt>
      <trkpt lat="48.82995" lon="2.32885">
        <ele>132.8</ele>
        <time>2015-05-05T20:34:36.008Z</time>
      </trkpt>
      <trkpt lat="48.83002" lon="2.32891">
        <ele>132.8</ele>
        <time>2015-05-05T20:34:37.020Z</time>
      </trkpt>
      <trkpt lat="48.8301" lon="2.32896">
        <ele>133</ele>
        <time>2015-05-05T20:34:38.028Z</time>
      </trkpt>
      <trkpt lat="48.83017" lon="2.32901">
        <ele>133.1</ele>
        <time>2015-05-05T20:34:39.041Z</time>
      </trkpt>
      <trkpt lat="48.83023" lon="2.32906">
        <ele>133.3</ele>
        <time>2015-05-05T20:34:40.073Z</time>
      </trkpt>
      <trkpt lat="48.8303" lon="2.3291">
        <ele>133.3</ele>
        <time>2015-05-05T20:34:41.069Z</time>
      </trkpt>
      <trkpt lat="48.83035" lon="2.32914">
        <ele>133.5</ele>
        <time>2015-05-05T20:34:42.077Z</time>
      </trkpt>
      <trkpt lat="48.83039" lon="2.32917">
        <ele>133.6</ele>
        <time>2015-05-05T20:34:43.091Z</time>
      </trkpt>
      <trkpt lat="48.83044" lon="2.32921">
        <ele>133.9</ele>
        <time>2015-05-05T20:34:43.993Z</time>
      </trkpt>
      <trkpt lat="48.83049" lon="2.32925">
        <ele>134.2</ele>
        <time>2015-05-05T20:34:45.027Z</time>
      </trkpt>
      <trkpt lat="48.83054" lon="2.32928">
        <ele>134.6</ele>
        <time>2015-05-05T20:34:46.089Z</time>
      </trkpt>
      <trkpt lat="48.83059" lon="2.32932">
        <ele>135</ele>
        <time>2015-05-05T20:34:47.086Z</time>
      </trkpt>
      <trkpt lat="48.83065" lon="2.32937">
        <ele>135.2</ele>
        <time>2015-05-05T20:34:48.005Z</time>
      </trkpt>
      <trkpt lat="48.83072" lon="2.3294">
        <ele>135.9</ele>
        <time>2015-05-05T20:34:48.997Z</time>
      </trkpt>
      <trkpt lat="48.83079" lon="2.32944">
        <ele>136.3</ele>
        <time>2015-05-05T20:34:50.015Z</time>
      </trkpt>
      <trkpt lat="48.83085" lon="2.32949">
        <ele>136.4</ele>
        <time>2015-05-05T20:34:51.069Z</time>
      </trkpt>
      <trkpt lat="48.83092" lon="2.32956">
        <ele>135.1</ele>
        <time>2015-05-05T20:34:53.061Z</time>
      </trkpt>
      <trkpt lat="48.83095" lon="2.3296">
        <ele>135.2</ele>
        <time>2015-05-05T20:34:54.083Z</time>
      </trkpt>
      <trkpt lat="48.83099" lon="2.32963">
        <ele>135.4</ele>
        <time>2015-05-05T20:34:55.005Z</time>
      </trkpt>
      <trkpt lat="48.83104" lon="2.32966">
        <ele>135.4</ele>
        <time>2015-05-05T20:34:56.004Z</time>
      </trkpt>
      <trkpt lat="48.83108" lon="2.3297">
        <ele>135.6</ele>
        <time>2015-05-05T20:34:57.014Z</time>
      </trkpt>
      <trkpt lat="48.83113" lon="2.32972">
        <ele>135.4</ele>
        <time>2015-05-05T20:34:58.037Z</time>
      </trkpt>
      <trkpt lat="48.83118" lon="2.32976">
        <ele>135.1</ele>
        <time>2015-05-05T20:34:59.050Z</time>
      </trkpt>
      <trkpt lat="48.83123" lon="2.3298">
        <ele>135.3</ele>
        <time>2015-05-05T20:35:00.069Z</time>
      </trkpt>
      <trkpt lat="48.83128" lon="2.32984">
        <ele>135.3</ele>
        <time>2015-05-05T20:35:00.972Z</time>
      </trkpt>
      <trkpt lat="48.83132" lon="2.32988">
        <ele>135.8</ele>
        <time>2015-05-05T20:35:02.003Z</time>
      </trkpt>
      <trkpt lat="48.83136" lon="2.32993">
        <ele>136.3</ele>
        <time>2015-05-05T20:35:03.019Z</time>
      </trkpt>
      <trkpt lat="48.8314" lon="2.32997">
        <ele>136.8</ele>
        <time>2015-05-05T20:35:04.041Z</time>
      </trkpt>
      <trkpt lat="48.83144" lon="2.33002">
        <ele>137</ele>
        <time>2015-05-05T20:35:05.030Z</time>
      </trkpt>
      <trkpt lat="48.83149" lon="2.33006">
        <ele>136.8</ele>
        <time>2015-05-05T20:35:06.041Z</time>
      </trkpt>
      <trkpt lat="48.83153" lon="2.33011">
        <ele>137</ele>
        <time>2015-05-05T20:35:07.044Z</time>
      </trkpt>
      <trkpt lat="48.83158" lon="2.33016">
        <ele>137.3</ele>
        <time>2015-05-05T20:35:08.063Z</time>
      </trkpt>
      <trkpt lat="48.83162" lon="2.33021">
        <ele>137.4</ele>
        <time>2015-05-05T20:35:09.030Z</time>
      </trkpt>
      <trkpt lat="48.83165" lon="2.33026">
        <ele>137.5</ele>
        <time>2015-05-05T20:35:10.116Z</time>
      </trkpt>
      <trkpt lat="48.83169" lon="2.33032">
        <ele>137.3</ele>
        <time>2015-05-05T20:35:11.022Z</time>
      </trkpt>
      <trkpt lat="48.83172" lon="2.33036">
        <ele>137.5</ele>
        <time>2015-05-05T20:35:12.051Z</time>
      </trkpt>
      <trkpt lat="48.83176" lon="2.3304">
        <ele>137.4</ele>
        <time>2015-05-05T20:35:13.028Z</time>
      </trkpt>
      <trkpt lat="48.8318" lon="2.33043">
        <ele>137.3</ele>
        <time>2015-05-05T20:35:14.052Z</time>
      </trkpt>
      <trkpt lat="48.83187" lon="2.33046">
        <ele>136.2</ele>
        <time>2015-05-05T20:35:14.987Z</time>
      </trkpt>
      <trkpt lat="48.83195" lon="2.33049">
        <ele>135.4</ele>
        <time>2015-05-05T20:35:16.020Z</time>
      </trkpt>
      <trkpt lat="48.832" lon="2.33054">
        <ele>135.8</ele>
        <time>2015-05-05T20:35:17.021Z</time>
      </trkpt>
      <trkpt lat="48.83206" lon="2.3306">
        <ele>136</ele>
        <time>2015-05-05T20:35:18.036Z</time>
      </trkpt>
      <trkpt lat="48.83213" lon="2.33065">
        <ele>136.3</ele>
        <time>2015-05-05T20:35:19.047Z</time>
      </trkpt>
      <trkpt lat="48.83221" lon="2.33072">
        <ele>136.4</ele>
        <time>2015-05-05T20:35:20.065Z</time>
      </trkpt>
      <trkpt lat="48.8323" lon="2.33077">
        <ele>136.8</ele>
        <time>2015-05-05T20:35:21.075Z</time>
      </trkpt>
      <trkpt lat="48.83236" lon="2.33081">
        <ele>137</ele>
        <time>2015-05-05T20:35:22.086Z</time>
      </trkpt>
      <trkpt lat="48.83242" lon="2.33086">
        <ele>137.1</ele>
        <time>2015-05-05T20:35:23.057Z</time>
      </trkpt>
      <trkpt lat="48.83247" lon="2.3309">
        <ele>137.2</ele>
        <time>2015-05-05T20:35:23.994Z</time>
      </trkpt>
      <trkpt lat="48.83253" lon="2.33095">
        <ele>137.6</ele>
        <time>2015-05-05T20:35:25Z</time>
      </trkpt>
      <trkpt lat="48.83259" lon="2.33099">
        <ele>137.9</ele>
        <time>2015-05-05T20:35:26.007Z</time>
      </trkpt>
      <trkpt lat="48.83264" lon="2.33104">
        <ele>138.2</ele>
        <time>2015-05-05T20:35:27.015Z</time>
      </trkpt>
      <trkpt lat="48.83268" lon="2.33109">
        <ele>138.3</ele>
        <time>2015-05-05T20:35:28.022Z</time>
      </trkpt>
      <trkpt lat="48.83273" lon="2.33114">
        <ele>138.3</ele>
        <time>2015-05-05T20:35:29.032Z</time>
      </trkpt>
      <trkpt lat="48.83279" lon="2.33118">
        <ele>138.4</ele>
        <time>2015-05-05T20:35:30.035Z</time>
      </trkpt>
      <trkpt lat="48.83285" lon="2.33122">
        <ele>138.4</ele>
        <time>2015-05-05T20:35:31.041Z</time>
      </trkpt>
      <trkpt lat="48.8329" lon="2.33125">
        <ele>138.5</ele>
        <time>2015-05-05T20:35:32.007Z</time>
      </trkpt>
      <trkpt lat="48.83294" lon="2.33129">
        <ele>138.5</ele>
        <time>2015-05-05T20:35:33.020Z</time>
      </trkpt>
      <trkpt lat="48.83299" lon="2.33133">
        <ele>138.7</ele>
        <time>2015-05-05T20:35:34.128Z</time>
      </trkpt>
      <trkpt lat="48.83304" lon="2.33137">
        <ele>138.9</ele>
        <time>2015-05-05T20:35:34.984Z</time>
      </trkpt>
      <trkpt lat="48.83308" lon="2.33142">
        <ele>139</ele>
        <time>2015-05-05T20:35:36.007Z</time>
      </trkpt>
      <trkpt lat="48.83311" lon="2.33147">
        <ele>139.1</ele>
        <time>2015-05-05T20:35:37.012Z</time>
      </trkpt>
      <trkpt lat="48.83317" lon="2.33151">
        <ele>139.8</ele>
        <time>2015-05-05T20:35:38.062Z</time>
      </trkpt>
      <trkpt lat="48.83321" lon="2.33155">
        <ele>140.2</ele>
        <time>2015-05-05T20:35:38.966Z</time>
      </trkpt>
      <trkpt lat="48.83326" lon="2.33159">
        <ele>140.4</ele>
        <time>2015-05-05T20:35:40.024Z</time>
      </trkpt>
      <trkpt lat="48.83331" lon="2.33163">
        <ele>140.4</ele>
        <time>2015-05-05T20:35:41.033Z</time>
      </trkpt>
      <trkpt lat="48.83335" lon="2.33165">
        <ele>139.3</ele>
        <time>2015-05-05T20:35:41.981Z</time>
      </trkpt>
      <trkpt lat="48.83341" lon="2.33167">
        <ele>138.4</ele>
        <time>2015-05-05T20:35:42.990Z</time>
      </trkpt>
      <trkpt lat="48.83346" lon="2.3317">
        <ele>138.5</ele>
        <time>2015-05-05T20:35:44.003Z</time>
      </trkpt>
      <trkpt lat="48.83351" lon="2.33173">
        <ele>138.5</ele>
        <time>2015-05-05T20:35:45.066Z</time>
      </trkpt>
      <trkpt lat="48.83357" lon="2.33177">
        <ele>138.4</ele>
        <time>2015-05-05T20:35:46.099Z</time>
      </trkpt>
      <trkpt lat="48.83361" lon="2.33181">
        <ele>138.3</ele>
        <time>2015-05-05T20:35:46.981Z</time>
      </trkpt>
      <trkpt lat="48.83367" lon="2.33188">
        <ele>138.4</ele>
        <time>2015-05-05T20:35:48.991Z</time>
      </trkpt>
      <trkpt lat="48.8337" lon="2.33192">
        <ele>138.5</ele>
        <time>2015-05-05T20:35:50.052Z</time>
      </trkpt>
      <trkpt lat="48.83376" lon="2.332">
        <ele>139</ele>
        <time>2015-05-05T20:35:53.041Z</time>
      </trkpt>
      <trkpt lat="48.83378" lon="2.33202">
        <ele>139.3</ele>
        <time>2015-05-05T20:35:54.055Z</time>
      </trkpt>
      <trkpt lat="48.83385" lon="2.33203">
        <ele>137.7</ele>
        <time>2015-05-05T20:35:58.986Z</time>
      </trkpt>
      <trkpt lat="48.83387" lon="2.33204">
        <ele>136.8</ele>
        <time>2015-05-05T20:36:00.073Z</time>
      </trkpt>
      <trkpt lat="48.83392" lon="2.33212">
        <ele>135.5</ele>
        <time>2015-05-05T20:36:02.971Z</time>
      </trkpt>
      <trkpt lat="48.83395" lon="2.33215">
        <ele>135</ele>
        <time>2015-05-05T20:36:04.107Z</time>
      </trkpt>
      <trkpt lat="48.83403" lon="2.33219">
        <ele>133.6</ele>
        <time>2015-05-05T20:36:05.984Z</time>
      </trkpt>
      <trkpt lat="48.83406" lon="2.33222">
        <ele>133.1</ele>
        <time>2015-05-05T20:36:07.057Z</time>
      </trkpt>
      <trkpt lat="48.83413" lon="2.33226">
        <ele>132.3</ele>
        <time>2015-05-05T20:36:08.968Z</time>
      </trkpt>
      <trkpt lat="48.83417" lon="2.33228">
        <ele>132.3</ele>
        <time>2015-05-05T20:36:10.049Z</time>
      </trkpt>
      <trkpt lat="48.83424" lon="2.33235">
        <ele>132.7</ele>
        <time>2015-05-05T20:36:12.003Z</time>
      </trkpt>
      <trkpt lat="48.83428" lon="2.33239">
        <ele>132.2</ele>
        <time>2015-05-05T20:36:13.020Z</time>
      </trkpt>
      <trkpt lat="48.83432" lon="2.33244">
        <ele>132.5</ele>
        <time>2015-05-05T20:36:14.067Z</time>
      </trkpt>
      <trkpt lat="48.83436" lon="2.33248">
        <ele>132.3</ele>
        <time>2015-05-05T20:36:15.078Z</time>
      </trkpt>
      <trkpt lat="48.83441" lon="2.33257">
        <ele>132.2</ele>
        <time>2015-05-05T20:36:17Z</time>
      </trkpt>
      <trkpt lat="48.83443" lon="2.33263">
        <ele>132</ele>
        <time>2015-05-05T20:36:18.065Z</time>
      </trkpt>
      <trkpt lat="48.8345" lon="2.33271">
        <ele>131.9</ele>
        <time>2015-05-05T20:36:20.026Z</time>
      </trkpt>
      <trkpt lat="48.83453" lon="2.33272">
        <ele>131.5</ele>
        <time>2015-05-05T20:36:21.057Z</time>
      </trkpt>
      <trkpt lat="48.83461" lon="2.33276">
        <ele>131.1</ele>
        <time>2015-05-05T20:36:22.988Z</time>
      </trkpt>
      <trkpt lat="48.83465" lon="2.33278">
        <ele>131</ele>
        <time>2015-05-05T20:36:24.054Z</time>
      </trkpt>
      <trkpt lat="48.83472" lon="2.33281">
        <ele>130.8</ele>
        <time>2015-05-05T20:36:26.003Z</time>
      </trkpt>
      <trkpt lat="48.83475" lon="2.33282">
        <ele>130.3</ele>
        <time>2015-05-05T20:36:27.067Z</time>
      </trkpt>
      <trkpt lat="48.83475" lon="2.33286">
        <ele>128.1</ele>
        <time>2015-05-05T20:36:53.992Z</time>
      </trkpt>
      <trkpt lat="48.83465" lon="2.33278">
        <ele>124.3</ele>
        <time>2015-05-05T20:36:55Z</time>
      </trkpt>
      <trkpt lat="48.8347" lon="2.33282">
        <ele>124.7</ele>
        <time>2015-05-05T20:36:57.047Z</time>
      </trkpt>
      <trkpt lat="48.83473" lon="2.33284">
        <ele>125.4</ele>
        <time>2015-05-05T20:36:58.051Z</time>
      </trkpt>
      <trkpt lat="48.83479" lon="2.33289">
        <ele>126.3</ele>
        <time>2015-05-05T20:37:00.271Z</time>
      </trkpt>
      <trkpt lat="48.83483" lon="2.33292">
        <ele>126.8</ele>
        <time>2015-05-05T20:37:01.012Z</time>
      </trkpt>
      <trkpt lat="48.8349" lon="2.33299">
        <ele>127.8</ele>
        <time>2015-05-05T20:37:03.064Z</time>
      </trkpt>
      <trkpt lat="48.83496" lon="2.33307">
        <ele>127.8</ele>
        <time>2015-05-05T20:37:04.067Z</time>
      </trkpt>
      <trkpt lat="48.835" lon="2.33313">
        <ele>128.1</ele>
        <time>2015-05-05T20:37:04.995Z</time>
      </trkpt>
      <trkpt lat="48.83503" lon="2.33319">
        <ele>128.3</ele>
        <time>2015-05-05T20:37:06.025Z</time>
      </trkpt>
      <trkpt lat="48.83507" lon="2.33326">
        <ele>128.7</ele>
        <time>2015-05-05T20:37:07.035Z</time>
      </trkpt>
      <trkpt lat="48.83511" lon="2.33332">
        <ele>128.7</ele>
        <time>2015-05-05T20:37:08.045Z</time>
      </trkpt>
      <trkpt lat="48.83516" lon="2.33339">
        <ele>128.9</ele>
        <time>2015-05-05T20:37:09.077Z</time>
      </trkpt>
      <trkpt lat="48.8352" lon="2.33344">
        <ele>129.1</ele>
        <time>2015-05-05T20:37:10.179Z</time>
      </trkpt>
      <trkpt lat="48.83522" lon="2.3335">
        <ele>129.4</ele>
        <time>2015-05-05T20:37:11.581Z</time>
      </trkpt>
      <trkpt lat="48.83525" lon="2.33356">
        <ele>129.8</ele>
        <time>2015-05-05T20:37:12.008Z</time>
      </trkpt>
      <trkpt lat="48.83529" lon="2.33361">
        <ele>129.8</ele>
        <time>2015-05-05T20:37:13.022Z</time>
      </trkpt>
      <trkpt lat="48.83533" lon="2.33366">
        <ele>129.6</ele>
        <time>2015-05-05T20:37:14.035Z</time>
      </trkpt>
      <trkpt lat="48.83536" lon="2.33371">
        <ele>129.5</ele>
        <time>2015-05-05T20:37:15.053Z</time>
      </trkpt>
      <trkpt lat="48.83542" lon="2.33375">
        <ele>129.8</ele>
        <time>2015-05-05T20:37:16.058Z</time>
      </trkpt>
      <trkpt lat="48.83548" lon="2.33378">
        <ele>129.9</ele>
        <time>2015-05-05T20:37:17.073Z</time>
      </trkpt>
      <trkpt lat="48.83554" lon="2.33384">
        <ele>130.5</ele>
        <time>2015-05-05T20:37:17.968Z</time>
      </trkpt>
      <trkpt lat="48.83561" lon="2.33388">
        <ele>130.9</ele>
        <time>2015-05-05T20:37:18.992Z</time>
      </trkpt>
      <trkpt lat="48.83568" lon="2.33392">
        <ele>131.3</ele>
        <time>2015-05-05T20:37:20.017Z</time>
      </trkpt>
      <trkpt lat="48.83575" lon="2.33397">
        <ele>131.2</ele>
        <time>2015-05-05T20:37:21.030Z</time>
      </trkpt>
      <trkpt lat="48.83582" lon="2.334">
        <ele>131.1</ele>
        <time>2015-05-05T20:37:22.041Z</time>
      </trkpt>
      <trkpt lat="48.83589" lon="2.33403">
        <ele>130.3</ele>
        <time>2015-05-05T20:37:23.061Z</time>
      </trkpt>
      <trkpt lat="48.83596" lon="2.33406">
        <ele>130.2</ele>
        <time>2015-05-05T20:37:24.054Z</time>
      </trkpt>
      <trkpt lat="48.83604" lon="2.33411">
        <ele>130</ele>
        <time>2015-05-05T20:37:24.970Z</time>
      </trkpt>
      <trkpt lat="48.83612" lon="2.33415">
        <ele>130</ele>
        <time>2015-05-05T20:37:26.010Z</time>
      </trkpt>
      <trkpt lat="48.83619" lon="2.33419">
        <ele>129.9</ele>
        <time>2015-05-05T20:37:27.019Z</time>
      </trkpt>
      <trkpt lat="48.83625" lon="2.33424">
        <ele>129.7</ele>
        <time>2015-05-05T20:37:28.026Z</time>
      </trkpt>
      <trkpt lat="48.83632" lon="2.33427">
        <ele>129.1</ele>
        <time>2015-05-05T20:37:29.043Z</time>
      </trkpt>
      <trkpt lat="48.83637" lon="2.33433">
        <ele>129</ele>
        <time>2015-05-05T20:37:30.078Z</time>
      </trkpt>
      <trkpt lat="48.8364" lon="2.33439">
        <ele>128.8</ele>
        <time>2015-05-05T20:37:31.023Z</time>
      </trkpt>
      <trkpt lat="48.83645" lon="2.33444">
        <ele>128.9</ele>
        <time>2015-05-05T20:37:32.028Z</time>
      </trkpt>
      <trkpt lat="48.83651" lon="2.33449">
        <ele>129</ele>
        <time>2015-05-05T20:37:33.060Z</time>
      </trkpt>
      <trkpt lat="48.83656" lon="2.33455">
        <ele>129</ele>
        <time>2015-05-05T20:37:34.072Z</time>
      </trkpt>
      <trkpt lat="48.83662" lon="2.33461">
        <ele>129.1</ele>
        <time>2015-05-05T20:37:35.078Z</time>
      </trkpt>
      <trkpt lat="48.83668" lon="2.33469">
        <ele>128.8</ele>
        <time>2015-05-05T20:37:35.988Z</time>
      </trkpt>
      <trkpt lat="48.83675" lon="2.33476">
        <ele>128.8</ele>
        <time>2015-05-05T20:37:36.990Z</time>
      </trkpt>
      <trkpt lat="48.83681" lon="2.33481">
        <ele>128.3</ele>
        <time>2015-05-05T20:37:37.999Z</time>
      </trkpt>
      <trkpt lat="48.83688" lon="2.33487">
        <ele>128.1</ele>
        <time>2015-05-05T20:37:39.024Z</time>
      </trkpt>
      <trkpt lat="48.83695" lon="2.33494">
        <ele>127.8</ele>
        <time>2015-05-05T20:37:40.029Z</time>
      </trkpt>
      <trkpt lat="48.83703" lon="2.33501">
        <ele>127.7</ele>
        <time>2015-05-05T20:37:41.035Z</time>
      </trkpt>
      <trkpt lat="48.83711" lon="2.33508">
        <ele>127.3</ele>
        <time>2015-05-05T20:37:42.065Z</time>
      </trkpt>
      <trkpt lat="48.83719" lon="2.33517">
        <ele>127.2</ele>
        <time>2015-05-05T20:37:43.004Z</time>
      </trkpt>
      <trkpt lat="48.83727" lon="2.33524">
        <ele>126.8</ele>
        <time>2015-05-05T20:37:44.040Z</time>
      </trkpt>
      <trkpt lat="48.83735" lon="2.33532">
        <ele>126.4</ele>
        <time>2015-05-05T20:37:45.040Z</time>
      </trkpt>
      <trkpt lat="48.83746" lon="2.3354">
        <ele>127.1</ele>
        <time>2015-05-05T20:37:46.048Z</time>
      </trkpt>
      <trkpt lat="48.83754" lon="2.33546">
        <ele>127.1</ele>
        <time>2015-05-05T20:37:47.059Z</time>
      </trkpt>
      <trkpt lat="48.83761" lon="2.33553">
        <ele>126.8</ele>
        <time>2015-05-05T20:37:47.994Z</time>
      </trkpt>
      <trkpt lat="48.8377" lon="2.33561">
        <ele>126.2</ele>
        <time>2015-05-05T20:37:48.980Z</time>
      </trkpt>
      <trkpt lat="48.83777" lon="2.3357">
        <ele>125.8</ele>
        <time>2015-05-05T20:37:49.991Z</time>
      </trkpt>
      <trkpt lat="48.83783" lon="2.33578">
        <ele>125.8</ele>
        <time>2015-05-05T20:37:51.001Z</time>
      </trkpt>
      <trkpt lat="48.83788" lon="2.33586">
        <ele>126</ele>
        <time>2015-05-05T20:37:52.023Z</time>
      </trkpt>
      <trkpt lat="48.83795" lon="2.33592">
        <ele>125.6</ele>
        <time>2015-05-05T20:37:53.033Z</time>
      </trkpt>
      <trkpt lat="48.838" lon="2.33599">
        <ele>124.9</ele>
        <time>2015-05-05T20:37:54.044Z</time>
      </trkpt>
      <trkpt lat="48.83805" lon="2.33607">
        <ele>125</ele>
        <time>2015-05-05T20:37:55.045Z</time>
      </trkpt>
      <trkpt lat="48.8381" lon="2.33615">
        <ele>125.4</ele>
        <time>2015-05-05T20:37:56.065Z</time>
      </trkpt>
      <trkpt lat="48.83816" lon="2.33621">
        <ele>124.4</ele>
        <time>2015-05-05T20:37:57.010Z</time>
      </trkpt>
      <trkpt lat="48.83823" lon="2.33627">
        <ele>124.1</ele>
        <time>2015-05-05T20:37:58.046Z</time>
      </trkpt>
      <trkpt lat="48.83829" lon="2.33633">
        <ele>123.2</ele>
        <time>2015-05-05T20:37:58.979Z</time>
      </trkpt>
      <trkpt lat="48.83838" lon="2.3364">
        <ele>124.4</ele>
        <time>2015-05-05T20:37:59.974Z</time>
      </trkpt>
      <trkpt lat="48.83845" lon="2.33647">
        <ele>124.5</ele>
        <time>2015-05-05T20:38:00.983Z</time>
      </trkpt>
      <trkpt lat="48.83851" lon="2.33655">
        <ele>124.3</ele>
        <time>2015-05-05T20:38:01.988Z</time>
      </trkpt>
      <trkpt lat="48.83858" lon="2.33661">
        <ele>124.2</ele>
        <time>2015-05-05T20:38:03.011Z</time>
      </trkpt>
      <trkpt lat="48.83865" lon="2.33667">
        <ele>123.7</ele>
        <time>2015-05-05T20:38:04.024Z</time>
      </trkpt>
      <trkpt lat="48.83871" lon="2.33672">
        <ele>124.6</ele>
        <time>2015-05-05T20:38:05.039Z</time>
      </trkpt>
      <trkpt lat="48.83877" lon="2.33676">
        <ele>125.7</ele>
        <time>2015-05-05T20:38:06.047Z</time>
      </trkpt>
      <trkpt lat="48.83882" lon="2.33677">
        <ele>126.5</ele>
        <time>2015-05-05T20:38:07.056Z</time>
      </trkpt>
      <trkpt lat="48.83887" lon="2.33678">
        <ele>126.5</ele>
        <time>2015-05-05T20:38:08.071Z</time>
      </trkpt>
      <trkpt lat="48.83894" lon="2.33677">
        <ele>126.3</ele>
        <time>2015-05-05T20:38:08.980Z</time>
      </trkpt>
      <trkpt lat="48.839" lon="2.33677">
        <ele>126.6</ele>
        <time>2015-05-05T20:38:10.017Z</time>
      </trkpt>
      <trkpt lat="48.83905" lon="2.33677">
        <ele>127.2</ele>
        <time>2015-05-05T20:38:11.023Z</time>
      </trkpt>
      <trkpt lat="48.83911" lon="2.33677">
        <ele>127.6</ele>
        <time>2015-05-05T20:38:12.034Z</time>
      </trkpt>
      <trkpt lat="48.83917" lon="2.33676">
        <ele>127.7</ele>
        <time>2015-05-05T20:38:13.056Z</time>
      </trkpt>
      <trkpt lat="48.83922" lon="2.33676">
        <ele>128.4</ele>
        <time>2015-05-05T20:38:13.980Z</time>
      </trkpt>
      <trkpt lat="48.83927" lon="2.33677">
        <ele>129</ele>
        <time>2015-05-05T20:38:14.984Z</time>
      </trkpt>
      <trkpt lat="48.83931" lon="2.33676">
        <ele>129.3</ele>
        <time>2015-05-05T20:38:16.025Z</time>
      </trkpt>
      <trkpt lat="48.83939" lon="2.33675">
        <ele>127.3</ele>
        <time>2015-05-05T20:38:18.059Z</time>
      </trkpt>
      <trkpt lat="48.83942" lon="2.33674">
        <ele>125.7</ele>
        <time>2015-05-05T20:38:18.976Z</time>
      </trkpt>
      <trkpt lat="48.83951" lon="2.33675">
        <ele>123.1</ele>
        <time>2015-05-05T20:38:23.072Z</time>
      </trkpt>
      <trkpt lat="48.83953" lon="2.33676">
        <ele>123.1</ele>
        <time>2015-05-05T20:38:24.001Z</time>
      </trkpt>
      <trkpt lat="48.8396" lon="2.3368">
        <ele>123</ele>
        <time>2015-05-05T20:38:27.119Z</time>
      </trkpt>
      <trkpt lat="48.83962" lon="2.3368">
        <ele>123</ele>
        <time>2015-05-05T20:38:28.122Z</time>
      </trkpt>
      <trkpt lat="48.8397" lon="2.33679">
        <ele>123.1</ele>
        <time>2015-05-05T20:38:32.995Z</time>
      </trkpt>
      <trkpt lat="48.83972" lon="2.33678">
        <ele>123.2</ele>
        <time>2015-05-05T20:38:34.103Z</time>
      </trkpt>
      <trkpt lat="48.8398" lon="2.33676">
        <ele>122.8</ele>
        <time>2015-05-05T20:38:37.003Z</time>
      </trkpt>
      <trkpt lat="48.83983" lon="2.33677">
        <ele>122.8</ele>
        <time>2015-05-05T20:38:38.024Z</time>
      </trkpt>
      <trkpt lat="48.8399" lon="2.33679">
        <ele>123.1</ele>
        <time>2015-05-05T20:38:40.100Z</time>
      </trkpt>
      <trkpt lat="48.83994" lon="2.33681">
        <ele>123.3</ele>
        <time>2015-05-05T20:38:41.019Z</time>
      </trkpt>
      <trkpt lat="48.83998" lon="2.33683">
        <ele>123.3</ele>
        <time>2015-05-05T20:38:42.043Z</time>
      </trkpt>
      <trkpt lat="48.84002" lon="2.33685">
        <ele>123.2</ele>
        <time>2015-05-05T20:38:43.054Z</time>
      </trkpt>
      <trkpt lat="48.84007" lon="2.33687">
        <ele>123.4</ele>
        <time>2015-05-05T20:38:44.063Z</time>
      </trkpt>
      <trkpt lat="48.84012" lon="2.3369">
        <ele>123.6</ele>
        <time>2015-05-05T20:38:45.068Z</time>
      </trkpt>
      <trkpt lat="48.84018" lon="2.33694">
        <ele>123.4</ele>
        <time>2015-05-05T20:38:46.085Z</time>
      </trkpt>
      <trkpt lat="48.84024" lon="2.33697">
        <ele>123</ele>
        <time>2015-05-05T20:38:46.986Z</time>
      </trkpt>
      <trkpt lat="48.8403" lon="2.337">
        <ele>122.7</ele>
        <time>2015-05-05T20:38:47.991Z</time>
      </trkpt>
      <trkpt lat="48.84036" lon="2.33704">
        <ele>122.3</ele>
        <time>2015-05-05T20:38:49.012Z</time>
      </trkpt>
      <trkpt lat="48.84042" lon="2.33706">
        <ele>121.8</ele>
        <time>2015-05-05T20:38:50.018Z</time>
      </trkpt>
      <trkpt lat="48.84049" lon="2.33709">
        <ele>121.8</ele>
        <time>2015-05-05T20:38:51.025Z</time>
      </trkpt>
      <trkpt lat="48.84055" lon="2.33711">
        <ele>121.4</ele>
        <time>2015-05-05T20:38:52.075Z</time>
      </trkpt>
      <trkpt lat="48.8406" lon="2.33713">
        <ele>121</ele>
        <time>2015-05-05T20:38:53.057Z</time>
      </trkpt>
      <trkpt lat="48.84066" lon="2.33716">
        <ele>120.3</ele>
        <time>2015-05-05T20:38:54.065Z</time>
      </trkpt>
      <trkpt lat="48.84072" lon="2.33719">
        <ele>119.6</ele>
        <time>2015-05-05T20:38:55.079Z</time>
      </trkpt>
      <trkpt lat="48.84076" lon="2.33721">
        <ele>119</ele>
        <time>2015-05-05T20:38:55.991Z</time>
      </trkpt>
      <trkpt lat="48.84081" lon="2.33724">
        <ele>118.4</ele>
        <time>2015-05-05T20:38:57.018Z</time>
      </trkpt>
      <trkpt lat="48.84086" lon="2.33726">
        <ele>118.1</ele>
        <time>2015-05-05T20:38:58.029Z</time>
      </trkpt>
      <trkpt lat="48.8409" lon="2.33726">
        <ele>117.8</ele>
        <time>2015-05-05T20:38:59.040Z</time>
      </trkpt>
      <trkpt lat="48.84095" lon="2.33726">
        <ele>117.6</ele>
        <time>2015-05-05T20:39:00.057Z</time>
      </trkpt>
      <trkpt lat="48.84101" lon="2.33727">
        <ele>117.6</ele>
        <time>2015-05-05T20:39:01.070Z</time>
      </trkpt>
      <trkpt lat="48.84107" lon="2.33732">
        <ele>117.6</ele>
        <time>2015-05-05T20:39:02.086Z</time>
      </trkpt>
      <trkpt lat="48.84114" lon="2.33737">
        <ele>117.8</ele>
        <time>2015-05-05T20:39:02.991Z</time>
      </trkpt>
      <trkpt lat="48.84122" lon="2.33742">
        <ele>117.6</ele>
        <time>2015-05-05T20:39:04.069Z</time>
      </trkpt>
      <trkpt lat="48.84129" lon="2.33745">
        <ele>117.5</ele>
        <time>2015-05-05T20:39:05.076Z</time>
      </trkpt>
      <trkpt lat="48.84138" lon="2.3375">
        <ele>117.9</ele>
        <time>2015-05-05T20:39:05.987Z</time>
      </trkpt>
      <trkpt lat="48.84147" lon="2.33755">
        <ele>117.5</ele>
        <time>2015-05-05T20:39:06.998Z</time>
      </trkpt>
      <trkpt lat="48.84157" lon="2.33761">
        <ele>117.4</ele>
        <time>2015-05-05T20:39:08.016Z</time>
      </trkpt>
      <trkpt lat="48.84165" lon="2.33766">
        <ele>117.3</ele>
        <time>2015-05-05T20:39:09.027Z</time>
      </trkpt>
      <trkpt lat="48.84172" lon="2.33771">
        <ele>117.4</ele>
        <time>2015-05-05T20:39:10.032Z</time>
      </trkpt>
      <trkpt lat="48.8418" lon="2.33776">
        <ele>117.4</ele>
        <time>2015-05-05T20:39:11.054Z</time>
      </trkpt>
      <trkpt lat="48.84188" lon="2.33778">
        <ele>118.4</ele>
        <time>2015-05-05T20:39:12.057Z</time>
      </trkpt>
      <trkpt lat="48.84196" lon="2.33781">
        <ele>119.2</ele>
        <time>2015-05-05T20:39:13.061Z</time>
      </trkpt>
      <trkpt lat="48.84203" lon="2.33784">
        <ele>120.1</ele>
        <time>2015-05-05T20:39:13.968Z</time>
      </trkpt>
      <trkpt lat="48.84209" lon="2.33787">
        <ele>120.7</ele>
        <time>2015-05-05T20:39:14.995Z</time>
      </trkpt>
      <trkpt lat="48.84215" lon="2.33789">
        <ele>121.1</ele>
        <time>2015-05-05T20:39:16.028Z</time>
      </trkpt>
      <trkpt lat="48.8422" lon="2.33792">
        <ele>121.6</ele>
        <time>2015-05-05T20:39:17.043Z</time>
      </trkpt>
      <trkpt lat="48.84227" lon="2.33795">
        <ele>122.2</ele>
        <time>2015-05-05T20:39:18.055Z</time>
      </trkpt>
      <trkpt lat="48.84238" lon="2.33799">
        <ele>122.4</ele>
        <time>2015-05-05T20:39:19.061Z</time>
      </trkpt>
      <trkpt lat="48.84253" lon="2.33803">
        <ele>123.4</ele>
        <time>2015-05-05T20:39:19.978Z</time>
      </trkpt>
      <trkpt lat="48.84263" lon="2.33808">
        <ele>123.5</ele>
        <time>2015-05-05T20:39:20.986Z</time>
      </trkpt>
      <trkpt lat="48.8427" lon="2.33812">
        <ele>123.6</ele>
        <time>2015-05-05T20:39:22.020Z</time>
      </trkpt>
      <trkpt lat="48.84276" lon="2.33815">
        <ele>123.7</ele>
        <time>2015-05-05T20:39:23.019Z</time>
      </trkpt>
      <trkpt lat="48.84282" lon="2.33819">
        <ele>123.9</ele>
        <time>2015-05-05T20:39:24.024Z</time>
      </trkpt>
      <trkpt lat="48.84287" lon="2.33822">
        <ele>124.4</ele>
        <time>2015-05-05T20:39:25.030Z</time>
      </trkpt>
      <trkpt lat="48.84294" lon="2.33827">
        <ele>124.8</ele>
        <time>2015-05-05T20:39:26.035Z</time>
      </trkpt>
      <trkpt lat="48.84299" lon="2.33831">
        <ele>125</ele>
        <time>2015-05-05T20:39:27.045Z</time>
      </trkpt>
      <trkpt lat="48.84304" lon="2.33836">
        <ele>125.1</ele>
        <time>2015-05-05T20:39:28.052Z</time>
      </trkpt>
      <trkpt lat="48.84311" lon="2.33841">
        <ele>125.2</ele>
        <time>2015-05-05T20:39:29.067Z</time>
      </trkpt>
      <trkpt lat="48.84317" lon="2.33845">
        <ele>125.7</ele>
        <time>2015-05-05T20:39:29.979Z</time>
      </trkpt>
      <trkpt lat="48.84325" lon="2.33848">
        <ele>126.8</ele>
        <time>2015-05-05T20:39:30.986Z</time>
      </trkpt>
      <trkpt lat="48.84329" lon="2.33851">
        <ele>127.5</ele>
        <time>2015-05-05T20:39:31.996Z</time>
      </trkpt>
      <trkpt lat="48.84335" lon="2.33855">
        <ele>128.2</ele>
        <time>2015-05-05T20:39:33.015Z</time>
      </trkpt>
      <trkpt lat="48.84344" lon="2.33858">
        <ele>128.8</ele>
        <time>2015-05-05T20:39:34.054Z</time>
      </trkpt>
      <trkpt lat="48.84352" lon="2.33863">
        <ele>129.4</ele>
        <time>2015-05-05T20:39:34.975Z</time>
      </trkpt>
      <trkpt lat="48.84359" lon="2.33866">
        <ele>129.9</ele>
        <time>2015-05-05T20:39:35.950Z</time>
      </trkpt>
      <trkpt lat="48.84367" lon="2.33871">
        <ele>130.2</ele>
        <time>2015-05-05T20:39:36.984Z</time>
      </trkpt>
      <trkpt lat="48.84376" lon="2.33875">
        <ele>130.3</ele>
        <time>2015-05-05T20:39:37.995Z</time>
      </trkpt>
      <trkpt lat="48.84387" lon="2.33881">
        <ele>128.2</ele>
        <time>2015-05-05T20:39:39.027Z</time>
      </trkpt>
      <trkpt lat="48.84398" lon="2.33889">
        <ele>127.2</ele>
        <time>2015-05-05T20:39:39.983Z</time>
      </trkpt>
      <trkpt lat="48.84405" lon="2.33895">
        <ele>126.9</ele>
        <time>2015-05-05T20:39:40.947Z</time>
      </trkpt>
      <trkpt lat="48.84414" lon="2.33899">
        <ele>126</ele>
        <time>2015-05-05T20:39:41.958Z</time>
      </trkpt>
      <trkpt lat="48.84421" lon="2.33903">
        <ele>126.1</ele>
        <time>2015-05-05T20:39:42.995Z</time>
      </trkpt>
      <trkpt lat="48.84429" lon="2.33906">
        <ele>126.4</ele>
        <time>2015-05-05T20:39:44.023Z</time>
      </trkpt>
      <trkpt lat="48.84436" lon="2.3391">
        <ele>126.1</ele>
        <time>2015-05-05T20:39:45.050Z</time>
      </trkpt>
      <trkpt lat="48.84443" lon="2.33914">
        <ele>125.9</ele>
        <time>2015-05-05T20:39:46.066Z</time>
      </trkpt>
      <trkpt lat="48.8445" lon="2.33918">
        <ele>126.2</ele>
        <time>2015-05-05T20:39:47.022Z</time>
      </trkpt>
      <trkpt lat="48.84456" lon="2.33923">
        <ele>126</ele>
        <time>2015-05-05T20:39:48.024Z</time>
      </trkpt>
      <trkpt lat="48.84461" lon="2.33927">
        <ele>125.6</ele>
        <time>2015-05-05T20:39:49.060Z</time>
      </trkpt>
      <trkpt lat="48.84468" lon="2.33932">
        <ele>125.6</ele>
        <time>2015-05-05T20:39:50.078Z</time>
      </trkpt>
      <trkpt lat="48.84475" lon="2.33938">
        <ele>125.2</ele>
        <time>2015-05-05T20:39:50.985Z</time>
      </trkpt>
      <trkpt lat="48.84482" lon="2.33941">
        <ele>124.9</ele>
        <time>2015-05-05T20:39:52.063Z</time>
      </trkpt>
      <trkpt lat="48.84488" lon="2.33946">
        <ele>124.9</ele>
        <time>2015-05-05T20:39:52.992Z</time>
      </trkpt>
      <trkpt lat="48.84494" lon="2.33951">
        <ele>124.8</ele>
        <time>2015-05-05T20:39:53.993Z</time>
      </trkpt>
      <trkpt lat="48.845" lon="2.33954">
        <ele>125.1</ele>
        <time>2015-05-05T20:39:54.990Z</time>
      </trkpt>
      <trkpt lat="48.84506" lon="2.33958">
        <ele>125.7</ele>
        <time>2015-05-05T20:39:56Z</time>
      </trkpt>
      <trkpt lat="48.84511" lon="2.33962">
        <ele>126.2</ele>
        <time>2015-05-05T20:39:57.042Z</time>
      </trkpt>
      <trkpt lat="48.84516" lon="2.33968">
        <ele>126.3</ele>
        <time>2015-05-05T20:39:58.039Z</time>
      </trkpt>
      <trkpt lat="48.84521" lon="2.33973">
        <ele>126.1</ele>
        <time>2015-05-05T20:39:59.064Z</time>
      </trkpt>
      <trkpt lat="48.84525" lon="2.33977">
        <ele>126</ele>
        <time>2015-05-05T20:40:00.062Z</time>
      </trkpt>
      <trkpt lat="48.84529" lon="2.33981">
        <ele>126.3</ele>
        <time>2015-05-05T20:40:00.977Z</time>
      </trkpt>
      <trkpt lat="48.84533" lon="2.33985">
        <ele>126.4</ele>
        <time>2015-05-05T20:40:02.007Z</time>
      </trkpt>
      <trkpt lat="48.84537" lon="2.33988">
        <ele>126.7</ele>
        <time>2015-05-05T20:40:03.024Z</time>
      </trkpt>
      <trkpt lat="48.84543" lon="2.33991">
        <ele>126.9</ele>
        <time>2015-05-05T20:40:04.074Z</time>
      </trkpt>
      <trkpt lat="48.8455" lon="2.33994">
        <ele>126.4</ele>
        <time>2015-05-05T20:40:04.988Z</time>
      </trkpt>
      <trkpt lat="48.84558" lon="2.33996">
        <ele>126.6</ele>
        <time>2015-05-05T20:40:05.988Z</time>
      </trkpt>
      <trkpt lat="48.84567" lon="2.33997">
        <ele>126.4</ele>
        <time>2015-05-05T20:40:07.010Z</time>
      </trkpt>
      <trkpt lat="48.84576" lon="2.33999">
        <ele>126.1</ele>
        <time>2015-05-05T20:40:08.050Z</time>
      </trkpt>
      <trkpt lat="48.84585" lon="2.34002">
        <ele>125.6</ele>
        <time>2015-05-05T20:40:09.058Z</time>
      </trkpt>
      <trkpt lat="48.84595" lon="2.34007">
        <ele>124.9</ele>
        <time>2015-05-05T20:40:10.073Z</time>
      </trkpt>
      <trkpt lat="48.84607" lon="2.3401">
        <ele>122.7</ele>
        <time>2015-05-05T20:40:11.003Z</time>
      </trkpt>
      <trkpt lat="48.84616" lon="2.34011">
        <ele>121.2</ele>
        <time>2015-05-05T20:40:12.032Z</time>
      </trkpt>
      <trkpt lat="48.84625" lon="2.34013">
        <ele>120.4</ele>
        <time>2015-05-05T20:40:13.039Z</time>
      </trkpt>
      <trkpt lat="48.84633" lon="2.34017">
        <ele>119.9</ele>
        <time>2015-05-05T20:40:14.041Z</time>
      </trkpt>
      <trkpt lat="48.84641" lon="2.34021">
        <ele>119.1</ele>
        <time>2015-05-05T20:40:14.988Z</time>
      </trkpt>
      <trkpt lat="48.84649" lon="2.34027">
        <ele>119</ele>
        <time>2015-05-05T20:40:16.028Z</time>
      </trkpt>
      <trkpt lat="48.84656" lon="2.34031">
        <ele>118.6</ele>
        <time>2015-05-05T20:40:17.098Z</time>
      </trkpt>
      <trkpt lat="48.84662" lon="2.34035">
        <ele>117.9</ele>
        <time>2015-05-05T20:40:17.997Z</time>
      </trkpt>
      <trkpt lat="48.84667" lon="2.34037">
        <ele>117.6</ele>
        <time>2015-05-05T20:40:18.995Z</time>
      </trkpt>
      <trkpt lat="48.84671" lon="2.34041">
        <ele>117.6</ele>
        <time>2015-05-05T20:40:20.008Z</time>
      </trkpt>
      <trkpt lat="48.84677" lon="2.34045">
        <ele>117.6</ele>
        <time>2015-05-05T20:40:21.057Z</time>
      </trkpt>
      <trkpt lat="48.84684" lon="2.3405">
        <ele>117.5</ele>
        <time>2015-05-05T20:40:22.061Z</time>
      </trkpt>
      <trkpt lat="48.84689" lon="2.34055">
        <ele>117.4</ele>
        <time>2015-05-05T20:40:22.991Z</time>
      </trkpt>
      <trkpt lat="48.84694" lon="2.34058">
        <ele>117.5</ele>
        <time>2015-05-05T20:40:23.986Z</time>
      </trkpt>
      <trkpt lat="48.84698" lon="2.34062">
        <ele>117.3</ele>
        <time>2015-05-05T20:40:24.996Z</time>
      </trkpt>
      <trkpt lat="48.84702" lon="2.34065">
        <ele>117.2</ele>
        <time>2015-05-05T20:40:26.018Z</time>
      </trkpt>
      <trkpt lat="48.84708" lon="2.34068">
        <ele>117.4</ele>
        <time>2015-05-05T20:40:28.077Z</time>
      </trkpt>
      <trkpt lat="48.84714" lon="2.34069">
        <ele>117</ele>
        <time>2015-05-05T20:40:28.986Z</time>
      </trkpt>
      <trkpt lat="48.84721" lon="2.3407">
        <ele>117.2</ele>
        <time>2015-05-05T20:40:31.010Z</time>
      </trkpt>
      <trkpt lat="48.84725" lon="2.34071">
        <ele>117.5</ele>
        <time>2015-05-05T20:40:32.031Z</time>
      </trkpt>
      <trkpt lat="48.8473" lon="2.34075">
        <ele>117.2</ele>
        <time>2015-05-05T20:40:33.039Z</time>
      </trkpt>
      <trkpt lat="48.84735" lon="2.34078">
        <ele>117</ele>
        <time>2015-05-05T20:40:34.050Z</time>
      </trkpt>
      <trkpt lat="48.84742" lon="2.34084">
        <ele>116.8</ele>
        <time>2015-05-05T20:40:36.005Z</time>
      </trkpt>
      <trkpt lat="48.84745" lon="2.34085">
        <ele>116.6</ele>
        <time>2015-05-05T20:40:37.070Z</time>
      </trkpt>
      <trkpt lat="48.84752" lon="2.34086">
        <ele>116</ele>
        <time>2015-05-05T20:40:40.033Z</time>
      </trkpt>
      <trkpt lat="48.84754" lon="2.34088">
        <ele>116.8</ele>
        <time>2015-05-05T20:40:41.070Z</time>
      </trkpt>
      <trkpt lat="48.84752" lon="2.34088">
        <ele>117.8</ele>
        <time>2015-05-05T20:41:25.992Z</time>
      </trkpt>
      <trkpt lat="48.84728" lon="2.34083">
        <ele>113.3</ele>
        <time>2015-05-05T20:41:27.010Z</time>
      </trkpt>
      <trkpt lat="48.84731" lon="2.34087">
        <ele>112.9</ele>
        <time>2015-05-05T20:41:45.024Z</time>
      </trkpt>
      <trkpt lat="48.84744" lon="2.34089">
        <ele>113.2</ele>
        <time>2015-05-05T20:41:46.028Z</time>
      </trkpt>
      <trkpt lat="48.84747" lon="2.34098">
        <ele>113.5</ele>
        <time>2015-05-05T20:41:49.077Z</time>
      </trkpt>
      <trkpt lat="48.84749" lon="2.34102">
        <ele>113.7</ele>
        <time>2015-05-05T20:41:50.023Z</time>
      </trkpt>
      <trkpt lat="48.84754" lon="2.34113">
        <ele>114.1</ele>
        <time>2015-05-05T20:41:52.124Z</time>
      </trkpt>
      <trkpt lat="48.84757" lon="2.34118">
        <ele>114.1</ele>
        <time>2015-05-05T20:41:53.079Z</time>
      </trkpt>
      <trkpt lat="48.8476" lon="2.34127">
        <ele>114.1</ele>
        <time>2015-05-05T20:41:54.087Z</time>
      </trkpt>
      <trkpt lat="48.84765" lon="2.34138">
        <ele>113.8</ele>
        <time>2015-05-05T20:41:55.002Z</time>
      </trkpt>
      <trkpt lat="48.84768" lon="2.34144">
        <ele>114.1</ele>
        <time>2015-05-05T20:41:56.025Z</time>
      </trkpt>
      <trkpt lat="48.84773" lon="2.34149">
        <ele>114.1</ele>
        <time>2015-05-05T20:41:57.005Z</time>
      </trkpt>
      <trkpt lat="48.84779" lon="2.34156">
        <ele>114.2</ele>
        <time>2015-05-05T20:41:58.034Z</time>
      </trkpt>
      <trkpt lat="48.84785" lon="2.34162">
        <ele>114.2</ele>
        <time>2015-05-05T20:41:59.036Z</time>
      </trkpt>
      <trkpt lat="48.84791" lon="2.34169">
        <ele>114.2</ele>
        <time>2015-05-05T20:42:00.093Z</time>
      </trkpt>
      <trkpt lat="48.84798" lon="2.34173">
        <ele>114</ele>
        <time>2015-05-05T20:42:00.992Z</time>
      </trkpt>
      <trkpt lat="48.84805" lon="2.34178">
        <ele>113.8</ele>
        <time>2015-05-05T20:42:02.028Z</time>
      </trkpt>
      <trkpt lat="48.84814" lon="2.34185">
        <ele>113.2</ele>
        <time>2015-05-05T20:42:03.031Z</time>
      </trkpt>
      <trkpt lat="48.84821" lon="2.34186">
        <ele>112.2</ele>
        <time>2015-05-05T20:42:04.064Z</time>
      </trkpt>
      <trkpt lat="48.84828" lon="2.34189">
        <ele>112.6</ele>
        <time>2015-05-05T20:42:05.059Z</time>
      </trkpt>
      <trkpt lat="48.84833" lon="2.34191">
        <ele>112.6</ele>
        <time>2015-05-05T20:42:05.982Z</time>
      </trkpt>
      <trkpt lat="48.84839" lon="2.34193">
        <ele>112.8</ele>
        <time>2015-05-05T20:42:07.038Z</time>
      </trkpt>
      <trkpt lat="48.84845" lon="2.34196">
        <ele>112.8</ele>
        <time>2015-05-05T20:42:07.981Z</time>
      </trkpt>
      <trkpt lat="48.8485" lon="2.34199">
        <ele>112.9</ele>
        <time>2015-05-05T20:42:08.992Z</time>
      </trkpt>
      <trkpt lat="48.84856" lon="2.34204">
        <ele>113.1</ele>
        <time>2015-05-05T20:42:10.052Z</time>
      </trkpt>
      <trkpt lat="48.84864" lon="2.34209">
        <ele>113.3</ele>
        <time>2015-05-05T20:42:11.064Z</time>
      </trkpt>
      <trkpt lat="48.84871" lon="2.34214">
        <ele>113.6</ele>
        <time>2015-05-05T20:42:12.011Z</time>
      </trkpt>
      <trkpt lat="48.84877" lon="2.34219">
        <ele>113.6</ele>
        <time>2015-05-05T20:42:13.037Z</time>
      </trkpt>
      <trkpt lat="48.84882" lon="2.34225">
        <ele>113.5</ele>
        <time>2015-05-05T20:42:13.998Z</time>
      </trkpt>
      <trkpt lat="48.84885" lon="2.34229">
        <ele>113.3</ele>
        <time>2015-05-05T20:42:14.994Z</time>
      </trkpt>
      <trkpt lat="48.84892" lon="2.34235">
        <ele>113.2</ele>
        <time>2015-05-05T20:42:17.023Z</time>
      </trkpt>
      <trkpt lat="48.84895" lon="2.34239">
        <ele>113.1</ele>
        <time>2015-05-05T20:42:18.030Z</time>
      </trkpt>
      <trkpt lat="48.84899" lon="2.34242">
        <ele>113.3</ele>
        <time>2015-05-05T20:42:19.044Z</time>
      </trkpt>
      <trkpt lat="48.84904" lon="2.34246">
        <ele>113.3</ele>
        <time>2015-05-05T20:42:20.136Z</time>
      </trkpt>
      <trkpt lat="48.84908" lon="2.34249">
        <ele>113.4</ele>
        <time>2015-05-05T20:42:20.946Z</time>
      </trkpt>
      <trkpt lat="48.84913" lon="2.34252">
        <ele>113.4</ele>
        <time>2015-05-05T20:42:22.021Z</time>
      </trkpt>
      <trkpt lat="48.84921" lon="2.34254">
        <ele>113.4</ele>
        <time>2015-05-05T20:42:24.043Z</time>
      </trkpt>
      <trkpt lat="48.84925" lon="2.34255">
        <ele>113.4</ele>
        <time>2015-05-05T20:42:25.147Z</time>
      </trkpt>
      <trkpt lat="48.84931" lon="2.34259">
        <ele>113.6</ele>
        <time>2015-05-05T20:42:27.017Z</time>
      </trkpt>
      <trkpt lat="48.84937" lon="2.34265">
        <ele>113.5</ele>
        <time>2015-05-05T20:42:28.056Z</time>
      </trkpt>
      <trkpt lat="48.84942" lon="2.34267">
        <ele>113.5</ele>
        <time>2015-05-05T20:42:37.017Z</time>
      </trkpt>
      <trkpt lat="48.84975" lon="2.34272">
        <ele>109.7</ele>
        <time>2015-05-05T20:42:38.030Z</time>
      </trkpt>
      <trkpt lat="48.84979" lon="2.34275">
        <ele>109.6</ele>
        <time>2015-05-05T20:42:39.070Z</time>
      </trkpt>
      <trkpt lat="48.84984" lon="2.3428">
        <ele>109.4</ele>
        <time>2015-05-05T20:42:40.067Z</time>
      </trkpt>
      <trkpt lat="48.8499" lon="2.34284">
        <ele>107.9</ele>
        <time>2015-05-05T20:42:41.072Z</time>
      </trkpt>
      <trkpt lat="48.84997" lon="2.34288">
        <ele>107.7</ele>
        <time>2015-05-05T20:42:41.974Z</time>
      </trkpt>
      <trkpt lat="48.85005" lon="2.3429">
        <ele>107.4</ele>
        <time>2015-05-05T20:42:42.984Z</time>
      </trkpt>
      <trkpt lat="48.85011" lon="2.34293">
        <ele>106.8</ele>
        <time>2015-05-05T20:42:43.987Z</time>
      </trkpt>
      <trkpt lat="48.85017" lon="2.34296">
        <ele>106.7</ele>
        <time>2015-05-05T20:42:45.010Z</time>
      </trkpt>
      <trkpt lat="48.85024" lon="2.34299">
        <ele>106.7</ele>
        <time>2015-05-05T20:42:46.025Z</time>
      </trkpt>
      <trkpt lat="48.85032" lon="2.34302">
        <ele>106.7</ele>
        <time>2015-05-05T20:42:47.031Z</time>
      </trkpt>
      <trkpt lat="48.85039" lon="2.34305">
        <ele>106.9</ele>
        <time>2015-05-05T20:42:48.041Z</time>
      </trkpt>
      <trkpt lat="48.85046" lon="2.34309">
        <ele>107.2</ele>
        <time>2015-05-05T20:42:49.057Z</time>
      </trkpt>
      <trkpt lat="48.85053" lon="2.34312">
        <ele>107.6</ele>
        <time>2015-05-05T20:42:49.949Z</time>
      </trkpt>
      <trkpt lat="48.85058" lon="2.34315">
        <ele>108</ele>
        <time>2015-05-05T20:42:50.977Z</time>
      </trkpt>
      <trkpt lat="48.85063" lon="2.34316">
        <ele>108.4</ele>
        <time>2015-05-05T20:42:52.008Z</time>
      </trkpt>
      <trkpt lat="48.8507" lon="2.34318">
        <ele>109</ele>
        <time>2015-05-05T20:42:54.052Z</time>
      </trkpt>
      <trkpt lat="48.85074" lon="2.3432">
        <ele>107.9</ele>
        <time>2015-05-05T20:42:55.003Z</time>
      </trkpt>
      <trkpt lat="48.8508" lon="2.34321">
        <ele>105.8</ele>
        <time>2015-05-05T20:42:55.978Z</time>
      </trkpt>
      <trkpt lat="48.85085" lon="2.3432">
        <ele>104.2</ele>
        <time>2015-05-05T20:42:56.976Z</time>
      </trkpt>
      <trkpt lat="48.85091" lon="2.34321">
        <ele>102.4</ele>
        <time>2015-05-05T20:42:59.005Z</time>
      </trkpt>
      <trkpt lat="48.85096" lon="2.34321">
        <ele>102.5</ele>
        <time>2015-05-05T20:43:00.066Z</time>
      </trkpt>
      <trkpt lat="48.85102" lon="2.34322">
        <ele>103.1</ele>
        <time>2015-05-05T20:43:00.972Z</time>
      </trkpt>
      <trkpt lat="48.85108" lon="2.34323">
        <ele>103.5</ele>
        <time>2015-05-05T20:43:01.975Z</time>
      </trkpt>
      <trkpt lat="48.85116" lon="2.34327">
        <ele>103</ele>
        <time>2015-05-05T20:43:05.039Z</time>
      </trkpt>
      <trkpt lat="48.8512" lon="2.34328">
        <ele>103</ele>
        <time>2015-05-05T20:43:05.994Z</time>
      </trkpt>
      <trkpt lat="48.85125" lon="2.34329">
        <ele>104</ele>
        <time>2015-05-05T20:43:06.977Z</time>
      </trkpt>
      <trkpt lat="48.85129" lon="2.34331">
        <ele>104.8</ele>
        <time>2015-05-05T20:43:07.986Z</time>
      </trkpt>
      <trkpt lat="48.85134" lon="2.34334">
        <ele>105.7</ele>
        <time>2015-05-05T20:43:09.001Z</time>
      </trkpt>
      <trkpt lat="48.85138" lon="2.34337">
        <ele>106.2</ele>
        <time>2015-05-05T20:43:10.010Z</time>
      </trkpt>
      <trkpt lat="48.85143" lon="2.3434">
        <ele>106.7</ele>
        <time>2015-05-05T20:43:11.021Z</time>
      </trkpt>
      <trkpt lat="48.85149" lon="2.34343">
        <ele>107</ele>
        <time>2015-05-05T20:43:12.030Z</time>
      </trkpt>
      <trkpt lat="48.85156" lon="2.34346">
        <ele>107.9</ele>
        <time>2015-05-05T20:43:13.038Z</time>
      </trkpt>
      <trkpt lat="48.85159" lon="2.34348">
        <ele>107.7</ele>
        <time>2015-05-05T20:43:14.048Z</time>
      </trkpt>
      <trkpt lat="48.85167" lon="2.34352">
        <ele>108.7</ele>
        <time>2015-05-05T20:43:16.065Z</time>
      </trkpt>
      <trkpt lat="48.85172" lon="2.34353">
        <ele>109.2</ele>
        <time>2015-05-05T20:43:17.014Z</time>
      </trkpt>
      <trkpt lat="48.85177" lon="2.34355">
        <ele>109.8</ele>
        <time>2015-05-05T20:43:17.991Z</time>
      </trkpt>
      <trkpt lat="48.85182" lon="2.34357">
        <ele>110.5</ele>
        <time>2015-05-05T20:43:18.987Z</time>
      </trkpt>
      <trkpt lat="48.85188" lon="2.34361">
        <ele>111.2</ele>
        <time>2015-05-05T20:43:19.997Z</time>
      </trkpt>
      <trkpt lat="48.85194" lon="2.34365">
        <ele>111.8</ele>
        <time>2015-05-05T20:43:21.013Z</time>
      </trkpt>
      <trkpt lat="48.85201" lon="2.34369">
        <ele>112.4</ele>
        <time>2015-05-05T20:43:22.026Z</time>
      </trkpt>
      <trkpt lat="48.85208" lon="2.34372">
        <ele>113.2</ele>
        <time>2015-05-05T20:43:23.033Z</time>
      </trkpt>
      <trkpt lat="48.85215" lon="2.34375">
        <ele>114</ele>
        <time>2015-05-05T20:43:24.043Z</time>
      </trkpt>
      <trkpt lat="48.85221" lon="2.34378">
        <ele>114.7</ele>
        <time>2015-05-05T20:43:25.039Z</time>
      </trkpt>
      <trkpt lat="48.85227" lon="2.34381">
        <ele>115.3</ele>
        <time>2015-05-05T20:43:26.053Z</time>
      </trkpt>
      <trkpt lat="48.85232" lon="2.34383">
        <ele>115.5</ele>
        <time>2015-05-05T20:43:27.065Z</time>
      </trkpt>
      <trkpt lat="48.8524" lon="2.34386">
        <ele>114.8</ele>
        <time>2015-05-05T20:43:28.070Z</time>
      </trkpt>
      <trkpt lat="48.8525" lon="2.34389">
        <ele>114.4</ele>
        <time>2015-05-05T20:43:28.982Z</time>
      </trkpt>
      <trkpt lat="48.85256" lon="2.34392">
        <ele>113.9</ele>
        <time>2015-05-05T20:43:29.999Z</time>
      </trkpt>
      <trkpt lat="48.85264" lon="2.34392">
        <ele>113.1</ele>
        <time>2015-05-05T20:43:31.024Z</time>
      </trkpt>
      <trkpt lat="48.85273" lon="2.34396">
        <ele>113.7</ele>
        <time>2015-05-05T20:43:32.032Z</time>
      </trkpt>
      <trkpt lat="48.85281" lon="2.34399">
        <ele>114.4</ele>
        <time>2015-05-05T20:43:33.049Z</time>
      </trkpt>
      <trkpt lat="48.85286" lon="2.34401">
        <ele>114.5</ele>
        <time>2015-05-05T20:43:34.061Z</time>
      </trkpt>
      <trkpt lat="48.85292" lon="2.34404">
        <ele>114.3</ele>
        <time>2015-05-05T20:43:35.071Z</time>
      </trkpt>
      <trkpt lat="48.85302" lon="2.34408">
        <ele>114.5</ele>
        <time>2015-05-05T20:43:36.108Z</time>
      </trkpt>
      <trkpt lat="48.8531" lon="2.3441">
        <ele>113.6</ele>
        <time>2015-05-05T20:43:37.021Z</time>
      </trkpt>
      <trkpt lat="48.85318" lon="2.34413">
        <ele>112.9</ele>
        <time>2015-05-05T20:43:38.026Z</time>
      </trkpt>
      <trkpt lat="48.85324" lon="2.34415">
        <ele>112.6</ele>
        <time>2015-05-05T20:43:39.035Z</time>
      </trkpt>
      <trkpt lat="48.8533" lon="2.34418">
        <ele>111.6</ele>
        <time>2015-05-05T20:43:40.060Z</time>
      </trkpt>
      <trkpt lat="48.85338" lon="2.34421">
        <ele>111</ele>
        <time>2015-05-05T20:43:41.162Z</time>
      </trkpt>
      <trkpt lat="48.85345" lon="2.34425">
        <ele>110.2</ele>
        <time>2015-05-05T20:43:42.016Z</time>
      </trkpt>
      <trkpt lat="48.85352" lon="2.34429">
        <ele>109.8</ele>
        <time>2015-05-05T20:43:43.030Z</time>
      </trkpt>
      <trkpt lat="48.85361" lon="2.34433">
        <ele>109.1</ele>
        <time>2015-05-05T20:43:44.033Z</time>
      </trkpt>
      <trkpt lat="48.85367" lon="2.34437">
        <ele>108.1</ele>
        <time>2015-05-05T20:43:45.046Z</time>
      </trkpt>
      <trkpt lat="48.85374" lon="2.3444">
        <ele>107.4</ele>
        <time>2015-05-05T20:43:46.053Z</time>
      </trkpt>
      <trkpt lat="48.85381" lon="2.34443">
        <ele>106.1</ele>
        <time>2015-05-05T20:43:47.084Z</time>
      </trkpt>
      <trkpt lat="48.85387" lon="2.34446">
        <ele>105.6</ele>
        <time>2015-05-05T20:43:48.026Z</time>
      </trkpt>
      <trkpt lat="48.85393" lon="2.3445">
        <ele>105</ele>
        <time>2015-05-05T20:43:49.036Z</time>
      </trkpt>
      <trkpt lat="48.85399" lon="2.34454">
        <ele>104.2</ele>
        <time>2015-05-05T20:43:50.047Z</time>
      </trkpt>
      <trkpt lat="48.85405" lon="2.34459">
        <ele>104</ele>
        <time>2015-05-05T20:43:50.966Z</time>
      </trkpt>
      <trkpt lat="48.8541" lon="2.34463">
        <ele>102.9</ele>
        <time>2015-05-05T20:43:52.054Z</time>
      </trkpt>
      <trkpt lat="48.85417" lon="2.34468">
        <ele>102.3</ele>
        <time>2015-05-05T20:43:53.084Z</time>
      </trkpt>
      <trkpt lat="48.85423" lon="2.34473">
        <ele>102.1</ele>
        <time>2015-05-05T20:43:53.990Z</time>
      </trkpt>
      <trkpt lat="48.85428" lon="2.34477">
        <ele>101.9</ele>
        <time>2015-05-05T20:43:55Z</time>
      </trkpt>
      <trkpt lat="48.85434" lon="2.34482">
        <ele>101.6</ele>
        <time>2015-05-05T20:43:56.051Z</time>
      </trkpt>
      <trkpt lat="48.85439" lon="2.34487">
        <ele>101.1</ele>
        <time>2015-05-05T20:43:56.990Z</time>
      </trkpt>
      <trkpt lat="48.85445" lon="2.34491">
        <ele>100.8</ele>
        <time>2015-05-05T20:43:58.035Z</time>
      </trkpt>
      <trkpt lat="48.8545" lon="2.34497">
        <ele>100.2</ele>
        <time>2015-05-05T20:43:59.038Z</time>
      </trkpt>
      <trkpt lat="48.85454" lon="2.34501">
        <ele>99.3</ele>
        <time>2015-05-05T20:44:00.077Z</time>
      </trkpt>
      <trkpt lat="48.8546" lon="2.34507">
        <ele>99.5</ele>
        <time>2015-05-05T20:44:01.073Z</time>
      </trkpt>
      <trkpt lat="48.85463" lon="2.34511">
        <ele>99.7</ele>
        <time>2015-05-05T20:44:01.991Z</time>
      </trkpt>
      <trkpt lat="48.85469" lon="2.34517">
        <ele>99.7</ele>
        <time>2015-05-05T20:44:04.092Z</time>
      </trkpt>
      <trkpt lat="48.85471" lon="2.34519">
        <ele>99.5</ele>
        <time>2015-05-05T20:44:04.979Z</time>
      </trkpt>
      <trkpt lat="48.8547" lon="2.34531">
        <ele>99.2</ele>
        <time>2015-05-05T20:44:07.014Z</time>
      </trkpt>
      <trkpt lat="48.8547" lon="2.34538">
        <ele>99.3</ele>
        <time>2015-05-05T20:44:08.104Z</time>
      </trkpt>
      <trkpt lat="48.85474" lon="2.34546">
        <ele>99.7</ele>
        <time>2015-05-05T20:44:10.005Z</time>
      </trkpt>
      <trkpt lat="48.85476" lon="2.34551">
        <ele>99.9</ele>
        <time>2015-05-05T20:44:11.031Z</time>
      </trkpt>
      <trkpt lat="48.85478" lon="2.34559">
        <ele>100.4</ele>
        <time>2015-05-05T20:44:12.942Z</time>
      </trkpt>
      <trkpt lat="48.85479" lon="2.34565">
        <ele>100.6</ele>
        <time>2015-05-05T20:44:13.994Z</time>
      </trkpt>
      <trkpt lat="48.8548" lon="2.3457">
        <ele>100.9</ele>
        <time>2015-05-05T20:44:15.005Z</time>
      </trkpt>
      <trkpt lat="48.85482" lon="2.34578">
        <ele>101</ele>
        <time>2015-05-05T20:44:16.016Z</time>
      </trkpt>
      <trkpt lat="48.85484" lon="2.34588">
        <ele>101</ele>
        <time>2015-05-05T20:44:17.027Z</time>
      </trkpt>
      <trkpt lat="48.85485" lon="2.34596">
        <ele>101</ele>
        <time>2015-05-05T20:44:18.037Z</time>
      </trkpt>
      <trkpt lat="48.85488" lon="2.34608">
        <ele>100.3</ele>
        <time>2015-05-05T20:44:20.065Z</time>
      </trkpt>
      <trkpt lat="48.8549" lon="2.3461">
        <ele>99.6</ele>
        <time>2015-05-05T20:44:21.059Z</time>
      </trkpt>
      <trkpt lat="48.85496" lon="2.3462">
        <ele>98.6</ele>
        <time>2015-05-05T20:44:25.043Z</time>
      </trkpt>
      <trkpt lat="48.855" lon="2.34623">
        <ele>98.8</ele>
        <time>2015-05-05T20:44:26.041Z</time>
      </trkpt>
      <trkpt lat="48.85504" lon="2.34626">
        <ele>98.9</ele>
        <time>2015-05-05T20:44:26.996Z</time>
      </trkpt>
      <trkpt lat="48.85508" lon="2.34628">
        <ele>99.1</ele>
        <time>2015-05-05T20:44:28.032Z</time>
      </trkpt>
      <trkpt lat="48.85517" lon="2.34631">
        <ele>99.3</ele>
        <time>2015-05-05T20:44:29.974Z</time>
      </trkpt>
      <trkpt lat="48.85521" lon="2.34633">
        <ele>99.4</ele>
        <time>2015-05-05T20:44:31.042Z</time>
      </trkpt>
      <trkpt lat="48.85526" lon="2.34638">
        <ele>99.4</ele>
        <time>2015-05-05T20:44:33.030Z</time>
      </trkpt>
      <trkpt lat="48.85529" lon="2.34641">
        <ele>99.3</ele>
        <time>2015-05-05T20:44:34.048Z</time>
      </trkpt>
      <trkpt lat="48.85535" lon="2.34636">
        <ele>96.7</ele>
        <time>2015-05-05T20:44:36.016Z</time>
      </trkpt>
      <trkpt lat="48.85542" lon="2.34636">
        <ele>95</ele>
        <time>2015-05-05T20:44:37.235Z</time>
      </trkpt>
      <trkpt lat="48.8555" lon="2.34633">
        <ele>93.1</ele>
        <time>2015-05-05T20:44:38.184Z</time>
      </trkpt>
      <trkpt lat="48.8556" lon="2.34631">
        <ele>91.3</ele>
        <time>2015-05-05T20:44:38.977Z</time>
      </trkpt>
      <trkpt lat="48.8557" lon="2.34633">
        <ele>90.4</ele>
        <time>2015-05-05T20:44:40.029Z</time>
      </trkpt>
      <trkpt lat="48.85577" lon="2.34635">
        <ele>89.9</ele>
        <time>2015-05-05T20:44:41.075Z</time>
      </trkpt>
      <trkpt lat="48.85587" lon="2.34636">
        <ele>88.2</ele>
        <time>2015-05-05T20:44:42.029Z</time>
      </trkpt>
      <trkpt lat="48.85595" lon="2.34638">
        <ele>86.9</ele>
        <time>2015-05-05T20:44:42.989Z</time>
      </trkpt>
      <trkpt lat="48.85603" lon="2.34642">
        <ele>86.3</ele>
        <time>2015-05-05T20:44:43.999Z</time>
      </trkpt>
      <trkpt lat="48.85611" lon="2.34646">
        <ele>85.5</ele>
        <time>2015-05-05T20:44:45.016Z</time>
      </trkpt>
      <trkpt lat="48.85618" lon="2.3465">
        <ele>85.5</ele>
        <time>2015-05-05T20:44:46.056Z</time>
      </trkpt>
      <trkpt lat="48.85625" lon="2.34653">
        <ele>86</ele>
        <time>2015-05-05T20:44:47.004Z</time>
      </trkpt>
      <trkpt lat="48.85634" lon="2.34657">
        <ele>86.8</ele>
        <time>2015-05-05T20:44:48.036Z</time>
      </trkpt>
      <trkpt lat="48.85641" lon="2.3466">
        <ele>87.4</ele>
        <time>2015-05-05T20:44:49.038Z</time>
      </trkpt>
      <trkpt lat="48.85647" lon="2.34663">
        <ele>87.9</ele>
        <time>2015-05-05T20:44:50.063Z</time>
      </trkpt>
      <trkpt lat="48.85653" lon="2.34666">
        <ele>88.1</ele>
        <time>2015-05-05T20:44:51.074Z</time>
      </trkpt>
      <trkpt lat="48.85659" lon="2.34667">
        <ele>87.7</ele>
        <time>2015-05-05T20:44:52.018Z</time>
      </trkpt>
      <trkpt lat="48.85665" lon="2.3467">
        <ele>87.7</ele>
        <time>2015-05-05T20:44:53.029Z</time>
      </trkpt>
      <trkpt lat="48.85671" lon="2.34672">
        <ele>87.9</ele>
        <time>2015-05-05T20:44:54.049Z</time>
      </trkpt>
      <trkpt lat="48.85676" lon="2.34675">
        <ele>87.5</ele>
        <time>2015-05-05T20:44:55.053Z</time>
      </trkpt>
      <trkpt lat="48.85681" lon="2.34677">
        <ele>87.6</ele>
        <time>2015-05-05T20:44:56.058Z</time>
      </trkpt>
      <trkpt lat="48.85686" lon="2.34679">
        <ele>87.7</ele>
        <time>2015-05-05T20:44:57.065Z</time>
      </trkpt>
      <trkpt lat="48.85691" lon="2.34682">
        <ele>88</ele>
        <time>2015-05-05T20:44:58.026Z</time>
      </trkpt>
      <trkpt lat="48.85696" lon="2.34684">
        <ele>88</ele>
        <time>2015-05-05T20:44:59.024Z</time>
      </trkpt>
      <trkpt lat="48.857" lon="2.34686">
        <ele>88.1</ele>
        <time>2015-05-05T20:45:00.040Z</time>
      </trkpt>
      <trkpt lat="48.85704" lon="2.34688">
        <ele>88.5</ele>
        <time>2015-05-05T20:45:01.055Z</time>
      </trkpt>
      <trkpt lat="48.85709" lon="2.3469">
        <ele>88.7</ele>
        <time>2015-05-05T20:45:01.987Z</time>
      </trkpt>
      <trkpt lat="48.85713" lon="2.34692">
        <ele>88.8</ele>
        <time>2015-05-05T20:45:02.989Z</time>
      </trkpt>
      <trkpt lat="48.85718" lon="2.34693">
        <ele>89</ele>
        <time>2015-05-05T20:45:04.030Z</time>
      </trkpt>
      <trkpt lat="48.85722" lon="2.34694">
        <ele>89.3</ele>
        <time>2015-05-05T20:45:05.041Z</time>
      </trkpt>
      <trkpt lat="48.85728" lon="2.34696">
        <ele>89.9</ele>
        <time>2015-05-05T20:45:06.965Z</time>
      </trkpt>
      <trkpt lat="48.85731" lon="2.34697">
        <ele>90.1</ele>
        <time>2015-05-05T20:45:07.995Z</time>
      </trkpt>
      <trkpt lat="48.85737" lon="2.347">
        <ele>90.4</ele>
        <time>2015-05-05T20:45:10.066Z</time>
      </trkpt>
      <trkpt lat="48.85741" lon="2.34701">
        <ele>90.8</ele>
        <time>2015-05-05T20:45:11.002Z</time>
      </trkpt>
      <trkpt lat="48.85745" lon="2.34703">
        <ele>91.3</ele>
        <time>2015-05-05T20:45:12.003Z</time>
      </trkpt>
      <trkpt lat="48.85749" lon="2.34705">
        <ele>91.6</ele>
        <time>2015-05-05T20:45:13.009Z</time>
      </trkpt>
      <trkpt lat="48.85755" lon="2.34708">
        <ele>91.9</ele>
        <time>2015-05-05T20:45:14.027Z</time>
      </trkpt>
      <trkpt lat="48.8576" lon="2.34711">
        <ele>92.2</ele>
        <time>2015-05-05T20:45:15.028Z</time>
      </trkpt>
      <trkpt lat="48.85764" lon="2.34712">
        <ele>92.8</ele>
        <time>2015-05-05T20:45:16.040Z</time>
      </trkpt>
      <trkpt lat="48.85769" lon="2.34713">
        <ele>93.2</ele>
        <time>2015-05-05T20:45:17.137Z</time>
      </trkpt>
      <trkpt lat="48.85773" lon="2.34714">
        <ele>93.4</ele>
        <time>2015-05-05T20:45:17.980Z</time>
      </trkpt>
      <trkpt lat="48.8578" lon="2.34713">
        <ele>92.3</ele>
        <time>2015-05-05T20:45:18.980Z</time>
      </trkpt>
      <trkpt lat="48.85785" lon="2.34714">
        <ele>92.6</ele>
        <time>2015-05-05T20:45:19.997Z</time>
      </trkpt>
      <trkpt lat="48.85789" lon="2.34715">
        <ele>92.7</ele>
        <time>2015-05-05T20:45:21.011Z</time>
      </trkpt>
      <trkpt lat="48.85793" lon="2.34718">
        <ele>93.2</ele>
        <time>2015-05-05T20:45:22.051Z</time>
      </trkpt>
      <trkpt lat="48.85797" lon="2.34721">
        <ele>93.8</ele>
        <time>2015-05-05T20:45:22.988Z</time>
      </trkpt>
      <trkpt lat="48.85804" lon="2.34725">
        <ele>94.9</ele>
        <time>2015-05-05T20:45:25.014Z</time>
      </trkpt>
      <trkpt lat="48.85806" lon="2.34726">
        <ele>95.5</ele>
        <time>2015-05-05T20:45:26.037Z</time>
      </trkpt>
      <trkpt lat="48.85812" lon="2.34728">
        <ele>96.9</ele>
        <time>2015-05-05T20:45:28.070Z</time>
      </trkpt>
      <trkpt lat="48.85817" lon="2.34727">
        <ele>98.1</ele>
        <time>2015-05-05T20:45:29.015Z</time>
      </trkpt>
      <trkpt lat="48.85822" lon="2.34726">
        <ele>98.2</ele>
        <time>2015-05-05T20:45:30.030Z</time>
      </trkpt>
      <trkpt lat="48.85827" lon="2.34727">
        <ele>98</ele>
        <time>2015-05-05T20:45:31.063Z</time>
      </trkpt>
      <trkpt lat="48.85833" lon="2.34729">
        <ele>98.4</ele>
        <time>2015-05-05T20:45:32.071Z</time>
      </trkpt>
      <trkpt lat="48.85839" lon="2.3473">
        <ele>99.4</ele>
        <time>2015-05-05T20:45:33.031Z</time>
      </trkpt>
      <trkpt lat="48.85844" lon="2.34731">
        <ele>100.4</ele>
        <time>2015-05-05T20:45:34.038Z</time>
      </trkpt>
      <trkpt lat="48.85848" lon="2.34733">
        <ele>101</ele>
        <time>2015-05-05T20:45:35.029Z</time>
      </trkpt>
      <trkpt lat="48.85854" lon="2.34736">
        <ele>101.1</ele>
        <time>2015-05-05T20:45:36.053Z</time>
      </trkpt>
      <trkpt lat="48.85861" lon="2.34736">
        <ele>99.8</ele>
        <time>2015-05-05T20:45:37.048Z</time>
      </trkpt>
      <trkpt lat="48.85866" lon="2.34736">
        <ele>98.8</ele>
        <time>2015-05-05T20:45:38.061Z</time>
      </trkpt>
      <trkpt lat="48.8587" lon="2.34736">
        <ele>98.6</ele>
        <time>2015-05-05T20:45:38.980Z</time>
      </trkpt>
      <trkpt lat="48.85874" lon="2.34736">
        <ele>98.4</ele>
        <time>2015-05-05T20:45:40.095Z</time>
      </trkpt>
      <trkpt lat="48.85879" lon="2.34736">
        <ele>98.3</ele>
        <time>2015-05-05T20:45:40.986Z</time>
      </trkpt>
      <trkpt lat="48.85887" lon="2.34736">
        <ele>98.5</ele>
        <time>2015-05-05T20:45:43.010Z</time>
      </trkpt>
      <trkpt lat="48.85891" lon="2.34737">
        <ele>98.7</ele>
        <time>2015-05-05T20:45:44.048Z</time>
      </trkpt>
      <trkpt lat="48.85896" lon="2.34738">
        <ele>99</ele>
        <time>2015-05-05T20:45:45.071Z</time>
      </trkpt>
      <trkpt lat="48.859" lon="2.34739">
        <ele>99.3</ele>
        <time>2015-05-05T20:45:46.080Z</time>
      </trkpt>
      <trkpt lat="48.85907" lon="2.34738">
        <ele>98.8</ele>
        <time>2015-05-05T20:45:47.981Z</time>
      </trkpt>
      <trkpt lat="48.85912" lon="2.34737">
        <ele>98.8</ele>
        <time>2015-05-05T20:45:48.997Z</time>
      </trkpt>
      <trkpt lat="48.8592" lon="2.34735">
        <ele>99.5</ele>
        <time>2015-05-05T20:45:51.026Z</time>
      </trkpt>
      <trkpt lat="48.85923" lon="2.34734">
        <ele>99.5</ele>
        <time>2015-05-05T20:45:52.087Z</time>
      </trkpt>
      <trkpt lat="48.8593" lon="2.34725">
        <ele>97.7</ele>
        <time>2015-05-05T20:45:53.989Z</time>
      </trkpt>
      <trkpt lat="48.85934" lon="2.34723">
        <ele>97.2</ele>
        <time>2015-05-05T20:45:55.052Z</time>
      </trkpt>
      <trkpt lat="48.85941" lon="2.34718">
        <ele>97.3</ele>
        <time>2015-05-05T20:45:59.020Z</time>
      </trkpt>
      <trkpt lat="48.85942" lon="2.34718">
        <ele>96.9</ele>
        <time>2015-05-05T20:46:00.058Z</time>
      </trkpt>
      <trkpt lat="48.85949" lon="2.34722">
        <ele>96.2</ele>
        <time>2015-05-05T20:47:46.081Z</time>
      </trkpt>
    </trkseg>
  </trk>
</gpx>